<?xml version="1.0" encoding="UTF-8" standalone="no" ?>
<gpx xmlns="http://www.topografix.com/GPX/1/1" xmlns:xsi="http://www.w3.org/2001/XMLSchema-instance" xsi:schemaLocation="http://www.topografix.com/GPX/1/1 http://www.topografix.com/GPX/1/1/gpx.xsd" version="1.1" creator="VisuGPX - https://www.visugpx.com">
  <metadata>
    <name>rando silex 2017</name>
    <desc><![CDATA[111111111111111111111111111111111111111111111111111111111111111111111111111111111]]></desc>
  </metadata>
  <trk>
    <name><![CDATA[20171005133313-HpvlB]]></name>
    <trkseg>
      <trkpt lat="45.01066" lon="1.08936">
        <ele>72</ele>
        <time>2017-10-01T07:02:04.000Z</time>
      </trkpt>
      <trkpt lat="45.01069" lon="1.08933">
        <ele>72</ele>
        <time>2017-10-01T07:02:05.000Z</time>
      </trkpt>
      <trkpt lat="45.01071" lon="1.08931">
        <ele>72</ele>
        <time>2017-10-01T07:02:06.000Z</time>
      </trkpt>
      <trkpt lat="45.01073" lon="1.08928">
        <ele>72</ele>
        <time>2017-10-01T07:02:07.000Z</time>
      </trkpt>
      <trkpt lat="45.01075" lon="1.08925">
        <ele>72</ele>
        <time>2017-10-01T10:25:05.000Z</time>
      </trkpt>
      <trkpt lat="45.01077" lon="1.08922">
        <ele>72</ele>
        <time>2017-10-01T07:02:09.000Z</time>
      </trkpt>
      <trkpt lat="45.01079" lon="1.08919">
        <ele>73</ele>
        <time>2017-10-01T07:02:10.000Z</time>
      </trkpt>
      <trkpt lat="45.01081" lon="1.08916">
        <ele>73</ele>
        <time>2017-10-01T07:02:11.000Z</time>
      </trkpt>
      <trkpt lat="45.01083" lon="1.08914">
        <ele>72</ele>
        <time>2017-10-01T07:02:12.000Z</time>
      </trkpt>
      <trkpt lat="45.01085" lon="1.08911">
        <ele>72</ele>
        <time>2017-10-01T07:02:13.000Z</time>
      </trkpt>
      <trkpt lat="45.01087" lon="1.08909">
        <ele>72</ele>
        <time>2017-10-01T07:02:14.000Z</time>
      </trkpt>
      <trkpt lat="45.0109" lon="1.08907">
        <ele>72</ele>
        <time>2017-10-01T07:02:15.000Z</time>
      </trkpt>
      <trkpt lat="45.01093" lon="1.08906">
        <ele>72</ele>
        <time>2017-10-01T07:02:16.000Z</time>
      </trkpt>
      <trkpt lat="45.01096" lon="1.08905">
        <ele>72</ele>
        <time>2017-10-01T07:02:17.000Z</time>
      </trkpt>
      <trkpt lat="45.011" lon="1.08904">
        <ele>72</ele>
        <time>2017-10-01T07:02:18.000Z</time>
      </trkpt>
      <trkpt lat="45.01103" lon="1.08904">
        <ele>72</ele>
        <time>2017-10-01T07:02:19.000Z</time>
      </trkpt>
      <trkpt lat="45.01107" lon="1.08905">
        <ele>72</ele>
        <time>2017-10-01T07:02:20.000Z</time>
      </trkpt>
      <trkpt lat="45.01112" lon="1.08905">
        <ele>72</ele>
        <time>2017-10-01T07:02:21.000Z</time>
      </trkpt>
      <trkpt lat="45.01116" lon="1.08905">
        <ele>72</ele>
        <time>2017-10-01T07:02:22.000Z</time>
      </trkpt>
      <trkpt lat="45.01119" lon="1.08904">
        <ele>71</ele>
        <time>2017-10-01T07:02:23.000Z</time>
      </trkpt>
      <trkpt lat="45.01123" lon="1.08902">
        <ele>71</ele>
        <time>2017-10-01T07:02:24.000Z</time>
      </trkpt>
      <trkpt lat="45.01125" lon="1.08899">
        <ele>71</ele>
        <time>2017-10-01T07:02:25.000Z</time>
      </trkpt>
      <trkpt lat="45.01125" lon="1.08894">
        <ele>71</ele>
        <time>2017-10-01T07:02:26.000Z</time>
      </trkpt>
      <trkpt lat="45.01125" lon="1.08889">
        <ele>71</ele>
        <time>2017-10-01T07:02:27.000Z</time>
      </trkpt>
      <trkpt lat="45.01123" lon="1.08882">
        <ele>71</ele>
        <time>2017-10-01T07:02:28.000Z</time>
      </trkpt>
      <trkpt lat="45.01121" lon="1.08875">
        <ele>71</ele>
        <time>2017-10-01T07:02:29.000Z</time>
      </trkpt>
      <trkpt lat="45.01119" lon="1.08868">
        <ele>71</ele>
        <time>2017-10-01T07:02:30.000Z</time>
      </trkpt>
      <trkpt lat="45.01117" lon="1.08861">
        <ele>71</ele>
        <time>2017-10-01T07:02:31.000Z</time>
      </trkpt>
      <trkpt lat="45.01114" lon="1.08855">
        <ele>71</ele>
        <time>2017-10-01T07:02:32.000Z</time>
      </trkpt>
      <trkpt lat="45.01112" lon="1.08849">
        <ele>71</ele>
        <time>2017-10-01T07:02:33.000Z</time>
      </trkpt>
      <trkpt lat="45.01109" lon="1.08844">
        <ele>70</ele>
        <time>2017-10-01T07:02:34.000Z</time>
      </trkpt>
      <trkpt lat="45.01107" lon="1.0884">
        <ele>70</ele>
        <time>2017-10-01T07:02:35.000Z</time>
      </trkpt>
      <trkpt lat="45.01105" lon="1.08837">
        <ele>70</ele>
        <time>2017-10-01T07:02:36.000Z</time>
      </trkpt>
      <trkpt lat="45.01103" lon="1.08835">
        <ele>70</ele>
        <time>2017-10-01T07:02:37.000Z</time>
      </trkpt>
      <trkpt lat="45.01101" lon="1.08834">
        <ele>70</ele>
        <time>2017-10-01T07:02:38.000Z</time>
      </trkpt>
      <trkpt lat="45.011" lon="1.08833">
        <ele>70</ele>
        <time>2017-10-01T07:02:39.000Z</time>
      </trkpt>
      <trkpt lat="45.01098" lon="1.08832">
        <ele>70</ele>
        <time>2017-10-01T07:02:40.000Z</time>
      </trkpt>
      <trkpt lat="45.01096" lon="1.08831">
        <ele>71</ele>
        <time>2017-10-01T07:02:41.000Z</time>
      </trkpt>
      <trkpt lat="45.01093" lon="1.08831">
        <ele>71</ele>
        <time>2017-10-01T07:02:42.000Z</time>
      </trkpt>
      <trkpt lat="45.01091" lon="1.0883">
        <ele>71</ele>
        <time>2017-10-01T07:02:43.000Z</time>
      </trkpt>
      <trkpt lat="45.01089" lon="1.08829">
        <ele>71</ele>
        <time>2017-10-01T07:02:44.000Z</time>
      </trkpt>
      <trkpt lat="45.01087" lon="1.08829">
        <ele>71</ele>
        <time>2017-10-01T07:02:45.000Z</time>
      </trkpt>
      <trkpt lat="45.01084" lon="1.08828">
        <ele>71</ele>
        <time>2017-10-01T10:26:22.000Z</time>
      </trkpt>
      <trkpt lat="45.01082" lon="1.08827">
        <ele>71</ele>
        <time>2017-10-01T07:02:47.000Z</time>
      </trkpt>
      <trkpt lat="45.0108" lon="1.08826">
        <ele>71</ele>
        <time>2017-10-01T07:02:48.000Z</time>
      </trkpt>
      <trkpt lat="45.01078" lon="1.08825">
        <ele>71</ele>
        <time>2017-10-01T07:02:49.000Z</time>
      </trkpt>
      <trkpt lat="45.01076" lon="1.08824">
        <ele>71</ele>
        <time>2017-10-01T07:02:50.000Z</time>
      </trkpt>
      <trkpt lat="45.01074" lon="1.08824">
        <ele>71</ele>
        <time>2017-10-01T07:02:51.000Z</time>
      </trkpt>
      <trkpt lat="45.01072" lon="1.08823">
        <ele>71</ele>
        <time>2017-10-01T07:02:52.000Z</time>
      </trkpt>
      <trkpt lat="45.0107" lon="1.08823">
        <ele>71</ele>
        <time>2017-10-01T07:02:53.000Z</time>
      </trkpt>
      <trkpt lat="45.01068" lon="1.08822">
        <ele>71</ele>
        <time>2017-10-01T07:02:54.000Z</time>
      </trkpt>
      <trkpt lat="45.01067" lon="1.08822">
        <ele>71</ele>
        <time>2017-10-01T07:02:55.000Z</time>
      </trkpt>
      <trkpt lat="45.01065" lon="1.08821">
        <ele>71</ele>
        <time>2017-10-01T07:02:56.000Z</time>
      </trkpt>
      <trkpt lat="45.01063" lon="1.08821">
        <ele>71</ele>
        <time>2017-10-01T07:02:57.000Z</time>
      </trkpt>
      <trkpt lat="45.01061" lon="1.08821">
        <ele>71</ele>
        <time>2017-10-01T07:02:58.000Z</time>
      </trkpt>
      <trkpt lat="45.01059" lon="1.0882">
        <ele>71</ele>
        <time>2017-10-01T10:26:17.000Z</time>
      </trkpt>
      <trkpt lat="45.01058" lon="1.0882">
        <ele>71</ele>
        <time>2017-10-01T07:03:00.000Z</time>
      </trkpt>
      <trkpt lat="45.01056" lon="1.08819">
        <ele>71</ele>
        <time>2017-10-01T07:03:01.000Z</time>
      </trkpt>
      <trkpt lat="45.01054" lon="1.08818">
        <ele>72</ele>
        <time>2017-10-01T07:03:02.000Z</time>
      </trkpt>
      <trkpt lat="45.01053" lon="1.08817">
        <ele>72</ele>
        <time>2017-10-01T07:03:03.000Z</time>
      </trkpt>
      <trkpt lat="45.01051" lon="1.08815">
        <ele>72</ele>
        <time>2017-10-01T07:03:04.000Z</time>
      </trkpt>
      <trkpt lat="45.0105" lon="1.08813">
        <ele>72</ele>
        <time>2017-10-01T07:03:05.000Z</time>
      </trkpt>
      <trkpt lat="45.01049" lon="1.08811">
        <ele>72</ele>
        <time>2017-10-01T07:03:06.000Z</time>
      </trkpt>
      <trkpt lat="45.01047" lon="1.08809">
        <ele>72</ele>
        <time>2017-10-01T07:03:07.000Z</time>
      </trkpt>
      <trkpt lat="45.01046" lon="1.08807">
        <ele>72</ele>
        <time>2017-10-01T10:26:13.000Z</time>
      </trkpt>
      <trkpt lat="45.01044" lon="1.08805">
        <ele>72</ele>
        <time>2017-10-01T07:03:09.000Z</time>
      </trkpt>
      <trkpt lat="45.01042" lon="1.08804">
        <ele>72</ele>
        <time>2017-10-01T07:03:10.000Z</time>
      </trkpt>
      <trkpt lat="45.0104" lon="1.08802">
        <ele>73</ele>
        <time>2017-10-01T07:03:11.000Z</time>
      </trkpt>
      <trkpt lat="45.01037" lon="1.08801">
        <ele>73</ele>
        <time>2017-10-01T07:03:12.000Z</time>
      </trkpt>
      <trkpt lat="45.01035" lon="1.088">
        <ele>73</ele>
        <time>2017-10-01T07:03:13.000Z</time>
      </trkpt>
      <trkpt lat="45.01032" lon="1.08798">
        <ele>73</ele>
        <time>2017-10-01T07:03:14.000Z</time>
      </trkpt>
      <trkpt lat="45.01029" lon="1.08796">
        <ele>73</ele>
        <time>2017-10-01T07:03:15.000Z</time>
      </trkpt>
      <trkpt lat="45.01027" lon="1.08794">
        <ele>73</ele>
        <time>2017-10-01T07:03:16.000Z</time>
      </trkpt>
      <trkpt lat="45.01024" lon="1.08792">
        <ele>73</ele>
        <time>2017-10-01T07:03:17.000Z</time>
      </trkpt>
      <trkpt lat="45.01021" lon="1.08791">
        <ele>74</ele>
        <time>2017-10-01T07:03:18.000Z</time>
      </trkpt>
      <trkpt lat="45.01018" lon="1.08789">
        <ele>74</ele>
        <time>2017-10-01T07:03:19.000Z</time>
      </trkpt>
      <trkpt lat="45.01015" lon="1.08788">
        <ele>74</ele>
        <time>2017-10-01T07:03:20.000Z</time>
      </trkpt>
      <trkpt lat="45.01012" lon="1.08786">
        <ele>74</ele>
        <time>2017-10-01T07:03:21.000Z</time>
      </trkpt>
      <trkpt lat="45.0101" lon="1.08785">
        <ele>74</ele>
        <time>2017-10-01T07:03:22.000Z</time>
      </trkpt>
      <trkpt lat="45.01007" lon="1.08784">
        <ele>74</ele>
        <time>2017-10-01T07:03:23.000Z</time>
      </trkpt>
      <trkpt lat="45.01005" lon="1.08783">
        <ele>74</ele>
        <time>2017-10-01T07:03:24.000Z</time>
      </trkpt>
      <trkpt lat="45.01002" lon="1.08782">
        <ele>74</ele>
        <time>2017-10-01T07:03:25.000Z</time>
      </trkpt>
      <trkpt lat="45.01" lon="1.08781">
        <ele>74</ele>
        <time>2017-10-01T07:03:26.000Z</time>
      </trkpt>
      <trkpt lat="45.00997" lon="1.08781">
        <ele>74</ele>
        <time>2017-10-01T07:03:27.000Z</time>
      </trkpt>
      <trkpt lat="45.00995" lon="1.08781">
        <ele>75</ele>
        <time>2017-10-01T07:03:28.000Z</time>
      </trkpt>
      <trkpt lat="45.00992" lon="1.08781">
        <ele>75</ele>
        <time>2017-10-01T07:03:29.000Z</time>
      </trkpt>
      <trkpt lat="45.00988" lon="1.08782">
        <ele>75</ele>
        <time>2017-10-01T07:03:30.000Z</time>
      </trkpt>
      <trkpt lat="45.00985" lon="1.08783">
        <ele>75</ele>
        <time>2017-10-01T07:03:31.000Z</time>
      </trkpt>
      <trkpt lat="45.00982" lon="1.08784">
        <ele>75</ele>
        <time>2017-10-01T07:03:32.000Z</time>
      </trkpt>
      <trkpt lat="45.00979" lon="1.08785">
        <ele>75</ele>
        <time>2017-10-01T07:03:33.000Z</time>
      </trkpt>
      <trkpt lat="45.00975" lon="1.08786">
        <ele>75</ele>
        <time>2017-10-01T07:03:34.000Z</time>
      </trkpt>
      <trkpt lat="45.00972" lon="1.08788">
        <ele>75</ele>
        <time>2017-10-01T07:03:35.000Z</time>
      </trkpt>
      <trkpt lat="45.0097" lon="1.08789">
        <ele>75</ele>
        <time>2017-10-01T07:03:36.000Z</time>
      </trkpt>
      <trkpt lat="45.00967" lon="1.08791">
        <ele>75</ele>
        <time>2017-10-01T07:03:37.000Z</time>
      </trkpt>
      <trkpt lat="45.00964" lon="1.08792">
        <ele>75</ele>
        <time>2017-10-01T07:03:38.000Z</time>
      </trkpt>
      <trkpt lat="45.00961" lon="1.08794">
        <ele>75</ele>
        <time>2017-10-01T07:03:39.000Z</time>
      </trkpt>
      <trkpt lat="45.00958" lon="1.08795">
        <ele>74</ele>
        <time>2017-10-01T07:03:40.000Z</time>
      </trkpt>
      <trkpt lat="45.00955" lon="1.08797">
        <ele>74</ele>
        <time>2017-10-01T07:03:41.000Z</time>
      </trkpt>
      <trkpt lat="45.00952" lon="1.08799">
        <ele>74</ele>
        <time>2017-10-01T07:03:42.000Z</time>
      </trkpt>
      <trkpt lat="45.00949" lon="1.08801">
        <ele>74</ele>
        <time>2017-10-01T07:03:43.000Z</time>
      </trkpt>
      <trkpt lat="45.00945" lon="1.08803">
        <ele>74</ele>
        <time>2017-10-01T07:03:44.000Z</time>
      </trkpt>
      <trkpt lat="45.00942" lon="1.08805">
        <ele>74</ele>
        <time>2017-10-01T07:03:45.000Z</time>
      </trkpt>
      <trkpt lat="45.00938" lon="1.08808">
        <ele>74</ele>
        <time>2017-10-01T07:03:46.000Z</time>
      </trkpt>
      <trkpt lat="45.00935" lon="1.08811">
        <ele>74</ele>
        <time>2017-10-01T07:03:47.000Z</time>
      </trkpt>
      <trkpt lat="45.00932" lon="1.08814">
        <ele>73</ele>
        <time>2017-10-01T07:03:48.000Z</time>
      </trkpt>
      <trkpt lat="45.0093" lon="1.08817">
        <ele>73</ele>
        <time>2017-10-01T07:03:49.000Z</time>
      </trkpt>
      <trkpt lat="45.00927" lon="1.08821">
        <ele>73</ele>
        <time>2017-10-01T07:03:50.000Z</time>
      </trkpt>
      <trkpt lat="45.00924" lon="1.08824">
        <ele>72</ele>
        <time>2017-10-01T07:03:51.000Z</time>
      </trkpt>
      <trkpt lat="45.00921" lon="1.08827">
        <ele>72</ele>
        <time>2017-10-01T07:03:52.000Z</time>
      </trkpt>
      <trkpt lat="45.00919" lon="1.08831">
        <ele>72</ele>
        <time>2017-10-01T07:03:53.000Z</time>
      </trkpt>
      <trkpt lat="45.00916" lon="1.08833">
        <ele>72</ele>
        <time>2017-10-01T07:03:54.000Z</time>
      </trkpt>
      <trkpt lat="45.00913" lon="1.08836">
        <ele>72</ele>
        <time>2017-10-01T07:03:55.000Z</time>
      </trkpt>
      <trkpt lat="45.0091" lon="1.08839">
        <ele>72</ele>
        <time>2017-10-01T07:03:56.000Z</time>
      </trkpt>
      <trkpt lat="45.00908" lon="1.08842">
        <ele>72</ele>
        <time>2017-10-01T07:03:57.000Z</time>
      </trkpt>
      <trkpt lat="45.00905" lon="1.08844">
        <ele>72</ele>
        <time>2017-10-01T07:03:58.000Z</time>
      </trkpt>
      <trkpt lat="45.00902" lon="1.08847">
        <ele>73</ele>
        <time>2017-10-01T07:03:59.000Z</time>
      </trkpt>
      <trkpt lat="45.00899" lon="1.0885">
        <ele>73</ele>
        <time>2017-10-01T07:04:00.000Z</time>
      </trkpt>
      <trkpt lat="45.00896" lon="1.08854">
        <ele>73</ele>
        <time>2017-10-01T07:04:01.000Z</time>
      </trkpt>
      <trkpt lat="45.00893" lon="1.08857">
        <ele>73</ele>
        <time>2017-10-01T07:04:02.000Z</time>
      </trkpt>
      <trkpt lat="45.0089" lon="1.0886">
        <ele>73</ele>
        <time>2017-10-01T07:04:03.000Z</time>
      </trkpt>
      <trkpt lat="45.00887" lon="1.08863">
        <ele>73</ele>
        <time>2017-10-01T07:04:04.000Z</time>
      </trkpt>
      <trkpt lat="45.00885" lon="1.08867">
        <ele>73</ele>
        <time>2017-10-01T07:04:05.000Z</time>
      </trkpt>
      <trkpt lat="45.00882" lon="1.0887">
        <ele>74</ele>
        <time>2017-10-01T07:04:06.000Z</time>
      </trkpt>
      <trkpt lat="45.00879" lon="1.08873">
        <ele>74</ele>
        <time>2017-10-01T07:04:07.000Z</time>
      </trkpt>
      <trkpt lat="45.00876" lon="1.08876">
        <ele>74</ele>
        <time>2017-10-01T07:04:08.000Z</time>
      </trkpt>
      <trkpt lat="45.00874" lon="1.08879">
        <ele>74</ele>
        <time>2017-10-01T07:04:09.000Z</time>
      </trkpt>
      <trkpt lat="45.00871" lon="1.08883">
        <ele>74</ele>
        <time>2017-10-01T07:04:10.000Z</time>
      </trkpt>
      <trkpt lat="45.00869" lon="1.08886">
        <ele>74</ele>
        <time>2017-10-01T07:04:11.000Z</time>
      </trkpt>
      <trkpt lat="45.00866" lon="1.08889">
        <ele>74</ele>
        <time>2017-10-01T07:04:12.000Z</time>
      </trkpt>
      <trkpt lat="45.00864" lon="1.08892">
        <ele>74</ele>
        <time>2017-10-01T07:04:13.000Z</time>
      </trkpt>
      <trkpt lat="45.00862" lon="1.08896">
        <ele>74</ele>
        <time>2017-10-01T07:04:14.000Z</time>
      </trkpt>
      <trkpt lat="45.00859" lon="1.08899">
        <ele>74</ele>
        <time>2017-10-01T07:04:15.000Z</time>
      </trkpt>
      <trkpt lat="45.00857" lon="1.08903">
        <ele>74</ele>
        <time>2017-10-01T07:04:16.000Z</time>
      </trkpt>
      <trkpt lat="45.00855" lon="1.08906">
        <ele>74</ele>
        <time>2017-10-01T07:04:17.000Z</time>
      </trkpt>
      <trkpt lat="45.00853" lon="1.0891">
        <ele>74</ele>
        <time>2017-10-01T07:04:18.000Z</time>
      </trkpt>
      <trkpt lat="45.00851" lon="1.08914">
        <ele>73</ele>
        <time>2017-10-01T07:04:19.000Z</time>
      </trkpt>
      <trkpt lat="45.00848" lon="1.08917">
        <ele>73</ele>
        <time>2017-10-01T07:04:20.000Z</time>
      </trkpt>
      <trkpt lat="45.00846" lon="1.08921">
        <ele>73</ele>
        <time>2017-10-01T07:04:21.000Z</time>
      </trkpt>
      <trkpt lat="45.00843" lon="1.08925">
        <ele>74</ele>
        <time>2017-10-01T07:04:22.000Z</time>
      </trkpt>
      <trkpt lat="45.00841" lon="1.08929">
        <ele>74</ele>
        <time>2017-10-01T07:04:23.000Z</time>
      </trkpt>
      <trkpt lat="45.00838" lon="1.08933">
        <ele>74</ele>
        <time>2017-10-01T07:04:24.000Z</time>
      </trkpt>
      <trkpt lat="45.00835" lon="1.08937">
        <ele>74</ele>
        <time>2017-10-01T07:04:25.000Z</time>
      </trkpt>
      <trkpt lat="45.00832" lon="1.08941">
        <ele>74</ele>
        <time>2017-10-01T07:04:26.000Z</time>
      </trkpt>
      <trkpt lat="45.00829" lon="1.08945">
        <ele>74</ele>
        <time>2017-10-01T07:04:27.000Z</time>
      </trkpt>
      <trkpt lat="45.00826" lon="1.08949">
        <ele>74</ele>
        <time>2017-10-01T07:04:28.000Z</time>
      </trkpt>
      <trkpt lat="45.00823" lon="1.08954">
        <ele>74</ele>
        <time>2017-10-01T07:04:29.000Z</time>
      </trkpt>
      <trkpt lat="45.00821" lon="1.08958">
        <ele>74</ele>
        <time>2017-10-01T07:04:30.000Z</time>
      </trkpt>
      <trkpt lat="45.00818" lon="1.08963">
        <ele>74</ele>
        <time>2017-10-01T07:04:31.000Z</time>
      </trkpt>
      <trkpt lat="45.00815" lon="1.08968">
        <ele>74</ele>
        <time>2017-10-01T07:04:32.000Z</time>
      </trkpt>
      <trkpt lat="45.00813" lon="1.08973">
        <ele>74</ele>
        <time>2017-10-01T07:04:33.000Z</time>
      </trkpt>
      <trkpt lat="45.00811" lon="1.08978">
        <ele>74</ele>
        <time>2017-10-01T07:04:34.000Z</time>
      </trkpt>
      <trkpt lat="45.0081" lon="1.08983">
        <ele>74</ele>
        <time>2017-10-01T07:04:35.000Z</time>
      </trkpt>
      <trkpt lat="45.00809" lon="1.08987">
        <ele>74</ele>
        <time>2017-10-01T07:04:36.000Z</time>
      </trkpt>
      <trkpt lat="45.00808" lon="1.08992">
        <ele>74</ele>
        <time>2017-10-01T07:04:37.000Z</time>
      </trkpt>
      <trkpt lat="45.00807" lon="1.08997">
        <ele>74</ele>
        <time>2017-10-01T07:04:38.000Z</time>
      </trkpt>
      <trkpt lat="45.00806" lon="1.09002">
        <ele>74</ele>
        <time>2017-10-01T07:04:39.000Z</time>
      </trkpt>
      <trkpt lat="45.00804" lon="1.09006">
        <ele>74</ele>
        <time>2017-10-01T07:04:40.000Z</time>
      </trkpt>
      <trkpt lat="45.00803" lon="1.0901">
        <ele>73</ele>
        <time>2017-10-01T07:04:41.000Z</time>
      </trkpt>
      <trkpt lat="45.008" lon="1.09015">
        <ele>73</ele>
        <time>2017-10-01T07:04:42.000Z</time>
      </trkpt>
      <trkpt lat="45.00798" lon="1.09019">
        <ele>73</ele>
        <time>2017-10-01T07:04:43.000Z</time>
      </trkpt>
      <trkpt lat="45.00796" lon="1.09023">
        <ele>73</ele>
        <time>2017-10-01T07:04:44.000Z</time>
      </trkpt>
      <trkpt lat="45.00793" lon="1.09027">
        <ele>73</ele>
        <time>2017-10-01T07:04:45.000Z</time>
      </trkpt>
      <trkpt lat="45.00791" lon="1.0903">
        <ele>72</ele>
        <time>2017-10-01T07:04:46.000Z</time>
      </trkpt>
      <trkpt lat="45.00789" lon="1.09034">
        <ele>72</ele>
        <time>2017-10-01T07:04:47.000Z</time>
      </trkpt>
      <trkpt lat="45.00786" lon="1.09037">
        <ele>72</ele>
        <time>2017-10-01T07:04:48.000Z</time>
      </trkpt>
      <trkpt lat="45.00784" lon="1.09041">
        <ele>72</ele>
        <time>2017-10-01T07:04:49.000Z</time>
      </trkpt>
      <trkpt lat="45.00783" lon="1.09044">
        <ele>72</ele>
        <time>2017-10-01T07:04:50.000Z</time>
      </trkpt>
      <trkpt lat="45.00781" lon="1.09047">
        <ele>72</ele>
        <time>2017-10-01T07:04:51.000Z</time>
      </trkpt>
      <trkpt lat="45.00779" lon="1.09051">
        <ele>72</ele>
        <time>2017-10-01T07:04:52.000Z</time>
      </trkpt>
      <trkpt lat="45.00777" lon="1.09054">
        <ele>71</ele>
        <time>2017-10-01T07:04:53.000Z</time>
      </trkpt>
      <trkpt lat="45.00775" lon="1.09058">
        <ele>71</ele>
        <time>2017-10-01T07:04:54.000Z</time>
      </trkpt>
      <trkpt lat="45.00773" lon="1.09061">
        <ele>71</ele>
        <time>2017-10-01T07:04:55.000Z</time>
      </trkpt>
      <trkpt lat="45.00771" lon="1.09064">
        <ele>71</ele>
        <time>2017-10-01T07:04:56.000Z</time>
      </trkpt>
      <trkpt lat="45.00769" lon="1.09068">
        <ele>71</ele>
        <time>2017-10-01T07:04:57.000Z</time>
      </trkpt>
      <trkpt lat="45.00767" lon="1.09072">
        <ele>71</ele>
        <time>2017-10-01T07:04:58.000Z</time>
      </trkpt>
      <trkpt lat="45.00765" lon="1.09076">
        <ele>71</ele>
        <time>2017-10-01T07:04:59.000Z</time>
      </trkpt>
      <trkpt lat="45.00763" lon="1.09081">
        <ele>71</ele>
        <time>2017-10-01T07:05:00.000Z</time>
      </trkpt>
      <trkpt lat="45.00761" lon="1.09086">
        <ele>71</ele>
        <time>2017-10-01T07:05:01.000Z</time>
      </trkpt>
      <trkpt lat="45.0076" lon="1.09091">
        <ele>70</ele>
        <time>2017-10-01T07:05:02.000Z</time>
      </trkpt>
      <trkpt lat="45.00758" lon="1.09096">
        <ele>70</ele>
        <time>2017-10-01T07:05:03.000Z</time>
      </trkpt>
      <trkpt lat="45.00757" lon="1.09101">
        <ele>70</ele>
        <time>2017-10-01T07:05:04.000Z</time>
      </trkpt>
      <trkpt lat="45.00755" lon="1.09106">
        <ele>70</ele>
        <time>2017-10-01T07:05:05.000Z</time>
      </trkpt>
      <trkpt lat="45.00753" lon="1.0911">
        <ele>70</ele>
        <time>2017-10-01T07:05:06.000Z</time>
      </trkpt>
      <trkpt lat="45.00751" lon="1.09115">
        <ele>70</ele>
        <time>2017-10-01T07:05:07.000Z</time>
      </trkpt>
      <trkpt lat="45.00748" lon="1.0912">
        <ele>70</ele>
        <time>2017-10-01T07:05:08.000Z</time>
      </trkpt>
      <trkpt lat="45.00745" lon="1.09124">
        <ele>70</ele>
        <time>2017-10-01T07:05:09.000Z</time>
      </trkpt>
      <trkpt lat="45.00742" lon="1.09129">
        <ele>70</ele>
        <time>2017-10-01T07:05:10.000Z</time>
      </trkpt>
      <trkpt lat="45.00739" lon="1.09133">
        <ele>70</ele>
        <time>2017-10-01T07:05:11.000Z</time>
      </trkpt>
      <trkpt lat="45.00736" lon="1.09137">
        <ele>70</ele>
        <time>2017-10-01T07:05:12.000Z</time>
      </trkpt>
      <trkpt lat="45.00732" lon="1.09141">
        <ele>70</ele>
        <time>2017-10-01T07:05:13.000Z</time>
      </trkpt>
      <trkpt lat="45.00729" lon="1.09145">
        <ele>70</ele>
        <time>2017-10-01T07:05:14.000Z</time>
      </trkpt>
      <trkpt lat="45.00726" lon="1.09149">
        <ele>70</ele>
        <time>2017-10-01T07:05:15.000Z</time>
      </trkpt>
      <trkpt lat="45.00723" lon="1.09152">
        <ele>70</ele>
        <time>2017-10-01T07:05:16.000Z</time>
      </trkpt>
      <trkpt lat="45.00719" lon="1.09154">
        <ele>69</ele>
        <time>2017-10-01T07:05:17.000Z</time>
      </trkpt>
      <trkpt lat="45.00716" lon="1.09157">
        <ele>69</ele>
        <time>2017-10-01T07:05:18.000Z</time>
      </trkpt>
      <trkpt lat="45.00713" lon="1.09159">
        <ele>69</ele>
        <time>2017-10-01T07:05:19.000Z</time>
      </trkpt>
      <trkpt lat="45.00711" lon="1.09162">
        <ele>69</ele>
        <time>2017-10-01T07:05:20.000Z</time>
      </trkpt>
      <trkpt lat="45.00708" lon="1.09164">
        <ele>69</ele>
        <time>2017-10-01T07:05:21.000Z</time>
      </trkpt>
      <trkpt lat="45.00705" lon="1.09166">
        <ele>69</ele>
        <time>2017-10-01T07:05:22.000Z</time>
      </trkpt>
      <trkpt lat="45.00702" lon="1.09168">
        <ele>68</ele>
        <time>2017-10-01T07:05:23.000Z</time>
      </trkpt>
      <trkpt lat="45.00699" lon="1.0917">
        <ele>68</ele>
        <time>2017-10-01T07:05:24.000Z</time>
      </trkpt>
      <trkpt lat="45.00696" lon="1.09173">
        <ele>68</ele>
        <time>2017-10-01T07:05:25.000Z</time>
      </trkpt>
      <trkpt lat="45.00694" lon="1.09175">
        <ele>68</ele>
        <time>2017-10-01T07:05:26.000Z</time>
      </trkpt>
      <trkpt lat="45.00691" lon="1.09178">
        <ele>68</ele>
        <time>2017-10-01T07:05:27.000Z</time>
      </trkpt>
      <trkpt lat="45.00689" lon="1.09181">
        <ele>68</ele>
        <time>2017-10-01T07:05:28.000Z</time>
      </trkpt>
      <trkpt lat="45.00687" lon="1.09185">
        <ele>68</ele>
        <time>2017-10-01T07:05:29.000Z</time>
      </trkpt>
      <trkpt lat="45.00685" lon="1.09189">
        <ele>68</ele>
        <time>2017-10-01T07:05:30.000Z</time>
      </trkpt>
      <trkpt lat="45.00683" lon="1.09193">
        <ele>68</ele>
        <time>2017-10-01T07:05:31.000Z</time>
      </trkpt>
      <trkpt lat="45.00683" lon="1.09197">
        <ele>68</ele>
        <time>2017-10-01T07:05:32.000Z</time>
      </trkpt>
      <trkpt lat="45.00683" lon="1.09202">
        <ele>68</ele>
        <time>2017-10-01T07:05:33.000Z</time>
      </trkpt>
      <trkpt lat="45.00684" lon="1.09206">
        <ele>68</ele>
        <time>2017-10-01T07:05:34.000Z</time>
      </trkpt>
      <trkpt lat="45.00686" lon="1.09211">
        <ele>68</ele>
        <time>2017-10-01T07:05:35.000Z</time>
      </trkpt>
      <trkpt lat="45.00688" lon="1.09216">
        <ele>68</ele>
        <time>2017-10-01T07:05:36.000Z</time>
      </trkpt>
      <trkpt lat="45.00691" lon="1.09221">
        <ele>68</ele>
        <time>2017-10-01T07:05:37.000Z</time>
      </trkpt>
      <trkpt lat="45.00693" lon="1.09226">
        <ele>68</ele>
        <time>2017-10-01T07:05:38.000Z</time>
      </trkpt>
      <trkpt lat="45.00695" lon="1.09231">
        <ele>68</ele>
        <time>2017-10-01T07:05:39.000Z</time>
      </trkpt>
      <trkpt lat="45.00697" lon="1.09236">
        <ele>69</ele>
        <time>2017-10-01T07:05:40.000Z</time>
      </trkpt>
      <trkpt lat="45.00699" lon="1.09241">
        <ele>69</ele>
        <time>2017-10-01T07:05:41.000Z</time>
      </trkpt>
      <trkpt lat="45.00702" lon="1.09246">
        <ele>69</ele>
        <time>2017-10-01T07:05:42.000Z</time>
      </trkpt>
      <trkpt lat="45.00704" lon="1.09251">
        <ele>69</ele>
        <time>2017-10-01T07:05:43.000Z</time>
      </trkpt>
      <trkpt lat="45.00706" lon="1.09255">
        <ele>69</ele>
        <time>2017-10-01T07:05:44.000Z</time>
      </trkpt>
      <trkpt lat="45.00708" lon="1.0926">
        <ele>69</ele>
        <time>2017-10-01T07:05:45.000Z</time>
      </trkpt>
      <trkpt lat="45.0071" lon="1.09264">
        <ele>69</ele>
        <time>2017-10-01T07:05:46.000Z</time>
      </trkpt>
      <trkpt lat="45.00712" lon="1.09268">
        <ele>69</ele>
        <time>2017-10-01T07:05:47.000Z</time>
      </trkpt>
      <trkpt lat="45.00714" lon="1.09272">
        <ele>70</ele>
        <time>2017-10-01T07:05:48.000Z</time>
      </trkpt>
      <trkpt lat="45.00715" lon="1.09276">
        <ele>70</ele>
        <time>2017-10-01T07:05:49.000Z</time>
      </trkpt>
      <trkpt lat="45.00717" lon="1.0928">
        <ele>70</ele>
        <time>2017-10-01T07:05:50.000Z</time>
      </trkpt>
      <trkpt lat="45.00719" lon="1.09283">
        <ele>70</ele>
        <time>2017-10-01T07:05:51.000Z</time>
      </trkpt>
      <trkpt lat="45.0072" lon="1.09286">
        <ele>70</ele>
        <time>2017-10-01T07:05:52.000Z</time>
      </trkpt>
      <trkpt lat="45.00722" lon="1.0929">
        <ele>70</ele>
        <time>2017-10-01T07:05:53.000Z</time>
      </trkpt>
      <trkpt lat="45.00724" lon="1.09293">
        <ele>70</ele>
        <time>2017-10-01T07:05:54.000Z</time>
      </trkpt>
      <trkpt lat="45.00725" lon="1.09297">
        <ele>70</ele>
        <time>2017-10-01T07:05:55.000Z</time>
      </trkpt>
      <trkpt lat="45.00727" lon="1.093">
        <ele>70</ele>
        <time>2017-10-01T07:05:56.000Z</time>
      </trkpt>
      <trkpt lat="45.00728" lon="1.09303">
        <ele>71</ele>
        <time>2017-10-01T07:05:57.000Z</time>
      </trkpt>
      <trkpt lat="45.0073" lon="1.09307">
        <ele>71</ele>
        <time>2017-10-01T07:05:58.000Z</time>
      </trkpt>
      <trkpt lat="45.00732" lon="1.09311">
        <ele>71</ele>
        <time>2017-10-01T07:05:59.000Z</time>
      </trkpt>
      <trkpt lat="45.00733" lon="1.09314">
        <ele>71</ele>
        <time>2017-10-01T07:06:00.000Z</time>
      </trkpt>
      <trkpt lat="45.00735" lon="1.09318">
        <ele>71</ele>
        <time>2017-10-01T07:06:01.000Z</time>
      </trkpt>
      <trkpt lat="45.00736" lon="1.09321">
        <ele>71</ele>
        <time>2017-10-01T07:06:02.000Z</time>
      </trkpt>
      <trkpt lat="45.00736" lon="1.09324">
        <ele>71</ele>
        <time>2017-10-01T07:06:03.000Z</time>
      </trkpt>
      <trkpt lat="45.00736" lon="1.09327">
        <ele>71</ele>
        <time>2017-10-01T07:06:04.000Z</time>
      </trkpt>
      <trkpt lat="45.00735" lon="1.0933">
        <ele>71</ele>
        <time>2017-10-01T07:06:05.000Z</time>
      </trkpt>
      <trkpt lat="45.00733" lon="1.09332">
        <ele>71</ele>
        <time>2017-10-01T07:06:06.000Z</time>
      </trkpt>
      <trkpt lat="45.00732" lon="1.09334">
        <ele>71</ele>
        <time>2017-10-01T07:06:07.000Z</time>
      </trkpt>
      <trkpt lat="45.00729" lon="1.09335">
        <ele>71</ele>
        <time>2017-10-01T07:06:08.000Z</time>
      </trkpt>
      <trkpt lat="45.00727" lon="1.09336">
        <ele>71</ele>
        <time>2017-10-01T07:06:09.000Z</time>
      </trkpt>
      <trkpt lat="45.00725" lon="1.09338">
        <ele>71</ele>
        <time>2017-10-01T07:06:10.000Z</time>
      </trkpt>
      <trkpt lat="45.00722" lon="1.09339">
        <ele>71</ele>
        <time>2017-10-01T07:06:11.000Z</time>
      </trkpt>
      <trkpt lat="45.0072" lon="1.09341">
        <ele>71</ele>
        <time>2017-10-01T07:06:12.000Z</time>
      </trkpt>
      <trkpt lat="45.00717" lon="1.09343">
        <ele>71</ele>
        <time>2017-10-01T07:06:13.000Z</time>
      </trkpt>
      <trkpt lat="45.00715" lon="1.09345">
        <ele>71</ele>
        <time>2017-10-01T07:06:14.000Z</time>
      </trkpt>
      <trkpt lat="45.00712" lon="1.09347">
        <ele>71</ele>
        <time>2017-10-01T07:06:15.000Z</time>
      </trkpt>
      <trkpt lat="45.0071" lon="1.0935">
        <ele>71</ele>
        <time>2017-10-01T07:06:16.000Z</time>
      </trkpt>
      <trkpt lat="45.00707" lon="1.09353">
        <ele>71</ele>
        <time>2017-10-01T07:06:17.000Z</time>
      </trkpt>
      <trkpt lat="45.00705" lon="1.09355">
        <ele>71</ele>
        <time>2017-10-01T07:06:18.000Z</time>
      </trkpt>
      <trkpt lat="45.00702" lon="1.09358">
        <ele>71</ele>
        <time>2017-10-01T07:06:19.000Z</time>
      </trkpt>
      <trkpt lat="45.007" lon="1.0936">
        <ele>71</ele>
        <time>2017-10-01T07:06:20.000Z</time>
      </trkpt>
      <trkpt lat="45.00697" lon="1.09363">
        <ele>71</ele>
        <time>2017-10-01T07:06:21.000Z</time>
      </trkpt>
      <trkpt lat="45.00694" lon="1.09366">
        <ele>71</ele>
        <time>2017-10-01T07:06:22.000Z</time>
      </trkpt>
      <trkpt lat="45.00692" lon="1.09368">
        <ele>71</ele>
        <time>2017-10-01T07:06:23.000Z</time>
      </trkpt>
      <trkpt lat="45.00689" lon="1.09371">
        <ele>71</ele>
        <time>2017-10-01T07:06:24.000Z</time>
      </trkpt>
      <trkpt lat="45.00686" lon="1.09374">
        <ele>71</ele>
        <time>2017-10-01T07:06:25.000Z</time>
      </trkpt>
      <trkpt lat="45.00684" lon="1.09377">
        <ele>71</ele>
        <time>2017-10-01T07:06:26.000Z</time>
      </trkpt>
      <trkpt lat="45.00681" lon="1.0938">
        <ele>71</ele>
        <time>2017-10-01T07:06:27.000Z</time>
      </trkpt>
      <trkpt lat="45.00678" lon="1.09384">
        <ele>72</ele>
        <time>2017-10-01T07:06:28.000Z</time>
      </trkpt>
      <trkpt lat="45.00675" lon="1.09387">
        <ele>72</ele>
        <time>2017-10-01T07:06:29.000Z</time>
      </trkpt>
      <trkpt lat="45.00673" lon="1.09391">
        <ele>72</ele>
        <time>2017-10-01T07:06:30.000Z</time>
      </trkpt>
      <trkpt lat="45.0067" lon="1.09394">
        <ele>72</ele>
        <time>2017-10-01T07:06:31.000Z</time>
      </trkpt>
      <trkpt lat="45.00667" lon="1.09398">
        <ele>72</ele>
        <time>2017-10-01T07:06:32.000Z</time>
      </trkpt>
      <trkpt lat="45.00663" lon="1.09402">
        <ele>72</ele>
        <time>2017-10-01T07:06:33.000Z</time>
      </trkpt>
      <trkpt lat="45.0066" lon="1.09406">
        <ele>72</ele>
        <time>2017-10-01T07:06:34.000Z</time>
      </trkpt>
      <trkpt lat="45.00657" lon="1.0941">
        <ele>72</ele>
        <time>2017-10-01T07:06:35.000Z</time>
      </trkpt>
      <trkpt lat="45.00653" lon="1.09414">
        <ele>72</ele>
        <time>2017-10-01T07:06:36.000Z</time>
      </trkpt>
      <trkpt lat="45.00649" lon="1.09418">
        <ele>72</ele>
        <time>2017-10-01T07:06:37.000Z</time>
      </trkpt>
      <trkpt lat="45.00645" lon="1.09422">
        <ele>72</ele>
        <time>2017-10-01T07:06:38.000Z</time>
      </trkpt>
      <trkpt lat="45.00642" lon="1.09426">
        <ele>72</ele>
        <time>2017-10-01T07:06:39.000Z</time>
      </trkpt>
      <trkpt lat="45.00638" lon="1.0943">
        <ele>72</ele>
        <time>2017-10-01T07:06:40.000Z</time>
      </trkpt>
      <trkpt lat="45.00634" lon="1.09433">
        <ele>71</ele>
        <time>2017-10-01T07:06:41.000Z</time>
      </trkpt>
      <trkpt lat="45.00631" lon="1.09437">
        <ele>71</ele>
        <time>2017-10-01T07:06:42.000Z</time>
      </trkpt>
      <trkpt lat="45.00627" lon="1.09441">
        <ele>71</ele>
        <time>2017-10-01T07:06:43.000Z</time>
      </trkpt>
      <trkpt lat="45.00624" lon="1.09445">
        <ele>71</ele>
        <time>2017-10-01T07:06:44.000Z</time>
      </trkpt>
      <trkpt lat="45.0062" lon="1.09449">
        <ele>71</ele>
        <time>2017-10-01T07:06:45.000Z</time>
      </trkpt>
      <trkpt lat="45.00617" lon="1.09453">
        <ele>71</ele>
        <time>2017-10-01T07:06:46.000Z</time>
      </trkpt>
      <trkpt lat="45.00614" lon="1.09458">
        <ele>71</ele>
        <time>2017-10-01T07:06:47.000Z</time>
      </trkpt>
      <trkpt lat="45.0061" lon="1.09462">
        <ele>71</ele>
        <time>2017-10-01T07:06:48.000Z</time>
      </trkpt>
      <trkpt lat="45.00607" lon="1.09467">
        <ele>71</ele>
        <time>2017-10-01T07:06:49.000Z</time>
      </trkpt>
      <trkpt lat="45.00604" lon="1.09471">
        <ele>71</ele>
        <time>2017-10-01T07:06:50.000Z</time>
      </trkpt>
      <trkpt lat="45.006" lon="1.09476">
        <ele>71</ele>
        <time>2017-10-01T07:06:51.000Z</time>
      </trkpt>
      <trkpt lat="45.00597" lon="1.09481">
        <ele>71</ele>
        <time>2017-10-01T07:06:52.000Z</time>
      </trkpt>
      <trkpt lat="45.00594" lon="1.09486">
        <ele>71</ele>
        <time>2017-10-01T07:06:53.000Z</time>
      </trkpt>
      <trkpt lat="45.0059" lon="1.09492">
        <ele>71</ele>
        <time>2017-10-01T07:06:54.000Z</time>
      </trkpt>
      <trkpt lat="45.00587" lon="1.09497">
        <ele>71</ele>
        <time>2017-10-01T07:06:55.000Z</time>
      </trkpt>
      <trkpt lat="45.00583" lon="1.09503">
        <ele>71</ele>
        <time>2017-10-01T07:06:56.000Z</time>
      </trkpt>
      <trkpt lat="45.0058" lon="1.09509">
        <ele>70</ele>
        <time>2017-10-01T07:06:57.000Z</time>
      </trkpt>
      <trkpt lat="45.00576" lon="1.09515">
        <ele>70</ele>
        <time>2017-10-01T07:06:58.000Z</time>
      </trkpt>
      <trkpt lat="45.00573" lon="1.09521">
        <ele>70</ele>
        <time>2017-10-01T07:06:59.000Z</time>
      </trkpt>
      <trkpt lat="45.00569" lon="1.09527">
        <ele>70</ele>
        <time>2017-10-01T07:07:00.000Z</time>
      </trkpt>
      <trkpt lat="45.00565" lon="1.09533">
        <ele>70</ele>
        <time>2017-10-01T07:07:01.000Z</time>
      </trkpt>
      <trkpt lat="45.00562" lon="1.09539">
        <ele>70</ele>
        <time>2017-10-01T07:07:02.000Z</time>
      </trkpt>
      <trkpt lat="45.00558" lon="1.09545">
        <ele>70</ele>
        <time>2017-10-01T07:07:03.000Z</time>
      </trkpt>
      <trkpt lat="45.00555" lon="1.09551">
        <ele>70</ele>
        <time>2017-10-01T07:07:04.000Z</time>
      </trkpt>
      <trkpt lat="45.00551" lon="1.09557">
        <ele>70</ele>
        <time>2017-10-01T07:07:05.000Z</time>
      </trkpt>
      <trkpt lat="45.00547" lon="1.09563">
        <ele>70</ele>
        <time>2017-10-01T07:07:06.000Z</time>
      </trkpt>
      <trkpt lat="45.00544" lon="1.09569">
        <ele>70</ele>
        <time>2017-10-01T07:07:07.000Z</time>
      </trkpt>
      <trkpt lat="45.0054" lon="1.09575">
        <ele>70</ele>
        <time>2017-10-01T07:07:08.000Z</time>
      </trkpt>
      <trkpt lat="45.00537" lon="1.09581">
        <ele>70</ele>
        <time>2017-10-01T07:07:09.000Z</time>
      </trkpt>
      <trkpt lat="45.00533" lon="1.09587">
        <ele>70</ele>
        <time>2017-10-01T07:07:10.000Z</time>
      </trkpt>
      <trkpt lat="45.0053" lon="1.09593">
        <ele>70</ele>
        <time>2017-10-01T07:07:11.000Z</time>
      </trkpt>
      <trkpt lat="45.00527" lon="1.09599">
        <ele>70</ele>
        <time>2017-10-01T07:07:12.000Z</time>
      </trkpt>
      <trkpt lat="45.00523" lon="1.09605">
        <ele>70</ele>
        <time>2017-10-01T07:07:13.000Z</time>
      </trkpt>
      <trkpt lat="45.0052" lon="1.0961">
        <ele>70</ele>
        <time>2017-10-01T07:07:14.000Z</time>
      </trkpt>
      <trkpt lat="45.00517" lon="1.09616">
        <ele>70</ele>
        <time>2017-10-01T07:07:15.000Z</time>
      </trkpt>
      <trkpt lat="45.00514" lon="1.09622">
        <ele>70</ele>
        <time>2017-10-01T07:07:16.000Z</time>
      </trkpt>
      <trkpt lat="45.00511" lon="1.09628">
        <ele>70</ele>
        <time>2017-10-01T07:07:17.000Z</time>
      </trkpt>
      <trkpt lat="45.00508" lon="1.09634">
        <ele>70</ele>
        <time>2017-10-01T07:07:18.000Z</time>
      </trkpt>
      <trkpt lat="45.00505" lon="1.0964">
        <ele>70</ele>
        <time>2017-10-01T07:07:19.000Z</time>
      </trkpt>
      <trkpt lat="45.00502" lon="1.09645">
        <ele>70</ele>
        <time>2017-10-01T07:07:20.000Z</time>
      </trkpt>
      <trkpt lat="45.00499" lon="1.09651">
        <ele>70</ele>
        <time>2017-10-01T07:07:21.000Z</time>
      </trkpt>
      <trkpt lat="45.00496" lon="1.09657">
        <ele>69</ele>
        <time>2017-10-01T07:07:22.000Z</time>
      </trkpt>
      <trkpt lat="45.00493" lon="1.09663">
        <ele>69</ele>
        <time>2017-10-01T07:07:23.000Z</time>
      </trkpt>
      <trkpt lat="45.0049" lon="1.09669">
        <ele>69</ele>
        <time>2017-10-01T07:07:24.000Z</time>
      </trkpt>
      <trkpt lat="45.00487" lon="1.09674">
        <ele>69</ele>
        <time>2017-10-01T07:07:25.000Z</time>
      </trkpt>
      <trkpt lat="45.00484" lon="1.0968">
        <ele>69</ele>
        <time>2017-10-01T07:07:26.000Z</time>
      </trkpt>
      <trkpt lat="45.00482" lon="1.09686">
        <ele>69</ele>
        <time>2017-10-01T07:07:27.000Z</time>
      </trkpt>
      <trkpt lat="45.00479" lon="1.09692">
        <ele>69</ele>
        <time>2017-10-01T07:07:28.000Z</time>
      </trkpt>
      <trkpt lat="45.00476" lon="1.09698">
        <ele>69</ele>
        <time>2017-10-01T07:07:29.000Z</time>
      </trkpt>
      <trkpt lat="45.00473" lon="1.09704">
        <ele>69</ele>
        <time>2017-10-01T07:07:30.000Z</time>
      </trkpt>
      <trkpt lat="45.0047" lon="1.0971">
        <ele>69</ele>
        <time>2017-10-01T07:07:31.000Z</time>
      </trkpt>
      <trkpt lat="45.00467" lon="1.09715">
        <ele>69</ele>
        <time>2017-10-01T07:07:32.000Z</time>
      </trkpt>
      <trkpt lat="45.00464" lon="1.09721">
        <ele>69</ele>
        <time>2017-10-01T07:07:33.000Z</time>
      </trkpt>
      <trkpt lat="45.00461" lon="1.09727">
        <ele>69</ele>
        <time>2017-10-01T07:07:34.000Z</time>
      </trkpt>
      <trkpt lat="45.00458" lon="1.09733">
        <ele>69</ele>
        <time>2017-10-01T07:07:35.000Z</time>
      </trkpt>
      <trkpt lat="45.00455" lon="1.09739">
        <ele>69</ele>
        <time>2017-10-01T07:07:36.000Z</time>
      </trkpt>
      <trkpt lat="45.00452" lon="1.09745">
        <ele>69</ele>
        <time>2017-10-01T07:07:37.000Z</time>
      </trkpt>
      <trkpt lat="45.00449" lon="1.09751">
        <ele>69</ele>
        <time>2017-10-01T07:07:38.000Z</time>
      </trkpt>
      <trkpt lat="45.00446" lon="1.09757">
        <ele>69</ele>
        <time>2017-10-01T07:07:39.000Z</time>
      </trkpt>
      <trkpt lat="45.00443" lon="1.09763">
        <ele>69</ele>
        <time>2017-10-01T07:07:40.000Z</time>
      </trkpt>
      <trkpt lat="45.0044" lon="1.09769">
        <ele>69</ele>
        <time>2017-10-01T07:07:41.000Z</time>
      </trkpt>
      <trkpt lat="45.00437" lon="1.09775">
        <ele>69</ele>
        <time>2017-10-01T07:07:42.000Z</time>
      </trkpt>
      <trkpt lat="45.00434" lon="1.09781">
        <ele>69</ele>
        <time>2017-10-01T07:07:43.000Z</time>
      </trkpt>
      <trkpt lat="45.00431" lon="1.09787">
        <ele>70</ele>
        <time>2017-10-01T07:07:44.000Z</time>
      </trkpt>
      <trkpt lat="45.00428" lon="1.09793">
        <ele>70</ele>
        <time>2017-10-01T07:07:45.000Z</time>
      </trkpt>
      <trkpt lat="45.00425" lon="1.09799">
        <ele>70</ele>
        <time>2017-10-01T07:07:46.000Z</time>
      </trkpt>
      <trkpt lat="45.00422" lon="1.09805">
        <ele>70</ele>
        <time>2017-10-01T07:07:47.000Z</time>
      </trkpt>
      <trkpt lat="45.00419" lon="1.09811">
        <ele>70</ele>
        <time>2017-10-01T07:07:48.000Z</time>
      </trkpt>
      <trkpt lat="45.00416" lon="1.09817">
        <ele>70</ele>
        <time>2017-10-01T07:07:49.000Z</time>
      </trkpt>
      <trkpt lat="45.00413" lon="1.09824">
        <ele>70</ele>
        <time>2017-10-01T07:07:50.000Z</time>
      </trkpt>
      <trkpt lat="45.0041" lon="1.0983">
        <ele>70</ele>
        <time>2017-10-01T07:07:51.000Z</time>
      </trkpt>
      <trkpt lat="45.00407" lon="1.09836">
        <ele>70</ele>
        <time>2017-10-01T07:07:52.000Z</time>
      </trkpt>
      <trkpt lat="45.00404" lon="1.09843">
        <ele>70</ele>
        <time>2017-10-01T07:07:53.000Z</time>
      </trkpt>
      <trkpt lat="45.00401" lon="1.09849">
        <ele>70</ele>
        <time>2017-10-01T07:07:54.000Z</time>
      </trkpt>
      <trkpt lat="45.00399" lon="1.09855">
        <ele>70</ele>
        <time>2017-10-01T07:07:55.000Z</time>
      </trkpt>
      <trkpt lat="45.00396" lon="1.09862">
        <ele>69</ele>
        <time>2017-10-01T07:07:56.000Z</time>
      </trkpt>
      <trkpt lat="45.00393" lon="1.09868">
        <ele>69</ele>
        <time>2017-10-01T07:07:57.000Z</time>
      </trkpt>
      <trkpt lat="45.0039" lon="1.09874">
        <ele>69</ele>
        <time>2017-10-01T07:07:58.000Z</time>
      </trkpt>
      <trkpt lat="45.00388" lon="1.0988">
        <ele>69</ele>
        <time>2017-10-01T07:07:59.000Z</time>
      </trkpt>
      <trkpt lat="45.00385" lon="1.09886">
        <ele>69</ele>
        <time>2017-10-01T07:08:00.000Z</time>
      </trkpt>
      <trkpt lat="45.00382" lon="1.09892">
        <ele>69</ele>
        <time>2017-10-01T07:08:01.000Z</time>
      </trkpt>
      <trkpt lat="45.00379" lon="1.09896">
        <ele>69</ele>
        <time>2017-10-01T07:08:02.000Z</time>
      </trkpt>
      <trkpt lat="45.00375" lon="1.099">
        <ele>68</ele>
        <time>2017-10-01T07:08:03.000Z</time>
      </trkpt>
      <trkpt lat="45.00371" lon="1.09902">
        <ele>68</ele>
        <time>2017-10-01T07:08:04.000Z</time>
      </trkpt>
      <trkpt lat="45.00367" lon="1.09901">
        <ele>68</ele>
        <time>2017-10-01T07:08:05.000Z</time>
      </trkpt>
      <trkpt lat="45.00362" lon="1.09898">
        <ele>68</ele>
        <time>2017-10-01T07:08:06.000Z</time>
      </trkpt>
      <trkpt lat="45.00358" lon="1.09895">
        <ele>68</ele>
        <time>2017-10-01T07:08:07.000Z</time>
      </trkpt>
      <trkpt lat="45.00353" lon="1.09891">
        <ele>67</ele>
        <time>2017-10-01T07:08:08.000Z</time>
      </trkpt>
      <trkpt lat="45.00349" lon="1.09887">
        <ele>67</ele>
        <time>2017-10-01T07:08:09.000Z</time>
      </trkpt>
      <trkpt lat="45.00344" lon="1.09884">
        <ele>67</ele>
        <time>2017-10-01T07:08:10.000Z</time>
      </trkpt>
      <trkpt lat="45.0034" lon="1.0988">
        <ele>66</ele>
        <time>2017-10-01T07:08:11.000Z</time>
      </trkpt>
      <trkpt lat="45.00336" lon="1.09877">
        <ele>66</ele>
        <time>2017-10-01T07:08:12.000Z</time>
      </trkpt>
      <trkpt lat="45.00332" lon="1.09874">
        <ele>66</ele>
        <time>2017-10-01T07:08:13.000Z</time>
      </trkpt>
      <trkpt lat="45.00328" lon="1.0987">
        <ele>66</ele>
        <time>2017-10-01T07:08:14.000Z</time>
      </trkpt>
      <trkpt lat="45.00323" lon="1.09866">
        <ele>66</ele>
        <time>2017-10-01T07:08:15.000Z</time>
      </trkpt>
      <trkpt lat="45.00319" lon="1.09862">
        <ele>66</ele>
        <time>2017-10-01T07:08:16.000Z</time>
      </trkpt>
      <trkpt lat="45.00314" lon="1.09858">
        <ele>66</ele>
        <time>2017-10-01T07:08:17.000Z</time>
      </trkpt>
      <trkpt lat="45.0031" lon="1.09854">
        <ele>66</ele>
        <time>2017-10-01T07:08:18.000Z</time>
      </trkpt>
      <trkpt lat="45.00305" lon="1.09852">
        <ele>66</ele>
        <time>2017-10-01T07:08:19.000Z</time>
      </trkpt>
      <trkpt lat="45.00301" lon="1.09852">
        <ele>66</ele>
        <time>2017-10-01T07:08:20.000Z</time>
      </trkpt>
      <trkpt lat="45.00297" lon="1.09854">
        <ele>66</ele>
        <time>2017-10-01T07:08:21.000Z</time>
      </trkpt>
      <trkpt lat="45.00294" lon="1.09858">
        <ele>67</ele>
        <time>2017-10-01T07:08:22.000Z</time>
      </trkpt>
      <trkpt lat="45.00291" lon="1.09862">
        <ele>67</ele>
        <time>2017-10-01T07:08:23.000Z</time>
      </trkpt>
      <trkpt lat="45.00288" lon="1.09866">
        <ele>67</ele>
        <time>2017-10-01T07:08:24.000Z</time>
      </trkpt>
      <trkpt lat="45.00285" lon="1.09871">
        <ele>67</ele>
        <time>2017-10-01T07:08:25.000Z</time>
      </trkpt>
      <trkpt lat="45.00283" lon="1.09877">
        <ele>67</ele>
        <time>2017-10-01T07:08:26.000Z</time>
      </trkpt>
      <trkpt lat="45.00281" lon="1.09882">
        <ele>67</ele>
        <time>2017-10-01T07:08:27.000Z</time>
      </trkpt>
      <trkpt lat="45.00279" lon="1.09888">
        <ele>67</ele>
        <time>2017-10-01T07:08:28.000Z</time>
      </trkpt>
      <trkpt lat="45.00277" lon="1.09893">
        <ele>67</ele>
        <time>2017-10-01T07:08:29.000Z</time>
      </trkpt>
      <trkpt lat="45.00274" lon="1.09899">
        <ele>67</ele>
        <time>2017-10-01T07:08:30.000Z</time>
      </trkpt>
      <trkpt lat="45.00272" lon="1.09905">
        <ele>67</ele>
        <time>2017-10-01T07:08:31.000Z</time>
      </trkpt>
      <trkpt lat="45.0027" lon="1.0991">
        <ele>67</ele>
        <time>2017-10-01T07:08:32.000Z</time>
      </trkpt>
      <trkpt lat="45.00268" lon="1.09916">
        <ele>67</ele>
        <time>2017-10-01T07:08:33.000Z</time>
      </trkpt>
      <trkpt lat="45.00265" lon="1.09921">
        <ele>67</ele>
        <time>2017-10-01T07:08:34.000Z</time>
      </trkpt>
      <trkpt lat="45.00263" lon="1.09927">
        <ele>67</ele>
        <time>2017-10-01T07:08:35.000Z</time>
      </trkpt>
      <trkpt lat="45.00261" lon="1.09932">
        <ele>67</ele>
        <time>2017-10-01T07:08:36.000Z</time>
      </trkpt>
      <trkpt lat="45.00259" lon="1.09938">
        <ele>67</ele>
        <time>2017-10-01T07:08:37.000Z</time>
      </trkpt>
      <trkpt lat="45.00257" lon="1.09943">
        <ele>68</ele>
        <time>2017-10-01T07:08:38.000Z</time>
      </trkpt>
      <trkpt lat="45.00254" lon="1.09949">
        <ele>68</ele>
        <time>2017-10-01T07:08:39.000Z</time>
      </trkpt>
      <trkpt lat="45.00252" lon="1.09954">
        <ele>68</ele>
        <time>2017-10-01T07:08:40.000Z</time>
      </trkpt>
      <trkpt lat="45.00249" lon="1.0996">
        <ele>68</ele>
        <time>2017-10-01T07:08:41.000Z</time>
      </trkpt>
      <trkpt lat="45.00246" lon="1.09965">
        <ele>68</ele>
        <time>2017-10-01T07:08:42.000Z</time>
      </trkpt>
      <trkpt lat="45.00243" lon="1.09971">
        <ele>69</ele>
        <time>2017-10-01T07:08:43.000Z</time>
      </trkpt>
      <trkpt lat="45.00239" lon="1.09976">
        <ele>69</ele>
        <time>2017-10-01T07:08:44.000Z</time>
      </trkpt>
      <trkpt lat="45.00236" lon="1.0998">
        <ele>69</ele>
        <time>2017-10-01T07:08:45.000Z</time>
      </trkpt>
      <trkpt lat="45.00232" lon="1.09985">
        <ele>69</ele>
        <time>2017-10-01T07:08:46.000Z</time>
      </trkpt>
      <trkpt lat="45.00229" lon="1.09989">
        <ele>69</ele>
        <time>2017-10-01T07:08:47.000Z</time>
      </trkpt>
      <trkpt lat="45.00225" lon="1.09993">
        <ele>69</ele>
        <time>2017-10-01T07:08:48.000Z</time>
      </trkpt>
      <trkpt lat="45.00221" lon="1.09996">
        <ele>69</ele>
        <time>2017-10-01T07:08:49.000Z</time>
      </trkpt>
      <trkpt lat="45.00217" lon="1.1">
        <ele>69</ele>
        <time>2017-10-01T07:08:50.000Z</time>
      </trkpt>
      <trkpt lat="45.00213" lon="1.10003">
        <ele>69</ele>
        <time>2017-10-01T07:08:51.000Z</time>
      </trkpt>
      <trkpt lat="45.0021" lon="1.10007">
        <ele>69</ele>
        <time>2017-10-01T07:08:52.000Z</time>
      </trkpt>
      <trkpt lat="45.00206" lon="1.1001">
        <ele>69</ele>
        <time>2017-10-01T07:08:53.000Z</time>
      </trkpt>
      <trkpt lat="45.00203" lon="1.10014">
        <ele>69</ele>
        <time>2017-10-01T07:08:54.000Z</time>
      </trkpt>
      <trkpt lat="45.00199" lon="1.10018">
        <ele>69</ele>
        <time>2017-10-01T07:08:55.000Z</time>
      </trkpt>
      <trkpt lat="45.00196" lon="1.10022">
        <ele>69</ele>
        <time>2017-10-01T07:08:56.000Z</time>
      </trkpt>
      <trkpt lat="45.00192" lon="1.10026">
        <ele>68</ele>
        <time>2017-10-01T07:08:57.000Z</time>
      </trkpt>
      <trkpt lat="45.00189" lon="1.1003">
        <ele>68</ele>
        <time>2017-10-01T07:08:58.000Z</time>
      </trkpt>
      <trkpt lat="45.00186" lon="1.10035">
        <ele>68</ele>
        <time>2017-10-01T07:08:59.000Z</time>
      </trkpt>
      <trkpt lat="45.00182" lon="1.10039">
        <ele>68</ele>
        <time>2017-10-01T07:09:00.000Z</time>
      </trkpt>
      <trkpt lat="45.00179" lon="1.10044">
        <ele>68</ele>
        <time>2017-10-01T07:09:01.000Z</time>
      </trkpt>
      <trkpt lat="45.00175" lon="1.10049">
        <ele>68</ele>
        <time>2017-10-01T07:09:02.000Z</time>
      </trkpt>
      <trkpt lat="45.00171" lon="1.10055">
        <ele>68</ele>
        <time>2017-10-01T07:09:03.000Z</time>
      </trkpt>
      <trkpt lat="45.00168" lon="1.1006">
        <ele>68</ele>
        <time>2017-10-01T07:09:04.000Z</time>
      </trkpt>
      <trkpt lat="45.00164" lon="1.10066">
        <ele>69</ele>
        <time>2017-10-01T07:09:05.000Z</time>
      </trkpt>
      <trkpt lat="45.00161" lon="1.10071">
        <ele>70</ele>
        <time>2017-10-01T07:09:06.000Z</time>
      </trkpt>
      <trkpt lat="45.00158" lon="1.10076">
        <ele>70</ele>
        <time>2017-10-01T07:09:07.000Z</time>
      </trkpt>
      <trkpt lat="45.00156" lon="1.10081">
        <ele>71</ele>
        <time>2017-10-01T07:09:08.000Z</time>
      </trkpt>
      <trkpt lat="45.00154" lon="1.10086">
        <ele>71</ele>
        <time>2017-10-01T07:09:09.000Z</time>
      </trkpt>
      <trkpt lat="45.00154" lon="1.10091">
        <ele>71</ele>
        <time>2017-10-01T07:09:10.000Z</time>
      </trkpt>
      <trkpt lat="45.00155" lon="1.10095">
        <ele>71</ele>
        <time>2017-10-01T07:09:11.000Z</time>
      </trkpt>
      <trkpt lat="45.00156" lon="1.101">
        <ele>71</ele>
        <time>2017-10-01T07:09:12.000Z</time>
      </trkpt>
      <trkpt lat="45.00158" lon="1.10104">
        <ele>71</ele>
        <time>2017-10-01T07:09:13.000Z</time>
      </trkpt>
      <trkpt lat="45.00159" lon="1.10108">
        <ele>71</ele>
        <time>2017-10-01T07:09:14.000Z</time>
      </trkpt>
      <trkpt lat="45.0016" lon="1.10113">
        <ele>71</ele>
        <time>2017-10-01T07:09:15.000Z</time>
      </trkpt>
      <trkpt lat="45.00161" lon="1.10118">
        <ele>71</ele>
        <time>2017-10-01T07:09:16.000Z</time>
      </trkpt>
      <trkpt lat="45.00162" lon="1.10123">
        <ele>71</ele>
        <time>2017-10-01T07:09:17.000Z</time>
      </trkpt>
      <trkpt lat="45.00164" lon="1.10128">
        <ele>70</ele>
        <time>2017-10-01T07:09:18.000Z</time>
      </trkpt>
      <trkpt lat="45.00166" lon="1.10134">
        <ele>70</ele>
        <time>2017-10-01T07:09:19.000Z</time>
      </trkpt>
      <trkpt lat="45.00168" lon="1.1014">
        <ele>70</ele>
        <time>2017-10-01T07:09:20.000Z</time>
      </trkpt>
      <trkpt lat="45.00171" lon="1.10146">
        <ele>70</ele>
        <time>2017-10-01T07:09:21.000Z</time>
      </trkpt>
      <trkpt lat="45.00174" lon="1.10152">
        <ele>70</ele>
        <time>2017-10-01T07:09:22.000Z</time>
      </trkpt>
      <trkpt lat="45.00177" lon="1.10159">
        <ele>70</ele>
        <time>2017-10-01T07:09:23.000Z</time>
      </trkpt>
      <trkpt lat="45.00181" lon="1.10165">
        <ele>71</ele>
        <time>2017-10-01T07:09:24.000Z</time>
      </trkpt>
      <trkpt lat="45.00184" lon="1.10171">
        <ele>71</ele>
        <time>2017-10-01T07:09:25.000Z</time>
      </trkpt>
      <trkpt lat="45.00187" lon="1.10176">
        <ele>71</ele>
        <time>2017-10-01T07:09:26.000Z</time>
      </trkpt>
      <trkpt lat="45.00189" lon="1.10181">
        <ele>72</ele>
        <time>2017-10-01T07:09:27.000Z</time>
      </trkpt>
      <trkpt lat="45.00192" lon="1.10187">
        <ele>72</ele>
        <time>2017-10-01T07:09:28.000Z</time>
      </trkpt>
      <trkpt lat="45.00195" lon="1.10192">
        <ele>72</ele>
        <time>2017-10-01T07:09:29.000Z</time>
      </trkpt>
      <trkpt lat="45.00198" lon="1.10198">
        <ele>73</ele>
        <time>2017-10-01T07:09:30.000Z</time>
      </trkpt>
      <trkpt lat="45.00201" lon="1.10204">
        <ele>73</ele>
        <time>2017-10-01T07:09:31.000Z</time>
      </trkpt>
      <trkpt lat="45.00205" lon="1.10211">
        <ele>73</ele>
        <time>2017-10-01T07:09:32.000Z</time>
      </trkpt>
      <trkpt lat="45.00209" lon="1.10217">
        <ele>73</ele>
        <time>2017-10-01T07:09:33.000Z</time>
      </trkpt>
      <trkpt lat="45.00214" lon="1.10224">
        <ele>73</ele>
        <time>2017-10-01T07:09:34.000Z</time>
      </trkpt>
      <trkpt lat="45.00217" lon="1.1023">
        <ele>73</ele>
        <time>2017-10-01T07:09:35.000Z</time>
      </trkpt>
      <trkpt lat="45.00221" lon="1.10237">
        <ele>73</ele>
        <time>2017-10-01T07:09:36.000Z</time>
      </trkpt>
      <trkpt lat="45.00224" lon="1.10243">
        <ele>73</ele>
        <time>2017-10-01T07:09:37.000Z</time>
      </trkpt>
      <trkpt lat="45.00227" lon="1.1025">
        <ele>74</ele>
        <time>2017-10-01T07:09:38.000Z</time>
      </trkpt>
      <trkpt lat="45.00229" lon="1.10256">
        <ele>73</ele>
        <time>2017-10-01T07:09:39.000Z</time>
      </trkpt>
      <trkpt lat="45.00232" lon="1.10262">
        <ele>73</ele>
        <time>2017-10-01T07:09:40.000Z</time>
      </trkpt>
      <trkpt lat="45.00234" lon="1.10268">
        <ele>73</ele>
        <time>2017-10-01T07:09:41.000Z</time>
      </trkpt>
      <trkpt lat="45.00238" lon="1.10273">
        <ele>73</ele>
        <time>2017-10-01T07:09:42.000Z</time>
      </trkpt>
      <trkpt lat="45.00241" lon="1.10279">
        <ele>73</ele>
        <time>2017-10-01T07:09:43.000Z</time>
      </trkpt>
      <trkpt lat="45.00244" lon="1.10284">
        <ele>73</ele>
        <time>2017-10-01T07:09:44.000Z</time>
      </trkpt>
      <trkpt lat="45.00248" lon="1.10289">
        <ele>73</ele>
        <time>2017-10-01T07:09:45.000Z</time>
      </trkpt>
      <trkpt lat="45.00252" lon="1.10294">
        <ele>73</ele>
        <time>2017-10-01T07:09:46.000Z</time>
      </trkpt>
      <trkpt lat="45.00256" lon="1.10298">
        <ele>73</ele>
        <time>2017-10-01T07:09:47.000Z</time>
      </trkpt>
      <trkpt lat="45.0026" lon="1.10303">
        <ele>73</ele>
        <time>2017-10-01T07:09:48.000Z</time>
      </trkpt>
      <trkpt lat="45.00264" lon="1.10307">
        <ele>73</ele>
        <time>2017-10-01T07:09:49.000Z</time>
      </trkpt>
      <trkpt lat="45.00268" lon="1.10312">
        <ele>73</ele>
        <time>2017-10-01T07:09:50.000Z</time>
      </trkpt>
      <trkpt lat="45.00272" lon="1.10316">
        <ele>73</ele>
        <time>2017-10-01T07:09:51.000Z</time>
      </trkpt>
      <trkpt lat="45.00275" lon="1.1032">
        <ele>72</ele>
        <time>2017-10-01T07:09:52.000Z</time>
      </trkpt>
      <trkpt lat="45.00279" lon="1.10325">
        <ele>72</ele>
        <time>2017-10-01T07:09:53.000Z</time>
      </trkpt>
      <trkpt lat="45.00283" lon="1.10329">
        <ele>72</ele>
        <time>2017-10-01T07:09:54.000Z</time>
      </trkpt>
      <trkpt lat="45.00286" lon="1.10333">
        <ele>72</ele>
        <time>2017-10-01T07:09:55.000Z</time>
      </trkpt>
      <trkpt lat="45.00289" lon="1.10337">
        <ele>72</ele>
        <time>2017-10-01T07:09:56.000Z</time>
      </trkpt>
      <trkpt lat="45.00293" lon="1.10342">
        <ele>72</ele>
        <time>2017-10-01T07:09:57.000Z</time>
      </trkpt>
      <trkpt lat="45.00296" lon="1.10346">
        <ele>72</ele>
        <time>2017-10-01T07:09:58.000Z</time>
      </trkpt>
      <trkpt lat="45.00299" lon="1.1035">
        <ele>72</ele>
        <time>2017-10-01T07:09:59.000Z</time>
      </trkpt>
      <trkpt lat="45.00302" lon="1.10355">
        <ele>72</ele>
        <time>2017-10-01T07:10:00.000Z</time>
      </trkpt>
      <trkpt lat="45.00306" lon="1.10359">
        <ele>72</ele>
        <time>2017-10-01T07:10:01.000Z</time>
      </trkpt>
      <trkpt lat="45.00309" lon="1.10363">
        <ele>72</ele>
        <time>2017-10-01T07:10:02.000Z</time>
      </trkpt>
      <trkpt lat="45.00312" lon="1.10367">
        <ele>71</ele>
        <time>2017-10-01T07:10:03.000Z</time>
      </trkpt>
      <trkpt lat="45.00315" lon="1.1037">
        <ele>71</ele>
        <time>2017-10-01T07:10:04.000Z</time>
      </trkpt>
      <trkpt lat="45.00319" lon="1.10373">
        <ele>71</ele>
        <time>2017-10-01T07:10:05.000Z</time>
      </trkpt>
      <trkpt lat="45.00322" lon="1.10375">
        <ele>71</ele>
        <time>2017-10-01T07:10:06.000Z</time>
      </trkpt>
      <trkpt lat="45.00325" lon="1.10376">
        <ele>71</ele>
        <time>2017-10-01T07:10:07.000Z</time>
      </trkpt>
      <trkpt lat="45.00328" lon="1.10375">
        <ele>71</ele>
        <time>2017-10-01T07:10:08.000Z</time>
      </trkpt>
      <trkpt lat="45.00331" lon="1.10373">
        <ele>71</ele>
        <time>2017-10-01T07:10:09.000Z</time>
      </trkpt>
      <trkpt lat="45.00334" lon="1.1037">
        <ele>70</ele>
        <time>2017-10-01T07:10:10.000Z</time>
      </trkpt>
      <trkpt lat="45.00337" lon="1.10367">
        <ele>70</ele>
        <time>2017-10-01T07:10:11.000Z</time>
      </trkpt>
      <trkpt lat="45.0034" lon="1.10363">
        <ele>70</ele>
        <time>2017-10-01T07:10:12.000Z</time>
      </trkpt>
      <trkpt lat="45.00343" lon="1.10359">
        <ele>70</ele>
        <time>2017-10-01T07:10:13.000Z</time>
      </trkpt>
      <trkpt lat="45.00347" lon="1.10355">
        <ele>69</ele>
        <time>2017-10-01T07:10:14.000Z</time>
      </trkpt>
      <trkpt lat="45.0035" lon="1.1035">
        <ele>69</ele>
        <time>2017-10-01T07:10:15.000Z</time>
      </trkpt>
      <trkpt lat="45.00353" lon="1.10346">
        <ele>69</ele>
        <time>2017-10-01T07:10:16.000Z</time>
      </trkpt>
      <trkpt lat="45.00356" lon="1.10341">
        <ele>69</ele>
        <time>2017-10-01T07:10:17.000Z</time>
      </trkpt>
      <trkpt lat="45.00359" lon="1.10337">
        <ele>69</ele>
        <time>2017-10-01T07:10:18.000Z</time>
      </trkpt>
      <trkpt lat="45.00362" lon="1.10333">
        <ele>69</ele>
        <time>2017-10-01T07:10:19.000Z</time>
      </trkpt>
      <trkpt lat="45.00366" lon="1.10329">
        <ele>69</ele>
        <time>2017-10-01T07:10:20.000Z</time>
      </trkpt>
      <trkpt lat="45.00369" lon="1.10325">
        <ele>69</ele>
        <time>2017-10-01T07:10:21.000Z</time>
      </trkpt>
      <trkpt lat="45.00372" lon="1.1032">
        <ele>69</ele>
        <time>2017-10-01T07:10:22.000Z</time>
      </trkpt>
      <trkpt lat="45.00376" lon="1.10316">
        <ele>69</ele>
        <time>2017-10-01T07:10:23.000Z</time>
      </trkpt>
      <trkpt lat="45.00379" lon="1.10312">
        <ele>69</ele>
        <time>2017-10-01T07:10:24.000Z</time>
      </trkpt>
      <trkpt lat="45.00382" lon="1.10308">
        <ele>69</ele>
        <time>2017-10-01T07:10:25.000Z</time>
      </trkpt>
      <trkpt lat="45.00386" lon="1.10303">
        <ele>69</ele>
        <time>2017-10-01T07:10:26.000Z</time>
      </trkpt>
      <trkpt lat="45.00389" lon="1.10299">
        <ele>69</ele>
        <time>2017-10-01T07:10:27.000Z</time>
      </trkpt>
      <trkpt lat="45.00392" lon="1.10295">
        <ele>69</ele>
        <time>2017-10-01T07:10:28.000Z</time>
      </trkpt>
      <trkpt lat="45.00396" lon="1.10291">
        <ele>69</ele>
        <time>2017-10-01T07:10:29.000Z</time>
      </trkpt>
      <trkpt lat="45.00399" lon="1.10287">
        <ele>69</ele>
        <time>2017-10-01T07:10:30.000Z</time>
      </trkpt>
      <trkpt lat="45.00402" lon="1.10282">
        <ele>69</ele>
        <time>2017-10-01T07:10:31.000Z</time>
      </trkpt>
      <trkpt lat="45.00406" lon="1.10278">
        <ele>69</ele>
        <time>2017-10-01T07:10:32.000Z</time>
      </trkpt>
      <trkpt lat="45.00409" lon="1.10274">
        <ele>69</ele>
        <time>2017-10-01T07:10:33.000Z</time>
      </trkpt>
      <trkpt lat="45.00412" lon="1.1027">
        <ele>69</ele>
        <time>2017-10-01T07:10:34.000Z</time>
      </trkpt>
      <trkpt lat="45.00416" lon="1.10265">
        <ele>69</ele>
        <time>2017-10-01T07:10:35.000Z</time>
      </trkpt>
      <trkpt lat="45.00419" lon="1.10261">
        <ele>69</ele>
        <time>2017-10-01T07:10:36.000Z</time>
      </trkpt>
      <trkpt lat="45.00422" lon="1.10257">
        <ele>69</ele>
        <time>2017-10-01T07:10:37.000Z</time>
      </trkpt>
      <trkpt lat="45.00426" lon="1.10252">
        <ele>69</ele>
        <time>2017-10-01T07:10:38.000Z</time>
      </trkpt>
      <trkpt lat="45.00429" lon="1.10248">
        <ele>69</ele>
        <time>2017-10-01T07:10:39.000Z</time>
      </trkpt>
      <trkpt lat="45.00433" lon="1.10244">
        <ele>69</ele>
        <time>2017-10-01T07:10:40.000Z</time>
      </trkpt>
      <trkpt lat="45.00436" lon="1.10239">
        <ele>69</ele>
        <time>2017-10-01T07:10:41.000Z</time>
      </trkpt>
      <trkpt lat="45.0044" lon="1.10235">
        <ele>69</ele>
        <time>2017-10-01T07:10:42.000Z</time>
      </trkpt>
      <trkpt lat="45.00443" lon="1.1023">
        <ele>70</ele>
        <time>2017-10-01T07:10:43.000Z</time>
      </trkpt>
      <trkpt lat="45.00447" lon="1.10226">
        <ele>70</ele>
        <time>2017-10-01T07:10:44.000Z</time>
      </trkpt>
      <trkpt lat="45.0045" lon="1.10221">
        <ele>70</ele>
        <time>2017-10-01T07:10:45.000Z</time>
      </trkpt>
      <trkpt lat="45.00454" lon="1.10217">
        <ele>70</ele>
        <time>2017-10-01T07:10:46.000Z</time>
      </trkpt>
      <trkpt lat="45.00457" lon="1.10212">
        <ele>70</ele>
        <time>2017-10-01T07:10:47.000Z</time>
      </trkpt>
      <trkpt lat="45.00461" lon="1.10207">
        <ele>70</ele>
        <time>2017-10-01T07:10:48.000Z</time>
      </trkpt>
      <trkpt lat="45.00464" lon="1.10203">
        <ele>71</ele>
        <time>2017-10-01T07:10:49.000Z</time>
      </trkpt>
      <trkpt lat="45.00468" lon="1.10198">
        <ele>71</ele>
        <time>2017-10-01T07:10:50.000Z</time>
      </trkpt>
      <trkpt lat="45.00472" lon="1.10193">
        <ele>71</ele>
        <time>2017-10-01T07:10:51.000Z</time>
      </trkpt>
      <trkpt lat="45.00475" lon="1.10189">
        <ele>71</ele>
        <time>2017-10-01T07:10:52.000Z</time>
      </trkpt>
      <trkpt lat="45.00479" lon="1.10184">
        <ele>71</ele>
        <time>2017-10-01T07:10:53.000Z</time>
      </trkpt>
      <trkpt lat="45.00483" lon="1.10179">
        <ele>71</ele>
        <time>2017-10-01T07:10:54.000Z</time>
      </trkpt>
      <trkpt lat="45.00487" lon="1.10174">
        <ele>71</ele>
        <time>2017-10-01T07:10:55.000Z</time>
      </trkpt>
      <trkpt lat="45.0049" lon="1.1017">
        <ele>71</ele>
        <time>2017-10-01T07:10:56.000Z</time>
      </trkpt>
      <trkpt lat="45.00494" lon="1.10165">
        <ele>71</ele>
        <time>2017-10-01T07:10:57.000Z</time>
      </trkpt>
      <trkpt lat="45.00498" lon="1.1016">
        <ele>72</ele>
        <time>2017-10-01T07:10:58.000Z</time>
      </trkpt>
      <trkpt lat="45.00501" lon="1.10155">
        <ele>72</ele>
        <time>2017-10-01T07:10:59.000Z</time>
      </trkpt>
      <trkpt lat="45.00505" lon="1.10151">
        <ele>72</ele>
        <time>2017-10-01T07:11:00.000Z</time>
      </trkpt>
      <trkpt lat="45.00509" lon="1.10146">
        <ele>72</ele>
        <time>2017-10-01T07:11:01.000Z</time>
      </trkpt>
      <trkpt lat="45.00512" lon="1.10141">
        <ele>72</ele>
        <time>2017-10-01T07:11:02.000Z</time>
      </trkpt>
      <trkpt lat="45.00516" lon="1.10137">
        <ele>72</ele>
        <time>2017-10-01T07:11:03.000Z</time>
      </trkpt>
      <trkpt lat="45.0052" lon="1.10132">
        <ele>72</ele>
        <time>2017-10-01T07:11:04.000Z</time>
      </trkpt>
      <trkpt lat="45.00523" lon="1.10128">
        <ele>72</ele>
        <time>2017-10-01T07:11:05.000Z</time>
      </trkpt>
      <trkpt lat="45.00527" lon="1.10123">
        <ele>72</ele>
        <time>2017-10-01T07:11:06.000Z</time>
      </trkpt>
      <trkpt lat="45.00531" lon="1.10118">
        <ele>73</ele>
        <time>2017-10-01T07:11:07.000Z</time>
      </trkpt>
      <trkpt lat="45.00535" lon="1.10113">
        <ele>73</ele>
        <time>2017-10-01T07:11:08.000Z</time>
      </trkpt>
      <trkpt lat="45.00538" lon="1.10109">
        <ele>73</ele>
        <time>2017-10-01T07:11:09.000Z</time>
      </trkpt>
      <trkpt lat="45.00542" lon="1.10104">
        <ele>73</ele>
        <time>2017-10-01T07:11:10.000Z</time>
      </trkpt>
      <trkpt lat="45.00546" lon="1.10099">
        <ele>73</ele>
        <time>2017-10-01T07:11:11.000Z</time>
      </trkpt>
      <trkpt lat="45.0055" lon="1.10094">
        <ele>73</ele>
        <time>2017-10-01T07:11:12.000Z</time>
      </trkpt>
      <trkpt lat="45.00553" lon="1.10089">
        <ele>73</ele>
        <time>2017-10-01T07:11:13.000Z</time>
      </trkpt>
      <trkpt lat="45.00557" lon="1.10084">
        <ele>74</ele>
        <time>2017-10-01T07:11:14.000Z</time>
      </trkpt>
      <trkpt lat="45.00561" lon="1.10079">
        <ele>74</ele>
        <time>2017-10-01T07:11:15.000Z</time>
      </trkpt>
      <trkpt lat="45.00564" lon="1.10074">
        <ele>74</ele>
        <time>2017-10-01T07:11:16.000Z</time>
      </trkpt>
      <trkpt lat="45.00568" lon="1.10069">
        <ele>74</ele>
        <time>2017-10-01T07:11:17.000Z</time>
      </trkpt>
      <trkpt lat="45.00571" lon="1.10064">
        <ele>74</ele>
        <time>2017-10-01T07:11:18.000Z</time>
      </trkpt>
      <trkpt lat="45.00575" lon="1.10059">
        <ele>74</ele>
        <time>2017-10-01T07:11:19.000Z</time>
      </trkpt>
      <trkpt lat="45.00578" lon="1.10054">
        <ele>74</ele>
        <time>2017-10-01T07:11:20.000Z</time>
      </trkpt>
      <trkpt lat="45.00581" lon="1.10049">
        <ele>74</ele>
        <time>2017-10-01T07:11:21.000Z</time>
      </trkpt>
      <trkpt lat="45.00584" lon="1.10043">
        <ele>75</ele>
        <time>2017-10-01T07:11:22.000Z</time>
      </trkpt>
      <trkpt lat="45.00587" lon="1.10038">
        <ele>75</ele>
        <time>2017-10-01T07:11:23.000Z</time>
      </trkpt>
      <trkpt lat="45.00589" lon="1.10033">
        <ele>75</ele>
        <time>2017-10-01T07:11:24.000Z</time>
      </trkpt>
      <trkpt lat="45.00592" lon="1.10028">
        <ele>76</ele>
        <time>2017-10-01T07:11:25.000Z</time>
      </trkpt>
      <trkpt lat="45.00594" lon="1.10023">
        <ele>76</ele>
        <time>2017-10-01T07:11:26.000Z</time>
      </trkpt>
      <trkpt lat="45.00597" lon="1.10018">
        <ele>77</ele>
        <time>2017-10-01T07:11:27.000Z</time>
      </trkpt>
      <trkpt lat="45.00599" lon="1.10013">
        <ele>77</ele>
        <time>2017-10-01T07:11:28.000Z</time>
      </trkpt>
      <trkpt lat="45.00602" lon="1.10008">
        <ele>77</ele>
        <time>2017-10-01T07:11:29.000Z</time>
      </trkpt>
      <trkpt lat="45.00604" lon="1.10003">
        <ele>78</ele>
        <time>2017-10-01T07:11:30.000Z</time>
      </trkpt>
      <trkpt lat="45.00607" lon="1.09998">
        <ele>78</ele>
        <time>2017-10-01T07:11:31.000Z</time>
      </trkpt>
      <trkpt lat="45.0061" lon="1.09993">
        <ele>78</ele>
        <time>2017-10-01T07:11:32.000Z</time>
      </trkpt>
      <trkpt lat="45.00612" lon="1.09988">
        <ele>78</ele>
        <time>2017-10-01T07:11:33.000Z</time>
      </trkpt>
      <trkpt lat="45.00615" lon="1.09983">
        <ele>78</ele>
        <time>2017-10-01T07:11:34.000Z</time>
      </trkpt>
      <trkpt lat="45.00618" lon="1.09977">
        <ele>78</ele>
        <time>2017-10-01T07:11:35.000Z</time>
      </trkpt>
      <trkpt lat="45.0062" lon="1.09972">
        <ele>78</ele>
        <time>2017-10-01T07:11:36.000Z</time>
      </trkpt>
      <trkpt lat="45.00623" lon="1.09967">
        <ele>78</ele>
        <time>2017-10-01T07:11:37.000Z</time>
      </trkpt>
      <trkpt lat="45.00626" lon="1.09961">
        <ele>78</ele>
        <time>2017-10-01T07:11:38.000Z</time>
      </trkpt>
      <trkpt lat="45.00629" lon="1.09956">
        <ele>78</ele>
        <time>2017-10-01T07:11:39.000Z</time>
      </trkpt>
      <trkpt lat="45.00632" lon="1.09951">
        <ele>78</ele>
        <time>2017-10-01T07:11:40.000Z</time>
      </trkpt>
      <trkpt lat="45.00634" lon="1.09946">
        <ele>78</ele>
        <time>2017-10-01T07:11:41.000Z</time>
      </trkpt>
      <trkpt lat="45.00637" lon="1.09941">
        <ele>78</ele>
        <time>2017-10-01T07:11:42.000Z</time>
      </trkpt>
      <trkpt lat="45.0064" lon="1.09937">
        <ele>78</ele>
        <time>2017-10-01T07:11:43.000Z</time>
      </trkpt>
      <trkpt lat="45.00643" lon="1.09932">
        <ele>78</ele>
        <time>2017-10-01T07:11:44.000Z</time>
      </trkpt>
      <trkpt lat="45.00645" lon="1.09927">
        <ele>78</ele>
        <time>2017-10-01T07:11:45.000Z</time>
      </trkpt>
      <trkpt lat="45.00648" lon="1.09922">
        <ele>78</ele>
        <time>2017-10-01T07:11:46.000Z</time>
      </trkpt>
      <trkpt lat="45.00651" lon="1.09918">
        <ele>77</ele>
        <time>2017-10-01T07:11:47.000Z</time>
      </trkpt>
      <trkpt lat="45.00653" lon="1.09913">
        <ele>77</ele>
        <time>2017-10-01T07:11:48.000Z</time>
      </trkpt>
      <trkpt lat="45.00655" lon="1.09907">
        <ele>77</ele>
        <time>2017-10-01T07:11:49.000Z</time>
      </trkpt>
      <trkpt lat="45.00658" lon="1.09902">
        <ele>77</ele>
        <time>2017-10-01T07:11:50.000Z</time>
      </trkpt>
      <trkpt lat="45.0066" lon="1.09897">
        <ele>77</ele>
        <time>2017-10-01T07:11:51.000Z</time>
      </trkpt>
      <trkpt lat="45.00662" lon="1.09891">
        <ele>77</ele>
        <time>2017-10-01T07:11:52.000Z</time>
      </trkpt>
      <trkpt lat="45.00664" lon="1.09885">
        <ele>77</ele>
        <time>2017-10-01T07:11:53.000Z</time>
      </trkpt>
      <trkpt lat="45.00666" lon="1.09879">
        <ele>77</ele>
        <time>2017-10-01T07:11:54.000Z</time>
      </trkpt>
      <trkpt lat="45.00669" lon="1.09873">
        <ele>77</ele>
        <time>2017-10-01T07:11:55.000Z</time>
      </trkpt>
      <trkpt lat="45.00671" lon="1.09867">
        <ele>76</ele>
        <time>2017-10-01T07:11:56.000Z</time>
      </trkpt>
      <trkpt lat="45.00673" lon="1.09861">
        <ele>76</ele>
        <time>2017-10-01T07:11:57.000Z</time>
      </trkpt>
      <trkpt lat="45.00675" lon="1.09854">
        <ele>76</ele>
        <time>2017-10-01T07:11:58.000Z</time>
      </trkpt>
      <trkpt lat="45.00677" lon="1.09848">
        <ele>76</ele>
        <time>2017-10-01T07:11:59.000Z</time>
      </trkpt>
      <trkpt lat="45.00679" lon="1.09841">
        <ele>75</ele>
        <time>2017-10-01T07:12:00.000Z</time>
      </trkpt>
      <trkpt lat="45.00681" lon="1.09834">
        <ele>75</ele>
        <time>2017-10-01T07:12:01.000Z</time>
      </trkpt>
      <trkpt lat="45.00683" lon="1.09828">
        <ele>75</ele>
        <time>2017-10-01T07:12:02.000Z</time>
      </trkpt>
      <trkpt lat="45.00685" lon="1.09821">
        <ele>75</ele>
        <time>2017-10-01T07:12:03.000Z</time>
      </trkpt>
      <trkpt lat="45.00687" lon="1.09814">
        <ele>75</ele>
        <time>2017-10-01T07:12:04.000Z</time>
      </trkpt>
      <trkpt lat="45.00689" lon="1.09807">
        <ele>75</ele>
        <time>2017-10-01T07:12:05.000Z</time>
      </trkpt>
      <trkpt lat="45.00692" lon="1.098">
        <ele>75</ele>
        <time>2017-10-01T07:12:06.000Z</time>
      </trkpt>
      <trkpt lat="45.00694" lon="1.09793">
        <ele>75</ele>
        <time>2017-10-01T07:12:07.000Z</time>
      </trkpt>
      <trkpt lat="45.00696" lon="1.09787">
        <ele>75</ele>
        <time>2017-10-01T07:12:08.000Z</time>
      </trkpt>
      <trkpt lat="45.00698" lon="1.0978">
        <ele>75</ele>
        <time>2017-10-01T07:12:09.000Z</time>
      </trkpt>
      <trkpt lat="45.007" lon="1.09773">
        <ele>75</ele>
        <time>2017-10-01T07:12:10.000Z</time>
      </trkpt>
      <trkpt lat="45.00702" lon="1.09766">
        <ele>75</ele>
        <time>2017-10-01T07:12:11.000Z</time>
      </trkpt>
      <trkpt lat="45.00705" lon="1.09759">
        <ele>75</ele>
        <time>2017-10-01T07:12:12.000Z</time>
      </trkpt>
      <trkpt lat="45.00707" lon="1.09752">
        <ele>75</ele>
        <time>2017-10-01T07:12:13.000Z</time>
      </trkpt>
      <trkpt lat="45.00709" lon="1.09746">
        <ele>74</ele>
        <time>2017-10-01T07:12:14.000Z</time>
      </trkpt>
      <trkpt lat="45.00712" lon="1.09739">
        <ele>74</ele>
        <time>2017-10-01T07:12:15.000Z</time>
      </trkpt>
      <trkpt lat="45.00714" lon="1.09732">
        <ele>74</ele>
        <time>2017-10-01T07:12:16.000Z</time>
      </trkpt>
      <trkpt lat="45.00717" lon="1.09726">
        <ele>74</ele>
        <time>2017-10-01T07:12:17.000Z</time>
      </trkpt>
      <trkpt lat="45.0072" lon="1.0972">
        <ele>74</ele>
        <time>2017-10-01T07:12:18.000Z</time>
      </trkpt>
      <trkpt lat="45.00723" lon="1.09714">
        <ele>74</ele>
        <time>2017-10-01T07:12:19.000Z</time>
      </trkpt>
      <trkpt lat="45.00726" lon="1.09708">
        <ele>74</ele>
        <time>2017-10-01T07:12:20.000Z</time>
      </trkpt>
      <trkpt lat="45.00729" lon="1.09702">
        <ele>74</ele>
        <time>2017-10-01T07:12:21.000Z</time>
      </trkpt>
      <trkpt lat="45.00732" lon="1.09696">
        <ele>74</ele>
        <time>2017-10-01T07:12:22.000Z</time>
      </trkpt>
      <trkpt lat="45.00736" lon="1.0969">
        <ele>74</ele>
        <time>2017-10-01T07:12:23.000Z</time>
      </trkpt>
      <trkpt lat="45.00739" lon="1.09684">
        <ele>74</ele>
        <time>2017-10-01T07:12:24.000Z</time>
      </trkpt>
      <trkpt lat="45.00742" lon="1.09678">
        <ele>74</ele>
        <time>2017-10-01T07:12:25.000Z</time>
      </trkpt>
      <trkpt lat="45.00746" lon="1.09673">
        <ele>74</ele>
        <time>2017-10-01T07:12:26.000Z</time>
      </trkpt>
      <trkpt lat="45.00749" lon="1.09667">
        <ele>74</ele>
        <time>2017-10-01T07:12:27.000Z</time>
      </trkpt>
      <trkpt lat="45.00753" lon="1.09661">
        <ele>74</ele>
        <time>2017-10-01T07:12:28.000Z</time>
      </trkpt>
      <trkpt lat="45.00756" lon="1.09656">
        <ele>74</ele>
        <time>2017-10-01T07:12:29.000Z</time>
      </trkpt>
      <trkpt lat="45.00759" lon="1.0965">
        <ele>74</ele>
        <time>2017-10-01T07:12:30.000Z</time>
      </trkpt>
      <trkpt lat="45.00763" lon="1.09644">
        <ele>74</ele>
        <time>2017-10-01T07:12:31.000Z</time>
      </trkpt>
      <trkpt lat="45.00766" lon="1.09639">
        <ele>74</ele>
        <time>2017-10-01T07:12:32.000Z</time>
      </trkpt>
      <trkpt lat="45.0077" lon="1.09633">
        <ele>74</ele>
        <time>2017-10-01T07:12:33.000Z</time>
      </trkpt>
      <trkpt lat="45.00773" lon="1.09627">
        <ele>74</ele>
        <time>2017-10-01T07:12:34.000Z</time>
      </trkpt>
      <trkpt lat="45.00777" lon="1.09622">
        <ele>74</ele>
        <time>2017-10-01T07:12:35.000Z</time>
      </trkpt>
      <trkpt lat="45.0078" lon="1.09616">
        <ele>74</ele>
        <time>2017-10-01T07:12:36.000Z</time>
      </trkpt>
      <trkpt lat="45.00784" lon="1.0961">
        <ele>74</ele>
        <time>2017-10-01T07:12:37.000Z</time>
      </trkpt>
      <trkpt lat="45.00787" lon="1.09604">
        <ele>75</ele>
        <time>2017-10-01T07:12:38.000Z</time>
      </trkpt>
      <trkpt lat="45.00791" lon="1.09599">
        <ele>75</ele>
        <time>2017-10-01T07:12:39.000Z</time>
      </trkpt>
      <trkpt lat="45.00794" lon="1.09593">
        <ele>75</ele>
        <time>2017-10-01T07:12:40.000Z</time>
      </trkpt>
      <trkpt lat="45.00798" lon="1.09587">
        <ele>75</ele>
        <time>2017-10-01T07:12:41.000Z</time>
      </trkpt>
      <trkpt lat="45.00801" lon="1.09581">
        <ele>75</ele>
        <time>2017-10-01T07:12:42.000Z</time>
      </trkpt>
      <trkpt lat="45.00805" lon="1.09575">
        <ele>75</ele>
        <time>2017-10-01T07:12:43.000Z</time>
      </trkpt>
      <trkpt lat="45.00808" lon="1.09569">
        <ele>75</ele>
        <time>2017-10-01T07:12:44.000Z</time>
      </trkpt>
      <trkpt lat="45.00812" lon="1.09564">
        <ele>75</ele>
        <time>2017-10-01T07:12:45.000Z</time>
      </trkpt>
      <trkpt lat="45.00815" lon="1.09558">
        <ele>75</ele>
        <time>2017-10-01T07:12:46.000Z</time>
      </trkpt>
      <trkpt lat="45.00818" lon="1.09552">
        <ele>75</ele>
        <time>2017-10-01T07:12:47.000Z</time>
      </trkpt>
      <trkpt lat="45.00822" lon="1.09546">
        <ele>75</ele>
        <time>2017-10-01T07:12:48.000Z</time>
      </trkpt>
      <trkpt lat="45.00825" lon="1.09541">
        <ele>75</ele>
        <time>2017-10-01T07:12:49.000Z</time>
      </trkpt>
      <trkpt lat="45.00828" lon="1.09535">
        <ele>75</ele>
        <time>2017-10-01T07:12:50.000Z</time>
      </trkpt>
      <trkpt lat="45.00832" lon="1.0953">
        <ele>75</ele>
        <time>2017-10-01T07:12:51.000Z</time>
      </trkpt>
      <trkpt lat="45.00835" lon="1.09524">
        <ele>75</ele>
        <time>2017-10-01T07:12:52.000Z</time>
      </trkpt>
      <trkpt lat="45.00838" lon="1.09519">
        <ele>75</ele>
        <time>2017-10-01T07:12:53.000Z</time>
      </trkpt>
      <trkpt lat="45.00842" lon="1.09514">
        <ele>75</ele>
        <time>2017-10-01T07:12:54.000Z</time>
      </trkpt>
      <trkpt lat="45.00845" lon="1.09508">
        <ele>75</ele>
        <time>2017-10-01T07:12:55.000Z</time>
      </trkpt>
      <trkpt lat="45.00848" lon="1.09503">
        <ele>75</ele>
        <time>2017-10-01T07:12:56.000Z</time>
      </trkpt>
      <trkpt lat="45.00852" lon="1.09498">
        <ele>75</ele>
        <time>2017-10-01T07:12:57.000Z</time>
      </trkpt>
      <trkpt lat="45.00855" lon="1.09492">
        <ele>75</ele>
        <time>2017-10-01T07:12:58.000Z</time>
      </trkpt>
      <trkpt lat="45.00859" lon="1.09487">
        <ele>74</ele>
        <time>2017-10-01T07:12:59.000Z</time>
      </trkpt>
      <trkpt lat="45.00862" lon="1.09482">
        <ele>74</ele>
        <time>2017-10-01T07:13:00.000Z</time>
      </trkpt>
      <trkpt lat="45.00865" lon="1.09478">
        <ele>74</ele>
        <time>2017-10-01T07:13:01.000Z</time>
      </trkpt>
      <trkpt lat="45.00868" lon="1.09473">
        <ele>74</ele>
        <time>2017-10-01T07:13:02.000Z</time>
      </trkpt>
      <trkpt lat="45.00871" lon="1.0947">
        <ele>74</ele>
        <time>2017-10-01T07:13:03.000Z</time>
      </trkpt>
      <trkpt lat="45.00873" lon="1.09467">
        <ele>74</ele>
        <time>2017-10-01T07:13:04.000Z</time>
      </trkpt>
      <trkpt lat="45.00876" lon="1.09465">
        <ele>74</ele>
        <time>2017-10-01T07:13:05.000Z</time>
      </trkpt>
      <trkpt lat="45.00879" lon="1.09465">
        <ele>74</ele>
        <time>2017-10-01T07:13:06.000Z</time>
      </trkpt>
      <trkpt lat="45.00882" lon="1.09466">
        <ele>74</ele>
        <time>2017-10-01T07:13:07.000Z</time>
      </trkpt>
      <trkpt lat="45.00885" lon="1.09469">
        <ele>74</ele>
        <time>2017-10-01T07:13:08.000Z</time>
      </trkpt>
      <trkpt lat="45.00887" lon="1.09473">
        <ele>74</ele>
        <time>2017-10-01T07:13:09.000Z</time>
      </trkpt>
      <trkpt lat="45.0089" lon="1.09478">
        <ele>74</ele>
        <time>2017-10-01T07:13:10.000Z</time>
      </trkpt>
      <trkpt lat="45.00893" lon="1.09483">
        <ele>75</ele>
        <time>2017-10-01T07:13:11.000Z</time>
      </trkpt>
      <trkpt lat="45.00895" lon="1.09487">
        <ele>75</ele>
        <time>2017-10-01T07:13:12.000Z</time>
      </trkpt>
      <trkpt lat="45.00898" lon="1.09491">
        <ele>75</ele>
        <time>2017-10-01T07:13:13.000Z</time>
      </trkpt>
      <trkpt lat="45.009" lon="1.09495">
        <ele>75</ele>
        <time>2017-10-01T07:13:14.000Z</time>
      </trkpt>
      <trkpt lat="45.00903" lon="1.09498">
        <ele>75</ele>
        <time>2017-10-01T07:13:15.000Z</time>
      </trkpt>
      <trkpt lat="45.00905" lon="1.09502">
        <ele>75</ele>
        <time>2017-10-01T07:13:16.000Z</time>
      </trkpt>
      <trkpt lat="45.00908" lon="1.09506">
        <ele>76</ele>
        <time>2017-10-01T07:13:17.000Z</time>
      </trkpt>
      <trkpt lat="45.0091" lon="1.0951">
        <ele>76</ele>
        <time>2017-10-01T07:13:18.000Z</time>
      </trkpt>
      <trkpt lat="45.00912" lon="1.09514">
        <ele>76</ele>
        <time>2017-10-01T07:13:19.000Z</time>
      </trkpt>
      <trkpt lat="45.00915" lon="1.09518">
        <ele>76</ele>
        <time>2017-10-01T07:13:20.000Z</time>
      </trkpt>
      <trkpt lat="45.00917" lon="1.09521">
        <ele>76</ele>
        <time>2017-10-01T07:13:21.000Z</time>
      </trkpt>
      <trkpt lat="45.00919" lon="1.09525">
        <ele>76</ele>
        <time>2017-10-01T07:13:22.000Z</time>
      </trkpt>
      <trkpt lat="45.00921" lon="1.09528">
        <ele>77</ele>
        <time>2017-10-01T07:13:23.000Z</time>
      </trkpt>
      <trkpt lat="45.00923" lon="1.09531">
        <ele>77</ele>
        <time>2017-10-01T07:13:24.000Z</time>
      </trkpt>
      <trkpt lat="45.00924" lon="1.09534">
        <ele>77</ele>
        <time>2017-10-01T07:13:25.000Z</time>
      </trkpt>
      <trkpt lat="45.00926" lon="1.09537">
        <ele>77</ele>
        <time>2017-10-01T07:13:26.000Z</time>
      </trkpt>
      <trkpt lat="45.00928" lon="1.09541">
        <ele>77</ele>
        <time>2017-10-01T07:13:27.000Z</time>
      </trkpt>
      <trkpt lat="45.0093" lon="1.09544">
        <ele>77</ele>
        <time>2017-10-01T07:13:28.000Z</time>
      </trkpt>
      <trkpt lat="45.00931" lon="1.09547">
        <ele>78</ele>
        <time>2017-10-01T07:13:29.000Z</time>
      </trkpt>
      <trkpt lat="45.00933" lon="1.09551">
        <ele>78</ele>
        <time>2017-10-01T07:13:30.000Z</time>
      </trkpt>
      <trkpt lat="45.00935" lon="1.09554">
        <ele>78</ele>
        <time>2017-10-01T07:13:31.000Z</time>
      </trkpt>
      <trkpt lat="45.00937" lon="1.09557">
        <ele>78</ele>
        <time>2017-10-01T07:13:32.000Z</time>
      </trkpt>
      <trkpt lat="45.00938" lon="1.0956">
        <ele>78</ele>
        <time>2017-10-01T07:13:33.000Z</time>
      </trkpt>
      <trkpt lat="45.0094" lon="1.09563">
        <ele>78</ele>
        <time>2017-10-01T07:13:34.000Z</time>
      </trkpt>
      <trkpt lat="45.00941" lon="1.09566">
        <ele>79</ele>
        <time>2017-10-01T07:13:35.000Z</time>
      </trkpt>
      <trkpt lat="45.00943" lon="1.0957">
        <ele>79</ele>
        <time>2017-10-01T07:13:36.000Z</time>
      </trkpt>
      <trkpt lat="45.00944" lon="1.09573">
        <ele>79</ele>
        <time>2017-10-01T07:13:37.000Z</time>
      </trkpt>
      <trkpt lat="45.00945" lon="1.09576">
        <ele>79</ele>
        <time>2017-10-01T07:13:38.000Z</time>
      </trkpt>
      <trkpt lat="45.00947" lon="1.09579">
        <ele>79</ele>
        <time>2017-10-01T07:13:39.000Z</time>
      </trkpt>
      <trkpt lat="45.00948" lon="1.09582">
        <ele>79</ele>
        <time>2017-10-01T07:13:40.000Z</time>
      </trkpt>
      <trkpt lat="45.0095" lon="1.09585">
        <ele>79</ele>
        <time>2017-10-01T07:13:41.000Z</time>
      </trkpt>
      <trkpt lat="45.00952" lon="1.09588">
        <ele>79</ele>
        <time>2017-10-01T07:13:42.000Z</time>
      </trkpt>
      <trkpt lat="45.00954" lon="1.09591">
        <ele>80</ele>
        <time>2017-10-01T07:13:43.000Z</time>
      </trkpt>
      <trkpt lat="45.00956" lon="1.09593">
        <ele>80</ele>
        <time>2017-10-01T07:13:44.000Z</time>
      </trkpt>
      <trkpt lat="45.00958" lon="1.09596">
        <ele>80</ele>
        <time>2017-10-01T07:13:45.000Z</time>
      </trkpt>
      <trkpt lat="45.0096" lon="1.09599">
        <ele>80</ele>
        <time>2017-10-01T07:13:46.000Z</time>
      </trkpt>
      <trkpt lat="45.00962" lon="1.09602">
        <ele>80</ele>
        <time>2017-10-01T07:13:47.000Z</time>
      </trkpt>
      <trkpt lat="45.00964" lon="1.09605">
        <ele>80</ele>
        <time>2017-10-01T07:13:48.000Z</time>
      </trkpt>
      <trkpt lat="45.00965" lon="1.09608">
        <ele>80</ele>
        <time>2017-10-01T07:13:49.000Z</time>
      </trkpt>
      <trkpt lat="45.00967" lon="1.09611">
        <ele>80</ele>
        <time>2017-10-01T07:13:50.000Z</time>
      </trkpt>
      <trkpt lat="45.00969" lon="1.09614">
        <ele>80</ele>
        <time>2017-10-01T07:13:51.000Z</time>
      </trkpt>
      <trkpt lat="45.00971" lon="1.09617">
        <ele>81</ele>
        <time>2017-10-01T07:13:52.000Z</time>
      </trkpt>
      <trkpt lat="45.00972" lon="1.0962">
        <ele>81</ele>
        <time>2017-10-01T07:13:53.000Z</time>
      </trkpt>
      <trkpt lat="45.00974" lon="1.09623">
        <ele>81</ele>
        <time>2017-10-01T07:13:54.000Z</time>
      </trkpt>
      <trkpt lat="45.00976" lon="1.09625">
        <ele>81</ele>
        <time>2017-10-01T07:13:55.000Z</time>
      </trkpt>
      <trkpt lat="45.00979" lon="1.09628">
        <ele>81</ele>
        <time>2017-10-01T07:13:56.000Z</time>
      </trkpt>
      <trkpt lat="45.0098" lon="1.09631">
        <ele>81</ele>
        <time>2017-10-01T07:13:57.000Z</time>
      </trkpt>
      <trkpt lat="45.0098" lon="1.09635">
        <ele>81</ele>
        <time>2017-10-01T07:13:58.000Z</time>
      </trkpt>
      <trkpt lat="45.00979" lon="1.0964">
        <ele>82</ele>
        <time>2017-10-01T07:13:59.000Z</time>
      </trkpt>
      <trkpt lat="45.00979" lon="1.09644">
        <ele>82</ele>
        <time>2017-10-01T07:14:00.000Z</time>
      </trkpt>
      <trkpt lat="45.00978" lon="1.09649">
        <ele>82</ele>
        <time>2017-10-01T07:14:01.000Z</time>
      </trkpt>
      <trkpt lat="45.00977" lon="1.09654">
        <ele>82</ele>
        <time>2017-10-01T07:14:02.000Z</time>
      </trkpt>
      <trkpt lat="45.00976" lon="1.09658">
        <ele>82</ele>
        <time>2017-10-01T07:14:03.000Z</time>
      </trkpt>
      <trkpt lat="45.00975" lon="1.09663">
        <ele>82</ele>
        <time>2017-10-01T07:14:04.000Z</time>
      </trkpt>
      <trkpt lat="45.00975" lon="1.09668">
        <ele>82</ele>
        <time>2017-10-01T07:14:05.000Z</time>
      </trkpt>
      <trkpt lat="45.00974" lon="1.09673">
        <ele>82</ele>
        <time>2017-10-01T07:14:06.000Z</time>
      </trkpt>
      <trkpt lat="45.00973" lon="1.09677">
        <ele>83</ele>
        <time>2017-10-01T07:14:07.000Z</time>
      </trkpt>
      <trkpt lat="45.00972" lon="1.09682">
        <ele>83</ele>
        <time>2017-10-01T07:14:08.000Z</time>
      </trkpt>
      <trkpt lat="45.00971" lon="1.09686">
        <ele>84</ele>
        <time>2017-10-01T07:14:09.000Z</time>
      </trkpt>
      <trkpt lat="45.00971" lon="1.09691">
        <ele>84</ele>
        <time>2017-10-01T07:14:10.000Z</time>
      </trkpt>
      <trkpt lat="45.0097" lon="1.09695">
        <ele>84</ele>
        <time>2017-10-01T07:14:11.000Z</time>
      </trkpt>
      <trkpt lat="45.00969" lon="1.097">
        <ele>85</ele>
        <time>2017-10-01T07:14:12.000Z</time>
      </trkpt>
      <trkpt lat="45.00968" lon="1.09704">
        <ele>85</ele>
        <time>2017-10-01T07:14:13.000Z</time>
      </trkpt>
      <trkpt lat="45.00968" lon="1.09708">
        <ele>85</ele>
        <time>2017-10-01T07:14:14.000Z</time>
      </trkpt>
      <trkpt lat="45.00967" lon="1.09712">
        <ele>85</ele>
        <time>2017-10-01T07:14:15.000Z</time>
      </trkpt>
      <trkpt lat="45.00966" lon="1.09716">
        <ele>86</ele>
        <time>2017-10-01T07:14:16.000Z</time>
      </trkpt>
      <trkpt lat="45.00965" lon="1.0972">
        <ele>86</ele>
        <time>2017-10-01T07:14:17.000Z</time>
      </trkpt>
      <trkpt lat="45.00965" lon="1.09723">
        <ele>86</ele>
        <time>2017-10-01T07:14:18.000Z</time>
      </trkpt>
      <trkpt lat="45.00964" lon="1.09726">
        <ele>86</ele>
        <time>2017-10-01T07:14:19.000Z</time>
      </trkpt>
      <trkpt lat="45.00963" lon="1.09729">
        <ele>87</ele>
        <time>2017-10-01T07:14:20.000Z</time>
      </trkpt>
      <trkpt lat="45.00962" lon="1.09732">
        <ele>87</ele>
        <time>2017-10-01T07:14:21.000Z</time>
      </trkpt>
      <trkpt lat="45.00961" lon="1.09735">
        <ele>87</ele>
        <time>2017-10-01T07:14:22.000Z</time>
      </trkpt>
      <trkpt lat="45.0096" lon="1.09737">
        <ele>87</ele>
        <time>2017-10-01T07:14:23.000Z</time>
      </trkpt>
      <trkpt lat="45.00959" lon="1.0974">
        <ele>87</ele>
        <time>2017-10-01T07:14:24.000Z</time>
      </trkpt>
      <trkpt lat="45.00959" lon="1.09742">
        <ele>87</ele>
        <time>2017-10-01T07:14:25.000Z</time>
      </trkpt>
      <trkpt lat="45.00958" lon="1.09745">
        <ele>88</ele>
        <time>2017-10-01T07:14:26.000Z</time>
      </trkpt>
      <trkpt lat="45.00957" lon="1.09749">
        <ele>88</ele>
        <time>2017-10-01T07:14:27.000Z</time>
      </trkpt>
      <trkpt lat="45.00957" lon="1.09752">
        <ele>88</ele>
        <time>2017-10-01T07:14:28.000Z</time>
      </trkpt>
      <trkpt lat="45.00956" lon="1.09755">
        <ele>88</ele>
        <time>2017-10-01T07:14:29.000Z</time>
      </trkpt>
      <trkpt lat="45.00955" lon="1.09758">
        <ele>88</ele>
        <time>2017-10-01T07:14:30.000Z</time>
      </trkpt>
      <trkpt lat="45.00954" lon="1.0976">
        <ele>88</ele>
        <time>2017-10-01T07:14:31.000Z</time>
      </trkpt>
      <trkpt lat="45.00952" lon="1.09763">
        <ele>88</ele>
        <time>2017-10-01T07:14:32.000Z</time>
      </trkpt>
      <trkpt lat="45.00951" lon="1.09765">
        <ele>88</ele>
        <time>2017-10-01T07:14:33.000Z</time>
      </trkpt>
      <trkpt lat="45.0095" lon="1.09768">
        <ele>88</ele>
        <time>2017-10-01T07:14:34.000Z</time>
      </trkpt>
      <trkpt lat="45.00948" lon="1.09771">
        <ele>88</ele>
        <time>2017-10-01T07:14:35.000Z</time>
      </trkpt>
      <trkpt lat="45.00946" lon="1.09773">
        <ele>88</ele>
        <time>2017-10-01T07:14:36.000Z</time>
      </trkpt>
      <trkpt lat="45.00945" lon="1.09776">
        <ele>88</ele>
        <time>2017-10-01T07:14:37.000Z</time>
      </trkpt>
      <trkpt lat="45.00943" lon="1.09779">
        <ele>89</ele>
        <time>2017-10-01T07:14:38.000Z</time>
      </trkpt>
      <trkpt lat="45.00941" lon="1.09782">
        <ele>89</ele>
        <time>2017-10-01T07:14:39.000Z</time>
      </trkpt>
      <trkpt lat="45.00939" lon="1.09784">
        <ele>89</ele>
        <time>2017-10-01T07:14:40.000Z</time>
      </trkpt>
      <trkpt lat="45.00937" lon="1.09787">
        <ele>89</ele>
        <time>2017-10-01T07:14:41.000Z</time>
      </trkpt>
      <trkpt lat="45.00936" lon="1.0979">
        <ele>89</ele>
        <time>2017-10-01T07:14:42.000Z</time>
      </trkpt>
      <trkpt lat="45.00934" lon="1.09793">
        <ele>89</ele>
        <time>2017-10-01T07:14:43.000Z</time>
      </trkpt>
      <trkpt lat="45.00931" lon="1.09796">
        <ele>89</ele>
        <time>2017-10-01T07:14:44.000Z</time>
      </trkpt>
      <trkpt lat="45.00929" lon="1.09799">
        <ele>89</ele>
        <time>2017-10-01T07:14:45.000Z</time>
      </trkpt>
      <trkpt lat="45.00927" lon="1.09802">
        <ele>89</ele>
        <time>2017-10-01T07:14:46.000Z</time>
      </trkpt>
      <trkpt lat="45.00925" lon="1.09805">
        <ele>89</ele>
        <time>2017-10-01T07:14:47.000Z</time>
      </trkpt>
      <trkpt lat="45.00923" lon="1.09808">
        <ele>89</ele>
        <time>2017-10-01T07:14:48.000Z</time>
      </trkpt>
      <trkpt lat="45.00921" lon="1.09811">
        <ele>89</ele>
        <time>2017-10-01T07:14:49.000Z</time>
      </trkpt>
      <trkpt lat="45.00918" lon="1.09814">
        <ele>89</ele>
        <time>2017-10-01T07:14:50.000Z</time>
      </trkpt>
      <trkpt lat="45.00916" lon="1.09817">
        <ele>89</ele>
        <time>2017-10-01T07:14:51.000Z</time>
      </trkpt>
      <trkpt lat="45.00914" lon="1.0982">
        <ele>89</ele>
        <time>2017-10-01T07:14:52.000Z</time>
      </trkpt>
      <trkpt lat="45.00911" lon="1.09823">
        <ele>89</ele>
        <time>2017-10-01T07:14:53.000Z</time>
      </trkpt>
      <trkpt lat="45.00909" lon="1.09827">
        <ele>89</ele>
        <time>2017-10-01T07:14:54.000Z</time>
      </trkpt>
      <trkpt lat="45.00906" lon="1.0983">
        <ele>89</ele>
        <time>2017-10-01T07:14:55.000Z</time>
      </trkpt>
      <trkpt lat="45.00904" lon="1.09834">
        <ele>89</ele>
        <time>2017-10-01T07:14:56.000Z</time>
      </trkpt>
      <trkpt lat="45.00902" lon="1.09837">
        <ele>90</ele>
        <time>2017-10-01T07:14:57.000Z</time>
      </trkpt>
      <trkpt lat="45.009" lon="1.0984">
        <ele>90</ele>
        <time>2017-10-01T07:14:58.000Z</time>
      </trkpt>
      <trkpt lat="45.00898" lon="1.09844">
        <ele>90</ele>
        <time>2017-10-01T07:14:59.000Z</time>
      </trkpt>
      <trkpt lat="45.00896" lon="1.09848">
        <ele>90</ele>
        <time>2017-10-01T07:15:00.000Z</time>
      </trkpt>
      <trkpt lat="45.00895" lon="1.09851">
        <ele>90</ele>
        <time>2017-10-01T07:15:01.000Z</time>
      </trkpt>
      <trkpt lat="45.00894" lon="1.09856">
        <ele>91</ele>
        <time>2017-10-01T07:15:02.000Z</time>
      </trkpt>
      <trkpt lat="45.00894" lon="1.0986">
        <ele>91</ele>
        <time>2017-10-01T07:15:03.000Z</time>
      </trkpt>
      <trkpt lat="45.00894" lon="1.09865">
        <ele>91</ele>
        <time>2017-10-01T07:15:04.000Z</time>
      </trkpt>
      <trkpt lat="45.00895" lon="1.09869">
        <ele>92</ele>
        <time>2017-10-01T07:15:05.000Z</time>
      </trkpt>
      <trkpt lat="45.00897" lon="1.09873">
        <ele>92</ele>
        <time>2017-10-01T07:15:06.000Z</time>
      </trkpt>
      <trkpt lat="45.00898" lon="1.09877">
        <ele>93</ele>
        <time>2017-10-01T07:15:07.000Z</time>
      </trkpt>
      <trkpt lat="45.009" lon="1.09881">
        <ele>93</ele>
        <time>2017-10-01T07:15:08.000Z</time>
      </trkpt>
      <trkpt lat="45.00901" lon="1.09885">
        <ele>93</ele>
        <time>2017-10-01T07:15:09.000Z</time>
      </trkpt>
      <trkpt lat="45.00903" lon="1.09889">
        <ele>94</ele>
        <time>2017-10-01T07:15:10.000Z</time>
      </trkpt>
      <trkpt lat="45.00903" lon="1.09893">
        <ele>94</ele>
        <time>2017-10-01T07:15:11.000Z</time>
      </trkpt>
      <trkpt lat="45.00903" lon="1.09898">
        <ele>95</ele>
        <time>2017-10-01T07:15:12.000Z</time>
      </trkpt>
      <trkpt lat="45.00902" lon="1.09902">
        <ele>95</ele>
        <time>2017-10-01T07:15:13.000Z</time>
      </trkpt>
      <trkpt lat="45.00901" lon="1.09907">
        <ele>95</ele>
        <time>2017-10-01T07:15:14.000Z</time>
      </trkpt>
      <trkpt lat="45.009" lon="1.09912">
        <ele>96</ele>
        <time>2017-10-01T07:15:15.000Z</time>
      </trkpt>
      <trkpt lat="45.00899" lon="1.09917">
        <ele>96</ele>
        <time>2017-10-01T07:15:16.000Z</time>
      </trkpt>
      <trkpt lat="45.00897" lon="1.09921">
        <ele>96</ele>
        <time>2017-10-01T07:15:17.000Z</time>
      </trkpt>
      <trkpt lat="45.00896" lon="1.09926">
        <ele>96</ele>
        <time>2017-10-01T07:15:18.000Z</time>
      </trkpt>
      <trkpt lat="45.00895" lon="1.0993">
        <ele>96</ele>
        <time>2017-10-01T07:15:19.000Z</time>
      </trkpt>
      <trkpt lat="45.00894" lon="1.09935">
        <ele>96</ele>
        <time>2017-10-01T07:15:20.000Z</time>
      </trkpt>
      <trkpt lat="45.00893" lon="1.09939">
        <ele>96</ele>
        <time>2017-10-01T07:15:21.000Z</time>
      </trkpt>
      <trkpt lat="45.00892" lon="1.09943">
        <ele>96</ele>
        <time>2017-10-01T07:15:22.000Z</time>
      </trkpt>
      <trkpt lat="45.00891" lon="1.09948">
        <ele>97</ele>
        <time>2017-10-01T07:15:23.000Z</time>
      </trkpt>
      <trkpt lat="45.0089" lon="1.09952">
        <ele>97</ele>
        <time>2017-10-01T07:15:24.000Z</time>
      </trkpt>
      <trkpt lat="45.0089" lon="1.09956">
        <ele>97</ele>
        <time>2017-10-01T07:15:25.000Z</time>
      </trkpt>
      <trkpt lat="45.00889" lon="1.09961">
        <ele>97</ele>
        <time>2017-10-01T07:15:26.000Z</time>
      </trkpt>
      <trkpt lat="45.00889" lon="1.09965">
        <ele>97</ele>
        <time>2017-10-01T07:15:27.000Z</time>
      </trkpt>
      <trkpt lat="45.00888" lon="1.09969">
        <ele>97</ele>
        <time>2017-10-01T07:15:28.000Z</time>
      </trkpt>
      <trkpt lat="45.00888" lon="1.09974">
        <ele>97</ele>
        <time>2017-10-01T07:15:29.000Z</time>
      </trkpt>
      <trkpt lat="45.00888" lon="1.09978">
        <ele>97</ele>
        <time>2017-10-01T07:15:30.000Z</time>
      </trkpt>
      <trkpt lat="45.00887" lon="1.09982">
        <ele>98</ele>
        <time>2017-10-01T07:15:31.000Z</time>
      </trkpt>
      <trkpt lat="45.00887" lon="1.09985">
        <ele>98</ele>
        <time>2017-10-01T07:15:32.000Z</time>
      </trkpt>
      <trkpt lat="45.00887" lon="1.09989">
        <ele>98</ele>
        <time>2017-10-01T07:15:33.000Z</time>
      </trkpt>
      <trkpt lat="45.00887" lon="1.09993">
        <ele>98</ele>
        <time>2017-10-01T07:15:34.000Z</time>
      </trkpt>
      <trkpt lat="45.00886" lon="1.09996">
        <ele>98</ele>
        <time>2017-10-01T07:15:35.000Z</time>
      </trkpt>
      <trkpt lat="45.00886" lon="1.09999">
        <ele>98</ele>
        <time>2017-10-01T07:15:36.000Z</time>
      </trkpt>
      <trkpt lat="45.00886" lon="1.10002">
        <ele>98</ele>
        <time>2017-10-01T07:15:37.000Z</time>
      </trkpt>
      <trkpt lat="45.00886" lon="1.10005">
        <ele>98</ele>
        <time>2017-10-01T07:15:38.000Z</time>
      </trkpt>
      <trkpt lat="45.00887" lon="1.10008">
        <ele>99</ele>
        <time>2017-10-01T07:15:39.000Z</time>
      </trkpt>
      <trkpt lat="45.00887" lon="1.10011">
        <ele>99</ele>
        <time>2017-10-01T07:15:40.000Z</time>
      </trkpt>
      <trkpt lat="45.00887" lon="1.10014">
        <ele>99</ele>
        <time>2017-10-01T07:15:41.000Z</time>
      </trkpt>
      <trkpt lat="45.00887" lon="1.10017">
        <ele>99</ele>
        <time>2017-10-01T07:15:42.000Z</time>
      </trkpt>
      <trkpt lat="45.00887" lon="1.1002">
        <ele>99</ele>
        <time>2017-10-01T07:15:43.000Z</time>
      </trkpt>
      <trkpt lat="45.00887" lon="1.10023">
        <ele>99</ele>
        <time>2017-10-01T07:15:44.000Z</time>
      </trkpt>
      <trkpt lat="45.00887" lon="1.10026">
        <ele>99</ele>
        <time>2017-10-01T07:15:45.000Z</time>
      </trkpt>
      <trkpt lat="45.00887" lon="1.10029">
        <ele>100</ele>
        <time>2017-10-01T07:15:46.000Z</time>
      </trkpt>
      <trkpt lat="45.00887" lon="1.10032">
        <ele>100</ele>
        <time>2017-10-01T07:15:47.000Z</time>
      </trkpt>
      <trkpt lat="45.00887" lon="1.10035">
        <ele>100</ele>
        <time>2017-10-01T07:15:48.000Z</time>
      </trkpt>
      <trkpt lat="45.00887" lon="1.10038">
        <ele>100</ele>
        <time>2017-10-01T07:15:49.000Z</time>
      </trkpt>
      <trkpt lat="45.00887" lon="1.10041">
        <ele>100</ele>
        <time>2017-10-01T07:15:50.000Z</time>
      </trkpt>
      <trkpt lat="45.00887" lon="1.10044">
        <ele>100</ele>
        <time>2017-10-01T07:15:51.000Z</time>
      </trkpt>
      <trkpt lat="45.00888" lon="1.10047">
        <ele>100</ele>
        <time>2017-10-01T07:15:52.000Z</time>
      </trkpt>
      <trkpt lat="45.00888" lon="1.1005">
        <ele>101</ele>
        <time>2017-10-01T07:15:53.000Z</time>
      </trkpt>
      <trkpt lat="45.00888" lon="1.10053">
        <ele>101</ele>
        <time>2017-10-01T07:15:54.000Z</time>
      </trkpt>
      <trkpt lat="45.00888" lon="1.10055">
        <ele>101</ele>
        <time>2017-10-01T07:15:55.000Z</time>
      </trkpt>
      <trkpt lat="45.00888" lon="1.10058">
        <ele>101</ele>
        <time>2017-10-01T07:15:56.000Z</time>
      </trkpt>
      <trkpt lat="45.00888" lon="1.10061">
        <ele>101</ele>
        <time>2017-10-01T07:15:57.000Z</time>
      </trkpt>
      <trkpt lat="45.00888" lon="1.10063">
        <ele>101</ele>
        <time>2017-10-01T07:15:58.000Z</time>
      </trkpt>
      <trkpt lat="45.00889" lon="1.10066">
        <ele>101</ele>
        <time>2017-10-01T07:15:59.000Z</time>
      </trkpt>
      <trkpt lat="45.00889" lon="1.10068">
        <ele>101</ele>
        <time>2017-10-01T07:16:00.000Z</time>
      </trkpt>
      <trkpt lat="45.00889" lon="1.1007">
        <ele>102</ele>
        <time>2017-10-01T07:16:01.000Z</time>
      </trkpt>
      <trkpt lat="45.00889" lon="1.10073">
        <ele>102</ele>
        <time>2017-10-01T07:16:02.000Z</time>
      </trkpt>
      <trkpt lat="45.00889" lon="1.10075">
        <ele>102</ele>
        <time>2017-10-01T07:16:03.000Z</time>
      </trkpt>
      <trkpt lat="45.00889" lon="1.10077">
        <ele>102</ele>
        <time>2017-10-01T07:16:04.000Z</time>
      </trkpt>
      <trkpt lat="45.0089" lon="1.10079">
        <ele>102</ele>
        <time>2017-10-01T07:16:05.000Z</time>
      </trkpt>
      <trkpt lat="45.0089" lon="1.10081">
        <ele>102</ele>
        <time>2017-10-01T07:16:06.000Z</time>
      </trkpt>
      <trkpt lat="45.0089" lon="1.10083">
        <ele>102</ele>
        <time>2017-10-01T07:16:07.000Z</time>
      </trkpt>
      <trkpt lat="45.0089" lon="1.10084">
        <ele>102</ele>
        <time>2017-10-01T07:16:08.000Z</time>
      </trkpt>
      <trkpt lat="45.0089" lon="1.10086">
        <ele>102</ele>
        <time>2017-10-01T07:16:09.000Z</time>
      </trkpt>
      <trkpt lat="45.0089" lon="1.10088">
        <ele>102</ele>
        <time>2017-10-01T07:16:10.000Z</time>
      </trkpt>
      <trkpt lat="45.0089" lon="1.1009">
        <ele>102</ele>
        <time>2017-10-01T07:16:11.000Z</time>
      </trkpt>
      <trkpt lat="45.00891" lon="1.10092">
        <ele>102</ele>
        <time>2017-10-01T07:16:12.000Z</time>
      </trkpt>
      <trkpt lat="45.00891" lon="1.10093">
        <ele>103</ele>
        <time>2017-10-01T07:16:13.000Z</time>
      </trkpt>
      <trkpt lat="45.00891" lon="1.10095">
        <ele>103</ele>
        <time>2017-10-01T07:16:14.000Z</time>
      </trkpt>
      <trkpt lat="45.00891" lon="1.10096">
        <ele>103</ele>
        <time>2017-10-01T07:16:15.000Z</time>
      </trkpt>
      <trkpt lat="45.00891" lon="1.10097">
        <ele>103</ele>
        <time>2017-10-01T07:16:16.000Z</time>
      </trkpt>
      <trkpt lat="45.00891" lon="1.10098">
        <ele>103</ele>
        <time>2017-10-01T07:16:17.000Z</time>
      </trkpt>
      <trkpt lat="45.00892" lon="1.10098">
        <ele>103</ele>
        <time>2017-10-01T07:16:19.000Z</time>
      </trkpt>
      <trkpt lat="45.00892" lon="1.10098">
        <ele>103</ele>
        <time>2017-10-01T07:16:19.000Z</time>
      </trkpt>
      <trkpt lat="45.00892" lon="1.10099">
        <ele>103</ele>
        <time>2017-10-01T07:16:31.000Z</time>
      </trkpt>
      <trkpt lat="45.00892" lon="1.10099">
        <ele>103</ele>
        <time>2017-10-01T07:16:31.000Z</time>
      </trkpt>
      <trkpt lat="45.00892" lon="1.10099">
        <ele>103</ele>
        <time>2017-10-01T07:16:31.000Z</time>
      </trkpt>
      <trkpt lat="45.00892" lon="1.10099">
        <ele>103</ele>
        <time>2017-10-01T07:16:31.000Z</time>
      </trkpt>
      <trkpt lat="45.00892" lon="1.10099">
        <ele>103</ele>
        <time>2017-10-01T07:16:31.000Z</time>
      </trkpt>
      <trkpt lat="45.00892" lon="1.10099">
        <ele>103</ele>
        <time>2017-10-01T07:16:31.000Z</time>
      </trkpt>
      <trkpt lat="45.00892" lon="1.10099">
        <ele>103</ele>
        <time>2017-10-01T07:16:31.000Z</time>
      </trkpt>
      <trkpt lat="45.00892" lon="1.10099">
        <ele>103</ele>
        <time>2017-10-01T07:16:31.000Z</time>
      </trkpt>
      <trkpt lat="45.00892" lon="1.10099">
        <ele>103</ele>
        <time>2017-10-01T07:16:31.000Z</time>
      </trkpt>
      <trkpt lat="45.00892" lon="1.10099">
        <ele>103</ele>
        <time>2017-10-01T07:16:31.000Z</time>
      </trkpt>
      <trkpt lat="45.00892" lon="1.10099">
        <ele>103</ele>
        <time>2017-10-01T07:16:31.000Z</time>
      </trkpt>
      <trkpt lat="45.00892" lon="1.10099">
        <ele>103</ele>
        <time>2017-10-01T07:16:31.000Z</time>
      </trkpt>
      <trkpt lat="45.00892" lon="1.101">
        <ele>103</ele>
        <time>2017-10-01T07:16:33.000Z</time>
      </trkpt>
      <trkpt lat="45.00892" lon="1.10101">
        <ele>103</ele>
        <time>2017-10-01T07:16:33.000Z</time>
      </trkpt>
      <trkpt lat="45.00892" lon="1.10102">
        <ele>103</ele>
        <time>2017-10-01T07:16:34.000Z</time>
      </trkpt>
      <trkpt lat="45.00892" lon="1.10102">
        <ele>103</ele>
        <time>2017-10-01T07:16:35.000Z</time>
      </trkpt>
      <trkpt lat="45.00892" lon="1.10103">
        <ele>103</ele>
        <time>2017-10-01T07:16:37.000Z</time>
      </trkpt>
      <trkpt lat="45.00892" lon="1.10103">
        <ele>103</ele>
        <time>2017-10-01T07:16:37.000Z</time>
      </trkpt>
      <trkpt lat="45.00892" lon="1.10104">
        <ele>103</ele>
        <time>2017-10-01T07:16:41.000Z</time>
      </trkpt>
      <trkpt lat="45.00892" lon="1.10104">
        <ele>103</ele>
        <time>2017-10-01T07:16:41.000Z</time>
      </trkpt>
      <trkpt lat="45.00892" lon="1.10104">
        <ele>103</ele>
        <time>2017-10-01T07:16:41.000Z</time>
      </trkpt>
      <trkpt lat="45.00892" lon="1.10105">
        <ele>103</ele>
        <time>2017-10-01T07:16:41.000Z</time>
      </trkpt>
      <trkpt lat="45.00892" lon="1.10105">
        <ele>103</ele>
        <time>2017-10-01T07:17:25.000Z</time>
      </trkpt>
      <trkpt lat="45.00892" lon="1.10105">
        <ele>103</ele>
        <time>2017-10-01T07:17:25.000Z</time>
      </trkpt>
      <trkpt lat="45.00892" lon="1.10105">
        <ele>103</ele>
        <time>2017-10-01T07:17:25.000Z</time>
      </trkpt>
      <trkpt lat="45.00892" lon="1.10105">
        <ele>103</ele>
        <time>2017-10-01T07:17:25.000Z</time>
      </trkpt>
      <trkpt lat="45.00892" lon="1.10105">
        <ele>103</ele>
        <time>2017-10-01T07:17:25.000Z</time>
      </trkpt>
      <trkpt lat="45.00892" lon="1.10105">
        <ele>103</ele>
        <time>2017-10-01T07:17:25.000Z</time>
      </trkpt>
      <trkpt lat="45.00892" lon="1.10105">
        <ele>103</ele>
        <time>2017-10-01T07:17:25.000Z</time>
      </trkpt>
      <trkpt lat="45.00892" lon="1.10105">
        <ele>103</ele>
        <time>2017-10-01T07:17:25.000Z</time>
      </trkpt>
      <trkpt lat="45.00892" lon="1.10105">
        <ele>103</ele>
        <time>2017-10-01T07:17:25.000Z</time>
      </trkpt>
      <trkpt lat="45.00892" lon="1.10105">
        <ele>103</ele>
        <time>2017-10-01T07:17:25.000Z</time>
      </trkpt>
      <trkpt lat="45.00892" lon="1.10105">
        <ele>103</ele>
        <time>2017-10-01T07:17:25.000Z</time>
      </trkpt>
      <trkpt lat="45.00892" lon="1.10105">
        <ele>103</ele>
        <time>2017-10-01T07:17:25.000Z</time>
      </trkpt>
      <trkpt lat="45.00892" lon="1.10105">
        <ele>103</ele>
        <time>2017-10-01T07:17:25.000Z</time>
      </trkpt>
      <trkpt lat="45.00892" lon="1.10105">
        <ele>103</ele>
        <time>2017-10-01T07:17:25.000Z</time>
      </trkpt>
      <trkpt lat="45.00892" lon="1.10105">
        <ele>103</ele>
        <time>2017-10-01T07:17:25.000Z</time>
      </trkpt>
      <trkpt lat="45.00892" lon="1.10105">
        <ele>103</ele>
        <time>2017-10-01T07:17:25.000Z</time>
      </trkpt>
      <trkpt lat="45.00892" lon="1.10105">
        <ele>103</ele>
        <time>2017-10-01T07:17:25.000Z</time>
      </trkpt>
      <trkpt lat="45.00892" lon="1.10105">
        <ele>103</ele>
        <time>2017-10-01T07:17:25.000Z</time>
      </trkpt>
      <trkpt lat="45.00892" lon="1.10105">
        <ele>103</ele>
        <time>2017-10-01T07:17:25.000Z</time>
      </trkpt>
      <trkpt lat="45.00892" lon="1.10105">
        <ele>103</ele>
        <time>2017-10-01T07:17:25.000Z</time>
      </trkpt>
      <trkpt lat="45.00892" lon="1.10105">
        <ele>103</ele>
        <time>2017-10-01T07:17:25.000Z</time>
      </trkpt>
      <trkpt lat="45.00892" lon="1.10105">
        <ele>103</ele>
        <time>2017-10-01T07:17:25.000Z</time>
      </trkpt>
      <trkpt lat="45.00892" lon="1.10105">
        <ele>103</ele>
        <time>2017-10-01T07:17:25.000Z</time>
      </trkpt>
      <trkpt lat="45.00892" lon="1.10105">
        <ele>103</ele>
        <time>2017-10-01T07:17:25.000Z</time>
      </trkpt>
      <trkpt lat="45.00892" lon="1.10105">
        <ele>103</ele>
        <time>2017-10-01T07:17:25.000Z</time>
      </trkpt>
      <trkpt lat="45.00892" lon="1.10105">
        <ele>103</ele>
        <time>2017-10-01T07:17:25.000Z</time>
      </trkpt>
      <trkpt lat="45.00892" lon="1.10105">
        <ele>103</ele>
        <time>2017-10-01T07:17:25.000Z</time>
      </trkpt>
      <trkpt lat="45.00892" lon="1.10105">
        <ele>103</ele>
        <time>2017-10-01T07:17:25.000Z</time>
      </trkpt>
      <trkpt lat="45.00892" lon="1.10105">
        <ele>103</ele>
        <time>2017-10-01T07:17:25.000Z</time>
      </trkpt>
      <trkpt lat="45.00892" lon="1.10105">
        <ele>103</ele>
        <time>2017-10-01T07:17:25.000Z</time>
      </trkpt>
      <trkpt lat="45.00892" lon="1.10105">
        <ele>103</ele>
        <time>2017-10-01T07:17:25.000Z</time>
      </trkpt>
      <trkpt lat="45.00892" lon="1.10105">
        <ele>103</ele>
        <time>2017-10-01T07:17:25.000Z</time>
      </trkpt>
      <trkpt lat="45.00892" lon="1.10105">
        <ele>103</ele>
        <time>2017-10-01T07:17:25.000Z</time>
      </trkpt>
      <trkpt lat="45.00892" lon="1.10105">
        <ele>103</ele>
        <time>2017-10-01T07:17:25.000Z</time>
      </trkpt>
      <trkpt lat="45.00892" lon="1.10105">
        <ele>103</ele>
        <time>2017-10-01T07:17:25.000Z</time>
      </trkpt>
      <trkpt lat="45.00892" lon="1.10105">
        <ele>103</ele>
        <time>2017-10-01T07:17:25.000Z</time>
      </trkpt>
      <trkpt lat="45.00892" lon="1.10105">
        <ele>103</ele>
        <time>2017-10-01T07:17:25.000Z</time>
      </trkpt>
      <trkpt lat="45.00892" lon="1.10105">
        <ele>103</ele>
        <time>2017-10-01T07:17:25.000Z</time>
      </trkpt>
      <trkpt lat="45.00892" lon="1.10105">
        <ele>103</ele>
        <time>2017-10-01T07:17:25.000Z</time>
      </trkpt>
      <trkpt lat="45.00892" lon="1.10105">
        <ele>103</ele>
        <time>2017-10-01T07:17:25.000Z</time>
      </trkpt>
      <trkpt lat="45.00892" lon="1.10105">
        <ele>103</ele>
        <time>2017-10-01T07:17:25.000Z</time>
      </trkpt>
      <trkpt lat="45.00892" lon="1.10105">
        <ele>103</ele>
        <time>2017-10-01T07:17:25.000Z</time>
      </trkpt>
      <trkpt lat="45.00892" lon="1.10105">
        <ele>103</ele>
        <time>2017-10-01T07:17:25.000Z</time>
      </trkpt>
      <trkpt lat="45.00892" lon="1.10106">
        <ele>103</ele>
        <time>2017-10-01T07:17:25.000Z</time>
      </trkpt>
      <trkpt lat="45.00892" lon="1.10106">
        <ele>103</ele>
        <time>2017-10-01T07:17:26.000Z</time>
      </trkpt>
      <trkpt lat="45.00893" lon="1.10106">
        <ele>103</ele>
        <time>2017-10-01T07:17:28.000Z</time>
      </trkpt>
      <trkpt lat="45.00893" lon="1.10106">
        <ele>103</ele>
        <time>2017-10-01T07:17:28.000Z</time>
      </trkpt>
      <trkpt lat="45.00893" lon="1.10107">
        <ele>103</ele>
        <time>2017-10-01T07:17:29.000Z</time>
      </trkpt>
      <trkpt lat="45.00893" lon="1.10108">
        <ele>103</ele>
        <time>2017-10-01T07:17:31.000Z</time>
      </trkpt>
      <trkpt lat="45.00893" lon="1.10108">
        <ele>103</ele>
        <time>2017-10-01T07:17:31.000Z</time>
      </trkpt>
      <trkpt lat="45.00893" lon="1.10109">
        <ele>103</ele>
        <time>2017-10-01T07:17:32.000Z</time>
      </trkpt>
      <trkpt lat="45.00893" lon="1.1011">
        <ele>103</ele>
        <time>2017-10-01T07:17:33.000Z</time>
      </trkpt>
      <trkpt lat="45.00893" lon="1.10111">
        <ele>103</ele>
        <time>2017-10-01T07:17:35.000Z</time>
      </trkpt>
      <trkpt lat="45.00893" lon="1.10111">
        <ele>103</ele>
        <time>2017-10-01T07:17:35.000Z</time>
      </trkpt>
      <trkpt lat="45.00894" lon="1.10112">
        <ele>103</ele>
        <time>2017-10-01T07:17:36.000Z</time>
      </trkpt>
      <trkpt lat="45.00894" lon="1.10113">
        <ele>103</ele>
        <time>2017-10-01T07:17:38.000Z</time>
      </trkpt>
      <trkpt lat="45.00894" lon="1.10114">
        <ele>103</ele>
        <time>2017-10-01T07:17:38.000Z</time>
      </trkpt>
      <trkpt lat="45.00894" lon="1.10115">
        <ele>103</ele>
        <time>2017-10-01T07:17:39.000Z</time>
      </trkpt>
      <trkpt lat="45.00895" lon="1.10115">
        <ele>103</ele>
        <time>2017-10-01T07:17:40.000Z</time>
      </trkpt>
      <trkpt lat="45.00895" lon="1.10116">
        <ele>103</ele>
        <time>2017-10-01T07:17:41.000Z</time>
      </trkpt>
      <trkpt lat="45.00895" lon="1.10117">
        <ele>103</ele>
        <time>2017-10-01T07:17:43.000Z</time>
      </trkpt>
      <trkpt lat="45.00895" lon="1.10117">
        <ele>103</ele>
        <time>2017-10-01T07:17:43.000Z</time>
      </trkpt>
      <trkpt lat="45.00895" lon="1.10118">
        <ele>103</ele>
        <time>2017-10-01T07:19:50.000Z</time>
      </trkpt>
      <trkpt lat="45.00895" lon="1.10118">
        <ele>103</ele>
        <time>2017-10-01T07:19:50.000Z</time>
      </trkpt>
      <trkpt lat="45.00895" lon="1.10118">
        <ele>103</ele>
        <time>2017-10-01T07:19:50.000Z</time>
      </trkpt>
      <trkpt lat="45.00895" lon="1.10118">
        <ele>103</ele>
        <time>2017-10-01T07:19:50.000Z</time>
      </trkpt>
      <trkpt lat="45.00895" lon="1.10118">
        <ele>103</ele>
        <time>2017-10-01T07:19:50.000Z</time>
      </trkpt>
      <trkpt lat="45.00895" lon="1.10119">
        <ele>103</ele>
        <time>2017-10-01T07:19:50.000Z</time>
      </trkpt>
      <trkpt lat="45.00895" lon="1.10119">
        <ele>103</ele>
        <time>2017-10-01T07:19:50.000Z</time>
      </trkpt>
      <trkpt lat="45.00895" lon="1.10119">
        <ele>103</ele>
        <time>2017-10-01T07:19:50.000Z</time>
      </trkpt>
      <trkpt lat="45.00895" lon="1.10118">
        <ele>103</ele>
        <time>2017-10-01T07:19:50.000Z</time>
      </trkpt>
      <trkpt lat="45.00895" lon="1.10118">
        <ele>103</ele>
        <time>2017-10-01T07:19:50.000Z</time>
      </trkpt>
      <trkpt lat="45.00895" lon="1.10118">
        <ele>103</ele>
        <time>2017-10-01T07:19:50.000Z</time>
      </trkpt>
      <trkpt lat="45.00895" lon="1.10118">
        <ele>103</ele>
        <time>2017-10-01T07:19:50.000Z</time>
      </trkpt>
      <trkpt lat="45.00895" lon="1.10118">
        <ele>103</ele>
        <time>2017-10-01T07:19:50.000Z</time>
      </trkpt>
      <trkpt lat="45.00895" lon="1.10118">
        <ele>103</ele>
        <time>2017-10-01T07:19:50.000Z</time>
      </trkpt>
      <trkpt lat="45.00895" lon="1.10118">
        <ele>103</ele>
        <time>2017-10-01T07:19:50.000Z</time>
      </trkpt>
      <trkpt lat="45.00895" lon="1.10118">
        <ele>103</ele>
        <time>2017-10-01T07:19:50.000Z</time>
      </trkpt>
      <trkpt lat="45.00895" lon="1.10118">
        <ele>103</ele>
        <time>2017-10-01T07:19:50.000Z</time>
      </trkpt>
      <trkpt lat="45.00895" lon="1.10118">
        <ele>103</ele>
        <time>2017-10-01T07:19:50.000Z</time>
      </trkpt>
      <trkpt lat="45.00895" lon="1.10118">
        <ele>103</ele>
        <time>2017-10-01T07:19:50.000Z</time>
      </trkpt>
      <trkpt lat="45.00895" lon="1.10118">
        <ele>103</ele>
        <time>2017-10-01T07:19:50.000Z</time>
      </trkpt>
      <trkpt lat="45.00895" lon="1.10118">
        <ele>103</ele>
        <time>2017-10-01T07:19:50.000Z</time>
      </trkpt>
      <trkpt lat="45.00895" lon="1.10118">
        <ele>103</ele>
        <time>2017-10-01T07:19:50.000Z</time>
      </trkpt>
      <trkpt lat="45.00895" lon="1.10118">
        <ele>103</ele>
        <time>2017-10-01T07:19:50.000Z</time>
      </trkpt>
      <trkpt lat="45.00895" lon="1.10118">
        <ele>103</ele>
        <time>2017-10-01T07:19:50.000Z</time>
      </trkpt>
      <trkpt lat="45.00895" lon="1.10118">
        <ele>103</ele>
        <time>2017-10-01T07:19:50.000Z</time>
      </trkpt>
      <trkpt lat="45.00895" lon="1.10118">
        <ele>103</ele>
        <time>2017-10-01T07:19:50.000Z</time>
      </trkpt>
      <trkpt lat="45.00895" lon="1.10118">
        <ele>103</ele>
        <time>2017-10-01T07:19:50.000Z</time>
      </trkpt>
      <trkpt lat="45.00895" lon="1.10118">
        <ele>103</ele>
        <time>2017-10-01T07:19:50.000Z</time>
      </trkpt>
      <trkpt lat="45.00895" lon="1.10118">
        <ele>103</ele>
        <time>2017-10-01T07:19:50.000Z</time>
      </trkpt>
      <trkpt lat="45.00895" lon="1.10118">
        <ele>103</ele>
        <time>2017-10-01T07:19:50.000Z</time>
      </trkpt>
      <trkpt lat="45.00895" lon="1.10118">
        <ele>103</ele>
        <time>2017-10-01T07:19:50.000Z</time>
      </trkpt>
      <trkpt lat="45.00895" lon="1.10118">
        <ele>103</ele>
        <time>2017-10-01T07:19:50.000Z</time>
      </trkpt>
      <trkpt lat="45.00895" lon="1.10118">
        <ele>103</ele>
        <time>2017-10-01T07:19:50.000Z</time>
      </trkpt>
      <trkpt lat="45.00895" lon="1.10118">
        <ele>103</ele>
        <time>2017-10-01T07:19:50.000Z</time>
      </trkpt>
      <trkpt lat="45.00895" lon="1.10118">
        <ele>103</ele>
        <time>2017-10-01T07:19:50.000Z</time>
      </trkpt>
      <trkpt lat="45.00895" lon="1.10118">
        <ele>103</ele>
        <time>2017-10-01T07:19:50.000Z</time>
      </trkpt>
      <trkpt lat="45.00895" lon="1.10118">
        <ele>103</ele>
        <time>2017-10-01T07:19:50.000Z</time>
      </trkpt>
      <trkpt lat="45.00895" lon="1.10118">
        <ele>103</ele>
        <time>2017-10-01T07:19:50.000Z</time>
      </trkpt>
      <trkpt lat="45.00895" lon="1.10118">
        <ele>103</ele>
        <time>2017-10-01T07:19:50.000Z</time>
      </trkpt>
      <trkpt lat="45.00895" lon="1.10118">
        <ele>103</ele>
        <time>2017-10-01T07:19:50.000Z</time>
      </trkpt>
      <trkpt lat="45.00895" lon="1.10118">
        <ele>103</ele>
        <time>2017-10-01T07:19:50.000Z</time>
      </trkpt>
      <trkpt lat="45.00895" lon="1.10118">
        <ele>103</ele>
        <time>2017-10-01T07:19:50.000Z</time>
      </trkpt>
      <trkpt lat="45.00895" lon="1.10118">
        <ele>103</ele>
        <time>2017-10-01T07:19:50.000Z</time>
      </trkpt>
      <trkpt lat="45.00895" lon="1.10118">
        <ele>103</ele>
        <time>2017-10-01T07:19:50.000Z</time>
      </trkpt>
      <trkpt lat="45.00895" lon="1.10118">
        <ele>103</ele>
        <time>2017-10-01T07:19:50.000Z</time>
      </trkpt>
      <trkpt lat="45.00895" lon="1.10118">
        <ele>103</ele>
        <time>2017-10-01T07:19:50.000Z</time>
      </trkpt>
      <trkpt lat="45.00895" lon="1.10118">
        <ele>103</ele>
        <time>2017-10-01T07:19:50.000Z</time>
      </trkpt>
      <trkpt lat="45.00895" lon="1.10118">
        <ele>103</ele>
        <time>2017-10-01T07:19:50.000Z</time>
      </trkpt>
      <trkpt lat="45.00895" lon="1.10118">
        <ele>103</ele>
        <time>2017-10-01T07:19:50.000Z</time>
      </trkpt>
      <trkpt lat="45.00895" lon="1.10118">
        <ele>103</ele>
        <time>2017-10-01T07:19:50.000Z</time>
      </trkpt>
      <trkpt lat="45.00895" lon="1.10118">
        <ele>103</ele>
        <time>2017-10-01T07:19:50.000Z</time>
      </trkpt>
      <trkpt lat="45.00895" lon="1.10118">
        <ele>103</ele>
        <time>2017-10-01T07:19:50.000Z</time>
      </trkpt>
      <trkpt lat="45.00895" lon="1.10118">
        <ele>103</ele>
        <time>2017-10-01T07:19:50.000Z</time>
      </trkpt>
      <trkpt lat="45.00895" lon="1.10118">
        <ele>103</ele>
        <time>2017-10-01T07:19:50.000Z</time>
      </trkpt>
      <trkpt lat="45.00895" lon="1.10118">
        <ele>103</ele>
        <time>2017-10-01T07:19:50.000Z</time>
      </trkpt>
      <trkpt lat="45.00895" lon="1.10118">
        <ele>103</ele>
        <time>2017-10-01T07:19:50.000Z</time>
      </trkpt>
      <trkpt lat="45.00895" lon="1.10118">
        <ele>103</ele>
        <time>2017-10-01T07:19:50.000Z</time>
      </trkpt>
      <trkpt lat="45.00895" lon="1.10118">
        <ele>103</ele>
        <time>2017-10-01T07:19:50.000Z</time>
      </trkpt>
      <trkpt lat="45.00895" lon="1.10118">
        <ele>103</ele>
        <time>2017-10-01T07:19:50.000Z</time>
      </trkpt>
      <trkpt lat="45.00895" lon="1.10118">
        <ele>103</ele>
        <time>2017-10-01T07:19:50.000Z</time>
      </trkpt>
      <trkpt lat="45.00895" lon="1.10118">
        <ele>103</ele>
        <time>2017-10-01T07:19:50.000Z</time>
      </trkpt>
      <trkpt lat="45.00895" lon="1.10118">
        <ele>103</ele>
        <time>2017-10-01T07:19:50.000Z</time>
      </trkpt>
      <trkpt lat="45.00895" lon="1.10118">
        <ele>103</ele>
        <time>2017-10-01T07:19:50.000Z</time>
      </trkpt>
      <trkpt lat="45.00895" lon="1.10118">
        <ele>103</ele>
        <time>2017-10-01T07:19:50.000Z</time>
      </trkpt>
      <trkpt lat="45.00895" lon="1.10118">
        <ele>103</ele>
        <time>2017-10-01T07:19:50.000Z</time>
      </trkpt>
      <trkpt lat="45.00895" lon="1.10118">
        <ele>103</ele>
        <time>2017-10-01T07:19:50.000Z</time>
      </trkpt>
      <trkpt lat="45.00895" lon="1.10118">
        <ele>103</ele>
        <time>2017-10-01T07:19:50.000Z</time>
      </trkpt>
      <trkpt lat="45.00895" lon="1.10118">
        <ele>103</ele>
        <time>2017-10-01T07:19:50.000Z</time>
      </trkpt>
      <trkpt lat="45.00895" lon="1.10118">
        <ele>103</ele>
        <time>2017-10-01T07:19:50.000Z</time>
      </trkpt>
      <trkpt lat="45.00895" lon="1.10118">
        <ele>103</ele>
        <time>2017-10-01T07:19:50.000Z</time>
      </trkpt>
      <trkpt lat="45.00895" lon="1.10118">
        <ele>103</ele>
        <time>2017-10-01T07:19:50.000Z</time>
      </trkpt>
      <trkpt lat="45.00895" lon="1.10118">
        <ele>103</ele>
        <time>2017-10-01T07:19:50.000Z</time>
      </trkpt>
      <trkpt lat="45.00895" lon="1.10118">
        <ele>103</ele>
        <time>2017-10-01T07:19:50.000Z</time>
      </trkpt>
      <trkpt lat="45.00895" lon="1.10118">
        <ele>103</ele>
        <time>2017-10-01T07:19:50.000Z</time>
      </trkpt>
      <trkpt lat="45.00895" lon="1.10118">
        <ele>103</ele>
        <time>2017-10-01T07:19:50.000Z</time>
      </trkpt>
      <trkpt lat="45.00895" lon="1.10118">
        <ele>103</ele>
        <time>2017-10-01T07:19:50.000Z</time>
      </trkpt>
      <trkpt lat="45.00895" lon="1.10118">
        <ele>103</ele>
        <time>2017-10-01T07:19:50.000Z</time>
      </trkpt>
      <trkpt lat="45.00895" lon="1.10118">
        <ele>103</ele>
        <time>2017-10-01T07:19:50.000Z</time>
      </trkpt>
      <trkpt lat="45.00895" lon="1.10118">
        <ele>103</ele>
        <time>2017-10-01T07:19:50.000Z</time>
      </trkpt>
      <trkpt lat="45.00895" lon="1.10118">
        <ele>103</ele>
        <time>2017-10-01T07:19:50.000Z</time>
      </trkpt>
      <trkpt lat="45.00895" lon="1.10118">
        <ele>103</ele>
        <time>2017-10-01T07:19:50.000Z</time>
      </trkpt>
      <trkpt lat="45.00895" lon="1.10118">
        <ele>103</ele>
        <time>2017-10-01T07:19:50.000Z</time>
      </trkpt>
      <trkpt lat="45.00895" lon="1.10118">
        <ele>103</ele>
        <time>2017-10-01T07:19:50.000Z</time>
      </trkpt>
      <trkpt lat="45.00895" lon="1.10118">
        <ele>103</ele>
        <time>2017-10-01T07:19:50.000Z</time>
      </trkpt>
      <trkpt lat="45.00895" lon="1.10118">
        <ele>103</ele>
        <time>2017-10-01T07:19:50.000Z</time>
      </trkpt>
      <trkpt lat="45.00895" lon="1.10118">
        <ele>103</ele>
        <time>2017-10-01T07:19:50.000Z</time>
      </trkpt>
      <trkpt lat="45.00895" lon="1.10118">
        <ele>103</ele>
        <time>2017-10-01T07:19:50.000Z</time>
      </trkpt>
      <trkpt lat="45.00895" lon="1.10118">
        <ele>103</ele>
        <time>2017-10-01T07:19:50.000Z</time>
      </trkpt>
      <trkpt lat="45.00895" lon="1.10118">
        <ele>103</ele>
        <time>2017-10-01T07:19:50.000Z</time>
      </trkpt>
      <trkpt lat="45.00895" lon="1.10118">
        <ele>103</ele>
        <time>2017-10-01T07:19:50.000Z</time>
      </trkpt>
      <trkpt lat="45.00895" lon="1.10118">
        <ele>103</ele>
        <time>2017-10-01T07:19:50.000Z</time>
      </trkpt>
      <trkpt lat="45.00895" lon="1.10118">
        <ele>103</ele>
        <time>2017-10-01T07:19:50.000Z</time>
      </trkpt>
      <trkpt lat="45.00895" lon="1.10118">
        <ele>103</ele>
        <time>2017-10-01T07:19:50.000Z</time>
      </trkpt>
      <trkpt lat="45.00895" lon="1.10118">
        <ele>103</ele>
        <time>2017-10-01T07:19:50.000Z</time>
      </trkpt>
      <trkpt lat="45.00895" lon="1.10118">
        <ele>103</ele>
        <time>2017-10-01T07:19:50.000Z</time>
      </trkpt>
      <trkpt lat="45.00895" lon="1.10118">
        <ele>103</ele>
        <time>2017-10-01T07:19:50.000Z</time>
      </trkpt>
      <trkpt lat="45.00895" lon="1.10118">
        <ele>103</ele>
        <time>2017-10-01T07:19:50.000Z</time>
      </trkpt>
      <trkpt lat="45.00895" lon="1.10118">
        <ele>103</ele>
        <time>2017-10-01T07:19:50.000Z</time>
      </trkpt>
      <trkpt lat="45.00895" lon="1.10118">
        <ele>103</ele>
        <time>2017-10-01T07:19:50.000Z</time>
      </trkpt>
      <trkpt lat="45.00895" lon="1.10118">
        <ele>103</ele>
        <time>2017-10-01T07:19:50.000Z</time>
      </trkpt>
      <trkpt lat="45.00895" lon="1.10118">
        <ele>103</ele>
        <time>2017-10-01T07:19:50.000Z</time>
      </trkpt>
      <trkpt lat="45.00895" lon="1.10118">
        <ele>103</ele>
        <time>2017-10-01T07:19:50.000Z</time>
      </trkpt>
      <trkpt lat="45.00895" lon="1.10118">
        <ele>103</ele>
        <time>2017-10-01T07:19:50.000Z</time>
      </trkpt>
      <trkpt lat="45.00895" lon="1.10118">
        <ele>103</ele>
        <time>2017-10-01T07:19:50.000Z</time>
      </trkpt>
      <trkpt lat="45.00895" lon="1.10118">
        <ele>103</ele>
        <time>2017-10-01T07:19:50.000Z</time>
      </trkpt>
      <trkpt lat="45.00895" lon="1.10118">
        <ele>103</ele>
        <time>2017-10-01T07:19:50.000Z</time>
      </trkpt>
      <trkpt lat="45.00895" lon="1.10118">
        <ele>103</ele>
        <time>2017-10-01T07:19:50.000Z</time>
      </trkpt>
      <trkpt lat="45.00895" lon="1.10118">
        <ele>103</ele>
        <time>2017-10-01T07:19:50.000Z</time>
      </trkpt>
      <trkpt lat="45.00895" lon="1.10118">
        <ele>103</ele>
        <time>2017-10-01T07:19:50.000Z</time>
      </trkpt>
      <trkpt lat="45.00895" lon="1.10118">
        <ele>103</ele>
        <time>2017-10-01T07:19:50.000Z</time>
      </trkpt>
      <trkpt lat="45.00895" lon="1.10118">
        <ele>103</ele>
        <time>2017-10-01T07:19:50.000Z</time>
      </trkpt>
      <trkpt lat="45.00895" lon="1.10118">
        <ele>103</ele>
        <time>2017-10-01T07:19:50.000Z</time>
      </trkpt>
      <trkpt lat="45.00895" lon="1.10118">
        <ele>103</ele>
        <time>2017-10-01T07:19:50.000Z</time>
      </trkpt>
      <trkpt lat="45.00895" lon="1.10118">
        <ele>103</ele>
        <time>2017-10-01T07:19:50.000Z</time>
      </trkpt>
      <trkpt lat="45.00895" lon="1.10118">
        <ele>103</ele>
        <time>2017-10-01T07:19:50.000Z</time>
      </trkpt>
      <trkpt lat="45.00895" lon="1.10118">
        <ele>103</ele>
        <time>2017-10-01T07:19:50.000Z</time>
      </trkpt>
      <trkpt lat="45.00895" lon="1.10118">
        <ele>103</ele>
        <time>2017-10-01T07:19:50.000Z</time>
      </trkpt>
      <trkpt lat="45.00895" lon="1.10118">
        <ele>103</ele>
        <time>2017-10-01T07:19:50.000Z</time>
      </trkpt>
      <trkpt lat="45.00895" lon="1.10118">
        <ele>103</ele>
        <time>2017-10-01T07:19:50.000Z</time>
      </trkpt>
      <trkpt lat="45.00895" lon="1.10118">
        <ele>103</ele>
        <time>2017-10-01T07:19:50.000Z</time>
      </trkpt>
      <trkpt lat="45.00895" lon="1.10118">
        <ele>103</ele>
        <time>2017-10-01T07:19:50.000Z</time>
      </trkpt>
      <trkpt lat="45.00895" lon="1.10118">
        <ele>103</ele>
        <time>2017-10-01T07:19:50.000Z</time>
      </trkpt>
      <trkpt lat="45.00895" lon="1.10118">
        <ele>103</ele>
        <time>2017-10-01T07:19:50.000Z</time>
      </trkpt>
      <trkpt lat="45.00895" lon="1.10118">
        <ele>103</ele>
        <time>2017-10-01T07:19:50.000Z</time>
      </trkpt>
      <trkpt lat="45.00895" lon="1.10118">
        <ele>103</ele>
        <time>2017-10-01T07:19:50.000Z</time>
      </trkpt>
      <trkpt lat="45.00895" lon="1.10118">
        <ele>103</ele>
        <time>2017-10-01T07:19:50.000Z</time>
      </trkpt>
      <trkpt lat="45.00895" lon="1.10119">
        <ele>103</ele>
        <time>2017-10-01T07:19:50.000Z</time>
      </trkpt>
      <trkpt lat="45.00895" lon="1.10119">
        <ele>103</ele>
        <time>2017-10-01T07:19:53.000Z</time>
      </trkpt>
      <trkpt lat="45.00895" lon="1.10119">
        <ele>103</ele>
        <time>2017-10-01T07:19:53.000Z</time>
      </trkpt>
      <trkpt lat="45.00895" lon="1.10119">
        <ele>103</ele>
        <time>2017-10-01T07:19:53.000Z</time>
      </trkpt>
      <trkpt lat="45.00895" lon="1.1012">
        <ele>103</ele>
        <time>2017-10-01T07:19:54.000Z</time>
      </trkpt>
      <trkpt lat="45.00895" lon="1.10122">
        <ele>103</ele>
        <time>2017-10-01T07:19:55.000Z</time>
      </trkpt>
      <trkpt lat="45.00895" lon="1.10123">
        <ele>103</ele>
        <time>2017-10-01T07:19:56.000Z</time>
      </trkpt>
      <trkpt lat="45.00895" lon="1.10124">
        <ele>103</ele>
        <time>2017-10-01T07:19:57.000Z</time>
      </trkpt>
      <trkpt lat="45.00895" lon="1.10125">
        <ele>103</ele>
        <time>2017-10-01T07:19:59.000Z</time>
      </trkpt>
      <trkpt lat="45.00895" lon="1.10125">
        <ele>103</ele>
        <time>2017-10-01T07:19:59.000Z</time>
      </trkpt>
      <trkpt lat="45.00895" lon="1.10126">
        <ele>103</ele>
        <time>2017-10-01T07:20:00.000Z</time>
      </trkpt>
      <trkpt lat="45.00895" lon="1.10127">
        <ele>104</ele>
        <time>2017-10-01T07:20:02.000Z</time>
      </trkpt>
      <trkpt lat="45.00895" lon="1.10127">
        <ele>104</ele>
        <time>2017-10-01T07:20:02.000Z</time>
      </trkpt>
      <trkpt lat="45.00895" lon="1.10128">
        <ele>104</ele>
        <time>2017-10-01T07:20:04.000Z</time>
      </trkpt>
      <trkpt lat="45.00895" lon="1.10129">
        <ele>104</ele>
        <time>2017-10-01T07:20:04.000Z</time>
      </trkpt>
      <trkpt lat="45.00895" lon="1.10129">
        <ele>104</ele>
        <time>2017-10-01T07:20:06.000Z</time>
      </trkpt>
      <trkpt lat="45.00895" lon="1.10129">
        <ele>104</ele>
        <time>2017-10-01T07:20:06.000Z</time>
      </trkpt>
      <trkpt lat="45.00895" lon="1.1013">
        <ele>104</ele>
        <time>2017-10-01T07:20:09.000Z</time>
      </trkpt>
      <trkpt lat="45.00895" lon="1.1013">
        <ele>104</ele>
        <time>2017-10-01T07:20:09.000Z</time>
      </trkpt>
      <trkpt lat="45.00895" lon="1.1013">
        <ele>104</ele>
        <time>2017-10-01T07:20:09.000Z</time>
      </trkpt>
      <trkpt lat="45.00895" lon="1.10131">
        <ele>104</ele>
        <time>2017-10-01T07:20:11.000Z</time>
      </trkpt>
      <trkpt lat="45.00895" lon="1.10131">
        <ele>104</ele>
        <time>2017-10-01T07:20:11.000Z</time>
      </trkpt>
      <trkpt lat="45.00896" lon="1.10132">
        <ele>104</ele>
        <time>2017-10-01T07:20:12.000Z</time>
      </trkpt>
      <trkpt lat="45.00896" lon="1.10133">
        <ele>104</ele>
        <time>2017-10-01T07:20:13.000Z</time>
      </trkpt>
      <trkpt lat="45.00896" lon="1.10134">
        <ele>104</ele>
        <time>2017-10-01T07:20:14.000Z</time>
      </trkpt>
      <trkpt lat="45.00896" lon="1.10136">
        <ele>104</ele>
        <time>2017-10-01T07:20:15.000Z</time>
      </trkpt>
      <trkpt lat="45.00897" lon="1.10137">
        <ele>104</ele>
        <time>2017-10-01T07:20:16.000Z</time>
      </trkpt>
      <trkpt lat="45.00898" lon="1.10139">
        <ele>104</ele>
        <time>2017-10-01T07:20:17.000Z</time>
      </trkpt>
      <trkpt lat="45.00899" lon="1.1014">
        <ele>104</ele>
        <time>2017-10-01T07:20:18.000Z</time>
      </trkpt>
      <trkpt lat="45.00901" lon="1.10141">
        <ele>104</ele>
        <time>2017-10-01T07:20:19.000Z</time>
      </trkpt>
      <trkpt lat="45.00902" lon="1.10142">
        <ele>104</ele>
        <time>2017-10-01T07:20:20.000Z</time>
      </trkpt>
      <trkpt lat="45.00903" lon="1.10143">
        <ele>105</ele>
        <time>2017-10-01T07:20:21.000Z</time>
      </trkpt>
      <trkpt lat="45.00904" lon="1.10143">
        <ele>105</ele>
        <time>2017-10-01T07:20:22.000Z</time>
      </trkpt>
      <trkpt lat="45.00905" lon="1.10143">
        <ele>105</ele>
        <time>2017-10-01T07:20:23.000Z</time>
      </trkpt>
      <trkpt lat="45.00905" lon="1.10144">
        <ele>105</ele>
        <time>2017-10-01T07:20:24.000Z</time>
      </trkpt>
      <trkpt lat="45.00906" lon="1.10144">
        <ele>105</ele>
        <time>2017-10-01T07:20:36.000Z</time>
      </trkpt>
      <trkpt lat="45.00906" lon="1.10144">
        <ele>105</ele>
        <time>2017-10-01T07:20:36.000Z</time>
      </trkpt>
      <trkpt lat="45.00906" lon="1.10144">
        <ele>105</ele>
        <time>2017-10-01T07:20:36.000Z</time>
      </trkpt>
      <trkpt lat="45.00906" lon="1.10144">
        <ele>105</ele>
        <time>2017-10-01T07:20:36.000Z</time>
      </trkpt>
      <trkpt lat="45.00906" lon="1.10144">
        <ele>105</ele>
        <time>2017-10-01T07:20:36.000Z</time>
      </trkpt>
      <trkpt lat="45.00906" lon="1.10144">
        <ele>105</ele>
        <time>2017-10-01T07:20:36.000Z</time>
      </trkpt>
      <trkpt lat="45.00906" lon="1.10144">
        <ele>105</ele>
        <time>2017-10-01T07:20:36.000Z</time>
      </trkpt>
      <trkpt lat="45.00906" lon="1.10144">
        <ele>105</ele>
        <time>2017-10-01T07:20:36.000Z</time>
      </trkpt>
      <trkpt lat="45.00906" lon="1.10144">
        <ele>105</ele>
        <time>2017-10-01T07:20:36.000Z</time>
      </trkpt>
      <trkpt lat="45.00906" lon="1.10144">
        <ele>105</ele>
        <time>2017-10-01T07:20:36.000Z</time>
      </trkpt>
      <trkpt lat="45.00906" lon="1.10144">
        <ele>105</ele>
        <time>2017-10-01T07:20:36.000Z</time>
      </trkpt>
      <trkpt lat="45.00906" lon="1.10144">
        <ele>105</ele>
        <time>2017-10-01T07:20:36.000Z</time>
      </trkpt>
      <trkpt lat="45.00906" lon="1.10145">
        <ele>105</ele>
        <time>2017-10-01T07:21:24.000Z</time>
      </trkpt>
      <trkpt lat="45.00906" lon="1.10145">
        <ele>105</ele>
        <time>2017-10-01T07:21:24.000Z</time>
      </trkpt>
      <trkpt lat="45.00906" lon="1.10145">
        <ele>105</ele>
        <time>2017-10-01T07:21:24.000Z</time>
      </trkpt>
      <trkpt lat="45.00906" lon="1.10145">
        <ele>105</ele>
        <time>2017-10-01T07:21:24.000Z</time>
      </trkpt>
      <trkpt lat="45.00906" lon="1.10145">
        <ele>105</ele>
        <time>2017-10-01T07:21:24.000Z</time>
      </trkpt>
      <trkpt lat="45.00906" lon="1.10145">
        <ele>105</ele>
        <time>2017-10-01T07:21:24.000Z</time>
      </trkpt>
      <trkpt lat="45.00906" lon="1.10145">
        <ele>105</ele>
        <time>2017-10-01T07:21:24.000Z</time>
      </trkpt>
      <trkpt lat="45.00906" lon="1.10145">
        <ele>105</ele>
        <time>2017-10-01T07:21:24.000Z</time>
      </trkpt>
      <trkpt lat="45.00906" lon="1.10145">
        <ele>105</ele>
        <time>2017-10-01T07:21:24.000Z</time>
      </trkpt>
      <trkpt lat="45.00906" lon="1.10145">
        <ele>105</ele>
        <time>2017-10-01T07:21:24.000Z</time>
      </trkpt>
      <trkpt lat="45.00906" lon="1.10145">
        <ele>105</ele>
        <time>2017-10-01T07:21:24.000Z</time>
      </trkpt>
      <trkpt lat="45.00906" lon="1.10145">
        <ele>105</ele>
        <time>2017-10-01T07:21:24.000Z</time>
      </trkpt>
      <trkpt lat="45.00906" lon="1.10145">
        <ele>105</ele>
        <time>2017-10-01T07:21:24.000Z</time>
      </trkpt>
      <trkpt lat="45.00906" lon="1.10145">
        <ele>105</ele>
        <time>2017-10-01T07:21:24.000Z</time>
      </trkpt>
      <trkpt lat="45.00906" lon="1.10145">
        <ele>105</ele>
        <time>2017-10-01T07:21:24.000Z</time>
      </trkpt>
      <trkpt lat="45.00906" lon="1.10145">
        <ele>105</ele>
        <time>2017-10-01T07:21:24.000Z</time>
      </trkpt>
      <trkpt lat="45.00906" lon="1.10145">
        <ele>105</ele>
        <time>2017-10-01T07:21:24.000Z</time>
      </trkpt>
      <trkpt lat="45.00906" lon="1.10145">
        <ele>105</ele>
        <time>2017-10-01T07:21:24.000Z</time>
      </trkpt>
      <trkpt lat="45.00906" lon="1.10145">
        <ele>105</ele>
        <time>2017-10-01T07:21:24.000Z</time>
      </trkpt>
      <trkpt lat="45.00906" lon="1.10145">
        <ele>105</ele>
        <time>2017-10-01T07:21:24.000Z</time>
      </trkpt>
      <trkpt lat="45.00906" lon="1.10145">
        <ele>105</ele>
        <time>2017-10-01T07:21:24.000Z</time>
      </trkpt>
      <trkpt lat="45.00906" lon="1.10145">
        <ele>105</ele>
        <time>2017-10-01T07:21:24.000Z</time>
      </trkpt>
      <trkpt lat="45.00906" lon="1.10145">
        <ele>105</ele>
        <time>2017-10-01T07:21:24.000Z</time>
      </trkpt>
      <trkpt lat="45.00906" lon="1.10145">
        <ele>105</ele>
        <time>2017-10-01T07:21:24.000Z</time>
      </trkpt>
      <trkpt lat="45.00906" lon="1.10145">
        <ele>105</ele>
        <time>2017-10-01T07:21:24.000Z</time>
      </trkpt>
      <trkpt lat="45.00906" lon="1.10145">
        <ele>105</ele>
        <time>2017-10-01T07:21:24.000Z</time>
      </trkpt>
      <trkpt lat="45.00906" lon="1.10145">
        <ele>105</ele>
        <time>2017-10-01T07:21:24.000Z</time>
      </trkpt>
      <trkpt lat="45.00906" lon="1.10145">
        <ele>105</ele>
        <time>2017-10-01T07:21:24.000Z</time>
      </trkpt>
      <trkpt lat="45.00906" lon="1.10145">
        <ele>105</ele>
        <time>2017-10-01T07:21:24.000Z</time>
      </trkpt>
      <trkpt lat="45.00906" lon="1.10145">
        <ele>105</ele>
        <time>2017-10-01T07:21:24.000Z</time>
      </trkpt>
      <trkpt lat="45.00906" lon="1.10145">
        <ele>105</ele>
        <time>2017-10-01T07:21:24.000Z</time>
      </trkpt>
      <trkpt lat="45.00906" lon="1.10145">
        <ele>105</ele>
        <time>2017-10-01T07:21:24.000Z</time>
      </trkpt>
      <trkpt lat="45.00906" lon="1.10145">
        <ele>105</ele>
        <time>2017-10-01T07:21:24.000Z</time>
      </trkpt>
      <trkpt lat="45.00906" lon="1.10145">
        <ele>105</ele>
        <time>2017-10-01T07:21:24.000Z</time>
      </trkpt>
      <trkpt lat="45.00906" lon="1.10145">
        <ele>105</ele>
        <time>2017-10-01T07:21:24.000Z</time>
      </trkpt>
      <trkpt lat="45.00906" lon="1.10145">
        <ele>105</ele>
        <time>2017-10-01T07:21:24.000Z</time>
      </trkpt>
      <trkpt lat="45.00906" lon="1.10145">
        <ele>105</ele>
        <time>2017-10-01T07:21:24.000Z</time>
      </trkpt>
      <trkpt lat="45.00906" lon="1.10145">
        <ele>105</ele>
        <time>2017-10-01T07:21:24.000Z</time>
      </trkpt>
      <trkpt lat="45.00906" lon="1.10145">
        <ele>105</ele>
        <time>2017-10-01T07:21:24.000Z</time>
      </trkpt>
      <trkpt lat="45.00906" lon="1.10145">
        <ele>105</ele>
        <time>2017-10-01T07:21:24.000Z</time>
      </trkpt>
      <trkpt lat="45.00906" lon="1.10145">
        <ele>105</ele>
        <time>2017-10-01T07:21:24.000Z</time>
      </trkpt>
      <trkpt lat="45.00906" lon="1.10145">
        <ele>105</ele>
        <time>2017-10-01T07:21:24.000Z</time>
      </trkpt>
      <trkpt lat="45.00906" lon="1.10145">
        <ele>105</ele>
        <time>2017-10-01T07:21:24.000Z</time>
      </trkpt>
      <trkpt lat="45.00906" lon="1.10145">
        <ele>105</ele>
        <time>2017-10-01T07:21:24.000Z</time>
      </trkpt>
      <trkpt lat="45.00906" lon="1.10145">
        <ele>105</ele>
        <time>2017-10-01T07:21:24.000Z</time>
      </trkpt>
      <trkpt lat="45.00906" lon="1.10145">
        <ele>105</ele>
        <time>2017-10-01T07:21:24.000Z</time>
      </trkpt>
      <trkpt lat="45.00906" lon="1.10145">
        <ele>105</ele>
        <time>2017-10-01T07:21:24.000Z</time>
      </trkpt>
      <trkpt lat="45.00906" lon="1.10145">
        <ele>105</ele>
        <time>2017-10-01T07:21:24.000Z</time>
      </trkpt>
      <trkpt lat="45.00907" lon="1.10145">
        <ele>105</ele>
        <time>2017-10-01T07:21:25.000Z</time>
      </trkpt>
      <trkpt lat="45.00908" lon="1.10146">
        <ele>105</ele>
        <time>2017-10-01T07:21:26.000Z</time>
      </trkpt>
      <trkpt lat="45.00908" lon="1.10146">
        <ele>105</ele>
        <time>2017-10-01T07:21:27.000Z</time>
      </trkpt>
      <trkpt lat="45.00909" lon="1.10146">
        <ele>105</ele>
        <time>2017-10-01T07:21:32.000Z</time>
      </trkpt>
      <trkpt lat="45.00909" lon="1.10146">
        <ele>105</ele>
        <time>2017-10-01T07:21:32.000Z</time>
      </trkpt>
      <trkpt lat="45.00909" lon="1.10146">
        <ele>105</ele>
        <time>2017-10-01T07:21:32.000Z</time>
      </trkpt>
      <trkpt lat="45.00909" lon="1.10147">
        <ele>105</ele>
        <time>2017-10-01T07:21:32.000Z</time>
      </trkpt>
      <trkpt lat="45.00909" lon="1.10147">
        <ele>105</ele>
        <time>2017-10-01T07:21:32.000Z</time>
      </trkpt>
      <trkpt lat="45.00909" lon="1.10147">
        <ele>105</ele>
        <time>2017-10-01T07:21:39.000Z</time>
      </trkpt>
      <trkpt lat="45.00909" lon="1.10147">
        <ele>105</ele>
        <time>2017-10-01T07:21:39.000Z</time>
      </trkpt>
      <trkpt lat="45.00909" lon="1.10147">
        <ele>105</ele>
        <time>2017-10-01T07:21:39.000Z</time>
      </trkpt>
      <trkpt lat="45.00909" lon="1.10147">
        <ele>105</ele>
        <time>2017-10-01T07:21:39.000Z</time>
      </trkpt>
      <trkpt lat="45.00909" lon="1.10147">
        <ele>105</ele>
        <time>2017-10-01T07:21:39.000Z</time>
      </trkpt>
      <trkpt lat="45.00909" lon="1.10147">
        <ele>105</ele>
        <time>2017-10-01T07:21:39.000Z</time>
      </trkpt>
      <trkpt lat="45.00909" lon="1.10147">
        <ele>105</ele>
        <time>2017-10-01T07:21:39.000Z</time>
      </trkpt>
      <trkpt lat="45.0091" lon="1.10147">
        <ele>105</ele>
        <time>2017-10-01T07:21:46.000Z</time>
      </trkpt>
      <trkpt lat="45.0091" lon="1.10147">
        <ele>105</ele>
        <time>2017-10-01T07:21:46.000Z</time>
      </trkpt>
      <trkpt lat="45.0091" lon="1.10147">
        <ele>105</ele>
        <time>2017-10-01T07:21:46.000Z</time>
      </trkpt>
      <trkpt lat="45.0091" lon="1.10147">
        <ele>105</ele>
        <time>2017-10-01T07:21:46.000Z</time>
      </trkpt>
      <trkpt lat="45.0091" lon="1.10147">
        <ele>105</ele>
        <time>2017-10-01T07:21:46.000Z</time>
      </trkpt>
      <trkpt lat="45.0091" lon="1.10147">
        <ele>105</ele>
        <time>2017-10-01T07:21:46.000Z</time>
      </trkpt>
      <trkpt lat="45.0091" lon="1.10147">
        <ele>105</ele>
        <time>2017-10-01T07:21:46.000Z</time>
      </trkpt>
      <trkpt lat="45.00911" lon="1.10148">
        <ele>106</ele>
        <time>2017-10-01T07:21:48.000Z</time>
      </trkpt>
      <trkpt lat="45.00911" lon="1.10148">
        <ele>106</ele>
        <time>2017-10-01T07:21:48.000Z</time>
      </trkpt>
      <trkpt lat="45.00912" lon="1.10148">
        <ele>106</ele>
        <time>2017-10-01T07:21:49.000Z</time>
      </trkpt>
      <trkpt lat="45.00913" lon="1.10149">
        <ele>106</ele>
        <time>2017-10-01T07:21:51.000Z</time>
      </trkpt>
      <trkpt lat="45.00913" lon="1.10149">
        <ele>106</ele>
        <time>2017-10-01T07:21:51.000Z</time>
      </trkpt>
      <trkpt lat="45.00914" lon="1.1015">
        <ele>106</ele>
        <time>2017-10-01T07:21:53.000Z</time>
      </trkpt>
      <trkpt lat="45.00914" lon="1.1015">
        <ele>106</ele>
        <time>2017-10-01T07:21:53.000Z</time>
      </trkpt>
      <trkpt lat="45.00915" lon="1.1015">
        <ele>106</ele>
        <time>2017-10-01T07:21:56.000Z</time>
      </trkpt>
      <trkpt lat="45.00915" lon="1.1015">
        <ele>106</ele>
        <time>2017-10-01T07:21:56.000Z</time>
      </trkpt>
      <trkpt lat="45.00915" lon="1.10151">
        <ele>106</ele>
        <time>2017-10-01T07:21:56.000Z</time>
      </trkpt>
      <trkpt lat="45.00915" lon="1.10151">
        <ele>106</ele>
        <time>2017-10-01T07:21:58.000Z</time>
      </trkpt>
      <trkpt lat="45.00915" lon="1.10151">
        <ele>106</ele>
        <time>2017-10-01T07:21:58.000Z</time>
      </trkpt>
      <trkpt lat="45.00916" lon="1.10151">
        <ele>106</ele>
        <time>2017-10-01T07:22:17.000Z</time>
      </trkpt>
      <trkpt lat="45.00916" lon="1.10151">
        <ele>106</ele>
        <time>2017-10-01T07:22:17.000Z</time>
      </trkpt>
      <trkpt lat="45.00916" lon="1.10151">
        <ele>106</ele>
        <time>2017-10-01T07:22:17.000Z</time>
      </trkpt>
      <trkpt lat="45.00916" lon="1.10151">
        <ele>106</ele>
        <time>2017-10-01T07:22:17.000Z</time>
      </trkpt>
      <trkpt lat="45.00916" lon="1.10151">
        <ele>106</ele>
        <time>2017-10-01T07:22:17.000Z</time>
      </trkpt>
      <trkpt lat="45.00916" lon="1.10151">
        <ele>106</ele>
        <time>2017-10-01T07:22:17.000Z</time>
      </trkpt>
      <trkpt lat="45.00916" lon="1.10151">
        <ele>106</ele>
        <time>2017-10-01T07:22:17.000Z</time>
      </trkpt>
      <trkpt lat="45.00916" lon="1.10151">
        <ele>106</ele>
        <time>2017-10-01T07:22:17.000Z</time>
      </trkpt>
      <trkpt lat="45.00916" lon="1.10151">
        <ele>106</ele>
        <time>2017-10-01T07:22:17.000Z</time>
      </trkpt>
      <trkpt lat="45.00916" lon="1.10151">
        <ele>106</ele>
        <time>2017-10-01T07:22:17.000Z</time>
      </trkpt>
      <trkpt lat="45.00916" lon="1.10151">
        <ele>106</ele>
        <time>2017-10-01T07:22:17.000Z</time>
      </trkpt>
      <trkpt lat="45.00916" lon="1.10151">
        <ele>106</ele>
        <time>2017-10-01T07:22:17.000Z</time>
      </trkpt>
      <trkpt lat="45.00916" lon="1.10151">
        <ele>106</ele>
        <time>2017-10-01T07:22:17.000Z</time>
      </trkpt>
      <trkpt lat="45.00916" lon="1.10151">
        <ele>106</ele>
        <time>2017-10-01T07:22:17.000Z</time>
      </trkpt>
      <trkpt lat="45.00916" lon="1.10151">
        <ele>106</ele>
        <time>2017-10-01T07:22:17.000Z</time>
      </trkpt>
      <trkpt lat="45.00916" lon="1.10151">
        <ele>106</ele>
        <time>2017-10-01T07:22:17.000Z</time>
      </trkpt>
      <trkpt lat="45.00916" lon="1.10151">
        <ele>106</ele>
        <time>2017-10-01T07:22:17.000Z</time>
      </trkpt>
      <trkpt lat="45.00916" lon="1.10151">
        <ele>106</ele>
        <time>2017-10-01T07:22:17.000Z</time>
      </trkpt>
      <trkpt lat="45.00916" lon="1.10151">
        <ele>106</ele>
        <time>2017-10-01T07:22:17.000Z</time>
      </trkpt>
      <trkpt lat="45.00916" lon="1.10152">
        <ele>106</ele>
        <time>2017-10-01T07:22:18.000Z</time>
      </trkpt>
      <trkpt lat="45.00917" lon="1.10152">
        <ele>106</ele>
        <time>2017-10-01T07:22:19.000Z</time>
      </trkpt>
      <trkpt lat="45.00918" lon="1.10153">
        <ele>106</ele>
        <time>2017-10-01T07:22:20.000Z</time>
      </trkpt>
      <trkpt lat="45.00919" lon="1.10154">
        <ele>107</ele>
        <time>2017-10-01T07:22:21.000Z</time>
      </trkpt>
      <trkpt lat="45.0092" lon="1.10156">
        <ele>107</ele>
        <time>2017-10-01T07:22:22.000Z</time>
      </trkpt>
      <trkpt lat="45.00921" lon="1.10157">
        <ele>107</ele>
        <time>2017-10-01T07:22:23.000Z</time>
      </trkpt>
      <trkpt lat="45.00921" lon="1.10159">
        <ele>107</ele>
        <time>2017-10-01T07:22:24.000Z</time>
      </trkpt>
      <trkpt lat="45.00922" lon="1.1016">
        <ele>107</ele>
        <time>2017-10-01T07:22:25.000Z</time>
      </trkpt>
      <trkpt lat="45.00922" lon="1.10161">
        <ele>107</ele>
        <time>2017-10-01T07:22:26.000Z</time>
      </trkpt>
      <trkpt lat="45.00923" lon="1.10162">
        <ele>107</ele>
        <time>2017-10-01T07:22:27.000Z</time>
      </trkpt>
      <trkpt lat="45.00923" lon="1.10163">
        <ele>107</ele>
        <time>2017-10-01T07:22:28.000Z</time>
      </trkpt>
      <trkpt lat="45.00923" lon="1.10164">
        <ele>108</ele>
        <time>2017-10-01T07:22:29.000Z</time>
      </trkpt>
      <trkpt lat="45.00924" lon="1.10166">
        <ele>108</ele>
        <time>2017-10-01T07:22:30.000Z</time>
      </trkpt>
      <trkpt lat="45.00924" lon="1.10167">
        <ele>108</ele>
        <time>2017-10-01T07:22:31.000Z</time>
      </trkpt>
      <trkpt lat="45.00925" lon="1.10169">
        <ele>108</ele>
        <time>2017-10-01T07:22:32.000Z</time>
      </trkpt>
      <trkpt lat="45.00926" lon="1.1017">
        <ele>108</ele>
        <time>2017-10-01T07:22:33.000Z</time>
      </trkpt>
      <trkpt lat="45.00927" lon="1.10172">
        <ele>108</ele>
        <time>2017-10-01T07:22:34.000Z</time>
      </trkpt>
      <trkpt lat="45.00927" lon="1.10173">
        <ele>108</ele>
        <time>2017-10-01T07:22:35.000Z</time>
      </trkpt>
      <trkpt lat="45.00928" lon="1.10174">
        <ele>109</ele>
        <time>2017-10-01T07:22:36.000Z</time>
      </trkpt>
      <trkpt lat="45.00929" lon="1.10175">
        <ele>109</ele>
        <time>2017-10-01T07:22:37.000Z</time>
      </trkpt>
      <trkpt lat="45.0093" lon="1.10176">
        <ele>109</ele>
        <time>2017-10-01T07:22:38.000Z</time>
      </trkpt>
      <trkpt lat="45.00931" lon="1.10176">
        <ele>109</ele>
        <time>2017-10-01T07:22:39.000Z</time>
      </trkpt>
      <trkpt lat="45.00932" lon="1.10176">
        <ele>109</ele>
        <time>2017-10-01T07:22:40.000Z</time>
      </trkpt>
      <trkpt lat="45.00933" lon="1.10175">
        <ele>109</ele>
        <time>2017-10-01T07:22:41.000Z</time>
      </trkpt>
      <trkpt lat="45.00933" lon="1.10174">
        <ele>109</ele>
        <time>2017-10-01T07:22:42.000Z</time>
      </trkpt>
      <trkpt lat="45.00934" lon="1.10173">
        <ele>110</ele>
        <time>2017-10-01T07:22:43.000Z</time>
      </trkpt>
      <trkpt lat="45.00935" lon="1.10172">
        <ele>110</ele>
        <time>2017-10-01T07:22:44.000Z</time>
      </trkpt>
      <trkpt lat="45.00936" lon="1.10171">
        <ele>110</ele>
        <time>2017-10-01T07:22:45.000Z</time>
      </trkpt>
      <trkpt lat="45.00937" lon="1.1017">
        <ele>110</ele>
        <time>2017-10-01T07:22:46.000Z</time>
      </trkpt>
      <trkpt lat="45.00938" lon="1.10169">
        <ele>110</ele>
        <time>2017-10-01T07:22:47.000Z</time>
      </trkpt>
      <trkpt lat="45.00939" lon="1.10168">
        <ele>110</ele>
        <time>2017-10-01T07:22:48.000Z</time>
      </trkpt>
      <trkpt lat="45.0094" lon="1.10168">
        <ele>111</ele>
        <time>2017-10-01T07:22:49.000Z</time>
      </trkpt>
      <trkpt lat="45.00942" lon="1.10166">
        <ele>111</ele>
        <time>2017-10-01T07:22:50.000Z</time>
      </trkpt>
      <trkpt lat="45.00943" lon="1.10165">
        <ele>111</ele>
        <time>2017-10-01T07:22:51.000Z</time>
      </trkpt>
      <trkpt lat="45.00945" lon="1.10164">
        <ele>111</ele>
        <time>2017-10-01T07:22:52.000Z</time>
      </trkpt>
      <trkpt lat="45.00947" lon="1.10163">
        <ele>111</ele>
        <time>2017-10-01T07:22:53.000Z</time>
      </trkpt>
      <trkpt lat="45.00949" lon="1.10163">
        <ele>112</ele>
        <time>2017-10-01T07:22:54.000Z</time>
      </trkpt>
      <trkpt lat="45.00951" lon="1.10163">
        <ele>112</ele>
        <time>2017-10-01T07:22:55.000Z</time>
      </trkpt>
      <trkpt lat="45.00953" lon="1.10163">
        <ele>113</ele>
        <time>2017-10-01T07:22:56.000Z</time>
      </trkpt>
      <trkpt lat="45.00955" lon="1.10164">
        <ele>113</ele>
        <time>2017-10-01T07:22:57.000Z</time>
      </trkpt>
      <trkpt lat="45.00957" lon="1.10165">
        <ele>113</ele>
        <time>2017-10-01T07:22:58.000Z</time>
      </trkpt>
      <trkpt lat="45.00959" lon="1.10166">
        <ele>114</ele>
        <time>2017-10-01T07:22:59.000Z</time>
      </trkpt>
      <trkpt lat="45.0096" lon="1.10168">
        <ele>114</ele>
        <time>2017-10-01T07:23:00.000Z</time>
      </trkpt>
      <trkpt lat="45.00962" lon="1.10169">
        <ele>114</ele>
        <time>2017-10-01T07:23:01.000Z</time>
      </trkpt>
      <trkpt lat="45.00964" lon="1.1017">
        <ele>114</ele>
        <time>2017-10-01T07:23:02.000Z</time>
      </trkpt>
      <trkpt lat="45.00965" lon="1.10171">
        <ele>115</ele>
        <time>2017-10-01T07:23:03.000Z</time>
      </trkpt>
      <trkpt lat="45.00966" lon="1.10173">
        <ele>115</ele>
        <time>2017-10-01T07:23:04.000Z</time>
      </trkpt>
      <trkpt lat="45.00968" lon="1.10174">
        <ele>115</ele>
        <time>2017-10-01T07:23:05.000Z</time>
      </trkpt>
      <trkpt lat="45.00969" lon="1.10175">
        <ele>116</ele>
        <time>2017-10-01T07:23:06.000Z</time>
      </trkpt>
      <trkpt lat="45.00971" lon="1.10176">
        <ele>116</ele>
        <time>2017-10-01T07:23:07.000Z</time>
      </trkpt>
      <trkpt lat="45.00973" lon="1.10177">
        <ele>116</ele>
        <time>2017-10-01T07:23:08.000Z</time>
      </trkpt>
      <trkpt lat="45.00974" lon="1.10178">
        <ele>116</ele>
        <time>2017-10-01T07:23:09.000Z</time>
      </trkpt>
      <trkpt lat="45.00976" lon="1.10178">
        <ele>117</ele>
        <time>2017-10-01T07:23:10.000Z</time>
      </trkpt>
      <trkpt lat="45.00978" lon="1.10179">
        <ele>117</ele>
        <time>2017-10-01T07:23:11.000Z</time>
      </trkpt>
      <trkpt lat="45.00979" lon="1.10179">
        <ele>117</ele>
        <time>2017-10-01T07:23:12.000Z</time>
      </trkpt>
      <trkpt lat="45.00981" lon="1.1018">
        <ele>118</ele>
        <time>2017-10-01T07:23:13.000Z</time>
      </trkpt>
      <trkpt lat="45.00983" lon="1.1018">
        <ele>118</ele>
        <time>2017-10-01T07:23:14.000Z</time>
      </trkpt>
      <trkpt lat="45.00985" lon="1.10181">
        <ele>118</ele>
        <time>2017-10-01T07:23:15.000Z</time>
      </trkpt>
      <trkpt lat="45.00987" lon="1.10182">
        <ele>118</ele>
        <time>2017-10-01T07:23:16.000Z</time>
      </trkpt>
      <trkpt lat="45.00989" lon="1.10183">
        <ele>119</ele>
        <time>2017-10-01T07:23:17.000Z</time>
      </trkpt>
      <trkpt lat="45.0099" lon="1.10184">
        <ele>119</ele>
        <time>2017-10-01T07:23:18.000Z</time>
      </trkpt>
      <trkpt lat="45.00992" lon="1.10186">
        <ele>119</ele>
        <time>2017-10-01T07:23:19.000Z</time>
      </trkpt>
      <trkpt lat="45.00994" lon="1.10188">
        <ele>120</ele>
        <time>2017-10-01T07:23:20.000Z</time>
      </trkpt>
      <trkpt lat="45.00996" lon="1.1019">
        <ele>120</ele>
        <time>2017-10-01T07:23:21.000Z</time>
      </trkpt>
      <trkpt lat="45.00998" lon="1.10192">
        <ele>121</ele>
        <time>2017-10-01T07:23:22.000Z</time>
      </trkpt>
      <trkpt lat="45.01" lon="1.10193">
        <ele>121</ele>
        <time>2017-10-01T07:23:23.000Z</time>
      </trkpt>
      <trkpt lat="45.01002" lon="1.10195">
        <ele>121</ele>
        <time>2017-10-01T07:23:24.000Z</time>
      </trkpt>
      <trkpt lat="45.01004" lon="1.10196">
        <ele>121</ele>
        <time>2017-10-01T07:23:25.000Z</time>
      </trkpt>
      <trkpt lat="45.01006" lon="1.10197">
        <ele>121</ele>
        <time>2017-10-01T07:23:26.000Z</time>
      </trkpt>
      <trkpt lat="45.01008" lon="1.10197">
        <ele>121</ele>
        <time>2017-10-01T07:23:27.000Z</time>
      </trkpt>
      <trkpt lat="45.0101" lon="1.10197">
        <ele>121</ele>
        <time>2017-10-01T07:23:28.000Z</time>
      </trkpt>
      <trkpt lat="45.01012" lon="1.10196">
        <ele>121</ele>
        <time>2017-10-01T07:23:29.000Z</time>
      </trkpt>
      <trkpt lat="45.01014" lon="1.10195">
        <ele>121</ele>
        <time>2017-10-01T07:23:30.000Z</time>
      </trkpt>
      <trkpt lat="45.01015" lon="1.10194">
        <ele>121</ele>
        <time>2017-10-01T07:23:31.000Z</time>
      </trkpt>
      <trkpt lat="45.01017" lon="1.10192">
        <ele>121</ele>
        <time>2017-10-01T07:23:32.000Z</time>
      </trkpt>
      <trkpt lat="45.01018" lon="1.1019">
        <ele>121</ele>
        <time>2017-10-01T07:23:33.000Z</time>
      </trkpt>
      <trkpt lat="45.0102" lon="1.10187">
        <ele>121</ele>
        <time>2017-10-01T07:23:34.000Z</time>
      </trkpt>
      <trkpt lat="45.01021" lon="1.10185">
        <ele>121</ele>
        <time>2017-10-01T07:23:35.000Z</time>
      </trkpt>
      <trkpt lat="45.01022" lon="1.10183">
        <ele>121</ele>
        <time>2017-10-01T07:23:36.000Z</time>
      </trkpt>
      <trkpt lat="45.01023" lon="1.1018">
        <ele>121</ele>
        <time>2017-10-01T07:23:37.000Z</time>
      </trkpt>
      <trkpt lat="45.01024" lon="1.10178">
        <ele>121</ele>
        <time>2017-10-01T07:23:38.000Z</time>
      </trkpt>
      <trkpt lat="45.01025" lon="1.10175">
        <ele>121</ele>
        <time>2017-10-01T07:23:39.000Z</time>
      </trkpt>
      <trkpt lat="45.01027" lon="1.10173">
        <ele>121</ele>
        <time>2017-10-01T07:23:40.000Z</time>
      </trkpt>
      <trkpt lat="45.01029" lon="1.10172">
        <ele>121</ele>
        <time>2017-10-01T07:23:41.000Z</time>
      </trkpt>
      <trkpt lat="45.01031" lon="1.10171">
        <ele>121</ele>
        <time>2017-10-01T07:23:42.000Z</time>
      </trkpt>
      <trkpt lat="45.01033" lon="1.1017">
        <ele>121</ele>
        <time>2017-10-01T07:23:43.000Z</time>
      </trkpt>
      <trkpt lat="45.01036" lon="1.1017">
        <ele>121</ele>
        <time>2017-10-01T07:23:44.000Z</time>
      </trkpt>
      <trkpt lat="45.01038" lon="1.1017">
        <ele>122</ele>
        <time>2017-10-01T07:23:45.000Z</time>
      </trkpt>
      <trkpt lat="45.0104" lon="1.1017">
        <ele>122</ele>
        <time>2017-10-01T07:23:46.000Z</time>
      </trkpt>
      <trkpt lat="45.01043" lon="1.10171">
        <ele>122</ele>
        <time>2017-10-01T07:23:47.000Z</time>
      </trkpt>
      <trkpt lat="45.01045" lon="1.10172">
        <ele>122</ele>
        <time>2017-10-01T07:23:48.000Z</time>
      </trkpt>
      <trkpt lat="45.01047" lon="1.10172">
        <ele>122</ele>
        <time>2017-10-01T07:23:49.000Z</time>
      </trkpt>
      <trkpt lat="45.01049" lon="1.10173">
        <ele>122</ele>
        <time>2017-10-01T07:23:50.000Z</time>
      </trkpt>
      <trkpt lat="45.01051" lon="1.10173">
        <ele>122</ele>
        <time>2017-10-01T07:23:51.000Z</time>
      </trkpt>
      <trkpt lat="45.01054" lon="1.10174">
        <ele>122</ele>
        <time>2017-10-01T07:23:52.000Z</time>
      </trkpt>
      <trkpt lat="45.01056" lon="1.10174">
        <ele>122</ele>
        <time>2017-10-01T07:23:53.000Z</time>
      </trkpt>
      <trkpt lat="45.01058" lon="1.10173">
        <ele>122</ele>
        <time>2017-10-01T07:23:54.000Z</time>
      </trkpt>
      <trkpt lat="45.01061" lon="1.10173">
        <ele>122</ele>
        <time>2017-10-01T07:23:55.000Z</time>
      </trkpt>
      <trkpt lat="45.01063" lon="1.10172">
        <ele>122</ele>
        <time>2017-10-01T07:23:56.000Z</time>
      </trkpt>
      <trkpt lat="45.01065" lon="1.10172">
        <ele>122</ele>
        <time>2017-10-01T07:23:57.000Z</time>
      </trkpt>
      <trkpt lat="45.01068" lon="1.10171">
        <ele>122</ele>
        <time>2017-10-01T07:23:58.000Z</time>
      </trkpt>
      <trkpt lat="45.0107" lon="1.10171">
        <ele>122</ele>
        <time>2017-10-01T07:23:59.000Z</time>
      </trkpt>
      <trkpt lat="45.01073" lon="1.1017">
        <ele>122</ele>
        <time>2017-10-01T07:24:00.000Z</time>
      </trkpt>
      <trkpt lat="45.01076" lon="1.1017">
        <ele>122</ele>
        <time>2017-10-01T07:24:01.000Z</time>
      </trkpt>
      <trkpt lat="45.01078" lon="1.10169">
        <ele>122</ele>
        <time>2017-10-01T07:24:02.000Z</time>
      </trkpt>
      <trkpt lat="45.01081" lon="1.10168">
        <ele>123</ele>
        <time>2017-10-01T07:24:03.000Z</time>
      </trkpt>
      <trkpt lat="45.01083" lon="1.10167">
        <ele>123</ele>
        <time>2017-10-01T07:24:04.000Z</time>
      </trkpt>
      <trkpt lat="45.01086" lon="1.10165">
        <ele>122</ele>
        <time>2017-10-01T07:24:05.000Z</time>
      </trkpt>
      <trkpt lat="45.01088" lon="1.10164">
        <ele>122</ele>
        <time>2017-10-01T07:24:06.000Z</time>
      </trkpt>
      <trkpt lat="45.01091" lon="1.10162">
        <ele>122</ele>
        <time>2017-10-01T07:24:07.000Z</time>
      </trkpt>
      <trkpt lat="45.01093" lon="1.10161">
        <ele>122</ele>
        <time>2017-10-01T07:24:08.000Z</time>
      </trkpt>
      <trkpt lat="45.01096" lon="1.1016">
        <ele>122</ele>
        <time>2017-10-01T07:24:09.000Z</time>
      </trkpt>
      <trkpt lat="45.01099" lon="1.1016">
        <ele>122</ele>
        <time>2017-10-01T07:24:10.000Z</time>
      </trkpt>
      <trkpt lat="45.01101" lon="1.1016">
        <ele>122</ele>
        <time>2017-10-01T07:24:11.000Z</time>
      </trkpt>
      <trkpt lat="45.01104" lon="1.10162">
        <ele>122</ele>
        <time>2017-10-01T07:24:12.000Z</time>
      </trkpt>
      <trkpt lat="45.01107" lon="1.10163">
        <ele>122</ele>
        <time>2017-10-01T07:24:13.000Z</time>
      </trkpt>
      <trkpt lat="45.0111" lon="1.10166">
        <ele>123</ele>
        <time>2017-10-01T07:24:14.000Z</time>
      </trkpt>
      <trkpt lat="45.01112" lon="1.10168">
        <ele>123</ele>
        <time>2017-10-01T07:24:15.000Z</time>
      </trkpt>
      <trkpt lat="45.01115" lon="1.1017">
        <ele>123</ele>
        <time>2017-10-01T07:24:16.000Z</time>
      </trkpt>
      <trkpt lat="45.01118" lon="1.10173">
        <ele>122</ele>
        <time>2017-10-01T07:24:17.000Z</time>
      </trkpt>
      <trkpt lat="45.01121" lon="1.10174">
        <ele>122</ele>
        <time>2017-10-01T07:24:18.000Z</time>
      </trkpt>
      <trkpt lat="45.01124" lon="1.10175">
        <ele>122</ele>
        <time>2017-10-01T07:24:19.000Z</time>
      </trkpt>
      <trkpt lat="45.01127" lon="1.10174">
        <ele>122</ele>
        <time>2017-10-01T07:24:20.000Z</time>
      </trkpt>
      <trkpt lat="45.01131" lon="1.10172">
        <ele>122</ele>
        <time>2017-10-01T07:24:21.000Z</time>
      </trkpt>
      <trkpt lat="45.01134" lon="1.10169">
        <ele>122</ele>
        <time>2017-10-01T07:24:22.000Z</time>
      </trkpt>
      <trkpt lat="45.01138" lon="1.10167">
        <ele>123</ele>
        <time>2017-10-01T07:24:23.000Z</time>
      </trkpt>
      <trkpt lat="45.01141" lon="1.10164">
        <ele>123</ele>
        <time>2017-10-01T07:24:24.000Z</time>
      </trkpt>
      <trkpt lat="45.01144" lon="1.10161">
        <ele>122</ele>
        <time>2017-10-01T07:24:25.000Z</time>
      </trkpt>
      <trkpt lat="45.01148" lon="1.10158">
        <ele>122</ele>
        <time>2017-10-01T07:24:26.000Z</time>
      </trkpt>
      <trkpt lat="45.01151" lon="1.10156">
        <ele>122</ele>
        <time>2017-10-01T07:24:27.000Z</time>
      </trkpt>
      <trkpt lat="45.01154" lon="1.10153">
        <ele>122</ele>
        <time>2017-10-01T07:24:28.000Z</time>
      </trkpt>
      <trkpt lat="45.01157" lon="1.1015">
        <ele>122</ele>
        <time>2017-10-01T07:24:29.000Z</time>
      </trkpt>
      <trkpt lat="45.0116" lon="1.10148">
        <ele>122</ele>
        <time>2017-10-01T07:24:30.000Z</time>
      </trkpt>
      <trkpt lat="45.01164" lon="1.10145">
        <ele>123</ele>
        <time>2017-10-01T07:24:31.000Z</time>
      </trkpt>
      <trkpt lat="45.01167" lon="1.10143">
        <ele>123</ele>
        <time>2017-10-01T07:24:32.000Z</time>
      </trkpt>
      <trkpt lat="45.0117" lon="1.10141">
        <ele>123</ele>
        <time>2017-10-01T07:24:33.000Z</time>
      </trkpt>
      <trkpt lat="45.01172" lon="1.10138">
        <ele>123</ele>
        <time>2017-10-01T07:24:34.000Z</time>
      </trkpt>
      <trkpt lat="45.01175" lon="1.10136">
        <ele>123</ele>
        <time>2017-10-01T07:24:35.000Z</time>
      </trkpt>
      <trkpt lat="45.01178" lon="1.10134">
        <ele>124</ele>
        <time>2017-10-01T07:24:36.000Z</time>
      </trkpt>
      <trkpt lat="45.0118" lon="1.10132">
        <ele>124</ele>
        <time>2017-10-01T07:24:37.000Z</time>
      </trkpt>
      <trkpt lat="45.01183" lon="1.1013">
        <ele>124</ele>
        <time>2017-10-01T07:24:38.000Z</time>
      </trkpt>
      <trkpt lat="45.01185" lon="1.10128">
        <ele>125</ele>
        <time>2017-10-01T07:24:39.000Z</time>
      </trkpt>
      <trkpt lat="45.01188" lon="1.10126">
        <ele>125</ele>
        <time>2017-10-01T07:24:40.000Z</time>
      </trkpt>
      <trkpt lat="45.0119" lon="1.10124">
        <ele>125</ele>
        <time>2017-10-01T07:24:41.000Z</time>
      </trkpt>
      <trkpt lat="45.01193" lon="1.10122">
        <ele>125</ele>
        <time>2017-10-01T07:24:42.000Z</time>
      </trkpt>
      <trkpt lat="45.01195" lon="1.10119">
        <ele>126</ele>
        <time>2017-10-01T07:24:43.000Z</time>
      </trkpt>
      <trkpt lat="45.01198" lon="1.10117">
        <ele>126</ele>
        <time>2017-10-01T07:24:44.000Z</time>
      </trkpt>
      <trkpt lat="45.01201" lon="1.10115">
        <ele>126</ele>
        <time>2017-10-01T07:24:45.000Z</time>
      </trkpt>
      <trkpt lat="45.01203" lon="1.10113">
        <ele>127</ele>
        <time>2017-10-01T07:24:46.000Z</time>
      </trkpt>
      <trkpt lat="45.01206" lon="1.10111">
        <ele>127</ele>
        <time>2017-10-01T07:24:47.000Z</time>
      </trkpt>
      <trkpt lat="45.01208" lon="1.10109">
        <ele>127</ele>
        <time>2017-10-01T07:24:48.000Z</time>
      </trkpt>
      <trkpt lat="45.01211" lon="1.10106">
        <ele>128</ele>
        <time>2017-10-01T07:24:49.000Z</time>
      </trkpt>
      <trkpt lat="45.01213" lon="1.10104">
        <ele>128</ele>
        <time>2017-10-01T07:24:50.000Z</time>
      </trkpt>
      <trkpt lat="45.01216" lon="1.10102">
        <ele>128</ele>
        <time>2017-10-01T07:24:51.000Z</time>
      </trkpt>
      <trkpt lat="45.01218" lon="1.10099">
        <ele>129</ele>
        <time>2017-10-01T07:24:52.000Z</time>
      </trkpt>
      <trkpt lat="45.01221" lon="1.10097">
        <ele>129</ele>
        <time>2017-10-01T07:24:53.000Z</time>
      </trkpt>
      <trkpt lat="45.01223" lon="1.10095">
        <ele>129</ele>
        <time>2017-10-01T07:24:54.000Z</time>
      </trkpt>
      <trkpt lat="45.01226" lon="1.10093">
        <ele>129</ele>
        <time>2017-10-01T07:24:55.000Z</time>
      </trkpt>
      <trkpt lat="45.01228" lon="1.10091">
        <ele>130</ele>
        <time>2017-10-01T07:24:56.000Z</time>
      </trkpt>
      <trkpt lat="45.0123" lon="1.1009">
        <ele>130</ele>
        <time>2017-10-01T07:24:57.000Z</time>
      </trkpt>
      <trkpt lat="45.01232" lon="1.10088">
        <ele>130</ele>
        <time>2017-10-01T07:24:58.000Z</time>
      </trkpt>
      <trkpt lat="45.01235" lon="1.10086">
        <ele>131</ele>
        <time>2017-10-01T07:24:59.000Z</time>
      </trkpt>
      <trkpt lat="45.01237" lon="1.10084">
        <ele>131</ele>
        <time>2017-10-01T07:25:00.000Z</time>
      </trkpt>
      <trkpt lat="45.01239" lon="1.10082">
        <ele>131</ele>
        <time>2017-10-01T07:25:01.000Z</time>
      </trkpt>
      <trkpt lat="45.01242" lon="1.1008">
        <ele>132</ele>
        <time>2017-10-01T07:25:02.000Z</time>
      </trkpt>
      <trkpt lat="45.01244" lon="1.10078">
        <ele>132</ele>
        <time>2017-10-01T07:25:03.000Z</time>
      </trkpt>
      <trkpt lat="45.01246" lon="1.10076">
        <ele>132</ele>
        <time>2017-10-01T07:25:04.000Z</time>
      </trkpt>
      <trkpt lat="45.01249" lon="1.10074">
        <ele>132</ele>
        <time>2017-10-01T07:25:05.000Z</time>
      </trkpt>
      <trkpt lat="45.01251" lon="1.10072">
        <ele>132</ele>
        <time>2017-10-01T07:25:06.000Z</time>
      </trkpt>
      <trkpt lat="45.01253" lon="1.1007">
        <ele>133</ele>
        <time>2017-10-01T07:25:07.000Z</time>
      </trkpt>
      <trkpt lat="45.01256" lon="1.10068">
        <ele>133</ele>
        <time>2017-10-01T07:25:08.000Z</time>
      </trkpt>
      <trkpt lat="45.01258" lon="1.10066">
        <ele>133</ele>
        <time>2017-10-01T07:25:09.000Z</time>
      </trkpt>
      <trkpt lat="45.01261" lon="1.10063">
        <ele>133</ele>
        <time>2017-10-01T07:25:10.000Z</time>
      </trkpt>
      <trkpt lat="45.01263" lon="1.10061">
        <ele>133</ele>
        <time>2017-10-01T07:25:11.000Z</time>
      </trkpt>
      <trkpt lat="45.01265" lon="1.10059">
        <ele>134</ele>
        <time>2017-10-01T07:25:12.000Z</time>
      </trkpt>
      <trkpt lat="45.01268" lon="1.10057">
        <ele>134</ele>
        <time>2017-10-01T07:25:13.000Z</time>
      </trkpt>
      <trkpt lat="45.0127" lon="1.10055">
        <ele>134</ele>
        <time>2017-10-01T07:25:14.000Z</time>
      </trkpt>
      <trkpt lat="45.01273" lon="1.10053">
        <ele>134</ele>
        <time>2017-10-01T07:25:15.000Z</time>
      </trkpt>
      <trkpt lat="45.01275" lon="1.10051">
        <ele>134</ele>
        <time>2017-10-01T07:25:16.000Z</time>
      </trkpt>
      <trkpt lat="45.01278" lon="1.1005">
        <ele>135</ele>
        <time>2017-10-01T07:25:17.000Z</time>
      </trkpt>
      <trkpt lat="45.0128" lon="1.10048">
        <ele>135</ele>
        <time>2017-10-01T07:25:18.000Z</time>
      </trkpt>
      <trkpt lat="45.01283" lon="1.10047">
        <ele>135</ele>
        <time>2017-10-01T07:25:19.000Z</time>
      </trkpt>
      <trkpt lat="45.01285" lon="1.10045">
        <ele>135</ele>
        <time>2017-10-01T07:25:20.000Z</time>
      </trkpt>
      <trkpt lat="45.01288" lon="1.10044">
        <ele>135</ele>
        <time>2017-10-01T07:25:21.000Z</time>
      </trkpt>
      <trkpt lat="45.0129" lon="1.10042">
        <ele>136</ele>
        <time>2017-10-01T07:25:22.000Z</time>
      </trkpt>
      <trkpt lat="45.01293" lon="1.10041">
        <ele>136</ele>
        <time>2017-10-01T07:25:23.000Z</time>
      </trkpt>
      <trkpt lat="45.01295" lon="1.10039">
        <ele>136</ele>
        <time>2017-10-01T07:25:24.000Z</time>
      </trkpt>
      <trkpt lat="45.01297" lon="1.10037">
        <ele>136</ele>
        <time>2017-10-01T07:25:25.000Z</time>
      </trkpt>
      <trkpt lat="45.01299" lon="1.10034">
        <ele>137</ele>
        <time>2017-10-01T07:25:26.000Z</time>
      </trkpt>
      <trkpt lat="45.01301" lon="1.10031">
        <ele>137</ele>
        <time>2017-10-01T07:25:27.000Z</time>
      </trkpt>
      <trkpt lat="45.01303" lon="1.10028">
        <ele>137</ele>
        <time>2017-10-01T07:25:28.000Z</time>
      </trkpt>
      <trkpt lat="45.01305" lon="1.10025">
        <ele>137</ele>
        <time>2017-10-01T07:25:29.000Z</time>
      </trkpt>
      <trkpt lat="45.01306" lon="1.10022">
        <ele>137</ele>
        <time>2017-10-01T07:25:30.000Z</time>
      </trkpt>
      <trkpt lat="45.01307" lon="1.10018">
        <ele>138</ele>
        <time>2017-10-01T07:25:31.000Z</time>
      </trkpt>
      <trkpt lat="45.01309" lon="1.10015">
        <ele>138</ele>
        <time>2017-10-01T07:25:32.000Z</time>
      </trkpt>
      <trkpt lat="45.0131" lon="1.10011">
        <ele>138</ele>
        <time>2017-10-01T07:25:33.000Z</time>
      </trkpt>
      <trkpt lat="45.01311" lon="1.10008">
        <ele>138</ele>
        <time>2017-10-01T07:25:34.000Z</time>
      </trkpt>
      <trkpt lat="45.01312" lon="1.10005">
        <ele>138</ele>
        <time>2017-10-01T07:25:35.000Z</time>
      </trkpt>
      <trkpt lat="45.01314" lon="1.10001">
        <ele>138</ele>
        <time>2017-10-01T07:25:36.000Z</time>
      </trkpt>
      <trkpt lat="45.01315" lon="1.09998">
        <ele>138</ele>
        <time>2017-10-01T07:25:37.000Z</time>
      </trkpt>
      <trkpt lat="45.01316" lon="1.09994">
        <ele>138</ele>
        <time>2017-10-01T07:25:38.000Z</time>
      </trkpt>
      <trkpt lat="45.01318" lon="1.09991">
        <ele>138</ele>
        <time>2017-10-01T07:25:39.000Z</time>
      </trkpt>
      <trkpt lat="45.01319" lon="1.09987">
        <ele>138</ele>
        <time>2017-10-01T07:25:40.000Z</time>
      </trkpt>
      <trkpt lat="45.01321" lon="1.09984">
        <ele>139</ele>
        <time>2017-10-01T07:25:41.000Z</time>
      </trkpt>
      <trkpt lat="45.01322" lon="1.0998">
        <ele>139</ele>
        <time>2017-10-01T07:25:42.000Z</time>
      </trkpt>
      <trkpt lat="45.01324" lon="1.09977">
        <ele>139</ele>
        <time>2017-10-01T07:25:43.000Z</time>
      </trkpt>
      <trkpt lat="45.01326" lon="1.09973">
        <ele>139</ele>
        <time>2017-10-01T07:25:44.000Z</time>
      </trkpt>
      <trkpt lat="45.01328" lon="1.0997">
        <ele>139</ele>
        <time>2017-10-01T07:25:45.000Z</time>
      </trkpt>
      <trkpt lat="45.0133" lon="1.09966">
        <ele>139</ele>
        <time>2017-10-01T07:25:46.000Z</time>
      </trkpt>
      <trkpt lat="45.01332" lon="1.09962">
        <ele>139</ele>
        <time>2017-10-01T07:25:47.000Z</time>
      </trkpt>
      <trkpt lat="45.01334" lon="1.09958">
        <ele>139</ele>
        <time>2017-10-01T07:25:48.000Z</time>
      </trkpt>
      <trkpt lat="45.01336" lon="1.09954">
        <ele>139</ele>
        <time>2017-10-01T07:25:49.000Z</time>
      </trkpt>
      <trkpt lat="45.01338" lon="1.09949">
        <ele>139</ele>
        <time>2017-10-01T07:25:50.000Z</time>
      </trkpt>
      <trkpt lat="45.01339" lon="1.09944">
        <ele>139</ele>
        <time>2017-10-01T07:25:51.000Z</time>
      </trkpt>
      <trkpt lat="45.01341" lon="1.09939">
        <ele>139</ele>
        <time>2017-10-01T07:25:52.000Z</time>
      </trkpt>
      <trkpt lat="45.01343" lon="1.09934">
        <ele>139</ele>
        <time>2017-10-01T07:25:53.000Z</time>
      </trkpt>
      <trkpt lat="45.01345" lon="1.09928">
        <ele>139</ele>
        <time>2017-10-01T07:25:54.000Z</time>
      </trkpt>
      <trkpt lat="45.01347" lon="1.09922">
        <ele>139</ele>
        <time>2017-10-01T07:25:55.000Z</time>
      </trkpt>
      <trkpt lat="45.01349" lon="1.09915">
        <ele>139</ele>
        <time>2017-10-01T07:25:56.000Z</time>
      </trkpt>
      <trkpt lat="45.01351" lon="1.09909">
        <ele>139</ele>
        <time>2017-10-01T07:25:57.000Z</time>
      </trkpt>
      <trkpt lat="45.01354" lon="1.09902">
        <ele>139</ele>
        <time>2017-10-01T07:25:58.000Z</time>
      </trkpt>
      <trkpt lat="45.01356" lon="1.09895">
        <ele>138</ele>
        <time>2017-10-01T07:25:59.000Z</time>
      </trkpt>
      <trkpt lat="45.01358" lon="1.09889">
        <ele>138</ele>
        <time>2017-10-01T07:26:00.000Z</time>
      </trkpt>
      <trkpt lat="45.01361" lon="1.09882">
        <ele>138</ele>
        <time>2017-10-01T07:26:01.000Z</time>
      </trkpt>
      <trkpt lat="45.01364" lon="1.09876">
        <ele>137</ele>
        <time>2017-10-01T07:26:02.000Z</time>
      </trkpt>
      <trkpt lat="45.01367" lon="1.09869">
        <ele>137</ele>
        <time>2017-10-01T07:26:03.000Z</time>
      </trkpt>
      <trkpt lat="45.0137" lon="1.09863">
        <ele>137</ele>
        <time>2017-10-01T07:26:04.000Z</time>
      </trkpt>
      <trkpt lat="45.01373" lon="1.09857">
        <ele>137</ele>
        <time>2017-10-01T07:26:05.000Z</time>
      </trkpt>
      <trkpt lat="45.01377" lon="1.09852">
        <ele>137</ele>
        <time>2017-10-01T07:26:06.000Z</time>
      </trkpt>
      <trkpt lat="45.0138" lon="1.09846">
        <ele>137</ele>
        <time>2017-10-01T07:26:07.000Z</time>
      </trkpt>
      <trkpt lat="45.01384" lon="1.09842">
        <ele>137</ele>
        <time>2017-10-01T07:26:08.000Z</time>
      </trkpt>
      <trkpt lat="45.01387" lon="1.09838">
        <ele>137</ele>
        <time>2017-10-01T07:26:09.000Z</time>
      </trkpt>
      <trkpt lat="45.01389" lon="1.09834">
        <ele>137</ele>
        <time>2017-10-01T07:26:10.000Z</time>
      </trkpt>
      <trkpt lat="45.01391" lon="1.09832">
        <ele>137</ele>
        <time>2017-10-01T07:26:11.000Z</time>
      </trkpt>
      <trkpt lat="45.01392" lon="1.0983">
        <ele>137</ele>
        <time>2017-10-01T07:26:12.000Z</time>
      </trkpt>
      <trkpt lat="45.01393" lon="1.09828">
        <ele>137</ele>
        <time>2017-10-01T07:26:13.000Z</time>
      </trkpt>
      <trkpt lat="45.01394" lon="1.09827">
        <ele>137</ele>
        <time>2017-10-01T07:26:14.000Z</time>
      </trkpt>
      <trkpt lat="45.01394" lon="1.09826">
        <ele>137</ele>
        <time>2017-10-01T07:26:15.000Z</time>
      </trkpt>
      <trkpt lat="45.01395" lon="1.09825">
        <ele>137</ele>
        <time>2017-10-01T07:26:16.000Z</time>
      </trkpt>
      <trkpt lat="45.01395" lon="1.09824">
        <ele>137</ele>
        <time>2017-10-01T07:26:23.000Z</time>
      </trkpt>
      <trkpt lat="45.01395" lon="1.09824">
        <ele>137</ele>
        <time>2017-10-01T07:26:23.000Z</time>
      </trkpt>
      <trkpt lat="45.01395" lon="1.09824">
        <ele>137</ele>
        <time>2017-10-01T07:26:23.000Z</time>
      </trkpt>
      <trkpt lat="45.01395" lon="1.09824">
        <ele>137</ele>
        <time>2017-10-01T07:26:23.000Z</time>
      </trkpt>
      <trkpt lat="45.01395" lon="1.09824">
        <ele>137</ele>
        <time>2017-10-01T07:26:23.000Z</time>
      </trkpt>
      <trkpt lat="45.01395" lon="1.09824">
        <ele>137</ele>
        <time>2017-10-01T07:26:23.000Z</time>
      </trkpt>
      <trkpt lat="45.01395" lon="1.09824">
        <ele>137</ele>
        <time>2017-10-01T07:26:23.000Z</time>
      </trkpt>
      <trkpt lat="45.01395" lon="1.09824">
        <ele>137</ele>
        <time>2017-10-01T07:26:44.000Z</time>
      </trkpt>
      <trkpt lat="45.01395" lon="1.09823">
        <ele>137</ele>
        <time>2017-10-01T07:26:44.000Z</time>
      </trkpt>
      <trkpt lat="45.01395" lon="1.09823">
        <ele>137</ele>
        <time>2017-10-01T07:26:44.000Z</time>
      </trkpt>
      <trkpt lat="45.01395" lon="1.09823">
        <ele>137</ele>
        <time>2017-10-01T07:26:44.000Z</time>
      </trkpt>
      <trkpt lat="45.01395" lon="1.09823">
        <ele>137</ele>
        <time>2017-10-01T07:26:44.000Z</time>
      </trkpt>
      <trkpt lat="45.01395" lon="1.09823">
        <ele>137</ele>
        <time>2017-10-01T07:26:44.000Z</time>
      </trkpt>
      <trkpt lat="45.01395" lon="1.09823">
        <ele>137</ele>
        <time>2017-10-01T07:26:44.000Z</time>
      </trkpt>
      <trkpt lat="45.01395" lon="1.09823">
        <ele>137</ele>
        <time>2017-10-01T07:26:44.000Z</time>
      </trkpt>
      <trkpt lat="45.01395" lon="1.09823">
        <ele>137</ele>
        <time>2017-10-01T07:26:44.000Z</time>
      </trkpt>
      <trkpt lat="45.01395" lon="1.09823">
        <ele>137</ele>
        <time>2017-10-01T07:26:44.000Z</time>
      </trkpt>
      <trkpt lat="45.01395" lon="1.09823">
        <ele>137</ele>
        <time>2017-10-01T07:26:44.000Z</time>
      </trkpt>
      <trkpt lat="45.01395" lon="1.09823">
        <ele>137</ele>
        <time>2017-10-01T07:26:44.000Z</time>
      </trkpt>
      <trkpt lat="45.01395" lon="1.09823">
        <ele>137</ele>
        <time>2017-10-01T07:26:44.000Z</time>
      </trkpt>
      <trkpt lat="45.01395" lon="1.09823">
        <ele>137</ele>
        <time>2017-10-01T07:26:44.000Z</time>
      </trkpt>
      <trkpt lat="45.01395" lon="1.09823">
        <ele>137</ele>
        <time>2017-10-01T07:26:44.000Z</time>
      </trkpt>
      <trkpt lat="45.01395" lon="1.09823">
        <ele>137</ele>
        <time>2017-10-01T07:26:44.000Z</time>
      </trkpt>
      <trkpt lat="45.01395" lon="1.09823">
        <ele>137</ele>
        <time>2017-10-01T07:26:44.000Z</time>
      </trkpt>
      <trkpt lat="45.01395" lon="1.09823">
        <ele>137</ele>
        <time>2017-10-01T07:26:44.000Z</time>
      </trkpt>
      <trkpt lat="45.01395" lon="1.09823">
        <ele>137</ele>
        <time>2017-10-01T07:26:44.000Z</time>
      </trkpt>
      <trkpt lat="45.01395" lon="1.09823">
        <ele>137</ele>
        <time>2017-10-01T07:26:44.000Z</time>
      </trkpt>
      <trkpt lat="45.01395" lon="1.09823">
        <ele>137</ele>
        <time>2017-10-01T07:26:44.000Z</time>
      </trkpt>
      <trkpt lat="45.01395" lon="1.09822">
        <ele>137</ele>
        <time>2017-10-01T07:26:45.000Z</time>
      </trkpt>
      <trkpt lat="45.01396" lon="1.09822">
        <ele>137</ele>
        <time>2017-10-01T07:26:47.000Z</time>
      </trkpt>
      <trkpt lat="45.01396" lon="1.09822">
        <ele>137</ele>
        <time>2017-10-01T07:26:47.000Z</time>
      </trkpt>
      <trkpt lat="45.01396" lon="1.09821">
        <ele>137</ele>
        <time>2017-10-01T07:26:48.000Z</time>
      </trkpt>
      <trkpt lat="45.01397" lon="1.09821">
        <ele>137</ele>
        <time>2017-10-01T07:26:49.000Z</time>
      </trkpt>
      <trkpt lat="45.01397" lon="1.0982">
        <ele>137</ele>
        <time>2017-10-01T07:26:50.000Z</time>
      </trkpt>
      <trkpt lat="45.01398" lon="1.09819">
        <ele>137</ele>
        <time>2017-10-01T07:26:51.000Z</time>
      </trkpt>
      <trkpt lat="45.01398" lon="1.09818">
        <ele>137</ele>
        <time>2017-10-01T07:26:52.000Z</time>
      </trkpt>
      <trkpt lat="45.01399" lon="1.09817">
        <ele>137</ele>
        <time>2017-10-01T07:26:53.000Z</time>
      </trkpt>
      <trkpt lat="45.014" lon="1.09816">
        <ele>137</ele>
        <time>2017-10-01T07:26:54.000Z</time>
      </trkpt>
      <trkpt lat="45.014" lon="1.09815">
        <ele>137</ele>
        <time>2017-10-01T07:26:55.000Z</time>
      </trkpt>
      <trkpt lat="45.01401" lon="1.09814">
        <ele>137</ele>
        <time>2017-10-01T07:26:56.000Z</time>
      </trkpt>
      <trkpt lat="45.01401" lon="1.09813">
        <ele>137</ele>
        <time>2017-10-01T07:26:57.000Z</time>
      </trkpt>
      <trkpt lat="45.01402" lon="1.09812">
        <ele>137</ele>
        <time>2017-10-01T07:26:58.000Z</time>
      </trkpt>
      <trkpt lat="45.01403" lon="1.0981">
        <ele>137</ele>
        <time>2017-10-01T07:26:59.000Z</time>
      </trkpt>
      <trkpt lat="45.01403" lon="1.09809">
        <ele>137</ele>
        <time>2017-10-01T07:27:00.000Z</time>
      </trkpt>
      <trkpt lat="45.01404" lon="1.09808">
        <ele>137</ele>
        <time>2017-10-01T07:27:01.000Z</time>
      </trkpt>
      <trkpt lat="45.01405" lon="1.09807">
        <ele>137</ele>
        <time>2017-10-01T07:27:02.000Z</time>
      </trkpt>
      <trkpt lat="45.01406" lon="1.09806">
        <ele>137</ele>
        <time>2017-10-01T07:27:03.000Z</time>
      </trkpt>
      <trkpt lat="45.01406" lon="1.09805">
        <ele>137</ele>
        <time>2017-10-01T07:27:04.000Z</time>
      </trkpt>
      <trkpt lat="45.01407" lon="1.09804">
        <ele>137</ele>
        <time>2017-10-01T07:27:05.000Z</time>
      </trkpt>
      <trkpt lat="45.01408" lon="1.09802">
        <ele>137</ele>
        <time>2017-10-01T07:27:06.000Z</time>
      </trkpt>
      <trkpt lat="45.01409" lon="1.09801">
        <ele>137</ele>
        <time>2017-10-01T07:27:07.000Z</time>
      </trkpt>
      <trkpt lat="45.0141" lon="1.098">
        <ele>137</ele>
        <time>2017-10-01T07:27:08.000Z</time>
      </trkpt>
      <trkpt lat="45.0141" lon="1.09799">
        <ele>137</ele>
        <time>2017-10-01T07:27:09.000Z</time>
      </trkpt>
      <trkpt lat="45.01411" lon="1.09798">
        <ele>137</ele>
        <time>2017-10-01T07:27:10.000Z</time>
      </trkpt>
      <trkpt lat="45.01412" lon="1.09797">
        <ele>137</ele>
        <time>2017-10-01T07:27:11.000Z</time>
      </trkpt>
      <trkpt lat="45.01412" lon="1.09796">
        <ele>137</ele>
        <time>2017-10-01T07:27:12.000Z</time>
      </trkpt>
      <trkpt lat="45.01412" lon="1.09794">
        <ele>137</ele>
        <time>2017-10-01T07:27:13.000Z</time>
      </trkpt>
      <trkpt lat="45.01413" lon="1.09793">
        <ele>137</ele>
        <time>2017-10-01T07:27:14.000Z</time>
      </trkpt>
      <trkpt lat="45.01413" lon="1.09792">
        <ele>137</ele>
        <time>2017-10-01T07:27:15.000Z</time>
      </trkpt>
      <trkpt lat="45.01414" lon="1.09791">
        <ele>137</ele>
        <time>2017-10-01T07:27:16.000Z</time>
      </trkpt>
      <trkpt lat="45.01414" lon="1.0979">
        <ele>137</ele>
        <time>2017-10-01T07:27:17.000Z</time>
      </trkpt>
      <trkpt lat="45.01415" lon="1.09789">
        <ele>137</ele>
        <time>2017-10-01T07:27:18.000Z</time>
      </trkpt>
      <trkpt lat="45.01416" lon="1.09787">
        <ele>137</ele>
        <time>2017-10-01T07:27:19.000Z</time>
      </trkpt>
      <trkpt lat="45.01416" lon="1.09786">
        <ele>137</ele>
        <time>2017-10-01T07:27:20.000Z</time>
      </trkpt>
      <trkpt lat="45.01417" lon="1.09785">
        <ele>136</ele>
        <time>2017-10-01T07:27:21.000Z</time>
      </trkpt>
      <trkpt lat="45.01417" lon="1.09784">
        <ele>136</ele>
        <time>2017-10-01T07:27:22.000Z</time>
      </trkpt>
      <trkpt lat="45.01418" lon="1.09782">
        <ele>136</ele>
        <time>2017-10-01T07:27:23.000Z</time>
      </trkpt>
      <trkpt lat="45.01418" lon="1.09781">
        <ele>136</ele>
        <time>2017-10-01T07:27:24.000Z</time>
      </trkpt>
      <trkpt lat="45.01419" lon="1.0978">
        <ele>136</ele>
        <time>2017-10-01T07:27:25.000Z</time>
      </trkpt>
      <trkpt lat="45.01419" lon="1.09778">
        <ele>136</ele>
        <time>2017-10-01T07:27:26.000Z</time>
      </trkpt>
      <trkpt lat="45.0142" lon="1.09777">
        <ele>136</ele>
        <time>2017-10-01T07:27:27.000Z</time>
      </trkpt>
      <trkpt lat="45.0142" lon="1.09775">
        <ele>136</ele>
        <time>2017-10-01T07:27:28.000Z</time>
      </trkpt>
      <trkpt lat="45.01421" lon="1.09774">
        <ele>136</ele>
        <time>2017-10-01T07:27:29.000Z</time>
      </trkpt>
      <trkpt lat="45.01422" lon="1.09772">
        <ele>136</ele>
        <time>2017-10-01T07:27:30.000Z</time>
      </trkpt>
      <trkpt lat="45.01423" lon="1.0977">
        <ele>136</ele>
        <time>2017-10-01T07:27:31.000Z</time>
      </trkpt>
      <trkpt lat="45.01425" lon="1.09767">
        <ele>136</ele>
        <time>2017-10-01T07:27:32.000Z</time>
      </trkpt>
      <trkpt lat="45.01426" lon="1.09765">
        <ele>136</ele>
        <time>2017-10-01T07:27:33.000Z</time>
      </trkpt>
      <trkpt lat="45.01427" lon="1.09763">
        <ele>136</ele>
        <time>2017-10-01T07:27:34.000Z</time>
      </trkpt>
      <trkpt lat="45.01428" lon="1.09761">
        <ele>136</ele>
        <time>2017-10-01T07:27:35.000Z</time>
      </trkpt>
      <trkpt lat="45.01428" lon="1.09759">
        <ele>136</ele>
        <time>2017-10-01T07:27:36.000Z</time>
      </trkpt>
      <trkpt lat="45.01429" lon="1.09757">
        <ele>136</ele>
        <time>2017-10-01T07:27:37.000Z</time>
      </trkpt>
      <trkpt lat="45.01429" lon="1.09755">
        <ele>136</ele>
        <time>2017-10-01T07:27:38.000Z</time>
      </trkpt>
      <trkpt lat="45.0143" lon="1.09753">
        <ele>136</ele>
        <time>2017-10-01T07:27:39.000Z</time>
      </trkpt>
      <trkpt lat="45.01431" lon="1.09751">
        <ele>136</ele>
        <time>2017-10-01T07:27:40.000Z</time>
      </trkpt>
      <trkpt lat="45.01432" lon="1.09749">
        <ele>136</ele>
        <time>2017-10-01T07:27:41.000Z</time>
      </trkpt>
      <trkpt lat="45.01433" lon="1.09747">
        <ele>136</ele>
        <time>2017-10-01T07:27:42.000Z</time>
      </trkpt>
      <trkpt lat="45.01434" lon="1.09746">
        <ele>136</ele>
        <time>2017-10-01T07:27:43.000Z</time>
      </trkpt>
      <trkpt lat="45.01436" lon="1.09744">
        <ele>136</ele>
        <time>2017-10-01T07:27:44.000Z</time>
      </trkpt>
      <trkpt lat="45.01437" lon="1.09743">
        <ele>136</ele>
        <time>2017-10-01T07:27:45.000Z</time>
      </trkpt>
      <trkpt lat="45.01438" lon="1.09743">
        <ele>137</ele>
        <time>2017-10-01T07:27:46.000Z</time>
      </trkpt>
      <trkpt lat="45.0144" lon="1.09742">
        <ele>137</ele>
        <time>2017-10-01T07:27:47.000Z</time>
      </trkpt>
      <trkpt lat="45.01441" lon="1.09742">
        <ele>137</ele>
        <time>2017-10-01T07:27:48.000Z</time>
      </trkpt>
      <trkpt lat="45.01442" lon="1.09742">
        <ele>137</ele>
        <time>2017-10-01T07:27:50.000Z</time>
      </trkpt>
      <trkpt lat="45.01442" lon="1.09743">
        <ele>137</ele>
        <time>2017-10-01T07:27:50.000Z</time>
      </trkpt>
      <trkpt lat="45.01443" lon="1.09743">
        <ele>137</ele>
        <time>2017-10-01T07:27:51.000Z</time>
      </trkpt>
      <trkpt lat="45.01444" lon="1.09743">
        <ele>137</ele>
        <time>2017-10-01T07:27:52.000Z</time>
      </trkpt>
      <trkpt lat="45.01445" lon="1.09744">
        <ele>138</ele>
        <time>2017-10-01T07:27:54.000Z</time>
      </trkpt>
      <trkpt lat="45.01445" lon="1.09744">
        <ele>138</ele>
        <time>2017-10-01T07:27:54.000Z</time>
      </trkpt>
      <trkpt lat="45.01446" lon="1.09745">
        <ele>138</ele>
        <time>2017-10-01T07:27:56.000Z</time>
      </trkpt>
      <trkpt lat="45.01446" lon="1.09745">
        <ele>138</ele>
        <time>2017-10-01T07:27:56.000Z</time>
      </trkpt>
      <trkpt lat="45.01447" lon="1.09745">
        <ele>138</ele>
        <time>2017-10-01T07:27:57.000Z</time>
      </trkpt>
      <trkpt lat="45.01447" lon="1.09746">
        <ele>138</ele>
        <time>2017-10-01T07:28:00.000Z</time>
      </trkpt>
      <trkpt lat="45.01447" lon="1.09746">
        <ele>138</ele>
        <time>2017-10-01T07:28:00.000Z</time>
      </trkpt>
      <trkpt lat="45.01447" lon="1.09746">
        <ele>138</ele>
        <time>2017-10-01T07:28:00.000Z</time>
      </trkpt>
      <trkpt lat="45.01448" lon="1.09746">
        <ele>138</ele>
        <time>2017-10-01T07:28:01.000Z</time>
      </trkpt>
      <trkpt lat="45.01448" lon="1.09747">
        <ele>138</ele>
        <time>2017-10-01T07:28:16.000Z</time>
      </trkpt>
      <trkpt lat="45.01448" lon="1.09747">
        <ele>138</ele>
        <time>2017-10-01T07:28:16.000Z</time>
      </trkpt>
      <trkpt lat="45.01448" lon="1.09747">
        <ele>138</ele>
        <time>2017-10-01T07:28:16.000Z</time>
      </trkpt>
      <trkpt lat="45.01448" lon="1.09747">
        <ele>138</ele>
        <time>2017-10-01T07:28:16.000Z</time>
      </trkpt>
      <trkpt lat="45.01448" lon="1.09747">
        <ele>138</ele>
        <time>2017-10-01T07:28:16.000Z</time>
      </trkpt>
      <trkpt lat="45.01448" lon="1.09747">
        <ele>138</ele>
        <time>2017-10-01T07:28:16.000Z</time>
      </trkpt>
      <trkpt lat="45.01448" lon="1.09747">
        <ele>138</ele>
        <time>2017-10-01T07:28:16.000Z</time>
      </trkpt>
      <trkpt lat="45.01448" lon="1.09747">
        <ele>138</ele>
        <time>2017-10-01T07:28:16.000Z</time>
      </trkpt>
      <trkpt lat="45.01448" lon="1.09747">
        <ele>138</ele>
        <time>2017-10-01T07:28:16.000Z</time>
      </trkpt>
      <trkpt lat="45.01448" lon="1.09747">
        <ele>138</ele>
        <time>2017-10-01T07:28:16.000Z</time>
      </trkpt>
      <trkpt lat="45.01448" lon="1.09747">
        <ele>138</ele>
        <time>2017-10-01T07:28:16.000Z</time>
      </trkpt>
      <trkpt lat="45.01448" lon="1.09747">
        <ele>138</ele>
        <time>2017-10-01T07:28:16.000Z</time>
      </trkpt>
      <trkpt lat="45.01448" lon="1.09747">
        <ele>138</ele>
        <time>2017-10-01T07:28:16.000Z</time>
      </trkpt>
      <trkpt lat="45.01448" lon="1.09747">
        <ele>138</ele>
        <time>2017-10-01T07:28:16.000Z</time>
      </trkpt>
      <trkpt lat="45.01448" lon="1.09747">
        <ele>138</ele>
        <time>2017-10-01T07:28:16.000Z</time>
      </trkpt>
      <trkpt lat="45.01449" lon="1.09748">
        <ele>138</ele>
        <time>2017-10-01T07:28:18.000Z</time>
      </trkpt>
      <trkpt lat="45.01449" lon="1.09748">
        <ele>138</ele>
        <time>2017-10-01T07:28:18.000Z</time>
      </trkpt>
      <trkpt lat="45.0145" lon="1.09749">
        <ele>139</ele>
        <time>2017-10-01T07:28:19.000Z</time>
      </trkpt>
      <trkpt lat="45.01451" lon="1.09751">
        <ele>139</ele>
        <time>2017-10-01T07:28:20.000Z</time>
      </trkpt>
      <trkpt lat="45.01452" lon="1.09752">
        <ele>139</ele>
        <time>2017-10-01T07:28:21.000Z</time>
      </trkpt>
      <trkpt lat="45.01452" lon="1.09753">
        <ele>139</ele>
        <time>2017-10-01T07:28:22.000Z</time>
      </trkpt>
      <trkpt lat="45.01453" lon="1.09753">
        <ele>139</ele>
        <time>2017-10-01T07:28:23.000Z</time>
      </trkpt>
      <trkpt lat="45.01454" lon="1.09754">
        <ele>140</ele>
        <time>2017-10-01T07:28:24.000Z</time>
      </trkpt>
      <trkpt lat="45.01455" lon="1.09755">
        <ele>140</ele>
        <time>2017-10-01T07:28:25.000Z</time>
      </trkpt>
      <trkpt lat="45.01456" lon="1.09757">
        <ele>140</ele>
        <time>2017-10-01T07:28:26.000Z</time>
      </trkpt>
      <trkpt lat="45.01458" lon="1.09758">
        <ele>141</ele>
        <time>2017-10-01T07:28:27.000Z</time>
      </trkpt>
      <trkpt lat="45.0146" lon="1.0976">
        <ele>141</ele>
        <time>2017-10-01T07:28:28.000Z</time>
      </trkpt>
      <trkpt lat="45.01461" lon="1.09761">
        <ele>141</ele>
        <time>2017-10-01T07:28:29.000Z</time>
      </trkpt>
      <trkpt lat="45.01463" lon="1.09763">
        <ele>142</ele>
        <time>2017-10-01T07:28:30.000Z</time>
      </trkpt>
      <trkpt lat="45.01464" lon="1.09764">
        <ele>142</ele>
        <time>2017-10-01T07:28:31.000Z</time>
      </trkpt>
      <trkpt lat="45.01466" lon="1.09766">
        <ele>142</ele>
        <time>2017-10-01T07:28:32.000Z</time>
      </trkpt>
      <trkpt lat="45.01468" lon="1.09767">
        <ele>143</ele>
        <time>2017-10-01T07:28:33.000Z</time>
      </trkpt>
      <trkpt lat="45.01469" lon="1.09769">
        <ele>143</ele>
        <time>2017-10-01T07:28:34.000Z</time>
      </trkpt>
      <trkpt lat="45.0147" lon="1.0977">
        <ele>143</ele>
        <time>2017-10-01T07:28:35.000Z</time>
      </trkpt>
      <trkpt lat="45.01472" lon="1.09771">
        <ele>143</ele>
        <time>2017-10-01T07:28:36.000Z</time>
      </trkpt>
      <trkpt lat="45.01473" lon="1.09772">
        <ele>144</ele>
        <time>2017-10-01T07:28:37.000Z</time>
      </trkpt>
      <trkpt lat="45.01474" lon="1.09773">
        <ele>144</ele>
        <time>2017-10-01T07:28:38.000Z</time>
      </trkpt>
      <trkpt lat="45.01476" lon="1.09775">
        <ele>144</ele>
        <time>2017-10-01T07:28:39.000Z</time>
      </trkpt>
      <trkpt lat="45.01477" lon="1.09776">
        <ele>144</ele>
        <time>2017-10-01T07:28:40.000Z</time>
      </trkpt>
      <trkpt lat="45.01478" lon="1.09777">
        <ele>145</ele>
        <time>2017-10-01T07:28:41.000Z</time>
      </trkpt>
      <trkpt lat="45.0148" lon="1.09779">
        <ele>145</ele>
        <time>2017-10-01T07:28:42.000Z</time>
      </trkpt>
      <trkpt lat="45.01482" lon="1.0978">
        <ele>145</ele>
        <time>2017-10-01T07:28:43.000Z</time>
      </trkpt>
      <trkpt lat="45.01483" lon="1.09782">
        <ele>146</ele>
        <time>2017-10-01T07:28:44.000Z</time>
      </trkpt>
      <trkpt lat="45.01485" lon="1.09783">
        <ele>146</ele>
        <time>2017-10-01T07:28:45.000Z</time>
      </trkpt>
      <trkpt lat="45.01487" lon="1.09785">
        <ele>146</ele>
        <time>2017-10-01T07:28:46.000Z</time>
      </trkpt>
      <trkpt lat="45.01488" lon="1.09787">
        <ele>147</ele>
        <time>2017-10-01T07:28:47.000Z</time>
      </trkpt>
      <trkpt lat="45.0149" lon="1.09788">
        <ele>147</ele>
        <time>2017-10-01T07:28:48.000Z</time>
      </trkpt>
      <trkpt lat="45.01491" lon="1.0979">
        <ele>147</ele>
        <time>2017-10-01T07:28:49.000Z</time>
      </trkpt>
      <trkpt lat="45.01492" lon="1.09791">
        <ele>147</ele>
        <time>2017-10-01T07:28:50.000Z</time>
      </trkpt>
      <trkpt lat="45.01494" lon="1.09793">
        <ele>148</ele>
        <time>2017-10-01T07:28:51.000Z</time>
      </trkpt>
      <trkpt lat="45.01495" lon="1.09794">
        <ele>148</ele>
        <time>2017-10-01T07:28:52.000Z</time>
      </trkpt>
      <trkpt lat="45.01496" lon="1.09795">
        <ele>148</ele>
        <time>2017-10-01T07:28:53.000Z</time>
      </trkpt>
      <trkpt lat="45.01498" lon="1.09796">
        <ele>148</ele>
        <time>2017-10-01T07:28:54.000Z</time>
      </trkpt>
      <trkpt lat="45.01499" lon="1.09797">
        <ele>149</ele>
        <time>2017-10-01T07:28:55.000Z</time>
      </trkpt>
      <trkpt lat="45.01501" lon="1.09798">
        <ele>149</ele>
        <time>2017-10-01T07:28:56.000Z</time>
      </trkpt>
      <trkpt lat="45.01503" lon="1.09799">
        <ele>149</ele>
        <time>2017-10-01T07:28:57.000Z</time>
      </trkpt>
      <trkpt lat="45.01504" lon="1.09801">
        <ele>149</ele>
        <time>2017-10-01T07:28:58.000Z</time>
      </trkpt>
      <trkpt lat="45.01506" lon="1.09802">
        <ele>150</ele>
        <time>2017-10-01T07:28:59.000Z</time>
      </trkpt>
      <trkpt lat="45.01508" lon="1.09803">
        <ele>150</ele>
        <time>2017-10-01T07:29:00.000Z</time>
      </trkpt>
      <trkpt lat="45.0151" lon="1.09805">
        <ele>150</ele>
        <time>2017-10-01T07:29:01.000Z</time>
      </trkpt>
      <trkpt lat="45.01511" lon="1.09806">
        <ele>151</ele>
        <time>2017-10-01T07:29:02.000Z</time>
      </trkpt>
      <trkpt lat="45.01513" lon="1.09807">
        <ele>151</ele>
        <time>2017-10-01T07:29:03.000Z</time>
      </trkpt>
      <trkpt lat="45.01515" lon="1.09808">
        <ele>151</ele>
        <time>2017-10-01T07:29:04.000Z</time>
      </trkpt>
      <trkpt lat="45.01517" lon="1.0981">
        <ele>151</ele>
        <time>2017-10-01T07:29:05.000Z</time>
      </trkpt>
      <trkpt lat="45.01518" lon="1.09811">
        <ele>151</ele>
        <time>2017-10-01T07:29:06.000Z</time>
      </trkpt>
      <trkpt lat="45.0152" lon="1.09812">
        <ele>152</ele>
        <time>2017-10-01T07:29:07.000Z</time>
      </trkpt>
      <trkpt lat="45.01522" lon="1.09813">
        <ele>152</ele>
        <time>2017-10-01T07:29:08.000Z</time>
      </trkpt>
      <trkpt lat="45.01524" lon="1.09815">
        <ele>152</ele>
        <time>2017-10-01T07:29:09.000Z</time>
      </trkpt>
      <trkpt lat="45.01526" lon="1.09816">
        <ele>152</ele>
        <time>2017-10-01T07:29:10.000Z</time>
      </trkpt>
      <trkpt lat="45.01527" lon="1.09817">
        <ele>153</ele>
        <time>2017-10-01T07:29:11.000Z</time>
      </trkpt>
      <trkpt lat="45.01529" lon="1.09818">
        <ele>153</ele>
        <time>2017-10-01T07:29:12.000Z</time>
      </trkpt>
      <trkpt lat="45.01531" lon="1.09819">
        <ele>153</ele>
        <time>2017-10-01T07:29:13.000Z</time>
      </trkpt>
      <trkpt lat="45.01533" lon="1.0982">
        <ele>153</ele>
        <time>2017-10-01T07:29:14.000Z</time>
      </trkpt>
      <trkpt lat="45.01534" lon="1.09822">
        <ele>153</ele>
        <time>2017-10-01T07:29:15.000Z</time>
      </trkpt>
      <trkpt lat="45.01536" lon="1.09823">
        <ele>154</ele>
        <time>2017-10-01T07:29:16.000Z</time>
      </trkpt>
      <trkpt lat="45.01537" lon="1.09824">
        <ele>154</ele>
        <time>2017-10-01T07:29:17.000Z</time>
      </trkpt>
      <trkpt lat="45.01539" lon="1.09825">
        <ele>154</ele>
        <time>2017-10-01T07:29:18.000Z</time>
      </trkpt>
      <trkpt lat="45.01541" lon="1.09827">
        <ele>154</ele>
        <time>2017-10-01T07:29:19.000Z</time>
      </trkpt>
      <trkpt lat="45.01542" lon="1.09828">
        <ele>154</ele>
        <time>2017-10-01T07:29:20.000Z</time>
      </trkpt>
      <trkpt lat="45.01544" lon="1.09829">
        <ele>155</ele>
        <time>2017-10-01T07:29:21.000Z</time>
      </trkpt>
      <trkpt lat="45.01545" lon="1.0983">
        <ele>155</ele>
        <time>2017-10-01T07:29:22.000Z</time>
      </trkpt>
      <trkpt lat="45.01547" lon="1.09831">
        <ele>155</ele>
        <time>2017-10-01T07:29:23.000Z</time>
      </trkpt>
      <trkpt lat="45.01548" lon="1.09832">
        <ele>155</ele>
        <time>2017-10-01T07:29:24.000Z</time>
      </trkpt>
      <trkpt lat="45.0155" lon="1.09833">
        <ele>155</ele>
        <time>2017-10-01T07:29:25.000Z</time>
      </trkpt>
      <trkpt lat="45.01551" lon="1.09833">
        <ele>155</ele>
        <time>2017-10-01T07:29:26.000Z</time>
      </trkpt>
      <trkpt lat="45.01553" lon="1.09834">
        <ele>156</ele>
        <time>2017-10-01T07:29:27.000Z</time>
      </trkpt>
      <trkpt lat="45.01555" lon="1.09835">
        <ele>156</ele>
        <time>2017-10-01T07:29:28.000Z</time>
      </trkpt>
      <trkpt lat="45.01557" lon="1.09835">
        <ele>156</ele>
        <time>2017-10-01T07:29:29.000Z</time>
      </trkpt>
      <trkpt lat="45.01558" lon="1.09836">
        <ele>156</ele>
        <time>2017-10-01T07:29:30.000Z</time>
      </trkpt>
      <trkpt lat="45.0156" lon="1.09836">
        <ele>156</ele>
        <time>2017-10-01T07:29:31.000Z</time>
      </trkpt>
      <trkpt lat="45.01563" lon="1.09836">
        <ele>157</ele>
        <time>2017-10-01T07:29:32.000Z</time>
      </trkpt>
      <trkpt lat="45.01565" lon="1.09836">
        <ele>157</ele>
        <time>2017-10-01T07:29:33.000Z</time>
      </trkpt>
      <trkpt lat="45.01567" lon="1.09836">
        <ele>157</ele>
        <time>2017-10-01T07:29:34.000Z</time>
      </trkpt>
      <trkpt lat="45.01569" lon="1.09835">
        <ele>157</ele>
        <time>2017-10-01T07:29:35.000Z</time>
      </trkpt>
      <trkpt lat="45.0157" lon="1.09834">
        <ele>157</ele>
        <time>2017-10-01T07:29:36.000Z</time>
      </trkpt>
      <trkpt lat="45.01572" lon="1.09833">
        <ele>157</ele>
        <time>2017-10-01T07:29:37.000Z</time>
      </trkpt>
      <trkpt lat="45.01574" lon="1.09832">
        <ele>158</ele>
        <time>2017-10-01T07:29:38.000Z</time>
      </trkpt>
      <trkpt lat="45.01576" lon="1.0983">
        <ele>158</ele>
        <time>2017-10-01T07:29:39.000Z</time>
      </trkpt>
      <trkpt lat="45.01578" lon="1.09829">
        <ele>158</ele>
        <time>2017-10-01T07:29:40.000Z</time>
      </trkpt>
      <trkpt lat="45.0158" lon="1.09827">
        <ele>158</ele>
        <time>2017-10-01T07:29:41.000Z</time>
      </trkpt>
      <trkpt lat="45.01582" lon="1.09826">
        <ele>158</ele>
        <time>2017-10-01T07:29:42.000Z</time>
      </trkpt>
      <trkpt lat="45.01583" lon="1.09824">
        <ele>159</ele>
        <time>2017-10-01T07:29:43.000Z</time>
      </trkpt>
      <trkpt lat="45.01585" lon="1.09822">
        <ele>159</ele>
        <time>2017-10-01T07:29:44.000Z</time>
      </trkpt>
      <trkpt lat="45.01587" lon="1.09821">
        <ele>159</ele>
        <time>2017-10-01T07:29:45.000Z</time>
      </trkpt>
      <trkpt lat="45.01589" lon="1.09819">
        <ele>159</ele>
        <time>2017-10-01T07:29:46.000Z</time>
      </trkpt>
      <trkpt lat="45.01591" lon="1.09817">
        <ele>159</ele>
        <time>2017-10-01T07:29:47.000Z</time>
      </trkpt>
      <trkpt lat="45.01592" lon="1.09816">
        <ele>159</ele>
        <time>2017-10-01T07:29:48.000Z</time>
      </trkpt>
      <trkpt lat="45.01594" lon="1.09814">
        <ele>159</ele>
        <time>2017-10-01T07:29:49.000Z</time>
      </trkpt>
      <trkpt lat="45.01596" lon="1.09813">
        <ele>160</ele>
        <time>2017-10-01T07:29:50.000Z</time>
      </trkpt>
      <trkpt lat="45.01598" lon="1.09811">
        <ele>160</ele>
        <time>2017-10-01T07:29:51.000Z</time>
      </trkpt>
      <trkpt lat="45.016" lon="1.09809">
        <ele>160</ele>
        <time>2017-10-01T07:29:52.000Z</time>
      </trkpt>
      <trkpt lat="45.01602" lon="1.09808">
        <ele>160</ele>
        <time>2017-10-01T07:29:53.000Z</time>
      </trkpt>
      <trkpt lat="45.01604" lon="1.09806">
        <ele>160</ele>
        <time>2017-10-01T07:29:54.000Z</time>
      </trkpt>
      <trkpt lat="45.01606" lon="1.09804">
        <ele>160</ele>
        <time>2017-10-01T07:29:55.000Z</time>
      </trkpt>
      <trkpt lat="45.01608" lon="1.09803">
        <ele>161</ele>
        <time>2017-10-01T07:29:56.000Z</time>
      </trkpt>
      <trkpt lat="45.0161" lon="1.09801">
        <ele>161</ele>
        <time>2017-10-01T07:29:57.000Z</time>
      </trkpt>
      <trkpt lat="45.01612" lon="1.09799">
        <ele>161</ele>
        <time>2017-10-01T07:29:58.000Z</time>
      </trkpt>
      <trkpt lat="45.01614" lon="1.09798">
        <ele>161</ele>
        <time>2017-10-01T07:29:59.000Z</time>
      </trkpt>
      <trkpt lat="45.01617" lon="1.09796">
        <ele>161</ele>
        <time>2017-10-01T07:30:00.000Z</time>
      </trkpt>
      <trkpt lat="45.01619" lon="1.09795">
        <ele>162</ele>
        <time>2017-10-01T07:30:01.000Z</time>
      </trkpt>
      <trkpt lat="45.01621" lon="1.09793">
        <ele>162</ele>
        <time>2017-10-01T07:30:02.000Z</time>
      </trkpt>
      <trkpt lat="45.01623" lon="1.09791">
        <ele>162</ele>
        <time>2017-10-01T07:30:03.000Z</time>
      </trkpt>
      <trkpt lat="45.01625" lon="1.09789">
        <ele>162</ele>
        <time>2017-10-01T07:30:04.000Z</time>
      </trkpt>
      <trkpt lat="45.01627" lon="1.09788">
        <ele>163</ele>
        <time>2017-10-01T07:30:05.000Z</time>
      </trkpt>
      <trkpt lat="45.01629" lon="1.09786">
        <ele>163</ele>
        <time>2017-10-01T07:30:06.000Z</time>
      </trkpt>
      <trkpt lat="45.01632" lon="1.09784">
        <ele>163</ele>
        <time>2017-10-01T07:30:07.000Z</time>
      </trkpt>
      <trkpt lat="45.01634" lon="1.09782">
        <ele>163</ele>
        <time>2017-10-01T07:30:08.000Z</time>
      </trkpt>
      <trkpt lat="45.01636" lon="1.0978">
        <ele>164</ele>
        <time>2017-10-01T07:30:09.000Z</time>
      </trkpt>
      <trkpt lat="45.01638" lon="1.09778">
        <ele>164</ele>
        <time>2017-10-01T07:30:10.000Z</time>
      </trkpt>
      <trkpt lat="45.0164" lon="1.09776">
        <ele>164</ele>
        <time>2017-10-01T07:30:11.000Z</time>
      </trkpt>
      <trkpt lat="45.01642" lon="1.09774">
        <ele>164</ele>
        <time>2017-10-01T07:30:12.000Z</time>
      </trkpt>
      <trkpt lat="45.01644" lon="1.09772">
        <ele>165</ele>
        <time>2017-10-01T07:30:13.000Z</time>
      </trkpt>
      <trkpt lat="45.01646" lon="1.0977">
        <ele>165</ele>
        <time>2017-10-01T07:30:14.000Z</time>
      </trkpt>
      <trkpt lat="45.01648" lon="1.09768">
        <ele>165</ele>
        <time>2017-10-01T07:30:15.000Z</time>
      </trkpt>
      <trkpt lat="45.0165" lon="1.09766">
        <ele>165</ele>
        <time>2017-10-01T07:30:16.000Z</time>
      </trkpt>
      <trkpt lat="45.01652" lon="1.09765">
        <ele>166</ele>
        <time>2017-10-01T07:30:17.000Z</time>
      </trkpt>
      <trkpt lat="45.01654" lon="1.09763">
        <ele>166</ele>
        <time>2017-10-01T07:30:18.000Z</time>
      </trkpt>
      <trkpt lat="45.01656" lon="1.09761">
        <ele>166</ele>
        <time>2017-10-01T07:30:19.000Z</time>
      </trkpt>
      <trkpt lat="45.01658" lon="1.09759">
        <ele>166</ele>
        <time>2017-10-01T07:30:20.000Z</time>
      </trkpt>
      <trkpt lat="45.0166" lon="1.09757">
        <ele>167</ele>
        <time>2017-10-01T07:30:21.000Z</time>
      </trkpt>
      <trkpt lat="45.01662" lon="1.09755">
        <ele>167</ele>
        <time>2017-10-01T07:30:22.000Z</time>
      </trkpt>
      <trkpt lat="45.01663" lon="1.09754">
        <ele>167</ele>
        <time>2017-10-01T07:30:24.000Z</time>
      </trkpt>
      <trkpt lat="45.01663" lon="1.09754">
        <ele>167</ele>
        <time>2017-10-01T07:30:24.000Z</time>
      </trkpt>
      <trkpt lat="45.01663" lon="1.09753">
        <ele>167</ele>
        <time>2017-10-01T07:30:25.000Z</time>
      </trkpt>
      <trkpt lat="45.01664" lon="1.09752">
        <ele>167</ele>
        <time>2017-10-01T07:30:26.000Z</time>
      </trkpt>
      <trkpt lat="45.01666" lon="1.09751">
        <ele>167</ele>
        <time>2017-10-01T07:30:27.000Z</time>
      </trkpt>
      <trkpt lat="45.01668" lon="1.09749">
        <ele>168</ele>
        <time>2017-10-01T07:30:28.000Z</time>
      </trkpt>
      <trkpt lat="45.0167" lon="1.09747">
        <ele>168</ele>
        <time>2017-10-01T07:30:29.000Z</time>
      </trkpt>
      <trkpt lat="45.01672" lon="1.09745">
        <ele>168</ele>
        <time>2017-10-01T07:30:30.000Z</time>
      </trkpt>
      <trkpt lat="45.01674" lon="1.09743">
        <ele>168</ele>
        <time>2017-10-01T07:30:31.000Z</time>
      </trkpt>
      <trkpt lat="45.01676" lon="1.09741">
        <ele>168</ele>
        <time>2017-10-01T07:30:32.000Z</time>
      </trkpt>
      <trkpt lat="45.01678" lon="1.09739">
        <ele>169</ele>
        <time>2017-10-01T07:30:33.000Z</time>
      </trkpt>
      <trkpt lat="45.0168" lon="1.09737">
        <ele>169</ele>
        <time>2017-10-01T07:30:34.000Z</time>
      </trkpt>
      <trkpt lat="45.01682" lon="1.09735">
        <ele>169</ele>
        <time>2017-10-01T07:30:35.000Z</time>
      </trkpt>
      <trkpt lat="45.01684" lon="1.09733">
        <ele>169</ele>
        <time>2017-10-01T07:30:36.000Z</time>
      </trkpt>
      <trkpt lat="45.01687" lon="1.09731">
        <ele>169</ele>
        <time>2017-10-01T07:30:37.000Z</time>
      </trkpt>
      <trkpt lat="45.01689" lon="1.09729">
        <ele>170</ele>
        <time>2017-10-01T07:30:38.000Z</time>
      </trkpt>
      <trkpt lat="45.01689" lon="1.09728">
        <ele>170</ele>
        <time>2017-10-01T07:30:40.000Z</time>
      </trkpt>
      <trkpt lat="45.01689" lon="1.09728">
        <ele>170</ele>
        <time>2017-10-01T07:30:40.000Z</time>
      </trkpt>
      <trkpt lat="45.0169" lon="1.09728">
        <ele>170</ele>
        <time>2017-10-01T07:30:41.000Z</time>
      </trkpt>
      <trkpt lat="45.01691" lon="1.09727">
        <ele>170</ele>
        <time>2017-10-01T07:30:42.000Z</time>
      </trkpt>
      <trkpt lat="45.01694" lon="1.09725">
        <ele>170</ele>
        <time>2017-10-01T07:30:43.000Z</time>
      </trkpt>
      <trkpt lat="45.01697" lon="1.09721">
        <ele>170</ele>
        <time>2017-10-01T07:30:44.000Z</time>
      </trkpt>
      <trkpt lat="45.017" lon="1.09719">
        <ele>171</ele>
        <time>2017-10-01T07:30:47.000Z</time>
      </trkpt>
      <trkpt lat="45.017" lon="1.09719">
        <ele>171</ele>
        <time>2017-10-01T07:30:47.000Z</time>
      </trkpt>
      <trkpt lat="45.017" lon="1.09719">
        <ele>171</ele>
        <time>2017-10-01T07:30:47.000Z</time>
      </trkpt>
      <trkpt lat="45.017" lon="1.09718">
        <ele>171</ele>
        <time>2017-10-01T07:30:48.000Z</time>
      </trkpt>
      <trkpt lat="45.01702" lon="1.09717">
        <ele>171</ele>
        <time>2017-10-01T07:30:49.000Z</time>
      </trkpt>
      <trkpt lat="45.01703" lon="1.09715">
        <ele>171</ele>
        <time>2017-10-01T07:30:50.000Z</time>
      </trkpt>
      <trkpt lat="45.01706" lon="1.09712">
        <ele>171</ele>
        <time>2017-10-01T07:30:51.000Z</time>
      </trkpt>
      <trkpt lat="45.01709" lon="1.0971">
        <ele>172</ele>
        <time>2017-10-01T07:30:52.000Z</time>
      </trkpt>
      <trkpt lat="45.01711" lon="1.09707">
        <ele>172</ele>
        <time>2017-10-01T07:30:53.000Z</time>
      </trkpt>
      <trkpt lat="45.01714" lon="1.09704">
        <ele>172</ele>
        <time>2017-10-01T07:30:54.000Z</time>
      </trkpt>
      <trkpt lat="45.01717" lon="1.09702">
        <ele>173</ele>
        <time>2017-10-01T07:30:55.000Z</time>
      </trkpt>
      <trkpt lat="45.0172" lon="1.097">
        <ele>173</ele>
        <time>2017-10-01T07:30:56.000Z</time>
      </trkpt>
      <trkpt lat="45.01723" lon="1.09698">
        <ele>173</ele>
        <time>2017-10-01T07:30:57.000Z</time>
      </trkpt>
      <trkpt lat="45.01726" lon="1.09696">
        <ele>174</ele>
        <time>2017-10-01T07:30:58.000Z</time>
      </trkpt>
      <trkpt lat="45.01729" lon="1.09694">
        <ele>174</ele>
        <time>2017-10-01T07:30:59.000Z</time>
      </trkpt>
      <trkpt lat="45.01731" lon="1.09693">
        <ele>174</ele>
        <time>2017-10-01T07:31:00.000Z</time>
      </trkpt>
      <trkpt lat="45.01734" lon="1.09691">
        <ele>175</ele>
        <time>2017-10-01T07:31:01.000Z</time>
      </trkpt>
      <trkpt lat="45.01737" lon="1.09689">
        <ele>175</ele>
        <time>2017-10-01T07:31:02.000Z</time>
      </trkpt>
      <trkpt lat="45.0174" lon="1.09688">
        <ele>175</ele>
        <time>2017-10-01T07:31:03.000Z</time>
      </trkpt>
      <trkpt lat="45.01743" lon="1.09686">
        <ele>176</ele>
        <time>2017-10-01T07:31:04.000Z</time>
      </trkpt>
      <trkpt lat="45.01745" lon="1.09685">
        <ele>176</ele>
        <time>2017-10-01T07:31:05.000Z</time>
      </trkpt>
      <trkpt lat="45.01748" lon="1.09684">
        <ele>176</ele>
        <time>2017-10-01T07:31:06.000Z</time>
      </trkpt>
      <trkpt lat="45.01751" lon="1.09682">
        <ele>177</ele>
        <time>2017-10-01T07:31:07.000Z</time>
      </trkpt>
      <trkpt lat="45.01753" lon="1.09681">
        <ele>177</ele>
        <time>2017-10-01T07:31:08.000Z</time>
      </trkpt>
      <trkpt lat="45.01756" lon="1.0968">
        <ele>177</ele>
        <time>2017-10-01T07:31:09.000Z</time>
      </trkpt>
      <trkpt lat="45.01758" lon="1.09678">
        <ele>177</ele>
        <time>2017-10-01T07:31:10.000Z</time>
      </trkpt>
      <trkpt lat="45.01761" lon="1.09677">
        <ele>177</ele>
        <time>2017-10-01T07:31:11.000Z</time>
      </trkpt>
      <trkpt lat="45.01763" lon="1.09676">
        <ele>177</ele>
        <time>2017-10-01T07:31:12.000Z</time>
      </trkpt>
      <trkpt lat="45.01766" lon="1.09675">
        <ele>177</ele>
        <time>2017-10-01T07:31:13.000Z</time>
      </trkpt>
      <trkpt lat="45.01768" lon="1.09674">
        <ele>177</ele>
        <time>2017-10-01T07:31:14.000Z</time>
      </trkpt>
      <trkpt lat="45.0177" lon="1.09673">
        <ele>177</ele>
        <time>2017-10-01T07:31:15.000Z</time>
      </trkpt>
      <trkpt lat="45.01773" lon="1.09672">
        <ele>177</ele>
        <time>2017-10-01T07:31:16.000Z</time>
      </trkpt>
      <trkpt lat="45.01775" lon="1.09672">
        <ele>177</ele>
        <time>2017-10-01T07:31:17.000Z</time>
      </trkpt>
      <trkpt lat="45.01778" lon="1.09671">
        <ele>177</ele>
        <time>2017-10-01T07:31:18.000Z</time>
      </trkpt>
      <trkpt lat="45.0178" lon="1.09671">
        <ele>177</ele>
        <time>2017-10-01T07:31:19.000Z</time>
      </trkpt>
      <trkpt lat="45.01783" lon="1.0967">
        <ele>177</ele>
        <time>2017-10-01T07:31:20.000Z</time>
      </trkpt>
      <trkpt lat="45.01785" lon="1.0967">
        <ele>177</ele>
        <time>2017-10-01T07:31:21.000Z</time>
      </trkpt>
      <trkpt lat="45.01788" lon="1.09669">
        <ele>177</ele>
        <time>2017-10-01T07:31:22.000Z</time>
      </trkpt>
      <trkpt lat="45.0179" lon="1.09669">
        <ele>177</ele>
        <time>2017-10-01T07:31:23.000Z</time>
      </trkpt>
      <trkpt lat="45.01793" lon="1.09669">
        <ele>177</ele>
        <time>2017-10-01T07:31:24.000Z</time>
      </trkpt>
      <trkpt lat="45.01795" lon="1.09669">
        <ele>177</ele>
        <time>2017-10-01T07:31:25.000Z</time>
      </trkpt>
      <trkpt lat="45.01798" lon="1.09669">
        <ele>177</ele>
        <time>2017-10-01T07:31:26.000Z</time>
      </trkpt>
      <trkpt lat="45.01801" lon="1.09669">
        <ele>177</ele>
        <time>2017-10-01T07:31:27.000Z</time>
      </trkpt>
      <trkpt lat="45.01804" lon="1.09669">
        <ele>177</ele>
        <time>2017-10-01T07:31:28.000Z</time>
      </trkpt>
      <trkpt lat="45.01807" lon="1.09669">
        <ele>177</ele>
        <time>2017-10-01T07:31:29.000Z</time>
      </trkpt>
      <trkpt lat="45.0181" lon="1.0967">
        <ele>177</ele>
        <time>2017-10-01T07:31:30.000Z</time>
      </trkpt>
      <trkpt lat="45.01813" lon="1.0967">
        <ele>177</ele>
        <time>2017-10-01T07:31:31.000Z</time>
      </trkpt>
      <trkpt lat="45.01817" lon="1.09671">
        <ele>177</ele>
        <time>2017-10-01T07:31:32.000Z</time>
      </trkpt>
      <trkpt lat="45.0182" lon="1.09671">
        <ele>177</ele>
        <time>2017-10-01T07:31:33.000Z</time>
      </trkpt>
      <trkpt lat="45.01823" lon="1.09672">
        <ele>177</ele>
        <time>2017-10-01T07:31:34.000Z</time>
      </trkpt>
      <trkpt lat="45.01827" lon="1.09672">
        <ele>177</ele>
        <time>2017-10-01T07:31:35.000Z</time>
      </trkpt>
      <trkpt lat="45.0183" lon="1.09673">
        <ele>177</ele>
        <time>2017-10-01T07:31:36.000Z</time>
      </trkpt>
      <trkpt lat="45.01833" lon="1.09674">
        <ele>177</ele>
        <time>2017-10-01T07:31:37.000Z</time>
      </trkpt>
      <trkpt lat="45.01837" lon="1.09675">
        <ele>177</ele>
        <time>2017-10-01T07:31:38.000Z</time>
      </trkpt>
      <trkpt lat="45.0184" lon="1.09675">
        <ele>177</ele>
        <time>2017-10-01T07:31:39.000Z</time>
      </trkpt>
      <trkpt lat="45.01844" lon="1.09676">
        <ele>176</ele>
        <time>2017-10-01T07:31:40.000Z</time>
      </trkpt>
      <trkpt lat="45.01848" lon="1.09678">
        <ele>176</ele>
        <time>2017-10-01T07:31:41.000Z</time>
      </trkpt>
      <trkpt lat="45.01852" lon="1.09679">
        <ele>176</ele>
        <time>2017-10-01T07:31:42.000Z</time>
      </trkpt>
      <trkpt lat="45.01856" lon="1.0968">
        <ele>176</ele>
        <time>2017-10-01T07:31:43.000Z</time>
      </trkpt>
      <trkpt lat="45.0186" lon="1.09681">
        <ele>176</ele>
        <time>2017-10-01T07:31:44.000Z</time>
      </trkpt>
      <trkpt lat="45.01865" lon="1.09682">
        <ele>175</ele>
        <time>2017-10-01T07:31:45.000Z</time>
      </trkpt>
      <trkpt lat="45.01869" lon="1.09683">
        <ele>175</ele>
        <time>2017-10-01T07:31:46.000Z</time>
      </trkpt>
      <trkpt lat="45.01874" lon="1.09684">
        <ele>175</ele>
        <time>2017-10-01T07:31:47.000Z</time>
      </trkpt>
      <trkpt lat="45.01879" lon="1.09684">
        <ele>174</ele>
        <time>2017-10-01T07:31:48.000Z</time>
      </trkpt>
      <trkpt lat="45.01884" lon="1.09685">
        <ele>174</ele>
        <time>2017-10-01T07:31:49.000Z</time>
      </trkpt>
      <trkpt lat="45.01889" lon="1.09685">
        <ele>174</ele>
        <time>2017-10-01T07:31:50.000Z</time>
      </trkpt>
      <trkpt lat="45.01894" lon="1.09685">
        <ele>173</ele>
        <time>2017-10-01T07:31:51.000Z</time>
      </trkpt>
      <trkpt lat="45.01899" lon="1.09685">
        <ele>173</ele>
        <time>2017-10-01T07:31:52.000Z</time>
      </trkpt>
      <trkpt lat="45.01905" lon="1.09685">
        <ele>173</ele>
        <time>2017-10-01T07:31:53.000Z</time>
      </trkpt>
      <trkpt lat="45.0191" lon="1.09684">
        <ele>172</ele>
        <time>2017-10-01T07:31:54.000Z</time>
      </trkpt>
      <trkpt lat="45.01915" lon="1.09684">
        <ele>172</ele>
        <time>2017-10-01T07:31:55.000Z</time>
      </trkpt>
      <trkpt lat="45.0192" lon="1.09683">
        <ele>172</ele>
        <time>2017-10-01T07:31:56.000Z</time>
      </trkpt>
      <trkpt lat="45.01926" lon="1.09683">
        <ele>172</ele>
        <time>2017-10-01T07:31:57.000Z</time>
      </trkpt>
      <trkpt lat="45.01931" lon="1.09683">
        <ele>172</ele>
        <time>2017-10-01T07:31:58.000Z</time>
      </trkpt>
      <trkpt lat="45.01936" lon="1.09684">
        <ele>172</ele>
        <time>2017-10-01T07:31:59.000Z</time>
      </trkpt>
      <trkpt lat="45.01941" lon="1.09684">
        <ele>172</ele>
        <time>2017-10-01T07:32:00.000Z</time>
      </trkpt>
      <trkpt lat="45.01947" lon="1.09686">
        <ele>172</ele>
        <time>2017-10-01T07:32:01.000Z</time>
      </trkpt>
      <trkpt lat="45.01953" lon="1.09687">
        <ele>172</ele>
        <time>2017-10-01T07:32:02.000Z</time>
      </trkpt>
      <trkpt lat="45.01958" lon="1.09689">
        <ele>172</ele>
        <time>2017-10-01T07:32:03.000Z</time>
      </trkpt>
      <trkpt lat="45.01964" lon="1.09691">
        <ele>172</ele>
        <time>2017-10-01T07:32:04.000Z</time>
      </trkpt>
      <trkpt lat="45.0197" lon="1.09692">
        <ele>172</ele>
        <time>2017-10-01T07:32:05.000Z</time>
      </trkpt>
      <trkpt lat="45.01976" lon="1.09694">
        <ele>172</ele>
        <time>2017-10-01T07:32:06.000Z</time>
      </trkpt>
      <trkpt lat="45.01982" lon="1.09695">
        <ele>172</ele>
        <time>2017-10-01T07:32:07.000Z</time>
      </trkpt>
      <trkpt lat="45.01988" lon="1.09695">
        <ele>173</ele>
        <time>2017-10-01T07:32:08.000Z</time>
      </trkpt>
      <trkpt lat="45.01994" lon="1.09696">
        <ele>173</ele>
        <time>2017-10-01T07:32:09.000Z</time>
      </trkpt>
      <trkpt lat="45.02001" lon="1.09697">
        <ele>173</ele>
        <time>2017-10-01T07:32:10.000Z</time>
      </trkpt>
      <trkpt lat="45.02007" lon="1.09697">
        <ele>173</ele>
        <time>2017-10-01T07:32:11.000Z</time>
      </trkpt>
      <trkpt lat="45.02012" lon="1.09698">
        <ele>173</ele>
        <time>2017-10-01T07:32:12.000Z</time>
      </trkpt>
      <trkpt lat="45.02018" lon="1.09698">
        <ele>173</ele>
        <time>2017-10-01T07:32:13.000Z</time>
      </trkpt>
      <trkpt lat="45.02024" lon="1.09699">
        <ele>173</ele>
        <time>2017-10-01T07:32:14.000Z</time>
      </trkpt>
      <trkpt lat="45.02029" lon="1.09699">
        <ele>174</ele>
        <time>2017-10-01T07:32:15.000Z</time>
      </trkpt>
      <trkpt lat="45.02035" lon="1.097">
        <ele>174</ele>
        <time>2017-10-01T07:32:16.000Z</time>
      </trkpt>
      <trkpt lat="45.0204" lon="1.097">
        <ele>174</ele>
        <time>2017-10-01T07:32:17.000Z</time>
      </trkpt>
      <trkpt lat="45.02045" lon="1.09701">
        <ele>174</ele>
        <time>2017-10-01T07:32:18.000Z</time>
      </trkpt>
      <trkpt lat="45.0205" lon="1.09701">
        <ele>175</ele>
        <time>2017-10-01T07:32:19.000Z</time>
      </trkpt>
      <trkpt lat="45.02055" lon="1.09702">
        <ele>175</ele>
        <time>2017-10-01T07:32:20.000Z</time>
      </trkpt>
      <trkpt lat="45.0206" lon="1.09702">
        <ele>175</ele>
        <time>2017-10-01T07:32:21.000Z</time>
      </trkpt>
      <trkpt lat="45.02064" lon="1.09702">
        <ele>175</ele>
        <time>2017-10-01T07:32:22.000Z</time>
      </trkpt>
      <trkpt lat="45.02069" lon="1.09703">
        <ele>175</ele>
        <time>2017-10-01T07:32:23.000Z</time>
      </trkpt>
      <trkpt lat="45.02073" lon="1.09703">
        <ele>176</ele>
        <time>2017-10-01T07:32:24.000Z</time>
      </trkpt>
      <trkpt lat="45.02077" lon="1.09703">
        <ele>176</ele>
        <time>2017-10-01T07:32:25.000Z</time>
      </trkpt>
      <trkpt lat="45.02082" lon="1.09704">
        <ele>176</ele>
        <time>2017-10-01T07:32:26.000Z</time>
      </trkpt>
      <trkpt lat="45.02086" lon="1.09704">
        <ele>176</ele>
        <time>2017-10-01T07:32:27.000Z</time>
      </trkpt>
      <trkpt lat="45.0209" lon="1.09704">
        <ele>177</ele>
        <time>2017-10-01T07:32:28.000Z</time>
      </trkpt>
      <trkpt lat="45.02093" lon="1.09705">
        <ele>177</ele>
        <time>2017-10-01T07:32:29.000Z</time>
      </trkpt>
      <trkpt lat="45.02097" lon="1.09705">
        <ele>177</ele>
        <time>2017-10-01T07:32:30.000Z</time>
      </trkpt>
      <trkpt lat="45.02101" lon="1.09705">
        <ele>178</ele>
        <time>2017-10-01T07:32:31.000Z</time>
      </trkpt>
      <trkpt lat="45.02104" lon="1.09705">
        <ele>178</ele>
        <time>2017-10-01T07:32:32.000Z</time>
      </trkpt>
      <trkpt lat="45.02108" lon="1.09705">
        <ele>179</ele>
        <time>2017-10-01T07:32:33.000Z</time>
      </trkpt>
      <trkpt lat="45.02111" lon="1.09705">
        <ele>179</ele>
        <time>2017-10-01T07:32:34.000Z</time>
      </trkpt>
      <trkpt lat="45.02115" lon="1.09705">
        <ele>179</ele>
        <time>2017-10-01T07:32:35.000Z</time>
      </trkpt>
      <trkpt lat="45.02118" lon="1.09705">
        <ele>179</ele>
        <time>2017-10-01T07:32:36.000Z</time>
      </trkpt>
      <trkpt lat="45.02121" lon="1.09704">
        <ele>180</ele>
        <time>2017-10-01T07:32:37.000Z</time>
      </trkpt>
      <trkpt lat="45.02124" lon="1.09704">
        <ele>180</ele>
        <time>2017-10-01T07:32:38.000Z</time>
      </trkpt>
      <trkpt lat="45.02127" lon="1.09703">
        <ele>180</ele>
        <time>2017-10-01T07:32:39.000Z</time>
      </trkpt>
      <trkpt lat="45.02131" lon="1.09702">
        <ele>180</ele>
        <time>2017-10-01T07:32:40.000Z</time>
      </trkpt>
      <trkpt lat="45.02134" lon="1.09701">
        <ele>181</ele>
        <time>2017-10-01T07:32:41.000Z</time>
      </trkpt>
      <trkpt lat="45.02137" lon="1.097">
        <ele>181</ele>
        <time>2017-10-01T07:32:42.000Z</time>
      </trkpt>
      <trkpt lat="45.0214" lon="1.09699">
        <ele>181</ele>
        <time>2017-10-01T07:32:43.000Z</time>
      </trkpt>
      <trkpt lat="45.02143" lon="1.09698">
        <ele>181</ele>
        <time>2017-10-01T07:32:44.000Z</time>
      </trkpt>
      <trkpt lat="45.02146" lon="1.09697">
        <ele>182</ele>
        <time>2017-10-01T07:32:45.000Z</time>
      </trkpt>
      <trkpt lat="45.02149" lon="1.09696">
        <ele>182</ele>
        <time>2017-10-01T07:32:46.000Z</time>
      </trkpt>
      <trkpt lat="45.02152" lon="1.09695">
        <ele>182</ele>
        <time>2017-10-01T07:32:47.000Z</time>
      </trkpt>
      <trkpt lat="45.02155" lon="1.09695">
        <ele>182</ele>
        <time>2017-10-01T07:32:48.000Z</time>
      </trkpt>
      <trkpt lat="45.02157" lon="1.09694">
        <ele>183</ele>
        <time>2017-10-01T07:32:49.000Z</time>
      </trkpt>
      <trkpt lat="45.0216" lon="1.09693">
        <ele>183</ele>
        <time>2017-10-01T07:32:50.000Z</time>
      </trkpt>
      <trkpt lat="45.02163" lon="1.09692">
        <ele>183</ele>
        <time>2017-10-01T07:32:51.000Z</time>
      </trkpt>
      <trkpt lat="45.02166" lon="1.09691">
        <ele>183</ele>
        <time>2017-10-01T07:32:52.000Z</time>
      </trkpt>
      <trkpt lat="45.02168" lon="1.09691">
        <ele>184</ele>
        <time>2017-10-01T07:32:53.000Z</time>
      </trkpt>
      <trkpt lat="45.02171" lon="1.0969">
        <ele>184</ele>
        <time>2017-10-01T07:32:54.000Z</time>
      </trkpt>
      <trkpt lat="45.02173" lon="1.0969">
        <ele>185</ele>
        <time>2017-10-01T07:32:55.000Z</time>
      </trkpt>
      <trkpt lat="45.02175" lon="1.09689">
        <ele>185</ele>
        <time>2017-10-01T07:32:56.000Z</time>
      </trkpt>
      <trkpt lat="45.02178" lon="1.09689">
        <ele>186</ele>
        <time>2017-10-01T07:32:57.000Z</time>
      </trkpt>
      <trkpt lat="45.0218" lon="1.09689">
        <ele>186</ele>
        <time>2017-10-01T07:32:58.000Z</time>
      </trkpt>
      <trkpt lat="45.02182" lon="1.09689">
        <ele>186</ele>
        <time>2017-10-01T07:32:59.000Z</time>
      </trkpt>
      <trkpt lat="45.02184" lon="1.09689">
        <ele>187</ele>
        <time>2017-10-01T07:33:00.000Z</time>
      </trkpt>
      <trkpt lat="45.02186" lon="1.09688">
        <ele>187</ele>
        <time>2017-10-01T07:33:01.000Z</time>
      </trkpt>
      <trkpt lat="45.02188" lon="1.09688">
        <ele>188</ele>
        <time>2017-10-01T07:33:02.000Z</time>
      </trkpt>
      <trkpt lat="45.02189" lon="1.09688">
        <ele>188</ele>
        <time>2017-10-01T07:33:03.000Z</time>
      </trkpt>
      <trkpt lat="45.02191" lon="1.09688">
        <ele>188</ele>
        <time>2017-10-01T07:33:04.000Z</time>
      </trkpt>
      <trkpt lat="45.02193" lon="1.09688">
        <ele>189</ele>
        <time>2017-10-01T07:33:05.000Z</time>
      </trkpt>
      <trkpt lat="45.02194" lon="1.09688">
        <ele>189</ele>
        <time>2017-10-01T07:33:06.000Z</time>
      </trkpt>
      <trkpt lat="45.02196" lon="1.09687">
        <ele>189</ele>
        <time>2017-10-01T07:33:07.000Z</time>
      </trkpt>
      <trkpt lat="45.02197" lon="1.09687">
        <ele>190</ele>
        <time>2017-10-01T07:33:08.000Z</time>
      </trkpt>
      <trkpt lat="45.02199" lon="1.09687">
        <ele>190</ele>
        <time>2017-10-01T07:33:09.000Z</time>
      </trkpt>
      <trkpt lat="45.022" lon="1.09687">
        <ele>190</ele>
        <time>2017-10-01T07:33:10.000Z</time>
      </trkpt>
      <trkpt lat="45.02201" lon="1.09687">
        <ele>191</ele>
        <time>2017-10-01T07:33:11.000Z</time>
      </trkpt>
      <trkpt lat="45.02203" lon="1.09687">
        <ele>191</ele>
        <time>2017-10-01T07:33:12.000Z</time>
      </trkpt>
      <trkpt lat="45.02204" lon="1.09687">
        <ele>191</ele>
        <time>2017-10-01T07:33:13.000Z</time>
      </trkpt>
      <trkpt lat="45.02205" lon="1.09687">
        <ele>192</ele>
        <time>2017-10-01T07:33:14.000Z</time>
      </trkpt>
      <trkpt lat="45.02207" lon="1.09687">
        <ele>192</ele>
        <time>2017-10-01T07:33:15.000Z</time>
      </trkpt>
      <trkpt lat="45.02208" lon="1.09688">
        <ele>192</ele>
        <time>2017-10-01T07:33:16.000Z</time>
      </trkpt>
      <trkpt lat="45.0221" lon="1.09688">
        <ele>192</ele>
        <time>2017-10-01T07:33:17.000Z</time>
      </trkpt>
      <trkpt lat="45.02211" lon="1.09688">
        <ele>193</ele>
        <time>2017-10-01T07:33:18.000Z</time>
      </trkpt>
      <trkpt lat="45.02212" lon="1.09688">
        <ele>193</ele>
        <time>2017-10-01T07:33:19.000Z</time>
      </trkpt>
      <trkpt lat="45.02214" lon="1.09687">
        <ele>193</ele>
        <time>2017-10-01T07:33:20.000Z</time>
      </trkpt>
      <trkpt lat="45.02215" lon="1.09687">
        <ele>194</ele>
        <time>2017-10-01T07:33:21.000Z</time>
      </trkpt>
      <trkpt lat="45.02217" lon="1.09687">
        <ele>194</ele>
        <time>2017-10-01T07:33:22.000Z</time>
      </trkpt>
      <trkpt lat="45.02218" lon="1.09687">
        <ele>194</ele>
        <time>2017-10-01T07:33:23.000Z</time>
      </trkpt>
      <trkpt lat="45.02219" lon="1.09687">
        <ele>195</ele>
        <time>2017-10-01T07:33:24.000Z</time>
      </trkpt>
      <trkpt lat="45.02221" lon="1.09687">
        <ele>195</ele>
        <time>2017-10-01T07:33:25.000Z</time>
      </trkpt>
      <trkpt lat="45.02222" lon="1.09686">
        <ele>195</ele>
        <time>2017-10-01T07:33:26.000Z</time>
      </trkpt>
      <trkpt lat="45.02224" lon="1.09686">
        <ele>196</ele>
        <time>2017-10-01T07:33:27.000Z</time>
      </trkpt>
      <trkpt lat="45.02225" lon="1.09686">
        <ele>196</ele>
        <time>2017-10-01T07:33:28.000Z</time>
      </trkpt>
      <trkpt lat="45.02226" lon="1.09686">
        <ele>196</ele>
        <time>2017-10-01T07:33:29.000Z</time>
      </trkpt>
      <trkpt lat="45.02228" lon="1.09686">
        <ele>196</ele>
        <time>2017-10-01T07:33:30.000Z</time>
      </trkpt>
      <trkpt lat="45.02229" lon="1.09686">
        <ele>197</ele>
        <time>2017-10-01T07:33:31.000Z</time>
      </trkpt>
      <trkpt lat="45.0223" lon="1.09686">
        <ele>197</ele>
        <time>2017-10-01T07:33:32.000Z</time>
      </trkpt>
      <trkpt lat="45.02231" lon="1.09686">
        <ele>197</ele>
        <time>2017-10-01T07:33:33.000Z</time>
      </trkpt>
      <trkpt lat="45.02233" lon="1.09685">
        <ele>198</ele>
        <time>2017-10-01T07:33:34.000Z</time>
      </trkpt>
      <trkpt lat="45.02234" lon="1.09685">
        <ele>198</ele>
        <time>2017-10-01T07:33:35.000Z</time>
      </trkpt>
      <trkpt lat="45.02235" lon="1.09685">
        <ele>198</ele>
        <time>2017-10-01T07:33:36.000Z</time>
      </trkpt>
      <trkpt lat="45.02236" lon="1.09685">
        <ele>198</ele>
        <time>2017-10-01T07:33:37.000Z</time>
      </trkpt>
      <trkpt lat="45.02238" lon="1.09685">
        <ele>199</ele>
        <time>2017-10-01T07:33:38.000Z</time>
      </trkpt>
      <trkpt lat="45.02239" lon="1.09684">
        <ele>199</ele>
        <time>2017-10-01T07:33:39.000Z</time>
      </trkpt>
      <trkpt lat="45.0224" lon="1.09684">
        <ele>199</ele>
        <time>2017-10-01T07:33:40.000Z</time>
      </trkpt>
      <trkpt lat="45.02241" lon="1.09683">
        <ele>199</ele>
        <time>2017-10-01T07:33:41.000Z</time>
      </trkpt>
      <trkpt lat="45.02242" lon="1.09683">
        <ele>200</ele>
        <time>2017-10-01T07:33:42.000Z</time>
      </trkpt>
      <trkpt lat="45.02243" lon="1.09682">
        <ele>200</ele>
        <time>2017-10-01T07:33:43.000Z</time>
      </trkpt>
      <trkpt lat="45.02244" lon="1.09682">
        <ele>200</ele>
        <time>2017-10-01T07:33:44.000Z</time>
      </trkpt>
      <trkpt lat="45.02245" lon="1.09681">
        <ele>201</ele>
        <time>2017-10-01T07:33:45.000Z</time>
      </trkpt>
      <trkpt lat="45.02246" lon="1.0968">
        <ele>201</ele>
        <time>2017-10-01T07:33:46.000Z</time>
      </trkpt>
      <trkpt lat="45.02247" lon="1.09679">
        <ele>201</ele>
        <time>2017-10-01T07:33:47.000Z</time>
      </trkpt>
      <trkpt lat="45.02248" lon="1.09678">
        <ele>201</ele>
        <time>2017-10-01T07:33:48.000Z</time>
      </trkpt>
      <trkpt lat="45.02249" lon="1.09677">
        <ele>202</ele>
        <time>2017-10-01T07:33:49.000Z</time>
      </trkpt>
      <trkpt lat="45.0225" lon="1.09676">
        <ele>202</ele>
        <time>2017-10-01T07:33:50.000Z</time>
      </trkpt>
      <trkpt lat="45.02251" lon="1.09675">
        <ele>202</ele>
        <time>2017-10-01T07:33:51.000Z</time>
      </trkpt>
      <trkpt lat="45.02252" lon="1.09674">
        <ele>202</ele>
        <time>2017-10-01T07:33:52.000Z</time>
      </trkpt>
      <trkpt lat="45.02253" lon="1.09673">
        <ele>202</ele>
        <time>2017-10-01T07:33:53.000Z</time>
      </trkpt>
      <trkpt lat="45.02254" lon="1.09672">
        <ele>202</ele>
        <time>2017-10-01T07:33:54.000Z</time>
      </trkpt>
      <trkpt lat="45.02255" lon="1.09671">
        <ele>202</ele>
        <time>2017-10-01T07:33:55.000Z</time>
      </trkpt>
      <trkpt lat="45.02256" lon="1.0967">
        <ele>202</ele>
        <time>2017-10-01T07:33:56.000Z</time>
      </trkpt>
      <trkpt lat="45.02257" lon="1.09669">
        <ele>203</ele>
        <time>2017-10-01T07:33:57.000Z</time>
      </trkpt>
      <trkpt lat="45.02258" lon="1.09668">
        <ele>203</ele>
        <time>2017-10-01T07:33:58.000Z</time>
      </trkpt>
      <trkpt lat="45.02259" lon="1.09667">
        <ele>203</ele>
        <time>2017-10-01T07:33:59.000Z</time>
      </trkpt>
      <trkpt lat="45.0226" lon="1.09666">
        <ele>203</ele>
        <time>2017-10-01T07:34:00.000Z</time>
      </trkpt>
      <trkpt lat="45.02261" lon="1.09665">
        <ele>203</ele>
        <time>2017-10-01T07:34:01.000Z</time>
      </trkpt>
      <trkpt lat="45.02262" lon="1.09664">
        <ele>203</ele>
        <time>2017-10-01T07:34:02.000Z</time>
      </trkpt>
      <trkpt lat="45.02263" lon="1.09663">
        <ele>203</ele>
        <time>2017-10-01T07:34:03.000Z</time>
      </trkpt>
      <trkpt lat="45.02264" lon="1.09662">
        <ele>203</ele>
        <time>2017-10-01T07:34:04.000Z</time>
      </trkpt>
      <trkpt lat="45.02264" lon="1.09661">
        <ele>203</ele>
        <time>2017-10-01T07:34:05.000Z</time>
      </trkpt>
      <trkpt lat="45.02265" lon="1.09659">
        <ele>203</ele>
        <time>2017-10-01T07:34:06.000Z</time>
      </trkpt>
      <trkpt lat="45.02266" lon="1.09658">
        <ele>203</ele>
        <time>2017-10-01T07:34:07.000Z</time>
      </trkpt>
      <trkpt lat="45.02267" lon="1.09657">
        <ele>203</ele>
        <time>2017-10-01T07:34:08.000Z</time>
      </trkpt>
      <trkpt lat="45.02267" lon="1.09656">
        <ele>203</ele>
        <time>2017-10-01T07:34:09.000Z</time>
      </trkpt>
      <trkpt lat="45.02268" lon="1.09655">
        <ele>203</ele>
        <time>2017-10-01T07:34:10.000Z</time>
      </trkpt>
      <trkpt lat="45.02269" lon="1.09655">
        <ele>203</ele>
        <time>2017-10-01T07:34:12.000Z</time>
      </trkpt>
      <trkpt lat="45.02269" lon="1.09654">
        <ele>203</ele>
        <time>2017-10-01T07:34:12.000Z</time>
      </trkpt>
      <trkpt lat="45.0227" lon="1.09653">
        <ele>203</ele>
        <time>2017-10-01T07:34:13.000Z</time>
      </trkpt>
      <trkpt lat="45.02271" lon="1.09652">
        <ele>203</ele>
        <time>2017-10-01T07:34:14.000Z</time>
      </trkpt>
      <trkpt lat="45.02272" lon="1.09651">
        <ele>203</ele>
        <time>2017-10-01T07:34:15.000Z</time>
      </trkpt>
      <trkpt lat="45.02273" lon="1.09649">
        <ele>204</ele>
        <time>2017-10-01T07:34:16.000Z</time>
      </trkpt>
      <trkpt lat="45.02275" lon="1.09647">
        <ele>204</ele>
        <time>2017-10-01T07:34:17.000Z</time>
      </trkpt>
      <trkpt lat="45.02276" lon="1.09645">
        <ele>204</ele>
        <time>2017-10-01T07:34:18.000Z</time>
      </trkpt>
      <trkpt lat="45.02277" lon="1.09643">
        <ele>204</ele>
        <time>2017-10-01T07:34:19.000Z</time>
      </trkpt>
      <trkpt lat="45.02279" lon="1.09641">
        <ele>204</ele>
        <time>2017-10-01T07:34:20.000Z</time>
      </trkpt>
      <trkpt lat="45.0228" lon="1.09639">
        <ele>204</ele>
        <time>2017-10-01T07:34:21.000Z</time>
      </trkpt>
      <trkpt lat="45.02282" lon="1.09637">
        <ele>204</ele>
        <time>2017-10-01T07:34:22.000Z</time>
      </trkpt>
      <trkpt lat="45.02283" lon="1.09635">
        <ele>205</ele>
        <time>2017-10-01T07:34:23.000Z</time>
      </trkpt>
      <trkpt lat="45.02285" lon="1.09633">
        <ele>205</ele>
        <time>2017-10-01T07:34:24.000Z</time>
      </trkpt>
      <trkpt lat="45.02286" lon="1.09631">
        <ele>205</ele>
        <time>2017-10-01T07:34:25.000Z</time>
      </trkpt>
      <trkpt lat="45.02288" lon="1.09628">
        <ele>205</ele>
        <time>2017-10-01T07:34:26.000Z</time>
      </trkpt>
      <trkpt lat="45.02289" lon="1.09626">
        <ele>205</ele>
        <time>2017-10-01T07:34:27.000Z</time>
      </trkpt>
      <trkpt lat="45.0229" lon="1.09624">
        <ele>205</ele>
        <time>2017-10-01T07:34:28.000Z</time>
      </trkpt>
      <trkpt lat="45.02291" lon="1.09622">
        <ele>206</ele>
        <time>2017-10-01T07:34:29.000Z</time>
      </trkpt>
      <trkpt lat="45.02292" lon="1.0962">
        <ele>206</ele>
        <time>2017-10-01T07:34:30.000Z</time>
      </trkpt>
      <trkpt lat="45.02294" lon="1.09618">
        <ele>206</ele>
        <time>2017-10-01T07:34:31.000Z</time>
      </trkpt>
      <trkpt lat="45.02295" lon="1.09616">
        <ele>206</ele>
        <time>2017-10-01T07:34:32.000Z</time>
      </trkpt>
      <trkpt lat="45.02296" lon="1.09614">
        <ele>206</ele>
        <time>2017-10-01T07:34:33.000Z</time>
      </trkpt>
      <trkpt lat="45.02297" lon="1.09611">
        <ele>207</ele>
        <time>2017-10-01T07:34:34.000Z</time>
      </trkpt>
      <trkpt lat="45.02298" lon="1.09609">
        <ele>207</ele>
        <time>2017-10-01T07:34:35.000Z</time>
      </trkpt>
      <trkpt lat="45.023" lon="1.09607">
        <ele>207</ele>
        <time>2017-10-01T07:34:36.000Z</time>
      </trkpt>
      <trkpt lat="45.02301" lon="1.09605">
        <ele>207</ele>
        <time>2017-10-01T07:34:37.000Z</time>
      </trkpt>
      <trkpt lat="45.02302" lon="1.09602">
        <ele>208</ele>
        <time>2017-10-01T07:34:38.000Z</time>
      </trkpt>
      <trkpt lat="45.02304" lon="1.096">
        <ele>208</ele>
        <time>2017-10-01T07:34:39.000Z</time>
      </trkpt>
      <trkpt lat="45.02305" lon="1.09598">
        <ele>208</ele>
        <time>2017-10-01T07:34:40.000Z</time>
      </trkpt>
      <trkpt lat="45.02306" lon="1.09596">
        <ele>208</ele>
        <time>2017-10-01T07:34:41.000Z</time>
      </trkpt>
      <trkpt lat="45.02307" lon="1.09595">
        <ele>209</ele>
        <time>2017-10-01T07:34:42.000Z</time>
      </trkpt>
      <trkpt lat="45.02308" lon="1.09593">
        <ele>209</ele>
        <time>2017-10-01T07:34:43.000Z</time>
      </trkpt>
      <trkpt lat="45.02308" lon="1.09592">
        <ele>209</ele>
        <time>2017-10-01T07:34:44.000Z</time>
      </trkpt>
      <trkpt lat="45.02309" lon="1.0959">
        <ele>209</ele>
        <time>2017-10-01T07:34:45.000Z</time>
      </trkpt>
      <trkpt lat="45.02309" lon="1.09589">
        <ele>209</ele>
        <time>2017-10-01T07:34:46.000Z</time>
      </trkpt>
      <trkpt lat="45.0231" lon="1.09587">
        <ele>209</ele>
        <time>2017-10-01T07:34:47.000Z</time>
      </trkpt>
      <trkpt lat="45.02311" lon="1.09585">
        <ele>210</ele>
        <time>2017-10-01T07:34:48.000Z</time>
      </trkpt>
      <trkpt lat="45.02311" lon="1.09583">
        <ele>210</ele>
        <time>2017-10-01T07:34:49.000Z</time>
      </trkpt>
      <trkpt lat="45.02312" lon="1.09581">
        <ele>210</ele>
        <time>2017-10-01T07:34:50.000Z</time>
      </trkpt>
      <trkpt lat="45.02313" lon="1.09579">
        <ele>210</ele>
        <time>2017-10-01T07:34:51.000Z</time>
      </trkpt>
      <trkpt lat="45.02314" lon="1.09577">
        <ele>210</ele>
        <time>2017-10-01T07:34:52.000Z</time>
      </trkpt>
      <trkpt lat="45.02315" lon="1.09574">
        <ele>210</ele>
        <time>2017-10-01T07:34:53.000Z</time>
      </trkpt>
      <trkpt lat="45.02316" lon="1.09572">
        <ele>211</ele>
        <time>2017-10-01T07:34:54.000Z</time>
      </trkpt>
      <trkpt lat="45.02317" lon="1.0957">
        <ele>211</ele>
        <time>2017-10-01T07:34:55.000Z</time>
      </trkpt>
      <trkpt lat="45.02318" lon="1.09567">
        <ele>211</ele>
        <time>2017-10-01T07:34:56.000Z</time>
      </trkpt>
      <trkpt lat="45.02319" lon="1.09565">
        <ele>211</ele>
        <time>2017-10-01T07:34:57.000Z</time>
      </trkpt>
      <trkpt lat="45.02321" lon="1.09562">
        <ele>211</ele>
        <time>2017-10-01T07:34:58.000Z</time>
      </trkpt>
      <trkpt lat="45.02322" lon="1.09559">
        <ele>211</ele>
        <time>2017-10-01T07:34:59.000Z</time>
      </trkpt>
      <trkpt lat="45.02323" lon="1.09556">
        <ele>212</ele>
        <time>2017-10-01T07:35:00.000Z</time>
      </trkpt>
      <trkpt lat="45.02324" lon="1.09553">
        <ele>212</ele>
        <time>2017-10-01T07:35:01.000Z</time>
      </trkpt>
      <trkpt lat="45.02325" lon="1.0955">
        <ele>212</ele>
        <time>2017-10-01T07:35:02.000Z</time>
      </trkpt>
      <trkpt lat="45.02327" lon="1.09546">
        <ele>212</ele>
        <time>2017-10-01T07:35:03.000Z</time>
      </trkpt>
      <trkpt lat="45.02328" lon="1.09543">
        <ele>212</ele>
        <time>2017-10-01T07:35:04.000Z</time>
      </trkpt>
      <trkpt lat="45.0233" lon="1.09539">
        <ele>213</ele>
        <time>2017-10-01T07:35:05.000Z</time>
      </trkpt>
      <trkpt lat="45.02331" lon="1.09535">
        <ele>213</ele>
        <time>2017-10-01T07:35:06.000Z</time>
      </trkpt>
      <trkpt lat="45.02333" lon="1.09532">
        <ele>213</ele>
        <time>2017-10-01T07:35:07.000Z</time>
      </trkpt>
      <trkpt lat="45.02335" lon="1.09528">
        <ele>213</ele>
        <time>2017-10-01T07:35:08.000Z</time>
      </trkpt>
      <trkpt lat="45.02337" lon="1.09524">
        <ele>213</ele>
        <time>2017-10-01T07:35:09.000Z</time>
      </trkpt>
      <trkpt lat="45.02339" lon="1.0952">
        <ele>212</ele>
        <time>2017-10-01T07:35:10.000Z</time>
      </trkpt>
      <trkpt lat="45.02341" lon="1.09516">
        <ele>212</ele>
        <time>2017-10-01T07:35:11.000Z</time>
      </trkpt>
      <trkpt lat="45.02344" lon="1.09512">
        <ele>212</ele>
        <time>2017-10-01T07:35:12.000Z</time>
      </trkpt>
      <trkpt lat="45.02346" lon="1.09508">
        <ele>212</ele>
        <time>2017-10-01T07:35:13.000Z</time>
      </trkpt>
      <trkpt lat="45.02348" lon="1.09503">
        <ele>212</ele>
        <time>2017-10-01T07:35:14.000Z</time>
      </trkpt>
      <trkpt lat="45.02351" lon="1.09498">
        <ele>211</ele>
        <time>2017-10-01T07:35:15.000Z</time>
      </trkpt>
      <trkpt lat="45.02353" lon="1.09493">
        <ele>210</ele>
        <time>2017-10-01T07:35:16.000Z</time>
      </trkpt>
      <trkpt lat="45.02356" lon="1.09488">
        <ele>210</ele>
        <time>2017-10-01T07:35:17.000Z</time>
      </trkpt>
      <trkpt lat="45.02358" lon="1.09482">
        <ele>209</ele>
        <time>2017-10-01T07:35:18.000Z</time>
      </trkpt>
      <trkpt lat="45.02361" lon="1.09476">
        <ele>208</ele>
        <time>2017-10-01T07:35:19.000Z</time>
      </trkpt>
      <trkpt lat="45.02364" lon="1.09469">
        <ele>208</ele>
        <time>2017-10-01T07:35:20.000Z</time>
      </trkpt>
      <trkpt lat="45.02366" lon="1.09462">
        <ele>207</ele>
        <time>2017-10-01T07:35:21.000Z</time>
      </trkpt>
      <trkpt lat="45.02369" lon="1.09454">
        <ele>206</ele>
        <time>2017-10-01T07:35:22.000Z</time>
      </trkpt>
      <trkpt lat="45.02372" lon="1.09446">
        <ele>206</ele>
        <time>2017-10-01T07:35:23.000Z</time>
      </trkpt>
      <trkpt lat="45.02376" lon="1.09438">
        <ele>205</ele>
        <time>2017-10-01T07:35:24.000Z</time>
      </trkpt>
      <trkpt lat="45.02379" lon="1.09429">
        <ele>205</ele>
        <time>2017-10-01T07:35:25.000Z</time>
      </trkpt>
      <trkpt lat="45.02382" lon="1.0942">
        <ele>205</ele>
        <time>2017-10-01T07:35:26.000Z</time>
      </trkpt>
      <trkpt lat="45.02386" lon="1.09411">
        <ele>205</ele>
        <time>2017-10-01T07:35:27.000Z</time>
      </trkpt>
      <trkpt lat="45.0239" lon="1.09402">
        <ele>205</ele>
        <time>2017-10-01T07:35:28.000Z</time>
      </trkpt>
      <trkpt lat="45.02395" lon="1.09394">
        <ele>205</ele>
        <time>2017-10-01T07:35:29.000Z</time>
      </trkpt>
      <trkpt lat="45.02399" lon="1.09385">
        <ele>205</ele>
        <time>2017-10-01T07:35:30.000Z</time>
      </trkpt>
      <trkpt lat="45.02404" lon="1.09377">
        <ele>206</ele>
        <time>2017-10-01T07:35:31.000Z</time>
      </trkpt>
      <trkpt lat="45.02409" lon="1.09369">
        <ele>206</ele>
        <time>2017-10-01T07:35:32.000Z</time>
      </trkpt>
      <trkpt lat="45.02414" lon="1.09361">
        <ele>207</ele>
        <time>2017-10-01T07:35:33.000Z</time>
      </trkpt>
      <trkpt lat="45.02419" lon="1.09354">
        <ele>207</ele>
        <time>2017-10-01T07:35:34.000Z</time>
      </trkpt>
      <trkpt lat="45.02424" lon="1.09347">
        <ele>207</ele>
        <time>2017-10-01T07:35:35.000Z</time>
      </trkpt>
      <trkpt lat="45.02429" lon="1.0934">
        <ele>207</ele>
        <time>2017-10-01T07:35:36.000Z</time>
      </trkpt>
      <trkpt lat="45.02435" lon="1.09334">
        <ele>207</ele>
        <time>2017-10-01T07:35:37.000Z</time>
      </trkpt>
      <trkpt lat="45.0244" lon="1.09328">
        <ele>207</ele>
        <time>2017-10-01T07:35:38.000Z</time>
      </trkpt>
      <trkpt lat="45.02445" lon="1.09322">
        <ele>206</ele>
        <time>2017-10-01T07:35:39.000Z</time>
      </trkpt>
      <trkpt lat="45.0245" lon="1.09317">
        <ele>205</ele>
        <time>2017-10-01T07:35:40.000Z</time>
      </trkpt>
      <trkpt lat="45.02455" lon="1.09311">
        <ele>205</ele>
        <time>2017-10-01T07:35:41.000Z</time>
      </trkpt>
      <trkpt lat="45.0246" lon="1.09306">
        <ele>205</ele>
        <time>2017-10-01T07:35:42.000Z</time>
      </trkpt>
      <trkpt lat="45.02465" lon="1.093">
        <ele>204</ele>
        <time>2017-10-01T07:35:43.000Z</time>
      </trkpt>
      <trkpt lat="45.02469" lon="1.09295">
        <ele>204</ele>
        <time>2017-10-01T07:35:44.000Z</time>
      </trkpt>
      <trkpt lat="45.02474" lon="1.0929">
        <ele>204</ele>
        <time>2017-10-01T07:35:45.000Z</time>
      </trkpt>
      <trkpt lat="45.02479" lon="1.09285">
        <ele>204</ele>
        <time>2017-10-01T07:35:46.000Z</time>
      </trkpt>
      <trkpt lat="45.02483" lon="1.0928">
        <ele>204</ele>
        <time>2017-10-01T07:35:47.000Z</time>
      </trkpt>
      <trkpt lat="45.02487" lon="1.09275">
        <ele>204</ele>
        <time>2017-10-01T07:35:48.000Z</time>
      </trkpt>
      <trkpt lat="45.02492" lon="1.0927">
        <ele>204</ele>
        <time>2017-10-01T07:35:49.000Z</time>
      </trkpt>
      <trkpt lat="45.02496" lon="1.09265">
        <ele>204</ele>
        <time>2017-10-01T07:35:50.000Z</time>
      </trkpt>
      <trkpt lat="45.025" lon="1.09259">
        <ele>204</ele>
        <time>2017-10-01T07:35:51.000Z</time>
      </trkpt>
      <trkpt lat="45.02504" lon="1.09254">
        <ele>205</ele>
        <time>2017-10-01T07:35:52.000Z</time>
      </trkpt>
      <trkpt lat="45.02508" lon="1.09249">
        <ele>205</ele>
        <time>2017-10-01T07:35:53.000Z</time>
      </trkpt>
      <trkpt lat="45.02512" lon="1.09244">
        <ele>205</ele>
        <time>2017-10-01T07:35:54.000Z</time>
      </trkpt>
      <trkpt lat="45.02516" lon="1.09239">
        <ele>205</ele>
        <time>2017-10-01T07:35:55.000Z</time>
      </trkpt>
      <trkpt lat="45.0252" lon="1.09234">
        <ele>205</ele>
        <time>2017-10-01T07:35:56.000Z</time>
      </trkpt>
      <trkpt lat="45.02524" lon="1.09229">
        <ele>206</ele>
        <time>2017-10-01T07:35:57.000Z</time>
      </trkpt>
      <trkpt lat="45.02528" lon="1.09224">
        <ele>206</ele>
        <time>2017-10-01T07:35:58.000Z</time>
      </trkpt>
      <trkpt lat="45.02532" lon="1.0922">
        <ele>206</ele>
        <time>2017-10-01T07:35:59.000Z</time>
      </trkpt>
      <trkpt lat="45.02536" lon="1.09215">
        <ele>206</ele>
        <time>2017-10-01T07:36:00.000Z</time>
      </trkpt>
      <trkpt lat="45.02541" lon="1.09211">
        <ele>207</ele>
        <time>2017-10-01T07:36:01.000Z</time>
      </trkpt>
      <trkpt lat="45.02545" lon="1.09207">
        <ele>207</ele>
        <time>2017-10-01T07:36:02.000Z</time>
      </trkpt>
      <trkpt lat="45.0255" lon="1.09203">
        <ele>207</ele>
        <time>2017-10-01T07:36:03.000Z</time>
      </trkpt>
      <trkpt lat="45.02554" lon="1.092">
        <ele>208</ele>
        <time>2017-10-01T07:36:04.000Z</time>
      </trkpt>
      <trkpt lat="45.02559" lon="1.09197">
        <ele>208</ele>
        <time>2017-10-01T07:36:05.000Z</time>
      </trkpt>
      <trkpt lat="45.02564" lon="1.09194">
        <ele>209</ele>
        <time>2017-10-01T07:36:06.000Z</time>
      </trkpt>
      <trkpt lat="45.02569" lon="1.09191">
        <ele>209</ele>
        <time>2017-10-01T07:36:07.000Z</time>
      </trkpt>
      <trkpt lat="45.02574" lon="1.09189">
        <ele>210</ele>
        <time>2017-10-01T07:36:08.000Z</time>
      </trkpt>
      <trkpt lat="45.02579" lon="1.09187">
        <ele>210</ele>
        <time>2017-10-01T07:36:09.000Z</time>
      </trkpt>
      <trkpt lat="45.02584" lon="1.09185">
        <ele>211</ele>
        <time>2017-10-01T07:36:10.000Z</time>
      </trkpt>
      <trkpt lat="45.02589" lon="1.09184">
        <ele>211</ele>
        <time>2017-10-01T07:36:11.000Z</time>
      </trkpt>
      <trkpt lat="45.02594" lon="1.09182">
        <ele>211</ele>
        <time>2017-10-01T07:36:12.000Z</time>
      </trkpt>
      <trkpt lat="45.02599" lon="1.09181">
        <ele>212</ele>
        <time>2017-10-01T07:36:13.000Z</time>
      </trkpt>
      <trkpt lat="45.02604" lon="1.0918">
        <ele>212</ele>
        <time>2017-10-01T07:36:14.000Z</time>
      </trkpt>
      <trkpt lat="45.02609" lon="1.09179">
        <ele>212</ele>
        <time>2017-10-01T07:36:15.000Z</time>
      </trkpt>
      <trkpt lat="45.02613" lon="1.09178">
        <ele>213</ele>
        <time>2017-10-01T07:36:16.000Z</time>
      </trkpt>
      <trkpt lat="45.02618" lon="1.09177">
        <ele>213</ele>
        <time>2017-10-01T07:36:17.000Z</time>
      </trkpt>
      <trkpt lat="45.02623" lon="1.09176">
        <ele>213</ele>
        <time>2017-10-01T07:36:18.000Z</time>
      </trkpt>
      <trkpt lat="45.02628" lon="1.09176">
        <ele>214</ele>
        <time>2017-10-01T07:36:19.000Z</time>
      </trkpt>
      <trkpt lat="45.02633" lon="1.09175">
        <ele>214</ele>
        <time>2017-10-01T07:36:20.000Z</time>
      </trkpt>
      <trkpt lat="45.02638" lon="1.09174">
        <ele>214</ele>
        <time>2017-10-01T07:36:21.000Z</time>
      </trkpt>
      <trkpt lat="45.02643" lon="1.09173">
        <ele>215</ele>
        <time>2017-10-01T07:36:22.000Z</time>
      </trkpt>
      <trkpt lat="45.02649" lon="1.09172">
        <ele>215</ele>
        <time>2017-10-01T07:36:23.000Z</time>
      </trkpt>
      <trkpt lat="45.02654" lon="1.09171">
        <ele>215</ele>
        <time>2017-10-01T07:36:24.000Z</time>
      </trkpt>
      <trkpt lat="45.02659" lon="1.0917">
        <ele>216</ele>
        <time>2017-10-01T07:36:25.000Z</time>
      </trkpt>
      <trkpt lat="45.02663" lon="1.09169">
        <ele>216</ele>
        <time>2017-10-01T07:36:26.000Z</time>
      </trkpt>
      <trkpt lat="45.02668" lon="1.09167">
        <ele>216</ele>
        <time>2017-10-01T07:36:27.000Z</time>
      </trkpt>
      <trkpt lat="45.02673" lon="1.09166">
        <ele>216</ele>
        <time>2017-10-01T07:36:28.000Z</time>
      </trkpt>
      <trkpt lat="45.02677" lon="1.09164">
        <ele>216</ele>
        <time>2017-10-01T07:36:29.000Z</time>
      </trkpt>
      <trkpt lat="45.02681" lon="1.09162">
        <ele>216</ele>
        <time>2017-10-01T07:36:30.000Z</time>
      </trkpt>
      <trkpt lat="45.02686" lon="1.09159">
        <ele>216</ele>
        <time>2017-10-01T07:36:31.000Z</time>
      </trkpt>
      <trkpt lat="45.0269" lon="1.09157">
        <ele>216</ele>
        <time>2017-10-01T07:36:32.000Z</time>
      </trkpt>
      <trkpt lat="45.02694" lon="1.09154">
        <ele>216</ele>
        <time>2017-10-01T07:36:33.000Z</time>
      </trkpt>
      <trkpt lat="45.02699" lon="1.09151">
        <ele>215</ele>
        <time>2017-10-01T07:36:34.000Z</time>
      </trkpt>
      <trkpt lat="45.02703" lon="1.09148">
        <ele>215</ele>
        <time>2017-10-01T07:36:35.000Z</time>
      </trkpt>
      <trkpt lat="45.02707" lon="1.09145">
        <ele>215</ele>
        <time>2017-10-01T07:36:36.000Z</time>
      </trkpt>
      <trkpt lat="45.02712" lon="1.09141">
        <ele>215</ele>
        <time>2017-10-01T07:36:37.000Z</time>
      </trkpt>
      <trkpt lat="45.02716" lon="1.09138">
        <ele>214</ele>
        <time>2017-10-01T07:36:38.000Z</time>
      </trkpt>
      <trkpt lat="45.0272" lon="1.09134">
        <ele>214</ele>
        <time>2017-10-01T07:36:39.000Z</time>
      </trkpt>
      <trkpt lat="45.02725" lon="1.09131">
        <ele>214</ele>
        <time>2017-10-01T07:36:40.000Z</time>
      </trkpt>
      <trkpt lat="45.02729" lon="1.09128">
        <ele>214</ele>
        <time>2017-10-01T07:36:41.000Z</time>
      </trkpt>
      <trkpt lat="45.02734" lon="1.09124">
        <ele>214</ele>
        <time>2017-10-01T07:36:42.000Z</time>
      </trkpt>
      <trkpt lat="45.02738" lon="1.09121">
        <ele>213</ele>
        <time>2017-10-01T07:36:43.000Z</time>
      </trkpt>
      <trkpt lat="45.02743" lon="1.09118">
        <ele>213</ele>
        <time>2017-10-01T07:36:44.000Z</time>
      </trkpt>
      <trkpt lat="45.02747" lon="1.09115">
        <ele>213</ele>
        <time>2017-10-01T07:36:45.000Z</time>
      </trkpt>
      <trkpt lat="45.02752" lon="1.09112">
        <ele>213</ele>
        <time>2017-10-01T07:36:46.000Z</time>
      </trkpt>
      <trkpt lat="45.02756" lon="1.0911">
        <ele>213</ele>
        <time>2017-10-01T07:36:47.000Z</time>
      </trkpt>
      <trkpt lat="45.02761" lon="1.09107">
        <ele>213</ele>
        <time>2017-10-01T07:36:48.000Z</time>
      </trkpt>
      <trkpt lat="45.02765" lon="1.09105">
        <ele>213</ele>
        <time>2017-10-01T07:36:49.000Z</time>
      </trkpt>
      <trkpt lat="45.0277" lon="1.09103">
        <ele>213</ele>
        <time>2017-10-01T07:36:50.000Z</time>
      </trkpt>
      <trkpt lat="45.02774" lon="1.09101">
        <ele>213</ele>
        <time>2017-10-01T07:36:51.000Z</time>
      </trkpt>
      <trkpt lat="45.02779" lon="1.091">
        <ele>213</ele>
        <time>2017-10-01T07:36:52.000Z</time>
      </trkpt>
      <trkpt lat="45.02783" lon="1.09099">
        <ele>213</ele>
        <time>2017-10-01T07:36:53.000Z</time>
      </trkpt>
      <trkpt lat="45.02788" lon="1.09098">
        <ele>213</ele>
        <time>2017-10-01T07:36:54.000Z</time>
      </trkpt>
      <trkpt lat="45.02792" lon="1.09098">
        <ele>214</ele>
        <time>2017-10-01T07:36:55.000Z</time>
      </trkpt>
      <trkpt lat="45.02796" lon="1.09099">
        <ele>214</ele>
        <time>2017-10-01T07:36:56.000Z</time>
      </trkpt>
      <trkpt lat="45.028" lon="1.09099">
        <ele>214</ele>
        <time>2017-10-01T07:36:57.000Z</time>
      </trkpt>
      <trkpt lat="45.02805" lon="1.091">
        <ele>214</ele>
        <time>2017-10-01T07:36:58.000Z</time>
      </trkpt>
      <trkpt lat="45.02809" lon="1.091">
        <ele>214</ele>
        <time>2017-10-01T07:36:59.000Z</time>
      </trkpt>
      <trkpt lat="45.02813" lon="1.09101">
        <ele>214</ele>
        <time>2017-10-01T07:37:00.000Z</time>
      </trkpt>
      <trkpt lat="45.02818" lon="1.09101">
        <ele>214</ele>
        <time>2017-10-01T07:37:01.000Z</time>
      </trkpt>
      <trkpt lat="45.02822" lon="1.09102">
        <ele>214</ele>
        <time>2017-10-01T07:37:02.000Z</time>
      </trkpt>
      <trkpt lat="45.02826" lon="1.09102">
        <ele>214</ele>
        <time>2017-10-01T07:37:03.000Z</time>
      </trkpt>
      <trkpt lat="45.0283" lon="1.09102">
        <ele>215</ele>
        <time>2017-10-01T07:37:04.000Z</time>
      </trkpt>
      <trkpt lat="45.02834" lon="1.09102">
        <ele>215</ele>
        <time>2017-10-01T07:37:05.000Z</time>
      </trkpt>
      <trkpt lat="45.02838" lon="1.09102">
        <ele>215</ele>
        <time>2017-10-01T07:37:06.000Z</time>
      </trkpt>
      <trkpt lat="45.02842" lon="1.09101">
        <ele>215</ele>
        <time>2017-10-01T07:37:07.000Z</time>
      </trkpt>
      <trkpt lat="45.02845" lon="1.091">
        <ele>215</ele>
        <time>2017-10-01T07:37:08.000Z</time>
      </trkpt>
      <trkpt lat="45.02849" lon="1.09098">
        <ele>216</ele>
        <time>2017-10-01T07:37:09.000Z</time>
      </trkpt>
      <trkpt lat="45.02852" lon="1.09097">
        <ele>216</ele>
        <time>2017-10-01T07:37:10.000Z</time>
      </trkpt>
      <trkpt lat="45.02856" lon="1.09095">
        <ele>216</ele>
        <time>2017-10-01T07:37:11.000Z</time>
      </trkpt>
      <trkpt lat="45.02859" lon="1.09094">
        <ele>216</ele>
        <time>2017-10-01T07:37:12.000Z</time>
      </trkpt>
      <trkpt lat="45.02862" lon="1.09092">
        <ele>217</ele>
        <time>2017-10-01T07:37:13.000Z</time>
      </trkpt>
      <trkpt lat="45.02865" lon="1.0909">
        <ele>217</ele>
        <time>2017-10-01T07:37:14.000Z</time>
      </trkpt>
      <trkpt lat="45.02868" lon="1.09089">
        <ele>217</ele>
        <time>2017-10-01T07:37:15.000Z</time>
      </trkpt>
      <trkpt lat="45.02872" lon="1.09087">
        <ele>217</ele>
        <time>2017-10-01T07:37:16.000Z</time>
      </trkpt>
      <trkpt lat="45.02875" lon="1.09086">
        <ele>217</ele>
        <time>2017-10-01T07:37:17.000Z</time>
      </trkpt>
      <trkpt lat="45.02877" lon="1.09085">
        <ele>218</ele>
        <time>2017-10-01T07:37:18.000Z</time>
      </trkpt>
      <trkpt lat="45.0288" lon="1.09084">
        <ele>218</ele>
        <time>2017-10-01T07:37:19.000Z</time>
      </trkpt>
      <trkpt lat="45.02883" lon="1.09083">
        <ele>218</ele>
        <time>2017-10-01T07:37:20.000Z</time>
      </trkpt>
      <trkpt lat="45.02886" lon="1.09082">
        <ele>218</ele>
        <time>2017-10-01T07:37:21.000Z</time>
      </trkpt>
      <trkpt lat="45.02889" lon="1.09082">
        <ele>218</ele>
        <time>2017-10-01T07:37:22.000Z</time>
      </trkpt>
      <trkpt lat="45.02892" lon="1.09082">
        <ele>218</ele>
        <time>2017-10-01T07:37:23.000Z</time>
      </trkpt>
      <trkpt lat="45.02895" lon="1.09081">
        <ele>218</ele>
        <time>2017-10-01T07:37:24.000Z</time>
      </trkpt>
      <trkpt lat="45.02898" lon="1.09081">
        <ele>219</ele>
        <time>2017-10-01T07:37:25.000Z</time>
      </trkpt>
      <trkpt lat="45.02901" lon="1.09081">
        <ele>219</ele>
        <time>2017-10-01T07:37:26.000Z</time>
      </trkpt>
      <trkpt lat="45.02904" lon="1.0908">
        <ele>219</ele>
        <time>2017-10-01T07:37:27.000Z</time>
      </trkpt>
      <trkpt lat="45.02907" lon="1.0908">
        <ele>219</ele>
        <time>2017-10-01T07:37:28.000Z</time>
      </trkpt>
      <trkpt lat="45.0291" lon="1.0908">
        <ele>219</ele>
        <time>2017-10-01T07:37:29.000Z</time>
      </trkpt>
      <trkpt lat="45.02913" lon="1.09079">
        <ele>219</ele>
        <time>2017-10-01T07:37:30.000Z</time>
      </trkpt>
      <trkpt lat="45.02916" lon="1.09079">
        <ele>219</ele>
        <time>2017-10-01T07:37:31.000Z</time>
      </trkpt>
      <trkpt lat="45.02919" lon="1.09079">
        <ele>220</ele>
        <time>2017-10-01T07:37:32.000Z</time>
      </trkpt>
      <trkpt lat="45.02923" lon="1.09079">
        <ele>220</ele>
        <time>2017-10-01T07:37:33.000Z</time>
      </trkpt>
      <trkpt lat="45.02926" lon="1.09078">
        <ele>220</ele>
        <time>2017-10-01T07:37:34.000Z</time>
      </trkpt>
      <trkpt lat="45.0293" lon="1.09078">
        <ele>220</ele>
        <time>2017-10-01T07:37:35.000Z</time>
      </trkpt>
      <trkpt lat="45.02934" lon="1.09078">
        <ele>220</ele>
        <time>2017-10-01T07:37:36.000Z</time>
      </trkpt>
      <trkpt lat="45.02938" lon="1.09078">
        <ele>220</ele>
        <time>2017-10-01T07:37:37.000Z</time>
      </trkpt>
      <trkpt lat="45.02941" lon="1.09078">
        <ele>221</ele>
        <time>2017-10-01T07:37:38.000Z</time>
      </trkpt>
      <trkpt lat="45.02945" lon="1.09078">
        <ele>221</ele>
        <time>2017-10-01T07:37:39.000Z</time>
      </trkpt>
      <trkpt lat="45.02949" lon="1.09077">
        <ele>221</ele>
        <time>2017-10-01T07:37:40.000Z</time>
      </trkpt>
      <trkpt lat="45.02953" lon="1.09077">
        <ele>221</ele>
        <time>2017-10-01T07:37:41.000Z</time>
      </trkpt>
      <trkpt lat="45.02956" lon="1.09076">
        <ele>221</ele>
        <time>2017-10-01T07:37:42.000Z</time>
      </trkpt>
      <trkpt lat="45.0296" lon="1.09076">
        <ele>221</ele>
        <time>2017-10-01T07:37:43.000Z</time>
      </trkpt>
      <trkpt lat="45.02963" lon="1.09075">
        <ele>221</ele>
        <time>2017-10-01T07:37:44.000Z</time>
      </trkpt>
      <trkpt lat="45.02966" lon="1.09074">
        <ele>221</ele>
        <time>2017-10-01T07:37:45.000Z</time>
      </trkpt>
      <trkpt lat="45.02969" lon="1.09073">
        <ele>222</ele>
        <time>2017-10-01T07:37:46.000Z</time>
      </trkpt>
      <trkpt lat="45.02972" lon="1.09072">
        <ele>222</ele>
        <time>2017-10-01T07:37:47.000Z</time>
      </trkpt>
      <trkpt lat="45.02976" lon="1.09071">
        <ele>222</ele>
        <time>2017-10-01T07:37:48.000Z</time>
      </trkpt>
      <trkpt lat="45.02979" lon="1.0907">
        <ele>222</ele>
        <time>2017-10-01T07:37:49.000Z</time>
      </trkpt>
      <trkpt lat="45.02982" lon="1.09068">
        <ele>222</ele>
        <time>2017-10-01T07:37:50.000Z</time>
      </trkpt>
      <trkpt lat="45.02985" lon="1.09067">
        <ele>222</ele>
        <time>2017-10-01T07:37:51.000Z</time>
      </trkpt>
      <trkpt lat="45.02988" lon="1.09065">
        <ele>222</ele>
        <time>2017-10-01T07:37:52.000Z</time>
      </trkpt>
      <trkpt lat="45.02991" lon="1.09063">
        <ele>222</ele>
        <time>2017-10-01T07:37:53.000Z</time>
      </trkpt>
      <trkpt lat="45.02994" lon="1.09062">
        <ele>222</ele>
        <time>2017-10-01T07:37:54.000Z</time>
      </trkpt>
      <trkpt lat="45.02998" lon="1.0906">
        <ele>222</ele>
        <time>2017-10-01T07:37:55.000Z</time>
      </trkpt>
      <trkpt lat="45.03001" lon="1.09058">
        <ele>222</ele>
        <time>2017-10-01T07:37:56.000Z</time>
      </trkpt>
      <trkpt lat="45.03004" lon="1.09056">
        <ele>222</ele>
        <time>2017-10-01T07:37:57.000Z</time>
      </trkpt>
      <trkpt lat="45.03007" lon="1.09054">
        <ele>221</ele>
        <time>2017-10-01T07:37:58.000Z</time>
      </trkpt>
      <trkpt lat="45.03011" lon="1.09052">
        <ele>221</ele>
        <time>2017-10-01T07:37:59.000Z</time>
      </trkpt>
      <trkpt lat="45.03014" lon="1.0905">
        <ele>221</ele>
        <time>2017-10-01T07:38:00.000Z</time>
      </trkpt>
      <trkpt lat="45.03018" lon="1.09047">
        <ele>221</ele>
        <time>2017-10-01T07:38:01.000Z</time>
      </trkpt>
      <trkpt lat="45.03021" lon="1.09045">
        <ele>221</ele>
        <time>2017-10-01T07:38:02.000Z</time>
      </trkpt>
      <trkpt lat="45.03025" lon="1.09043">
        <ele>221</ele>
        <time>2017-10-01T07:38:03.000Z</time>
      </trkpt>
      <trkpt lat="45.03028" lon="1.09041">
        <ele>221</ele>
        <time>2017-10-01T07:38:04.000Z</time>
      </trkpt>
      <trkpt lat="45.03032" lon="1.09039">
        <ele>220</ele>
        <time>2017-10-01T07:38:05.000Z</time>
      </trkpt>
      <trkpt lat="45.03035" lon="1.09037">
        <ele>220</ele>
        <time>2017-10-01T07:38:06.000Z</time>
      </trkpt>
      <trkpt lat="45.03039" lon="1.09035">
        <ele>220</ele>
        <time>2017-10-01T07:38:07.000Z</time>
      </trkpt>
      <trkpt lat="45.03042" lon="1.09033">
        <ele>220</ele>
        <time>2017-10-01T07:38:08.000Z</time>
      </trkpt>
      <trkpt lat="45.03046" lon="1.0903">
        <ele>220</ele>
        <time>2017-10-01T07:38:09.000Z</time>
      </trkpt>
      <trkpt lat="45.03049" lon="1.09027">
        <ele>220</ele>
        <time>2017-10-01T07:38:10.000Z</time>
      </trkpt>
      <trkpt lat="45.03053" lon="1.09024">
        <ele>220</ele>
        <time>2017-10-01T07:38:11.000Z</time>
      </trkpt>
      <trkpt lat="45.03056" lon="1.0902">
        <ele>220</ele>
        <time>2017-10-01T07:38:12.000Z</time>
      </trkpt>
      <trkpt lat="45.0306" lon="1.09016">
        <ele>220</ele>
        <time>2017-10-01T07:38:13.000Z</time>
      </trkpt>
      <trkpt lat="45.03064" lon="1.09011">
        <ele>219</ele>
        <time>2017-10-01T07:38:14.000Z</time>
      </trkpt>
      <trkpt lat="45.03067" lon="1.09007">
        <ele>219</ele>
        <time>2017-10-01T07:38:15.000Z</time>
      </trkpt>
      <trkpt lat="45.0307" lon="1.09002">
        <ele>219</ele>
        <time>2017-10-01T07:38:16.000Z</time>
      </trkpt>
      <trkpt lat="45.03071" lon="1.08997">
        <ele>219</ele>
        <time>2017-10-01T07:38:17.000Z</time>
      </trkpt>
      <trkpt lat="45.03071" lon="1.08992">
        <ele>219</ele>
        <time>2017-10-01T07:38:18.000Z</time>
      </trkpt>
      <trkpt lat="45.0307" lon="1.08987">
        <ele>219</ele>
        <time>2017-10-01T07:38:19.000Z</time>
      </trkpt>
      <trkpt lat="45.03068" lon="1.08982">
        <ele>219</ele>
        <time>2017-10-01T07:38:20.000Z</time>
      </trkpt>
      <trkpt lat="45.03066" lon="1.08977">
        <ele>218</ele>
        <time>2017-10-01T07:38:21.000Z</time>
      </trkpt>
      <trkpt lat="45.03064" lon="1.08973">
        <ele>218</ele>
        <time>2017-10-01T07:38:22.000Z</time>
      </trkpt>
      <trkpt lat="45.03062" lon="1.08968">
        <ele>218</ele>
        <time>2017-10-01T07:38:23.000Z</time>
      </trkpt>
      <trkpt lat="45.0306" lon="1.08964">
        <ele>218</ele>
        <time>2017-10-01T07:38:24.000Z</time>
      </trkpt>
      <trkpt lat="45.03058" lon="1.08959">
        <ele>218</ele>
        <time>2017-10-01T07:38:25.000Z</time>
      </trkpt>
      <trkpt lat="45.03057" lon="1.08955">
        <ele>218</ele>
        <time>2017-10-01T07:38:26.000Z</time>
      </trkpt>
      <trkpt lat="45.03055" lon="1.0895">
        <ele>218</ele>
        <time>2017-10-01T07:38:27.000Z</time>
      </trkpt>
      <trkpt lat="45.03053" lon="1.08946">
        <ele>218</ele>
        <time>2017-10-01T07:38:28.000Z</time>
      </trkpt>
      <trkpt lat="45.03052" lon="1.08942">
        <ele>217</ele>
        <time>2017-10-01T07:38:29.000Z</time>
      </trkpt>
      <trkpt lat="45.0305" lon="1.08938">
        <ele>217</ele>
        <time>2017-10-01T07:38:30.000Z</time>
      </trkpt>
      <trkpt lat="45.03049" lon="1.08934">
        <ele>217</ele>
        <time>2017-10-01T07:38:31.000Z</time>
      </trkpt>
      <trkpt lat="45.03048" lon="1.0893">
        <ele>217</ele>
        <time>2017-10-01T07:38:32.000Z</time>
      </trkpt>
      <trkpt lat="45.03047" lon="1.08926">
        <ele>217</ele>
        <time>2017-10-01T07:38:33.000Z</time>
      </trkpt>
      <trkpt lat="45.03047" lon="1.08922">
        <ele>217</ele>
        <time>2017-10-01T07:38:34.000Z</time>
      </trkpt>
      <trkpt lat="45.03047" lon="1.08918">
        <ele>217</ele>
        <time>2017-10-01T07:38:35.000Z</time>
      </trkpt>
      <trkpt lat="45.03047" lon="1.08915">
        <ele>217</ele>
        <time>2017-10-01T07:38:36.000Z</time>
      </trkpt>
      <trkpt lat="45.03048" lon="1.08913">
        <ele>217</ele>
        <time>2017-10-01T07:38:37.000Z</time>
      </trkpt>
      <trkpt lat="45.03048" lon="1.08912">
        <ele>217</ele>
        <time>2017-10-01T07:38:40.000Z</time>
      </trkpt>
      <trkpt lat="45.03048" lon="1.08912">
        <ele>217</ele>
        <time>2017-10-01T07:38:40.000Z</time>
      </trkpt>
      <trkpt lat="45.03048" lon="1.08912">
        <ele>217</ele>
        <time>2017-10-01T07:38:40.000Z</time>
      </trkpt>
      <trkpt lat="45.03049" lon="1.08912">
        <ele>217</ele>
        <time>2017-10-01T07:38:42.000Z</time>
      </trkpt>
      <trkpt lat="45.03049" lon="1.08912">
        <ele>217</ele>
        <time>2017-10-01T07:38:42.000Z</time>
      </trkpt>
      <trkpt lat="45.0305" lon="1.08912">
        <ele>217</ele>
        <time>2017-10-01T07:38:43.000Z</time>
      </trkpt>
      <trkpt lat="45.03052" lon="1.08912">
        <ele>217</ele>
        <time>2017-10-01T07:38:44.000Z</time>
      </trkpt>
      <trkpt lat="45.03054" lon="1.08912">
        <ele>217</ele>
        <time>2017-10-01T07:38:45.000Z</time>
      </trkpt>
      <trkpt lat="45.03057" lon="1.08912">
        <ele>217</ele>
        <time>2017-10-01T07:38:46.000Z</time>
      </trkpt>
      <trkpt lat="45.0306" lon="1.08913">
        <ele>217</ele>
        <time>2017-10-01T07:38:47.000Z</time>
      </trkpt>
      <trkpt lat="45.03063" lon="1.08913">
        <ele>217</ele>
        <time>2017-10-01T07:38:48.000Z</time>
      </trkpt>
      <trkpt lat="45.03067" lon="1.08912">
        <ele>217</ele>
        <time>2017-10-01T07:38:49.000Z</time>
      </trkpt>
      <trkpt lat="45.03072" lon="1.08912">
        <ele>217</ele>
        <time>2017-10-01T07:38:50.000Z</time>
      </trkpt>
      <trkpt lat="45.03077" lon="1.08912">
        <ele>217</ele>
        <time>2017-10-01T07:38:51.000Z</time>
      </trkpt>
      <trkpt lat="45.03082" lon="1.08911">
        <ele>217</ele>
        <time>2017-10-01T07:38:52.000Z</time>
      </trkpt>
      <trkpt lat="45.03088" lon="1.0891">
        <ele>216</ele>
        <time>2017-10-01T07:38:53.000Z</time>
      </trkpt>
      <trkpt lat="45.03094" lon="1.08909">
        <ele>216</ele>
        <time>2017-10-01T07:38:54.000Z</time>
      </trkpt>
      <trkpt lat="45.031" lon="1.08909">
        <ele>216</ele>
        <time>2017-10-01T07:38:55.000Z</time>
      </trkpt>
      <trkpt lat="45.03106" lon="1.0891">
        <ele>215</ele>
        <time>2017-10-01T07:38:56.000Z</time>
      </trkpt>
      <trkpt lat="45.03111" lon="1.08913">
        <ele>215</ele>
        <time>2017-10-01T07:38:57.000Z</time>
      </trkpt>
      <trkpt lat="45.03115" lon="1.08917">
        <ele>215</ele>
        <time>2017-10-01T07:38:58.000Z</time>
      </trkpt>
      <trkpt lat="45.0312" lon="1.08923">
        <ele>215</ele>
        <time>2017-10-01T07:38:59.000Z</time>
      </trkpt>
      <trkpt lat="45.03124" lon="1.0893">
        <ele>214</ele>
        <time>2017-10-01T07:39:00.000Z</time>
      </trkpt>
      <trkpt lat="45.03128" lon="1.08936">
        <ele>214</ele>
        <time>2017-10-01T07:39:01.000Z</time>
      </trkpt>
      <trkpt lat="45.03133" lon="1.0894">
        <ele>214</ele>
        <time>2017-10-01T07:39:02.000Z</time>
      </trkpt>
      <trkpt lat="45.03138" lon="1.08943">
        <ele>214</ele>
        <time>2017-10-01T07:39:03.000Z</time>
      </trkpt>
      <trkpt lat="45.03143" lon="1.08945">
        <ele>214</ele>
        <time>2017-10-01T07:39:04.000Z</time>
      </trkpt>
      <trkpt lat="45.03149" lon="1.08946">
        <ele>213</ele>
        <time>2017-10-01T07:39:05.000Z</time>
      </trkpt>
      <trkpt lat="45.03154" lon="1.08948">
        <ele>213</ele>
        <time>2017-10-01T07:39:06.000Z</time>
      </trkpt>
      <trkpt lat="45.0316" lon="1.0895">
        <ele>212</ele>
        <time>2017-10-01T07:39:07.000Z</time>
      </trkpt>
      <trkpt lat="45.03165" lon="1.08953">
        <ele>212</ele>
        <time>2017-10-01T07:39:08.000Z</time>
      </trkpt>
      <trkpt lat="45.0317" lon="1.08957">
        <ele>212</ele>
        <time>2017-10-01T07:39:09.000Z</time>
      </trkpt>
      <trkpt lat="45.03176" lon="1.0896">
        <ele>211</ele>
        <time>2017-10-01T07:39:10.000Z</time>
      </trkpt>
      <trkpt lat="45.03183" lon="1.08964">
        <ele>211</ele>
        <time>2017-10-01T07:39:11.000Z</time>
      </trkpt>
      <trkpt lat="45.0319" lon="1.08966">
        <ele>210</ele>
        <time>2017-10-01T07:39:12.000Z</time>
      </trkpt>
      <trkpt lat="45.03198" lon="1.08968">
        <ele>209</ele>
        <time>2017-10-01T07:39:13.000Z</time>
      </trkpt>
      <trkpt lat="45.03206" lon="1.0897">
        <ele>208</ele>
        <time>2017-10-01T07:39:14.000Z</time>
      </trkpt>
      <trkpt lat="45.03215" lon="1.08971">
        <ele>207</ele>
        <time>2017-10-01T07:39:15.000Z</time>
      </trkpt>
      <trkpt lat="45.03224" lon="1.08971">
        <ele>207</ele>
        <time>2017-10-01T07:39:16.000Z</time>
      </trkpt>
      <trkpt lat="45.03233" lon="1.08972">
        <ele>206</ele>
        <time>2017-10-01T07:39:17.000Z</time>
      </trkpt>
      <trkpt lat="45.03242" lon="1.08972">
        <ele>205</ele>
        <time>2017-10-01T07:39:18.000Z</time>
      </trkpt>
      <trkpt lat="45.03251" lon="1.08972">
        <ele>204</ele>
        <time>2017-10-01T07:39:19.000Z</time>
      </trkpt>
      <trkpt lat="45.03261" lon="1.08971">
        <ele>203</ele>
        <time>2017-10-01T07:39:20.000Z</time>
      </trkpt>
      <trkpt lat="45.0327" lon="1.0897">
        <ele>202</ele>
        <time>2017-10-01T07:39:21.000Z</time>
      </trkpt>
      <trkpt lat="45.03278" lon="1.08969">
        <ele>200</ele>
        <time>2017-10-01T07:39:22.000Z</time>
      </trkpt>
      <trkpt lat="45.03286" lon="1.08968">
        <ele>199</ele>
        <time>2017-10-01T07:39:23.000Z</time>
      </trkpt>
      <trkpt lat="45.03293" lon="1.08967">
        <ele>199</ele>
        <time>2017-10-01T07:39:24.000Z</time>
      </trkpt>
      <trkpt lat="45.03299" lon="1.08964">
        <ele>198</ele>
        <time>2017-10-01T07:39:25.000Z</time>
      </trkpt>
      <trkpt lat="45.03305" lon="1.08961">
        <ele>197</ele>
        <time>2017-10-01T07:39:26.000Z</time>
      </trkpt>
      <trkpt lat="45.03309" lon="1.08957">
        <ele>196</ele>
        <time>2017-10-01T07:39:27.000Z</time>
      </trkpt>
      <trkpt lat="45.03315" lon="1.08954">
        <ele>195</ele>
        <time>2017-10-01T07:39:28.000Z</time>
      </trkpt>
      <trkpt lat="45.03323" lon="1.08953">
        <ele>194</ele>
        <time>2017-10-01T07:39:29.000Z</time>
      </trkpt>
      <trkpt lat="45.03331" lon="1.08953">
        <ele>193</ele>
        <time>2017-10-01T07:39:30.000Z</time>
      </trkpt>
      <trkpt lat="45.03339" lon="1.08954">
        <ele>192</ele>
        <time>2017-10-01T07:39:31.000Z</time>
      </trkpt>
      <trkpt lat="45.03346" lon="1.08955">
        <ele>192</ele>
        <time>2017-10-01T07:39:32.000Z</time>
      </trkpt>
      <trkpt lat="45.03352" lon="1.08957">
        <ele>192</ele>
        <time>2017-10-01T07:39:33.000Z</time>
      </trkpt>
      <trkpt lat="45.03358" lon="1.08958">
        <ele>191</ele>
        <time>2017-10-01T07:39:34.000Z</time>
      </trkpt>
      <trkpt lat="45.03364" lon="1.0896">
        <ele>191</ele>
        <time>2017-10-01T07:39:35.000Z</time>
      </trkpt>
      <trkpt lat="45.0337" lon="1.08961">
        <ele>191</ele>
        <time>2017-10-01T07:39:36.000Z</time>
      </trkpt>
      <trkpt lat="45.03377" lon="1.08962">
        <ele>190</ele>
        <time>2017-10-01T07:39:37.000Z</time>
      </trkpt>
      <trkpt lat="45.03383" lon="1.08963">
        <ele>190</ele>
        <time>2017-10-01T07:39:38.000Z</time>
      </trkpt>
      <trkpt lat="45.0339" lon="1.08964">
        <ele>190</ele>
        <time>2017-10-01T07:39:39.000Z</time>
      </trkpt>
      <trkpt lat="45.03396" lon="1.08966">
        <ele>189</ele>
        <time>2017-10-01T07:39:40.000Z</time>
      </trkpt>
      <trkpt lat="45.03403" lon="1.08968">
        <ele>189</ele>
        <time>2017-10-01T07:39:41.000Z</time>
      </trkpt>
      <trkpt lat="45.03409" lon="1.0897">
        <ele>189</ele>
        <time>2017-10-01T07:39:42.000Z</time>
      </trkpt>
      <trkpt lat="45.03415" lon="1.08973">
        <ele>189</ele>
        <time>2017-10-01T07:39:43.000Z</time>
      </trkpt>
      <trkpt lat="45.03421" lon="1.08976">
        <ele>189</ele>
        <time>2017-10-01T07:39:44.000Z</time>
      </trkpt>
      <trkpt lat="45.03427" lon="1.08979">
        <ele>189</ele>
        <time>2017-10-01T07:39:45.000Z</time>
      </trkpt>
      <trkpt lat="45.03433" lon="1.08983">
        <ele>189</ele>
        <time>2017-10-01T07:39:46.000Z</time>
      </trkpt>
      <trkpt lat="45.03438" lon="1.08987">
        <ele>189</ele>
        <time>2017-10-01T07:39:47.000Z</time>
      </trkpt>
      <trkpt lat="45.03443" lon="1.08992">
        <ele>189</ele>
        <time>2017-10-01T07:39:48.000Z</time>
      </trkpt>
      <trkpt lat="45.03447" lon="1.08996">
        <ele>189</ele>
        <time>2017-10-01T07:39:49.000Z</time>
      </trkpt>
      <trkpt lat="45.0345" lon="1.09">
        <ele>189</ele>
        <time>2017-10-01T07:39:50.000Z</time>
      </trkpt>
      <trkpt lat="45.03454" lon="1.09003">
        <ele>189</ele>
        <time>2017-10-01T07:39:51.000Z</time>
      </trkpt>
      <trkpt lat="45.03457" lon="1.09005">
        <ele>189</ele>
        <time>2017-10-01T07:39:52.000Z</time>
      </trkpt>
      <trkpt lat="45.0346" lon="1.09006">
        <ele>189</ele>
        <time>2017-10-01T07:39:53.000Z</time>
      </trkpt>
      <trkpt lat="45.03463" lon="1.09005">
        <ele>189</ele>
        <time>2017-10-01T07:39:54.000Z</time>
      </trkpt>
      <trkpt lat="45.03467" lon="1.09001">
        <ele>188</ele>
        <time>2017-10-01T07:39:55.000Z</time>
      </trkpt>
      <trkpt lat="45.03471" lon="1.08996">
        <ele>187</ele>
        <time>2017-10-01T07:39:56.000Z</time>
      </trkpt>
      <trkpt lat="45.03476" lon="1.08989">
        <ele>186</ele>
        <time>2017-10-01T07:39:57.000Z</time>
      </trkpt>
      <trkpt lat="45.03481" lon="1.08982">
        <ele>184</ele>
        <time>2017-10-01T07:39:58.000Z</time>
      </trkpt>
      <trkpt lat="45.03487" lon="1.08974">
        <ele>183</ele>
        <time>2017-10-01T07:39:59.000Z</time>
      </trkpt>
      <trkpt lat="45.03492" lon="1.08966">
        <ele>181</ele>
        <time>2017-10-01T07:40:00.000Z</time>
      </trkpt>
      <trkpt lat="45.03498" lon="1.08959">
        <ele>180</ele>
        <time>2017-10-01T07:40:01.000Z</time>
      </trkpt>
      <trkpt lat="45.03504" lon="1.08951">
        <ele>178</ele>
        <time>2017-10-01T07:40:02.000Z</time>
      </trkpt>
      <trkpt lat="45.03511" lon="1.08945">
        <ele>177</ele>
        <time>2017-10-01T07:40:03.000Z</time>
      </trkpt>
      <trkpt lat="45.03518" lon="1.08941">
        <ele>176</ele>
        <time>2017-10-01T07:40:04.000Z</time>
      </trkpt>
      <trkpt lat="45.03525" lon="1.08939">
        <ele>175</ele>
        <time>2017-10-01T07:40:05.000Z</time>
      </trkpt>
      <trkpt lat="45.03532" lon="1.08941">
        <ele>174</ele>
        <time>2017-10-01T07:40:06.000Z</time>
      </trkpt>
      <trkpt lat="45.03538" lon="1.08944">
        <ele>174</ele>
        <time>2017-10-01T07:40:07.000Z</time>
      </trkpt>
      <trkpt lat="45.03543" lon="1.08949">
        <ele>174</ele>
        <time>2017-10-01T07:40:08.000Z</time>
      </trkpt>
      <trkpt lat="45.03548" lon="1.08953">
        <ele>174</ele>
        <time>2017-10-01T07:40:09.000Z</time>
      </trkpt>
      <trkpt lat="45.03553" lon="1.08958">
        <ele>174</ele>
        <time>2017-10-01T07:40:10.000Z</time>
      </trkpt>
      <trkpt lat="45.03559" lon="1.0896">
        <ele>173</ele>
        <time>2017-10-01T07:40:11.000Z</time>
      </trkpt>
      <trkpt lat="45.03565" lon="1.08962">
        <ele>173</ele>
        <time>2017-10-01T07:40:12.000Z</time>
      </trkpt>
      <trkpt lat="45.03571" lon="1.08964">
        <ele>173</ele>
        <time>2017-10-01T07:40:13.000Z</time>
      </trkpt>
      <trkpt lat="45.03577" lon="1.08966">
        <ele>172</ele>
        <time>2017-10-01T07:40:14.000Z</time>
      </trkpt>
      <trkpt lat="45.03583" lon="1.0897">
        <ele>172</ele>
        <time>2017-10-01T07:40:15.000Z</time>
      </trkpt>
      <trkpt lat="45.03589" lon="1.08974">
        <ele>172</ele>
        <time>2017-10-01T07:40:16.000Z</time>
      </trkpt>
      <trkpt lat="45.03594" lon="1.08979">
        <ele>172</ele>
        <time>2017-10-01T07:40:17.000Z</time>
      </trkpt>
      <trkpt lat="45.03598" lon="1.08984">
        <ele>172</ele>
        <time>2017-10-01T07:40:18.000Z</time>
      </trkpt>
      <trkpt lat="45.03601" lon="1.0899">
        <ele>172</ele>
        <time>2017-10-01T07:40:19.000Z</time>
      </trkpt>
      <trkpt lat="45.03604" lon="1.08995">
        <ele>173</ele>
        <time>2017-10-01T07:40:20.000Z</time>
      </trkpt>
      <trkpt lat="45.03606" lon="1.09001">
        <ele>173</ele>
        <time>2017-10-01T07:40:21.000Z</time>
      </trkpt>
      <trkpt lat="45.03608" lon="1.09005">
        <ele>173</ele>
        <time>2017-10-01T07:40:22.000Z</time>
      </trkpt>
      <trkpt lat="45.03609" lon="1.0901">
        <ele>173</ele>
        <time>2017-10-01T07:40:23.000Z</time>
      </trkpt>
      <trkpt lat="45.0361" lon="1.09014">
        <ele>173</ele>
        <time>2017-10-01T07:40:24.000Z</time>
      </trkpt>
      <trkpt lat="45.03612" lon="1.0902">
        <ele>173</ele>
        <time>2017-10-01T07:40:25.000Z</time>
      </trkpt>
      <trkpt lat="45.03613" lon="1.09025">
        <ele>173</ele>
        <time>2017-10-01T07:40:26.000Z</time>
      </trkpt>
      <trkpt lat="45.03615" lon="1.09028">
        <ele>173</ele>
        <time>2017-10-01T07:40:27.000Z</time>
      </trkpt>
      <trkpt lat="45.03618" lon="1.09029">
        <ele>172</ele>
        <time>2017-10-01T07:40:28.000Z</time>
      </trkpt>
      <trkpt lat="45.03621" lon="1.09029">
        <ele>172</ele>
        <time>2017-10-01T07:40:29.000Z</time>
      </trkpt>
      <trkpt lat="45.03625" lon="1.09027">
        <ele>172</ele>
        <time>2017-10-01T07:40:30.000Z</time>
      </trkpt>
      <trkpt lat="45.0363" lon="1.09024">
        <ele>171</ele>
        <time>2017-10-01T07:40:31.000Z</time>
      </trkpt>
      <trkpt lat="45.03636" lon="1.09022">
        <ele>170</ele>
        <time>2017-10-01T07:40:32.000Z</time>
      </trkpt>
      <trkpt lat="45.03643" lon="1.09021">
        <ele>169</ele>
        <time>2017-10-01T07:40:33.000Z</time>
      </trkpt>
      <trkpt lat="45.03652" lon="1.09019">
        <ele>168</ele>
        <time>2017-10-01T07:40:34.000Z</time>
      </trkpt>
      <trkpt lat="45.0366" lon="1.09018">
        <ele>167</ele>
        <time>2017-10-01T07:40:35.000Z</time>
      </trkpt>
      <trkpt lat="45.03669" lon="1.09017">
        <ele>166</ele>
        <time>2017-10-01T07:40:36.000Z</time>
      </trkpt>
      <trkpt lat="45.03678" lon="1.09017">
        <ele>165</ele>
        <time>2017-10-01T07:40:37.000Z</time>
      </trkpt>
      <trkpt lat="45.03686" lon="1.09016">
        <ele>164</ele>
        <time>2017-10-01T07:40:38.000Z</time>
      </trkpt>
      <trkpt lat="45.03694" lon="1.09016">
        <ele>162</ele>
        <time>2017-10-01T07:40:39.000Z</time>
      </trkpt>
      <trkpt lat="45.03702" lon="1.09015">
        <ele>161</ele>
        <time>2017-10-01T07:40:40.000Z</time>
      </trkpt>
      <trkpt lat="45.03709" lon="1.09015">
        <ele>160</ele>
        <time>2017-10-01T07:40:41.000Z</time>
      </trkpt>
      <trkpt lat="45.03716" lon="1.09013">
        <ele>159</ele>
        <time>2017-10-01T07:40:42.000Z</time>
      </trkpt>
      <trkpt lat="45.03722" lon="1.09012">
        <ele>158</ele>
        <time>2017-10-01T07:40:43.000Z</time>
      </trkpt>
      <trkpt lat="45.03728" lon="1.09011">
        <ele>157</ele>
        <time>2017-10-01T07:40:44.000Z</time>
      </trkpt>
      <trkpt lat="45.03733" lon="1.0901">
        <ele>156</ele>
        <time>2017-10-01T07:40:45.000Z</time>
      </trkpt>
      <trkpt lat="45.03738" lon="1.0901">
        <ele>155</ele>
        <time>2017-10-01T07:40:46.000Z</time>
      </trkpt>
      <trkpt lat="45.03743" lon="1.0901">
        <ele>155</ele>
        <time>2017-10-01T07:40:47.000Z</time>
      </trkpt>
      <trkpt lat="45.03747" lon="1.0901">
        <ele>154</ele>
        <time>2017-10-01T07:40:48.000Z</time>
      </trkpt>
      <trkpt lat="45.0375" lon="1.09012">
        <ele>153</ele>
        <time>2017-10-01T07:40:49.000Z</time>
      </trkpt>
      <trkpt lat="45.03752" lon="1.09015">
        <ele>153</ele>
        <time>2017-10-01T07:40:50.000Z</time>
      </trkpt>
      <trkpt lat="45.03754" lon="1.09018">
        <ele>152</ele>
        <time>2017-10-01T07:40:51.000Z</time>
      </trkpt>
      <trkpt lat="45.03755" lon="1.09024">
        <ele>152</ele>
        <time>2017-10-01T07:40:52.000Z</time>
      </trkpt>
      <trkpt lat="45.03755" lon="1.0903">
        <ele>152</ele>
        <time>2017-10-01T07:40:53.000Z</time>
      </trkpt>
      <trkpt lat="45.03755" lon="1.09039">
        <ele>152</ele>
        <time>2017-10-01T07:40:54.000Z</time>
      </trkpt>
      <trkpt lat="45.03754" lon="1.09048">
        <ele>152</ele>
        <time>2017-10-01T07:40:55.000Z</time>
      </trkpt>
      <trkpt lat="45.03754" lon="1.09057">
        <ele>152</ele>
        <time>2017-10-01T07:40:56.000Z</time>
      </trkpt>
      <trkpt lat="45.03754" lon="1.09068">
        <ele>152</ele>
        <time>2017-10-01T07:40:57.000Z</time>
      </trkpt>
      <trkpt lat="45.03756" lon="1.09078">
        <ele>151</ele>
        <time>2017-10-01T07:40:58.000Z</time>
      </trkpt>
      <trkpt lat="45.03758" lon="1.09088">
        <ele>150</ele>
        <time>2017-10-01T07:40:59.000Z</time>
      </trkpt>
      <trkpt lat="45.03762" lon="1.09097">
        <ele>149</ele>
        <time>2017-10-01T07:41:00.000Z</time>
      </trkpt>
      <trkpt lat="45.03766" lon="1.09106">
        <ele>148</ele>
        <time>2017-10-01T07:41:01.000Z</time>
      </trkpt>
      <trkpt lat="45.0377" lon="1.09113">
        <ele>147</ele>
        <time>2017-10-01T07:41:02.000Z</time>
      </trkpt>
      <trkpt lat="45.03774" lon="1.09118">
        <ele>146</ele>
        <time>2017-10-01T07:41:03.000Z</time>
      </trkpt>
      <trkpt lat="45.03778" lon="1.09124">
        <ele>145</ele>
        <time>2017-10-01T07:41:04.000Z</time>
      </trkpt>
      <trkpt lat="45.03783" lon="1.09129">
        <ele>143</ele>
        <time>2017-10-01T07:41:05.000Z</time>
      </trkpt>
      <trkpt lat="45.03788" lon="1.09134">
        <ele>142</ele>
        <time>2017-10-01T07:41:06.000Z</time>
      </trkpt>
      <trkpt lat="45.03793" lon="1.0914">
        <ele>141</ele>
        <time>2017-10-01T07:41:07.000Z</time>
      </trkpt>
      <trkpt lat="45.03798" lon="1.09147">
        <ele>139</ele>
        <time>2017-10-01T07:41:08.000Z</time>
      </trkpt>
      <trkpt lat="45.03802" lon="1.09155">
        <ele>138</ele>
        <time>2017-10-01T07:41:09.000Z</time>
      </trkpt>
      <trkpt lat="45.03805" lon="1.09163">
        <ele>137</ele>
        <time>2017-10-01T07:41:10.000Z</time>
      </trkpt>
      <trkpt lat="45.03808" lon="1.09172">
        <ele>136</ele>
        <time>2017-10-01T07:41:11.000Z</time>
      </trkpt>
      <trkpt lat="45.03811" lon="1.09182">
        <ele>135</ele>
        <time>2017-10-01T07:41:12.000Z</time>
      </trkpt>
      <trkpt lat="45.03813" lon="1.09192">
        <ele>134</ele>
        <time>2017-10-01T07:41:13.000Z</time>
      </trkpt>
      <trkpt lat="45.03815" lon="1.09203">
        <ele>133</ele>
        <time>2017-10-01T07:41:14.000Z</time>
      </trkpt>
      <trkpt lat="45.03816" lon="1.09215">
        <ele>132</ele>
        <time>2017-10-01T07:41:15.000Z</time>
      </trkpt>
      <trkpt lat="45.03818" lon="1.09227">
        <ele>131</ele>
        <time>2017-10-01T07:41:16.000Z</time>
      </trkpt>
      <trkpt lat="45.03819" lon="1.09239">
        <ele>130</ele>
        <time>2017-10-01T07:41:17.000Z</time>
      </trkpt>
      <trkpt lat="45.0382" lon="1.09251">
        <ele>129</ele>
        <time>2017-10-01T07:41:18.000Z</time>
      </trkpt>
      <trkpt lat="45.03821" lon="1.09264">
        <ele>128</ele>
        <time>2017-10-01T07:41:19.000Z</time>
      </trkpt>
      <trkpt lat="45.03822" lon="1.09276">
        <ele>127</ele>
        <time>2017-10-01T07:41:20.000Z</time>
      </trkpt>
      <trkpt lat="45.03822" lon="1.09288">
        <ele>126</ele>
        <time>2017-10-01T07:41:21.000Z</time>
      </trkpt>
      <trkpt lat="45.03822" lon="1.093">
        <ele>125</ele>
        <time>2017-10-01T07:41:22.000Z</time>
      </trkpt>
      <trkpt lat="45.03822" lon="1.09312">
        <ele>124</ele>
        <time>2017-10-01T07:41:23.000Z</time>
      </trkpt>
      <trkpt lat="45.03821" lon="1.09324">
        <ele>123</ele>
        <time>2017-10-01T07:41:24.000Z</time>
      </trkpt>
      <trkpt lat="45.03821" lon="1.09336">
        <ele>122</ele>
        <time>2017-10-01T07:41:25.000Z</time>
      </trkpt>
      <trkpt lat="45.0382" lon="1.09348">
        <ele>121</ele>
        <time>2017-10-01T07:41:26.000Z</time>
      </trkpt>
      <trkpt lat="45.0382" lon="1.0936">
        <ele>121</ele>
        <time>2017-10-01T07:41:27.000Z</time>
      </trkpt>
      <trkpt lat="45.0382" lon="1.09372">
        <ele>120</ele>
        <time>2017-10-01T07:41:28.000Z</time>
      </trkpt>
      <trkpt lat="45.0382" lon="1.09385">
        <ele>119</ele>
        <time>2017-10-01T07:41:29.000Z</time>
      </trkpt>
      <trkpt lat="45.03821" lon="1.09398">
        <ele>118</ele>
        <time>2017-10-01T07:41:30.000Z</time>
      </trkpt>
      <trkpt lat="45.03823" lon="1.0941">
        <ele>117</ele>
        <time>2017-10-01T07:41:31.000Z</time>
      </trkpt>
      <trkpt lat="45.03824" lon="1.09421">
        <ele>116</ele>
        <time>2017-10-01T07:41:32.000Z</time>
      </trkpt>
      <trkpt lat="45.03826" lon="1.09431">
        <ele>115</ele>
        <time>2017-10-01T07:41:33.000Z</time>
      </trkpt>
      <trkpt lat="45.03828" lon="1.0944">
        <ele>115</ele>
        <time>2017-10-01T07:41:34.000Z</time>
      </trkpt>
      <trkpt lat="45.0383" lon="1.09447">
        <ele>114</ele>
        <time>2017-10-01T07:41:35.000Z</time>
      </trkpt>
      <trkpt lat="45.03832" lon="1.09451">
        <ele>114</ele>
        <time>2017-10-01T07:41:36.000Z</time>
      </trkpt>
      <trkpt lat="45.03833" lon="1.09453">
        <ele>113</ele>
        <time>2017-10-01T07:41:37.000Z</time>
      </trkpt>
      <trkpt lat="45.03835" lon="1.09454">
        <ele>113</ele>
        <time>2017-10-01T07:41:38.000Z</time>
      </trkpt>
      <trkpt lat="45.03837" lon="1.09452">
        <ele>113</ele>
        <time>2017-10-01T07:41:39.000Z</time>
      </trkpt>
      <trkpt lat="45.03838" lon="1.09449">
        <ele>113</ele>
        <time>2017-10-01T07:41:40.000Z</time>
      </trkpt>
      <trkpt lat="45.03839" lon="1.09445">
        <ele>114</ele>
        <time>2017-10-01T07:41:41.000Z</time>
      </trkpt>
      <trkpt lat="45.0384" lon="1.0944">
        <ele>114</ele>
        <time>2017-10-01T07:41:42.000Z</time>
      </trkpt>
      <trkpt lat="45.0384" lon="1.09435">
        <ele>114</ele>
        <time>2017-10-01T07:41:43.000Z</time>
      </trkpt>
      <trkpt lat="45.03841" lon="1.0943">
        <ele>114</ele>
        <time>2017-10-01T07:41:44.000Z</time>
      </trkpt>
      <trkpt lat="45.03841" lon="1.09424">
        <ele>115</ele>
        <time>2017-10-01T07:41:45.000Z</time>
      </trkpt>
      <trkpt lat="45.03842" lon="1.09419">
        <ele>115</ele>
        <time>2017-10-01T07:41:46.000Z</time>
      </trkpt>
      <trkpt lat="45.03843" lon="1.09414">
        <ele>115</ele>
        <time>2017-10-01T07:41:47.000Z</time>
      </trkpt>
      <trkpt lat="45.03843" lon="1.0941">
        <ele>115</ele>
        <time>2017-10-01T07:41:48.000Z</time>
      </trkpt>
      <trkpt lat="45.03844" lon="1.09405">
        <ele>115</ele>
        <time>2017-10-01T07:41:49.000Z</time>
      </trkpt>
      <trkpt lat="45.03846" lon="1.09401">
        <ele>116</ele>
        <time>2017-10-01T07:41:50.000Z</time>
      </trkpt>
      <trkpt lat="45.03847" lon="1.09397">
        <ele>116</ele>
        <time>2017-10-01T07:41:51.000Z</time>
      </trkpt>
      <trkpt lat="45.03848" lon="1.09392">
        <ele>116</ele>
        <time>2017-10-01T07:41:52.000Z</time>
      </trkpt>
      <trkpt lat="45.03849" lon="1.09387">
        <ele>116</ele>
        <time>2017-10-01T07:41:53.000Z</time>
      </trkpt>
      <trkpt lat="45.0385" lon="1.09382">
        <ele>116</ele>
        <time>2017-10-01T07:41:54.000Z</time>
      </trkpt>
      <trkpt lat="45.03851" lon="1.09377">
        <ele>116</ele>
        <time>2017-10-01T07:41:55.000Z</time>
      </trkpt>
      <trkpt lat="45.03852" lon="1.09371">
        <ele>116</ele>
        <time>2017-10-01T07:41:56.000Z</time>
      </trkpt>
      <trkpt lat="45.03853" lon="1.09365">
        <ele>116</ele>
        <time>2017-10-01T07:41:57.000Z</time>
      </trkpt>
      <trkpt lat="45.03855" lon="1.0936">
        <ele>116</ele>
        <time>2017-10-01T07:41:58.000Z</time>
      </trkpt>
      <trkpt lat="45.03856" lon="1.09355">
        <ele>116</ele>
        <time>2017-10-01T07:41:59.000Z</time>
      </trkpt>
      <trkpt lat="45.03857" lon="1.0935">
        <ele>116</ele>
        <time>2017-10-01T07:42:00.000Z</time>
      </trkpt>
      <trkpt lat="45.03858" lon="1.09345">
        <ele>117</ele>
        <time>2017-10-01T07:42:01.000Z</time>
      </trkpt>
      <trkpt lat="45.0386" lon="1.0934">
        <ele>117</ele>
        <time>2017-10-01T07:42:02.000Z</time>
      </trkpt>
      <trkpt lat="45.03861" lon="1.09336">
        <ele>116</ele>
        <time>2017-10-01T07:42:03.000Z</time>
      </trkpt>
      <trkpt lat="45.03863" lon="1.09331">
        <ele>116</ele>
        <time>2017-10-01T07:42:04.000Z</time>
      </trkpt>
      <trkpt lat="45.03864" lon="1.09326">
        <ele>117</ele>
        <time>2017-10-01T07:42:05.000Z</time>
      </trkpt>
      <trkpt lat="45.03866" lon="1.09322">
        <ele>117</ele>
        <time>2017-10-01T07:42:06.000Z</time>
      </trkpt>
      <trkpt lat="45.03867" lon="1.09317">
        <ele>116</ele>
        <time>2017-10-01T07:42:07.000Z</time>
      </trkpt>
      <trkpt lat="45.03869" lon="1.09312">
        <ele>116</ele>
        <time>2017-10-01T07:42:08.000Z</time>
      </trkpt>
      <trkpt lat="45.03871" lon="1.09308">
        <ele>116</ele>
        <time>2017-10-01T07:42:09.000Z</time>
      </trkpt>
      <trkpt lat="45.03872" lon="1.09303">
        <ele>116</ele>
        <time>2017-10-01T07:42:10.000Z</time>
      </trkpt>
      <trkpt lat="45.03874" lon="1.09298">
        <ele>116</ele>
        <time>2017-10-01T07:42:11.000Z</time>
      </trkpt>
      <trkpt lat="45.03875" lon="1.09294">
        <ele>116</ele>
        <time>2017-10-01T07:42:12.000Z</time>
      </trkpt>
      <trkpt lat="45.03877" lon="1.09289">
        <ele>116</ele>
        <time>2017-10-01T07:42:13.000Z</time>
      </trkpt>
      <trkpt lat="45.03878" lon="1.09284">
        <ele>116</ele>
        <time>2017-10-01T07:42:14.000Z</time>
      </trkpt>
      <trkpt lat="45.03879" lon="1.09279">
        <ele>116</ele>
        <time>2017-10-01T07:42:15.000Z</time>
      </trkpt>
      <trkpt lat="45.0388" lon="1.09274">
        <ele>116</ele>
        <time>2017-10-01T07:42:16.000Z</time>
      </trkpt>
      <trkpt lat="45.03881" lon="1.09269">
        <ele>116</ele>
        <time>2017-10-01T07:42:17.000Z</time>
      </trkpt>
      <trkpt lat="45.03882" lon="1.09264">
        <ele>116</ele>
        <time>2017-10-01T07:42:18.000Z</time>
      </trkpt>
      <trkpt lat="45.03882" lon="1.09259">
        <ele>116</ele>
        <time>2017-10-01T07:42:19.000Z</time>
      </trkpt>
      <trkpt lat="45.03883" lon="1.09254">
        <ele>116</ele>
        <time>2017-10-01T07:42:20.000Z</time>
      </trkpt>
      <trkpt lat="45.03884" lon="1.09249">
        <ele>116</ele>
        <time>2017-10-01T07:42:21.000Z</time>
      </trkpt>
      <trkpt lat="45.03885" lon="1.09243">
        <ele>116</ele>
        <time>2017-10-01T07:42:22.000Z</time>
      </trkpt>
      <trkpt lat="45.03887" lon="1.09238">
        <ele>116</ele>
        <time>2017-10-01T07:42:23.000Z</time>
      </trkpt>
      <trkpt lat="45.03889" lon="1.09232">
        <ele>116</ele>
        <time>2017-10-01T07:42:24.000Z</time>
      </trkpt>
      <trkpt lat="45.0389" lon="1.09226">
        <ele>115</ele>
        <time>2017-10-01T07:42:25.000Z</time>
      </trkpt>
      <trkpt lat="45.03892" lon="1.0922">
        <ele>115</ele>
        <time>2017-10-01T07:42:26.000Z</time>
      </trkpt>
      <trkpt lat="45.03894" lon="1.09214">
        <ele>115</ele>
        <time>2017-10-01T07:42:27.000Z</time>
      </trkpt>
      <trkpt lat="45.03895" lon="1.09207">
        <ele>115</ele>
        <time>2017-10-01T07:42:28.000Z</time>
      </trkpt>
      <trkpt lat="45.03896" lon="1.092">
        <ele>115</ele>
        <time>2017-10-01T07:42:29.000Z</time>
      </trkpt>
      <trkpt lat="45.03897" lon="1.09193">
        <ele>115</ele>
        <time>2017-10-01T07:42:30.000Z</time>
      </trkpt>
      <trkpt lat="45.03898" lon="1.09187">
        <ele>115</ele>
        <time>2017-10-01T07:42:31.000Z</time>
      </trkpt>
      <trkpt lat="45.03899" lon="1.09181">
        <ele>115</ele>
        <time>2017-10-01T07:42:32.000Z</time>
      </trkpt>
      <trkpt lat="45.039" lon="1.09176">
        <ele>115</ele>
        <time>2017-10-01T07:42:33.000Z</time>
      </trkpt>
      <trkpt lat="45.03902" lon="1.09171">
        <ele>115</ele>
        <time>2017-10-01T07:42:34.000Z</time>
      </trkpt>
      <trkpt lat="45.03903" lon="1.09165">
        <ele>114</ele>
        <time>2017-10-01T07:42:35.000Z</time>
      </trkpt>
      <trkpt lat="45.03905" lon="1.09158">
        <ele>114</ele>
        <time>2017-10-01T07:42:36.000Z</time>
      </trkpt>
      <trkpt lat="45.03907" lon="1.09152">
        <ele>114</ele>
        <time>2017-10-01T07:42:37.000Z</time>
      </trkpt>
      <trkpt lat="45.03908" lon="1.09146">
        <ele>114</ele>
        <time>2017-10-01T07:42:38.000Z</time>
      </trkpt>
      <trkpt lat="45.03909" lon="1.0914">
        <ele>114</ele>
        <time>2017-10-01T07:42:39.000Z</time>
      </trkpt>
      <trkpt lat="45.0391" lon="1.09134">
        <ele>114</ele>
        <time>2017-10-01T07:42:40.000Z</time>
      </trkpt>
      <trkpt lat="45.03911" lon="1.09128">
        <ele>114</ele>
        <time>2017-10-01T07:42:41.000Z</time>
      </trkpt>
      <trkpt lat="45.03913" lon="1.09121">
        <ele>114</ele>
        <time>2017-10-01T07:42:42.000Z</time>
      </trkpt>
      <trkpt lat="45.03914" lon="1.09115">
        <ele>114</ele>
        <time>2017-10-01T07:42:43.000Z</time>
      </trkpt>
      <trkpt lat="45.03916" lon="1.09108">
        <ele>114</ele>
        <time>2017-10-01T07:42:44.000Z</time>
      </trkpt>
      <trkpt lat="45.03917" lon="1.09102">
        <ele>114</ele>
        <time>2017-10-01T07:42:45.000Z</time>
      </trkpt>
      <trkpt lat="45.03919" lon="1.09096">
        <ele>114</ele>
        <time>2017-10-01T07:42:46.000Z</time>
      </trkpt>
      <trkpt lat="45.03921" lon="1.09089">
        <ele>114</ele>
        <time>2017-10-01T07:42:47.000Z</time>
      </trkpt>
      <trkpt lat="45.03922" lon="1.09083">
        <ele>114</ele>
        <time>2017-10-01T07:42:48.000Z</time>
      </trkpt>
      <trkpt lat="45.03924" lon="1.09078">
        <ele>115</ele>
        <time>2017-10-01T07:42:49.000Z</time>
      </trkpt>
      <trkpt lat="45.03926" lon="1.09072">
        <ele>115</ele>
        <time>2017-10-01T07:42:50.000Z</time>
      </trkpt>
      <trkpt lat="45.03927" lon="1.09067">
        <ele>115</ele>
        <time>2017-10-01T07:42:51.000Z</time>
      </trkpt>
      <trkpt lat="45.03929" lon="1.09062">
        <ele>116</ele>
        <time>2017-10-01T07:42:52.000Z</time>
      </trkpt>
      <trkpt lat="45.03931" lon="1.09057">
        <ele>116</ele>
        <time>2017-10-01T07:42:53.000Z</time>
      </trkpt>
      <trkpt lat="45.03932" lon="1.09053">
        <ele>116</ele>
        <time>2017-10-01T07:42:54.000Z</time>
      </trkpt>
      <trkpt lat="45.03934" lon="1.09049">
        <ele>116</ele>
        <time>2017-10-01T07:42:55.000Z</time>
      </trkpt>
      <trkpt lat="45.03935" lon="1.09045">
        <ele>116</ele>
        <time>2017-10-01T07:42:56.000Z</time>
      </trkpt>
      <trkpt lat="45.03937" lon="1.09041">
        <ele>116</ele>
        <time>2017-10-01T07:42:57.000Z</time>
      </trkpt>
      <trkpt lat="45.03938" lon="1.09037">
        <ele>117</ele>
        <time>2017-10-01T07:42:58.000Z</time>
      </trkpt>
      <trkpt lat="45.0394" lon="1.09033">
        <ele>117</ele>
        <time>2017-10-01T07:42:59.000Z</time>
      </trkpt>
      <trkpt lat="45.03941" lon="1.09029">
        <ele>117</ele>
        <time>2017-10-01T07:43:00.000Z</time>
      </trkpt>
      <trkpt lat="45.03942" lon="1.09025">
        <ele>117</ele>
        <time>2017-10-01T07:43:01.000Z</time>
      </trkpt>
      <trkpt lat="45.03944" lon="1.0902">
        <ele>117</ele>
        <time>2017-10-01T07:43:02.000Z</time>
      </trkpt>
      <trkpt lat="45.03945" lon="1.09015">
        <ele>118</ele>
        <time>2017-10-01T07:43:03.000Z</time>
      </trkpt>
      <trkpt lat="45.03946" lon="1.09009">
        <ele>118</ele>
        <time>2017-10-01T07:43:04.000Z</time>
      </trkpt>
      <trkpt lat="45.03947" lon="1.09003">
        <ele>118</ele>
        <time>2017-10-01T07:43:05.000Z</time>
      </trkpt>
      <trkpt lat="45.03948" lon="1.08996">
        <ele>118</ele>
        <time>2017-10-01T07:43:06.000Z</time>
      </trkpt>
      <trkpt lat="45.03949" lon="1.08989">
        <ele>118</ele>
        <time>2017-10-01T07:43:07.000Z</time>
      </trkpt>
      <trkpt lat="45.0395" lon="1.08982">
        <ele>118</ele>
        <time>2017-10-01T07:43:08.000Z</time>
      </trkpt>
      <trkpt lat="45.03951" lon="1.08974">
        <ele>118</ele>
        <time>2017-10-01T07:43:09.000Z</time>
      </trkpt>
      <trkpt lat="45.03952" lon="1.08967">
        <ele>118</ele>
        <time>2017-10-01T07:43:10.000Z</time>
      </trkpt>
      <trkpt lat="45.03952" lon="1.0896">
        <ele>118</ele>
        <time>2017-10-01T07:43:11.000Z</time>
      </trkpt>
      <trkpt lat="45.03953" lon="1.08954">
        <ele>118</ele>
        <time>2017-10-01T07:43:12.000Z</time>
      </trkpt>
      <trkpt lat="45.03953" lon="1.08948">
        <ele>118</ele>
        <time>2017-10-01T07:43:13.000Z</time>
      </trkpt>
      <trkpt lat="45.03953" lon="1.08942">
        <ele>118</ele>
        <time>2017-10-01T07:43:14.000Z</time>
      </trkpt>
      <trkpt lat="45.03953" lon="1.08936">
        <ele>118</ele>
        <time>2017-10-01T07:43:15.000Z</time>
      </trkpt>
      <trkpt lat="45.03952" lon="1.0893">
        <ele>118</ele>
        <time>2017-10-01T07:43:16.000Z</time>
      </trkpt>
      <trkpt lat="45.03951" lon="1.08925">
        <ele>118</ele>
        <time>2017-10-01T07:43:17.000Z</time>
      </trkpt>
      <trkpt lat="45.0395" lon="1.0892">
        <ele>118</ele>
        <time>2017-10-01T07:43:18.000Z</time>
      </trkpt>
      <trkpt lat="45.03949" lon="1.08914">
        <ele>118</ele>
        <time>2017-10-01T07:43:19.000Z</time>
      </trkpt>
      <trkpt lat="45.03948" lon="1.08908">
        <ele>118</ele>
        <time>2017-10-01T07:43:20.000Z</time>
      </trkpt>
      <trkpt lat="45.03948" lon="1.08901">
        <ele>118</ele>
        <time>2017-10-01T07:43:21.000Z</time>
      </trkpt>
      <trkpt lat="45.03947" lon="1.08893">
        <ele>118</ele>
        <time>2017-10-01T07:43:22.000Z</time>
      </trkpt>
      <trkpt lat="45.03947" lon="1.08886">
        <ele>118</ele>
        <time>2017-10-01T07:43:23.000Z</time>
      </trkpt>
      <trkpt lat="45.03946" lon="1.08879">
        <ele>117</ele>
        <time>2017-10-01T07:43:24.000Z</time>
      </trkpt>
      <trkpt lat="45.03945" lon="1.08872">
        <ele>117</ele>
        <time>2017-10-01T07:43:25.000Z</time>
      </trkpt>
      <trkpt lat="45.03944" lon="1.08866">
        <ele>117</ele>
        <time>2017-10-01T07:43:26.000Z</time>
      </trkpt>
      <trkpt lat="45.03943" lon="1.08858">
        <ele>117</ele>
        <time>2017-10-01T07:43:27.000Z</time>
      </trkpt>
      <trkpt lat="45.03943" lon="1.08851">
        <ele>117</ele>
        <time>2017-10-01T07:43:28.000Z</time>
      </trkpt>
      <trkpt lat="45.03942" lon="1.08844">
        <ele>117</ele>
        <time>2017-10-01T07:43:29.000Z</time>
      </trkpt>
      <trkpt lat="45.03942" lon="1.08836">
        <ele>116</ele>
        <time>2017-10-01T07:43:30.000Z</time>
      </trkpt>
      <trkpt lat="45.03942" lon="1.08828">
        <ele>117</ele>
        <time>2017-10-01T07:43:31.000Z</time>
      </trkpt>
      <trkpt lat="45.03943" lon="1.0882">
        <ele>117</ele>
        <time>2017-10-01T07:43:32.000Z</time>
      </trkpt>
      <trkpt lat="45.03943" lon="1.08811">
        <ele>117</ele>
        <time>2017-10-01T07:43:33.000Z</time>
      </trkpt>
      <trkpt lat="45.03944" lon="1.08802">
        <ele>118</ele>
        <time>2017-10-01T07:43:34.000Z</time>
      </trkpt>
      <trkpt lat="45.03945" lon="1.08793">
        <ele>118</ele>
        <time>2017-10-01T07:43:35.000Z</time>
      </trkpt>
      <trkpt lat="45.03946" lon="1.08784">
        <ele>118</ele>
        <time>2017-10-01T07:43:36.000Z</time>
      </trkpt>
      <trkpt lat="45.03946" lon="1.08774">
        <ele>119</ele>
        <time>2017-10-01T07:43:37.000Z</time>
      </trkpt>
      <trkpt lat="45.03947" lon="1.08765">
        <ele>119</ele>
        <time>2017-10-01T07:43:38.000Z</time>
      </trkpt>
      <trkpt lat="45.03947" lon="1.08755">
        <ele>119</ele>
        <time>2017-10-01T07:43:39.000Z</time>
      </trkpt>
      <trkpt lat="45.03946" lon="1.08746">
        <ele>120</ele>
        <time>2017-10-01T07:43:40.000Z</time>
      </trkpt>
      <trkpt lat="45.03944" lon="1.08736">
        <ele>120</ele>
        <time>2017-10-01T07:43:41.000Z</time>
      </trkpt>
      <trkpt lat="45.03942" lon="1.08727">
        <ele>120</ele>
        <time>2017-10-01T07:43:42.000Z</time>
      </trkpt>
      <trkpt lat="45.03939" lon="1.08719">
        <ele>121</ele>
        <time>2017-10-01T07:43:43.000Z</time>
      </trkpt>
      <trkpt lat="45.03936" lon="1.0871">
        <ele>121</ele>
        <time>2017-10-01T07:43:44.000Z</time>
      </trkpt>
      <trkpt lat="45.03933" lon="1.08702">
        <ele>121</ele>
        <time>2017-10-01T07:43:45.000Z</time>
      </trkpt>
      <trkpt lat="45.0393" lon="1.08694">
        <ele>121</ele>
        <time>2017-10-01T07:43:46.000Z</time>
      </trkpt>
      <trkpt lat="45.03928" lon="1.08686">
        <ele>122</ele>
        <time>2017-10-01T07:43:47.000Z</time>
      </trkpt>
      <trkpt lat="45.03926" lon="1.08678">
        <ele>122</ele>
        <time>2017-10-01T07:43:48.000Z</time>
      </trkpt>
      <trkpt lat="45.03926" lon="1.08671">
        <ele>122</ele>
        <time>2017-10-01T07:43:49.000Z</time>
      </trkpt>
      <trkpt lat="45.03929" lon="1.08664">
        <ele>122</ele>
        <time>2017-10-01T07:43:50.000Z</time>
      </trkpt>
      <trkpt lat="45.03933" lon="1.08658">
        <ele>121</ele>
        <time>2017-10-01T07:43:51.000Z</time>
      </trkpt>
      <trkpt lat="45.03938" lon="1.08654">
        <ele>121</ele>
        <time>2017-10-01T07:43:52.000Z</time>
      </trkpt>
      <trkpt lat="45.03943" lon="1.0865">
        <ele>121</ele>
        <time>2017-10-01T07:43:53.000Z</time>
      </trkpt>
      <trkpt lat="45.03948" lon="1.08647">
        <ele>121</ele>
        <time>2017-10-01T07:43:54.000Z</time>
      </trkpt>
      <trkpt lat="45.03954" lon="1.08644">
        <ele>120</ele>
        <time>2017-10-01T07:43:55.000Z</time>
      </trkpt>
      <trkpt lat="45.03959" lon="1.08641">
        <ele>120</ele>
        <time>2017-10-01T07:43:56.000Z</time>
      </trkpt>
      <trkpt lat="45.03964" lon="1.08638">
        <ele>120</ele>
        <time>2017-10-01T07:43:57.000Z</time>
      </trkpt>
      <trkpt lat="45.03968" lon="1.08633">
        <ele>120</ele>
        <time>2017-10-01T07:43:58.000Z</time>
      </trkpt>
      <trkpt lat="45.03972" lon="1.08628">
        <ele>120</ele>
        <time>2017-10-01T07:43:59.000Z</time>
      </trkpt>
      <trkpt lat="45.03975" lon="1.08622">
        <ele>120</ele>
        <time>2017-10-01T07:44:00.000Z</time>
      </trkpt>
      <trkpt lat="45.03977" lon="1.08614">
        <ele>120</ele>
        <time>2017-10-01T07:44:01.000Z</time>
      </trkpt>
      <trkpt lat="45.03977" lon="1.08607">
        <ele>120</ele>
        <time>2017-10-01T07:44:02.000Z</time>
      </trkpt>
      <trkpt lat="45.03976" lon="1.086">
        <ele>121</ele>
        <time>2017-10-01T07:44:03.000Z</time>
      </trkpt>
      <trkpt lat="45.03975" lon="1.08593">
        <ele>121</ele>
        <time>2017-10-01T07:44:04.000Z</time>
      </trkpt>
      <trkpt lat="45.03975" lon="1.08588">
        <ele>122</ele>
        <time>2017-10-01T07:44:05.000Z</time>
      </trkpt>
      <trkpt lat="45.03976" lon="1.08583">
        <ele>122</ele>
        <time>2017-10-01T07:44:06.000Z</time>
      </trkpt>
      <trkpt lat="45.03977" lon="1.0858">
        <ele>122</ele>
        <time>2017-10-01T07:44:07.000Z</time>
      </trkpt>
      <trkpt lat="45.03979" lon="1.08576">
        <ele>123</ele>
        <time>2017-10-01T07:44:08.000Z</time>
      </trkpt>
      <trkpt lat="45.03981" lon="1.08572">
        <ele>123</ele>
        <time>2017-10-01T07:44:09.000Z</time>
      </trkpt>
      <trkpt lat="45.03983" lon="1.08568">
        <ele>123</ele>
        <time>2017-10-01T07:44:10.000Z</time>
      </trkpt>
      <trkpt lat="45.03985" lon="1.08564">
        <ele>124</ele>
        <time>2017-10-01T07:44:11.000Z</time>
      </trkpt>
      <trkpt lat="45.03986" lon="1.08559">
        <ele>124</ele>
        <time>2017-10-01T07:44:12.000Z</time>
      </trkpt>
      <trkpt lat="45.03988" lon="1.08554">
        <ele>125</ele>
        <time>2017-10-01T07:44:13.000Z</time>
      </trkpt>
      <trkpt lat="45.03989" lon="1.08549">
        <ele>126</ele>
        <time>2017-10-01T07:44:14.000Z</time>
      </trkpt>
      <trkpt lat="45.0399" lon="1.08543">
        <ele>126</ele>
        <time>2017-10-01T07:44:15.000Z</time>
      </trkpt>
      <trkpt lat="45.03991" lon="1.08538">
        <ele>127</ele>
        <time>2017-10-01T07:44:16.000Z</time>
      </trkpt>
      <trkpt lat="45.03992" lon="1.08532">
        <ele>127</ele>
        <time>2017-10-01T07:44:17.000Z</time>
      </trkpt>
      <trkpt lat="45.03993" lon="1.08527">
        <ele>128</ele>
        <time>2017-10-01T07:44:18.000Z</time>
      </trkpt>
      <trkpt lat="45.03994" lon="1.08522">
        <ele>129</ele>
        <time>2017-10-01T07:44:19.000Z</time>
      </trkpt>
      <trkpt lat="45.03995" lon="1.08517">
        <ele>129</ele>
        <time>2017-10-01T07:44:20.000Z</time>
      </trkpt>
      <trkpt lat="45.03996" lon="1.08513">
        <ele>130</ele>
        <time>2017-10-01T07:44:21.000Z</time>
      </trkpt>
      <trkpt lat="45.03997" lon="1.08508">
        <ele>130</ele>
        <time>2017-10-01T07:44:22.000Z</time>
      </trkpt>
      <trkpt lat="45.03998" lon="1.08503">
        <ele>130</ele>
        <time>2017-10-01T07:44:23.000Z</time>
      </trkpt>
      <trkpt lat="45.03999" lon="1.08499">
        <ele>131</ele>
        <time>2017-10-01T07:44:24.000Z</time>
      </trkpt>
      <trkpt lat="45.04" lon="1.08495">
        <ele>131</ele>
        <time>2017-10-01T07:44:25.000Z</time>
      </trkpt>
      <trkpt lat="45.04001" lon="1.0849">
        <ele>132</ele>
        <time>2017-10-01T07:44:26.000Z</time>
      </trkpt>
      <trkpt lat="45.04003" lon="1.08486">
        <ele>132</ele>
        <time>2017-10-01T07:44:27.000Z</time>
      </trkpt>
      <trkpt lat="45.04004" lon="1.08481">
        <ele>133</ele>
        <time>2017-10-01T07:44:28.000Z</time>
      </trkpt>
      <trkpt lat="45.04006" lon="1.08477">
        <ele>133</ele>
        <time>2017-10-01T07:44:29.000Z</time>
      </trkpt>
      <trkpt lat="45.04008" lon="1.08473">
        <ele>133</ele>
        <time>2017-10-01T07:44:30.000Z</time>
      </trkpt>
      <trkpt lat="45.0401" lon="1.08468">
        <ele>133</ele>
        <time>2017-10-01T07:44:31.000Z</time>
      </trkpt>
      <trkpt lat="45.04012" lon="1.08464">
        <ele>134</ele>
        <time>2017-10-01T07:44:32.000Z</time>
      </trkpt>
      <trkpt lat="45.04015" lon="1.08459">
        <ele>134</ele>
        <time>2017-10-01T07:44:33.000Z</time>
      </trkpt>
      <trkpt lat="45.04018" lon="1.08454">
        <ele>134</ele>
        <time>2017-10-01T07:44:34.000Z</time>
      </trkpt>
      <trkpt lat="45.04022" lon="1.08449">
        <ele>134</ele>
        <time>2017-10-01T07:44:35.000Z</time>
      </trkpt>
      <trkpt lat="45.04026" lon="1.08444">
        <ele>133</ele>
        <time>2017-10-01T07:44:36.000Z</time>
      </trkpt>
      <trkpt lat="45.04029" lon="1.08438">
        <ele>133</ele>
        <time>2017-10-01T07:44:37.000Z</time>
      </trkpt>
      <trkpt lat="45.04031" lon="1.08432">
        <ele>133</ele>
        <time>2017-10-01T07:44:38.000Z</time>
      </trkpt>
      <trkpt lat="45.04033" lon="1.08426">
        <ele>133</ele>
        <time>2017-10-01T07:44:39.000Z</time>
      </trkpt>
      <trkpt lat="45.04035" lon="1.08419">
        <ele>133</ele>
        <time>2017-10-01T07:44:40.000Z</time>
      </trkpt>
      <trkpt lat="45.04036" lon="1.08413">
        <ele>134</ele>
        <time>2017-10-01T07:44:41.000Z</time>
      </trkpt>
      <trkpt lat="45.04038" lon="1.08406">
        <ele>134</ele>
        <time>2017-10-01T07:44:42.000Z</time>
      </trkpt>
      <trkpt lat="45.0404" lon="1.084">
        <ele>135</ele>
        <time>2017-10-01T07:44:43.000Z</time>
      </trkpt>
      <trkpt lat="45.04042" lon="1.08394">
        <ele>135</ele>
        <time>2017-10-01T07:44:44.000Z</time>
      </trkpt>
      <trkpt lat="45.04044" lon="1.08388">
        <ele>136</ele>
        <time>2017-10-01T07:44:45.000Z</time>
      </trkpt>
      <trkpt lat="45.04047" lon="1.08382">
        <ele>136</ele>
        <time>2017-10-01T07:44:46.000Z</time>
      </trkpt>
      <trkpt lat="45.04049" lon="1.08376">
        <ele>136</ele>
        <time>2017-10-01T07:44:47.000Z</time>
      </trkpt>
      <trkpt lat="45.04051" lon="1.08371">
        <ele>136</ele>
        <time>2017-10-01T07:44:48.000Z</time>
      </trkpt>
      <trkpt lat="45.04054" lon="1.08365">
        <ele>136</ele>
        <time>2017-10-01T07:44:49.000Z</time>
      </trkpt>
      <trkpt lat="45.04057" lon="1.08361">
        <ele>136</ele>
        <time>2017-10-01T07:44:50.000Z</time>
      </trkpt>
      <trkpt lat="45.0406" lon="1.08356">
        <ele>136</ele>
        <time>2017-10-01T07:44:51.000Z</time>
      </trkpt>
      <trkpt lat="45.04063" lon="1.08352">
        <ele>136</ele>
        <time>2017-10-01T07:44:52.000Z</time>
      </trkpt>
      <trkpt lat="45.04066" lon="1.08348">
        <ele>135</ele>
        <time>2017-10-01T07:44:53.000Z</time>
      </trkpt>
      <trkpt lat="45.0407" lon="1.08345">
        <ele>135</ele>
        <time>2017-10-01T07:44:54.000Z</time>
      </trkpt>
      <trkpt lat="45.04074" lon="1.08342">
        <ele>134</ele>
        <time>2017-10-01T07:44:55.000Z</time>
      </trkpt>
      <trkpt lat="45.04077" lon="1.08339">
        <ele>134</ele>
        <time>2017-10-01T07:44:56.000Z</time>
      </trkpt>
      <trkpt lat="45.04081" lon="1.08336">
        <ele>133</ele>
        <time>2017-10-01T07:44:57.000Z</time>
      </trkpt>
      <trkpt lat="45.04085" lon="1.08333">
        <ele>132</ele>
        <time>2017-10-01T07:44:58.000Z</time>
      </trkpt>
      <trkpt lat="45.04088" lon="1.0833">
        <ele>133</ele>
        <time>2017-10-01T07:44:59.000Z</time>
      </trkpt>
      <trkpt lat="45.04092" lon="1.08327">
        <ele>133</ele>
        <time>2017-10-01T07:45:00.000Z</time>
      </trkpt>
      <trkpt lat="45.04095" lon="1.08323">
        <ele>133</ele>
        <time>2017-10-01T07:45:01.000Z</time>
      </trkpt>
      <trkpt lat="45.04098" lon="1.0832">
        <ele>134</ele>
        <time>2017-10-01T07:45:02.000Z</time>
      </trkpt>
      <trkpt lat="45.04101" lon="1.08316">
        <ele>134</ele>
        <time>2017-10-01T07:45:03.000Z</time>
      </trkpt>
      <trkpt lat="45.04104" lon="1.08312">
        <ele>134</ele>
        <time>2017-10-01T07:45:04.000Z</time>
      </trkpt>
      <trkpt lat="45.04107" lon="1.08307">
        <ele>135</ele>
        <time>2017-10-01T07:45:05.000Z</time>
      </trkpt>
      <trkpt lat="45.0411" lon="1.08303">
        <ele>135</ele>
        <time>2017-10-01T07:45:06.000Z</time>
      </trkpt>
      <trkpt lat="45.04113" lon="1.08298">
        <ele>135</ele>
        <time>2017-10-01T07:45:07.000Z</time>
      </trkpt>
      <trkpt lat="45.04116" lon="1.08294">
        <ele>136</ele>
        <time>2017-10-01T07:45:08.000Z</time>
      </trkpt>
      <trkpt lat="45.0412" lon="1.0829">
        <ele>136</ele>
        <time>2017-10-01T07:45:09.000Z</time>
      </trkpt>
      <trkpt lat="45.04123" lon="1.08286">
        <ele>136</ele>
        <time>2017-10-01T07:45:10.000Z</time>
      </trkpt>
      <trkpt lat="45.04127" lon="1.08282">
        <ele>135</ele>
        <time>2017-10-01T07:45:11.000Z</time>
      </trkpt>
      <trkpt lat="45.04131" lon="1.08279">
        <ele>135</ele>
        <time>2017-10-01T07:45:12.000Z</time>
      </trkpt>
      <trkpt lat="45.04135" lon="1.08275">
        <ele>135</ele>
        <time>2017-10-01T07:45:13.000Z</time>
      </trkpt>
      <trkpt lat="45.0414" lon="1.08272">
        <ele>134</ele>
        <time>2017-10-01T07:45:14.000Z</time>
      </trkpt>
      <trkpt lat="45.04144" lon="1.08268">
        <ele>134</ele>
        <time>2017-10-01T07:45:15.000Z</time>
      </trkpt>
      <trkpt lat="45.04148" lon="1.08264">
        <ele>134</ele>
        <time>2017-10-01T07:45:16.000Z</time>
      </trkpt>
      <trkpt lat="45.04152" lon="1.0826">
        <ele>133</ele>
        <time>2017-10-01T07:45:17.000Z</time>
      </trkpt>
      <trkpt lat="45.04155" lon="1.08256">
        <ele>133</ele>
        <time>2017-10-01T07:45:18.000Z</time>
      </trkpt>
      <trkpt lat="45.04159" lon="1.08251">
        <ele>132</ele>
        <time>2017-10-01T07:45:19.000Z</time>
      </trkpt>
      <trkpt lat="45.04162" lon="1.08247">
        <ele>132</ele>
        <time>2017-10-01T07:45:20.000Z</time>
      </trkpt>
      <trkpt lat="45.04165" lon="1.08242">
        <ele>132</ele>
        <time>2017-10-01T07:45:21.000Z</time>
      </trkpt>
      <trkpt lat="45.04167" lon="1.08237">
        <ele>132</ele>
        <time>2017-10-01T07:45:22.000Z</time>
      </trkpt>
      <trkpt lat="45.04169" lon="1.08233">
        <ele>132</ele>
        <time>2017-10-01T07:45:23.000Z</time>
      </trkpt>
      <trkpt lat="45.0417" lon="1.08229">
        <ele>132</ele>
        <time>2017-10-01T07:45:24.000Z</time>
      </trkpt>
      <trkpt lat="45.04172" lon="1.08225">
        <ele>132</ele>
        <time>2017-10-01T07:45:25.000Z</time>
      </trkpt>
      <trkpt lat="45.04173" lon="1.08221">
        <ele>133</ele>
        <time>2017-10-01T07:45:26.000Z</time>
      </trkpt>
      <trkpt lat="45.04174" lon="1.08217">
        <ele>133</ele>
        <time>2017-10-01T07:45:27.000Z</time>
      </trkpt>
      <trkpt lat="45.04175" lon="1.08214">
        <ele>133</ele>
        <time>2017-10-01T07:45:28.000Z</time>
      </trkpt>
      <trkpt lat="45.04176" lon="1.0821">
        <ele>133</ele>
        <time>2017-10-01T07:45:29.000Z</time>
      </trkpt>
      <trkpt lat="45.04178" lon="1.08207">
        <ele>133</ele>
        <time>2017-10-01T07:45:30.000Z</time>
      </trkpt>
      <trkpt lat="45.04179" lon="1.08203">
        <ele>133</ele>
        <time>2017-10-01T07:45:31.000Z</time>
      </trkpt>
      <trkpt lat="45.04181" lon="1.082">
        <ele>133</ele>
        <time>2017-10-01T07:45:32.000Z</time>
      </trkpt>
      <trkpt lat="45.04182" lon="1.08196">
        <ele>133</ele>
        <time>2017-10-01T07:45:33.000Z</time>
      </trkpt>
      <trkpt lat="45.04184" lon="1.08193">
        <ele>134</ele>
        <time>2017-10-01T07:45:34.000Z</time>
      </trkpt>
      <trkpt lat="45.04185" lon="1.08189">
        <ele>134</ele>
        <time>2017-10-01T07:45:35.000Z</time>
      </trkpt>
      <trkpt lat="45.04186" lon="1.08185">
        <ele>134</ele>
        <time>2017-10-01T07:45:36.000Z</time>
      </trkpt>
      <trkpt lat="45.04187" lon="1.08181">
        <ele>134</ele>
        <time>2017-10-01T07:45:37.000Z</time>
      </trkpt>
      <trkpt lat="45.04188" lon="1.08177">
        <ele>134</ele>
        <time>2017-10-01T07:45:38.000Z</time>
      </trkpt>
      <trkpt lat="45.04189" lon="1.08173">
        <ele>134</ele>
        <time>2017-10-01T07:45:39.000Z</time>
      </trkpt>
      <trkpt lat="45.0419" lon="1.08169">
        <ele>134</ele>
        <time>2017-10-01T07:45:40.000Z</time>
      </trkpt>
      <trkpt lat="45.04191" lon="1.08165">
        <ele>134</ele>
        <time>2017-10-01T07:45:41.000Z</time>
      </trkpt>
      <trkpt lat="45.04192" lon="1.08162">
        <ele>135</ele>
        <time>2017-10-01T07:45:42.000Z</time>
      </trkpt>
      <trkpt lat="45.04193" lon="1.08158">
        <ele>135</ele>
        <time>2017-10-01T07:45:43.000Z</time>
      </trkpt>
      <trkpt lat="45.04194" lon="1.08154">
        <ele>135</ele>
        <time>2017-10-01T07:45:44.000Z</time>
      </trkpt>
      <trkpt lat="45.04195" lon="1.0815">
        <ele>135</ele>
        <time>2017-10-01T07:45:45.000Z</time>
      </trkpt>
      <trkpt lat="45.04195" lon="1.08146">
        <ele>135</ele>
        <time>2017-10-01T07:45:46.000Z</time>
      </trkpt>
      <trkpt lat="45.04195" lon="1.08141">
        <ele>135</ele>
        <time>2017-10-01T07:45:47.000Z</time>
      </trkpt>
      <trkpt lat="45.04194" lon="1.08136">
        <ele>136</ele>
        <time>2017-10-01T07:45:48.000Z</time>
      </trkpt>
      <trkpt lat="45.04194" lon="1.08131">
        <ele>136</ele>
        <time>2017-10-01T07:45:49.000Z</time>
      </trkpt>
      <trkpt lat="45.04194" lon="1.08127">
        <ele>136</ele>
        <time>2017-10-01T07:45:50.000Z</time>
      </trkpt>
      <trkpt lat="45.04194" lon="1.08122">
        <ele>137</ele>
        <time>2017-10-01T07:45:51.000Z</time>
      </trkpt>
      <trkpt lat="45.04195" lon="1.08119">
        <ele>137</ele>
        <time>2017-10-01T07:45:52.000Z</time>
      </trkpt>
      <trkpt lat="45.04197" lon="1.08116">
        <ele>137</ele>
        <time>2017-10-01T07:45:53.000Z</time>
      </trkpt>
      <trkpt lat="45.042" lon="1.08114">
        <ele>137</ele>
        <time>2017-10-01T07:45:54.000Z</time>
      </trkpt>
      <trkpt lat="45.04203" lon="1.08112">
        <ele>137</ele>
        <time>2017-10-01T07:45:55.000Z</time>
      </trkpt>
      <trkpt lat="45.04207" lon="1.08111">
        <ele>137</ele>
        <time>2017-10-01T07:45:56.000Z</time>
      </trkpt>
      <trkpt lat="45.0421" lon="1.08109">
        <ele>137</ele>
        <time>2017-10-01T07:45:57.000Z</time>
      </trkpt>
      <trkpt lat="45.04214" lon="1.08108">
        <ele>137</ele>
        <time>2017-10-01T07:45:58.000Z</time>
      </trkpt>
      <trkpt lat="45.04217" lon="1.08107">
        <ele>137</ele>
        <time>2017-10-01T07:45:59.000Z</time>
      </trkpt>
      <trkpt lat="45.0422" lon="1.08106">
        <ele>137</ele>
        <time>2017-10-01T07:46:00.000Z</time>
      </trkpt>
      <trkpt lat="45.04223" lon="1.08105">
        <ele>137</ele>
        <time>2017-10-01T07:46:01.000Z</time>
      </trkpt>
      <trkpt lat="45.04226" lon="1.08104">
        <ele>137</ele>
        <time>2017-10-01T07:46:02.000Z</time>
      </trkpt>
      <trkpt lat="45.04229" lon="1.08104">
        <ele>137</ele>
        <time>2017-10-01T07:46:03.000Z</time>
      </trkpt>
      <trkpt lat="45.04232" lon="1.08103">
        <ele>136</ele>
        <time>2017-10-01T07:46:04.000Z</time>
      </trkpt>
      <trkpt lat="45.04236" lon="1.08104">
        <ele>136</ele>
        <time>2017-10-01T07:46:05.000Z</time>
      </trkpt>
      <trkpt lat="45.0424" lon="1.08105">
        <ele>136</ele>
        <time>2017-10-01T07:46:06.000Z</time>
      </trkpt>
      <trkpt lat="45.04243" lon="1.08108">
        <ele>135</ele>
        <time>2017-10-01T07:46:07.000Z</time>
      </trkpt>
      <trkpt lat="45.04247" lon="1.08111">
        <ele>135</ele>
        <time>2017-10-01T07:46:08.000Z</time>
      </trkpt>
      <trkpt lat="45.0425" lon="1.08116">
        <ele>134</ele>
        <time>2017-10-01T07:46:09.000Z</time>
      </trkpt>
      <trkpt lat="45.04253" lon="1.08121">
        <ele>133</ele>
        <time>2017-10-01T07:46:10.000Z</time>
      </trkpt>
      <trkpt lat="45.04256" lon="1.08126">
        <ele>133</ele>
        <time>2017-10-01T07:46:11.000Z</time>
      </trkpt>
      <trkpt lat="45.0426" lon="1.0813">
        <ele>133</ele>
        <time>2017-10-01T07:46:12.000Z</time>
      </trkpt>
      <trkpt lat="45.04264" lon="1.08132">
        <ele>133</ele>
        <time>2017-10-01T07:46:13.000Z</time>
      </trkpt>
      <trkpt lat="45.04268" lon="1.08134">
        <ele>133</ele>
        <time>2017-10-01T07:46:14.000Z</time>
      </trkpt>
      <trkpt lat="45.04271" lon="1.08134">
        <ele>134</ele>
        <time>2017-10-01T07:46:15.000Z</time>
      </trkpt>
      <trkpt lat="45.04275" lon="1.08133">
        <ele>134</ele>
        <time>2017-10-01T07:46:16.000Z</time>
      </trkpt>
      <trkpt lat="45.04279" lon="1.08133">
        <ele>135</ele>
        <time>2017-10-01T07:46:17.000Z</time>
      </trkpt>
      <trkpt lat="45.04283" lon="1.08132">
        <ele>135</ele>
        <time>2017-10-01T07:46:18.000Z</time>
      </trkpt>
      <trkpt lat="45.04287" lon="1.08131">
        <ele>136</ele>
        <time>2017-10-01T07:46:19.000Z</time>
      </trkpt>
      <trkpt lat="45.04291" lon="1.0813">
        <ele>136</ele>
        <time>2017-10-01T07:46:20.000Z</time>
      </trkpt>
      <trkpt lat="45.04294" lon="1.08129">
        <ele>137</ele>
        <time>2017-10-01T07:46:21.000Z</time>
      </trkpt>
      <trkpt lat="45.04298" lon="1.08128">
        <ele>138</ele>
        <time>2017-10-01T07:46:22.000Z</time>
      </trkpt>
      <trkpt lat="45.04301" lon="1.08127">
        <ele>138</ele>
        <time>2017-10-01T07:46:23.000Z</time>
      </trkpt>
      <trkpt lat="45.04304" lon="1.08126">
        <ele>139</ele>
        <time>2017-10-01T07:46:24.000Z</time>
      </trkpt>
      <trkpt lat="45.04307" lon="1.08126">
        <ele>139</ele>
        <time>2017-10-01T07:46:25.000Z</time>
      </trkpt>
      <trkpt lat="45.04311" lon="1.08126">
        <ele>140</ele>
        <time>2017-10-01T07:46:26.000Z</time>
      </trkpt>
      <trkpt lat="45.04316" lon="1.08127">
        <ele>140</ele>
        <time>2017-10-01T07:46:27.000Z</time>
      </trkpt>
      <trkpt lat="45.0432" lon="1.08128">
        <ele>140</ele>
        <time>2017-10-01T07:46:28.000Z</time>
      </trkpt>
      <trkpt lat="45.04323" lon="1.08129">
        <ele>140</ele>
        <time>2017-10-01T07:46:29.000Z</time>
      </trkpt>
      <trkpt lat="45.04326" lon="1.0813">
        <ele>141</ele>
        <time>2017-10-01T07:46:30.000Z</time>
      </trkpt>
      <trkpt lat="45.04329" lon="1.08131">
        <ele>141</ele>
        <time>2017-10-01T07:46:31.000Z</time>
      </trkpt>
      <trkpt lat="45.04331" lon="1.08132">
        <ele>141</ele>
        <time>2017-10-01T07:46:32.000Z</time>
      </trkpt>
      <trkpt lat="45.04334" lon="1.08133">
        <ele>140</ele>
        <time>2017-10-01T07:46:33.000Z</time>
      </trkpt>
      <trkpt lat="45.04336" lon="1.08134">
        <ele>140</ele>
        <time>2017-10-01T07:46:34.000Z</time>
      </trkpt>
      <trkpt lat="45.04338" lon="1.08136">
        <ele>141</ele>
        <time>2017-10-01T07:46:35.000Z</time>
      </trkpt>
      <trkpt lat="45.0434" lon="1.08137">
        <ele>141</ele>
        <time>2017-10-01T07:46:36.000Z</time>
      </trkpt>
      <trkpt lat="45.04342" lon="1.08138">
        <ele>141</ele>
        <time>2017-10-01T07:46:37.000Z</time>
      </trkpt>
      <trkpt lat="45.04344" lon="1.08139">
        <ele>141</ele>
        <time>2017-10-01T07:46:38.000Z</time>
      </trkpt>
      <trkpt lat="45.04345" lon="1.0814">
        <ele>141</ele>
        <time>2017-10-01T07:46:39.000Z</time>
      </trkpt>
      <trkpt lat="45.04347" lon="1.08141">
        <ele>141</ele>
        <time>2017-10-01T07:46:40.000Z</time>
      </trkpt>
      <trkpt lat="45.04349" lon="1.08142">
        <ele>141</ele>
        <time>2017-10-01T07:46:41.000Z</time>
      </trkpt>
      <trkpt lat="45.0435" lon="1.08143">
        <ele>141</ele>
        <time>2017-10-01T07:46:42.000Z</time>
      </trkpt>
      <trkpt lat="45.04351" lon="1.08143">
        <ele>141</ele>
        <time>2017-10-01T07:46:43.000Z</time>
      </trkpt>
      <trkpt lat="45.04352" lon="1.08144">
        <ele>141</ele>
        <time>2017-10-01T07:46:44.000Z</time>
      </trkpt>
      <trkpt lat="45.04353" lon="1.08144">
        <ele>141</ele>
        <time>2017-10-01T07:46:45.000Z</time>
      </trkpt>
      <trkpt lat="45.04353" lon="1.08145">
        <ele>141</ele>
        <time>2017-10-01T07:46:48.000Z</time>
      </trkpt>
      <trkpt lat="45.04353" lon="1.08145">
        <ele>141</ele>
        <time>2017-10-01T07:46:48.000Z</time>
      </trkpt>
      <trkpt lat="45.04353" lon="1.08145">
        <ele>141</ele>
        <time>2017-10-01T07:46:48.000Z</time>
      </trkpt>
      <trkpt lat="45.04354" lon="1.08145">
        <ele>141</ele>
        <time>2017-10-01T07:46:52.000Z</time>
      </trkpt>
      <trkpt lat="45.04354" lon="1.08145">
        <ele>141</ele>
        <time>2017-10-01T07:46:52.000Z</time>
      </trkpt>
      <trkpt lat="45.04354" lon="1.08145">
        <ele>141</ele>
        <time>2017-10-01T07:46:52.000Z</time>
      </trkpt>
      <trkpt lat="45.04354" lon="1.08145">
        <ele>141</ele>
        <time>2017-10-01T07:46:52.000Z</time>
      </trkpt>
      <trkpt lat="45.04355" lon="1.08145">
        <ele>141</ele>
        <time>2017-10-01T07:46:54.000Z</time>
      </trkpt>
      <trkpt lat="45.04355" lon="1.08145">
        <ele>141</ele>
        <time>2017-10-01T07:46:54.000Z</time>
      </trkpt>
      <trkpt lat="45.04356" lon="1.08146">
        <ele>141</ele>
        <time>2017-10-01T07:46:55.000Z</time>
      </trkpt>
      <trkpt lat="45.04358" lon="1.08146">
        <ele>141</ele>
        <time>2017-10-01T07:46:56.000Z</time>
      </trkpt>
      <trkpt lat="45.0436" lon="1.08147">
        <ele>141</ele>
        <time>2017-10-01T07:46:57.000Z</time>
      </trkpt>
      <trkpt lat="45.04362" lon="1.08149">
        <ele>141</ele>
        <time>2017-10-01T07:46:58.000Z</time>
      </trkpt>
      <trkpt lat="45.04364" lon="1.0815">
        <ele>141</ele>
        <time>2017-10-01T07:46:59.000Z</time>
      </trkpt>
      <trkpt lat="45.04367" lon="1.08152">
        <ele>141</ele>
        <time>2017-10-01T07:47:00.000Z</time>
      </trkpt>
      <trkpt lat="45.04369" lon="1.08154">
        <ele>141</ele>
        <time>2017-10-01T07:47:01.000Z</time>
      </trkpt>
      <trkpt lat="45.04372" lon="1.08155">
        <ele>141</ele>
        <time>2017-10-01T07:47:02.000Z</time>
      </trkpt>
      <trkpt lat="45.04374" lon="1.08157">
        <ele>141</ele>
        <time>2017-10-01T07:47:03.000Z</time>
      </trkpt>
      <trkpt lat="45.04377" lon="1.08159">
        <ele>141</ele>
        <time>2017-10-01T07:47:04.000Z</time>
      </trkpt>
      <trkpt lat="45.0438" lon="1.08161">
        <ele>140</ele>
        <time>2017-10-01T07:47:05.000Z</time>
      </trkpt>
      <trkpt lat="45.04384" lon="1.08165">
        <ele>140</ele>
        <time>2017-10-01T07:47:06.000Z</time>
      </trkpt>
      <trkpt lat="45.04387" lon="1.08169">
        <ele>140</ele>
        <time>2017-10-01T07:47:07.000Z</time>
      </trkpt>
      <trkpt lat="45.04391" lon="1.08174">
        <ele>140</ele>
        <time>2017-10-01T07:47:08.000Z</time>
      </trkpt>
      <trkpt lat="45.04395" lon="1.08179">
        <ele>141</ele>
        <time>2017-10-01T07:47:09.000Z</time>
      </trkpt>
      <trkpt lat="45.04398" lon="1.08184">
        <ele>141</ele>
        <time>2017-10-01T07:47:10.000Z</time>
      </trkpt>
      <trkpt lat="45.04402" lon="1.08188">
        <ele>141</ele>
        <time>2017-10-01T07:47:11.000Z</time>
      </trkpt>
      <trkpt lat="45.04404" lon="1.08191">
        <ele>141</ele>
        <time>2017-10-01T07:47:12.000Z</time>
      </trkpt>
      <trkpt lat="45.04407" lon="1.08194">
        <ele>141</ele>
        <time>2017-10-01T07:47:13.000Z</time>
      </trkpt>
      <trkpt lat="45.04409" lon="1.08196">
        <ele>142</ele>
        <time>2017-10-01T07:47:14.000Z</time>
      </trkpt>
      <trkpt lat="45.04412" lon="1.08198">
        <ele>142</ele>
        <time>2017-10-01T07:47:15.000Z</time>
      </trkpt>
      <trkpt lat="45.04414" lon="1.082">
        <ele>142</ele>
        <time>2017-10-01T07:47:16.000Z</time>
      </trkpt>
      <trkpt lat="45.04417" lon="1.08201">
        <ele>142</ele>
        <time>2017-10-01T07:47:17.000Z</time>
      </trkpt>
      <trkpt lat="45.04419" lon="1.08203">
        <ele>142</ele>
        <time>2017-10-01T07:47:18.000Z</time>
      </trkpt>
      <trkpt lat="45.04422" lon="1.08205">
        <ele>142</ele>
        <time>2017-10-01T07:47:19.000Z</time>
      </trkpt>
      <trkpt lat="45.04424" lon="1.08207">
        <ele>142</ele>
        <time>2017-10-01T07:47:20.000Z</time>
      </trkpt>
      <trkpt lat="45.04427" lon="1.08209">
        <ele>142</ele>
        <time>2017-10-01T07:47:21.000Z</time>
      </trkpt>
      <trkpt lat="45.0443" lon="1.08211">
        <ele>142</ele>
        <time>2017-10-01T07:47:22.000Z</time>
      </trkpt>
      <trkpt lat="45.04432" lon="1.08213">
        <ele>142</ele>
        <time>2017-10-01T07:47:23.000Z</time>
      </trkpt>
      <trkpt lat="45.04435" lon="1.08214">
        <ele>143</ele>
        <time>2017-10-01T07:47:24.000Z</time>
      </trkpt>
      <trkpt lat="45.04438" lon="1.08216">
        <ele>143</ele>
        <time>2017-10-01T07:47:25.000Z</time>
      </trkpt>
      <trkpt lat="45.04441" lon="1.08217">
        <ele>143</ele>
        <time>2017-10-01T07:47:26.000Z</time>
      </trkpt>
      <trkpt lat="45.04444" lon="1.08218">
        <ele>143</ele>
        <time>2017-10-01T07:47:27.000Z</time>
      </trkpt>
      <trkpt lat="45.04447" lon="1.08219">
        <ele>143</ele>
        <time>2017-10-01T07:47:28.000Z</time>
      </trkpt>
      <trkpt lat="45.0445" lon="1.0822">
        <ele>143</ele>
        <time>2017-10-01T07:47:29.000Z</time>
      </trkpt>
      <trkpt lat="45.04453" lon="1.08221">
        <ele>143</ele>
        <time>2017-10-01T07:47:30.000Z</time>
      </trkpt>
      <trkpt lat="45.04456" lon="1.08222">
        <ele>143</ele>
        <time>2017-10-01T07:47:31.000Z</time>
      </trkpt>
      <trkpt lat="45.0446" lon="1.08222">
        <ele>143</ele>
        <time>2017-10-01T07:47:32.000Z</time>
      </trkpt>
      <trkpt lat="45.04463" lon="1.08223">
        <ele>144</ele>
        <time>2017-10-01T07:47:33.000Z</time>
      </trkpt>
      <trkpt lat="45.04466" lon="1.08224">
        <ele>144</ele>
        <time>2017-10-01T07:47:34.000Z</time>
      </trkpt>
      <trkpt lat="45.04469" lon="1.08224">
        <ele>144</ele>
        <time>2017-10-01T07:47:35.000Z</time>
      </trkpt>
      <trkpt lat="45.04473" lon="1.08225">
        <ele>144</ele>
        <time>2017-10-01T07:47:36.000Z</time>
      </trkpt>
      <trkpt lat="45.04476" lon="1.08226">
        <ele>144</ele>
        <time>2017-10-01T07:47:37.000Z</time>
      </trkpt>
      <trkpt lat="45.04479" lon="1.08227">
        <ele>144</ele>
        <time>2017-10-01T07:47:38.000Z</time>
      </trkpt>
      <trkpt lat="45.04482" lon="1.08229">
        <ele>144</ele>
        <time>2017-10-01T07:47:39.000Z</time>
      </trkpt>
      <trkpt lat="45.04485" lon="1.0823">
        <ele>144</ele>
        <time>2017-10-01T07:47:40.000Z</time>
      </trkpt>
      <trkpt lat="45.04488" lon="1.08232">
        <ele>144</ele>
        <time>2017-10-01T07:47:41.000Z</time>
      </trkpt>
      <trkpt lat="45.0449" lon="1.08235">
        <ele>144</ele>
        <time>2017-10-01T07:47:42.000Z</time>
      </trkpt>
      <trkpt lat="45.04493" lon="1.08237">
        <ele>143</ele>
        <time>2017-10-01T07:47:43.000Z</time>
      </trkpt>
      <trkpt lat="45.04496" lon="1.0824">
        <ele>143</ele>
        <time>2017-10-01T07:47:44.000Z</time>
      </trkpt>
      <trkpt lat="45.04499" lon="1.08243">
        <ele>143</ele>
        <time>2017-10-01T07:47:45.000Z</time>
      </trkpt>
      <trkpt lat="45.04502" lon="1.08246">
        <ele>142</ele>
        <time>2017-10-01T07:47:46.000Z</time>
      </trkpt>
      <trkpt lat="45.04505" lon="1.08249">
        <ele>142</ele>
        <time>2017-10-01T07:47:47.000Z</time>
      </trkpt>
      <trkpt lat="45.04509" lon="1.08252">
        <ele>142</ele>
        <time>2017-10-01T07:47:48.000Z</time>
      </trkpt>
      <trkpt lat="45.04512" lon="1.08255">
        <ele>142</ele>
        <time>2017-10-01T07:47:49.000Z</time>
      </trkpt>
      <trkpt lat="45.04515" lon="1.08257">
        <ele>143</ele>
        <time>2017-10-01T07:47:50.000Z</time>
      </trkpt>
      <trkpt lat="45.04519" lon="1.08259">
        <ele>143</ele>
        <time>2017-10-01T07:47:51.000Z</time>
      </trkpt>
      <trkpt lat="45.04522" lon="1.08261">
        <ele>143</ele>
        <time>2017-10-01T07:47:52.000Z</time>
      </trkpt>
      <trkpt lat="45.04526" lon="1.08262">
        <ele>144</ele>
        <time>2017-10-01T07:47:53.000Z</time>
      </trkpt>
      <trkpt lat="45.0453" lon="1.08262">
        <ele>144</ele>
        <time>2017-10-01T07:47:54.000Z</time>
      </trkpt>
      <trkpt lat="45.04534" lon="1.08263">
        <ele>144</ele>
        <time>2017-10-01T07:47:55.000Z</time>
      </trkpt>
      <trkpt lat="45.04538" lon="1.08263">
        <ele>144</ele>
        <time>2017-10-01T07:47:56.000Z</time>
      </trkpt>
      <trkpt lat="45.04542" lon="1.08263">
        <ele>144</ele>
        <time>2017-10-01T07:47:57.000Z</time>
      </trkpt>
      <trkpt lat="45.04547" lon="1.08263">
        <ele>145</ele>
        <time>2017-10-01T07:47:58.000Z</time>
      </trkpt>
      <trkpt lat="45.04551" lon="1.08263">
        <ele>145</ele>
        <time>2017-10-01T07:47:59.000Z</time>
      </trkpt>
      <trkpt lat="45.04555" lon="1.08263">
        <ele>145</ele>
        <time>2017-10-01T07:48:00.000Z</time>
      </trkpt>
      <trkpt lat="45.04558" lon="1.08262">
        <ele>145</ele>
        <time>2017-10-01T07:48:01.000Z</time>
      </trkpt>
      <trkpt lat="45.04562" lon="1.08262">
        <ele>145</ele>
        <time>2017-10-01T07:48:02.000Z</time>
      </trkpt>
      <trkpt lat="45.04566" lon="1.08262">
        <ele>145</ele>
        <time>2017-10-01T07:48:03.000Z</time>
      </trkpt>
      <trkpt lat="45.0457" lon="1.08261">
        <ele>145</ele>
        <time>2017-10-01T07:48:04.000Z</time>
      </trkpt>
      <trkpt lat="45.04573" lon="1.08261">
        <ele>145</ele>
        <time>2017-10-01T07:48:05.000Z</time>
      </trkpt>
      <trkpt lat="45.04577" lon="1.0826">
        <ele>145</ele>
        <time>2017-10-01T07:48:06.000Z</time>
      </trkpt>
      <trkpt lat="45.0458" lon="1.08259">
        <ele>145</ele>
        <time>2017-10-01T07:48:07.000Z</time>
      </trkpt>
      <trkpt lat="45.04584" lon="1.08257">
        <ele>145</ele>
        <time>2017-10-01T07:48:08.000Z</time>
      </trkpt>
      <trkpt lat="45.04587" lon="1.08256">
        <ele>145</ele>
        <time>2017-10-01T07:48:09.000Z</time>
      </trkpt>
      <trkpt lat="45.04591" lon="1.08254">
        <ele>145</ele>
        <time>2017-10-01T07:48:10.000Z</time>
      </trkpt>
      <trkpt lat="45.04595" lon="1.08253">
        <ele>144</ele>
        <time>2017-10-01T07:48:11.000Z</time>
      </trkpt>
      <trkpt lat="45.04598" lon="1.08251">
        <ele>144</ele>
        <time>2017-10-01T07:48:12.000Z</time>
      </trkpt>
      <trkpt lat="45.04602" lon="1.0825">
        <ele>144</ele>
        <time>2017-10-01T07:48:13.000Z</time>
      </trkpt>
      <trkpt lat="45.04605" lon="1.08248">
        <ele>145</ele>
        <time>2017-10-01T07:48:14.000Z</time>
      </trkpt>
      <trkpt lat="45.04609" lon="1.08247">
        <ele>145</ele>
        <time>2017-10-01T07:48:15.000Z</time>
      </trkpt>
      <trkpt lat="45.04613" lon="1.08245">
        <ele>145</ele>
        <time>2017-10-01T07:48:16.000Z</time>
      </trkpt>
      <trkpt lat="45.04617" lon="1.08244">
        <ele>145</ele>
        <time>2017-10-01T07:48:17.000Z</time>
      </trkpt>
      <trkpt lat="45.04621" lon="1.08243">
        <ele>146</ele>
        <time>2017-10-01T07:48:18.000Z</time>
      </trkpt>
      <trkpt lat="45.04625" lon="1.08242">
        <ele>146</ele>
        <time>2017-10-01T07:48:19.000Z</time>
      </trkpt>
      <trkpt lat="45.04629" lon="1.08241">
        <ele>146</ele>
        <time>2017-10-01T07:48:20.000Z</time>
      </trkpt>
      <trkpt lat="45.04633" lon="1.08239">
        <ele>146</ele>
        <time>2017-10-01T07:48:21.000Z</time>
      </trkpt>
      <trkpt lat="45.04638" lon="1.08238">
        <ele>147</ele>
        <time>2017-10-01T07:48:22.000Z</time>
      </trkpt>
      <trkpt lat="45.04642" lon="1.08237">
        <ele>147</ele>
        <time>2017-10-01T07:48:23.000Z</time>
      </trkpt>
      <trkpt lat="45.04646" lon="1.08236">
        <ele>147</ele>
        <time>2017-10-01T07:48:24.000Z</time>
      </trkpt>
      <trkpt lat="45.0465" lon="1.08234">
        <ele>147</ele>
        <time>2017-10-01T07:48:25.000Z</time>
      </trkpt>
      <trkpt lat="45.04654" lon="1.08232">
        <ele>147</ele>
        <time>2017-10-01T07:48:26.000Z</time>
      </trkpt>
      <trkpt lat="45.04658" lon="1.0823">
        <ele>147</ele>
        <time>2017-10-01T07:48:27.000Z</time>
      </trkpt>
      <trkpt lat="45.04661" lon="1.08227">
        <ele>148</ele>
        <time>2017-10-01T07:48:28.000Z</time>
      </trkpt>
      <trkpt lat="45.04664" lon="1.08224">
        <ele>148</ele>
        <time>2017-10-01T07:48:29.000Z</time>
      </trkpt>
      <trkpt lat="45.04666" lon="1.0822">
        <ele>148</ele>
        <time>2017-10-01T07:48:30.000Z</time>
      </trkpt>
      <trkpt lat="45.04668" lon="1.08216">
        <ele>148</ele>
        <time>2017-10-01T07:48:31.000Z</time>
      </trkpt>
      <trkpt lat="45.0467" lon="1.08212">
        <ele>149</ele>
        <time>2017-10-01T07:48:32.000Z</time>
      </trkpt>
      <trkpt lat="45.04671" lon="1.08208">
        <ele>150</ele>
        <time>2017-10-01T07:48:33.000Z</time>
      </trkpt>
      <trkpt lat="45.04672" lon="1.08203">
        <ele>150</ele>
        <time>2017-10-01T07:48:34.000Z</time>
      </trkpt>
      <trkpt lat="45.04673" lon="1.08199">
        <ele>150</ele>
        <time>2017-10-01T07:48:35.000Z</time>
      </trkpt>
      <trkpt lat="45.04674" lon="1.08194">
        <ele>151</ele>
        <time>2017-10-01T07:48:36.000Z</time>
      </trkpt>
      <trkpt lat="45.04674" lon="1.0819">
        <ele>151</ele>
        <time>2017-10-01T07:48:37.000Z</time>
      </trkpt>
      <trkpt lat="45.04675" lon="1.08186">
        <ele>151</ele>
        <time>2017-10-01T07:48:38.000Z</time>
      </trkpt>
      <trkpt lat="45.04676" lon="1.08182">
        <ele>152</ele>
        <time>2017-10-01T07:48:39.000Z</time>
      </trkpt>
      <trkpt lat="45.04677" lon="1.08179">
        <ele>152</ele>
        <time>2017-10-01T07:48:40.000Z</time>
      </trkpt>
      <trkpt lat="45.04677" lon="1.08176">
        <ele>152</ele>
        <time>2017-10-01T07:48:41.000Z</time>
      </trkpt>
      <trkpt lat="45.04678" lon="1.08173">
        <ele>153</ele>
        <time>2017-10-01T07:48:42.000Z</time>
      </trkpt>
      <trkpt lat="45.04679" lon="1.0817">
        <ele>153</ele>
        <time>2017-10-01T07:48:43.000Z</time>
      </trkpt>
      <trkpt lat="45.0468" lon="1.08167">
        <ele>153</ele>
        <time>2017-10-01T07:48:44.000Z</time>
      </trkpt>
      <trkpt lat="45.04681" lon="1.08163">
        <ele>154</ele>
        <time>2017-10-01T07:48:45.000Z</time>
      </trkpt>
      <trkpt lat="45.04682" lon="1.08159">
        <ele>154</ele>
        <time>2017-10-01T07:48:46.000Z</time>
      </trkpt>
      <trkpt lat="45.04682" lon="1.08155">
        <ele>154</ele>
        <time>2017-10-01T07:48:47.000Z</time>
      </trkpt>
      <trkpt lat="45.04682" lon="1.0815">
        <ele>155</ele>
        <time>2017-10-01T07:48:48.000Z</time>
      </trkpt>
      <trkpt lat="45.04683" lon="1.08145">
        <ele>155</ele>
        <time>2017-10-01T07:48:49.000Z</time>
      </trkpt>
      <trkpt lat="45.04683" lon="1.0814">
        <ele>155</ele>
        <time>2017-10-01T07:48:50.000Z</time>
      </trkpt>
      <trkpt lat="45.04683" lon="1.08135">
        <ele>155</ele>
        <time>2017-10-01T07:48:51.000Z</time>
      </trkpt>
      <trkpt lat="45.04683" lon="1.08131">
        <ele>156</ele>
        <time>2017-10-01T07:48:52.000Z</time>
      </trkpt>
      <trkpt lat="45.04683" lon="1.08126">
        <ele>156</ele>
        <time>2017-10-01T07:48:53.000Z</time>
      </trkpt>
      <trkpt lat="45.04684" lon="1.08122">
        <ele>156</ele>
        <time>2017-10-01T07:48:54.000Z</time>
      </trkpt>
      <trkpt lat="45.04684" lon="1.08118">
        <ele>156</ele>
        <time>2017-10-01T07:48:55.000Z</time>
      </trkpt>
      <trkpt lat="45.04684" lon="1.08114">
        <ele>157</ele>
        <time>2017-10-01T07:48:56.000Z</time>
      </trkpt>
      <trkpt lat="45.04685" lon="1.08109">
        <ele>157</ele>
        <time>2017-10-01T07:48:57.000Z</time>
      </trkpt>
      <trkpt lat="45.04685" lon="1.08105">
        <ele>157</ele>
        <time>2017-10-01T07:48:58.000Z</time>
      </trkpt>
      <trkpt lat="45.04685" lon="1.08101">
        <ele>157</ele>
        <time>2017-10-01T07:48:59.000Z</time>
      </trkpt>
      <trkpt lat="45.04685" lon="1.08096">
        <ele>157</ele>
        <time>2017-10-01T07:49:00.000Z</time>
      </trkpt>
      <trkpt lat="45.04684" lon="1.08091">
        <ele>158</ele>
        <time>2017-10-01T07:49:01.000Z</time>
      </trkpt>
      <trkpt lat="45.04684" lon="1.08086">
        <ele>158</ele>
        <time>2017-10-01T07:49:02.000Z</time>
      </trkpt>
      <trkpt lat="45.04684" lon="1.08081">
        <ele>158</ele>
        <time>2017-10-01T07:49:03.000Z</time>
      </trkpt>
      <trkpt lat="45.04684" lon="1.08077">
        <ele>158</ele>
        <time>2017-10-01T07:49:04.000Z</time>
      </trkpt>
      <trkpt lat="45.04684" lon="1.08072">
        <ele>158</ele>
        <time>2017-10-01T07:49:05.000Z</time>
      </trkpt>
      <trkpt lat="45.04684" lon="1.08067">
        <ele>158</ele>
        <time>2017-10-01T07:49:06.000Z</time>
      </trkpt>
      <trkpt lat="45.04685" lon="1.08063">
        <ele>159</ele>
        <time>2017-10-01T07:49:07.000Z</time>
      </trkpt>
      <trkpt lat="45.04685" lon="1.08058">
        <ele>159</ele>
        <time>2017-10-01T07:49:08.000Z</time>
      </trkpt>
      <trkpt lat="45.04686" lon="1.08054">
        <ele>159</ele>
        <time>2017-10-01T07:49:09.000Z</time>
      </trkpt>
      <trkpt lat="45.04687" lon="1.0805">
        <ele>159</ele>
        <time>2017-10-01T07:49:10.000Z</time>
      </trkpt>
      <trkpt lat="45.04688" lon="1.08045">
        <ele>159</ele>
        <time>2017-10-01T07:49:11.000Z</time>
      </trkpt>
      <trkpt lat="45.0469" lon="1.08041">
        <ele>160</ele>
        <time>2017-10-01T07:49:12.000Z</time>
      </trkpt>
      <trkpt lat="45.04692" lon="1.08037">
        <ele>160</ele>
        <time>2017-10-01T07:49:13.000Z</time>
      </trkpt>
      <trkpt lat="45.04694" lon="1.08033">
        <ele>160</ele>
        <time>2017-10-01T07:49:14.000Z</time>
      </trkpt>
      <trkpt lat="45.04696" lon="1.08028">
        <ele>160</ele>
        <time>2017-10-01T07:49:15.000Z</time>
      </trkpt>
      <trkpt lat="45.04697" lon="1.08024">
        <ele>161</ele>
        <time>2017-10-01T07:49:16.000Z</time>
      </trkpt>
      <trkpt lat="45.04699" lon="1.0802">
        <ele>161</ele>
        <time>2017-10-01T07:49:17.000Z</time>
      </trkpt>
      <trkpt lat="45.04701" lon="1.08016">
        <ele>161</ele>
        <time>2017-10-01T07:49:18.000Z</time>
      </trkpt>
      <trkpt lat="45.04702" lon="1.08011">
        <ele>161</ele>
        <time>2017-10-01T07:49:19.000Z</time>
      </trkpt>
      <trkpt lat="45.04704" lon="1.08007">
        <ele>161</ele>
        <time>2017-10-01T07:49:20.000Z</time>
      </trkpt>
      <trkpt lat="45.04705" lon="1.08003">
        <ele>161</ele>
        <time>2017-10-01T07:49:21.000Z</time>
      </trkpt>
      <trkpt lat="45.04706" lon="1.07999">
        <ele>162</ele>
        <time>2017-10-01T07:49:22.000Z</time>
      </trkpt>
      <trkpt lat="45.04708" lon="1.07994">
        <ele>162</ele>
        <time>2017-10-01T07:49:23.000Z</time>
      </trkpt>
      <trkpt lat="45.04709" lon="1.0799">
        <ele>162</ele>
        <time>2017-10-01T07:49:24.000Z</time>
      </trkpt>
      <trkpt lat="45.0471" lon="1.07986">
        <ele>162</ele>
        <time>2017-10-01T07:49:25.000Z</time>
      </trkpt>
      <trkpt lat="45.04712" lon="1.07982">
        <ele>163</ele>
        <time>2017-10-01T07:49:26.000Z</time>
      </trkpt>
      <trkpt lat="45.04713" lon="1.07977">
        <ele>163</ele>
        <time>2017-10-01T07:49:27.000Z</time>
      </trkpt>
      <trkpt lat="45.04714" lon="1.07973">
        <ele>163</ele>
        <time>2017-10-01T07:49:28.000Z</time>
      </trkpt>
      <trkpt lat="45.04716" lon="1.07969">
        <ele>163</ele>
        <time>2017-10-01T07:49:29.000Z</time>
      </trkpt>
      <trkpt lat="45.04717" lon="1.07965">
        <ele>164</ele>
        <time>2017-10-01T07:49:30.000Z</time>
      </trkpt>
      <trkpt lat="45.04719" lon="1.07961">
        <ele>164</ele>
        <time>2017-10-01T07:49:31.000Z</time>
      </trkpt>
      <trkpt lat="45.0472" lon="1.07957">
        <ele>164</ele>
        <time>2017-10-01T07:49:32.000Z</time>
      </trkpt>
      <trkpt lat="45.04722" lon="1.07953">
        <ele>164</ele>
        <time>2017-10-01T07:49:33.000Z</time>
      </trkpt>
      <trkpt lat="45.04724" lon="1.07949">
        <ele>164</ele>
        <time>2017-10-01T07:49:34.000Z</time>
      </trkpt>
      <trkpt lat="45.04726" lon="1.07945">
        <ele>164</ele>
        <time>2017-10-01T07:49:35.000Z</time>
      </trkpt>
      <trkpt lat="45.04728" lon="1.07941">
        <ele>164</ele>
        <time>2017-10-01T07:49:36.000Z</time>
      </trkpt>
      <trkpt lat="45.0473" lon="1.07937">
        <ele>164</ele>
        <time>2017-10-01T07:49:37.000Z</time>
      </trkpt>
      <trkpt lat="45.04732" lon="1.07933">
        <ele>164</ele>
        <time>2017-10-01T07:49:38.000Z</time>
      </trkpt>
      <trkpt lat="45.04734" lon="1.07929">
        <ele>164</ele>
        <time>2017-10-01T07:49:39.000Z</time>
      </trkpt>
      <trkpt lat="45.04736" lon="1.07925">
        <ele>164</ele>
        <time>2017-10-01T07:49:40.000Z</time>
      </trkpt>
      <trkpt lat="45.04739" lon="1.07921">
        <ele>164</ele>
        <time>2017-10-01T07:49:41.000Z</time>
      </trkpt>
      <trkpt lat="45.04741" lon="1.07918">
        <ele>163</ele>
        <time>2017-10-01T07:49:42.000Z</time>
      </trkpt>
      <trkpt lat="45.04743" lon="1.07914">
        <ele>163</ele>
        <time>2017-10-01T07:49:43.000Z</time>
      </trkpt>
      <trkpt lat="45.04746" lon="1.0791">
        <ele>163</ele>
        <time>2017-10-01T07:49:44.000Z</time>
      </trkpt>
      <trkpt lat="45.04748" lon="1.07907">
        <ele>163</ele>
        <time>2017-10-01T07:49:45.000Z</time>
      </trkpt>
      <trkpt lat="45.04751" lon="1.07903">
        <ele>163</ele>
        <time>2017-10-01T07:49:46.000Z</time>
      </trkpt>
      <trkpt lat="45.04753" lon="1.079">
        <ele>164</ele>
        <time>2017-10-01T07:49:47.000Z</time>
      </trkpt>
      <trkpt lat="45.04756" lon="1.07896">
        <ele>164</ele>
        <time>2017-10-01T07:49:48.000Z</time>
      </trkpt>
      <trkpt lat="45.04758" lon="1.07893">
        <ele>164</ele>
        <time>2017-10-01T07:49:49.000Z</time>
      </trkpt>
      <trkpt lat="45.0476" lon="1.07889">
        <ele>165</ele>
        <time>2017-10-01T07:49:50.000Z</time>
      </trkpt>
      <trkpt lat="45.04762" lon="1.07885">
        <ele>165</ele>
        <time>2017-10-01T07:49:51.000Z</time>
      </trkpt>
      <trkpt lat="45.04764" lon="1.07881">
        <ele>165</ele>
        <time>2017-10-01T07:49:52.000Z</time>
      </trkpt>
      <trkpt lat="45.04766" lon="1.07876">
        <ele>165</ele>
        <time>2017-10-01T07:49:53.000Z</time>
      </trkpt>
      <trkpt lat="45.04768" lon="1.07871">
        <ele>166</ele>
        <time>2017-10-01T07:49:54.000Z</time>
      </trkpt>
      <trkpt lat="45.04769" lon="1.07866">
        <ele>166</ele>
        <time>2017-10-01T07:49:55.000Z</time>
      </trkpt>
      <trkpt lat="45.04771" lon="1.07861">
        <ele>166</ele>
        <time>2017-10-01T07:49:56.000Z</time>
      </trkpt>
      <trkpt lat="45.04772" lon="1.07856">
        <ele>166</ele>
        <time>2017-10-01T07:49:57.000Z</time>
      </trkpt>
      <trkpt lat="45.04774" lon="1.07852">
        <ele>166</ele>
        <time>2017-10-01T07:49:58.000Z</time>
      </trkpt>
      <trkpt lat="45.04775" lon="1.07847">
        <ele>167</ele>
        <time>2017-10-01T07:49:59.000Z</time>
      </trkpt>
      <trkpt lat="45.04777" lon="1.07843">
        <ele>167</ele>
        <time>2017-10-01T07:50:00.000Z</time>
      </trkpt>
      <trkpt lat="45.04778" lon="1.0784">
        <ele>167</ele>
        <time>2017-10-01T07:50:01.000Z</time>
      </trkpt>
      <trkpt lat="45.0478" lon="1.07836">
        <ele>167</ele>
        <time>2017-10-01T07:50:02.000Z</time>
      </trkpt>
      <trkpt lat="45.04781" lon="1.07833">
        <ele>167</ele>
        <time>2017-10-01T07:50:03.000Z</time>
      </trkpt>
      <trkpt lat="45.04782" lon="1.0783">
        <ele>167</ele>
        <time>2017-10-01T07:50:04.000Z</time>
      </trkpt>
      <trkpt lat="45.04783" lon="1.07827">
        <ele>167</ele>
        <time>2017-10-01T07:50:05.000Z</time>
      </trkpt>
      <trkpt lat="45.04784" lon="1.07824">
        <ele>167</ele>
        <time>2017-10-01T07:50:06.000Z</time>
      </trkpt>
      <trkpt lat="45.04785" lon="1.07822">
        <ele>167</ele>
        <time>2017-10-01T07:50:07.000Z</time>
      </trkpt>
      <trkpt lat="45.04785" lon="1.07819">
        <ele>167</ele>
        <time>2017-10-01T07:50:08.000Z</time>
      </trkpt>
      <trkpt lat="45.04786" lon="1.07816">
        <ele>167</ele>
        <time>2017-10-01T07:50:09.000Z</time>
      </trkpt>
      <trkpt lat="45.04786" lon="1.07814">
        <ele>167</ele>
        <time>2017-10-01T07:50:10.000Z</time>
      </trkpt>
      <trkpt lat="45.04786" lon="1.07811">
        <ele>168</ele>
        <time>2017-10-01T07:50:11.000Z</time>
      </trkpt>
      <trkpt lat="45.04786" lon="1.07808">
        <ele>168</ele>
        <time>2017-10-01T07:50:12.000Z</time>
      </trkpt>
      <trkpt lat="45.04786" lon="1.07806">
        <ele>168</ele>
        <time>2017-10-01T07:50:13.000Z</time>
      </trkpt>
      <trkpt lat="45.04786" lon="1.07803">
        <ele>168</ele>
        <time>2017-10-01T07:50:14.000Z</time>
      </trkpt>
      <trkpt lat="45.04786" lon="1.07801">
        <ele>168</ele>
        <time>2017-10-01T07:50:15.000Z</time>
      </trkpt>
      <trkpt lat="45.04786" lon="1.07798">
        <ele>168</ele>
        <time>2017-10-01T07:50:16.000Z</time>
      </trkpt>
      <trkpt lat="45.04786" lon="1.07795">
        <ele>168</ele>
        <time>2017-10-01T07:50:17.000Z</time>
      </trkpt>
      <trkpt lat="45.04786" lon="1.07793">
        <ele>168</ele>
        <time>2017-10-01T07:50:18.000Z</time>
      </trkpt>
      <trkpt lat="45.04786" lon="1.0779">
        <ele>168</ele>
        <time>2017-10-01T07:50:19.000Z</time>
      </trkpt>
      <trkpt lat="45.04787" lon="1.07787">
        <ele>168</ele>
        <time>2017-10-01T07:50:20.000Z</time>
      </trkpt>
      <trkpt lat="45.04787" lon="1.07785">
        <ele>169</ele>
        <time>2017-10-01T07:50:21.000Z</time>
      </trkpt>
      <trkpt lat="45.04787" lon="1.07782">
        <ele>169</ele>
        <time>2017-10-01T07:50:22.000Z</time>
      </trkpt>
      <trkpt lat="45.04787" lon="1.07779">
        <ele>169</ele>
        <time>2017-10-01T07:50:23.000Z</time>
      </trkpt>
      <trkpt lat="45.04787" lon="1.07776">
        <ele>169</ele>
        <time>2017-10-01T07:50:24.000Z</time>
      </trkpt>
      <trkpt lat="45.04787" lon="1.07773">
        <ele>169</ele>
        <time>2017-10-01T07:50:25.000Z</time>
      </trkpt>
      <trkpt lat="45.04786" lon="1.0777">
        <ele>169</ele>
        <time>2017-10-01T07:50:26.000Z</time>
      </trkpt>
      <trkpt lat="45.04786" lon="1.07767">
        <ele>169</ele>
        <time>2017-10-01T07:50:27.000Z</time>
      </trkpt>
      <trkpt lat="45.04786" lon="1.07764">
        <ele>169</ele>
        <time>2017-10-01T07:50:28.000Z</time>
      </trkpt>
      <trkpt lat="45.04786" lon="1.07761">
        <ele>169</ele>
        <time>2017-10-01T07:50:29.000Z</time>
      </trkpt>
      <trkpt lat="45.04785" lon="1.07758">
        <ele>170</ele>
        <time>2017-10-01T07:50:30.000Z</time>
      </trkpt>
      <trkpt lat="45.04785" lon="1.07755">
        <ele>170</ele>
        <time>2017-10-01T07:50:31.000Z</time>
      </trkpt>
      <trkpt lat="45.04784" lon="1.07751">
        <ele>170</ele>
        <time>2017-10-01T07:50:32.000Z</time>
      </trkpt>
      <trkpt lat="45.04784" lon="1.07748">
        <ele>170</ele>
        <time>2017-10-01T07:50:33.000Z</time>
      </trkpt>
      <trkpt lat="45.04783" lon="1.07745">
        <ele>170</ele>
        <time>2017-10-01T07:50:34.000Z</time>
      </trkpt>
      <trkpt lat="45.04782" lon="1.07742">
        <ele>171</ele>
        <time>2017-10-01T07:50:35.000Z</time>
      </trkpt>
      <trkpt lat="45.04782" lon="1.07739">
        <ele>171</ele>
        <time>2017-10-01T07:50:36.000Z</time>
      </trkpt>
      <trkpt lat="45.04781" lon="1.07735">
        <ele>171</ele>
        <time>2017-10-01T07:50:37.000Z</time>
      </trkpt>
      <trkpt lat="45.0478" lon="1.07732">
        <ele>171</ele>
        <time>2017-10-01T07:50:38.000Z</time>
      </trkpt>
      <trkpt lat="45.04779" lon="1.07729">
        <ele>172</ele>
        <time>2017-10-01T07:50:39.000Z</time>
      </trkpt>
      <trkpt lat="45.04778" lon="1.07726">
        <ele>172</ele>
        <time>2017-10-01T07:50:40.000Z</time>
      </trkpt>
      <trkpt lat="45.04777" lon="1.07723">
        <ele>172</ele>
        <time>2017-10-01T07:50:41.000Z</time>
      </trkpt>
      <trkpt lat="45.04776" lon="1.0772">
        <ele>172</ele>
        <time>2017-10-01T07:50:42.000Z</time>
      </trkpt>
      <trkpt lat="45.04775" lon="1.07717">
        <ele>172</ele>
        <time>2017-10-01T07:50:43.000Z</time>
      </trkpt>
      <trkpt lat="45.04774" lon="1.07713">
        <ele>173</ele>
        <time>2017-10-01T07:50:44.000Z</time>
      </trkpt>
      <trkpt lat="45.04772" lon="1.0771">
        <ele>173</ele>
        <time>2017-10-01T07:50:45.000Z</time>
      </trkpt>
      <trkpt lat="45.04771" lon="1.07707">
        <ele>173</ele>
        <time>2017-10-01T07:50:46.000Z</time>
      </trkpt>
      <trkpt lat="45.0477" lon="1.07705">
        <ele>173</ele>
        <time>2017-10-01T07:50:47.000Z</time>
      </trkpt>
      <trkpt lat="45.04769" lon="1.07702">
        <ele>173</ele>
        <time>2017-10-01T07:50:48.000Z</time>
      </trkpt>
      <trkpt lat="45.04768" lon="1.07699">
        <ele>173</ele>
        <time>2017-10-01T07:50:49.000Z</time>
      </trkpt>
      <trkpt lat="45.04767" lon="1.07696">
        <ele>173</ele>
        <time>2017-10-01T07:50:50.000Z</time>
      </trkpt>
      <trkpt lat="45.04766" lon="1.07693">
        <ele>173</ele>
        <time>2017-10-01T07:50:51.000Z</time>
      </trkpt>
      <trkpt lat="45.04765" lon="1.0769">
        <ele>174</ele>
        <time>2017-10-01T07:50:52.000Z</time>
      </trkpt>
      <trkpt lat="45.04764" lon="1.07687">
        <ele>174</ele>
        <time>2017-10-01T07:50:53.000Z</time>
      </trkpt>
      <trkpt lat="45.04763" lon="1.07684">
        <ele>174</ele>
        <time>2017-10-01T07:50:54.000Z</time>
      </trkpt>
      <trkpt lat="45.04763" lon="1.07681">
        <ele>174</ele>
        <time>2017-10-01T07:50:55.000Z</time>
      </trkpt>
      <trkpt lat="45.04762" lon="1.07678">
        <ele>174</ele>
        <time>2017-10-01T07:50:56.000Z</time>
      </trkpt>
      <trkpt lat="45.04761" lon="1.07676">
        <ele>174</ele>
        <time>2017-10-01T07:50:57.000Z</time>
      </trkpt>
      <trkpt lat="45.04761" lon="1.07673">
        <ele>174</ele>
        <time>2017-10-01T07:50:58.000Z</time>
      </trkpt>
      <trkpt lat="45.0476" lon="1.0767">
        <ele>174</ele>
        <time>2017-10-01T07:50:59.000Z</time>
      </trkpt>
      <trkpt lat="45.04759" lon="1.07668">
        <ele>174</ele>
        <time>2017-10-01T07:51:00.000Z</time>
      </trkpt>
      <trkpt lat="45.04759" lon="1.07665">
        <ele>174</ele>
        <time>2017-10-01T07:51:01.000Z</time>
      </trkpt>
      <trkpt lat="45.04758" lon="1.07663">
        <ele>175</ele>
        <time>2017-10-01T07:51:02.000Z</time>
      </trkpt>
      <trkpt lat="45.04757" lon="1.0766">
        <ele>175</ele>
        <time>2017-10-01T07:51:03.000Z</time>
      </trkpt>
      <trkpt lat="45.04756" lon="1.07658">
        <ele>175</ele>
        <time>2017-10-01T07:51:04.000Z</time>
      </trkpt>
      <trkpt lat="45.04755" lon="1.07656">
        <ele>175</ele>
        <time>2017-10-01T07:51:05.000Z</time>
      </trkpt>
      <trkpt lat="45.04753" lon="1.07654">
        <ele>175</ele>
        <time>2017-10-01T07:51:06.000Z</time>
      </trkpt>
      <trkpt lat="45.04752" lon="1.07652">
        <ele>175</ele>
        <time>2017-10-01T07:51:07.000Z</time>
      </trkpt>
      <trkpt lat="45.04751" lon="1.0765">
        <ele>175</ele>
        <time>2017-10-01T07:51:08.000Z</time>
      </trkpt>
      <trkpt lat="45.04749" lon="1.07647">
        <ele>175</ele>
        <time>2017-10-01T07:51:09.000Z</time>
      </trkpt>
      <trkpt lat="45.04748" lon="1.07645">
        <ele>176</ele>
        <time>2017-10-01T07:51:10.000Z</time>
      </trkpt>
      <trkpt lat="45.04746" lon="1.07643">
        <ele>176</ele>
        <time>2017-10-01T07:51:11.000Z</time>
      </trkpt>
      <trkpt lat="45.04745" lon="1.07641">
        <ele>177</ele>
        <time>2017-10-01T07:51:12.000Z</time>
      </trkpt>
      <trkpt lat="45.04743" lon="1.07638">
        <ele>177</ele>
        <time>2017-10-01T07:51:13.000Z</time>
      </trkpt>
      <trkpt lat="45.04742" lon="1.07636">
        <ele>178</ele>
        <time>2017-10-01T07:51:14.000Z</time>
      </trkpt>
      <trkpt lat="45.0474" lon="1.07633">
        <ele>178</ele>
        <time>2017-10-01T07:51:15.000Z</time>
      </trkpt>
      <trkpt lat="45.04739" lon="1.07631">
        <ele>178</ele>
        <time>2017-10-01T07:51:16.000Z</time>
      </trkpt>
      <trkpt lat="45.04737" lon="1.07628">
        <ele>179</ele>
        <time>2017-10-01T07:51:17.000Z</time>
      </trkpt>
      <trkpt lat="45.04736" lon="1.07626">
        <ele>179</ele>
        <time>2017-10-01T07:51:18.000Z</time>
      </trkpt>
      <trkpt lat="45.04735" lon="1.07623">
        <ele>179</ele>
        <time>2017-10-01T07:51:19.000Z</time>
      </trkpt>
      <trkpt lat="45.04733" lon="1.07621">
        <ele>180</ele>
        <time>2017-10-01T07:51:20.000Z</time>
      </trkpt>
      <trkpt lat="45.04732" lon="1.07619">
        <ele>180</ele>
        <time>2017-10-01T07:51:21.000Z</time>
      </trkpt>
      <trkpt lat="45.04731" lon="1.07617">
        <ele>180</ele>
        <time>2017-10-01T07:51:22.000Z</time>
      </trkpt>
      <trkpt lat="45.0473" lon="1.07614">
        <ele>180</ele>
        <time>2017-10-01T07:51:23.000Z</time>
      </trkpt>
      <trkpt lat="45.04728" lon="1.07612">
        <ele>181</ele>
        <time>2017-10-01T07:51:24.000Z</time>
      </trkpt>
      <trkpt lat="45.04727" lon="1.0761">
        <ele>181</ele>
        <time>2017-10-01T07:51:25.000Z</time>
      </trkpt>
      <trkpt lat="45.04726" lon="1.07608">
        <ele>181</ele>
        <time>2017-10-01T07:51:26.000Z</time>
      </trkpt>
      <trkpt lat="45.04725" lon="1.07606">
        <ele>181</ele>
        <time>2017-10-01T07:51:27.000Z</time>
      </trkpt>
      <trkpt lat="45.04724" lon="1.07603">
        <ele>181</ele>
        <time>2017-10-01T07:51:28.000Z</time>
      </trkpt>
      <trkpt lat="45.04723" lon="1.07601">
        <ele>182</ele>
        <time>2017-10-01T07:51:29.000Z</time>
      </trkpt>
      <trkpt lat="45.04722" lon="1.07599">
        <ele>182</ele>
        <time>2017-10-01T07:51:30.000Z</time>
      </trkpt>
      <trkpt lat="45.04721" lon="1.07597">
        <ele>182</ele>
        <time>2017-10-01T07:51:31.000Z</time>
      </trkpt>
      <trkpt lat="45.0472" lon="1.07595">
        <ele>182</ele>
        <time>2017-10-01T07:51:32.000Z</time>
      </trkpt>
      <trkpt lat="45.04719" lon="1.07592">
        <ele>182</ele>
        <time>2017-10-01T07:51:33.000Z</time>
      </trkpt>
      <trkpt lat="45.04718" lon="1.0759">
        <ele>182</ele>
        <time>2017-10-01T07:51:34.000Z</time>
      </trkpt>
      <trkpt lat="45.04716" lon="1.07588">
        <ele>183</ele>
        <time>2017-10-01T07:51:35.000Z</time>
      </trkpt>
      <trkpt lat="45.04715" lon="1.07585">
        <ele>183</ele>
        <time>2017-10-01T07:51:36.000Z</time>
      </trkpt>
      <trkpt lat="45.04714" lon="1.07583">
        <ele>183</ele>
        <time>2017-10-01T07:51:37.000Z</time>
      </trkpt>
      <trkpt lat="45.04713" lon="1.07581">
        <ele>183</ele>
        <time>2017-10-01T07:51:38.000Z</time>
      </trkpt>
      <trkpt lat="45.04712" lon="1.07578">
        <ele>183</ele>
        <time>2017-10-01T07:51:39.000Z</time>
      </trkpt>
      <trkpt lat="45.0471" lon="1.07575">
        <ele>183</ele>
        <time>2017-10-01T07:51:40.000Z</time>
      </trkpt>
      <trkpt lat="45.04709" lon="1.07573">
        <ele>183</ele>
        <time>2017-10-01T07:51:41.000Z</time>
      </trkpt>
      <trkpt lat="45.04708" lon="1.0757">
        <ele>184</ele>
        <time>2017-10-01T07:51:42.000Z</time>
      </trkpt>
      <trkpt lat="45.04706" lon="1.07568">
        <ele>184</ele>
        <time>2017-10-01T07:51:43.000Z</time>
      </trkpt>
      <trkpt lat="45.04705" lon="1.07565">
        <ele>184</ele>
        <time>2017-10-01T07:51:44.000Z</time>
      </trkpt>
      <trkpt lat="45.04704" lon="1.07562">
        <ele>184</ele>
        <time>2017-10-01T07:51:45.000Z</time>
      </trkpt>
      <trkpt lat="45.04703" lon="1.0756">
        <ele>184</ele>
        <time>2017-10-01T07:51:46.000Z</time>
      </trkpt>
      <trkpt lat="45.04702" lon="1.07558">
        <ele>184</ele>
        <time>2017-10-01T07:51:47.000Z</time>
      </trkpt>
      <trkpt lat="45.04701" lon="1.07555">
        <ele>184</ele>
        <time>2017-10-01T07:51:48.000Z</time>
      </trkpt>
      <trkpt lat="45.047" lon="1.07553">
        <ele>184</ele>
        <time>2017-10-01T07:51:49.000Z</time>
      </trkpt>
      <trkpt lat="45.04699" lon="1.07551">
        <ele>184</ele>
        <time>2017-10-01T07:51:50.000Z</time>
      </trkpt>
      <trkpt lat="45.04698" lon="1.07549">
        <ele>184</ele>
        <time>2017-10-01T07:51:51.000Z</time>
      </trkpt>
      <trkpt lat="45.04697" lon="1.07547">
        <ele>184</ele>
        <time>2017-10-01T07:51:52.000Z</time>
      </trkpt>
      <trkpt lat="45.04696" lon="1.07544">
        <ele>184</ele>
        <time>2017-10-01T07:51:53.000Z</time>
      </trkpt>
      <trkpt lat="45.04695" lon="1.07542">
        <ele>184</ele>
        <time>2017-10-01T07:51:54.000Z</time>
      </trkpt>
      <trkpt lat="45.04694" lon="1.07539">
        <ele>184</ele>
        <time>2017-10-01T07:51:55.000Z</time>
      </trkpt>
      <trkpt lat="45.04693" lon="1.07537">
        <ele>184</ele>
        <time>2017-10-01T07:51:56.000Z</time>
      </trkpt>
      <trkpt lat="45.04692" lon="1.07534">
        <ele>184</ele>
        <time>2017-10-01T07:51:57.000Z</time>
      </trkpt>
      <trkpt lat="45.0469" lon="1.07532">
        <ele>184</ele>
        <time>2017-10-01T07:51:58.000Z</time>
      </trkpt>
      <trkpt lat="45.04689" lon="1.07529">
        <ele>184</ele>
        <time>2017-10-01T07:51:59.000Z</time>
      </trkpt>
      <trkpt lat="45.04688" lon="1.07526">
        <ele>184</ele>
        <time>2017-10-01T07:52:00.000Z</time>
      </trkpt>
      <trkpt lat="45.04687" lon="1.07523">
        <ele>184</ele>
        <time>2017-10-01T07:52:01.000Z</time>
      </trkpt>
      <trkpt lat="45.04686" lon="1.07521">
        <ele>184</ele>
        <time>2017-10-01T07:52:02.000Z</time>
      </trkpt>
      <trkpt lat="45.04684" lon="1.07518">
        <ele>184</ele>
        <time>2017-10-01T07:52:03.000Z</time>
      </trkpt>
      <trkpt lat="45.04683" lon="1.07515">
        <ele>184</ele>
        <time>2017-10-01T07:52:04.000Z</time>
      </trkpt>
      <trkpt lat="45.04682" lon="1.07513">
        <ele>184</ele>
        <time>2017-10-01T07:52:05.000Z</time>
      </trkpt>
      <trkpt lat="45.04681" lon="1.0751">
        <ele>184</ele>
        <time>2017-10-01T07:52:06.000Z</time>
      </trkpt>
      <trkpt lat="45.0468" lon="1.07508">
        <ele>184</ele>
        <time>2017-10-01T07:52:07.000Z</time>
      </trkpt>
      <trkpt lat="45.04679" lon="1.07505">
        <ele>184</ele>
        <time>2017-10-01T07:52:08.000Z</time>
      </trkpt>
      <trkpt lat="45.04678" lon="1.07503">
        <ele>184</ele>
        <time>2017-10-01T07:52:09.000Z</time>
      </trkpt>
      <trkpt lat="45.04677" lon="1.07501">
        <ele>184</ele>
        <time>2017-10-01T07:52:10.000Z</time>
      </trkpt>
      <trkpt lat="45.04676" lon="1.07498">
        <ele>184</ele>
        <time>2017-10-01T07:52:11.000Z</time>
      </trkpt>
      <trkpt lat="45.04675" lon="1.07496">
        <ele>184</ele>
        <time>2017-10-01T07:52:12.000Z</time>
      </trkpt>
      <trkpt lat="45.04674" lon="1.07494">
        <ele>184</ele>
        <time>2017-10-01T07:52:13.000Z</time>
      </trkpt>
      <trkpt lat="45.04673" lon="1.07492">
        <ele>184</ele>
        <time>2017-10-01T07:52:14.000Z</time>
      </trkpt>
      <trkpt lat="45.04672" lon="1.07489">
        <ele>184</ele>
        <time>2017-10-01T07:52:15.000Z</time>
      </trkpt>
      <trkpt lat="45.0467" lon="1.07487">
        <ele>184</ele>
        <time>2017-10-01T07:52:16.000Z</time>
      </trkpt>
      <trkpt lat="45.04669" lon="1.07485">
        <ele>184</ele>
        <time>2017-10-01T07:52:17.000Z</time>
      </trkpt>
      <trkpt lat="45.04668" lon="1.07483">
        <ele>185</ele>
        <time>2017-10-01T07:52:18.000Z</time>
      </trkpt>
      <trkpt lat="45.04667" lon="1.07481">
        <ele>185</ele>
        <time>2017-10-01T07:52:19.000Z</time>
      </trkpt>
      <trkpt lat="45.04665" lon="1.07478">
        <ele>185</ele>
        <time>2017-10-01T07:52:20.000Z</time>
      </trkpt>
      <trkpt lat="45.04664" lon="1.07476">
        <ele>185</ele>
        <time>2017-10-01T07:52:21.000Z</time>
      </trkpt>
      <trkpt lat="45.04662" lon="1.07474">
        <ele>186</ele>
        <time>2017-10-01T07:52:22.000Z</time>
      </trkpt>
      <trkpt lat="45.04661" lon="1.07472">
        <ele>186</ele>
        <time>2017-10-01T07:52:23.000Z</time>
      </trkpt>
      <trkpt lat="45.0466" lon="1.0747">
        <ele>187</ele>
        <time>2017-10-01T07:52:24.000Z</time>
      </trkpt>
      <trkpt lat="45.04658" lon="1.07467">
        <ele>187</ele>
        <time>2017-10-01T07:52:25.000Z</time>
      </trkpt>
      <trkpt lat="45.04657" lon="1.07465">
        <ele>187</ele>
        <time>2017-10-01T07:52:26.000Z</time>
      </trkpt>
      <trkpt lat="45.04655" lon="1.07463">
        <ele>188</ele>
        <time>2017-10-01T07:52:27.000Z</time>
      </trkpt>
      <trkpt lat="45.04654" lon="1.07461">
        <ele>188</ele>
        <time>2017-10-01T07:52:28.000Z</time>
      </trkpt>
      <trkpt lat="45.04653" lon="1.07458">
        <ele>189</ele>
        <time>2017-10-01T07:52:29.000Z</time>
      </trkpt>
      <trkpt lat="45.04651" lon="1.07456">
        <ele>189</ele>
        <time>2017-10-01T07:52:30.000Z</time>
      </trkpt>
      <trkpt lat="45.0465" lon="1.07454">
        <ele>189</ele>
        <time>2017-10-01T07:52:31.000Z</time>
      </trkpt>
      <trkpt lat="45.04648" lon="1.07451">
        <ele>190</ele>
        <time>2017-10-01T07:52:32.000Z</time>
      </trkpt>
      <trkpt lat="45.04647" lon="1.07449">
        <ele>190</ele>
        <time>2017-10-01T07:52:33.000Z</time>
      </trkpt>
      <trkpt lat="45.04646" lon="1.07447">
        <ele>190</ele>
        <time>2017-10-01T07:52:34.000Z</time>
      </trkpt>
      <trkpt lat="45.04645" lon="1.07444">
        <ele>191</ele>
        <time>2017-10-01T07:52:35.000Z</time>
      </trkpt>
      <trkpt lat="45.04643" lon="1.07442">
        <ele>191</ele>
        <time>2017-10-01T07:52:36.000Z</time>
      </trkpt>
      <trkpt lat="45.04642" lon="1.0744">
        <ele>191</ele>
        <time>2017-10-01T07:52:37.000Z</time>
      </trkpt>
      <trkpt lat="45.04641" lon="1.07438">
        <ele>192</ele>
        <time>2017-10-01T07:52:38.000Z</time>
      </trkpt>
      <trkpt lat="45.04639" lon="1.07436">
        <ele>192</ele>
        <time>2017-10-01T07:52:39.000Z</time>
      </trkpt>
      <trkpt lat="45.04638" lon="1.07434">
        <ele>192</ele>
        <time>2017-10-01T07:52:40.000Z</time>
      </trkpt>
      <trkpt lat="45.04636" lon="1.07432">
        <ele>192</ele>
        <time>2017-10-01T07:52:41.000Z</time>
      </trkpt>
      <trkpt lat="45.04635" lon="1.0743">
        <ele>193</ele>
        <time>2017-10-01T07:52:42.000Z</time>
      </trkpt>
      <trkpt lat="45.04634" lon="1.07428">
        <ele>193</ele>
        <time>2017-10-01T07:52:43.000Z</time>
      </trkpt>
      <trkpt lat="45.04632" lon="1.07426">
        <ele>193</ele>
        <time>2017-10-01T07:52:44.000Z</time>
      </trkpt>
      <trkpt lat="45.04631" lon="1.07424">
        <ele>194</ele>
        <time>2017-10-01T07:52:45.000Z</time>
      </trkpt>
      <trkpt lat="45.04629" lon="1.07423">
        <ele>194</ele>
        <time>2017-10-01T07:52:46.000Z</time>
      </trkpt>
      <trkpt lat="45.04628" lon="1.07421">
        <ele>194</ele>
        <time>2017-10-01T07:52:47.000Z</time>
      </trkpt>
      <trkpt lat="45.04627" lon="1.07419">
        <ele>194</ele>
        <time>2017-10-01T07:52:48.000Z</time>
      </trkpt>
      <trkpt lat="45.04625" lon="1.07417">
        <ele>195</ele>
        <time>2017-10-01T07:52:49.000Z</time>
      </trkpt>
      <trkpt lat="45.04624" lon="1.07415">
        <ele>195</ele>
        <time>2017-10-01T07:52:50.000Z</time>
      </trkpt>
      <trkpt lat="45.04622" lon="1.07413">
        <ele>195</ele>
        <time>2017-10-01T07:52:51.000Z</time>
      </trkpt>
      <trkpt lat="45.04621" lon="1.07411">
        <ele>195</ele>
        <time>2017-10-01T07:52:52.000Z</time>
      </trkpt>
      <trkpt lat="45.0462" lon="1.07408">
        <ele>196</ele>
        <time>2017-10-01T07:52:53.000Z</time>
      </trkpt>
      <trkpt lat="45.04618" lon="1.07406">
        <ele>196</ele>
        <time>2017-10-01T07:52:54.000Z</time>
      </trkpt>
      <trkpt lat="45.04617" lon="1.07404">
        <ele>196</ele>
        <time>2017-10-01T07:52:55.000Z</time>
      </trkpt>
      <trkpt lat="45.04616" lon="1.07401">
        <ele>196</ele>
        <time>2017-10-01T07:52:56.000Z</time>
      </trkpt>
      <trkpt lat="45.04615" lon="1.07399">
        <ele>196</ele>
        <time>2017-10-01T07:52:57.000Z</time>
      </trkpt>
      <trkpt lat="45.04614" lon="1.07397">
        <ele>197</ele>
        <time>2017-10-01T07:52:58.000Z</time>
      </trkpt>
      <trkpt lat="45.04613" lon="1.07396">
        <ele>197</ele>
        <time>2017-10-01T07:52:59.000Z</time>
      </trkpt>
      <trkpt lat="45.04612" lon="1.07394">
        <ele>197</ele>
        <time>2017-10-01T07:53:00.000Z</time>
      </trkpt>
      <trkpt lat="45.04611" lon="1.07393">
        <ele>197</ele>
        <time>2017-10-01T07:53:01.000Z</time>
      </trkpt>
      <trkpt lat="45.0461" lon="1.07391">
        <ele>197</ele>
        <time>2017-10-01T07:53:02.000Z</time>
      </trkpt>
      <trkpt lat="45.04609" lon="1.07389">
        <ele>197</ele>
        <time>2017-10-01T07:53:03.000Z</time>
      </trkpt>
      <trkpt lat="45.04608" lon="1.07387">
        <ele>197</ele>
        <time>2017-10-01T07:53:04.000Z</time>
      </trkpt>
      <trkpt lat="45.04607" lon="1.07385">
        <ele>197</ele>
        <time>2017-10-01T07:53:05.000Z</time>
      </trkpt>
      <trkpt lat="45.04606" lon="1.07383">
        <ele>198</ele>
        <time>2017-10-01T07:53:06.000Z</time>
      </trkpt>
      <trkpt lat="45.04605" lon="1.07382">
        <ele>198</ele>
        <time>2017-10-01T07:53:07.000Z</time>
      </trkpt>
      <trkpt lat="45.04604" lon="1.0738">
        <ele>198</ele>
        <time>2017-10-01T07:53:08.000Z</time>
      </trkpt>
      <trkpt lat="45.04603" lon="1.07378">
        <ele>198</ele>
        <time>2017-10-01T07:53:09.000Z</time>
      </trkpt>
      <trkpt lat="45.04602" lon="1.07376">
        <ele>198</ele>
        <time>2017-10-01T07:53:10.000Z</time>
      </trkpt>
      <trkpt lat="45.04602" lon="1.07375">
        <ele>198</ele>
        <time>2017-10-01T07:53:11.000Z</time>
      </trkpt>
      <trkpt lat="45.04601" lon="1.07374">
        <ele>198</ele>
        <time>2017-10-01T07:53:12.000Z</time>
      </trkpt>
      <trkpt lat="45.046" lon="1.07372">
        <ele>198</ele>
        <time>2017-10-01T07:53:13.000Z</time>
      </trkpt>
      <trkpt lat="45.04599" lon="1.0737">
        <ele>198</ele>
        <time>2017-10-01T07:53:14.000Z</time>
      </trkpt>
      <trkpt lat="45.04598" lon="1.07367">
        <ele>198</ele>
        <time>2017-10-01T07:53:15.000Z</time>
      </trkpt>
      <trkpt lat="45.04596" lon="1.07365">
        <ele>198</ele>
        <time>2017-10-01T07:53:16.000Z</time>
      </trkpt>
      <trkpt lat="45.04595" lon="1.07363">
        <ele>198</ele>
        <time>2017-10-01T07:53:17.000Z</time>
      </trkpt>
      <trkpt lat="45.04595" lon="1.07361">
        <ele>198</ele>
        <time>2017-10-01T07:53:18.000Z</time>
      </trkpt>
      <trkpt lat="45.04594" lon="1.07359">
        <ele>198</ele>
        <time>2017-10-01T07:53:19.000Z</time>
      </trkpt>
      <trkpt lat="45.04593" lon="1.07357">
        <ele>198</ele>
        <time>2017-10-01T07:53:20.000Z</time>
      </trkpt>
      <trkpt lat="45.04593" lon="1.07356">
        <ele>199</ele>
        <time>2017-10-01T07:53:21.000Z</time>
      </trkpt>
      <trkpt lat="45.04592" lon="1.07354">
        <ele>199</ele>
        <time>2017-10-01T07:53:23.000Z</time>
      </trkpt>
      <trkpt lat="45.04592" lon="1.07354">
        <ele>199</ele>
        <time>2017-10-01T07:53:23.000Z</time>
      </trkpt>
      <trkpt lat="45.04591" lon="1.07353">
        <ele>199</ele>
        <time>2017-10-01T07:53:25.000Z</time>
      </trkpt>
      <trkpt lat="45.04591" lon="1.07353">
        <ele>199</ele>
        <time>2017-10-01T07:53:25.000Z</time>
      </trkpt>
      <trkpt lat="45.04591" lon="1.07352">
        <ele>199</ele>
        <time>2017-10-01T07:53:26.000Z</time>
      </trkpt>
      <trkpt lat="45.0459" lon="1.0735">
        <ele>199</ele>
        <time>2017-10-01T07:53:27.000Z</time>
      </trkpt>
      <trkpt lat="45.04589" lon="1.07348">
        <ele>199</ele>
        <time>2017-10-01T07:53:28.000Z</time>
      </trkpt>
      <trkpt lat="45.04587" lon="1.07344">
        <ele>199</ele>
        <time>2017-10-01T07:53:29.000Z</time>
      </trkpt>
      <trkpt lat="45.04586" lon="1.07341">
        <ele>199</ele>
        <time>2017-10-01T07:53:30.000Z</time>
      </trkpt>
      <trkpt lat="45.04585" lon="1.0734">
        <ele>199</ele>
        <time>2017-10-01T07:53:31.000Z</time>
      </trkpt>
      <trkpt lat="45.04585" lon="1.07338">
        <ele>199</ele>
        <time>2017-10-01T07:53:32.000Z</time>
      </trkpt>
      <trkpt lat="45.04584" lon="1.07337">
        <ele>199</ele>
        <time>2017-10-01T07:53:33.000Z</time>
      </trkpt>
      <trkpt lat="45.04583" lon="1.07335">
        <ele>199</ele>
        <time>2017-10-01T07:53:34.000Z</time>
      </trkpt>
      <trkpt lat="45.04583" lon="1.07333">
        <ele>199</ele>
        <time>2017-10-01T07:53:35.000Z</time>
      </trkpt>
      <trkpt lat="45.04582" lon="1.07331">
        <ele>199</ele>
        <time>2017-10-01T07:53:36.000Z</time>
      </trkpt>
      <trkpt lat="45.04581" lon="1.07329">
        <ele>199</ele>
        <time>2017-10-01T07:53:37.000Z</time>
      </trkpt>
      <trkpt lat="45.0458" lon="1.07327">
        <ele>200</ele>
        <time>2017-10-01T07:53:38.000Z</time>
      </trkpt>
      <trkpt lat="45.0458" lon="1.07325">
        <ele>200</ele>
        <time>2017-10-01T07:53:39.000Z</time>
      </trkpt>
      <trkpt lat="45.04579" lon="1.07322">
        <ele>200</ele>
        <time>2017-10-01T07:53:40.000Z</time>
      </trkpt>
      <trkpt lat="45.04579" lon="1.0732">
        <ele>201</ele>
        <time>2017-10-01T07:53:41.000Z</time>
      </trkpt>
      <trkpt lat="45.04578" lon="1.07317">
        <ele>201</ele>
        <time>2017-10-01T07:53:42.000Z</time>
      </trkpt>
      <trkpt lat="45.04578" lon="1.07314">
        <ele>201</ele>
        <time>2017-10-01T07:53:43.000Z</time>
      </trkpt>
      <trkpt lat="45.04577" lon="1.07312">
        <ele>201</ele>
        <time>2017-10-01T07:53:44.000Z</time>
      </trkpt>
      <trkpt lat="45.04577" lon="1.0731">
        <ele>202</ele>
        <time>2017-10-01T07:53:45.000Z</time>
      </trkpt>
      <trkpt lat="45.04577" lon="1.07308">
        <ele>202</ele>
        <time>2017-10-01T07:53:46.000Z</time>
      </trkpt>
      <trkpt lat="45.04577" lon="1.07307">
        <ele>202</ele>
        <time>2017-10-01T07:53:47.000Z</time>
      </trkpt>
      <trkpt lat="45.04576" lon="1.07306">
        <ele>202</ele>
        <time>2017-10-01T07:54:12.000Z</time>
      </trkpt>
      <trkpt lat="45.04576" lon="1.07306">
        <ele>202</ele>
        <time>2017-10-01T07:54:12.000Z</time>
      </trkpt>
      <trkpt lat="45.04576" lon="1.07306">
        <ele>202</ele>
        <time>2017-10-01T07:54:12.000Z</time>
      </trkpt>
      <trkpt lat="45.04576" lon="1.07306">
        <ele>202</ele>
        <time>2017-10-01T07:54:12.000Z</time>
      </trkpt>
      <trkpt lat="45.04576" lon="1.07306">
        <ele>202</ele>
        <time>2017-10-01T07:54:12.000Z</time>
      </trkpt>
      <trkpt lat="45.04576" lon="1.07306">
        <ele>202</ele>
        <time>2017-10-01T07:54:12.000Z</time>
      </trkpt>
      <trkpt lat="45.04576" lon="1.07306">
        <ele>202</ele>
        <time>2017-10-01T07:54:12.000Z</time>
      </trkpt>
      <trkpt lat="45.04576" lon="1.07306">
        <ele>202</ele>
        <time>2017-10-01T07:54:12.000Z</time>
      </trkpt>
      <trkpt lat="45.04576" lon="1.07306">
        <ele>202</ele>
        <time>2017-10-01T07:54:12.000Z</time>
      </trkpt>
      <trkpt lat="45.04576" lon="1.07306">
        <ele>202</ele>
        <time>2017-10-01T07:54:12.000Z</time>
      </trkpt>
      <trkpt lat="45.04576" lon="1.07306">
        <ele>202</ele>
        <time>2017-10-01T07:54:12.000Z</time>
      </trkpt>
      <trkpt lat="45.04576" lon="1.07306">
        <ele>202</ele>
        <time>2017-10-01T07:54:12.000Z</time>
      </trkpt>
      <trkpt lat="45.04576" lon="1.07306">
        <ele>202</ele>
        <time>2017-10-01T07:54:12.000Z</time>
      </trkpt>
      <trkpt lat="45.04576" lon="1.07306">
        <ele>202</ele>
        <time>2017-10-01T07:54:12.000Z</time>
      </trkpt>
      <trkpt lat="45.04576" lon="1.07306">
        <ele>202</ele>
        <time>2017-10-01T07:54:12.000Z</time>
      </trkpt>
      <trkpt lat="45.04576" lon="1.07306">
        <ele>202</ele>
        <time>2017-10-01T07:54:12.000Z</time>
      </trkpt>
      <trkpt lat="45.04576" lon="1.07306">
        <ele>202</ele>
        <time>2017-10-01T07:54:12.000Z</time>
      </trkpt>
      <trkpt lat="45.04576" lon="1.07306">
        <ele>202</ele>
        <time>2017-10-01T07:54:12.000Z</time>
      </trkpt>
      <trkpt lat="45.04576" lon="1.07306">
        <ele>202</ele>
        <time>2017-10-01T07:54:12.000Z</time>
      </trkpt>
      <trkpt lat="45.04576" lon="1.07306">
        <ele>202</ele>
        <time>2017-10-01T07:54:12.000Z</time>
      </trkpt>
      <trkpt lat="45.04576" lon="1.07306">
        <ele>202</ele>
        <time>2017-10-01T07:54:12.000Z</time>
      </trkpt>
      <trkpt lat="45.04576" lon="1.07306">
        <ele>202</ele>
        <time>2017-10-01T07:54:12.000Z</time>
      </trkpt>
      <trkpt lat="45.04576" lon="1.07306">
        <ele>202</ele>
        <time>2017-10-01T07:54:12.000Z</time>
      </trkpt>
      <trkpt lat="45.04576" lon="1.07306">
        <ele>202</ele>
        <time>2017-10-01T07:54:12.000Z</time>
      </trkpt>
      <trkpt lat="45.04576" lon="1.07306">
        <ele>202</ele>
        <time>2017-10-01T07:54:12.000Z</time>
      </trkpt>
      <trkpt lat="45.04576" lon="1.07305">
        <ele>202</ele>
        <time>2017-10-01T07:54:25.000Z</time>
      </trkpt>
      <trkpt lat="45.04576" lon="1.07305">
        <ele>202</ele>
        <time>2017-10-01T07:54:25.000Z</time>
      </trkpt>
      <trkpt lat="45.04576" lon="1.07305">
        <ele>202</ele>
        <time>2017-10-01T07:54:25.000Z</time>
      </trkpt>
      <trkpt lat="45.04576" lon="1.07305">
        <ele>202</ele>
        <time>2017-10-01T07:54:25.000Z</time>
      </trkpt>
      <trkpt lat="45.04576" lon="1.07305">
        <ele>202</ele>
        <time>2017-10-01T07:54:25.000Z</time>
      </trkpt>
      <trkpt lat="45.04576" lon="1.07305">
        <ele>202</ele>
        <time>2017-10-01T07:54:25.000Z</time>
      </trkpt>
      <trkpt lat="45.04576" lon="1.07305">
        <ele>202</ele>
        <time>2017-10-01T07:54:25.000Z</time>
      </trkpt>
      <trkpt lat="45.04576" lon="1.07305">
        <ele>202</ele>
        <time>2017-10-01T07:54:25.000Z</time>
      </trkpt>
      <trkpt lat="45.04576" lon="1.07305">
        <ele>202</ele>
        <time>2017-10-01T07:54:25.000Z</time>
      </trkpt>
      <trkpt lat="45.04576" lon="1.07305">
        <ele>202</ele>
        <time>2017-10-01T07:54:25.000Z</time>
      </trkpt>
      <trkpt lat="45.04576" lon="1.07305">
        <ele>202</ele>
        <time>2017-10-01T07:54:25.000Z</time>
      </trkpt>
      <trkpt lat="45.04576" lon="1.07305">
        <ele>202</ele>
        <time>2017-10-01T07:54:25.000Z</time>
      </trkpt>
      <trkpt lat="45.04576" lon="1.07305">
        <ele>202</ele>
        <time>2017-10-01T07:54:25.000Z</time>
      </trkpt>
      <trkpt lat="45.04577" lon="1.07304">
        <ele>202</ele>
        <time>2017-10-01T07:54:27.000Z</time>
      </trkpt>
      <trkpt lat="45.04577" lon="1.07304">
        <ele>202</ele>
        <time>2017-10-01T07:54:27.000Z</time>
      </trkpt>
      <trkpt lat="45.04578" lon="1.07303">
        <ele>202</ele>
        <time>2017-10-01T07:54:28.000Z</time>
      </trkpt>
      <trkpt lat="45.04578" lon="1.07302">
        <ele>202</ele>
        <time>2017-10-01T07:54:45.000Z</time>
      </trkpt>
      <trkpt lat="45.04578" lon="1.07302">
        <ele>202</ele>
        <time>2017-10-01T07:54:45.000Z</time>
      </trkpt>
      <trkpt lat="45.04578" lon="1.07302">
        <ele>202</ele>
        <time>2017-10-01T07:54:45.000Z</time>
      </trkpt>
      <trkpt lat="45.04578" lon="1.07302">
        <ele>202</ele>
        <time>2017-10-01T07:54:45.000Z</time>
      </trkpt>
      <trkpt lat="45.04578" lon="1.07302">
        <ele>202</ele>
        <time>2017-10-01T07:54:45.000Z</time>
      </trkpt>
      <trkpt lat="45.04578" lon="1.07302">
        <ele>202</ele>
        <time>2017-10-01T07:54:45.000Z</time>
      </trkpt>
      <trkpt lat="45.04578" lon="1.07302">
        <ele>202</ele>
        <time>2017-10-01T07:54:45.000Z</time>
      </trkpt>
      <trkpt lat="45.04578" lon="1.07302">
        <ele>202</ele>
        <time>2017-10-01T07:54:45.000Z</time>
      </trkpt>
      <trkpt lat="45.04578" lon="1.07302">
        <ele>202</ele>
        <time>2017-10-01T07:54:45.000Z</time>
      </trkpt>
      <trkpt lat="45.04578" lon="1.07302">
        <ele>202</ele>
        <time>2017-10-01T07:54:45.000Z</time>
      </trkpt>
      <trkpt lat="45.04578" lon="1.07302">
        <ele>202</ele>
        <time>2017-10-01T07:54:45.000Z</time>
      </trkpt>
      <trkpt lat="45.04578" lon="1.07302">
        <ele>202</ele>
        <time>2017-10-01T07:54:45.000Z</time>
      </trkpt>
      <trkpt lat="45.04578" lon="1.07302">
        <ele>202</ele>
        <time>2017-10-01T07:54:45.000Z</time>
      </trkpt>
      <trkpt lat="45.04578" lon="1.07302">
        <ele>202</ele>
        <time>2017-10-01T07:54:45.000Z</time>
      </trkpt>
      <trkpt lat="45.04578" lon="1.07302">
        <ele>202</ele>
        <time>2017-10-01T07:54:45.000Z</time>
      </trkpt>
      <trkpt lat="45.04578" lon="1.07302">
        <ele>202</ele>
        <time>2017-10-01T07:54:45.000Z</time>
      </trkpt>
      <trkpt lat="45.04578" lon="1.07302">
        <ele>202</ele>
        <time>2017-10-01T07:54:45.000Z</time>
      </trkpt>
      <trkpt lat="45.04578" lon="1.07301">
        <ele>202</ele>
        <time>2017-10-01T07:54:47.000Z</time>
      </trkpt>
      <trkpt lat="45.04578" lon="1.07301">
        <ele>202</ele>
        <time>2017-10-01T07:54:47.000Z</time>
      </trkpt>
      <trkpt lat="45.04577" lon="1.07301">
        <ele>202</ele>
        <time>2017-10-01T07:54:48.000Z</time>
      </trkpt>
      <trkpt lat="45.04577" lon="1.073">
        <ele>202</ele>
        <time>2017-10-01T07:54:49.000Z</time>
      </trkpt>
      <trkpt lat="45.04576" lon="1.07298">
        <ele>202</ele>
        <time>2017-10-01T07:54:50.000Z</time>
      </trkpt>
      <trkpt lat="45.04576" lon="1.07296">
        <ele>203</ele>
        <time>2017-10-01T07:54:51.000Z</time>
      </trkpt>
      <trkpt lat="45.04576" lon="1.07293">
        <ele>203</ele>
        <time>2017-10-01T07:54:52.000Z</time>
      </trkpt>
      <trkpt lat="45.04576" lon="1.0729">
        <ele>203</ele>
        <time>2017-10-01T07:54:53.000Z</time>
      </trkpt>
      <trkpt lat="45.04576" lon="1.07287">
        <ele>203</ele>
        <time>2017-10-01T07:54:54.000Z</time>
      </trkpt>
      <trkpt lat="45.04576" lon="1.07284">
        <ele>203</ele>
        <time>2017-10-01T07:54:55.000Z</time>
      </trkpt>
      <trkpt lat="45.04577" lon="1.0728">
        <ele>204</ele>
        <time>2017-10-01T07:54:56.000Z</time>
      </trkpt>
      <trkpt lat="45.04578" lon="1.07275">
        <ele>204</ele>
        <time>2017-10-01T07:54:57.000Z</time>
      </trkpt>
      <trkpt lat="45.04579" lon="1.07271">
        <ele>204</ele>
        <time>2017-10-01T07:54:58.000Z</time>
      </trkpt>
      <trkpt lat="45.04579" lon="1.07266">
        <ele>204</ele>
        <time>2017-10-01T07:54:59.000Z</time>
      </trkpt>
      <trkpt lat="45.04579" lon="1.07262">
        <ele>204</ele>
        <time>2017-10-01T07:55:00.000Z</time>
      </trkpt>
      <trkpt lat="45.04579" lon="1.07258">
        <ele>205</ele>
        <time>2017-10-01T07:55:01.000Z</time>
      </trkpt>
      <trkpt lat="45.04579" lon="1.07255">
        <ele>205</ele>
        <time>2017-10-01T07:55:02.000Z</time>
      </trkpt>
      <trkpt lat="45.04579" lon="1.07252">
        <ele>205</ele>
        <time>2017-10-01T07:55:03.000Z</time>
      </trkpt>
      <trkpt lat="45.04579" lon="1.07249">
        <ele>205</ele>
        <time>2017-10-01T07:55:04.000Z</time>
      </trkpt>
      <trkpt lat="45.04578" lon="1.07246">
        <ele>206</ele>
        <time>2017-10-01T07:55:05.000Z</time>
      </trkpt>
      <trkpt lat="45.04578" lon="1.07244">
        <ele>206</ele>
        <time>2017-10-01T07:55:06.000Z</time>
      </trkpt>
      <trkpt lat="45.04578" lon="1.07242">
        <ele>206</ele>
        <time>2017-10-01T07:55:07.000Z</time>
      </trkpt>
      <trkpt lat="45.04577" lon="1.0724">
        <ele>207</ele>
        <time>2017-10-01T07:55:08.000Z</time>
      </trkpt>
      <trkpt lat="45.04577" lon="1.07238">
        <ele>207</ele>
        <time>2017-10-01T07:55:09.000Z</time>
      </trkpt>
      <trkpt lat="45.04577" lon="1.07235">
        <ele>207</ele>
        <time>2017-10-01T07:55:10.000Z</time>
      </trkpt>
      <trkpt lat="45.04576" lon="1.07233">
        <ele>207</ele>
        <time>2017-10-01T07:55:11.000Z</time>
      </trkpt>
      <trkpt lat="45.04576" lon="1.0723">
        <ele>208</ele>
        <time>2017-10-01T07:55:12.000Z</time>
      </trkpt>
      <trkpt lat="45.04576" lon="1.07227">
        <ele>208</ele>
        <time>2017-10-01T07:55:13.000Z</time>
      </trkpt>
      <trkpt lat="45.04576" lon="1.07225">
        <ele>208</ele>
        <time>2017-10-01T07:55:14.000Z</time>
      </trkpt>
      <trkpt lat="45.04576" lon="1.07222">
        <ele>209</ele>
        <time>2017-10-01T07:55:15.000Z</time>
      </trkpt>
      <trkpt lat="45.04575" lon="1.07219">
        <ele>209</ele>
        <time>2017-10-01T07:55:16.000Z</time>
      </trkpt>
      <trkpt lat="45.04575" lon="1.07217">
        <ele>209</ele>
        <time>2017-10-01T07:55:17.000Z</time>
      </trkpt>
      <trkpt lat="45.04575" lon="1.07215">
        <ele>209</ele>
        <time>2017-10-01T07:55:18.000Z</time>
      </trkpt>
      <trkpt lat="45.04575" lon="1.07213">
        <ele>210</ele>
        <time>2017-10-01T07:55:19.000Z</time>
      </trkpt>
      <trkpt lat="45.04575" lon="1.07211">
        <ele>210</ele>
        <time>2017-10-01T07:55:20.000Z</time>
      </trkpt>
      <trkpt lat="45.04574" lon="1.07209">
        <ele>210</ele>
        <time>2017-10-01T07:55:21.000Z</time>
      </trkpt>
      <trkpt lat="45.04574" lon="1.07207">
        <ele>210</ele>
        <time>2017-10-01T07:55:22.000Z</time>
      </trkpt>
      <trkpt lat="45.04574" lon="1.07205">
        <ele>211</ele>
        <time>2017-10-01T07:55:23.000Z</time>
      </trkpt>
      <trkpt lat="45.04573" lon="1.07203">
        <ele>211</ele>
        <time>2017-10-01T07:55:24.000Z</time>
      </trkpt>
      <trkpt lat="45.04573" lon="1.072">
        <ele>211</ele>
        <time>2017-10-01T07:55:25.000Z</time>
      </trkpt>
      <trkpt lat="45.04572" lon="1.07198">
        <ele>211</ele>
        <time>2017-10-01T07:55:26.000Z</time>
      </trkpt>
      <trkpt lat="45.04572" lon="1.07196">
        <ele>212</ele>
        <time>2017-10-01T07:55:27.000Z</time>
      </trkpt>
      <trkpt lat="45.04571" lon="1.07193">
        <ele>212</ele>
        <time>2017-10-01T07:55:28.000Z</time>
      </trkpt>
      <trkpt lat="45.04571" lon="1.07191">
        <ele>212</ele>
        <time>2017-10-01T07:55:29.000Z</time>
      </trkpt>
      <trkpt lat="45.0457" lon="1.07188">
        <ele>213</ele>
        <time>2017-10-01T07:55:30.000Z</time>
      </trkpt>
      <trkpt lat="45.04569" lon="1.07186">
        <ele>213</ele>
        <time>2017-10-01T07:55:31.000Z</time>
      </trkpt>
      <trkpt lat="45.04568" lon="1.07184">
        <ele>213</ele>
        <time>2017-10-01T07:55:32.000Z</time>
      </trkpt>
      <trkpt lat="45.04567" lon="1.07182">
        <ele>214</ele>
        <time>2017-10-01T07:55:33.000Z</time>
      </trkpt>
      <trkpt lat="45.04567" lon="1.07179">
        <ele>214</ele>
        <time>2017-10-01T07:55:34.000Z</time>
      </trkpt>
      <trkpt lat="45.04566" lon="1.07177">
        <ele>214</ele>
        <time>2017-10-01T07:55:35.000Z</time>
      </trkpt>
      <trkpt lat="45.04565" lon="1.07175">
        <ele>214</ele>
        <time>2017-10-01T07:55:36.000Z</time>
      </trkpt>
      <trkpt lat="45.04564" lon="1.07173">
        <ele>215</ele>
        <time>2017-10-01T07:55:37.000Z</time>
      </trkpt>
      <trkpt lat="45.04563" lon="1.07172">
        <ele>215</ele>
        <time>2017-10-01T07:55:38.000Z</time>
      </trkpt>
      <trkpt lat="45.04562" lon="1.0717">
        <ele>215</ele>
        <time>2017-10-01T07:55:39.000Z</time>
      </trkpt>
      <trkpt lat="45.04561" lon="1.07168">
        <ele>215</ele>
        <time>2017-10-01T07:55:40.000Z</time>
      </trkpt>
      <trkpt lat="45.0456" lon="1.07167">
        <ele>216</ele>
        <time>2017-10-01T07:55:41.000Z</time>
      </trkpt>
      <trkpt lat="45.04559" lon="1.07165">
        <ele>216</ele>
        <time>2017-10-01T07:55:42.000Z</time>
      </trkpt>
      <trkpt lat="45.04558" lon="1.07164">
        <ele>216</ele>
        <time>2017-10-01T07:55:43.000Z</time>
      </trkpt>
      <trkpt lat="45.04557" lon="1.07162">
        <ele>216</ele>
        <time>2017-10-01T07:55:44.000Z</time>
      </trkpt>
      <trkpt lat="45.04556" lon="1.07161">
        <ele>216</ele>
        <time>2017-10-01T07:55:45.000Z</time>
      </trkpt>
      <trkpt lat="45.04555" lon="1.07159">
        <ele>217</ele>
        <time>2017-10-01T07:55:46.000Z</time>
      </trkpt>
      <trkpt lat="45.04554" lon="1.07158">
        <ele>217</ele>
        <time>2017-10-01T07:55:47.000Z</time>
      </trkpt>
      <trkpt lat="45.04553" lon="1.07156">
        <ele>217</ele>
        <time>2017-10-01T07:55:48.000Z</time>
      </trkpt>
      <trkpt lat="45.04552" lon="1.07154">
        <ele>217</ele>
        <time>2017-10-01T07:55:49.000Z</time>
      </trkpt>
      <trkpt lat="45.04551" lon="1.07153">
        <ele>218</ele>
        <time>2017-10-01T07:55:50.000Z</time>
      </trkpt>
      <trkpt lat="45.04549" lon="1.07152">
        <ele>218</ele>
        <time>2017-10-01T07:55:51.000Z</time>
      </trkpt>
      <trkpt lat="45.04548" lon="1.07151">
        <ele>218</ele>
        <time>2017-10-01T07:55:52.000Z</time>
      </trkpt>
      <trkpt lat="45.04547" lon="1.07151">
        <ele>218</ele>
        <time>2017-10-01T07:55:53.000Z</time>
      </trkpt>
      <trkpt lat="45.04546" lon="1.07151">
        <ele>218</ele>
        <time>2017-10-01T07:55:54.000Z</time>
      </trkpt>
      <trkpt lat="45.04545" lon="1.07151">
        <ele>218</ele>
        <time>2017-10-01T07:55:55.000Z</time>
      </trkpt>
      <trkpt lat="45.04544" lon="1.07152">
        <ele>218</ele>
        <time>2017-10-01T07:55:56.000Z</time>
      </trkpt>
      <trkpt lat="45.04543" lon="1.07153">
        <ele>218</ele>
        <time>2017-10-01T07:55:57.000Z</time>
      </trkpt>
      <trkpt lat="45.04542" lon="1.07154">
        <ele>218</ele>
        <time>2017-10-01T07:55:58.000Z</time>
      </trkpt>
      <trkpt lat="45.04541" lon="1.07155">
        <ele>218</ele>
        <time>2017-10-01T07:55:59.000Z</time>
      </trkpt>
      <trkpt lat="45.04541" lon="1.07157">
        <ele>218</ele>
        <time>2017-10-01T07:56:00.000Z</time>
      </trkpt>
      <trkpt lat="45.0454" lon="1.07158">
        <ele>218</ele>
        <time>2017-10-01T07:56:01.000Z</time>
      </trkpt>
      <trkpt lat="45.0454" lon="1.0716">
        <ele>218</ele>
        <time>2017-10-01T07:56:02.000Z</time>
      </trkpt>
      <trkpt lat="45.0454" lon="1.07162">
        <ele>218</ele>
        <time>2017-10-01T07:56:03.000Z</time>
      </trkpt>
      <trkpt lat="45.0454" lon="1.07164">
        <ele>217</ele>
        <time>2017-10-01T07:56:04.000Z</time>
      </trkpt>
      <trkpt lat="45.04539" lon="1.07166">
        <ele>217</ele>
        <time>2017-10-01T07:56:05.000Z</time>
      </trkpt>
      <trkpt lat="45.04539" lon="1.07167">
        <ele>217</ele>
        <time>2017-10-01T07:56:06.000Z</time>
      </trkpt>
      <trkpt lat="45.04539" lon="1.07169">
        <ele>217</ele>
        <time>2017-10-01T07:56:07.000Z</time>
      </trkpt>
      <trkpt lat="45.04538" lon="1.07171">
        <ele>217</ele>
        <time>2017-10-01T07:56:08.000Z</time>
      </trkpt>
      <trkpt lat="45.04538" lon="1.07172">
        <ele>217</ele>
        <time>2017-10-01T07:56:09.000Z</time>
      </trkpt>
      <trkpt lat="45.04537" lon="1.07174">
        <ele>217</ele>
        <time>2017-10-01T07:56:10.000Z</time>
      </trkpt>
      <trkpt lat="45.04537" lon="1.07176">
        <ele>217</ele>
        <time>2017-10-01T07:56:11.000Z</time>
      </trkpt>
      <trkpt lat="45.04536" lon="1.07178">
        <ele>217</ele>
        <time>2017-10-01T07:56:12.000Z</time>
      </trkpt>
      <trkpt lat="45.04535" lon="1.0718">
        <ele>217</ele>
        <time>2017-10-01T07:56:13.000Z</time>
      </trkpt>
      <trkpt lat="45.04534" lon="1.07182">
        <ele>217</ele>
        <time>2017-10-01T07:56:14.000Z</time>
      </trkpt>
      <trkpt lat="45.04534" lon="1.07185">
        <ele>217</ele>
        <time>2017-10-01T07:56:15.000Z</time>
      </trkpt>
      <trkpt lat="45.04533" lon="1.07187">
        <ele>217</ele>
        <time>2017-10-01T07:56:16.000Z</time>
      </trkpt>
      <trkpt lat="45.04532" lon="1.07189">
        <ele>217</ele>
        <time>2017-10-01T07:56:17.000Z</time>
      </trkpt>
      <trkpt lat="45.04531" lon="1.07191">
        <ele>217</ele>
        <time>2017-10-01T07:56:18.000Z</time>
      </trkpt>
      <trkpt lat="45.04529" lon="1.07193">
        <ele>217</ele>
        <time>2017-10-01T07:56:19.000Z</time>
      </trkpt>
      <trkpt lat="45.04529" lon="1.07195">
        <ele>217</ele>
        <time>2017-10-01T07:56:20.000Z</time>
      </trkpt>
      <trkpt lat="45.04528" lon="1.07197">
        <ele>217</ele>
        <time>2017-10-01T07:56:21.000Z</time>
      </trkpt>
      <trkpt lat="45.04527" lon="1.07199">
        <ele>217</ele>
        <time>2017-10-01T07:56:22.000Z</time>
      </trkpt>
      <trkpt lat="45.04526" lon="1.07201">
        <ele>217</ele>
        <time>2017-10-01T07:56:23.000Z</time>
      </trkpt>
      <trkpt lat="45.04526" lon="1.07203">
        <ele>217</ele>
        <time>2017-10-01T07:56:24.000Z</time>
      </trkpt>
      <trkpt lat="45.04525" lon="1.07205">
        <ele>217</ele>
        <time>2017-10-01T07:56:25.000Z</time>
      </trkpt>
      <trkpt lat="45.04524" lon="1.07207">
        <ele>217</ele>
        <time>2017-10-01T07:56:26.000Z</time>
      </trkpt>
      <trkpt lat="45.04523" lon="1.07208">
        <ele>217</ele>
        <time>2017-10-01T07:56:27.000Z</time>
      </trkpt>
      <trkpt lat="45.04522" lon="1.0721">
        <ele>217</ele>
        <time>2017-10-01T07:56:28.000Z</time>
      </trkpt>
      <trkpt lat="45.04521" lon="1.07211">
        <ele>217</ele>
        <time>2017-10-01T07:56:29.000Z</time>
      </trkpt>
      <trkpt lat="45.0452" lon="1.07213">
        <ele>217</ele>
        <time>2017-10-01T07:56:30.000Z</time>
      </trkpt>
      <trkpt lat="45.04519" lon="1.07215">
        <ele>217</ele>
        <time>2017-10-01T07:56:31.000Z</time>
      </trkpt>
      <trkpt lat="45.04518" lon="1.07216">
        <ele>217</ele>
        <time>2017-10-01T07:56:32.000Z</time>
      </trkpt>
      <trkpt lat="45.04517" lon="1.07218">
        <ele>217</ele>
        <time>2017-10-01T07:56:33.000Z</time>
      </trkpt>
      <trkpt lat="45.04516" lon="1.07219">
        <ele>217</ele>
        <time>2017-10-01T07:56:34.000Z</time>
      </trkpt>
      <trkpt lat="45.04515" lon="1.07221">
        <ele>217</ele>
        <time>2017-10-01T07:56:35.000Z</time>
      </trkpt>
      <trkpt lat="45.04513" lon="1.07223">
        <ele>217</ele>
        <time>2017-10-01T07:56:36.000Z</time>
      </trkpt>
      <trkpt lat="45.04512" lon="1.07224">
        <ele>217</ele>
        <time>2017-10-01T07:56:37.000Z</time>
      </trkpt>
      <trkpt lat="45.04511" lon="1.07226">
        <ele>218</ele>
        <time>2017-10-01T07:56:38.000Z</time>
      </trkpt>
      <trkpt lat="45.0451" lon="1.07227">
        <ele>218</ele>
        <time>2017-10-01T07:56:39.000Z</time>
      </trkpt>
      <trkpt lat="45.04508" lon="1.07229">
        <ele>218</ele>
        <time>2017-10-01T07:56:40.000Z</time>
      </trkpt>
      <trkpt lat="45.04507" lon="1.0723">
        <ele>218</ele>
        <time>2017-10-01T07:56:41.000Z</time>
      </trkpt>
      <trkpt lat="45.04505" lon="1.07231">
        <ele>218</ele>
        <time>2017-10-01T07:56:42.000Z</time>
      </trkpt>
      <trkpt lat="45.04503" lon="1.07232">
        <ele>218</ele>
        <time>2017-10-01T07:56:43.000Z</time>
      </trkpt>
      <trkpt lat="45.04502" lon="1.07234">
        <ele>219</ele>
        <time>2017-10-01T07:56:44.000Z</time>
      </trkpt>
      <trkpt lat="45.045" lon="1.07235">
        <ele>219</ele>
        <time>2017-10-01T07:56:45.000Z</time>
      </trkpt>
      <trkpt lat="45.04498" lon="1.07236">
        <ele>219</ele>
        <time>2017-10-01T07:56:46.000Z</time>
      </trkpt>
      <trkpt lat="45.04496" lon="1.07237">
        <ele>219</ele>
        <time>2017-10-01T07:56:47.000Z</time>
      </trkpt>
      <trkpt lat="45.04494" lon="1.07238">
        <ele>219</ele>
        <time>2017-10-01T07:56:48.000Z</time>
      </trkpt>
      <trkpt lat="45.04492" lon="1.07239">
        <ele>220</ele>
        <time>2017-10-01T07:56:49.000Z</time>
      </trkpt>
      <trkpt lat="45.0449" lon="1.0724">
        <ele>220</ele>
        <time>2017-10-01T07:56:50.000Z</time>
      </trkpt>
      <trkpt lat="45.04488" lon="1.07241">
        <ele>220</ele>
        <time>2017-10-01T07:56:51.000Z</time>
      </trkpt>
      <trkpt lat="45.04486" lon="1.07242">
        <ele>220</ele>
        <time>2017-10-01T07:56:52.000Z</time>
      </trkpt>
      <trkpt lat="45.04484" lon="1.07242">
        <ele>220</ele>
        <time>2017-10-01T07:56:53.000Z</time>
      </trkpt>
      <trkpt lat="45.04482" lon="1.07243">
        <ele>220</ele>
        <time>2017-10-01T07:56:54.000Z</time>
      </trkpt>
      <trkpt lat="45.04479" lon="1.07244">
        <ele>220</ele>
        <time>2017-10-01T07:56:55.000Z</time>
      </trkpt>
      <trkpt lat="45.04477" lon="1.07244">
        <ele>221</ele>
        <time>2017-10-01T07:56:56.000Z</time>
      </trkpt>
      <trkpt lat="45.04475" lon="1.07244">
        <ele>221</ele>
        <time>2017-10-01T07:56:57.000Z</time>
      </trkpt>
      <trkpt lat="45.04473" lon="1.07244">
        <ele>221</ele>
        <time>2017-10-01T07:56:58.000Z</time>
      </trkpt>
      <trkpt lat="45.04471" lon="1.07244">
        <ele>221</ele>
        <time>2017-10-01T07:56:59.000Z</time>
      </trkpt>
      <trkpt lat="45.04469" lon="1.07243">
        <ele>221</ele>
        <time>2017-10-01T07:57:00.000Z</time>
      </trkpt>
      <trkpt lat="45.04468" lon="1.07242">
        <ele>222</ele>
        <time>2017-10-01T07:57:01.000Z</time>
      </trkpt>
      <trkpt lat="45.04466" lon="1.07241">
        <ele>222</ele>
        <time>2017-10-01T07:57:02.000Z</time>
      </trkpt>
      <trkpt lat="45.04465" lon="1.07239">
        <ele>222</ele>
        <time>2017-10-01T07:57:03.000Z</time>
      </trkpt>
      <trkpt lat="45.04464" lon="1.07238">
        <ele>222</ele>
        <time>2017-10-01T07:57:04.000Z</time>
      </trkpt>
      <trkpt lat="45.04464" lon="1.07237">
        <ele>222</ele>
        <time>2017-10-01T07:57:05.000Z</time>
      </trkpt>
      <trkpt lat="45.04464" lon="1.07235">
        <ele>222</ele>
        <time>2017-10-01T07:57:06.000Z</time>
      </trkpt>
      <trkpt lat="45.04464" lon="1.07234">
        <ele>222</ele>
        <time>2017-10-01T07:57:07.000Z</time>
      </trkpt>
      <trkpt lat="45.04464" lon="1.07232">
        <ele>222</ele>
        <time>2017-10-01T07:57:08.000Z</time>
      </trkpt>
      <trkpt lat="45.04465" lon="1.07231">
        <ele>222</ele>
        <time>2017-10-01T07:57:09.000Z</time>
      </trkpt>
      <trkpt lat="45.04465" lon="1.07229">
        <ele>222</ele>
        <time>2017-10-01T07:57:10.000Z</time>
      </trkpt>
      <trkpt lat="45.04465" lon="1.07227">
        <ele>222</ele>
        <time>2017-10-01T07:57:11.000Z</time>
      </trkpt>
      <trkpt lat="45.04466" lon="1.07225">
        <ele>222</ele>
        <time>2017-10-01T07:57:12.000Z</time>
      </trkpt>
      <trkpt lat="45.04466" lon="1.07223">
        <ele>222</ele>
        <time>2017-10-01T07:57:13.000Z</time>
      </trkpt>
      <trkpt lat="45.04466" lon="1.0722">
        <ele>222</ele>
        <time>2017-10-01T07:57:14.000Z</time>
      </trkpt>
      <trkpt lat="45.04466" lon="1.07218">
        <ele>223</ele>
        <time>2017-10-01T07:57:15.000Z</time>
      </trkpt>
      <trkpt lat="45.04465" lon="1.07216">
        <ele>223</ele>
        <time>2017-10-01T07:57:16.000Z</time>
      </trkpt>
      <trkpt lat="45.04465" lon="1.07214">
        <ele>223</ele>
        <time>2017-10-01T07:57:17.000Z</time>
      </trkpt>
      <trkpt lat="45.04465" lon="1.07212">
        <ele>223</ele>
        <time>2017-10-01T07:57:18.000Z</time>
      </trkpt>
      <trkpt lat="45.04465" lon="1.0721">
        <ele>223</ele>
        <time>2017-10-01T07:57:19.000Z</time>
      </trkpt>
      <trkpt lat="45.04465" lon="1.07209">
        <ele>223</ele>
        <time>2017-10-01T07:57:20.000Z</time>
      </trkpt>
      <trkpt lat="45.04465" lon="1.07208">
        <ele>223</ele>
        <time>2017-10-01T07:57:21.000Z</time>
      </trkpt>
      <trkpt lat="45.04465" lon="1.07207">
        <ele>223</ele>
        <time>2017-10-01T07:57:22.000Z</time>
      </trkpt>
      <trkpt lat="45.04464" lon="1.07206">
        <ele>223</ele>
        <time>2017-10-01T07:57:23.000Z</time>
      </trkpt>
      <trkpt lat="45.04464" lon="1.07206">
        <ele>223</ele>
        <time>2017-10-01T07:58:32.000Z</time>
      </trkpt>
      <trkpt lat="45.04464" lon="1.07205">
        <ele>223</ele>
        <time>2017-10-01T07:58:32.000Z</time>
      </trkpt>
      <trkpt lat="45.04464" lon="1.07205">
        <ele>223</ele>
        <time>2017-10-01T07:58:32.000Z</time>
      </trkpt>
      <trkpt lat="45.04464" lon="1.07205">
        <ele>223</ele>
        <time>2017-10-01T07:58:32.000Z</time>
      </trkpt>
      <trkpt lat="45.04464" lon="1.07205">
        <ele>223</ele>
        <time>2017-10-01T07:58:32.000Z</time>
      </trkpt>
      <trkpt lat="45.04464" lon="1.07205">
        <ele>223</ele>
        <time>2017-10-01T07:58:32.000Z</time>
      </trkpt>
      <trkpt lat="45.04464" lon="1.07205">
        <ele>223</ele>
        <time>2017-10-01T07:58:32.000Z</time>
      </trkpt>
      <trkpt lat="45.04464" lon="1.07205">
        <ele>223</ele>
        <time>2017-10-01T07:58:32.000Z</time>
      </trkpt>
      <trkpt lat="45.04464" lon="1.07205">
        <ele>223</ele>
        <time>2017-10-01T07:58:32.000Z</time>
      </trkpt>
      <trkpt lat="45.04464" lon="1.07205">
        <ele>223</ele>
        <time>2017-10-01T07:58:32.000Z</time>
      </trkpt>
      <trkpt lat="45.04464" lon="1.07205">
        <ele>223</ele>
        <time>2017-10-01T07:58:32.000Z</time>
      </trkpt>
      <trkpt lat="45.04464" lon="1.07205">
        <ele>223</ele>
        <time>2017-10-01T07:58:32.000Z</time>
      </trkpt>
      <trkpt lat="45.04464" lon="1.07205">
        <ele>223</ele>
        <time>2017-10-01T07:58:32.000Z</time>
      </trkpt>
      <trkpt lat="45.04464" lon="1.07205">
        <ele>223</ele>
        <time>2017-10-01T07:58:32.000Z</time>
      </trkpt>
      <trkpt lat="45.04464" lon="1.07205">
        <ele>223</ele>
        <time>2017-10-01T07:58:32.000Z</time>
      </trkpt>
      <trkpt lat="45.04464" lon="1.07205">
        <ele>223</ele>
        <time>2017-10-01T07:58:32.000Z</time>
      </trkpt>
      <trkpt lat="45.04464" lon="1.07205">
        <ele>223</ele>
        <time>2017-10-01T07:58:32.000Z</time>
      </trkpt>
      <trkpt lat="45.04464" lon="1.07205">
        <ele>223</ele>
        <time>2017-10-01T07:58:32.000Z</time>
      </trkpt>
      <trkpt lat="45.04464" lon="1.07205">
        <ele>223</ele>
        <time>2017-10-01T07:58:32.000Z</time>
      </trkpt>
      <trkpt lat="45.04464" lon="1.07205">
        <ele>223</ele>
        <time>2017-10-01T07:58:32.000Z</time>
      </trkpt>
      <trkpt lat="45.04464" lon="1.07205">
        <ele>223</ele>
        <time>2017-10-01T07:58:32.000Z</time>
      </trkpt>
      <trkpt lat="45.04464" lon="1.07205">
        <ele>223</ele>
        <time>2017-10-01T07:58:32.000Z</time>
      </trkpt>
      <trkpt lat="45.04464" lon="1.07205">
        <ele>223</ele>
        <time>2017-10-01T07:58:32.000Z</time>
      </trkpt>
      <trkpt lat="45.04464" lon="1.07205">
        <ele>223</ele>
        <time>2017-10-01T07:58:32.000Z</time>
      </trkpt>
      <trkpt lat="45.04464" lon="1.07205">
        <ele>223</ele>
        <time>2017-10-01T07:58:32.000Z</time>
      </trkpt>
      <trkpt lat="45.04464" lon="1.07205">
        <ele>223</ele>
        <time>2017-10-01T07:58:32.000Z</time>
      </trkpt>
      <trkpt lat="45.04464" lon="1.07205">
        <ele>223</ele>
        <time>2017-10-01T07:58:32.000Z</time>
      </trkpt>
      <trkpt lat="45.04464" lon="1.07205">
        <ele>223</ele>
        <time>2017-10-01T07:58:32.000Z</time>
      </trkpt>
      <trkpt lat="45.04464" lon="1.07205">
        <ele>223</ele>
        <time>2017-10-01T07:58:32.000Z</time>
      </trkpt>
      <trkpt lat="45.04464" lon="1.07205">
        <ele>223</ele>
        <time>2017-10-01T07:58:32.000Z</time>
      </trkpt>
      <trkpt lat="45.04464" lon="1.07205">
        <ele>223</ele>
        <time>2017-10-01T07:58:32.000Z</time>
      </trkpt>
      <trkpt lat="45.04464" lon="1.07205">
        <ele>223</ele>
        <time>2017-10-01T07:58:32.000Z</time>
      </trkpt>
      <trkpt lat="45.04464" lon="1.07205">
        <ele>223</ele>
        <time>2017-10-01T07:58:32.000Z</time>
      </trkpt>
      <trkpt lat="45.04464" lon="1.07205">
        <ele>223</ele>
        <time>2017-10-01T07:58:32.000Z</time>
      </trkpt>
      <trkpt lat="45.04464" lon="1.07205">
        <ele>223</ele>
        <time>2017-10-01T07:58:32.000Z</time>
      </trkpt>
      <trkpt lat="45.04464" lon="1.07205">
        <ele>223</ele>
        <time>2017-10-01T07:58:32.000Z</time>
      </trkpt>
      <trkpt lat="45.04464" lon="1.07205">
        <ele>223</ele>
        <time>2017-10-01T07:58:32.000Z</time>
      </trkpt>
      <trkpt lat="45.04464" lon="1.07205">
        <ele>223</ele>
        <time>2017-10-01T07:58:32.000Z</time>
      </trkpt>
      <trkpt lat="45.04464" lon="1.07205">
        <ele>223</ele>
        <time>2017-10-01T07:58:32.000Z</time>
      </trkpt>
      <trkpt lat="45.04464" lon="1.07205">
        <ele>223</ele>
        <time>2017-10-01T07:58:32.000Z</time>
      </trkpt>
      <trkpt lat="45.04464" lon="1.07205">
        <ele>223</ele>
        <time>2017-10-01T07:58:32.000Z</time>
      </trkpt>
      <trkpt lat="45.04464" lon="1.07205">
        <ele>223</ele>
        <time>2017-10-01T07:58:32.000Z</time>
      </trkpt>
      <trkpt lat="45.04464" lon="1.07205">
        <ele>223</ele>
        <time>2017-10-01T07:58:32.000Z</time>
      </trkpt>
      <trkpt lat="45.04464" lon="1.07205">
        <ele>223</ele>
        <time>2017-10-01T07:58:32.000Z</time>
      </trkpt>
      <trkpt lat="45.04464" lon="1.07205">
        <ele>223</ele>
        <time>2017-10-01T07:58:32.000Z</time>
      </trkpt>
      <trkpt lat="45.04464" lon="1.07205">
        <ele>223</ele>
        <time>2017-10-01T07:58:32.000Z</time>
      </trkpt>
      <trkpt lat="45.04464" lon="1.07205">
        <ele>223</ele>
        <time>2017-10-01T07:58:32.000Z</time>
      </trkpt>
      <trkpt lat="45.04464" lon="1.07205">
        <ele>223</ele>
        <time>2017-10-01T07:58:32.000Z</time>
      </trkpt>
      <trkpt lat="45.04464" lon="1.07205">
        <ele>223</ele>
        <time>2017-10-01T07:58:32.000Z</time>
      </trkpt>
      <trkpt lat="45.04464" lon="1.07205">
        <ele>223</ele>
        <time>2017-10-01T07:58:32.000Z</time>
      </trkpt>
      <trkpt lat="45.04464" lon="1.07205">
        <ele>223</ele>
        <time>2017-10-01T07:58:32.000Z</time>
      </trkpt>
      <trkpt lat="45.04464" lon="1.07205">
        <ele>223</ele>
        <time>2017-10-01T07:58:32.000Z</time>
      </trkpt>
      <trkpt lat="45.04464" lon="1.07205">
        <ele>223</ele>
        <time>2017-10-01T07:58:32.000Z</time>
      </trkpt>
      <trkpt lat="45.04464" lon="1.07205">
        <ele>223</ele>
        <time>2017-10-01T07:58:32.000Z</time>
      </trkpt>
      <trkpt lat="45.04464" lon="1.07205">
        <ele>223</ele>
        <time>2017-10-01T07:58:32.000Z</time>
      </trkpt>
      <trkpt lat="45.04464" lon="1.07205">
        <ele>223</ele>
        <time>2017-10-01T07:58:32.000Z</time>
      </trkpt>
      <trkpt lat="45.04464" lon="1.07205">
        <ele>223</ele>
        <time>2017-10-01T07:58:32.000Z</time>
      </trkpt>
      <trkpt lat="45.04464" lon="1.07205">
        <ele>223</ele>
        <time>2017-10-01T07:58:32.000Z</time>
      </trkpt>
      <trkpt lat="45.04464" lon="1.07205">
        <ele>223</ele>
        <time>2017-10-01T07:58:32.000Z</time>
      </trkpt>
      <trkpt lat="45.04464" lon="1.07205">
        <ele>223</ele>
        <time>2017-10-01T07:58:32.000Z</time>
      </trkpt>
      <trkpt lat="45.04464" lon="1.07205">
        <ele>223</ele>
        <time>2017-10-01T07:58:32.000Z</time>
      </trkpt>
      <trkpt lat="45.04464" lon="1.07205">
        <ele>223</ele>
        <time>2017-10-01T07:58:32.000Z</time>
      </trkpt>
      <trkpt lat="45.04464" lon="1.07205">
        <ele>223</ele>
        <time>2017-10-01T07:58:32.000Z</time>
      </trkpt>
      <trkpt lat="45.04464" lon="1.07205">
        <ele>223</ele>
        <time>2017-10-01T07:58:32.000Z</time>
      </trkpt>
      <trkpt lat="45.04464" lon="1.07205">
        <ele>223</ele>
        <time>2017-10-01T07:58:32.000Z</time>
      </trkpt>
      <trkpt lat="45.04464" lon="1.07205">
        <ele>223</ele>
        <time>2017-10-01T07:58:32.000Z</time>
      </trkpt>
      <trkpt lat="45.04464" lon="1.07205">
        <ele>223</ele>
        <time>2017-10-01T07:58:32.000Z</time>
      </trkpt>
      <trkpt lat="45.04464" lon="1.07205">
        <ele>223</ele>
        <time>2017-10-01T07:58:32.000Z</time>
      </trkpt>
      <trkpt lat="45.04464" lon="1.07205">
        <ele>223</ele>
        <time>2017-10-01T07:58:32.000Z</time>
      </trkpt>
      <trkpt lat="45.04463" lon="1.07203">
        <ele>223</ele>
        <time>2017-10-01T07:58:34.000Z</time>
      </trkpt>
      <trkpt lat="45.04463" lon="1.07203">
        <ele>223</ele>
        <time>2017-10-01T07:58:34.000Z</time>
      </trkpt>
      <trkpt lat="45.04463" lon="1.07202">
        <ele>223</ele>
        <time>2017-10-01T07:58:36.000Z</time>
      </trkpt>
      <trkpt lat="45.04463" lon="1.07202">
        <ele>223</ele>
        <time>2017-10-01T07:58:36.000Z</time>
      </trkpt>
      <trkpt lat="45.04463" lon="1.07201">
        <ele>223</ele>
        <time>2017-10-01T07:59:42.000Z</time>
      </trkpt>
      <trkpt lat="45.04463" lon="1.07201">
        <ele>223</ele>
        <time>2017-10-01T07:59:42.000Z</time>
      </trkpt>
      <trkpt lat="45.04463" lon="1.07201">
        <ele>223</ele>
        <time>2017-10-01T07:59:42.000Z</time>
      </trkpt>
      <trkpt lat="45.04463" lon="1.07201">
        <ele>223</ele>
        <time>2017-10-01T07:59:42.000Z</time>
      </trkpt>
      <trkpt lat="45.04463" lon="1.07201">
        <ele>223</ele>
        <time>2017-10-01T07:59:42.000Z</time>
      </trkpt>
      <trkpt lat="45.04463" lon="1.07201">
        <ele>223</ele>
        <time>2017-10-01T07:59:42.000Z</time>
      </trkpt>
      <trkpt lat="45.04463" lon="1.07201">
        <ele>223</ele>
        <time>2017-10-01T07:59:42.000Z</time>
      </trkpt>
      <trkpt lat="45.04463" lon="1.07201">
        <ele>223</ele>
        <time>2017-10-01T07:59:42.000Z</time>
      </trkpt>
      <trkpt lat="45.04463" lon="1.07201">
        <ele>223</ele>
        <time>2017-10-01T07:59:42.000Z</time>
      </trkpt>
      <trkpt lat="45.04463" lon="1.07201">
        <ele>223</ele>
        <time>2017-10-01T07:59:42.000Z</time>
      </trkpt>
      <trkpt lat="45.04463" lon="1.07201">
        <ele>223</ele>
        <time>2017-10-01T07:59:42.000Z</time>
      </trkpt>
      <trkpt lat="45.04463" lon="1.07201">
        <ele>223</ele>
        <time>2017-10-01T07:59:42.000Z</time>
      </trkpt>
      <trkpt lat="45.04463" lon="1.07201">
        <ele>223</ele>
        <time>2017-10-01T07:59:42.000Z</time>
      </trkpt>
      <trkpt lat="45.04463" lon="1.07201">
        <ele>223</ele>
        <time>2017-10-01T07:59:42.000Z</time>
      </trkpt>
      <trkpt lat="45.04463" lon="1.07201">
        <ele>223</ele>
        <time>2017-10-01T07:59:42.000Z</time>
      </trkpt>
      <trkpt lat="45.04463" lon="1.07201">
        <ele>223</ele>
        <time>2017-10-01T07:59:42.000Z</time>
      </trkpt>
      <trkpt lat="45.04463" lon="1.07201">
        <ele>223</ele>
        <time>2017-10-01T07:59:42.000Z</time>
      </trkpt>
      <trkpt lat="45.04463" lon="1.07201">
        <ele>223</ele>
        <time>2017-10-01T07:59:42.000Z</time>
      </trkpt>
      <trkpt lat="45.04463" lon="1.07201">
        <ele>223</ele>
        <time>2017-10-01T07:59:42.000Z</time>
      </trkpt>
      <trkpt lat="45.04463" lon="1.07201">
        <ele>223</ele>
        <time>2017-10-01T07:59:42.000Z</time>
      </trkpt>
      <trkpt lat="45.04463" lon="1.07201">
        <ele>223</ele>
        <time>2017-10-01T07:59:42.000Z</time>
      </trkpt>
      <trkpt lat="45.04463" lon="1.07201">
        <ele>223</ele>
        <time>2017-10-01T07:59:42.000Z</time>
      </trkpt>
      <trkpt lat="45.04463" lon="1.07201">
        <ele>223</ele>
        <time>2017-10-01T07:59:42.000Z</time>
      </trkpt>
      <trkpt lat="45.04463" lon="1.07201">
        <ele>223</ele>
        <time>2017-10-01T07:59:42.000Z</time>
      </trkpt>
      <trkpt lat="45.04463" lon="1.07201">
        <ele>223</ele>
        <time>2017-10-01T07:59:42.000Z</time>
      </trkpt>
      <trkpt lat="45.04463" lon="1.07201">
        <ele>223</ele>
        <time>2017-10-01T07:59:42.000Z</time>
      </trkpt>
      <trkpt lat="45.04463" lon="1.07201">
        <ele>223</ele>
        <time>2017-10-01T07:59:42.000Z</time>
      </trkpt>
      <trkpt lat="45.04463" lon="1.07201">
        <ele>223</ele>
        <time>2017-10-01T07:59:42.000Z</time>
      </trkpt>
      <trkpt lat="45.04463" lon="1.07201">
        <ele>223</ele>
        <time>2017-10-01T07:59:42.000Z</time>
      </trkpt>
      <trkpt lat="45.04463" lon="1.07201">
        <ele>223</ele>
        <time>2017-10-01T07:59:42.000Z</time>
      </trkpt>
      <trkpt lat="45.04463" lon="1.07201">
        <ele>223</ele>
        <time>2017-10-01T07:59:42.000Z</time>
      </trkpt>
      <trkpt lat="45.04463" lon="1.07201">
        <ele>223</ele>
        <time>2017-10-01T07:59:42.000Z</time>
      </trkpt>
      <trkpt lat="45.04463" lon="1.07201">
        <ele>223</ele>
        <time>2017-10-01T07:59:42.000Z</time>
      </trkpt>
      <trkpt lat="45.04463" lon="1.07201">
        <ele>223</ele>
        <time>2017-10-01T07:59:42.000Z</time>
      </trkpt>
      <trkpt lat="45.04463" lon="1.07201">
        <ele>223</ele>
        <time>2017-10-01T07:59:42.000Z</time>
      </trkpt>
      <trkpt lat="45.04463" lon="1.07201">
        <ele>223</ele>
        <time>2017-10-01T07:59:42.000Z</time>
      </trkpt>
      <trkpt lat="45.04463" lon="1.07201">
        <ele>223</ele>
        <time>2017-10-01T07:59:42.000Z</time>
      </trkpt>
      <trkpt lat="45.04463" lon="1.07201">
        <ele>223</ele>
        <time>2017-10-01T07:59:42.000Z</time>
      </trkpt>
      <trkpt lat="45.04463" lon="1.07201">
        <ele>223</ele>
        <time>2017-10-01T07:59:42.000Z</time>
      </trkpt>
      <trkpt lat="45.04463" lon="1.07201">
        <ele>223</ele>
        <time>2017-10-01T07:59:42.000Z</time>
      </trkpt>
      <trkpt lat="45.04463" lon="1.07201">
        <ele>223</ele>
        <time>2017-10-01T07:59:42.000Z</time>
      </trkpt>
      <trkpt lat="45.04463" lon="1.07201">
        <ele>223</ele>
        <time>2017-10-01T07:59:42.000Z</time>
      </trkpt>
      <trkpt lat="45.04463" lon="1.07201">
        <ele>223</ele>
        <time>2017-10-01T07:59:42.000Z</time>
      </trkpt>
      <trkpt lat="45.04463" lon="1.07201">
        <ele>223</ele>
        <time>2017-10-01T07:59:42.000Z</time>
      </trkpt>
      <trkpt lat="45.04463" lon="1.07201">
        <ele>223</ele>
        <time>2017-10-01T07:59:42.000Z</time>
      </trkpt>
      <trkpt lat="45.04463" lon="1.07201">
        <ele>223</ele>
        <time>2017-10-01T07:59:42.000Z</time>
      </trkpt>
      <trkpt lat="45.04463" lon="1.07201">
        <ele>223</ele>
        <time>2017-10-01T07:59:42.000Z</time>
      </trkpt>
      <trkpt lat="45.04463" lon="1.07201">
        <ele>223</ele>
        <time>2017-10-01T07:59:42.000Z</time>
      </trkpt>
      <trkpt lat="45.04463" lon="1.07201">
        <ele>223</ele>
        <time>2017-10-01T07:59:42.000Z</time>
      </trkpt>
      <trkpt lat="45.04463" lon="1.07201">
        <ele>223</ele>
        <time>2017-10-01T07:59:42.000Z</time>
      </trkpt>
      <trkpt lat="45.04463" lon="1.07201">
        <ele>223</ele>
        <time>2017-10-01T07:59:42.000Z</time>
      </trkpt>
      <trkpt lat="45.04463" lon="1.07201">
        <ele>223</ele>
        <time>2017-10-01T07:59:42.000Z</time>
      </trkpt>
      <trkpt lat="45.04463" lon="1.07201">
        <ele>223</ele>
        <time>2017-10-01T07:59:42.000Z</time>
      </trkpt>
      <trkpt lat="45.04463" lon="1.07201">
        <ele>223</ele>
        <time>2017-10-01T07:59:42.000Z</time>
      </trkpt>
      <trkpt lat="45.04463" lon="1.07201">
        <ele>223</ele>
        <time>2017-10-01T07:59:42.000Z</time>
      </trkpt>
      <trkpt lat="45.04463" lon="1.07201">
        <ele>223</ele>
        <time>2017-10-01T07:59:42.000Z</time>
      </trkpt>
      <trkpt lat="45.04463" lon="1.07201">
        <ele>223</ele>
        <time>2017-10-01T07:59:42.000Z</time>
      </trkpt>
      <trkpt lat="45.04463" lon="1.07201">
        <ele>223</ele>
        <time>2017-10-01T07:59:42.000Z</time>
      </trkpt>
      <trkpt lat="45.04463" lon="1.07201">
        <ele>223</ele>
        <time>2017-10-01T07:59:42.000Z</time>
      </trkpt>
      <trkpt lat="45.04463" lon="1.07201">
        <ele>223</ele>
        <time>2017-10-01T07:59:42.000Z</time>
      </trkpt>
      <trkpt lat="45.04463" lon="1.07201">
        <ele>223</ele>
        <time>2017-10-01T07:59:42.000Z</time>
      </trkpt>
      <trkpt lat="45.04463" lon="1.07201">
        <ele>223</ele>
        <time>2017-10-01T07:59:42.000Z</time>
      </trkpt>
      <trkpt lat="45.04463" lon="1.07201">
        <ele>223</ele>
        <time>2017-10-01T07:59:42.000Z</time>
      </trkpt>
      <trkpt lat="45.04463" lon="1.07201">
        <ele>223</ele>
        <time>2017-10-01T07:59:42.000Z</time>
      </trkpt>
      <trkpt lat="45.04463" lon="1.07201">
        <ele>223</ele>
        <time>2017-10-01T07:59:42.000Z</time>
      </trkpt>
      <trkpt lat="45.04463" lon="1.07201">
        <ele>223</ele>
        <time>2017-10-01T07:59:42.000Z</time>
      </trkpt>
      <trkpt lat="45.04463" lon="1.072">
        <ele>223</ele>
        <time>2017-10-01T07:59:44.000Z</time>
      </trkpt>
      <trkpt lat="45.04463" lon="1.072">
        <ele>223</ele>
        <time>2017-10-01T07:59:44.000Z</time>
      </trkpt>
      <trkpt lat="45.04463" lon="1.07199">
        <ele>223</ele>
        <time>2017-10-01T07:59:45.000Z</time>
      </trkpt>
      <trkpt lat="45.04463" lon="1.07198">
        <ele>223</ele>
        <time>2017-10-01T07:59:46.000Z</time>
      </trkpt>
      <trkpt lat="45.04464" lon="1.07197">
        <ele>223</ele>
        <time>2017-10-01T07:59:47.000Z</time>
      </trkpt>
      <trkpt lat="45.04464" lon="1.07195">
        <ele>223</ele>
        <time>2017-10-01T07:59:48.000Z</time>
      </trkpt>
      <trkpt lat="45.04465" lon="1.07193">
        <ele>223</ele>
        <time>2017-10-01T07:59:49.000Z</time>
      </trkpt>
      <trkpt lat="45.04465" lon="1.0719">
        <ele>224</ele>
        <time>2017-10-01T07:59:50.000Z</time>
      </trkpt>
      <trkpt lat="45.04466" lon="1.07187">
        <ele>224</ele>
        <time>2017-10-01T07:59:51.000Z</time>
      </trkpt>
      <trkpt lat="45.04466" lon="1.07184">
        <ele>224</ele>
        <time>2017-10-01T07:59:52.000Z</time>
      </trkpt>
      <trkpt lat="45.04466" lon="1.0718">
        <ele>224</ele>
        <time>2017-10-01T07:59:53.000Z</time>
      </trkpt>
      <trkpt lat="45.04467" lon="1.07177">
        <ele>224</ele>
        <time>2017-10-01T07:59:54.000Z</time>
      </trkpt>
      <trkpt lat="45.04467" lon="1.07173">
        <ele>224</ele>
        <time>2017-10-01T07:59:55.000Z</time>
      </trkpt>
      <trkpt lat="45.04467" lon="1.07169">
        <ele>224</ele>
        <time>2017-10-01T07:59:56.000Z</time>
      </trkpt>
      <trkpt lat="45.04467" lon="1.07164">
        <ele>224</ele>
        <time>2017-10-01T07:59:57.000Z</time>
      </trkpt>
      <trkpt lat="45.04467" lon="1.0716">
        <ele>224</ele>
        <time>2017-10-01T07:59:58.000Z</time>
      </trkpt>
      <trkpt lat="45.04467" lon="1.07156">
        <ele>224</ele>
        <time>2017-10-01T07:59:59.000Z</time>
      </trkpt>
      <trkpt lat="45.04466" lon="1.07152">
        <ele>225</ele>
        <time>2017-10-01T08:00:00.000Z</time>
      </trkpt>
      <trkpt lat="45.04466" lon="1.07148">
        <ele>225</ele>
        <time>2017-10-01T08:00:01.000Z</time>
      </trkpt>
      <trkpt lat="45.04466" lon="1.07144">
        <ele>225</ele>
        <time>2017-10-01T08:00:02.000Z</time>
      </trkpt>
      <trkpt lat="45.04466" lon="1.0714">
        <ele>225</ele>
        <time>2017-10-01T08:00:03.000Z</time>
      </trkpt>
      <trkpt lat="45.04466" lon="1.07135">
        <ele>225</ele>
        <time>2017-10-01T08:00:04.000Z</time>
      </trkpt>
      <trkpt lat="45.04466" lon="1.0713">
        <ele>225</ele>
        <time>2017-10-01T08:00:05.000Z</time>
      </trkpt>
      <trkpt lat="45.04466" lon="1.07126">
        <ele>225</ele>
        <time>2017-10-01T08:00:06.000Z</time>
      </trkpt>
      <trkpt lat="45.04466" lon="1.07121">
        <ele>225</ele>
        <time>2017-10-01T08:00:07.000Z</time>
      </trkpt>
      <trkpt lat="45.04467" lon="1.07116">
        <ele>226</ele>
        <time>2017-10-01T08:00:08.000Z</time>
      </trkpt>
      <trkpt lat="45.04467" lon="1.07111">
        <ele>226</ele>
        <time>2017-10-01T08:00:09.000Z</time>
      </trkpt>
      <trkpt lat="45.04467" lon="1.07107">
        <ele>226</ele>
        <time>2017-10-01T08:00:10.000Z</time>
      </trkpt>
      <trkpt lat="45.04466" lon="1.07102">
        <ele>226</ele>
        <time>2017-10-01T08:00:11.000Z</time>
      </trkpt>
      <trkpt lat="45.04466" lon="1.07098">
        <ele>226</ele>
        <time>2017-10-01T08:00:12.000Z</time>
      </trkpt>
      <trkpt lat="45.04466" lon="1.07094">
        <ele>226</ele>
        <time>2017-10-01T08:00:13.000Z</time>
      </trkpt>
      <trkpt lat="45.04466" lon="1.07089">
        <ele>226</ele>
        <time>2017-10-01T08:00:14.000Z</time>
      </trkpt>
      <trkpt lat="45.04467" lon="1.07084">
        <ele>227</ele>
        <time>2017-10-01T08:00:15.000Z</time>
      </trkpt>
      <trkpt lat="45.04467" lon="1.07079">
        <ele>227</ele>
        <time>2017-10-01T08:00:16.000Z</time>
      </trkpt>
      <trkpt lat="45.04467" lon="1.07074">
        <ele>227</ele>
        <time>2017-10-01T08:00:17.000Z</time>
      </trkpt>
      <trkpt lat="45.04467" lon="1.07069">
        <ele>227</ele>
        <time>2017-10-01T08:00:18.000Z</time>
      </trkpt>
      <trkpt lat="45.04467" lon="1.07065">
        <ele>227</ele>
        <time>2017-10-01T08:00:19.000Z</time>
      </trkpt>
      <trkpt lat="45.04466" lon="1.07061">
        <ele>227</ele>
        <time>2017-10-01T08:00:20.000Z</time>
      </trkpt>
      <trkpt lat="45.04466" lon="1.07057">
        <ele>227</ele>
        <time>2017-10-01T08:00:21.000Z</time>
      </trkpt>
      <trkpt lat="45.04465" lon="1.07053">
        <ele>228</ele>
        <time>2017-10-01T08:00:22.000Z</time>
      </trkpt>
      <trkpt lat="45.04464" lon="1.07049">
        <ele>228</ele>
        <time>2017-10-01T08:00:23.000Z</time>
      </trkpt>
      <trkpt lat="45.04463" lon="1.07045">
        <ele>228</ele>
        <time>2017-10-01T08:00:24.000Z</time>
      </trkpt>
      <trkpt lat="45.04462" lon="1.07042">
        <ele>228</ele>
        <time>2017-10-01T08:00:25.000Z</time>
      </trkpt>
      <trkpt lat="45.04461" lon="1.07039">
        <ele>228</ele>
        <time>2017-10-01T08:00:26.000Z</time>
      </trkpt>
      <trkpt lat="45.04461" lon="1.07035">
        <ele>228</ele>
        <time>2017-10-01T08:00:27.000Z</time>
      </trkpt>
      <trkpt lat="45.0446" lon="1.07032">
        <ele>229</ele>
        <time>2017-10-01T08:00:28.000Z</time>
      </trkpt>
      <trkpt lat="45.04459" lon="1.07029">
        <ele>229</ele>
        <time>2017-10-01T08:00:29.000Z</time>
      </trkpt>
      <trkpt lat="45.04458" lon="1.07026">
        <ele>229</ele>
        <time>2017-10-01T08:00:30.000Z</time>
      </trkpt>
      <trkpt lat="45.04457" lon="1.07023">
        <ele>229</ele>
        <time>2017-10-01T08:00:31.000Z</time>
      </trkpt>
      <trkpt lat="45.04456" lon="1.0702">
        <ele>229</ele>
        <time>2017-10-01T08:00:32.000Z</time>
      </trkpt>
      <trkpt lat="45.04456" lon="1.07017">
        <ele>229</ele>
        <time>2017-10-01T08:00:33.000Z</time>
      </trkpt>
      <trkpt lat="45.04455" lon="1.07014">
        <ele>229</ele>
        <time>2017-10-01T08:00:34.000Z</time>
      </trkpt>
      <trkpt lat="45.04454" lon="1.07011">
        <ele>229</ele>
        <time>2017-10-01T08:00:35.000Z</time>
      </trkpt>
      <trkpt lat="45.04454" lon="1.07007">
        <ele>230</ele>
        <time>2017-10-01T08:00:36.000Z</time>
      </trkpt>
      <trkpt lat="45.04453" lon="1.07004">
        <ele>230</ele>
        <time>2017-10-01T08:00:37.000Z</time>
      </trkpt>
      <trkpt lat="45.04452" lon="1.07">
        <ele>230</ele>
        <time>2017-10-01T08:00:38.000Z</time>
      </trkpt>
      <trkpt lat="45.04451" lon="1.06997">
        <ele>230</ele>
        <time>2017-10-01T08:00:39.000Z</time>
      </trkpt>
      <trkpt lat="45.04451" lon="1.06994">
        <ele>230</ele>
        <time>2017-10-01T08:00:40.000Z</time>
      </trkpt>
      <trkpt lat="45.0445" lon="1.06991">
        <ele>230</ele>
        <time>2017-10-01T08:00:41.000Z</time>
      </trkpt>
      <trkpt lat="45.04449" lon="1.06987">
        <ele>231</ele>
        <time>2017-10-01T08:00:42.000Z</time>
      </trkpt>
      <trkpt lat="45.04448" lon="1.06984">
        <ele>231</ele>
        <time>2017-10-01T08:00:43.000Z</time>
      </trkpt>
      <trkpt lat="45.04448" lon="1.06981">
        <ele>231</ele>
        <time>2017-10-01T08:00:44.000Z</time>
      </trkpt>
      <trkpt lat="45.04447" lon="1.06978">
        <ele>231</ele>
        <time>2017-10-01T08:00:45.000Z</time>
      </trkpt>
      <trkpt lat="45.04447" lon="1.06975">
        <ele>231</ele>
        <time>2017-10-01T08:00:46.000Z</time>
      </trkpt>
      <trkpt lat="45.04446" lon="1.06972">
        <ele>232</ele>
        <time>2017-10-01T08:00:47.000Z</time>
      </trkpt>
      <trkpt lat="45.04446" lon="1.06969">
        <ele>232</ele>
        <time>2017-10-01T08:00:48.000Z</time>
      </trkpt>
      <trkpt lat="45.04445" lon="1.06967">
        <ele>232</ele>
        <time>2017-10-01T08:00:49.000Z</time>
      </trkpt>
      <trkpt lat="45.04445" lon="1.06964">
        <ele>232</ele>
        <time>2017-10-01T08:00:50.000Z</time>
      </trkpt>
      <trkpt lat="45.04445" lon="1.06961">
        <ele>232</ele>
        <time>2017-10-01T08:00:51.000Z</time>
      </trkpt>
      <trkpt lat="45.04444" lon="1.06958">
        <ele>233</ele>
        <time>2017-10-01T08:00:52.000Z</time>
      </trkpt>
      <trkpt lat="45.04444" lon="1.06955">
        <ele>233</ele>
        <time>2017-10-01T08:00:53.000Z</time>
      </trkpt>
      <trkpt lat="45.04444" lon="1.06952">
        <ele>233</ele>
        <time>2017-10-01T08:00:54.000Z</time>
      </trkpt>
      <trkpt lat="45.04443" lon="1.06949">
        <ele>233</ele>
        <time>2017-10-01T08:00:55.000Z</time>
      </trkpt>
      <trkpt lat="45.04443" lon="1.06946">
        <ele>233</ele>
        <time>2017-10-01T08:00:56.000Z</time>
      </trkpt>
      <trkpt lat="45.04443" lon="1.06943">
        <ele>233</ele>
        <time>2017-10-01T08:00:57.000Z</time>
      </trkpt>
      <trkpt lat="45.04443" lon="1.06941">
        <ele>234</ele>
        <time>2017-10-01T08:00:58.000Z</time>
      </trkpt>
      <trkpt lat="45.04443" lon="1.06938">
        <ele>234</ele>
        <time>2017-10-01T08:00:59.000Z</time>
      </trkpt>
      <trkpt lat="45.04443" lon="1.06935">
        <ele>234</ele>
        <time>2017-10-01T08:01:00.000Z</time>
      </trkpt>
      <trkpt lat="45.04443" lon="1.06932">
        <ele>234</ele>
        <time>2017-10-01T08:01:01.000Z</time>
      </trkpt>
      <trkpt lat="45.04443" lon="1.0693">
        <ele>234</ele>
        <time>2017-10-01T08:01:02.000Z</time>
      </trkpt>
      <trkpt lat="45.04443" lon="1.06927">
        <ele>234</ele>
        <time>2017-10-01T08:01:03.000Z</time>
      </trkpt>
      <trkpt lat="45.04443" lon="1.06925">
        <ele>235</ele>
        <time>2017-10-01T08:01:04.000Z</time>
      </trkpt>
      <trkpt lat="45.04443" lon="1.06922">
        <ele>235</ele>
        <time>2017-10-01T08:01:05.000Z</time>
      </trkpt>
      <trkpt lat="45.04443" lon="1.0692">
        <ele>235</ele>
        <time>2017-10-01T08:01:06.000Z</time>
      </trkpt>
      <trkpt lat="45.04443" lon="1.06918">
        <ele>235</ele>
        <time>2017-10-01T08:01:07.000Z</time>
      </trkpt>
      <trkpt lat="45.04443" lon="1.06915">
        <ele>235</ele>
        <time>2017-10-01T08:01:08.000Z</time>
      </trkpt>
      <trkpt lat="45.04443" lon="1.06913">
        <ele>235</ele>
        <time>2017-10-01T08:01:09.000Z</time>
      </trkpt>
      <trkpt lat="45.04443" lon="1.06911">
        <ele>236</ele>
        <time>2017-10-01T08:01:10.000Z</time>
      </trkpt>
      <trkpt lat="45.04443" lon="1.06908">
        <ele>236</ele>
        <time>2017-10-01T08:01:11.000Z</time>
      </trkpt>
      <trkpt lat="45.04443" lon="1.06906">
        <ele>236</ele>
        <time>2017-10-01T08:01:12.000Z</time>
      </trkpt>
      <trkpt lat="45.04444" lon="1.06903">
        <ele>236</ele>
        <time>2017-10-01T08:01:13.000Z</time>
      </trkpt>
      <trkpt lat="45.04444" lon="1.06901">
        <ele>236</ele>
        <time>2017-10-01T08:01:14.000Z</time>
      </trkpt>
      <trkpt lat="45.04444" lon="1.06898">
        <ele>237</ele>
        <time>2017-10-01T08:01:15.000Z</time>
      </trkpt>
      <trkpt lat="45.04444" lon="1.06896">
        <ele>237</ele>
        <time>2017-10-01T08:01:16.000Z</time>
      </trkpt>
      <trkpt lat="45.04445" lon="1.06893">
        <ele>237</ele>
        <time>2017-10-01T08:01:17.000Z</time>
      </trkpt>
      <trkpt lat="45.04445" lon="1.06891">
        <ele>237</ele>
        <time>2017-10-01T08:01:18.000Z</time>
      </trkpt>
      <trkpt lat="45.04445" lon="1.06888">
        <ele>238</ele>
        <time>2017-10-01T08:01:19.000Z</time>
      </trkpt>
      <trkpt lat="45.04446" lon="1.06886">
        <ele>238</ele>
        <time>2017-10-01T08:01:20.000Z</time>
      </trkpt>
      <trkpt lat="45.04446" lon="1.06884">
        <ele>238</ele>
        <time>2017-10-01T08:01:21.000Z</time>
      </trkpt>
      <trkpt lat="45.04447" lon="1.06881">
        <ele>238</ele>
        <time>2017-10-01T08:01:22.000Z</time>
      </trkpt>
      <trkpt lat="45.04447" lon="1.06879">
        <ele>238</ele>
        <time>2017-10-01T08:01:23.000Z</time>
      </trkpt>
      <trkpt lat="45.04448" lon="1.06876">
        <ele>239</ele>
        <time>2017-10-01T08:01:24.000Z</time>
      </trkpt>
      <trkpt lat="45.04448" lon="1.06874">
        <ele>239</ele>
        <time>2017-10-01T08:01:25.000Z</time>
      </trkpt>
      <trkpt lat="45.04449" lon="1.06872">
        <ele>239</ele>
        <time>2017-10-01T08:01:26.000Z</time>
      </trkpt>
      <trkpt lat="45.04449" lon="1.0687">
        <ele>239</ele>
        <time>2017-10-01T08:01:27.000Z</time>
      </trkpt>
      <trkpt lat="45.0445" lon="1.06867">
        <ele>239</ele>
        <time>2017-10-01T08:01:28.000Z</time>
      </trkpt>
      <trkpt lat="45.0445" lon="1.06865">
        <ele>239</ele>
        <time>2017-10-01T08:01:29.000Z</time>
      </trkpt>
      <trkpt lat="45.04451" lon="1.06863">
        <ele>240</ele>
        <time>2017-10-01T08:01:30.000Z</time>
      </trkpt>
      <trkpt lat="45.04452" lon="1.06861">
        <ele>240</ele>
        <time>2017-10-01T08:01:31.000Z</time>
      </trkpt>
      <trkpt lat="45.04453" lon="1.06859">
        <ele>240</ele>
        <time>2017-10-01T08:01:32.000Z</time>
      </trkpt>
      <trkpt lat="45.04453" lon="1.06857">
        <ele>240</ele>
        <time>2017-10-01T08:01:33.000Z</time>
      </trkpt>
      <trkpt lat="45.04454" lon="1.06855">
        <ele>240</ele>
        <time>2017-10-01T08:01:34.000Z</time>
      </trkpt>
      <trkpt lat="45.04455" lon="1.06853">
        <ele>240</ele>
        <time>2017-10-01T08:01:35.000Z</time>
      </trkpt>
      <trkpt lat="45.04456" lon="1.06851">
        <ele>241</ele>
        <time>2017-10-01T08:01:36.000Z</time>
      </trkpt>
      <trkpt lat="45.04457" lon="1.06849">
        <ele>241</ele>
        <time>2017-10-01T08:01:37.000Z</time>
      </trkpt>
      <trkpt lat="45.04458" lon="1.06847">
        <ele>241</ele>
        <time>2017-10-01T08:01:38.000Z</time>
      </trkpt>
      <trkpt lat="45.04458" lon="1.06845">
        <ele>241</ele>
        <time>2017-10-01T08:01:39.000Z</time>
      </trkpt>
      <trkpt lat="45.04459" lon="1.06843">
        <ele>241</ele>
        <time>2017-10-01T08:01:40.000Z</time>
      </trkpt>
      <trkpt lat="45.0446" lon="1.06841">
        <ele>241</ele>
        <time>2017-10-01T08:01:41.000Z</time>
      </trkpt>
      <trkpt lat="45.04461" lon="1.06838">
        <ele>241</ele>
        <time>2017-10-01T08:01:42.000Z</time>
      </trkpt>
      <trkpt lat="45.04462" lon="1.06836">
        <ele>242</ele>
        <time>2017-10-01T08:01:43.000Z</time>
      </trkpt>
      <trkpt lat="45.04463" lon="1.06834">
        <ele>242</ele>
        <time>2017-10-01T08:01:44.000Z</time>
      </trkpt>
      <trkpt lat="45.04463" lon="1.06832">
        <ele>242</ele>
        <time>2017-10-01T08:01:45.000Z</time>
      </trkpt>
      <trkpt lat="45.04464" lon="1.0683">
        <ele>242</ele>
        <time>2017-10-01T08:01:46.000Z</time>
      </trkpt>
      <trkpt lat="45.04465" lon="1.06828">
        <ele>242</ele>
        <time>2017-10-01T08:01:47.000Z</time>
      </trkpt>
      <trkpt lat="45.04466" lon="1.06826">
        <ele>242</ele>
        <time>2017-10-01T08:01:48.000Z</time>
      </trkpt>
      <trkpt lat="45.04467" lon="1.06824">
        <ele>243</ele>
        <time>2017-10-01T08:01:49.000Z</time>
      </trkpt>
      <trkpt lat="45.04469" lon="1.06822">
        <ele>243</ele>
        <time>2017-10-01T08:01:50.000Z</time>
      </trkpt>
      <trkpt lat="45.0447" lon="1.06819">
        <ele>243</ele>
        <time>2017-10-01T08:01:51.000Z</time>
      </trkpt>
      <trkpt lat="45.04471" lon="1.06817">
        <ele>243</ele>
        <time>2017-10-01T08:01:52.000Z</time>
      </trkpt>
      <trkpt lat="45.04472" lon="1.06815">
        <ele>243</ele>
        <time>2017-10-01T08:01:53.000Z</time>
      </trkpt>
      <trkpt lat="45.04473" lon="1.06813">
        <ele>243</ele>
        <time>2017-10-01T08:01:54.000Z</time>
      </trkpt>
      <trkpt lat="45.04474" lon="1.06811">
        <ele>244</ele>
        <time>2017-10-01T08:01:55.000Z</time>
      </trkpt>
      <trkpt lat="45.04475" lon="1.06809">
        <ele>244</ele>
        <time>2017-10-01T08:01:56.000Z</time>
      </trkpt>
      <trkpt lat="45.04476" lon="1.06807">
        <ele>244</ele>
        <time>2017-10-01T08:01:57.000Z</time>
      </trkpt>
      <trkpt lat="45.04477" lon="1.06805">
        <ele>244</ele>
        <time>2017-10-01T08:01:58.000Z</time>
      </trkpt>
      <trkpt lat="45.04478" lon="1.06803">
        <ele>244</ele>
        <time>2017-10-01T08:01:59.000Z</time>
      </trkpt>
      <trkpt lat="45.04479" lon="1.06801">
        <ele>244</ele>
        <time>2017-10-01T08:02:00.000Z</time>
      </trkpt>
      <trkpt lat="45.0448" lon="1.06799">
        <ele>245</ele>
        <time>2017-10-01T08:02:01.000Z</time>
      </trkpt>
      <trkpt lat="45.04481" lon="1.06797">
        <ele>245</ele>
        <time>2017-10-01T08:02:02.000Z</time>
      </trkpt>
      <trkpt lat="45.04482" lon="1.06795">
        <ele>245</ele>
        <time>2017-10-01T08:02:03.000Z</time>
      </trkpt>
      <trkpt lat="45.04483" lon="1.06793">
        <ele>245</ele>
        <time>2017-10-01T08:02:04.000Z</time>
      </trkpt>
      <trkpt lat="45.04484" lon="1.06791">
        <ele>245</ele>
        <time>2017-10-01T08:02:05.000Z</time>
      </trkpt>
      <trkpt lat="45.04485" lon="1.06789">
        <ele>245</ele>
        <time>2017-10-01T08:02:06.000Z</time>
      </trkpt>
      <trkpt lat="45.04487" lon="1.06787">
        <ele>246</ele>
        <time>2017-10-01T08:02:07.000Z</time>
      </trkpt>
      <trkpt lat="45.04488" lon="1.06785">
        <ele>246</ele>
        <time>2017-10-01T08:02:08.000Z</time>
      </trkpt>
      <trkpt lat="45.04489" lon="1.06783">
        <ele>246</ele>
        <time>2017-10-01T08:02:09.000Z</time>
      </trkpt>
      <trkpt lat="45.04489" lon="1.06781">
        <ele>246</ele>
        <time>2017-10-01T08:02:10.000Z</time>
      </trkpt>
      <trkpt lat="45.0449" lon="1.06778">
        <ele>247</ele>
        <time>2017-10-01T08:02:11.000Z</time>
      </trkpt>
      <trkpt lat="45.04491" lon="1.06776">
        <ele>247</ele>
        <time>2017-10-01T08:02:12.000Z</time>
      </trkpt>
      <trkpt lat="45.04491" lon="1.06773">
        <ele>247</ele>
        <time>2017-10-01T08:02:13.000Z</time>
      </trkpt>
      <trkpt lat="45.04492" lon="1.06771">
        <ele>247</ele>
        <time>2017-10-01T08:02:14.000Z</time>
      </trkpt>
      <trkpt lat="45.04492" lon="1.06768">
        <ele>248</ele>
        <time>2017-10-01T08:02:15.000Z</time>
      </trkpt>
      <trkpt lat="45.04492" lon="1.06766">
        <ele>248</ele>
        <time>2017-10-01T08:02:16.000Z</time>
      </trkpt>
      <trkpt lat="45.04492" lon="1.06763">
        <ele>248</ele>
        <time>2017-10-01T08:02:17.000Z</time>
      </trkpt>
      <trkpt lat="45.04492" lon="1.06761">
        <ele>248</ele>
        <time>2017-10-01T08:02:18.000Z</time>
      </trkpt>
      <trkpt lat="45.04492" lon="1.06758">
        <ele>249</ele>
        <time>2017-10-01T08:02:19.000Z</time>
      </trkpt>
      <trkpt lat="45.04492" lon="1.06756">
        <ele>249</ele>
        <time>2017-10-01T08:02:20.000Z</time>
      </trkpt>
      <trkpt lat="45.04492" lon="1.06753">
        <ele>249</ele>
        <time>2017-10-01T08:02:21.000Z</time>
      </trkpt>
      <trkpt lat="45.04492" lon="1.06751">
        <ele>250</ele>
        <time>2017-10-01T08:02:22.000Z</time>
      </trkpt>
      <trkpt lat="45.04492" lon="1.06748">
        <ele>250</ele>
        <time>2017-10-01T08:02:23.000Z</time>
      </trkpt>
      <trkpt lat="45.04492" lon="1.06746">
        <ele>250</ele>
        <time>2017-10-01T08:02:24.000Z</time>
      </trkpt>
      <trkpt lat="45.04492" lon="1.06743">
        <ele>250</ele>
        <time>2017-10-01T08:02:25.000Z</time>
      </trkpt>
      <trkpt lat="45.04491" lon="1.06741">
        <ele>250</ele>
        <time>2017-10-01T08:02:26.000Z</time>
      </trkpt>
      <trkpt lat="45.04491" lon="1.06738">
        <ele>250</ele>
        <time>2017-10-01T08:02:27.000Z</time>
      </trkpt>
      <trkpt lat="45.04491" lon="1.06735">
        <ele>250</ele>
        <time>2017-10-01T08:02:28.000Z</time>
      </trkpt>
      <trkpt lat="45.04491" lon="1.06733">
        <ele>250</ele>
        <time>2017-10-01T08:02:29.000Z</time>
      </trkpt>
      <trkpt lat="45.04491" lon="1.0673">
        <ele>250</ele>
        <time>2017-10-01T08:02:30.000Z</time>
      </trkpt>
      <trkpt lat="45.04491" lon="1.06728">
        <ele>251</ele>
        <time>2017-10-01T08:02:31.000Z</time>
      </trkpt>
      <trkpt lat="45.04491" lon="1.06725">
        <ele>251</ele>
        <time>2017-10-01T08:02:32.000Z</time>
      </trkpt>
      <trkpt lat="45.04491" lon="1.06722">
        <ele>251</ele>
        <time>2017-10-01T08:02:33.000Z</time>
      </trkpt>
      <trkpt lat="45.0449" lon="1.0672">
        <ele>251</ele>
        <time>2017-10-01T08:02:34.000Z</time>
      </trkpt>
      <trkpt lat="45.0449" lon="1.06717">
        <ele>251</ele>
        <time>2017-10-01T08:02:35.000Z</time>
      </trkpt>
      <trkpt lat="45.0449" lon="1.06714">
        <ele>251</ele>
        <time>2017-10-01T08:02:36.000Z</time>
      </trkpt>
      <trkpt lat="45.0449" lon="1.06712">
        <ele>251</ele>
        <time>2017-10-01T08:02:37.000Z</time>
      </trkpt>
      <trkpt lat="45.0449" lon="1.06709">
        <ele>251</ele>
        <time>2017-10-01T08:02:38.000Z</time>
      </trkpt>
      <trkpt lat="45.0449" lon="1.06706">
        <ele>251</ele>
        <time>2017-10-01T08:02:39.000Z</time>
      </trkpt>
      <trkpt lat="45.0449" lon="1.06704">
        <ele>251</ele>
        <time>2017-10-01T08:02:40.000Z</time>
      </trkpt>
      <trkpt lat="45.0449" lon="1.06701">
        <ele>251</ele>
        <time>2017-10-01T08:02:41.000Z</time>
      </trkpt>
      <trkpt lat="45.0449" lon="1.06699">
        <ele>251</ele>
        <time>2017-10-01T08:02:42.000Z</time>
      </trkpt>
      <trkpt lat="45.04489" lon="1.06697">
        <ele>252</ele>
        <time>2017-10-01T08:02:43.000Z</time>
      </trkpt>
      <trkpt lat="45.04489" lon="1.06695">
        <ele>252</ele>
        <time>2017-10-01T08:02:44.000Z</time>
      </trkpt>
      <trkpt lat="45.04489" lon="1.06693">
        <ele>252</ele>
        <time>2017-10-01T08:02:45.000Z</time>
      </trkpt>
      <trkpt lat="45.04489" lon="1.06692">
        <ele>252</ele>
        <time>2017-10-01T08:02:46.000Z</time>
      </trkpt>
      <trkpt lat="45.04489" lon="1.06691">
        <ele>252</ele>
        <time>2017-10-01T08:02:50.000Z</time>
      </trkpt>
      <trkpt lat="45.04489" lon="1.06691">
        <ele>252</ele>
        <time>2017-10-01T08:02:50.000Z</time>
      </trkpt>
      <trkpt lat="45.04489" lon="1.06691">
        <ele>252</ele>
        <time>2017-10-01T08:02:50.000Z</time>
      </trkpt>
      <trkpt lat="45.04489" lon="1.06691">
        <ele>252</ele>
        <time>2017-10-01T08:02:50.000Z</time>
      </trkpt>
      <trkpt lat="45.04489" lon="1.0669">
        <ele>252</ele>
        <time>2017-10-01T08:02:52.000Z</time>
      </trkpt>
      <trkpt lat="45.04489" lon="1.0669">
        <ele>252</ele>
        <time>2017-10-01T08:02:52.000Z</time>
      </trkpt>
      <trkpt lat="45.04489" lon="1.06689">
        <ele>252</ele>
        <time>2017-10-01T08:02:53.000Z</time>
      </trkpt>
      <trkpt lat="45.04489" lon="1.06688">
        <ele>252</ele>
        <time>2017-10-01T08:02:55.000Z</time>
      </trkpt>
      <trkpt lat="45.04489" lon="1.06688">
        <ele>252</ele>
        <time>2017-10-01T08:02:55.000Z</time>
      </trkpt>
      <trkpt lat="45.04489" lon="1.06687">
        <ele>252</ele>
        <time>2017-10-01T08:03:00.000Z</time>
      </trkpt>
      <trkpt lat="45.04489" lon="1.06687">
        <ele>252</ele>
        <time>2017-10-01T08:03:00.000Z</time>
      </trkpt>
      <trkpt lat="45.04489" lon="1.06687">
        <ele>252</ele>
        <time>2017-10-01T08:03:00.000Z</time>
      </trkpt>
      <trkpt lat="45.04489" lon="1.06687">
        <ele>252</ele>
        <time>2017-10-01T08:03:00.000Z</time>
      </trkpt>
      <trkpt lat="45.04489" lon="1.06687">
        <ele>252</ele>
        <time>2017-10-01T08:03:00.000Z</time>
      </trkpt>
      <trkpt lat="45.04489" lon="1.06686">
        <ele>252</ele>
        <time>2017-10-01T08:03:02.000Z</time>
      </trkpt>
      <trkpt lat="45.04489" lon="1.06686">
        <ele>252</ele>
        <time>2017-10-01T08:03:02.000Z</time>
      </trkpt>
      <trkpt lat="45.04489" lon="1.06685">
        <ele>252</ele>
        <time>2017-10-01T08:03:04.000Z</time>
      </trkpt>
      <trkpt lat="45.04489" lon="1.06685">
        <ele>252</ele>
        <time>2017-10-01T08:03:04.000Z</time>
      </trkpt>
      <trkpt lat="45.04488" lon="1.06684">
        <ele>252</ele>
        <time>2017-10-01T08:03:06.000Z</time>
      </trkpt>
      <trkpt lat="45.04488" lon="1.06684">
        <ele>252</ele>
        <time>2017-10-01T08:03:06.000Z</time>
      </trkpt>
      <trkpt lat="45.04488" lon="1.06684">
        <ele>252</ele>
        <time>2017-10-01T08:06:09.000Z</time>
      </trkpt>
      <trkpt lat="45.04488" lon="1.06683">
        <ele>252</ele>
        <time>2017-10-01T08:06:09.000Z</time>
      </trkpt>
      <trkpt lat="45.04488" lon="1.06683">
        <ele>252</ele>
        <time>2017-10-01T08:06:09.000Z</time>
      </trkpt>
      <trkpt lat="45.04488" lon="1.06683">
        <ele>252</ele>
        <time>2017-10-01T08:06:09.000Z</time>
      </trkpt>
      <trkpt lat="45.04488" lon="1.06683">
        <ele>252</ele>
        <time>2017-10-01T08:06:09.000Z</time>
      </trkpt>
      <trkpt lat="45.04488" lon="1.06683">
        <ele>252</ele>
        <time>2017-10-01T08:06:09.000Z</time>
      </trkpt>
      <trkpt lat="45.04488" lon="1.06683">
        <ele>252</ele>
        <time>2017-10-01T08:06:09.000Z</time>
      </trkpt>
      <trkpt lat="45.04488" lon="1.06683">
        <ele>252</ele>
        <time>2017-10-01T08:06:09.000Z</time>
      </trkpt>
      <trkpt lat="45.04488" lon="1.06683">
        <ele>252</ele>
        <time>2017-10-01T08:06:09.000Z</time>
      </trkpt>
      <trkpt lat="45.04488" lon="1.06683">
        <ele>252</ele>
        <time>2017-10-01T08:06:09.000Z</time>
      </trkpt>
      <trkpt lat="45.04488" lon="1.06683">
        <ele>252</ele>
        <time>2017-10-01T08:06:34.000Z</time>
      </trkpt>
      <trkpt lat="45.04488" lon="1.06682">
        <ele>252</ele>
        <time>2017-10-01T08:06:34.000Z</time>
      </trkpt>
      <trkpt lat="45.04488" lon="1.06682">
        <ele>252</ele>
        <time>2017-10-01T08:06:34.000Z</time>
      </trkpt>
      <trkpt lat="45.04488" lon="1.06682">
        <ele>252</ele>
        <time>2017-10-01T08:06:34.000Z</time>
      </trkpt>
      <trkpt lat="45.04488" lon="1.06682">
        <ele>252</ele>
        <time>2017-10-01T08:06:34.000Z</time>
      </trkpt>
      <trkpt lat="45.04488" lon="1.06682">
        <ele>252</ele>
        <time>2017-10-01T08:06:34.000Z</time>
      </trkpt>
      <trkpt lat="45.04489" lon="1.06682">
        <ele>252</ele>
        <time>2017-10-01T08:06:36.000Z</time>
      </trkpt>
      <trkpt lat="45.04489" lon="1.06682">
        <ele>252</ele>
        <time>2017-10-01T08:06:36.000Z</time>
      </trkpt>
      <trkpt lat="45.0449" lon="1.06682">
        <ele>252</ele>
        <time>2017-10-01T08:06:38.000Z</time>
      </trkpt>
      <trkpt lat="45.04491" lon="1.06683">
        <ele>252</ele>
        <time>2017-10-01T08:03:26.000Z</time>
      </trkpt>
      <trkpt lat="45.04492" lon="1.06683">
        <ele>252</ele>
        <time>2017-10-01T08:05:49.000Z</time>
      </trkpt>
      <trkpt lat="45.04492" lon="1.06683">
        <ele>252</ele>
        <time>2017-10-01T08:05:49.000Z</time>
      </trkpt>
      <trkpt lat="45.04492" lon="1.06683">
        <ele>252</ele>
        <time>2017-10-01T08:05:49.000Z</time>
      </trkpt>
      <trkpt lat="45.04492" lon="1.06683">
        <ele>252</ele>
        <time>2017-10-01T08:05:49.000Z</time>
      </trkpt>
      <trkpt lat="45.04492" lon="1.06683">
        <ele>252</ele>
        <time>2017-10-01T08:05:49.000Z</time>
      </trkpt>
      <trkpt lat="45.04492" lon="1.06683">
        <ele>252</ele>
        <time>2017-10-01T08:05:49.000Z</time>
      </trkpt>
      <trkpt lat="45.04492" lon="1.06683">
        <ele>252</ele>
        <time>2017-10-01T08:05:49.000Z</time>
      </trkpt>
      <trkpt lat="45.04492" lon="1.06683">
        <ele>252</ele>
        <time>2017-10-01T08:05:49.000Z</time>
      </trkpt>
      <trkpt lat="45.04492" lon="1.06683">
        <ele>252</ele>
        <time>2017-10-01T08:05:49.000Z</time>
      </trkpt>
      <trkpt lat="45.04492" lon="1.06683">
        <ele>252</ele>
        <time>2017-10-01T08:05:49.000Z</time>
      </trkpt>
      <trkpt lat="45.04492" lon="1.06683">
        <ele>252</ele>
        <time>2017-10-01T08:05:49.000Z</time>
      </trkpt>
      <trkpt lat="45.04492" lon="1.06683">
        <ele>252</ele>
        <time>2017-10-01T08:05:49.000Z</time>
      </trkpt>
      <trkpt lat="45.04492" lon="1.06683">
        <ele>252</ele>
        <time>2017-10-01T08:05:49.000Z</time>
      </trkpt>
      <trkpt lat="45.04492" lon="1.06683">
        <ele>252</ele>
        <time>2017-10-01T08:05:49.000Z</time>
      </trkpt>
      <trkpt lat="45.04492" lon="1.06683">
        <ele>252</ele>
        <time>2017-10-01T08:05:49.000Z</time>
      </trkpt>
      <trkpt lat="45.04492" lon="1.06683">
        <ele>252</ele>
        <time>2017-10-01T08:05:49.000Z</time>
      </trkpt>
      <trkpt lat="45.04492" lon="1.06683">
        <ele>252</ele>
        <time>2017-10-01T08:05:49.000Z</time>
      </trkpt>
      <trkpt lat="45.04492" lon="1.06683">
        <ele>252</ele>
        <time>2017-10-01T08:05:49.000Z</time>
      </trkpt>
      <trkpt lat="45.04492" lon="1.06683">
        <ele>252</ele>
        <time>2017-10-01T08:05:49.000Z</time>
      </trkpt>
      <trkpt lat="45.04492" lon="1.06683">
        <ele>252</ele>
        <time>2017-10-01T08:05:49.000Z</time>
      </trkpt>
      <trkpt lat="45.04492" lon="1.06683">
        <ele>252</ele>
        <time>2017-10-01T08:05:49.000Z</time>
      </trkpt>
      <trkpt lat="45.04492" lon="1.06683">
        <ele>252</ele>
        <time>2017-10-01T08:05:49.000Z</time>
      </trkpt>
      <trkpt lat="45.04492" lon="1.06683">
        <ele>252</ele>
        <time>2017-10-01T08:05:49.000Z</time>
      </trkpt>
      <trkpt lat="45.04492" lon="1.06683">
        <ele>252</ele>
        <time>2017-10-01T08:05:49.000Z</time>
      </trkpt>
      <trkpt lat="45.04492" lon="1.06683">
        <ele>252</ele>
        <time>2017-10-01T08:05:49.000Z</time>
      </trkpt>
      <trkpt lat="45.04492" lon="1.06683">
        <ele>252</ele>
        <time>2017-10-01T08:05:49.000Z</time>
      </trkpt>
      <trkpt lat="45.04492" lon="1.06684">
        <ele>252</ele>
        <time>2017-10-01T08:05:49.000Z</time>
      </trkpt>
      <trkpt lat="45.04492" lon="1.06684">
        <ele>252</ele>
        <time>2017-10-01T08:06:06.000Z</time>
      </trkpt>
      <trkpt lat="45.04492" lon="1.06684">
        <ele>252</ele>
        <time>2017-10-01T08:06:06.000Z</time>
      </trkpt>
      <trkpt lat="45.04492" lon="1.06684">
        <ele>252</ele>
        <time>2017-10-01T08:06:06.000Z</time>
      </trkpt>
      <trkpt lat="45.04492" lon="1.06684">
        <ele>252</ele>
        <time>2017-10-01T08:06:06.000Z</time>
      </trkpt>
      <trkpt lat="45.04492" lon="1.06684">
        <ele>252</ele>
        <time>2017-10-01T08:06:06.000Z</time>
      </trkpt>
      <trkpt lat="45.04492" lon="1.06684">
        <ele>252</ele>
        <time>2017-10-01T08:06:06.000Z</time>
      </trkpt>
      <trkpt lat="45.04492" lon="1.06684">
        <ele>252</ele>
        <time>2017-10-01T08:06:06.000Z</time>
      </trkpt>
      <trkpt lat="45.04492" lon="1.06684">
        <ele>252</ele>
        <time>2017-10-01T08:06:06.000Z</time>
      </trkpt>
      <trkpt lat="45.04492" lon="1.06684">
        <ele>252</ele>
        <time>2017-10-01T08:06:06.000Z</time>
      </trkpt>
      <trkpt lat="45.04492" lon="1.06684">
        <ele>252</ele>
        <time>2017-10-01T08:06:06.000Z</time>
      </trkpt>
      <trkpt lat="45.04492" lon="1.06684">
        <ele>252</ele>
        <time>2017-10-01T08:06:06.000Z</time>
      </trkpt>
      <trkpt lat="45.04492" lon="1.06684">
        <ele>252</ele>
        <time>2017-10-01T08:06:06.000Z</time>
      </trkpt>
      <trkpt lat="45.04492" lon="1.06684">
        <ele>252</ele>
        <time>2017-10-01T08:06:06.000Z</time>
      </trkpt>
      <trkpt lat="45.04492" lon="1.06684">
        <ele>252</ele>
        <time>2017-10-01T08:06:06.000Z</time>
      </trkpt>
      <trkpt lat="45.04492" lon="1.06684">
        <ele>252</ele>
        <time>2017-10-01T08:06:06.000Z</time>
      </trkpt>
      <trkpt lat="45.04492" lon="1.06684">
        <ele>252</ele>
        <time>2017-10-01T08:06:06.000Z</time>
      </trkpt>
      <trkpt lat="45.04492" lon="1.06684">
        <ele>252</ele>
        <time>2017-10-01T08:06:06.000Z</time>
      </trkpt>
      <trkpt lat="45.04492" lon="1.06684">
        <ele>252</ele>
        <time>2017-10-01T08:06:06.000Z</time>
      </trkpt>
      <trkpt lat="45.04492" lon="1.06684">
        <ele>252</ele>
        <time>2017-10-01T08:06:06.000Z</time>
      </trkpt>
      <trkpt lat="45.04492" lon="1.06684">
        <ele>252</ele>
        <time>2017-10-01T08:06:06.000Z</time>
      </trkpt>
      <trkpt lat="45.04492" lon="1.06684">
        <ele>252</ele>
        <time>2017-10-01T08:06:06.000Z</time>
      </trkpt>
      <trkpt lat="45.04492" lon="1.06684">
        <ele>252</ele>
        <time>2017-10-01T08:06:06.000Z</time>
      </trkpt>
      <trkpt lat="45.04492" lon="1.06684">
        <ele>252</ele>
        <time>2017-10-01T08:06:06.000Z</time>
      </trkpt>
      <trkpt lat="45.04492" lon="1.06684">
        <ele>252</ele>
        <time>2017-10-01T08:06:06.000Z</time>
      </trkpt>
      <trkpt lat="45.04492" lon="1.06684">
        <ele>252</ele>
        <time>2017-10-01T08:06:06.000Z</time>
      </trkpt>
      <trkpt lat="45.04492" lon="1.06684">
        <ele>252</ele>
        <time>2017-10-01T08:06:06.000Z</time>
      </trkpt>
      <trkpt lat="45.04492" lon="1.06684">
        <ele>252</ele>
        <time>2017-10-01T08:06:06.000Z</time>
      </trkpt>
      <trkpt lat="45.04492" lon="1.06684">
        <ele>252</ele>
        <time>2017-10-01T08:06:06.000Z</time>
      </trkpt>
      <trkpt lat="45.04492" lon="1.06684">
        <ele>252</ele>
        <time>2017-10-01T08:06:06.000Z</time>
      </trkpt>
      <trkpt lat="45.04492" lon="1.06684">
        <ele>252</ele>
        <time>2017-10-01T08:06:06.000Z</time>
      </trkpt>
      <trkpt lat="45.04492" lon="1.06684">
        <ele>252</ele>
        <time>2017-10-01T08:06:06.000Z</time>
      </trkpt>
      <trkpt lat="45.04492" lon="1.06684">
        <ele>252</ele>
        <time>2017-10-01T08:06:06.000Z</time>
      </trkpt>
      <trkpt lat="45.04492" lon="1.06684">
        <ele>252</ele>
        <time>2017-10-01T08:06:06.000Z</time>
      </trkpt>
      <trkpt lat="45.04492" lon="1.06684">
        <ele>252</ele>
        <time>2017-10-01T08:06:06.000Z</time>
      </trkpt>
      <trkpt lat="45.04492" lon="1.06684">
        <ele>252</ele>
        <time>2017-10-01T08:06:06.000Z</time>
      </trkpt>
      <trkpt lat="45.04492" lon="1.06684">
        <ele>252</ele>
        <time>2017-10-01T08:06:06.000Z</time>
      </trkpt>
      <trkpt lat="45.04492" lon="1.06684">
        <ele>252</ele>
        <time>2017-10-01T08:06:06.000Z</time>
      </trkpt>
      <trkpt lat="45.04492" lon="1.06684">
        <ele>252</ele>
        <time>2017-10-01T08:06:06.000Z</time>
      </trkpt>
      <trkpt lat="45.04492" lon="1.06684">
        <ele>252</ele>
        <time>2017-10-01T08:06:06.000Z</time>
      </trkpt>
      <trkpt lat="45.04492" lon="1.06684">
        <ele>252</ele>
        <time>2017-10-01T08:06:06.000Z</time>
      </trkpt>
      <trkpt lat="45.04492" lon="1.06684">
        <ele>252</ele>
        <time>2017-10-01T08:06:06.000Z</time>
      </trkpt>
      <trkpt lat="45.04492" lon="1.06684">
        <ele>252</ele>
        <time>2017-10-01T08:06:06.000Z</time>
      </trkpt>
      <trkpt lat="45.04492" lon="1.06684">
        <ele>252</ele>
        <time>2017-10-01T08:06:06.000Z</time>
      </trkpt>
      <trkpt lat="45.04492" lon="1.06684">
        <ele>252</ele>
        <time>2017-10-01T08:06:06.000Z</time>
      </trkpt>
      <trkpt lat="45.04492" lon="1.06684">
        <ele>252</ele>
        <time>2017-10-01T08:06:06.000Z</time>
      </trkpt>
      <trkpt lat="45.04492" lon="1.06684">
        <ele>252</ele>
        <time>2017-10-01T08:06:06.000Z</time>
      </trkpt>
      <trkpt lat="45.04492" lon="1.06684">
        <ele>252</ele>
        <time>2017-10-01T08:06:06.000Z</time>
      </trkpt>
      <trkpt lat="45.04492" lon="1.06684">
        <ele>252</ele>
        <time>2017-10-01T08:06:06.000Z</time>
      </trkpt>
      <trkpt lat="45.04492" lon="1.06684">
        <ele>252</ele>
        <time>2017-10-01T08:06:06.000Z</time>
      </trkpt>
      <trkpt lat="45.04492" lon="1.06684">
        <ele>252</ele>
        <time>2017-10-01T08:06:06.000Z</time>
      </trkpt>
      <trkpt lat="45.04492" lon="1.06684">
        <ele>252</ele>
        <time>2017-10-01T08:06:06.000Z</time>
      </trkpt>
      <trkpt lat="45.04492" lon="1.06684">
        <ele>252</ele>
        <time>2017-10-01T08:06:06.000Z</time>
      </trkpt>
      <trkpt lat="45.04492" lon="1.06684">
        <ele>252</ele>
        <time>2017-10-01T08:06:06.000Z</time>
      </trkpt>
      <trkpt lat="45.04492" lon="1.06684">
        <ele>252</ele>
        <time>2017-10-01T08:06:06.000Z</time>
      </trkpt>
      <trkpt lat="45.04492" lon="1.06684">
        <ele>252</ele>
        <time>2017-10-01T08:06:06.000Z</time>
      </trkpt>
      <trkpt lat="45.04492" lon="1.06684">
        <ele>252</ele>
        <time>2017-10-01T08:06:06.000Z</time>
      </trkpt>
      <trkpt lat="45.04492" lon="1.06684">
        <ele>252</ele>
        <time>2017-10-01T08:06:06.000Z</time>
      </trkpt>
      <trkpt lat="45.04492" lon="1.06684">
        <ele>252</ele>
        <time>2017-10-01T08:06:06.000Z</time>
      </trkpt>
      <trkpt lat="45.04492" lon="1.06684">
        <ele>252</ele>
        <time>2017-10-01T08:06:06.000Z</time>
      </trkpt>
      <trkpt lat="45.04492" lon="1.06684">
        <ele>252</ele>
        <time>2017-10-01T08:06:06.000Z</time>
      </trkpt>
      <trkpt lat="45.04492" lon="1.06684">
        <ele>252</ele>
        <time>2017-10-01T08:06:06.000Z</time>
      </trkpt>
      <trkpt lat="45.04492" lon="1.06684">
        <ele>252</ele>
        <time>2017-10-01T08:06:06.000Z</time>
      </trkpt>
      <trkpt lat="45.04492" lon="1.06684">
        <ele>252</ele>
        <time>2017-10-01T08:06:06.000Z</time>
      </trkpt>
      <trkpt lat="45.04492" lon="1.06684">
        <ele>252</ele>
        <time>2017-10-01T08:06:06.000Z</time>
      </trkpt>
      <trkpt lat="45.04492" lon="1.06684">
        <ele>252</ele>
        <time>2017-10-01T08:06:06.000Z</time>
      </trkpt>
      <trkpt lat="45.04492" lon="1.06684">
        <ele>252</ele>
        <time>2017-10-01T08:06:06.000Z</time>
      </trkpt>
      <trkpt lat="45.04492" lon="1.06684">
        <ele>252</ele>
        <time>2017-10-01T08:06:06.000Z</time>
      </trkpt>
      <trkpt lat="45.04492" lon="1.06684">
        <ele>252</ele>
        <time>2017-10-01T08:06:06.000Z</time>
      </trkpt>
      <trkpt lat="45.04492" lon="1.06684">
        <ele>252</ele>
        <time>2017-10-01T08:06:06.000Z</time>
      </trkpt>
      <trkpt lat="45.04492" lon="1.06684">
        <ele>252</ele>
        <time>2017-10-01T08:06:06.000Z</time>
      </trkpt>
      <trkpt lat="45.04492" lon="1.06684">
        <ele>252</ele>
        <time>2017-10-01T08:06:06.000Z</time>
      </trkpt>
      <trkpt lat="45.04492" lon="1.06684">
        <ele>252</ele>
        <time>2017-10-01T08:06:06.000Z</time>
      </trkpt>
      <trkpt lat="45.04492" lon="1.06684">
        <ele>252</ele>
        <time>2017-10-01T08:06:06.000Z</time>
      </trkpt>
      <trkpt lat="45.04492" lon="1.06684">
        <ele>252</ele>
        <time>2017-10-01T08:06:06.000Z</time>
      </trkpt>
      <trkpt lat="45.04492" lon="1.06684">
        <ele>252</ele>
        <time>2017-10-01T08:06:06.000Z</time>
      </trkpt>
      <trkpt lat="45.04492" lon="1.06684">
        <ele>252</ele>
        <time>2017-10-01T08:06:06.000Z</time>
      </trkpt>
      <trkpt lat="45.04492" lon="1.06684">
        <ele>252</ele>
        <time>2017-10-01T08:06:06.000Z</time>
      </trkpt>
      <trkpt lat="45.04492" lon="1.06684">
        <ele>252</ele>
        <time>2017-10-01T08:06:06.000Z</time>
      </trkpt>
      <trkpt lat="45.04492" lon="1.06684">
        <ele>252</ele>
        <time>2017-10-01T08:06:06.000Z</time>
      </trkpt>
      <trkpt lat="45.04492" lon="1.06684">
        <ele>252</ele>
        <time>2017-10-01T08:06:06.000Z</time>
      </trkpt>
      <trkpt lat="45.04492" lon="1.06684">
        <ele>252</ele>
        <time>2017-10-01T08:06:06.000Z</time>
      </trkpt>
      <trkpt lat="45.04492" lon="1.06684">
        <ele>252</ele>
        <time>2017-10-01T08:06:06.000Z</time>
      </trkpt>
      <trkpt lat="45.04492" lon="1.06684">
        <ele>252</ele>
        <time>2017-10-01T08:06:06.000Z</time>
      </trkpt>
      <trkpt lat="45.04492" lon="1.06684">
        <ele>252</ele>
        <time>2017-10-01T08:06:06.000Z</time>
      </trkpt>
      <trkpt lat="45.04492" lon="1.06684">
        <ele>252</ele>
        <time>2017-10-01T08:06:06.000Z</time>
      </trkpt>
      <trkpt lat="45.04492" lon="1.06684">
        <ele>252</ele>
        <time>2017-10-01T08:06:06.000Z</time>
      </trkpt>
      <trkpt lat="45.04492" lon="1.06684">
        <ele>252</ele>
        <time>2017-10-01T08:06:06.000Z</time>
      </trkpt>
      <trkpt lat="45.04492" lon="1.06684">
        <ele>252</ele>
        <time>2017-10-01T08:06:06.000Z</time>
      </trkpt>
      <trkpt lat="45.04492" lon="1.06684">
        <ele>252</ele>
        <time>2017-10-01T08:06:06.000Z</time>
      </trkpt>
      <trkpt lat="45.04492" lon="1.06684">
        <ele>252</ele>
        <time>2017-10-01T08:06:06.000Z</time>
      </trkpt>
      <trkpt lat="45.04492" lon="1.06684">
        <ele>252</ele>
        <time>2017-10-01T08:06:06.000Z</time>
      </trkpt>
      <trkpt lat="45.04492" lon="1.06684">
        <ele>252</ele>
        <time>2017-10-01T08:06:06.000Z</time>
      </trkpt>
      <trkpt lat="45.04492" lon="1.06684">
        <ele>252</ele>
        <time>2017-10-01T08:06:06.000Z</time>
      </trkpt>
      <trkpt lat="45.04492" lon="1.06684">
        <ele>252</ele>
        <time>2017-10-01T08:06:06.000Z</time>
      </trkpt>
      <trkpt lat="45.04492" lon="1.06684">
        <ele>252</ele>
        <time>2017-10-01T08:06:06.000Z</time>
      </trkpt>
      <trkpt lat="45.04492" lon="1.06684">
        <ele>252</ele>
        <time>2017-10-01T08:06:06.000Z</time>
      </trkpt>
      <trkpt lat="45.04492" lon="1.06684">
        <ele>252</ele>
        <time>2017-10-01T08:06:06.000Z</time>
      </trkpt>
      <trkpt lat="45.04492" lon="1.06684">
        <ele>252</ele>
        <time>2017-10-01T08:06:06.000Z</time>
      </trkpt>
      <trkpt lat="45.04492" lon="1.06684">
        <ele>252</ele>
        <time>2017-10-01T08:06:06.000Z</time>
      </trkpt>
      <trkpt lat="45.04492" lon="1.06684">
        <ele>252</ele>
        <time>2017-10-01T08:06:06.000Z</time>
      </trkpt>
      <trkpt lat="45.04492" lon="1.06684">
        <ele>252</ele>
        <time>2017-10-01T08:06:06.000Z</time>
      </trkpt>
      <trkpt lat="45.04492" lon="1.06684">
        <ele>252</ele>
        <time>2017-10-01T08:06:06.000Z</time>
      </trkpt>
      <trkpt lat="45.04492" lon="1.06684">
        <ele>252</ele>
        <time>2017-10-01T08:06:06.000Z</time>
      </trkpt>
      <trkpt lat="45.04492" lon="1.06684">
        <ele>252</ele>
        <time>2017-10-01T08:06:06.000Z</time>
      </trkpt>
      <trkpt lat="45.04492" lon="1.06684">
        <ele>252</ele>
        <time>2017-10-01T08:06:06.000Z</time>
      </trkpt>
      <trkpt lat="45.04492" lon="1.06684">
        <ele>252</ele>
        <time>2017-10-01T08:06:06.000Z</time>
      </trkpt>
      <trkpt lat="45.04491" lon="1.06684">
        <ele>252</ele>
        <time>2017-10-01T08:06:07.000Z</time>
      </trkpt>
      <trkpt lat="45.04491" lon="1.06684">
        <ele>252</ele>
        <time>2017-10-01T08:06:07.000Z</time>
      </trkpt>
      <trkpt lat="45.04491" lon="1.06684">
        <ele>252</ele>
        <time>2017-10-01T08:06:07.000Z</time>
      </trkpt>
      <trkpt lat="45.04491" lon="1.06684">
        <ele>252</ele>
        <time>2017-10-01T08:06:07.000Z</time>
      </trkpt>
      <trkpt lat="45.04491" lon="1.06684">
        <ele>252</ele>
        <time>2017-10-01T08:06:07.000Z</time>
      </trkpt>
      <trkpt lat="45.04491" lon="1.06684">
        <ele>252</ele>
        <time>2017-10-01T08:06:07.000Z</time>
      </trkpt>
      <trkpt lat="45.04492" lon="1.06684">
        <ele>252</ele>
        <time>2017-10-01T08:06:06.000Z</time>
      </trkpt>
      <trkpt lat="45.04492" lon="1.06684">
        <ele>252</ele>
        <time>2017-10-01T08:06:06.000Z</time>
      </trkpt>
      <trkpt lat="45.04492" lon="1.06684">
        <ele>252</ele>
        <time>2017-10-01T08:05:49.000Z</time>
      </trkpt>
      <trkpt lat="45.04492" lon="1.06684">
        <ele>252</ele>
        <time>2017-10-01T08:05:49.000Z</time>
      </trkpt>
      <trkpt lat="45.04492" lon="1.06684">
        <ele>252</ele>
        <time>2017-10-01T08:06:06.000Z</time>
      </trkpt>
      <trkpt lat="45.04492" lon="1.06684">
        <ele>252</ele>
        <time>2017-10-01T08:06:06.000Z</time>
      </trkpt>
      <trkpt lat="45.04492" lon="1.06684">
        <ele>252</ele>
        <time>2017-10-01T08:06:06.000Z</time>
      </trkpt>
      <trkpt lat="45.04492" lon="1.06684">
        <ele>252</ele>
        <time>2017-10-01T08:06:06.000Z</time>
      </trkpt>
      <trkpt lat="45.04492" lon="1.06684">
        <ele>252</ele>
        <time>2017-10-01T08:06:06.000Z</time>
      </trkpt>
      <trkpt lat="45.04492" lon="1.06684">
        <ele>252</ele>
        <time>2017-10-01T08:06:06.000Z</time>
      </trkpt>
      <trkpt lat="45.04492" lon="1.06684">
        <ele>252</ele>
        <time>2017-10-01T08:06:06.000Z</time>
      </trkpt>
      <trkpt lat="45.04492" lon="1.06684">
        <ele>252</ele>
        <time>2017-10-01T08:06:06.000Z</time>
      </trkpt>
      <trkpt lat="45.04492" lon="1.06684">
        <ele>252</ele>
        <time>2017-10-01T08:06:06.000Z</time>
      </trkpt>
      <trkpt lat="45.04492" lon="1.06684">
        <ele>252</ele>
        <time>2017-10-01T08:06:06.000Z</time>
      </trkpt>
      <trkpt lat="45.04492" lon="1.06684">
        <ele>252</ele>
        <time>2017-10-01T08:06:06.000Z</time>
      </trkpt>
      <trkpt lat="45.04492" lon="1.06684">
        <ele>252</ele>
        <time>2017-10-01T08:06:06.000Z</time>
      </trkpt>
      <trkpt lat="45.04492" lon="1.06684">
        <ele>252</ele>
        <time>2017-10-01T08:06:06.000Z</time>
      </trkpt>
      <trkpt lat="45.04492" lon="1.06684">
        <ele>252</ele>
        <time>2017-10-01T08:06:06.000Z</time>
      </trkpt>
      <trkpt lat="45.04492" lon="1.06684">
        <ele>252</ele>
        <time>2017-10-01T08:06:06.000Z</time>
      </trkpt>
      <trkpt lat="45.04492" lon="1.06684">
        <ele>252</ele>
        <time>2017-10-01T08:06:06.000Z</time>
      </trkpt>
      <trkpt lat="45.04492" lon="1.06684">
        <ele>252</ele>
        <time>2017-10-01T08:06:06.000Z</time>
      </trkpt>
      <trkpt lat="45.04491" lon="1.06684">
        <ele>252</ele>
        <time>2017-10-01T08:06:07.000Z</time>
      </trkpt>
      <trkpt lat="45.04489" lon="1.06683">
        <ele>252</ele>
        <time>2017-10-01T08:06:08.000Z</time>
      </trkpt>
      <trkpt lat="45.04488" lon="1.06683">
        <ele>252</ele>
        <time>2017-10-01T08:06:09.000Z</time>
      </trkpt>
      <trkpt lat="45.04488" lon="1.06682">
        <ele>252</ele>
        <time>2017-10-01T08:06:34.000Z</time>
      </trkpt>
      <trkpt lat="45.04488" lon="1.06682">
        <ele>252</ele>
        <time>2017-10-01T08:06:34.000Z</time>
      </trkpt>
      <trkpt lat="45.04488" lon="1.06682">
        <ele>252</ele>
        <time>2017-10-01T08:06:34.000Z</time>
      </trkpt>
      <trkpt lat="45.04488" lon="1.06682">
        <ele>252</ele>
        <time>2017-10-01T08:06:34.000Z</time>
      </trkpt>
      <trkpt lat="45.04488" lon="1.06682">
        <ele>252</ele>
        <time>2017-10-01T08:06:34.000Z</time>
      </trkpt>
      <trkpt lat="45.04488" lon="1.06682">
        <ele>252</ele>
        <time>2017-10-01T08:06:34.000Z</time>
      </trkpt>
      <trkpt lat="45.04488" lon="1.06682">
        <ele>252</ele>
        <time>2017-10-01T08:06:34.000Z</time>
      </trkpt>
      <trkpt lat="45.04488" lon="1.06682">
        <ele>252</ele>
        <time>2017-10-01T08:06:34.000Z</time>
      </trkpt>
      <trkpt lat="45.04488" lon="1.06682">
        <ele>252</ele>
        <time>2017-10-01T08:06:34.000Z</time>
      </trkpt>
      <trkpt lat="45.04488" lon="1.06682">
        <ele>252</ele>
        <time>2017-10-01T08:06:34.000Z</time>
      </trkpt>
      <trkpt lat="45.04488" lon="1.06682">
        <ele>252</ele>
        <time>2017-10-01T08:06:34.000Z</time>
      </trkpt>
      <trkpt lat="45.04488" lon="1.06682">
        <ele>252</ele>
        <time>2017-10-01T08:06:34.000Z</time>
      </trkpt>
      <trkpt lat="45.04488" lon="1.06682">
        <ele>252</ele>
        <time>2017-10-01T08:06:34.000Z</time>
      </trkpt>
      <trkpt lat="45.04488" lon="1.06682">
        <ele>252</ele>
        <time>2017-10-01T08:06:34.000Z</time>
      </trkpt>
      <trkpt lat="45.04488" lon="1.06682">
        <ele>252</ele>
        <time>2017-10-01T08:06:34.000Z</time>
      </trkpt>
      <trkpt lat="45.04488" lon="1.06682">
        <ele>252</ele>
        <time>2017-10-01T08:06:34.000Z</time>
      </trkpt>
      <trkpt lat="45.04488" lon="1.06682">
        <ele>252</ele>
        <time>2017-10-01T08:06:34.000Z</time>
      </trkpt>
      <trkpt lat="45.04488" lon="1.06682">
        <ele>252</ele>
        <time>2017-10-01T08:06:34.000Z</time>
      </trkpt>
      <trkpt lat="45.04488" lon="1.06682">
        <ele>252</ele>
        <time>2017-10-01T08:06:34.000Z</time>
      </trkpt>
      <trkpt lat="45.04488" lon="1.06682">
        <ele>252</ele>
        <time>2017-10-01T08:06:34.000Z</time>
      </trkpt>
      <trkpt lat="45.04488" lon="1.06682">
        <ele>252</ele>
        <time>2017-10-01T08:06:34.000Z</time>
      </trkpt>
      <trkpt lat="45.04488" lon="1.06682">
        <ele>252</ele>
        <time>2017-10-01T08:06:34.000Z</time>
      </trkpt>
      <trkpt lat="45.04488" lon="1.06682">
        <ele>252</ele>
        <time>2017-10-01T08:06:34.000Z</time>
      </trkpt>
      <trkpt lat="45.04488" lon="1.06682">
        <ele>252</ele>
        <time>2017-10-01T08:06:34.000Z</time>
      </trkpt>
      <trkpt lat="45.04488" lon="1.06682">
        <ele>252</ele>
        <time>2017-10-01T08:06:34.000Z</time>
      </trkpt>
      <trkpt lat="45.04489" lon="1.06682">
        <ele>252</ele>
        <time>2017-10-01T08:06:36.000Z</time>
      </trkpt>
      <trkpt lat="45.04489" lon="1.06682">
        <ele>252</ele>
        <time>2017-10-01T08:06:36.000Z</time>
      </trkpt>
      <trkpt lat="45.0449" lon="1.06682">
        <ele>252</ele>
        <time>2017-10-01T08:06:38.000Z</time>
      </trkpt>
      <trkpt lat="45.0449" lon="1.06682">
        <ele>252</ele>
        <time>2017-10-01T08:06:38.000Z</time>
      </trkpt>
      <trkpt lat="45.04491" lon="1.06682">
        <ele>252</ele>
        <time>2017-10-01T08:06:43.000Z</time>
      </trkpt>
      <trkpt lat="45.04491" lon="1.06682">
        <ele>252</ele>
        <time>2017-10-01T08:06:43.000Z</time>
      </trkpt>
      <trkpt lat="45.04491" lon="1.06682">
        <ele>252</ele>
        <time>2017-10-01T08:06:43.000Z</time>
      </trkpt>
      <trkpt lat="45.04491" lon="1.06682">
        <ele>252</ele>
        <time>2017-10-01T08:06:43.000Z</time>
      </trkpt>
      <trkpt lat="45.04491" lon="1.06682">
        <ele>252</ele>
        <time>2017-10-01T08:06:43.000Z</time>
      </trkpt>
      <trkpt lat="45.0449" lon="1.06681">
        <ele>252</ele>
        <time>2017-10-01T08:06:44.000Z</time>
      </trkpt>
      <trkpt lat="45.04489" lon="1.06681">
        <ele>252</ele>
        <time>2017-10-01T08:06:46.000Z</time>
      </trkpt>
      <trkpt lat="45.04489" lon="1.06681">
        <ele>252</ele>
        <time>2017-10-01T08:06:46.000Z</time>
      </trkpt>
      <trkpt lat="45.04488" lon="1.06681">
        <ele>252</ele>
        <time>2017-10-01T08:06:50.000Z</time>
      </trkpt>
      <trkpt lat="45.04488" lon="1.06681">
        <ele>252</ele>
        <time>2017-10-01T08:06:50.000Z</time>
      </trkpt>
      <trkpt lat="45.04488" lon="1.06681">
        <ele>252</ele>
        <time>2017-10-01T08:06:50.000Z</time>
      </trkpt>
      <trkpt lat="45.04488" lon="1.06681">
        <ele>252</ele>
        <time>2017-10-01T08:06:50.000Z</time>
      </trkpt>
      <trkpt lat="45.04488" lon="1.0668">
        <ele>252</ele>
        <time>2017-10-01T08:06:51.000Z</time>
      </trkpt>
      <trkpt lat="45.04487" lon="1.06679">
        <ele>252</ele>
        <time>2017-10-01T08:06:52.000Z</time>
      </trkpt>
      <trkpt lat="45.04487" lon="1.06678">
        <ele>252</ele>
        <time>2017-10-01T08:06:53.000Z</time>
      </trkpt>
      <trkpt lat="45.04486" lon="1.06677">
        <ele>252</ele>
        <time>2017-10-01T08:06:54.000Z</time>
      </trkpt>
      <trkpt lat="45.04486" lon="1.06676">
        <ele>252</ele>
        <time>2017-10-01T08:06:55.000Z</time>
      </trkpt>
      <trkpt lat="45.04486" lon="1.06675">
        <ele>252</ele>
        <time>2017-10-01T08:06:56.000Z</time>
      </trkpt>
      <trkpt lat="45.04485" lon="1.06676">
        <ele>252</ele>
        <time>2017-10-01T08:06:59.000Z</time>
      </trkpt>
      <trkpt lat="45.04485" lon="1.06676">
        <ele>252</ele>
        <time>2017-10-01T08:06:59.000Z</time>
      </trkpt>
      <trkpt lat="45.04485" lon="1.06676">
        <ele>252</ele>
        <time>2017-10-01T08:06:59.000Z</time>
      </trkpt>
      <trkpt lat="45.04484" lon="1.06675">
        <ele>252</ele>
        <time>2017-10-01T08:07:00.000Z</time>
      </trkpt>
      <trkpt lat="45.04483" lon="1.06676">
        <ele>252</ele>
        <time>2017-10-01T08:07:01.000Z</time>
      </trkpt>
      <trkpt lat="45.04482" lon="1.06676">
        <ele>252</ele>
        <time>2017-10-01T08:07:02.000Z</time>
      </trkpt>
      <trkpt lat="45.04481" lon="1.06677">
        <ele>252</ele>
        <time>2017-10-01T08:07:03.000Z</time>
      </trkpt>
      <trkpt lat="45.0448" lon="1.06678">
        <ele>252</ele>
        <time>2017-10-01T08:07:04.000Z</time>
      </trkpt>
      <trkpt lat="45.04478" lon="1.06678">
        <ele>252</ele>
        <time>2017-10-01T08:07:05.000Z</time>
      </trkpt>
      <trkpt lat="45.04477" lon="1.06679">
        <ele>252</ele>
        <time>2017-10-01T08:07:06.000Z</time>
      </trkpt>
      <trkpt lat="45.04476" lon="1.06679">
        <ele>252</ele>
        <time>2017-10-01T08:07:07.000Z</time>
      </trkpt>
      <trkpt lat="45.04475" lon="1.06679">
        <ele>252</ele>
        <time>2017-10-01T08:07:08.000Z</time>
      </trkpt>
      <trkpt lat="45.04473" lon="1.06679">
        <ele>252</ele>
        <time>2017-10-01T08:07:09.000Z</time>
      </trkpt>
      <trkpt lat="45.04472" lon="1.0668">
        <ele>252</ele>
        <time>2017-10-01T08:07:10.000Z</time>
      </trkpt>
      <trkpt lat="45.0447" lon="1.0668">
        <ele>252</ele>
        <time>2017-10-01T08:07:11.000Z</time>
      </trkpt>
      <trkpt lat="45.04468" lon="1.06681">
        <ele>252</ele>
        <time>2017-10-01T08:07:12.000Z</time>
      </trkpt>
      <trkpt lat="45.04466" lon="1.06682">
        <ele>252</ele>
        <time>2017-10-01T08:07:13.000Z</time>
      </trkpt>
      <trkpt lat="45.04464" lon="1.06683">
        <ele>252</ele>
        <time>2017-10-01T08:07:14.000Z</time>
      </trkpt>
      <trkpt lat="45.04462" lon="1.06684">
        <ele>252</ele>
        <time>2017-10-01T08:07:15.000Z</time>
      </trkpt>
      <trkpt lat="45.0446" lon="1.06685">
        <ele>252</ele>
        <time>2017-10-01T08:07:16.000Z</time>
      </trkpt>
      <trkpt lat="45.04458" lon="1.06686">
        <ele>252</ele>
        <time>2017-10-01T08:07:17.000Z</time>
      </trkpt>
      <trkpt lat="45.04455" lon="1.06687">
        <ele>252</ele>
        <time>2017-10-01T08:07:18.000Z</time>
      </trkpt>
      <trkpt lat="45.04453" lon="1.06688">
        <ele>252</ele>
        <time>2017-10-01T08:07:19.000Z</time>
      </trkpt>
      <trkpt lat="45.04451" lon="1.06689">
        <ele>252</ele>
        <time>2017-10-01T08:07:20.000Z</time>
      </trkpt>
      <trkpt lat="45.04448" lon="1.06691">
        <ele>252</ele>
        <time>2017-10-01T08:07:21.000Z</time>
      </trkpt>
      <trkpt lat="45.04446" lon="1.06692">
        <ele>252</ele>
        <time>2017-10-01T08:07:22.000Z</time>
      </trkpt>
      <trkpt lat="45.04444" lon="1.06693">
        <ele>252</ele>
        <time>2017-10-01T08:07:23.000Z</time>
      </trkpt>
      <trkpt lat="45.04442" lon="1.06694">
        <ele>252</ele>
        <time>2017-10-01T08:07:24.000Z</time>
      </trkpt>
      <trkpt lat="45.04439" lon="1.06696">
        <ele>252</ele>
        <time>2017-10-01T08:07:25.000Z</time>
      </trkpt>
      <trkpt lat="45.04437" lon="1.06697">
        <ele>252</ele>
        <time>2017-10-01T08:07:26.000Z</time>
      </trkpt>
      <trkpt lat="45.04434" lon="1.06698">
        <ele>252</ele>
        <time>2017-10-01T08:07:27.000Z</time>
      </trkpt>
      <trkpt lat="45.04432" lon="1.067">
        <ele>252</ele>
        <time>2017-10-01T08:07:28.000Z</time>
      </trkpt>
      <trkpt lat="45.04429" lon="1.06701">
        <ele>252</ele>
        <time>2017-10-01T08:07:29.000Z</time>
      </trkpt>
      <trkpt lat="45.04426" lon="1.06702">
        <ele>252</ele>
        <time>2017-10-01T08:07:30.000Z</time>
      </trkpt>
      <trkpt lat="45.04423" lon="1.06704">
        <ele>252</ele>
        <time>2017-10-01T08:07:31.000Z</time>
      </trkpt>
      <trkpt lat="45.0442" lon="1.06705">
        <ele>252</ele>
        <time>2017-10-01T08:07:32.000Z</time>
      </trkpt>
      <trkpt lat="45.04417" lon="1.06706">
        <ele>252</ele>
        <time>2017-10-01T08:07:33.000Z</time>
      </trkpt>
      <trkpt lat="45.04414" lon="1.06708">
        <ele>252</ele>
        <time>2017-10-01T08:07:34.000Z</time>
      </trkpt>
      <trkpt lat="45.0441" lon="1.06709">
        <ele>252</ele>
        <time>2017-10-01T08:07:35.000Z</time>
      </trkpt>
      <trkpt lat="45.04407" lon="1.06711">
        <ele>252</ele>
        <time>2017-10-01T08:07:36.000Z</time>
      </trkpt>
      <trkpt lat="45.04403" lon="1.06712">
        <ele>252</ele>
        <time>2017-10-01T08:07:37.000Z</time>
      </trkpt>
      <trkpt lat="45.04399" lon="1.06714">
        <ele>252</ele>
        <time>2017-10-01T08:07:38.000Z</time>
      </trkpt>
      <trkpt lat="45.04396" lon="1.06715">
        <ele>252</ele>
        <time>2017-10-01T08:07:39.000Z</time>
      </trkpt>
      <trkpt lat="45.04392" lon="1.06717">
        <ele>252</ele>
        <time>2017-10-01T08:07:40.000Z</time>
      </trkpt>
      <trkpt lat="45.04388" lon="1.06718">
        <ele>252</ele>
        <time>2017-10-01T08:07:41.000Z</time>
      </trkpt>
      <trkpt lat="45.04384" lon="1.06719">
        <ele>252</ele>
        <time>2017-10-01T08:07:42.000Z</time>
      </trkpt>
      <trkpt lat="45.04381" lon="1.0672">
        <ele>252</ele>
        <time>2017-10-01T08:07:43.000Z</time>
      </trkpt>
      <trkpt lat="45.04377" lon="1.06721">
        <ele>252</ele>
        <time>2017-10-01T08:07:44.000Z</time>
      </trkpt>
      <trkpt lat="45.04373" lon="1.06722">
        <ele>252</ele>
        <time>2017-10-01T08:07:45.000Z</time>
      </trkpt>
      <trkpt lat="45.0437" lon="1.06722">
        <ele>252</ele>
        <time>2017-10-01T08:07:46.000Z</time>
      </trkpt>
      <trkpt lat="45.04366" lon="1.06723">
        <ele>252</ele>
        <time>2017-10-01T08:07:47.000Z</time>
      </trkpt>
      <trkpt lat="45.04362" lon="1.06723">
        <ele>252</ele>
        <time>2017-10-01T08:07:48.000Z</time>
      </trkpt>
      <trkpt lat="45.04358" lon="1.06723">
        <ele>252</ele>
        <time>2017-10-01T08:07:49.000Z</time>
      </trkpt>
      <trkpt lat="45.04354" lon="1.06724">
        <ele>252</ele>
        <time>2017-10-01T08:07:50.000Z</time>
      </trkpt>
      <trkpt lat="45.04351" lon="1.06723">
        <ele>252</ele>
        <time>2017-10-01T08:07:51.000Z</time>
      </trkpt>
      <trkpt lat="45.04347" lon="1.06723">
        <ele>252</ele>
        <time>2017-10-01T08:07:52.000Z</time>
      </trkpt>
      <trkpt lat="45.04342" lon="1.06723">
        <ele>252</ele>
        <time>2017-10-01T08:07:53.000Z</time>
      </trkpt>
      <trkpt lat="45.04338" lon="1.06722">
        <ele>252</ele>
        <time>2017-10-01T08:07:54.000Z</time>
      </trkpt>
      <trkpt lat="45.04334" lon="1.06722">
        <ele>252</ele>
        <time>2017-10-01T08:07:55.000Z</time>
      </trkpt>
      <trkpt lat="45.0433" lon="1.06721">
        <ele>251</ele>
        <time>2017-10-01T08:07:56.000Z</time>
      </trkpt>
      <trkpt lat="45.04325" lon="1.0672">
        <ele>251</ele>
        <time>2017-10-01T08:07:57.000Z</time>
      </trkpt>
      <trkpt lat="45.04321" lon="1.0672">
        <ele>251</ele>
        <time>2017-10-01T08:07:58.000Z</time>
      </trkpt>
      <trkpt lat="45.04316" lon="1.06719">
        <ele>251</ele>
        <time>2017-10-01T08:07:59.000Z</time>
      </trkpt>
      <trkpt lat="45.04312" lon="1.06718">
        <ele>251</ele>
        <time>2017-10-01T08:08:00.000Z</time>
      </trkpt>
      <trkpt lat="45.04307" lon="1.06717">
        <ele>251</ele>
        <time>2017-10-01T08:08:01.000Z</time>
      </trkpt>
      <trkpt lat="45.04302" lon="1.06716">
        <ele>251</ele>
        <time>2017-10-01T08:08:02.000Z</time>
      </trkpt>
      <trkpt lat="45.04297" lon="1.06715">
        <ele>250</ele>
        <time>2017-10-01T08:08:03.000Z</time>
      </trkpt>
      <trkpt lat="45.04292" lon="1.06714">
        <ele>250</ele>
        <time>2017-10-01T08:08:04.000Z</time>
      </trkpt>
      <trkpt lat="45.04287" lon="1.06713">
        <ele>250</ele>
        <time>2017-10-01T08:08:05.000Z</time>
      </trkpt>
      <trkpt lat="45.04281" lon="1.06712">
        <ele>250</ele>
        <time>2017-10-01T08:08:06.000Z</time>
      </trkpt>
      <trkpt lat="45.04276" lon="1.06711">
        <ele>250</ele>
        <time>2017-10-01T08:08:07.000Z</time>
      </trkpt>
      <trkpt lat="45.04271" lon="1.0671">
        <ele>249</ele>
        <time>2017-10-01T08:08:08.000Z</time>
      </trkpt>
      <trkpt lat="45.04265" lon="1.06709">
        <ele>249</ele>
        <time>2017-10-01T08:08:09.000Z</time>
      </trkpt>
      <trkpt lat="45.04259" lon="1.06709">
        <ele>249</ele>
        <time>2017-10-01T08:08:10.000Z</time>
      </trkpt>
      <trkpt lat="45.04253" lon="1.06708">
        <ele>249</ele>
        <time>2017-10-01T08:08:11.000Z</time>
      </trkpt>
      <trkpt lat="45.04247" lon="1.06708">
        <ele>248</ele>
        <time>2017-10-01T08:08:12.000Z</time>
      </trkpt>
      <trkpt lat="45.04241" lon="1.06708">
        <ele>248</ele>
        <time>2017-10-01T08:08:13.000Z</time>
      </trkpt>
      <trkpt lat="45.04234" lon="1.06708">
        <ele>248</ele>
        <time>2017-10-01T08:08:14.000Z</time>
      </trkpt>
      <trkpt lat="45.04227" lon="1.06708">
        <ele>248</ele>
        <time>2017-10-01T08:08:15.000Z</time>
      </trkpt>
      <trkpt lat="45.0422" lon="1.06709">
        <ele>248</ele>
        <time>2017-10-01T08:08:16.000Z</time>
      </trkpt>
      <trkpt lat="45.04213" lon="1.06709">
        <ele>248</ele>
        <time>2017-10-01T08:08:17.000Z</time>
      </trkpt>
      <trkpt lat="45.04206" lon="1.06711">
        <ele>247</ele>
        <time>2017-10-01T08:08:18.000Z</time>
      </trkpt>
      <trkpt lat="45.04198" lon="1.06713">
        <ele>247</ele>
        <time>2017-10-01T08:08:19.000Z</time>
      </trkpt>
      <trkpt lat="45.04191" lon="1.06716">
        <ele>247</ele>
        <time>2017-10-01T08:08:20.000Z</time>
      </trkpt>
      <trkpt lat="45.04183" lon="1.0672">
        <ele>248</ele>
        <time>2017-10-01T08:08:21.000Z</time>
      </trkpt>
      <trkpt lat="45.04176" lon="1.06725">
        <ele>248</ele>
        <time>2017-10-01T08:08:22.000Z</time>
      </trkpt>
      <trkpt lat="45.04169" lon="1.06731">
        <ele>248</ele>
        <time>2017-10-01T08:08:23.000Z</time>
      </trkpt>
      <trkpt lat="45.04161" lon="1.06737">
        <ele>248</ele>
        <time>2017-10-01T08:08:24.000Z</time>
      </trkpt>
      <trkpt lat="45.04154" lon="1.06743">
        <ele>248</ele>
        <time>2017-10-01T08:08:25.000Z</time>
      </trkpt>
      <trkpt lat="45.04147" lon="1.06748">
        <ele>248</ele>
        <time>2017-10-01T08:08:26.000Z</time>
      </trkpt>
      <trkpt lat="45.04139" lon="1.06752">
        <ele>247</ele>
        <time>2017-10-01T08:08:27.000Z</time>
      </trkpt>
      <trkpt lat="45.04131" lon="1.06756">
        <ele>246</ele>
        <time>2017-10-01T08:08:28.000Z</time>
      </trkpt>
      <trkpt lat="45.04123" lon="1.06759">
        <ele>245</ele>
        <time>2017-10-01T08:08:29.000Z</time>
      </trkpt>
      <trkpt lat="45.04114" lon="1.06761">
        <ele>244</ele>
        <time>2017-10-01T08:08:30.000Z</time>
      </trkpt>
      <trkpt lat="45.04105" lon="1.06762">
        <ele>243</ele>
        <time>2017-10-01T08:08:31.000Z</time>
      </trkpt>
      <trkpt lat="45.04097" lon="1.06763">
        <ele>242</ele>
        <time>2017-10-01T08:08:32.000Z</time>
      </trkpt>
      <trkpt lat="45.04088" lon="1.06764">
        <ele>241</ele>
        <time>2017-10-01T08:08:33.000Z</time>
      </trkpt>
      <trkpt lat="45.0408" lon="1.06765">
        <ele>241</ele>
        <time>2017-10-01T08:08:34.000Z</time>
      </trkpt>
      <trkpt lat="45.04071" lon="1.06766">
        <ele>241</ele>
        <time>2017-10-01T08:08:35.000Z</time>
      </trkpt>
      <trkpt lat="45.04063" lon="1.06767">
        <ele>241</ele>
        <time>2017-10-01T08:08:36.000Z</time>
      </trkpt>
      <trkpt lat="45.04056" lon="1.06768">
        <ele>241</ele>
        <time>2017-10-01T08:08:37.000Z</time>
      </trkpt>
      <trkpt lat="45.04048" lon="1.06769">
        <ele>241</ele>
        <time>2017-10-01T08:08:38.000Z</time>
      </trkpt>
      <trkpt lat="45.04041" lon="1.06771">
        <ele>242</ele>
        <time>2017-10-01T08:08:39.000Z</time>
      </trkpt>
      <trkpt lat="45.04033" lon="1.06772">
        <ele>242</ele>
        <time>2017-10-01T08:08:40.000Z</time>
      </trkpt>
      <trkpt lat="45.04026" lon="1.06773">
        <ele>242</ele>
        <time>2017-10-01T08:08:41.000Z</time>
      </trkpt>
      <trkpt lat="45.04019" lon="1.06775">
        <ele>242</ele>
        <time>2017-10-01T08:08:42.000Z</time>
      </trkpt>
      <trkpt lat="45.04012" lon="1.06776">
        <ele>242</ele>
        <time>2017-10-01T08:08:43.000Z</time>
      </trkpt>
      <trkpt lat="45.04006" lon="1.06777">
        <ele>242</ele>
        <time>2017-10-01T08:08:44.000Z</time>
      </trkpt>
      <trkpt lat="45.03999" lon="1.06778">
        <ele>242</ele>
        <time>2017-10-01T08:08:45.000Z</time>
      </trkpt>
      <trkpt lat="45.03992" lon="1.0678">
        <ele>242</ele>
        <time>2017-10-01T08:08:46.000Z</time>
      </trkpt>
      <trkpt lat="45.03985" lon="1.06781">
        <ele>242</ele>
        <time>2017-10-01T08:08:47.000Z</time>
      </trkpt>
      <trkpt lat="45.03978" lon="1.06782">
        <ele>243</ele>
        <time>2017-10-01T08:08:48.000Z</time>
      </trkpt>
      <trkpt lat="45.03972" lon="1.06783">
        <ele>243</ele>
        <time>2017-10-01T08:08:49.000Z</time>
      </trkpt>
      <trkpt lat="45.03965" lon="1.06784">
        <ele>243</ele>
        <time>2017-10-01T08:08:50.000Z</time>
      </trkpt>
      <trkpt lat="45.03958" lon="1.06785">
        <ele>243</ele>
        <time>2017-10-01T08:08:51.000Z</time>
      </trkpt>
      <trkpt lat="45.03952" lon="1.06785">
        <ele>243</ele>
        <time>2017-10-01T08:08:52.000Z</time>
      </trkpt>
      <trkpt lat="45.03945" lon="1.06785">
        <ele>243</ele>
        <time>2017-10-01T08:08:53.000Z</time>
      </trkpt>
      <trkpt lat="45.03938" lon="1.06784">
        <ele>243</ele>
        <time>2017-10-01T08:08:54.000Z</time>
      </trkpt>
      <trkpt lat="45.03931" lon="1.06784">
        <ele>243</ele>
        <time>2017-10-01T08:08:55.000Z</time>
      </trkpt>
      <trkpt lat="45.03925" lon="1.06783">
        <ele>243</ele>
        <time>2017-10-01T08:08:56.000Z</time>
      </trkpt>
      <trkpt lat="45.03918" lon="1.06782">
        <ele>243</ele>
        <time>2017-10-01T08:08:57.000Z</time>
      </trkpt>
      <trkpt lat="45.03912" lon="1.0678">
        <ele>243</ele>
        <time>2017-10-01T08:08:58.000Z</time>
      </trkpt>
      <trkpt lat="45.03906" lon="1.06779">
        <ele>243</ele>
        <time>2017-10-01T08:08:59.000Z</time>
      </trkpt>
      <trkpt lat="45.03899" lon="1.06777">
        <ele>243</ele>
        <time>2017-10-01T08:09:00.000Z</time>
      </trkpt>
      <trkpt lat="45.03893" lon="1.06776">
        <ele>243</ele>
        <time>2017-10-01T08:09:01.000Z</time>
      </trkpt>
      <trkpt lat="45.03888" lon="1.06774">
        <ele>243</ele>
        <time>2017-10-01T08:09:02.000Z</time>
      </trkpt>
      <trkpt lat="45.03882" lon="1.06773">
        <ele>243</ele>
        <time>2017-10-01T08:09:03.000Z</time>
      </trkpt>
      <trkpt lat="45.03876" lon="1.06771">
        <ele>243</ele>
        <time>2017-10-01T08:09:04.000Z</time>
      </trkpt>
      <trkpt lat="45.03871" lon="1.06769">
        <ele>243</ele>
        <time>2017-10-01T08:09:05.000Z</time>
      </trkpt>
      <trkpt lat="45.03866" lon="1.06768">
        <ele>243</ele>
        <time>2017-10-01T08:09:06.000Z</time>
      </trkpt>
      <trkpt lat="45.0386" lon="1.06766">
        <ele>243</ele>
        <time>2017-10-01T08:09:07.000Z</time>
      </trkpt>
      <trkpt lat="45.03855" lon="1.06765">
        <ele>243</ele>
        <time>2017-10-01T08:09:08.000Z</time>
      </trkpt>
      <trkpt lat="45.0385" lon="1.06764">
        <ele>243</ele>
        <time>2017-10-01T08:09:09.000Z</time>
      </trkpt>
      <trkpt lat="45.03845" lon="1.06763">
        <ele>243</ele>
        <time>2017-10-01T08:09:10.000Z</time>
      </trkpt>
      <trkpt lat="45.0384" lon="1.06762">
        <ele>243</ele>
        <time>2017-10-01T08:09:11.000Z</time>
      </trkpt>
      <trkpt lat="45.03835" lon="1.06761">
        <ele>243</ele>
        <time>2017-10-01T08:09:12.000Z</time>
      </trkpt>
      <trkpt lat="45.0383" lon="1.0676">
        <ele>243</ele>
        <time>2017-10-01T08:09:13.000Z</time>
      </trkpt>
      <trkpt lat="45.03825" lon="1.06759">
        <ele>244</ele>
        <time>2017-10-01T08:09:14.000Z</time>
      </trkpt>
      <trkpt lat="45.03821" lon="1.06759">
        <ele>244</ele>
        <time>2017-10-01T08:09:15.000Z</time>
      </trkpt>
      <trkpt lat="45.03816" lon="1.06758">
        <ele>245</ele>
        <time>2017-10-01T08:09:16.000Z</time>
      </trkpt>
      <trkpt lat="45.03811" lon="1.06758">
        <ele>245</ele>
        <time>2017-10-01T08:09:17.000Z</time>
      </trkpt>
      <trkpt lat="45.03806" lon="1.06758">
        <ele>246</ele>
        <time>2017-10-01T08:09:18.000Z</time>
      </trkpt>
      <trkpt lat="45.038" lon="1.06758">
        <ele>246</ele>
        <time>2017-10-01T08:09:19.000Z</time>
      </trkpt>
      <trkpt lat="45.03795" lon="1.06758">
        <ele>246</ele>
        <time>2017-10-01T08:09:20.000Z</time>
      </trkpt>
      <trkpt lat="45.0379" lon="1.06758">
        <ele>247</ele>
        <time>2017-10-01T08:09:21.000Z</time>
      </trkpt>
      <trkpt lat="45.03785" lon="1.06758">
        <ele>247</ele>
        <time>2017-10-01T08:09:22.000Z</time>
      </trkpt>
      <trkpt lat="45.0378" lon="1.06758">
        <ele>248</ele>
        <time>2017-10-01T08:09:23.000Z</time>
      </trkpt>
      <trkpt lat="45.03775" lon="1.06758">
        <ele>248</ele>
        <time>2017-10-01T08:09:24.000Z</time>
      </trkpt>
      <trkpt lat="45.0377" lon="1.06758">
        <ele>249</ele>
        <time>2017-10-01T08:09:25.000Z</time>
      </trkpt>
      <trkpt lat="45.03765" lon="1.06758">
        <ele>249</ele>
        <time>2017-10-01T08:09:26.000Z</time>
      </trkpt>
      <trkpt lat="45.03761" lon="1.06757">
        <ele>249</ele>
        <time>2017-10-01T08:09:27.000Z</time>
      </trkpt>
      <trkpt lat="45.03756" lon="1.06757">
        <ele>250</ele>
        <time>2017-10-01T08:09:28.000Z</time>
      </trkpt>
      <trkpt lat="45.03751" lon="1.06757">
        <ele>250</ele>
        <time>2017-10-01T08:09:29.000Z</time>
      </trkpt>
      <trkpt lat="45.03747" lon="1.06757">
        <ele>251</ele>
        <time>2017-10-01T08:09:30.000Z</time>
      </trkpt>
      <trkpt lat="45.03742" lon="1.06757">
        <ele>251</ele>
        <time>2017-10-01T08:09:31.000Z</time>
      </trkpt>
      <trkpt lat="45.03738" lon="1.06757">
        <ele>251</ele>
        <time>2017-10-01T08:09:32.000Z</time>
      </trkpt>
      <trkpt lat="45.03733" lon="1.06757">
        <ele>251</ele>
        <time>2017-10-01T08:09:33.000Z</time>
      </trkpt>
      <trkpt lat="45.03729" lon="1.06758">
        <ele>251</ele>
        <time>2017-10-01T08:09:34.000Z</time>
      </trkpt>
      <trkpt lat="45.03725" lon="1.06758">
        <ele>251</ele>
        <time>2017-10-01T08:09:35.000Z</time>
      </trkpt>
      <trkpt lat="45.03721" lon="1.06759">
        <ele>251</ele>
        <time>2017-10-01T08:09:36.000Z</time>
      </trkpt>
      <trkpt lat="45.03717" lon="1.0676">
        <ele>251</ele>
        <time>2017-10-01T08:09:37.000Z</time>
      </trkpt>
      <trkpt lat="45.03712" lon="1.06761">
        <ele>251</ele>
        <time>2017-10-01T08:09:38.000Z</time>
      </trkpt>
      <trkpt lat="45.03708" lon="1.06763">
        <ele>251</ele>
        <time>2017-10-01T08:09:39.000Z</time>
      </trkpt>
      <trkpt lat="45.03704" lon="1.06764">
        <ele>251</ele>
        <time>2017-10-01T08:09:40.000Z</time>
      </trkpt>
      <trkpt lat="45.03701" lon="1.06765">
        <ele>251</ele>
        <time>2017-10-01T08:09:41.000Z</time>
      </trkpt>
      <trkpt lat="45.03697" lon="1.06766">
        <ele>251</ele>
        <time>2017-10-01T08:09:42.000Z</time>
      </trkpt>
      <trkpt lat="45.03693" lon="1.06767">
        <ele>251</ele>
        <time>2017-10-01T08:09:43.000Z</time>
      </trkpt>
      <trkpt lat="45.03689" lon="1.06768">
        <ele>251</ele>
        <time>2017-10-01T08:09:44.000Z</time>
      </trkpt>
      <trkpt lat="45.03686" lon="1.06769">
        <ele>251</ele>
        <time>2017-10-01T08:09:45.000Z</time>
      </trkpt>
      <trkpt lat="45.03682" lon="1.0677">
        <ele>251</ele>
        <time>2017-10-01T08:09:46.000Z</time>
      </trkpt>
      <trkpt lat="45.03679" lon="1.06771">
        <ele>251</ele>
        <time>2017-10-01T08:09:47.000Z</time>
      </trkpt>
      <trkpt lat="45.03676" lon="1.06772">
        <ele>252</ele>
        <time>2017-10-01T08:09:48.000Z</time>
      </trkpt>
      <trkpt lat="45.03673" lon="1.06773">
        <ele>252</ele>
        <time>2017-10-01T08:09:49.000Z</time>
      </trkpt>
      <trkpt lat="45.03669" lon="1.06774">
        <ele>252</ele>
        <time>2017-10-01T08:09:50.000Z</time>
      </trkpt>
      <trkpt lat="45.03667" lon="1.06774">
        <ele>252</ele>
        <time>2017-10-01T08:09:51.000Z</time>
      </trkpt>
      <trkpt lat="45.03664" lon="1.06775">
        <ele>252</ele>
        <time>2017-10-01T08:09:52.000Z</time>
      </trkpt>
      <trkpt lat="45.03661" lon="1.06776">
        <ele>252</ele>
        <time>2017-10-01T08:09:53.000Z</time>
      </trkpt>
      <trkpt lat="45.03658" lon="1.06777">
        <ele>252</ele>
        <time>2017-10-01T08:09:54.000Z</time>
      </trkpt>
      <trkpt lat="45.03656" lon="1.06777">
        <ele>252</ele>
        <time>2017-10-01T08:09:55.000Z</time>
      </trkpt>
      <trkpt lat="45.03653" lon="1.06778">
        <ele>252</ele>
        <time>2017-10-01T08:09:56.000Z</time>
      </trkpt>
      <trkpt lat="45.03651" lon="1.06779">
        <ele>252</ele>
        <time>2017-10-01T08:09:57.000Z</time>
      </trkpt>
      <trkpt lat="45.03648" lon="1.06779">
        <ele>252</ele>
        <time>2017-10-01T08:09:58.000Z</time>
      </trkpt>
      <trkpt lat="45.03646" lon="1.0678">
        <ele>253</ele>
        <time>2017-10-01T08:09:59.000Z</time>
      </trkpt>
      <trkpt lat="45.03643" lon="1.0678">
        <ele>253</ele>
        <time>2017-10-01T08:10:00.000Z</time>
      </trkpt>
      <trkpt lat="45.03641" lon="1.06781">
        <ele>253</ele>
        <time>2017-10-01T08:10:01.000Z</time>
      </trkpt>
      <trkpt lat="45.03638" lon="1.06782">
        <ele>253</ele>
        <time>2017-10-01T08:10:02.000Z</time>
      </trkpt>
      <trkpt lat="45.03635" lon="1.06782">
        <ele>253</ele>
        <time>2017-10-01T08:10:03.000Z</time>
      </trkpt>
      <trkpt lat="45.03633" lon="1.06783">
        <ele>253</ele>
        <time>2017-10-01T08:10:04.000Z</time>
      </trkpt>
      <trkpt lat="45.0363" lon="1.06784">
        <ele>254</ele>
        <time>2017-10-01T08:10:05.000Z</time>
      </trkpt>
      <trkpt lat="45.03628" lon="1.06784">
        <ele>254</ele>
        <time>2017-10-01T08:10:06.000Z</time>
      </trkpt>
      <trkpt lat="45.03626" lon="1.06785">
        <ele>254</ele>
        <time>2017-10-01T08:10:07.000Z</time>
      </trkpt>
      <trkpt lat="45.03623" lon="1.06785">
        <ele>254</ele>
        <time>2017-10-01T08:10:08.000Z</time>
      </trkpt>
      <trkpt lat="45.03621" lon="1.06786">
        <ele>254</ele>
        <time>2017-10-01T08:10:09.000Z</time>
      </trkpt>
      <trkpt lat="45.03618" lon="1.06787">
        <ele>254</ele>
        <time>2017-10-01T08:10:10.000Z</time>
      </trkpt>
      <trkpt lat="45.03616" lon="1.06788">
        <ele>255</ele>
        <time>2017-10-01T08:10:11.000Z</time>
      </trkpt>
      <trkpt lat="45.03613" lon="1.06789">
        <ele>255</ele>
        <time>2017-10-01T08:10:12.000Z</time>
      </trkpt>
      <trkpt lat="45.03611" lon="1.0679">
        <ele>255</ele>
        <time>2017-10-01T08:10:13.000Z</time>
      </trkpt>
      <trkpt lat="45.03608" lon="1.06791">
        <ele>255</ele>
        <time>2017-10-01T08:10:14.000Z</time>
      </trkpt>
      <trkpt lat="45.03605" lon="1.06793">
        <ele>255</ele>
        <time>2017-10-01T08:10:15.000Z</time>
      </trkpt>
      <trkpt lat="45.03602" lon="1.06794">
        <ele>256</ele>
        <time>2017-10-01T08:10:16.000Z</time>
      </trkpt>
      <trkpt lat="45.036" lon="1.06795">
        <ele>256</ele>
        <time>2017-10-01T08:10:17.000Z</time>
      </trkpt>
      <trkpt lat="45.03597" lon="1.06796">
        <ele>256</ele>
        <time>2017-10-01T08:10:18.000Z</time>
      </trkpt>
      <trkpt lat="45.03594" lon="1.06797">
        <ele>257</ele>
        <time>2017-10-01T08:10:19.000Z</time>
      </trkpt>
      <trkpt lat="45.03591" lon="1.06797">
        <ele>257</ele>
        <time>2017-10-01T08:10:20.000Z</time>
      </trkpt>
      <trkpt lat="45.03588" lon="1.06798">
        <ele>257</ele>
        <time>2017-10-01T08:10:21.000Z</time>
      </trkpt>
      <trkpt lat="45.03585" lon="1.06799">
        <ele>257</ele>
        <time>2017-10-01T08:10:22.000Z</time>
      </trkpt>
      <trkpt lat="45.03583" lon="1.068">
        <ele>258</ele>
        <time>2017-10-01T08:10:23.000Z</time>
      </trkpt>
      <trkpt lat="45.0358" lon="1.06801">
        <ele>258</ele>
        <time>2017-10-01T08:10:24.000Z</time>
      </trkpt>
      <trkpt lat="45.03577" lon="1.06801">
        <ele>258</ele>
        <time>2017-10-01T08:10:25.000Z</time>
      </trkpt>
      <trkpt lat="45.03574" lon="1.06802">
        <ele>258</ele>
        <time>2017-10-01T08:10:26.000Z</time>
      </trkpt>
      <trkpt lat="45.03571" lon="1.06803">
        <ele>258</ele>
        <time>2017-10-01T08:10:27.000Z</time>
      </trkpt>
      <trkpt lat="45.03567" lon="1.06804">
        <ele>257</ele>
        <time>2017-10-01T08:10:28.000Z</time>
      </trkpt>
      <trkpt lat="45.03564" lon="1.06806">
        <ele>257</ele>
        <time>2017-10-01T08:10:29.000Z</time>
      </trkpt>
      <trkpt lat="45.03561" lon="1.06807">
        <ele>257</ele>
        <time>2017-10-01T08:10:30.000Z</time>
      </trkpt>
      <trkpt lat="45.03558" lon="1.06808">
        <ele>257</ele>
        <time>2017-10-01T08:10:31.000Z</time>
      </trkpt>
      <trkpt lat="45.03554" lon="1.0681">
        <ele>257</ele>
        <time>2017-10-01T08:10:32.000Z</time>
      </trkpt>
      <trkpt lat="45.03551" lon="1.06811">
        <ele>257</ele>
        <time>2017-10-01T08:10:33.000Z</time>
      </trkpt>
      <trkpt lat="45.03547" lon="1.06813">
        <ele>257</ele>
        <time>2017-10-01T08:10:34.000Z</time>
      </trkpt>
      <trkpt lat="45.03543" lon="1.06815">
        <ele>257</ele>
        <time>2017-10-01T08:10:35.000Z</time>
      </trkpt>
      <trkpt lat="45.03538" lon="1.06817">
        <ele>257</ele>
        <time>2017-10-01T08:10:36.000Z</time>
      </trkpt>
      <trkpt lat="45.03533" lon="1.06819">
        <ele>257</ele>
        <time>2017-10-01T08:10:37.000Z</time>
      </trkpt>
      <trkpt lat="45.03528" lon="1.06821">
        <ele>257</ele>
        <time>2017-10-01T08:10:38.000Z</time>
      </trkpt>
      <trkpt lat="45.03523" lon="1.06823">
        <ele>257</ele>
        <time>2017-10-01T08:10:39.000Z</time>
      </trkpt>
      <trkpt lat="45.03517" lon="1.06825">
        <ele>257</ele>
        <time>2017-10-01T08:10:40.000Z</time>
      </trkpt>
      <trkpt lat="45.0351" lon="1.06827">
        <ele>257</ele>
        <time>2017-10-01T08:10:41.000Z</time>
      </trkpt>
      <trkpt lat="45.03503" lon="1.06829">
        <ele>257</ele>
        <time>2017-10-01T08:10:42.000Z</time>
      </trkpt>
      <trkpt lat="45.03496" lon="1.06831">
        <ele>257</ele>
        <time>2017-10-01T08:10:43.000Z</time>
      </trkpt>
      <trkpt lat="45.03489" lon="1.06834">
        <ele>257</ele>
        <time>2017-10-01T08:10:44.000Z</time>
      </trkpt>
      <trkpt lat="45.03481" lon="1.06837">
        <ele>256</ele>
        <time>2017-10-01T08:10:45.000Z</time>
      </trkpt>
      <trkpt lat="45.03474" lon="1.0684">
        <ele>255</ele>
        <time>2017-10-01T08:10:46.000Z</time>
      </trkpt>
      <trkpt lat="45.03466" lon="1.06843">
        <ele>254</ele>
        <time>2017-10-01T08:10:47.000Z</time>
      </trkpt>
      <trkpt lat="45.03459" lon="1.06847">
        <ele>253</ele>
        <time>2017-10-01T08:10:48.000Z</time>
      </trkpt>
      <trkpt lat="45.03451" lon="1.06851">
        <ele>252</ele>
        <time>2017-10-01T08:10:49.000Z</time>
      </trkpt>
      <trkpt lat="45.03444" lon="1.06855">
        <ele>251</ele>
        <time>2017-10-01T08:10:50.000Z</time>
      </trkpt>
      <trkpt lat="45.03437" lon="1.06859">
        <ele>251</ele>
        <time>2017-10-01T08:10:51.000Z</time>
      </trkpt>
      <trkpt lat="45.03429" lon="1.06862">
        <ele>250</ele>
        <time>2017-10-01T08:10:52.000Z</time>
      </trkpt>
      <trkpt lat="45.03422" lon="1.06866">
        <ele>249</ele>
        <time>2017-10-01T08:10:53.000Z</time>
      </trkpt>
      <trkpt lat="45.03415" lon="1.06869">
        <ele>249</ele>
        <time>2017-10-01T08:10:54.000Z</time>
      </trkpt>
      <trkpt lat="45.03408" lon="1.06873">
        <ele>248</ele>
        <time>2017-10-01T08:10:55.000Z</time>
      </trkpt>
      <trkpt lat="45.034" lon="1.06879">
        <ele>248</ele>
        <time>2017-10-01T08:10:56.000Z</time>
      </trkpt>
      <trkpt lat="45.03393" lon="1.06885">
        <ele>247</ele>
        <time>2017-10-01T08:10:57.000Z</time>
      </trkpt>
      <trkpt lat="45.03385" lon="1.06892">
        <ele>247</ele>
        <time>2017-10-01T08:10:58.000Z</time>
      </trkpt>
      <trkpt lat="45.03378" lon="1.06898">
        <ele>247</ele>
        <time>2017-10-01T08:10:59.000Z</time>
      </trkpt>
      <trkpt lat="45.03372" lon="1.06905">
        <ele>246</ele>
        <time>2017-10-01T08:11:00.000Z</time>
      </trkpt>
      <trkpt lat="45.03366" lon="1.06913">
        <ele>246</ele>
        <time>2017-10-01T08:11:01.000Z</time>
      </trkpt>
      <trkpt lat="45.03361" lon="1.06922">
        <ele>246</ele>
        <time>2017-10-01T08:11:02.000Z</time>
      </trkpt>
      <trkpt lat="45.03358" lon="1.06933">
        <ele>245</ele>
        <time>2017-10-01T08:11:03.000Z</time>
      </trkpt>
      <trkpt lat="45.03354" lon="1.06944">
        <ele>245</ele>
        <time>2017-10-01T08:11:04.000Z</time>
      </trkpt>
      <trkpt lat="45.03349" lon="1.06955">
        <ele>245</ele>
        <time>2017-10-01T08:11:05.000Z</time>
      </trkpt>
      <trkpt lat="45.03344" lon="1.06967">
        <ele>245</ele>
        <time>2017-10-01T08:11:06.000Z</time>
      </trkpt>
      <trkpt lat="45.03339" lon="1.06979">
        <ele>245</ele>
        <time>2017-10-01T08:11:07.000Z</time>
      </trkpt>
      <trkpt lat="45.03335" lon="1.06992">
        <ele>245</ele>
        <time>2017-10-01T08:11:08.000Z</time>
      </trkpt>
      <trkpt lat="45.03331" lon="1.07003">
        <ele>245</ele>
        <time>2017-10-01T08:11:09.000Z</time>
      </trkpt>
      <trkpt lat="45.03326" lon="1.07014">
        <ele>243</ele>
        <time>2017-10-01T08:11:10.000Z</time>
      </trkpt>
      <trkpt lat="45.03322" lon="1.07022">
        <ele>242</ele>
        <time>2017-10-01T08:11:11.000Z</time>
      </trkpt>
      <trkpt lat="45.03317" lon="1.07029">
        <ele>240</ele>
        <time>2017-10-01T08:11:12.000Z</time>
      </trkpt>
      <trkpt lat="45.03311" lon="1.07036">
        <ele>239</ele>
        <time>2017-10-01T08:11:13.000Z</time>
      </trkpt>
      <trkpt lat="45.03306" lon="1.07042">
        <ele>238</ele>
        <time>2017-10-01T08:11:14.000Z</time>
      </trkpt>
      <trkpt lat="45.03301" lon="1.07048">
        <ele>237</ele>
        <time>2017-10-01T08:11:15.000Z</time>
      </trkpt>
      <trkpt lat="45.03296" lon="1.07056">
        <ele>236</ele>
        <time>2017-10-01T08:11:16.000Z</time>
      </trkpt>
      <trkpt lat="45.03291" lon="1.07064">
        <ele>235</ele>
        <time>2017-10-01T08:11:17.000Z</time>
      </trkpt>
      <trkpt lat="45.03286" lon="1.07075">
        <ele>234</ele>
        <time>2017-10-01T08:11:18.000Z</time>
      </trkpt>
      <trkpt lat="45.03282" lon="1.07086">
        <ele>233</ele>
        <time>2017-10-01T08:11:19.000Z</time>
      </trkpt>
      <trkpt lat="45.03277" lon="1.07097">
        <ele>232</ele>
        <time>2017-10-01T08:11:20.000Z</time>
      </trkpt>
      <trkpt lat="45.03273" lon="1.07109">
        <ele>232</ele>
        <time>2017-10-01T08:11:21.000Z</time>
      </trkpt>
      <trkpt lat="45.03269" lon="1.07121">
        <ele>231</ele>
        <time>2017-10-01T08:11:22.000Z</time>
      </trkpt>
      <trkpt lat="45.03264" lon="1.07133">
        <ele>231</ele>
        <time>2017-10-01T08:11:23.000Z</time>
      </trkpt>
      <trkpt lat="45.0326" lon="1.07144">
        <ele>231</ele>
        <time>2017-10-01T08:11:24.000Z</time>
      </trkpt>
      <trkpt lat="45.03255" lon="1.07154">
        <ele>231</ele>
        <time>2017-10-01T08:11:25.000Z</time>
      </trkpt>
      <trkpt lat="45.03251" lon="1.07165">
        <ele>231</ele>
        <time>2017-10-01T08:11:26.000Z</time>
      </trkpt>
      <trkpt lat="45.03246" lon="1.07175">
        <ele>231</ele>
        <time>2017-10-01T08:11:27.000Z</time>
      </trkpt>
      <trkpt lat="45.03242" lon="1.07184">
        <ele>231</ele>
        <time>2017-10-01T08:11:28.000Z</time>
      </trkpt>
      <trkpt lat="45.03238" lon="1.07194">
        <ele>230</ele>
        <time>2017-10-01T08:11:29.000Z</time>
      </trkpt>
      <trkpt lat="45.03233" lon="1.07204">
        <ele>230</ele>
        <time>2017-10-01T08:11:30.000Z</time>
      </trkpt>
      <trkpt lat="45.03229" lon="1.07213">
        <ele>230</ele>
        <time>2017-10-01T08:11:31.000Z</time>
      </trkpt>
      <trkpt lat="45.03225" lon="1.07222">
        <ele>229</ele>
        <time>2017-10-01T08:11:32.000Z</time>
      </trkpt>
      <trkpt lat="45.03221" lon="1.07232">
        <ele>229</ele>
        <time>2017-10-01T08:11:33.000Z</time>
      </trkpt>
      <trkpt lat="45.03217" lon="1.07241">
        <ele>228</ele>
        <time>2017-10-01T08:11:34.000Z</time>
      </trkpt>
      <trkpt lat="45.03214" lon="1.07251">
        <ele>228</ele>
        <time>2017-10-01T08:11:35.000Z</time>
      </trkpt>
      <trkpt lat="45.0321" lon="1.0726">
        <ele>227</ele>
        <time>2017-10-01T08:11:36.000Z</time>
      </trkpt>
      <trkpt lat="45.03206" lon="1.0727">
        <ele>226</ele>
        <time>2017-10-01T08:11:37.000Z</time>
      </trkpt>
      <trkpt lat="45.03202" lon="1.0728">
        <ele>226</ele>
        <time>2017-10-01T08:11:38.000Z</time>
      </trkpt>
      <trkpt lat="45.03198" lon="1.0729">
        <ele>225</ele>
        <time>2017-10-01T08:11:39.000Z</time>
      </trkpt>
      <trkpt lat="45.03194" lon="1.07301">
        <ele>224</ele>
        <time>2017-10-01T08:11:40.000Z</time>
      </trkpt>
      <trkpt lat="45.03189" lon="1.07312">
        <ele>223</ele>
        <time>2017-10-01T08:11:41.000Z</time>
      </trkpt>
      <trkpt lat="45.03184" lon="1.07323">
        <ele>222</ele>
        <time>2017-10-01T08:11:42.000Z</time>
      </trkpt>
      <trkpt lat="45.03178" lon="1.07335">
        <ele>221</ele>
        <time>2017-10-01T08:11:43.000Z</time>
      </trkpt>
      <trkpt lat="45.03172" lon="1.07346">
        <ele>221</ele>
        <time>2017-10-01T08:11:44.000Z</time>
      </trkpt>
      <trkpt lat="45.03166" lon="1.07357">
        <ele>221</ele>
        <time>2017-10-01T08:11:45.000Z</time>
      </trkpt>
      <trkpt lat="45.03161" lon="1.07368">
        <ele>220</ele>
        <time>2017-10-01T08:11:46.000Z</time>
      </trkpt>
      <trkpt lat="45.03157" lon="1.07378">
        <ele>220</ele>
        <time>2017-10-01T08:11:47.000Z</time>
      </trkpt>
      <trkpt lat="45.03154" lon="1.07387">
        <ele>220</ele>
        <time>2017-10-01T08:11:48.000Z</time>
      </trkpt>
      <trkpt lat="45.03151" lon="1.07396">
        <ele>220</ele>
        <time>2017-10-01T08:11:49.000Z</time>
      </trkpt>
      <trkpt lat="45.03148" lon="1.07404">
        <ele>219</ele>
        <time>2017-10-01T08:11:50.000Z</time>
      </trkpt>
      <trkpt lat="45.03144" lon="1.07413">
        <ele>219</ele>
        <time>2017-10-01T08:11:51.000Z</time>
      </trkpt>
      <trkpt lat="45.0314" lon="1.0742">
        <ele>219</ele>
        <time>2017-10-01T08:11:52.000Z</time>
      </trkpt>
      <trkpt lat="45.03136" lon="1.07428">
        <ele>219</ele>
        <time>2017-10-01T08:11:53.000Z</time>
      </trkpt>
      <trkpt lat="45.03131" lon="1.07435">
        <ele>218</ele>
        <time>2017-10-01T08:11:54.000Z</time>
      </trkpt>
      <trkpt lat="45.03127" lon="1.07443">
        <ele>218</ele>
        <time>2017-10-01T08:11:55.000Z</time>
      </trkpt>
      <trkpt lat="45.03122" lon="1.0745">
        <ele>218</ele>
        <time>2017-10-01T08:11:56.000Z</time>
      </trkpt>
      <trkpt lat="45.03118" lon="1.07458">
        <ele>218</ele>
        <time>2017-10-01T08:11:57.000Z</time>
      </trkpt>
      <trkpt lat="45.03113" lon="1.07467">
        <ele>218</ele>
        <time>2017-10-01T08:11:58.000Z</time>
      </trkpt>
      <trkpt lat="45.03109" lon="1.07475">
        <ele>218</ele>
        <time>2017-10-01T08:11:59.000Z</time>
      </trkpt>
      <trkpt lat="45.03104" lon="1.07484">
        <ele>218</ele>
        <time>2017-10-01T08:12:00.000Z</time>
      </trkpt>
      <trkpt lat="45.031" lon="1.07493">
        <ele>218</ele>
        <time>2017-10-01T08:12:01.000Z</time>
      </trkpt>
      <trkpt lat="45.03095" lon="1.07501">
        <ele>219</ele>
        <time>2017-10-01T08:12:02.000Z</time>
      </trkpt>
      <trkpt lat="45.0309" lon="1.07509">
        <ele>219</ele>
        <time>2017-10-01T08:12:03.000Z</time>
      </trkpt>
      <trkpt lat="45.03085" lon="1.07517">
        <ele>219</ele>
        <time>2017-10-01T08:12:04.000Z</time>
      </trkpt>
      <trkpt lat="45.0308" lon="1.07525">
        <ele>219</ele>
        <time>2017-10-01T08:12:05.000Z</time>
      </trkpt>
      <trkpt lat="45.03076" lon="1.07532">
        <ele>219</ele>
        <time>2017-10-01T08:12:06.000Z</time>
      </trkpt>
      <trkpt lat="45.03072" lon="1.0754">
        <ele>219</ele>
        <time>2017-10-01T08:12:07.000Z</time>
      </trkpt>
      <trkpt lat="45.03067" lon="1.07548">
        <ele>219</ele>
        <time>2017-10-01T08:12:08.000Z</time>
      </trkpt>
      <trkpt lat="45.03063" lon="1.07556">
        <ele>220</ele>
        <time>2017-10-01T08:12:09.000Z</time>
      </trkpt>
      <trkpt lat="45.03059" lon="1.07563">
        <ele>220</ele>
        <time>2017-10-01T08:12:10.000Z</time>
      </trkpt>
      <trkpt lat="45.03055" lon="1.0757">
        <ele>220</ele>
        <time>2017-10-01T08:12:11.000Z</time>
      </trkpt>
      <trkpt lat="45.03051" lon="1.07577">
        <ele>221</ele>
        <time>2017-10-01T08:12:12.000Z</time>
      </trkpt>
      <trkpt lat="45.03047" lon="1.07583">
        <ele>221</ele>
        <time>2017-10-01T08:12:13.000Z</time>
      </trkpt>
      <trkpt lat="45.03042" lon="1.07589">
        <ele>222</ele>
        <time>2017-10-01T08:12:14.000Z</time>
      </trkpt>
      <trkpt lat="45.03038" lon="1.07595">
        <ele>223</ele>
        <time>2017-10-01T08:12:15.000Z</time>
      </trkpt>
      <trkpt lat="45.03033" lon="1.07601">
        <ele>223</ele>
        <time>2017-10-01T08:12:16.000Z</time>
      </trkpt>
      <trkpt lat="45.03029" lon="1.07606">
        <ele>224</ele>
        <time>2017-10-01T08:12:17.000Z</time>
      </trkpt>
      <trkpt lat="45.03024" lon="1.07612">
        <ele>224</ele>
        <time>2017-10-01T08:12:18.000Z</time>
      </trkpt>
      <trkpt lat="45.03019" lon="1.07616">
        <ele>225</ele>
        <time>2017-10-01T08:12:19.000Z</time>
      </trkpt>
      <trkpt lat="45.03014" lon="1.07621">
        <ele>225</ele>
        <time>2017-10-01T08:12:20.000Z</time>
      </trkpt>
      <trkpt lat="45.03009" lon="1.07626">
        <ele>226</ele>
        <time>2017-10-01T08:12:21.000Z</time>
      </trkpt>
      <trkpt lat="45.03004" lon="1.0763">
        <ele>226</ele>
        <time>2017-10-01T08:12:22.000Z</time>
      </trkpt>
      <trkpt lat="45.03" lon="1.07634">
        <ele>227</ele>
        <time>2017-10-01T08:12:23.000Z</time>
      </trkpt>
      <trkpt lat="45.02995" lon="1.07639">
        <ele>227</ele>
        <time>2017-10-01T08:12:24.000Z</time>
      </trkpt>
      <trkpt lat="45.0299" lon="1.07643">
        <ele>228</ele>
        <time>2017-10-01T08:12:25.000Z</time>
      </trkpt>
      <trkpt lat="45.02986" lon="1.07647">
        <ele>228</ele>
        <time>2017-10-01T08:12:26.000Z</time>
      </trkpt>
      <trkpt lat="45.02981" lon="1.07651">
        <ele>229</ele>
        <time>2017-10-01T08:12:27.000Z</time>
      </trkpt>
      <trkpt lat="45.02977" lon="1.07655">
        <ele>229</ele>
        <time>2017-10-01T08:12:28.000Z</time>
      </trkpt>
      <trkpt lat="45.02973" lon="1.07659">
        <ele>230</ele>
        <time>2017-10-01T08:12:29.000Z</time>
      </trkpt>
      <trkpt lat="45.02969" lon="1.07662">
        <ele>230</ele>
        <time>2017-10-01T08:12:30.000Z</time>
      </trkpt>
      <trkpt lat="45.02966" lon="1.07666">
        <ele>230</ele>
        <time>2017-10-01T08:12:31.000Z</time>
      </trkpt>
      <trkpt lat="45.02962" lon="1.0767">
        <ele>230</ele>
        <time>2017-10-01T08:12:32.000Z</time>
      </trkpt>
      <trkpt lat="45.02959" lon="1.07674">
        <ele>231</ele>
        <time>2017-10-01T08:12:33.000Z</time>
      </trkpt>
      <trkpt lat="45.02956" lon="1.07677">
        <ele>231</ele>
        <time>2017-10-01T08:12:34.000Z</time>
      </trkpt>
      <trkpt lat="45.02953" lon="1.07681">
        <ele>231</ele>
        <time>2017-10-01T08:12:35.000Z</time>
      </trkpt>
      <trkpt lat="45.0295" lon="1.07684">
        <ele>231</ele>
        <time>2017-10-01T08:12:36.000Z</time>
      </trkpt>
      <trkpt lat="45.02947" lon="1.07687">
        <ele>231</ele>
        <time>2017-10-01T08:12:37.000Z</time>
      </trkpt>
      <trkpt lat="45.02944" lon="1.0769">
        <ele>231</ele>
        <time>2017-10-01T08:12:38.000Z</time>
      </trkpt>
      <trkpt lat="45.02941" lon="1.07693">
        <ele>231</ele>
        <time>2017-10-01T08:12:39.000Z</time>
      </trkpt>
      <trkpt lat="45.02938" lon="1.07697">
        <ele>231</ele>
        <time>2017-10-01T08:12:40.000Z</time>
      </trkpt>
      <trkpt lat="45.02934" lon="1.077">
        <ele>231</ele>
        <time>2017-10-01T08:12:41.000Z</time>
      </trkpt>
      <trkpt lat="45.02931" lon="1.07704">
        <ele>232</ele>
        <time>2017-10-01T08:12:42.000Z</time>
      </trkpt>
      <trkpt lat="45.02928" lon="1.07708">
        <ele>232</ele>
        <time>2017-10-01T08:12:43.000Z</time>
      </trkpt>
      <trkpt lat="45.02925" lon="1.07712">
        <ele>232</ele>
        <time>2017-10-01T08:12:44.000Z</time>
      </trkpt>
      <trkpt lat="45.02922" lon="1.07715">
        <ele>232</ele>
        <time>2017-10-01T08:12:45.000Z</time>
      </trkpt>
      <trkpt lat="45.02918" lon="1.07719">
        <ele>232</ele>
        <time>2017-10-01T08:12:46.000Z</time>
      </trkpt>
      <trkpt lat="45.02915" lon="1.07723">
        <ele>232</ele>
        <time>2017-10-01T08:12:47.000Z</time>
      </trkpt>
      <trkpt lat="45.02912" lon="1.07726">
        <ele>232</ele>
        <time>2017-10-01T08:12:48.000Z</time>
      </trkpt>
      <trkpt lat="45.02909" lon="1.0773">
        <ele>232</ele>
        <time>2017-10-01T08:12:49.000Z</time>
      </trkpt>
      <trkpt lat="45.02906" lon="1.07733">
        <ele>232</ele>
        <time>2017-10-01T08:12:50.000Z</time>
      </trkpt>
      <trkpt lat="45.02903" lon="1.07736">
        <ele>232</ele>
        <time>2017-10-01T08:12:51.000Z</time>
      </trkpt>
      <trkpt lat="45.02899" lon="1.07739">
        <ele>232</ele>
        <time>2017-10-01T08:12:52.000Z</time>
      </trkpt>
      <trkpt lat="45.02896" lon="1.07742">
        <ele>232</ele>
        <time>2017-10-01T08:12:53.000Z</time>
      </trkpt>
      <trkpt lat="45.02892" lon="1.07745">
        <ele>232</ele>
        <time>2017-10-01T08:12:54.000Z</time>
      </trkpt>
      <trkpt lat="45.02888" lon="1.07748">
        <ele>233</ele>
        <time>2017-10-01T08:12:55.000Z</time>
      </trkpt>
      <trkpt lat="45.02885" lon="1.07751">
        <ele>233</ele>
        <time>2017-10-01T08:12:56.000Z</time>
      </trkpt>
      <trkpt lat="45.02881" lon="1.07754">
        <ele>232</ele>
        <time>2017-10-01T08:12:57.000Z</time>
      </trkpt>
      <trkpt lat="45.02878" lon="1.07757">
        <ele>232</ele>
        <time>2017-10-01T08:12:58.000Z</time>
      </trkpt>
      <trkpt lat="45.02874" lon="1.07761">
        <ele>232</ele>
        <time>2017-10-01T08:12:59.000Z</time>
      </trkpt>
      <trkpt lat="45.02871" lon="1.07764">
        <ele>232</ele>
        <time>2017-10-01T08:13:00.000Z</time>
      </trkpt>
      <trkpt lat="45.02868" lon="1.07767">
        <ele>232</ele>
        <time>2017-10-01T08:13:01.000Z</time>
      </trkpt>
      <trkpt lat="45.02865" lon="1.07771">
        <ele>232</ele>
        <time>2017-10-01T08:13:02.000Z</time>
      </trkpt>
      <trkpt lat="45.02862" lon="1.07774">
        <ele>232</ele>
        <time>2017-10-01T08:13:03.000Z</time>
      </trkpt>
      <trkpt lat="45.02859" lon="1.07777">
        <ele>232</ele>
        <time>2017-10-01T08:13:04.000Z</time>
      </trkpt>
      <trkpt lat="45.02856" lon="1.0778">
        <ele>232</ele>
        <time>2017-10-01T08:13:05.000Z</time>
      </trkpt>
      <trkpt lat="45.02853" lon="1.07783">
        <ele>232</ele>
        <time>2017-10-01T08:13:06.000Z</time>
      </trkpt>
      <trkpt lat="45.02849" lon="1.07786">
        <ele>232</ele>
        <time>2017-10-01T08:13:07.000Z</time>
      </trkpt>
      <trkpt lat="45.02846" lon="1.07789">
        <ele>232</ele>
        <time>2017-10-01T08:13:08.000Z</time>
      </trkpt>
      <trkpt lat="45.02842" lon="1.07792">
        <ele>232</ele>
        <time>2017-10-01T08:13:09.000Z</time>
      </trkpt>
      <trkpt lat="45.02839" lon="1.07795">
        <ele>232</ele>
        <time>2017-10-01T08:13:10.000Z</time>
      </trkpt>
      <trkpt lat="45.02835" lon="1.07797">
        <ele>232</ele>
        <time>2017-10-01T08:13:11.000Z</time>
      </trkpt>
      <trkpt lat="45.02832" lon="1.078">
        <ele>233</ele>
        <time>2017-10-01T08:13:12.000Z</time>
      </trkpt>
      <trkpt lat="45.02828" lon="1.07803">
        <ele>232</ele>
        <time>2017-10-01T08:13:13.000Z</time>
      </trkpt>
      <trkpt lat="45.02824" lon="1.07807">
        <ele>232</ele>
        <time>2017-10-01T08:13:14.000Z</time>
      </trkpt>
      <trkpt lat="45.02821" lon="1.0781">
        <ele>232</ele>
        <time>2017-10-01T08:13:15.000Z</time>
      </trkpt>
      <trkpt lat="45.02817" lon="1.07813">
        <ele>232</ele>
        <time>2017-10-01T08:13:16.000Z</time>
      </trkpt>
      <trkpt lat="45.02814" lon="1.07817">
        <ele>232</ele>
        <time>2017-10-01T08:13:17.000Z</time>
      </trkpt>
      <trkpt lat="45.0281" lon="1.07821">
        <ele>233</ele>
        <time>2017-10-01T08:13:18.000Z</time>
      </trkpt>
      <trkpt lat="45.02807" lon="1.07824">
        <ele>233</ele>
        <time>2017-10-01T08:13:19.000Z</time>
      </trkpt>
      <trkpt lat="45.02803" lon="1.07828">
        <ele>233</ele>
        <time>2017-10-01T08:13:20.000Z</time>
      </trkpt>
      <trkpt lat="45.028" lon="1.07832">
        <ele>233</ele>
        <time>2017-10-01T08:13:21.000Z</time>
      </trkpt>
      <trkpt lat="45.02796" lon="1.07836">
        <ele>233</ele>
        <time>2017-10-01T08:13:22.000Z</time>
      </trkpt>
      <trkpt lat="45.02792" lon="1.0784">
        <ele>233</ele>
        <time>2017-10-01T08:13:23.000Z</time>
      </trkpt>
      <trkpt lat="45.02789" lon="1.07843">
        <ele>233</ele>
        <time>2017-10-01T08:13:24.000Z</time>
      </trkpt>
      <trkpt lat="45.02785" lon="1.07847">
        <ele>233</ele>
        <time>2017-10-01T08:13:25.000Z</time>
      </trkpt>
      <trkpt lat="45.02781" lon="1.07851">
        <ele>233</ele>
        <time>2017-10-01T08:13:26.000Z</time>
      </trkpt>
      <trkpt lat="45.02777" lon="1.07854">
        <ele>233</ele>
        <time>2017-10-01T08:13:27.000Z</time>
      </trkpt>
      <trkpt lat="45.02773" lon="1.07858">
        <ele>233</ele>
        <time>2017-10-01T08:13:28.000Z</time>
      </trkpt>
      <trkpt lat="45.0277" lon="1.07862">
        <ele>233</ele>
        <time>2017-10-01T08:13:29.000Z</time>
      </trkpt>
      <trkpt lat="45.02766" lon="1.07865">
        <ele>233</ele>
        <time>2017-10-01T08:13:30.000Z</time>
      </trkpt>
      <trkpt lat="45.02762" lon="1.07869">
        <ele>233</ele>
        <time>2017-10-01T08:13:31.000Z</time>
      </trkpt>
      <trkpt lat="45.02758" lon="1.07873">
        <ele>233</ele>
        <time>2017-10-01T08:13:32.000Z</time>
      </trkpt>
      <trkpt lat="45.02755" lon="1.07876">
        <ele>233</ele>
        <time>2017-10-01T08:13:33.000Z</time>
      </trkpt>
      <trkpt lat="45.02751" lon="1.07879">
        <ele>234</ele>
        <time>2017-10-01T08:13:34.000Z</time>
      </trkpt>
      <trkpt lat="45.02748" lon="1.07883">
        <ele>234</ele>
        <time>2017-10-01T08:13:35.000Z</time>
      </trkpt>
      <trkpt lat="45.02744" lon="1.07886">
        <ele>234</ele>
        <time>2017-10-01T08:13:36.000Z</time>
      </trkpt>
      <trkpt lat="45.02741" lon="1.07889">
        <ele>234</ele>
        <time>2017-10-01T08:13:37.000Z</time>
      </trkpt>
      <trkpt lat="45.02738" lon="1.07892">
        <ele>234</ele>
        <time>2017-10-01T08:13:38.000Z</time>
      </trkpt>
      <trkpt lat="45.02734" lon="1.07895">
        <ele>234</ele>
        <time>2017-10-01T08:13:39.000Z</time>
      </trkpt>
      <trkpt lat="45.02731" lon="1.07897">
        <ele>234</ele>
        <time>2017-10-01T08:13:40.000Z</time>
      </trkpt>
      <trkpt lat="45.02728" lon="1.079">
        <ele>234</ele>
        <time>2017-10-01T08:13:41.000Z</time>
      </trkpt>
      <trkpt lat="45.02725" lon="1.07902">
        <ele>234</ele>
        <time>2017-10-01T08:13:42.000Z</time>
      </trkpt>
      <trkpt lat="45.02722" lon="1.07905">
        <ele>234</ele>
        <time>2017-10-01T08:13:43.000Z</time>
      </trkpt>
      <trkpt lat="45.02719" lon="1.07908">
        <ele>234</ele>
        <time>2017-10-01T08:13:44.000Z</time>
      </trkpt>
      <trkpt lat="45.02716" lon="1.07911">
        <ele>234</ele>
        <time>2017-10-01T08:13:45.000Z</time>
      </trkpt>
      <trkpt lat="45.02713" lon="1.07914">
        <ele>234</ele>
        <time>2017-10-01T08:13:46.000Z</time>
      </trkpt>
      <trkpt lat="45.0271" lon="1.07917">
        <ele>235</ele>
        <time>2017-10-01T08:13:47.000Z</time>
      </trkpt>
      <trkpt lat="45.02706" lon="1.0792">
        <ele>234</ele>
        <time>2017-10-01T08:13:48.000Z</time>
      </trkpt>
      <trkpt lat="45.02703" lon="1.07924">
        <ele>234</ele>
        <time>2017-10-01T08:13:49.000Z</time>
      </trkpt>
      <trkpt lat="45.027" lon="1.07927">
        <ele>234</ele>
        <time>2017-10-01T08:13:50.000Z</time>
      </trkpt>
      <trkpt lat="45.02696" lon="1.07931">
        <ele>234</ele>
        <time>2017-10-01T08:13:51.000Z</time>
      </trkpt>
      <trkpt lat="45.02693" lon="1.07935">
        <ele>234</ele>
        <time>2017-10-01T08:13:52.000Z</time>
      </trkpt>
      <trkpt lat="45.02689" lon="1.07939">
        <ele>234</ele>
        <time>2017-10-01T08:13:53.000Z</time>
      </trkpt>
      <trkpt lat="45.02685" lon="1.07943">
        <ele>234</ele>
        <time>2017-10-01T08:13:54.000Z</time>
      </trkpt>
      <trkpt lat="45.02682" lon="1.07947">
        <ele>234</ele>
        <time>2017-10-01T08:13:55.000Z</time>
      </trkpt>
      <trkpt lat="45.02678" lon="1.07951">
        <ele>234</ele>
        <time>2017-10-01T08:13:56.000Z</time>
      </trkpt>
      <trkpt lat="45.02675" lon="1.07956">
        <ele>233</ele>
        <time>2017-10-01T08:13:57.000Z</time>
      </trkpt>
      <trkpt lat="45.02671" lon="1.0796">
        <ele>233</ele>
        <time>2017-10-01T08:13:58.000Z</time>
      </trkpt>
      <trkpt lat="45.02667" lon="1.07964">
        <ele>233</ele>
        <time>2017-10-01T08:13:59.000Z</time>
      </trkpt>
      <trkpt lat="45.02664" lon="1.07969">
        <ele>233</ele>
        <time>2017-10-01T08:14:00.000Z</time>
      </trkpt>
      <trkpt lat="45.0266" lon="1.07974">
        <ele>233</ele>
        <time>2017-10-01T08:14:01.000Z</time>
      </trkpt>
      <trkpt lat="45.02656" lon="1.07979">
        <ele>232</ele>
        <time>2017-10-01T08:14:02.000Z</time>
      </trkpt>
      <trkpt lat="45.02652" lon="1.07984">
        <ele>232</ele>
        <time>2017-10-01T08:14:03.000Z</time>
      </trkpt>
      <trkpt lat="45.02648" lon="1.07989">
        <ele>231</ele>
        <time>2017-10-01T08:14:04.000Z</time>
      </trkpt>
      <trkpt lat="45.02644" lon="1.07995">
        <ele>231</ele>
        <time>2017-10-01T08:14:05.000Z</time>
      </trkpt>
      <trkpt lat="45.0264" lon="1.07999">
        <ele>231</ele>
        <time>2017-10-01T08:14:06.000Z</time>
      </trkpt>
      <trkpt lat="45.02636" lon="1.08001">
        <ele>230</ele>
        <time>2017-10-01T08:14:07.000Z</time>
      </trkpt>
      <trkpt lat="45.02633" lon="1.08">
        <ele>230</ele>
        <time>2017-10-01T08:14:08.000Z</time>
      </trkpt>
      <trkpt lat="45.0263" lon="1.07997">
        <ele>230</ele>
        <time>2017-10-01T08:14:09.000Z</time>
      </trkpt>
      <trkpt lat="45.02628" lon="1.07992">
        <ele>231</ele>
        <time>2017-10-01T08:14:10.000Z</time>
      </trkpt>
      <trkpt lat="45.02627" lon="1.07988">
        <ele>231</ele>
        <time>2017-10-01T08:14:11.000Z</time>
      </trkpt>
      <trkpt lat="45.02627" lon="1.07983">
        <ele>231</ele>
        <time>2017-10-01T08:14:12.000Z</time>
      </trkpt>
      <trkpt lat="45.02625" lon="1.07979">
        <ele>231</ele>
        <time>2017-10-01T08:14:13.000Z</time>
      </trkpt>
      <trkpt lat="45.02624" lon="1.07974">
        <ele>231</ele>
        <time>2017-10-01T08:14:14.000Z</time>
      </trkpt>
      <trkpt lat="45.02621" lon="1.07969">
        <ele>231</ele>
        <time>2017-10-01T08:14:15.000Z</time>
      </trkpt>
      <trkpt lat="45.02618" lon="1.07965">
        <ele>231</ele>
        <time>2017-10-01T08:14:16.000Z</time>
      </trkpt>
      <trkpt lat="45.02614" lon="1.0796">
        <ele>232</ele>
        <time>2017-10-01T08:14:17.000Z</time>
      </trkpt>
      <trkpt lat="45.02611" lon="1.07957">
        <ele>232</ele>
        <time>2017-10-01T08:14:18.000Z</time>
      </trkpt>
      <trkpt lat="45.02606" lon="1.07953">
        <ele>232</ele>
        <time>2017-10-01T08:14:19.000Z</time>
      </trkpt>
      <trkpt lat="45.02602" lon="1.0795">
        <ele>232</ele>
        <time>2017-10-01T08:14:20.000Z</time>
      </trkpt>
      <trkpt lat="45.02596" lon="1.07947">
        <ele>232</ele>
        <time>2017-10-01T08:14:21.000Z</time>
      </trkpt>
      <trkpt lat="45.02591" lon="1.07944">
        <ele>232</ele>
        <time>2017-10-01T08:14:22.000Z</time>
      </trkpt>
      <trkpt lat="45.02585" lon="1.07942">
        <ele>231</ele>
        <time>2017-10-01T08:14:23.000Z</time>
      </trkpt>
      <trkpt lat="45.02579" lon="1.07939">
        <ele>231</ele>
        <time>2017-10-01T08:14:24.000Z</time>
      </trkpt>
      <trkpt lat="45.02573" lon="1.07936">
        <ele>231</ele>
        <time>2017-10-01T08:14:25.000Z</time>
      </trkpt>
      <trkpt lat="45.02566" lon="1.07934">
        <ele>231</ele>
        <time>2017-10-01T08:14:26.000Z</time>
      </trkpt>
      <trkpt lat="45.0256" lon="1.07931">
        <ele>231</ele>
        <time>2017-10-01T08:14:27.000Z</time>
      </trkpt>
      <trkpt lat="45.02553" lon="1.07929">
        <ele>231</ele>
        <time>2017-10-01T08:14:28.000Z</time>
      </trkpt>
      <trkpt lat="45.02547" lon="1.07926">
        <ele>231</ele>
        <time>2017-10-01T08:14:29.000Z</time>
      </trkpt>
      <trkpt lat="45.0254" lon="1.07924">
        <ele>231</ele>
        <time>2017-10-01T08:14:30.000Z</time>
      </trkpt>
      <trkpt lat="45.02534" lon="1.07921">
        <ele>231</ele>
        <time>2017-10-01T08:14:31.000Z</time>
      </trkpt>
      <trkpt lat="45.02527" lon="1.07919">
        <ele>230</ele>
        <time>2017-10-01T08:14:32.000Z</time>
      </trkpt>
      <trkpt lat="45.02521" lon="1.07916">
        <ele>230</ele>
        <time>2017-10-01T08:14:33.000Z</time>
      </trkpt>
      <trkpt lat="45.02515" lon="1.07913">
        <ele>230</ele>
        <time>2017-10-01T08:14:34.000Z</time>
      </trkpt>
      <trkpt lat="45.02509" lon="1.07911">
        <ele>230</ele>
        <time>2017-10-01T08:14:35.000Z</time>
      </trkpt>
      <trkpt lat="45.02502" lon="1.07908">
        <ele>229</ele>
        <time>2017-10-01T08:14:36.000Z</time>
      </trkpt>
      <trkpt lat="45.02496" lon="1.07906">
        <ele>229</ele>
        <time>2017-10-01T08:14:37.000Z</time>
      </trkpt>
      <trkpt lat="45.0249" lon="1.07903">
        <ele>229</ele>
        <time>2017-10-01T08:14:38.000Z</time>
      </trkpt>
      <trkpt lat="45.02484" lon="1.07901">
        <ele>229</ele>
        <time>2017-10-01T08:14:39.000Z</time>
      </trkpt>
      <trkpt lat="45.02478" lon="1.07898">
        <ele>229</ele>
        <time>2017-10-01T08:14:40.000Z</time>
      </trkpt>
      <trkpt lat="45.02472" lon="1.07896">
        <ele>229</ele>
        <time>2017-10-01T08:14:41.000Z</time>
      </trkpt>
      <trkpt lat="45.02466" lon="1.07894">
        <ele>228</ele>
        <time>2017-10-01T08:14:42.000Z</time>
      </trkpt>
      <trkpt lat="45.02459" lon="1.07891">
        <ele>228</ele>
        <time>2017-10-01T08:14:43.000Z</time>
      </trkpt>
      <trkpt lat="45.02453" lon="1.07889">
        <ele>228</ele>
        <time>2017-10-01T08:14:44.000Z</time>
      </trkpt>
      <trkpt lat="45.02447" lon="1.07887">
        <ele>228</ele>
        <time>2017-10-01T08:14:45.000Z</time>
      </trkpt>
      <trkpt lat="45.02441" lon="1.07885">
        <ele>228</ele>
        <time>2017-10-01T08:14:46.000Z</time>
      </trkpt>
      <trkpt lat="45.02435" lon="1.07883">
        <ele>228</ele>
        <time>2017-10-01T08:14:47.000Z</time>
      </trkpt>
      <trkpt lat="45.02429" lon="1.07881">
        <ele>228</ele>
        <time>2017-10-01T08:14:48.000Z</time>
      </trkpt>
      <trkpt lat="45.02422" lon="1.07879">
        <ele>228</ele>
        <time>2017-10-01T08:14:49.000Z</time>
      </trkpt>
      <trkpt lat="45.02416" lon="1.07877">
        <ele>228</ele>
        <time>2017-10-01T08:14:50.000Z</time>
      </trkpt>
      <trkpt lat="45.0241" lon="1.07874">
        <ele>228</ele>
        <time>2017-10-01T08:14:51.000Z</time>
      </trkpt>
      <trkpt lat="45.02404" lon="1.07872">
        <ele>227</ele>
        <time>2017-10-01T08:14:52.000Z</time>
      </trkpt>
      <trkpt lat="45.02397" lon="1.0787">
        <ele>227</ele>
        <time>2017-10-01T08:14:53.000Z</time>
      </trkpt>
      <trkpt lat="45.02391" lon="1.07868">
        <ele>227</ele>
        <time>2017-10-01T08:14:54.000Z</time>
      </trkpt>
      <trkpt lat="45.02385" lon="1.07866">
        <ele>227</ele>
        <time>2017-10-01T08:14:55.000Z</time>
      </trkpt>
      <trkpt lat="45.02378" lon="1.07864">
        <ele>227</ele>
        <time>2017-10-01T08:14:56.000Z</time>
      </trkpt>
      <trkpt lat="45.02372" lon="1.07861">
        <ele>227</ele>
        <time>2017-10-01T08:14:57.000Z</time>
      </trkpt>
      <trkpt lat="45.02366" lon="1.07859">
        <ele>227</ele>
        <time>2017-10-01T08:14:58.000Z</time>
      </trkpt>
      <trkpt lat="45.0236" lon="1.07856">
        <ele>227</ele>
        <time>2017-10-01T08:14:59.000Z</time>
      </trkpt>
      <trkpt lat="45.02353" lon="1.07853">
        <ele>227</ele>
        <time>2017-10-01T08:15:00.000Z</time>
      </trkpt>
      <trkpt lat="45.02347" lon="1.0785">
        <ele>227</ele>
        <time>2017-10-01T08:15:01.000Z</time>
      </trkpt>
      <trkpt lat="45.02341" lon="1.07847">
        <ele>227</ele>
        <time>2017-10-01T08:15:02.000Z</time>
      </trkpt>
      <trkpt lat="45.02335" lon="1.07843">
        <ele>227</ele>
        <time>2017-10-01T08:15:03.000Z</time>
      </trkpt>
      <trkpt lat="45.02329" lon="1.07839">
        <ele>227</ele>
        <time>2017-10-01T08:15:04.000Z</time>
      </trkpt>
      <trkpt lat="45.02323" lon="1.07835">
        <ele>227</ele>
        <time>2017-10-01T08:15:05.000Z</time>
      </trkpt>
      <trkpt lat="45.02317" lon="1.0783">
        <ele>227</ele>
        <time>2017-10-01T08:15:06.000Z</time>
      </trkpt>
      <trkpt lat="45.02311" lon="1.07825">
        <ele>227</ele>
        <time>2017-10-01T08:15:07.000Z</time>
      </trkpt>
      <trkpt lat="45.02306" lon="1.0782">
        <ele>227</ele>
        <time>2017-10-01T08:15:08.000Z</time>
      </trkpt>
      <trkpt lat="45.023" lon="1.07815">
        <ele>227</ele>
        <time>2017-10-01T08:15:09.000Z</time>
      </trkpt>
      <trkpt lat="45.02294" lon="1.0781">
        <ele>227</ele>
        <time>2017-10-01T08:15:10.000Z</time>
      </trkpt>
      <trkpt lat="45.02289" lon="1.07804">
        <ele>227</ele>
        <time>2017-10-01T08:15:11.000Z</time>
      </trkpt>
      <trkpt lat="45.02283" lon="1.07799">
        <ele>227</ele>
        <time>2017-10-01T08:15:12.000Z</time>
      </trkpt>
      <trkpt lat="45.02278" lon="1.07793">
        <ele>228</ele>
        <time>2017-10-01T08:15:13.000Z</time>
      </trkpt>
      <trkpt lat="45.02273" lon="1.07787">
        <ele>228</ele>
        <time>2017-10-01T08:15:14.000Z</time>
      </trkpt>
      <trkpt lat="45.02268" lon="1.07782">
        <ele>228</ele>
        <time>2017-10-01T08:15:15.000Z</time>
      </trkpt>
      <trkpt lat="45.02263" lon="1.07776">
        <ele>228</ele>
        <time>2017-10-01T08:15:16.000Z</time>
      </trkpt>
      <trkpt lat="45.02258" lon="1.07771">
        <ele>229</ele>
        <time>2017-10-01T08:15:17.000Z</time>
      </trkpt>
      <trkpt lat="45.02253" lon="1.07767">
        <ele>229</ele>
        <time>2017-10-01T08:15:18.000Z</time>
      </trkpt>
      <trkpt lat="45.02249" lon="1.07763">
        <ele>229</ele>
        <time>2017-10-01T08:15:19.000Z</time>
      </trkpt>
      <trkpt lat="45.02245" lon="1.0776">
        <ele>229</ele>
        <time>2017-10-01T08:15:20.000Z</time>
      </trkpt>
      <trkpt lat="45.02241" lon="1.07759">
        <ele>229</ele>
        <time>2017-10-01T08:15:21.000Z</time>
      </trkpt>
      <trkpt lat="45.02238" lon="1.07759">
        <ele>228</ele>
        <time>2017-10-01T08:15:22.000Z</time>
      </trkpt>
      <trkpt lat="45.02235" lon="1.07761">
        <ele>228</ele>
        <time>2017-10-01T08:15:23.000Z</time>
      </trkpt>
      <trkpt lat="45.02234" lon="1.07763">
        <ele>228</ele>
        <time>2017-10-01T08:15:24.000Z</time>
      </trkpt>
      <trkpt lat="45.02232" lon="1.07767">
        <ele>227</ele>
        <time>2017-10-01T08:15:25.000Z</time>
      </trkpt>
      <trkpt lat="45.02232" lon="1.07772">
        <ele>227</ele>
        <time>2017-10-01T08:15:26.000Z</time>
      </trkpt>
      <trkpt lat="45.02231" lon="1.07777">
        <ele>227</ele>
        <time>2017-10-01T08:15:27.000Z</time>
      </trkpt>
      <trkpt lat="45.0223" lon="1.07782">
        <ele>226</ele>
        <time>2017-10-01T08:15:28.000Z</time>
      </trkpt>
      <trkpt lat="45.02229" lon="1.07788">
        <ele>226</ele>
        <time>2017-10-01T08:15:29.000Z</time>
      </trkpt>
      <trkpt lat="45.02228" lon="1.07794">
        <ele>226</ele>
        <time>2017-10-01T08:15:30.000Z</time>
      </trkpt>
      <trkpt lat="45.02227" lon="1.078">
        <ele>225</ele>
        <time>2017-10-01T08:15:31.000Z</time>
      </trkpt>
      <trkpt lat="45.02225" lon="1.07806">
        <ele>225</ele>
        <time>2017-10-01T08:15:32.000Z</time>
      </trkpt>
      <trkpt lat="45.02224" lon="1.07812">
        <ele>224</ele>
        <time>2017-10-01T08:15:33.000Z</time>
      </trkpt>
      <trkpt lat="45.02223" lon="1.07818">
        <ele>224</ele>
        <time>2017-10-01T08:15:34.000Z</time>
      </trkpt>
      <trkpt lat="45.02221" lon="1.07824">
        <ele>223</ele>
        <time>2017-10-01T08:15:35.000Z</time>
      </trkpt>
      <trkpt lat="45.0222" lon="1.07829">
        <ele>223</ele>
        <time>2017-10-01T08:15:36.000Z</time>
      </trkpt>
      <trkpt lat="45.02219" lon="1.07835">
        <ele>222</ele>
        <time>2017-10-01T08:15:37.000Z</time>
      </trkpt>
      <trkpt lat="45.02218" lon="1.0784">
        <ele>222</ele>
        <time>2017-10-01T08:15:38.000Z</time>
      </trkpt>
      <trkpt lat="45.02217" lon="1.07846">
        <ele>222</ele>
        <time>2017-10-01T08:15:39.000Z</time>
      </trkpt>
      <trkpt lat="45.02216" lon="1.07852">
        <ele>221</ele>
        <time>2017-10-01T08:15:40.000Z</time>
      </trkpt>
      <trkpt lat="45.02215" lon="1.07858">
        <ele>221</ele>
        <time>2017-10-01T08:15:41.000Z</time>
      </trkpt>
      <trkpt lat="45.02213" lon="1.07865">
        <ele>220</ele>
        <time>2017-10-01T08:15:42.000Z</time>
      </trkpt>
      <trkpt lat="45.02212" lon="1.07871">
        <ele>220</ele>
        <time>2017-10-01T08:15:43.000Z</time>
      </trkpt>
      <trkpt lat="45.02211" lon="1.07878">
        <ele>219</ele>
        <time>2017-10-01T08:15:44.000Z</time>
      </trkpt>
      <trkpt lat="45.0221" lon="1.07884">
        <ele>219</ele>
        <time>2017-10-01T08:15:45.000Z</time>
      </trkpt>
      <trkpt lat="45.02209" lon="1.0789">
        <ele>218</ele>
        <time>2017-10-01T08:15:46.000Z</time>
      </trkpt>
      <trkpt lat="45.02208" lon="1.07895">
        <ele>218</ele>
        <time>2017-10-01T08:15:47.000Z</time>
      </trkpt>
      <trkpt lat="45.02207" lon="1.07899">
        <ele>218</ele>
        <time>2017-10-01T08:15:48.000Z</time>
      </trkpt>
      <trkpt lat="45.02206" lon="1.07903">
        <ele>217</ele>
        <time>2017-10-01T08:15:49.000Z</time>
      </trkpt>
      <trkpt lat="45.02204" lon="1.07905">
        <ele>217</ele>
        <time>2017-10-01T08:15:50.000Z</time>
      </trkpt>
      <trkpt lat="45.02203" lon="1.07905">
        <ele>217</ele>
        <time>2017-10-01T08:15:51.000Z</time>
      </trkpt>
      <trkpt lat="45.02201" lon="1.07904">
        <ele>217</ele>
        <time>2017-10-01T08:15:52.000Z</time>
      </trkpt>
      <trkpt lat="45.02199" lon="1.07903">
        <ele>217</ele>
        <time>2017-10-01T08:15:53.000Z</time>
      </trkpt>
      <trkpt lat="45.02197" lon="1.079">
        <ele>216</ele>
        <time>2017-10-01T08:15:54.000Z</time>
      </trkpt>
      <trkpt lat="45.02196" lon="1.07897">
        <ele>216</ele>
        <time>2017-10-01T08:15:55.000Z</time>
      </trkpt>
      <trkpt lat="45.02196" lon="1.07894">
        <ele>216</ele>
        <time>2017-10-01T08:15:56.000Z</time>
      </trkpt>
      <trkpt lat="45.02196" lon="1.0789">
        <ele>217</ele>
        <time>2017-10-01T08:15:57.000Z</time>
      </trkpt>
      <trkpt lat="45.02196" lon="1.07886">
        <ele>217</ele>
        <time>2017-10-01T08:15:58.000Z</time>
      </trkpt>
      <trkpt lat="45.02195" lon="1.07881">
        <ele>217</ele>
        <time>2017-10-01T08:15:59.000Z</time>
      </trkpt>
      <trkpt lat="45.02194" lon="1.07876">
        <ele>217</ele>
        <time>2017-10-01T08:16:00.000Z</time>
      </trkpt>
      <trkpt lat="45.02193" lon="1.07871">
        <ele>217</ele>
        <time>2017-10-01T08:16:01.000Z</time>
      </trkpt>
      <trkpt lat="45.02192" lon="1.07866">
        <ele>217</ele>
        <time>2017-10-01T08:16:02.000Z</time>
      </trkpt>
      <trkpt lat="45.0219" lon="1.07861">
        <ele>217</ele>
        <time>2017-10-01T08:16:03.000Z</time>
      </trkpt>
      <trkpt lat="45.02189" lon="1.07855">
        <ele>217</ele>
        <time>2017-10-01T08:16:04.000Z</time>
      </trkpt>
      <trkpt lat="45.02188" lon="1.0785">
        <ele>218</ele>
        <time>2017-10-01T08:16:05.000Z</time>
      </trkpt>
      <trkpt lat="45.02186" lon="1.07844">
        <ele>218</ele>
        <time>2017-10-01T08:16:06.000Z</time>
      </trkpt>
      <trkpt lat="45.02185" lon="1.07839">
        <ele>218</ele>
        <time>2017-10-01T08:16:07.000Z</time>
      </trkpt>
      <trkpt lat="45.02183" lon="1.07834">
        <ele>218</ele>
        <time>2017-10-01T08:16:08.000Z</time>
      </trkpt>
      <trkpt lat="45.02182" lon="1.07828">
        <ele>218</ele>
        <time>2017-10-01T08:16:09.000Z</time>
      </trkpt>
      <trkpt lat="45.02181" lon="1.07823">
        <ele>218</ele>
        <time>2017-10-01T08:16:10.000Z</time>
      </trkpt>
      <trkpt lat="45.02179" lon="1.07817">
        <ele>219</ele>
        <time>2017-10-01T08:16:11.000Z</time>
      </trkpt>
      <trkpt lat="45.02178" lon="1.07812">
        <ele>219</ele>
        <time>2017-10-01T08:16:12.000Z</time>
      </trkpt>
      <trkpt lat="45.02176" lon="1.07807">
        <ele>219</ele>
        <time>2017-10-01T08:16:13.000Z</time>
      </trkpt>
      <trkpt lat="45.02174" lon="1.07802">
        <ele>219</ele>
        <time>2017-10-01T08:16:14.000Z</time>
      </trkpt>
      <trkpt lat="45.02171" lon="1.07797">
        <ele>220</ele>
        <time>2017-10-01T08:16:15.000Z</time>
      </trkpt>
      <trkpt lat="45.02169" lon="1.07792">
        <ele>220</ele>
        <time>2017-10-01T08:16:16.000Z</time>
      </trkpt>
      <trkpt lat="45.02166" lon="1.07786">
        <ele>220</ele>
        <time>2017-10-01T08:16:17.000Z</time>
      </trkpt>
      <trkpt lat="45.02164" lon="1.0778">
        <ele>220</ele>
        <time>2017-10-01T08:16:18.000Z</time>
      </trkpt>
      <trkpt lat="45.02161" lon="1.07773">
        <ele>219</ele>
        <time>2017-10-01T08:16:19.000Z</time>
      </trkpt>
      <trkpt lat="45.02158" lon="1.07767">
        <ele>219</ele>
        <time>2017-10-01T08:16:20.000Z</time>
      </trkpt>
      <trkpt lat="45.02155" lon="1.0776">
        <ele>219</ele>
        <time>2017-10-01T08:16:21.000Z</time>
      </trkpt>
      <trkpt lat="45.02152" lon="1.07753">
        <ele>219</ele>
        <time>2017-10-01T08:16:22.000Z</time>
      </trkpt>
      <trkpt lat="45.02149" lon="1.07747">
        <ele>218</ele>
        <time>2017-10-01T08:16:23.000Z</time>
      </trkpt>
      <trkpt lat="45.02146" lon="1.07741">
        <ele>218</ele>
        <time>2017-10-01T08:16:24.000Z</time>
      </trkpt>
      <trkpt lat="45.02143" lon="1.07735">
        <ele>217</ele>
        <time>2017-10-01T08:16:25.000Z</time>
      </trkpt>
      <trkpt lat="45.0214" lon="1.0773">
        <ele>217</ele>
        <time>2017-10-01T08:16:26.000Z</time>
      </trkpt>
      <trkpt lat="45.02138" lon="1.07724">
        <ele>217</ele>
        <time>2017-10-01T08:16:27.000Z</time>
      </trkpt>
      <trkpt lat="45.02136" lon="1.07719">
        <ele>217</ele>
        <time>2017-10-01T08:16:28.000Z</time>
      </trkpt>
      <trkpt lat="45.02133" lon="1.07714">
        <ele>217</ele>
        <time>2017-10-01T08:16:29.000Z</time>
      </trkpt>
      <trkpt lat="45.02132" lon="1.07709">
        <ele>217</ele>
        <time>2017-10-01T08:16:30.000Z</time>
      </trkpt>
      <trkpt lat="45.0213" lon="1.07704">
        <ele>217</ele>
        <time>2017-10-01T08:16:31.000Z</time>
      </trkpt>
      <trkpt lat="45.02128" lon="1.07699">
        <ele>217</ele>
        <time>2017-10-01T08:16:32.000Z</time>
      </trkpt>
      <trkpt lat="45.02127" lon="1.07695">
        <ele>217</ele>
        <time>2017-10-01T08:16:33.000Z</time>
      </trkpt>
      <trkpt lat="45.02125" lon="1.0769">
        <ele>218</ele>
        <time>2017-10-01T08:16:34.000Z</time>
      </trkpt>
      <trkpt lat="45.02123" lon="1.07685">
        <ele>218</ele>
        <time>2017-10-01T08:16:35.000Z</time>
      </trkpt>
      <trkpt lat="45.0212" lon="1.0768">
        <ele>218</ele>
        <time>2017-10-01T08:16:36.000Z</time>
      </trkpt>
      <trkpt lat="45.02118" lon="1.07675">
        <ele>218</ele>
        <time>2017-10-01T08:16:37.000Z</time>
      </trkpt>
      <trkpt lat="45.02115" lon="1.0767">
        <ele>219</ele>
        <time>2017-10-01T08:16:38.000Z</time>
      </trkpt>
      <trkpt lat="45.02112" lon="1.07665">
        <ele>219</ele>
        <time>2017-10-01T08:16:39.000Z</time>
      </trkpt>
      <trkpt lat="45.0211" lon="1.0766">
        <ele>219</ele>
        <time>2017-10-01T08:16:40.000Z</time>
      </trkpt>
      <trkpt lat="45.02107" lon="1.07656">
        <ele>219</ele>
        <time>2017-10-01T08:16:41.000Z</time>
      </trkpt>
      <trkpt lat="45.02104" lon="1.07651">
        <ele>219</ele>
        <time>2017-10-01T08:16:42.000Z</time>
      </trkpt>
      <trkpt lat="45.02102" lon="1.07647">
        <ele>219</ele>
        <time>2017-10-01T08:16:43.000Z</time>
      </trkpt>
      <trkpt lat="45.02099" lon="1.07642">
        <ele>219</ele>
        <time>2017-10-01T08:16:44.000Z</time>
      </trkpt>
      <trkpt lat="45.02096" lon="1.07638">
        <ele>219</ele>
        <time>2017-10-01T08:16:45.000Z</time>
      </trkpt>
      <trkpt lat="45.02093" lon="1.07633">
        <ele>219</ele>
        <time>2017-10-01T08:16:46.000Z</time>
      </trkpt>
      <trkpt lat="45.0209" lon="1.07628">
        <ele>219</ele>
        <time>2017-10-01T08:16:47.000Z</time>
      </trkpt>
      <trkpt lat="45.02087" lon="1.07623">
        <ele>219</ele>
        <time>2017-10-01T08:16:48.000Z</time>
      </trkpt>
      <trkpt lat="45.02085" lon="1.07618">
        <ele>219</ele>
        <time>2017-10-01T08:16:49.000Z</time>
      </trkpt>
      <trkpt lat="45.02082" lon="1.07613">
        <ele>219</ele>
        <time>2017-10-01T08:16:50.000Z</time>
      </trkpt>
      <trkpt lat="45.02079" lon="1.07607">
        <ele>218</ele>
        <time>2017-10-01T08:16:51.000Z</time>
      </trkpt>
      <trkpt lat="45.02076" lon="1.07602">
        <ele>217</ele>
        <time>2017-10-01T08:16:52.000Z</time>
      </trkpt>
      <trkpt lat="45.02074" lon="1.07597">
        <ele>217</ele>
        <time>2017-10-01T08:16:53.000Z</time>
      </trkpt>
      <trkpt lat="45.02071" lon="1.07592">
        <ele>217</ele>
        <time>2017-10-01T08:16:54.000Z</time>
      </trkpt>
      <trkpt lat="45.02069" lon="1.07586">
        <ele>216</ele>
        <time>2017-10-01T08:16:55.000Z</time>
      </trkpt>
      <trkpt lat="45.02067" lon="1.07581">
        <ele>216</ele>
        <time>2017-10-01T08:16:56.000Z</time>
      </trkpt>
      <trkpt lat="45.02064" lon="1.07576">
        <ele>216</ele>
        <time>2017-10-01T08:16:57.000Z</time>
      </trkpt>
      <trkpt lat="45.02062" lon="1.07571">
        <ele>215</ele>
        <time>2017-10-01T08:16:58.000Z</time>
      </trkpt>
      <trkpt lat="45.0206" lon="1.07565">
        <ele>215</ele>
        <time>2017-10-01T08:16:59.000Z</time>
      </trkpt>
      <trkpt lat="45.02058" lon="1.0756">
        <ele>215</ele>
        <time>2017-10-01T08:17:00.000Z</time>
      </trkpt>
      <trkpt lat="45.02056" lon="1.07554">
        <ele>215</ele>
        <time>2017-10-01T08:17:01.000Z</time>
      </trkpt>
      <trkpt lat="45.02054" lon="1.07549">
        <ele>214</ele>
        <time>2017-10-01T08:17:02.000Z</time>
      </trkpt>
      <trkpt lat="45.02051" lon="1.07543">
        <ele>214</ele>
        <time>2017-10-01T08:17:03.000Z</time>
      </trkpt>
      <trkpt lat="45.02049" lon="1.07538">
        <ele>214</ele>
        <time>2017-10-01T08:17:04.000Z</time>
      </trkpt>
      <trkpt lat="45.02047" lon="1.07532">
        <ele>214</ele>
        <time>2017-10-01T08:17:05.000Z</time>
      </trkpt>
      <trkpt lat="45.02044" lon="1.07526">
        <ele>214</ele>
        <time>2017-10-01T08:17:06.000Z</time>
      </trkpt>
      <trkpt lat="45.02042" lon="1.0752">
        <ele>214</ele>
        <time>2017-10-01T08:17:07.000Z</time>
      </trkpt>
      <trkpt lat="45.02039" lon="1.07515">
        <ele>214</ele>
        <time>2017-10-01T08:17:08.000Z</time>
      </trkpt>
      <trkpt lat="45.02036" lon="1.07509">
        <ele>214</ele>
        <time>2017-10-01T08:17:09.000Z</time>
      </trkpt>
      <trkpt lat="45.02034" lon="1.07503">
        <ele>214</ele>
        <time>2017-10-01T08:17:10.000Z</time>
      </trkpt>
      <trkpt lat="45.02031" lon="1.07497">
        <ele>214</ele>
        <time>2017-10-01T08:17:11.000Z</time>
      </trkpt>
      <trkpt lat="45.02028" lon="1.07492">
        <ele>214</ele>
        <time>2017-10-01T08:17:12.000Z</time>
      </trkpt>
      <trkpt lat="45.02025" lon="1.07486">
        <ele>214</ele>
        <time>2017-10-01T08:17:13.000Z</time>
      </trkpt>
      <trkpt lat="45.02022" lon="1.07481">
        <ele>214</ele>
        <time>2017-10-01T08:17:14.000Z</time>
      </trkpt>
      <trkpt lat="45.02019" lon="1.07475">
        <ele>214</ele>
        <time>2017-10-01T08:17:15.000Z</time>
      </trkpt>
      <trkpt lat="45.02017" lon="1.0747">
        <ele>214</ele>
        <time>2017-10-01T08:17:16.000Z</time>
      </trkpt>
      <trkpt lat="45.02013" lon="1.07466">
        <ele>214</ele>
        <time>2017-10-01T08:17:17.000Z</time>
      </trkpt>
      <trkpt lat="45.0201" lon="1.07461">
        <ele>214</ele>
        <time>2017-10-01T08:17:18.000Z</time>
      </trkpt>
      <trkpt lat="45.02007" lon="1.07456">
        <ele>214</ele>
        <time>2017-10-01T08:17:19.000Z</time>
      </trkpt>
      <trkpt lat="45.02004" lon="1.07452">
        <ele>215</ele>
        <time>2017-10-01T08:17:20.000Z</time>
      </trkpt>
      <trkpt lat="45.02001" lon="1.07447">
        <ele>215</ele>
        <time>2017-10-01T08:17:21.000Z</time>
      </trkpt>
      <trkpt lat="45.01998" lon="1.07442">
        <ele>214</ele>
        <time>2017-10-01T08:17:22.000Z</time>
      </trkpt>
      <trkpt lat="45.01995" lon="1.07436">
        <ele>214</ele>
        <time>2017-10-01T08:17:23.000Z</time>
      </trkpt>
      <trkpt lat="45.01991" lon="1.07431">
        <ele>214</ele>
        <time>2017-10-01T08:17:24.000Z</time>
      </trkpt>
      <trkpt lat="45.01988" lon="1.07425">
        <ele>213</ele>
        <time>2017-10-01T08:17:25.000Z</time>
      </trkpt>
      <trkpt lat="45.01985" lon="1.0742">
        <ele>213</ele>
        <time>2017-10-01T08:17:26.000Z</time>
      </trkpt>
      <trkpt lat="45.01982" lon="1.07414">
        <ele>213</ele>
        <time>2017-10-01T08:17:27.000Z</time>
      </trkpt>
      <trkpt lat="45.0198" lon="1.07409">
        <ele>213</ele>
        <time>2017-10-01T08:17:28.000Z</time>
      </trkpt>
      <trkpt lat="45.01977" lon="1.07403">
        <ele>213</ele>
        <time>2017-10-01T08:17:29.000Z</time>
      </trkpt>
      <trkpt lat="45.01975" lon="1.07398">
        <ele>213</ele>
        <time>2017-10-01T08:17:30.000Z</time>
      </trkpt>
      <trkpt lat="45.01974" lon="1.07394">
        <ele>213</ele>
        <time>2017-10-01T08:17:31.000Z</time>
      </trkpt>
      <trkpt lat="45.01972" lon="1.07389">
        <ele>213</ele>
        <time>2017-10-01T08:17:32.000Z</time>
      </trkpt>
      <trkpt lat="45.0197" lon="1.07385">
        <ele>213</ele>
        <time>2017-10-01T08:17:33.000Z</time>
      </trkpt>
      <trkpt lat="45.01968" lon="1.07381">
        <ele>213</ele>
        <time>2017-10-01T08:17:34.000Z</time>
      </trkpt>
      <trkpt lat="45.01966" lon="1.07377">
        <ele>214</ele>
        <time>2017-10-01T08:17:35.000Z</time>
      </trkpt>
      <trkpt lat="45.01963" lon="1.07373">
        <ele>214</ele>
        <time>2017-10-01T08:17:36.000Z</time>
      </trkpt>
      <trkpt lat="45.01961" lon="1.0737">
        <ele>214</ele>
        <time>2017-10-01T08:17:37.000Z</time>
      </trkpt>
      <trkpt lat="45.01958" lon="1.07366">
        <ele>214</ele>
        <time>2017-10-01T08:17:38.000Z</time>
      </trkpt>
      <trkpt lat="45.01956" lon="1.07363">
        <ele>214</ele>
        <time>2017-10-01T08:17:39.000Z</time>
      </trkpt>
      <trkpt lat="45.01953" lon="1.07359">
        <ele>214</ele>
        <time>2017-10-01T08:17:40.000Z</time>
      </trkpt>
      <trkpt lat="45.01951" lon="1.07356">
        <ele>214</ele>
        <time>2017-10-01T08:17:41.000Z</time>
      </trkpt>
      <trkpt lat="45.01948" lon="1.07352">
        <ele>215</ele>
        <time>2017-10-01T08:17:42.000Z</time>
      </trkpt>
      <trkpt lat="45.01946" lon="1.07349">
        <ele>215</ele>
        <time>2017-10-01T08:17:43.000Z</time>
      </trkpt>
      <trkpt lat="45.01944" lon="1.07345">
        <ele>215</ele>
        <time>2017-10-01T08:17:44.000Z</time>
      </trkpt>
      <trkpt lat="45.01941" lon="1.07341">
        <ele>216</ele>
        <time>2017-10-01T08:17:45.000Z</time>
      </trkpt>
      <trkpt lat="45.01939" lon="1.07337">
        <ele>216</ele>
        <time>2017-10-01T08:17:46.000Z</time>
      </trkpt>
      <trkpt lat="45.01936" lon="1.07333">
        <ele>217</ele>
        <time>2017-10-01T08:17:47.000Z</time>
      </trkpt>
      <trkpt lat="45.01934" lon="1.07328">
        <ele>217</ele>
        <time>2017-10-01T08:17:48.000Z</time>
      </trkpt>
      <trkpt lat="45.01931" lon="1.07323">
        <ele>217</ele>
        <time>2017-10-01T08:17:49.000Z</time>
      </trkpt>
      <trkpt lat="45.01929" lon="1.07318">
        <ele>217</ele>
        <time>2017-10-01T08:17:50.000Z</time>
      </trkpt>
      <trkpt lat="45.01926" lon="1.07313">
        <ele>218</ele>
        <time>2017-10-01T08:17:51.000Z</time>
      </trkpt>
      <trkpt lat="45.01924" lon="1.07309">
        <ele>218</ele>
        <time>2017-10-01T08:17:52.000Z</time>
      </trkpt>
      <trkpt lat="45.01921" lon="1.07304">
        <ele>218</ele>
        <time>2017-10-01T08:17:53.000Z</time>
      </trkpt>
      <trkpt lat="45.01919" lon="1.07299">
        <ele>218</ele>
        <time>2017-10-01T08:17:54.000Z</time>
      </trkpt>
      <trkpt lat="45.01916" lon="1.07295">
        <ele>219</ele>
        <time>2017-10-01T08:17:55.000Z</time>
      </trkpt>
      <trkpt lat="45.01914" lon="1.07291">
        <ele>218</ele>
        <time>2017-10-01T08:17:56.000Z</time>
      </trkpt>
      <trkpt lat="45.01911" lon="1.07287">
        <ele>218</ele>
        <time>2017-10-01T08:17:57.000Z</time>
      </trkpt>
      <trkpt lat="45.01909" lon="1.07283">
        <ele>218</ele>
        <time>2017-10-01T08:17:58.000Z</time>
      </trkpt>
      <trkpt lat="45.01906" lon="1.07279">
        <ele>218</ele>
        <time>2017-10-01T08:17:59.000Z</time>
      </trkpt>
      <trkpt lat="45.01903" lon="1.07275">
        <ele>218</ele>
        <time>2017-10-01T08:18:00.000Z</time>
      </trkpt>
      <trkpt lat="45.01901" lon="1.07272">
        <ele>217</ele>
        <time>2017-10-01T08:18:01.000Z</time>
      </trkpt>
      <trkpt lat="45.01898" lon="1.07268">
        <ele>217</ele>
        <time>2017-10-01T08:18:02.000Z</time>
      </trkpt>
      <trkpt lat="45.01895" lon="1.07265">
        <ele>217</ele>
        <time>2017-10-01T08:18:03.000Z</time>
      </trkpt>
      <trkpt lat="45.01892" lon="1.07261">
        <ele>217</ele>
        <time>2017-10-01T08:18:04.000Z</time>
      </trkpt>
      <trkpt lat="45.01889" lon="1.07258">
        <ele>218</ele>
        <time>2017-10-01T08:18:05.000Z</time>
      </trkpt>
      <trkpt lat="45.01886" lon="1.07254">
        <ele>218</ele>
        <time>2017-10-01T08:18:06.000Z</time>
      </trkpt>
      <trkpt lat="45.01883" lon="1.07251">
        <ele>218</ele>
        <time>2017-10-01T08:18:07.000Z</time>
      </trkpt>
      <trkpt lat="45.01881" lon="1.07247">
        <ele>218</ele>
        <time>2017-10-01T08:18:08.000Z</time>
      </trkpt>
      <trkpt lat="45.01878" lon="1.07243">
        <ele>218</ele>
        <time>2017-10-01T08:18:09.000Z</time>
      </trkpt>
      <trkpt lat="45.01875" lon="1.07239">
        <ele>218</ele>
        <time>2017-10-01T08:18:10.000Z</time>
      </trkpt>
      <trkpt lat="45.01872" lon="1.07236">
        <ele>218</ele>
        <time>2017-10-01T08:18:11.000Z</time>
      </trkpt>
      <trkpt lat="45.01869" lon="1.07232">
        <ele>218</ele>
        <time>2017-10-01T08:18:12.000Z</time>
      </trkpt>
      <trkpt lat="45.01866" lon="1.07228">
        <ele>218</ele>
        <time>2017-10-01T08:18:13.000Z</time>
      </trkpt>
      <trkpt lat="45.01863" lon="1.07224">
        <ele>218</ele>
        <time>2017-10-01T08:18:14.000Z</time>
      </trkpt>
      <trkpt lat="45.01861" lon="1.07221">
        <ele>218</ele>
        <time>2017-10-01T08:18:15.000Z</time>
      </trkpt>
      <trkpt lat="45.01858" lon="1.07217">
        <ele>218</ele>
        <time>2017-10-01T08:18:16.000Z</time>
      </trkpt>
      <trkpt lat="45.01855" lon="1.07213">
        <ele>219</ele>
        <time>2017-10-01T08:18:17.000Z</time>
      </trkpt>
      <trkpt lat="45.01853" lon="1.0721">
        <ele>219</ele>
        <time>2017-10-01T08:18:18.000Z</time>
      </trkpt>
      <trkpt lat="45.01851" lon="1.07206">
        <ele>219</ele>
        <time>2017-10-01T08:18:19.000Z</time>
      </trkpt>
      <trkpt lat="45.01848" lon="1.07203">
        <ele>219</ele>
        <time>2017-10-01T08:18:20.000Z</time>
      </trkpt>
      <trkpt lat="45.01846" lon="1.07199">
        <ele>220</ele>
        <time>2017-10-01T08:18:21.000Z</time>
      </trkpt>
      <trkpt lat="45.01844" lon="1.07196">
        <ele>220</ele>
        <time>2017-10-01T08:18:22.000Z</time>
      </trkpt>
      <trkpt lat="45.01842" lon="1.07192">
        <ele>221</ele>
        <time>2017-10-01T08:18:23.000Z</time>
      </trkpt>
      <trkpt lat="45.01839" lon="1.07189">
        <ele>221</ele>
        <time>2017-10-01T08:18:24.000Z</time>
      </trkpt>
      <trkpt lat="45.01837" lon="1.07185">
        <ele>222</ele>
        <time>2017-10-01T08:18:25.000Z</time>
      </trkpt>
      <trkpt lat="45.01835" lon="1.07182">
        <ele>222</ele>
        <time>2017-10-01T08:18:26.000Z</time>
      </trkpt>
      <trkpt lat="45.01833" lon="1.07178">
        <ele>223</ele>
        <time>2017-10-01T08:18:27.000Z</time>
      </trkpt>
      <trkpt lat="45.0183" lon="1.07175">
        <ele>223</ele>
        <time>2017-10-01T08:18:28.000Z</time>
      </trkpt>
      <trkpt lat="45.01828" lon="1.07171">
        <ele>223</ele>
        <time>2017-10-01T08:18:29.000Z</time>
      </trkpt>
      <trkpt lat="45.01826" lon="1.07168">
        <ele>223</ele>
        <time>2017-10-01T08:18:30.000Z</time>
      </trkpt>
      <trkpt lat="45.01824" lon="1.07164">
        <ele>223</ele>
        <time>2017-10-01T08:18:31.000Z</time>
      </trkpt>
      <trkpt lat="45.01821" lon="1.07161">
        <ele>223</ele>
        <time>2017-10-01T08:18:32.000Z</time>
      </trkpt>
      <trkpt lat="45.01819" lon="1.07157">
        <ele>223</ele>
        <time>2017-10-01T08:18:33.000Z</time>
      </trkpt>
      <trkpt lat="45.01817" lon="1.07153">
        <ele>223</ele>
        <time>2017-10-01T08:18:34.000Z</time>
      </trkpt>
      <trkpt lat="45.01815" lon="1.07148">
        <ele>223</ele>
        <time>2017-10-01T08:18:35.000Z</time>
      </trkpt>
      <trkpt lat="45.01813" lon="1.07144">
        <ele>223</ele>
        <time>2017-10-01T08:18:36.000Z</time>
      </trkpt>
      <trkpt lat="45.01811" lon="1.0714">
        <ele>223</ele>
        <time>2017-10-01T08:18:37.000Z</time>
      </trkpt>
      <trkpt lat="45.01808" lon="1.07135">
        <ele>223</ele>
        <time>2017-10-01T08:18:38.000Z</time>
      </trkpt>
      <trkpt lat="45.01805" lon="1.07131">
        <ele>223</ele>
        <time>2017-10-01T08:18:39.000Z</time>
      </trkpt>
      <trkpt lat="45.01802" lon="1.07128">
        <ele>223</ele>
        <time>2017-10-01T08:18:40.000Z</time>
      </trkpt>
      <trkpt lat="45.01798" lon="1.07125">
        <ele>223</ele>
        <time>2017-10-01T08:18:41.000Z</time>
      </trkpt>
      <trkpt lat="45.01794" lon="1.07122">
        <ele>223</ele>
        <time>2017-10-01T08:18:42.000Z</time>
      </trkpt>
      <trkpt lat="45.01789" lon="1.0712">
        <ele>223</ele>
        <time>2017-10-01T08:18:43.000Z</time>
      </trkpt>
      <trkpt lat="45.01784" lon="1.07118">
        <ele>223</ele>
        <time>2017-10-01T08:18:44.000Z</time>
      </trkpt>
      <trkpt lat="45.01779" lon="1.07116">
        <ele>223</ele>
        <time>2017-10-01T08:18:45.000Z</time>
      </trkpt>
      <trkpt lat="45.01774" lon="1.07114">
        <ele>223</ele>
        <time>2017-10-01T08:18:46.000Z</time>
      </trkpt>
      <trkpt lat="45.01769" lon="1.07112">
        <ele>223</ele>
        <time>2017-10-01T08:18:47.000Z</time>
      </trkpt>
      <trkpt lat="45.01764" lon="1.07109">
        <ele>223</ele>
        <time>2017-10-01T08:18:48.000Z</time>
      </trkpt>
      <trkpt lat="45.0176" lon="1.07107">
        <ele>223</ele>
        <time>2017-10-01T08:18:49.000Z</time>
      </trkpt>
      <trkpt lat="45.01755" lon="1.07105">
        <ele>223</ele>
        <time>2017-10-01T08:18:50.000Z</time>
      </trkpt>
      <trkpt lat="45.01751" lon="1.07102">
        <ele>224</ele>
        <time>2017-10-01T08:18:51.000Z</time>
      </trkpt>
      <trkpt lat="45.01746" lon="1.071">
        <ele>224</ele>
        <time>2017-10-01T08:18:52.000Z</time>
      </trkpt>
      <trkpt lat="45.01742" lon="1.07098">
        <ele>223</ele>
        <time>2017-10-01T08:18:53.000Z</time>
      </trkpt>
      <trkpt lat="45.01738" lon="1.07096">
        <ele>223</ele>
        <time>2017-10-01T08:18:54.000Z</time>
      </trkpt>
      <trkpt lat="45.01734" lon="1.07094">
        <ele>223</ele>
        <time>2017-10-01T08:18:55.000Z</time>
      </trkpt>
      <trkpt lat="45.0173" lon="1.07092">
        <ele>223</ele>
        <time>2017-10-01T08:18:56.000Z</time>
      </trkpt>
      <trkpt lat="45.01727" lon="1.07091">
        <ele>223</ele>
        <time>2017-10-01T08:18:57.000Z</time>
      </trkpt>
      <trkpt lat="45.01723" lon="1.0709">
        <ele>223</ele>
        <time>2017-10-01T08:18:58.000Z</time>
      </trkpt>
      <trkpt lat="45.0172" lon="1.07089">
        <ele>223</ele>
        <time>2017-10-01T08:18:59.000Z</time>
      </trkpt>
      <trkpt lat="45.01718" lon="1.07088">
        <ele>222</ele>
        <time>2017-10-01T08:19:00.000Z</time>
      </trkpt>
      <trkpt lat="45.01716" lon="1.07087">
        <ele>222</ele>
        <time>2017-10-01T08:19:01.000Z</time>
      </trkpt>
      <trkpt lat="45.01715" lon="1.07087">
        <ele>222</ele>
        <time>2017-10-01T08:19:02.000Z</time>
      </trkpt>
      <trkpt lat="45.01714" lon="1.07087">
        <ele>222</ele>
        <time>2017-10-01T08:21:49.000Z</time>
      </trkpt>
      <trkpt lat="45.01714" lon="1.07087">
        <ele>222</ele>
        <time>2017-10-01T08:21:49.000Z</time>
      </trkpt>
      <trkpt lat="45.01714" lon="1.07087">
        <ele>222</ele>
        <time>2017-10-01T08:21:49.000Z</time>
      </trkpt>
      <trkpt lat="45.01714" lon="1.07087">
        <ele>222</ele>
        <time>2017-10-01T08:21:49.000Z</time>
      </trkpt>
      <trkpt lat="45.01714" lon="1.07087">
        <ele>222</ele>
        <time>2017-10-01T08:21:49.000Z</time>
      </trkpt>
      <trkpt lat="45.01714" lon="1.07087">
        <ele>222</ele>
        <time>2017-10-01T08:21:49.000Z</time>
      </trkpt>
      <trkpt lat="45.01714" lon="1.07087">
        <ele>222</ele>
        <time>2017-10-01T08:21:49.000Z</time>
      </trkpt>
      <trkpt lat="45.01714" lon="1.07087">
        <ele>222</ele>
        <time>2017-10-01T08:21:49.000Z</time>
      </trkpt>
      <trkpt lat="45.01714" lon="1.07087">
        <ele>222</ele>
        <time>2017-10-01T08:21:49.000Z</time>
      </trkpt>
      <trkpt lat="45.01714" lon="1.07087">
        <ele>222</ele>
        <time>2017-10-01T08:21:49.000Z</time>
      </trkpt>
      <trkpt lat="45.01714" lon="1.07087">
        <ele>222</ele>
        <time>2017-10-01T08:21:49.000Z</time>
      </trkpt>
      <trkpt lat="45.01714" lon="1.07087">
        <ele>222</ele>
        <time>2017-10-01T08:21:49.000Z</time>
      </trkpt>
      <trkpt lat="45.01714" lon="1.07087">
        <ele>222</ele>
        <time>2017-10-01T08:21:49.000Z</time>
      </trkpt>
      <trkpt lat="45.01714" lon="1.07087">
        <ele>222</ele>
        <time>2017-10-01T08:21:49.000Z</time>
      </trkpt>
      <trkpt lat="45.01714" lon="1.07087">
        <ele>222</ele>
        <time>2017-10-01T08:21:49.000Z</time>
      </trkpt>
      <trkpt lat="45.01714" lon="1.07087">
        <ele>222</ele>
        <time>2017-10-01T08:21:49.000Z</time>
      </trkpt>
      <trkpt lat="45.01714" lon="1.07087">
        <ele>222</ele>
        <time>2017-10-01T08:21:49.000Z</time>
      </trkpt>
      <trkpt lat="45.01714" lon="1.07087">
        <ele>222</ele>
        <time>2017-10-01T08:21:49.000Z</time>
      </trkpt>
      <trkpt lat="45.01714" lon="1.07087">
        <ele>222</ele>
        <time>2017-10-01T08:21:49.000Z</time>
      </trkpt>
      <trkpt lat="45.01714" lon="1.07087">
        <ele>222</ele>
        <time>2017-10-01T08:21:49.000Z</time>
      </trkpt>
      <trkpt lat="45.01714" lon="1.07087">
        <ele>222</ele>
        <time>2017-10-01T08:21:49.000Z</time>
      </trkpt>
      <trkpt lat="45.01714" lon="1.07087">
        <ele>222</ele>
        <time>2017-10-01T08:21:49.000Z</time>
      </trkpt>
      <trkpt lat="45.01714" lon="1.07087">
        <ele>222</ele>
        <time>2017-10-01T08:21:49.000Z</time>
      </trkpt>
      <trkpt lat="45.01714" lon="1.07087">
        <ele>222</ele>
        <time>2017-10-01T08:21:49.000Z</time>
      </trkpt>
      <trkpt lat="45.01714" lon="1.07087">
        <ele>222</ele>
        <time>2017-10-01T08:21:49.000Z</time>
      </trkpt>
      <trkpt lat="45.01714" lon="1.07087">
        <ele>222</ele>
        <time>2017-10-01T08:21:49.000Z</time>
      </trkpt>
      <trkpt lat="45.01714" lon="1.07087">
        <ele>222</ele>
        <time>2017-10-01T08:21:49.000Z</time>
      </trkpt>
      <trkpt lat="45.01714" lon="1.07087">
        <ele>222</ele>
        <time>2017-10-01T08:21:49.000Z</time>
      </trkpt>
      <trkpt lat="45.01714" lon="1.07087">
        <ele>222</ele>
        <time>2017-10-01T08:21:49.000Z</time>
      </trkpt>
      <trkpt lat="45.01714" lon="1.07087">
        <ele>222</ele>
        <time>2017-10-01T08:21:49.000Z</time>
      </trkpt>
      <trkpt lat="45.01714" lon="1.07087">
        <ele>222</ele>
        <time>2017-10-01T08:21:49.000Z</time>
      </trkpt>
      <trkpt lat="45.01714" lon="1.07087">
        <ele>222</ele>
        <time>2017-10-01T08:21:49.000Z</time>
      </trkpt>
      <trkpt lat="45.01714" lon="1.07087">
        <ele>222</ele>
        <time>2017-10-01T08:21:49.000Z</time>
      </trkpt>
      <trkpt lat="45.01714" lon="1.07087">
        <ele>222</ele>
        <time>2017-10-01T08:21:49.000Z</time>
      </trkpt>
      <trkpt lat="45.01714" lon="1.07087">
        <ele>222</ele>
        <time>2017-10-01T08:21:49.000Z</time>
      </trkpt>
      <trkpt lat="45.01714" lon="1.07087">
        <ele>222</ele>
        <time>2017-10-01T08:21:49.000Z</time>
      </trkpt>
      <trkpt lat="45.01714" lon="1.07087">
        <ele>222</ele>
        <time>2017-10-01T08:21:49.000Z</time>
      </trkpt>
      <trkpt lat="45.01714" lon="1.07087">
        <ele>222</ele>
        <time>2017-10-01T08:21:49.000Z</time>
      </trkpt>
      <trkpt lat="45.01714" lon="1.07087">
        <ele>222</ele>
        <time>2017-10-01T08:21:49.000Z</time>
      </trkpt>
      <trkpt lat="45.01714" lon="1.07087">
        <ele>222</ele>
        <time>2017-10-01T08:21:49.000Z</time>
      </trkpt>
      <trkpt lat="45.01714" lon="1.07087">
        <ele>222</ele>
        <time>2017-10-01T08:21:49.000Z</time>
      </trkpt>
      <trkpt lat="45.01714" lon="1.07087">
        <ele>222</ele>
        <time>2017-10-01T08:21:49.000Z</time>
      </trkpt>
      <trkpt lat="45.01714" lon="1.07087">
        <ele>222</ele>
        <time>2017-10-01T08:21:49.000Z</time>
      </trkpt>
      <trkpt lat="45.01714" lon="1.07087">
        <ele>222</ele>
        <time>2017-10-01T08:21:49.000Z</time>
      </trkpt>
      <trkpt lat="45.01714" lon="1.07087">
        <ele>222</ele>
        <time>2017-10-01T08:21:49.000Z</time>
      </trkpt>
      <trkpt lat="45.01714" lon="1.07087">
        <ele>222</ele>
        <time>2017-10-01T08:21:49.000Z</time>
      </trkpt>
      <trkpt lat="45.01714" lon="1.07087">
        <ele>222</ele>
        <time>2017-10-01T08:21:49.000Z</time>
      </trkpt>
      <trkpt lat="45.01714" lon="1.07087">
        <ele>222</ele>
        <time>2017-10-01T08:21:49.000Z</time>
      </trkpt>
      <trkpt lat="45.01714" lon="1.07087">
        <ele>222</ele>
        <time>2017-10-01T08:21:49.000Z</time>
      </trkpt>
      <trkpt lat="45.01714" lon="1.07087">
        <ele>222</ele>
        <time>2017-10-01T08:21:49.000Z</time>
      </trkpt>
      <trkpt lat="45.01714" lon="1.07087">
        <ele>222</ele>
        <time>2017-10-01T08:21:49.000Z</time>
      </trkpt>
      <trkpt lat="45.01714" lon="1.07087">
        <ele>222</ele>
        <time>2017-10-01T08:21:49.000Z</time>
      </trkpt>
      <trkpt lat="45.01714" lon="1.07087">
        <ele>222</ele>
        <time>2017-10-01T08:21:49.000Z</time>
      </trkpt>
      <trkpt lat="45.01714" lon="1.07087">
        <ele>222</ele>
        <time>2017-10-01T08:21:49.000Z</time>
      </trkpt>
      <trkpt lat="45.01714" lon="1.07087">
        <ele>222</ele>
        <time>2017-10-01T08:21:49.000Z</time>
      </trkpt>
      <trkpt lat="45.01714" lon="1.07087">
        <ele>222</ele>
        <time>2017-10-01T08:21:49.000Z</time>
      </trkpt>
      <trkpt lat="45.01714" lon="1.07087">
        <ele>222</ele>
        <time>2017-10-01T08:21:49.000Z</time>
      </trkpt>
      <trkpt lat="45.01714" lon="1.07087">
        <ele>222</ele>
        <time>2017-10-01T08:21:49.000Z</time>
      </trkpt>
      <trkpt lat="45.01714" lon="1.07087">
        <ele>222</ele>
        <time>2017-10-01T08:21:49.000Z</time>
      </trkpt>
      <trkpt lat="45.01714" lon="1.07087">
        <ele>222</ele>
        <time>2017-10-01T08:21:49.000Z</time>
      </trkpt>
      <trkpt lat="45.01714" lon="1.07087">
        <ele>222</ele>
        <time>2017-10-01T08:21:49.000Z</time>
      </trkpt>
      <trkpt lat="45.01714" lon="1.07087">
        <ele>222</ele>
        <time>2017-10-01T08:21:49.000Z</time>
      </trkpt>
      <trkpt lat="45.01714" lon="1.07087">
        <ele>222</ele>
        <time>2017-10-01T08:21:49.000Z</time>
      </trkpt>
      <trkpt lat="45.01714" lon="1.07087">
        <ele>222</ele>
        <time>2017-10-01T08:21:49.000Z</time>
      </trkpt>
      <trkpt lat="45.01714" lon="1.07087">
        <ele>222</ele>
        <time>2017-10-01T08:21:49.000Z</time>
      </trkpt>
      <trkpt lat="45.01714" lon="1.07087">
        <ele>222</ele>
        <time>2017-10-01T08:21:49.000Z</time>
      </trkpt>
      <trkpt lat="45.01714" lon="1.07087">
        <ele>222</ele>
        <time>2017-10-01T08:21:49.000Z</time>
      </trkpt>
      <trkpt lat="45.01714" lon="1.07087">
        <ele>222</ele>
        <time>2017-10-01T08:21:49.000Z</time>
      </trkpt>
      <trkpt lat="45.01714" lon="1.07087">
        <ele>222</ele>
        <time>2017-10-01T08:21:49.000Z</time>
      </trkpt>
      <trkpt lat="45.01714" lon="1.07087">
        <ele>222</ele>
        <time>2017-10-01T08:21:49.000Z</time>
      </trkpt>
      <trkpt lat="45.01714" lon="1.07087">
        <ele>222</ele>
        <time>2017-10-01T08:21:49.000Z</time>
      </trkpt>
      <trkpt lat="45.01714" lon="1.07087">
        <ele>222</ele>
        <time>2017-10-01T08:21:49.000Z</time>
      </trkpt>
      <trkpt lat="45.01714" lon="1.07087">
        <ele>222</ele>
        <time>2017-10-01T08:21:49.000Z</time>
      </trkpt>
      <trkpt lat="45.01714" lon="1.07087">
        <ele>222</ele>
        <time>2017-10-01T08:21:49.000Z</time>
      </trkpt>
      <trkpt lat="45.01714" lon="1.07087">
        <ele>222</ele>
        <time>2017-10-01T08:21:49.000Z</time>
      </trkpt>
      <trkpt lat="45.01714" lon="1.07087">
        <ele>222</ele>
        <time>2017-10-01T08:21:49.000Z</time>
      </trkpt>
      <trkpt lat="45.01714" lon="1.07087">
        <ele>222</ele>
        <time>2017-10-01T08:21:49.000Z</time>
      </trkpt>
      <trkpt lat="45.01714" lon="1.07087">
        <ele>222</ele>
        <time>2017-10-01T08:21:49.000Z</time>
      </trkpt>
      <trkpt lat="45.01714" lon="1.07087">
        <ele>222</ele>
        <time>2017-10-01T08:21:49.000Z</time>
      </trkpt>
      <trkpt lat="45.01714" lon="1.07087">
        <ele>222</ele>
        <time>2017-10-01T08:21:49.000Z</time>
      </trkpt>
      <trkpt lat="45.01714" lon="1.07087">
        <ele>222</ele>
        <time>2017-10-01T08:21:49.000Z</time>
      </trkpt>
      <trkpt lat="45.01714" lon="1.07087">
        <ele>222</ele>
        <time>2017-10-01T08:21:49.000Z</time>
      </trkpt>
      <trkpt lat="45.01714" lon="1.07087">
        <ele>222</ele>
        <time>2017-10-01T08:21:49.000Z</time>
      </trkpt>
      <trkpt lat="45.01714" lon="1.07087">
        <ele>222</ele>
        <time>2017-10-01T08:21:49.000Z</time>
      </trkpt>
      <trkpt lat="45.01714" lon="1.07087">
        <ele>222</ele>
        <time>2017-10-01T08:21:49.000Z</time>
      </trkpt>
      <trkpt lat="45.01714" lon="1.07087">
        <ele>222</ele>
        <time>2017-10-01T08:21:49.000Z</time>
      </trkpt>
      <trkpt lat="45.01714" lon="1.07087">
        <ele>222</ele>
        <time>2017-10-01T08:21:49.000Z</time>
      </trkpt>
      <trkpt lat="45.01714" lon="1.07087">
        <ele>222</ele>
        <time>2017-10-01T08:21:49.000Z</time>
      </trkpt>
      <trkpt lat="45.01714" lon="1.07087">
        <ele>222</ele>
        <time>2017-10-01T08:21:49.000Z</time>
      </trkpt>
      <trkpt lat="45.01714" lon="1.07087">
        <ele>222</ele>
        <time>2017-10-01T08:21:49.000Z</time>
      </trkpt>
      <trkpt lat="45.01714" lon="1.07087">
        <ele>222</ele>
        <time>2017-10-01T08:21:49.000Z</time>
      </trkpt>
      <trkpt lat="45.01714" lon="1.07087">
        <ele>222</ele>
        <time>2017-10-01T08:21:49.000Z</time>
      </trkpt>
      <trkpt lat="45.01714" lon="1.07087">
        <ele>222</ele>
        <time>2017-10-01T08:21:49.000Z</time>
      </trkpt>
      <trkpt lat="45.01714" lon="1.07087">
        <ele>222</ele>
        <time>2017-10-01T08:21:49.000Z</time>
      </trkpt>
      <trkpt lat="45.01714" lon="1.07087">
        <ele>222</ele>
        <time>2017-10-01T08:21:49.000Z</time>
      </trkpt>
      <trkpt lat="45.01714" lon="1.07087">
        <ele>222</ele>
        <time>2017-10-01T08:21:49.000Z</time>
      </trkpt>
      <trkpt lat="45.01714" lon="1.07087">
        <ele>222</ele>
        <time>2017-10-01T08:21:49.000Z</time>
      </trkpt>
      <trkpt lat="45.01714" lon="1.07087">
        <ele>222</ele>
        <time>2017-10-01T08:21:49.000Z</time>
      </trkpt>
      <trkpt lat="45.01714" lon="1.07087">
        <ele>222</ele>
        <time>2017-10-01T08:21:49.000Z</time>
      </trkpt>
      <trkpt lat="45.01714" lon="1.07087">
        <ele>222</ele>
        <time>2017-10-01T08:21:49.000Z</time>
      </trkpt>
      <trkpt lat="45.01714" lon="1.07087">
        <ele>222</ele>
        <time>2017-10-01T08:21:49.000Z</time>
      </trkpt>
      <trkpt lat="45.01714" lon="1.07087">
        <ele>222</ele>
        <time>2017-10-01T08:21:49.000Z</time>
      </trkpt>
      <trkpt lat="45.01714" lon="1.07087">
        <ele>222</ele>
        <time>2017-10-01T08:21:49.000Z</time>
      </trkpt>
      <trkpt lat="45.01714" lon="1.07087">
        <ele>222</ele>
        <time>2017-10-01T08:21:49.000Z</time>
      </trkpt>
      <trkpt lat="45.01714" lon="1.07087">
        <ele>222</ele>
        <time>2017-10-01T08:21:49.000Z</time>
      </trkpt>
      <trkpt lat="45.01714" lon="1.07087">
        <ele>222</ele>
        <time>2017-10-01T08:21:49.000Z</time>
      </trkpt>
      <trkpt lat="45.01714" lon="1.07087">
        <ele>222</ele>
        <time>2017-10-01T08:21:49.000Z</time>
      </trkpt>
      <trkpt lat="45.01714" lon="1.07087">
        <ele>222</ele>
        <time>2017-10-01T08:21:49.000Z</time>
      </trkpt>
      <trkpt lat="45.01714" lon="1.07087">
        <ele>222</ele>
        <time>2017-10-01T08:21:49.000Z</time>
      </trkpt>
      <trkpt lat="45.01714" lon="1.07087">
        <ele>222</ele>
        <time>2017-10-01T08:21:49.000Z</time>
      </trkpt>
      <trkpt lat="45.01714" lon="1.07087">
        <ele>222</ele>
        <time>2017-10-01T08:21:49.000Z</time>
      </trkpt>
      <trkpt lat="45.01714" lon="1.07087">
        <ele>222</ele>
        <time>2017-10-01T08:21:49.000Z</time>
      </trkpt>
      <trkpt lat="45.01714" lon="1.07087">
        <ele>222</ele>
        <time>2017-10-01T08:21:49.000Z</time>
      </trkpt>
      <trkpt lat="45.01714" lon="1.07087">
        <ele>222</ele>
        <time>2017-10-01T08:21:49.000Z</time>
      </trkpt>
      <trkpt lat="45.01714" lon="1.07087">
        <ele>222</ele>
        <time>2017-10-01T08:21:49.000Z</time>
      </trkpt>
      <trkpt lat="45.01714" lon="1.07087">
        <ele>222</ele>
        <time>2017-10-01T08:21:49.000Z</time>
      </trkpt>
      <trkpt lat="45.01714" lon="1.07087">
        <ele>222</ele>
        <time>2017-10-01T08:21:49.000Z</time>
      </trkpt>
      <trkpt lat="45.01714" lon="1.07087">
        <ele>222</ele>
        <time>2017-10-01T08:21:49.000Z</time>
      </trkpt>
      <trkpt lat="45.01714" lon="1.07087">
        <ele>222</ele>
        <time>2017-10-01T08:21:49.000Z</time>
      </trkpt>
      <trkpt lat="45.01714" lon="1.07087">
        <ele>222</ele>
        <time>2017-10-01T08:21:49.000Z</time>
      </trkpt>
      <trkpt lat="45.01714" lon="1.07087">
        <ele>222</ele>
        <time>2017-10-01T08:21:49.000Z</time>
      </trkpt>
      <trkpt lat="45.01714" lon="1.07087">
        <ele>222</ele>
        <time>2017-10-01T08:21:49.000Z</time>
      </trkpt>
      <trkpt lat="45.01714" lon="1.07087">
        <ele>222</ele>
        <time>2017-10-01T08:21:49.000Z</time>
      </trkpt>
      <trkpt lat="45.01714" lon="1.07087">
        <ele>222</ele>
        <time>2017-10-01T08:21:49.000Z</time>
      </trkpt>
      <trkpt lat="45.01714" lon="1.07087">
        <ele>222</ele>
        <time>2017-10-01T08:21:49.000Z</time>
      </trkpt>
      <trkpt lat="45.01714" lon="1.07087">
        <ele>222</ele>
        <time>2017-10-01T08:21:49.000Z</time>
      </trkpt>
      <trkpt lat="45.01714" lon="1.07087">
        <ele>222</ele>
        <time>2017-10-01T08:21:49.000Z</time>
      </trkpt>
      <trkpt lat="45.01714" lon="1.07087">
        <ele>222</ele>
        <time>2017-10-01T08:21:49.000Z</time>
      </trkpt>
      <trkpt lat="45.01714" lon="1.07087">
        <ele>222</ele>
        <time>2017-10-01T08:21:49.000Z</time>
      </trkpt>
      <trkpt lat="45.01714" lon="1.07087">
        <ele>222</ele>
        <time>2017-10-01T08:21:49.000Z</time>
      </trkpt>
      <trkpt lat="45.01714" lon="1.07087">
        <ele>222</ele>
        <time>2017-10-01T08:21:49.000Z</time>
      </trkpt>
      <trkpt lat="45.01714" lon="1.07087">
        <ele>222</ele>
        <time>2017-10-01T08:21:49.000Z</time>
      </trkpt>
      <trkpt lat="45.01714" lon="1.07087">
        <ele>222</ele>
        <time>2017-10-01T08:21:49.000Z</time>
      </trkpt>
      <trkpt lat="45.01714" lon="1.07087">
        <ele>222</ele>
        <time>2017-10-01T08:21:49.000Z</time>
      </trkpt>
      <trkpt lat="45.01714" lon="1.07087">
        <ele>222</ele>
        <time>2017-10-01T08:21:49.000Z</time>
      </trkpt>
      <trkpt lat="45.01714" lon="1.07087">
        <ele>222</ele>
        <time>2017-10-01T08:21:49.000Z</time>
      </trkpt>
      <trkpt lat="45.01714" lon="1.07087">
        <ele>222</ele>
        <time>2017-10-01T08:21:49.000Z</time>
      </trkpt>
      <trkpt lat="45.01714" lon="1.07087">
        <ele>222</ele>
        <time>2017-10-01T08:21:49.000Z</time>
      </trkpt>
      <trkpt lat="45.01714" lon="1.07087">
        <ele>222</ele>
        <time>2017-10-01T08:21:49.000Z</time>
      </trkpt>
      <trkpt lat="45.01714" lon="1.07087">
        <ele>222</ele>
        <time>2017-10-01T08:21:49.000Z</time>
      </trkpt>
      <trkpt lat="45.01714" lon="1.07087">
        <ele>222</ele>
        <time>2017-10-01T08:21:49.000Z</time>
      </trkpt>
      <trkpt lat="45.01714" lon="1.07087">
        <ele>222</ele>
        <time>2017-10-01T08:21:49.000Z</time>
      </trkpt>
      <trkpt lat="45.01714" lon="1.07087">
        <ele>222</ele>
        <time>2017-10-01T08:21:49.000Z</time>
      </trkpt>
      <trkpt lat="45.01714" lon="1.07087">
        <ele>222</ele>
        <time>2017-10-01T08:21:49.000Z</time>
      </trkpt>
      <trkpt lat="45.01714" lon="1.07087">
        <ele>222</ele>
        <time>2017-10-01T08:21:49.000Z</time>
      </trkpt>
      <trkpt lat="45.01714" lon="1.07087">
        <ele>222</ele>
        <time>2017-10-01T08:21:49.000Z</time>
      </trkpt>
      <trkpt lat="45.01714" lon="1.07087">
        <ele>222</ele>
        <time>2017-10-01T08:21:49.000Z</time>
      </trkpt>
      <trkpt lat="45.01714" lon="1.07087">
        <ele>222</ele>
        <time>2017-10-01T08:21:49.000Z</time>
      </trkpt>
      <trkpt lat="45.01714" lon="1.07087">
        <ele>222</ele>
        <time>2017-10-01T08:21:49.000Z</time>
      </trkpt>
      <trkpt lat="45.01714" lon="1.07087">
        <ele>222</ele>
        <time>2017-10-01T08:21:49.000Z</time>
      </trkpt>
      <trkpt lat="45.01714" lon="1.07087">
        <ele>222</ele>
        <time>2017-10-01T08:21:49.000Z</time>
      </trkpt>
      <trkpt lat="45.01714" lon="1.07087">
        <ele>222</ele>
        <time>2017-10-01T08:21:49.000Z</time>
      </trkpt>
      <trkpt lat="45.01714" lon="1.07087">
        <ele>222</ele>
        <time>2017-10-01T08:21:49.000Z</time>
      </trkpt>
      <trkpt lat="45.01714" lon="1.07087">
        <ele>222</ele>
        <time>2017-10-01T08:21:49.000Z</time>
      </trkpt>
      <trkpt lat="45.01714" lon="1.07087">
        <ele>222</ele>
        <time>2017-10-01T08:21:49.000Z</time>
      </trkpt>
      <trkpt lat="45.01714" lon="1.07087">
        <ele>222</ele>
        <time>2017-10-01T08:21:49.000Z</time>
      </trkpt>
      <trkpt lat="45.01714" lon="1.07087">
        <ele>222</ele>
        <time>2017-10-01T08:21:49.000Z</time>
      </trkpt>
      <trkpt lat="45.01714" lon="1.07087">
        <ele>222</ele>
        <time>2017-10-01T08:21:49.000Z</time>
      </trkpt>
      <trkpt lat="45.01714" lon="1.07087">
        <ele>222</ele>
        <time>2017-10-01T08:21:49.000Z</time>
      </trkpt>
      <trkpt lat="45.01714" lon="1.07087">
        <ele>222</ele>
        <time>2017-10-01T08:21:49.000Z</time>
      </trkpt>
      <trkpt lat="45.01714" lon="1.07087">
        <ele>222</ele>
        <time>2017-10-01T08:21:49.000Z</time>
      </trkpt>
      <trkpt lat="45.01714" lon="1.07087">
        <ele>222</ele>
        <time>2017-10-01T08:21:49.000Z</time>
      </trkpt>
      <trkpt lat="45.01714" lon="1.07087">
        <ele>222</ele>
        <time>2017-10-01T08:21:49.000Z</time>
      </trkpt>
      <trkpt lat="45.01714" lon="1.07087">
        <ele>222</ele>
        <time>2017-10-01T08:21:49.000Z</time>
      </trkpt>
      <trkpt lat="45.01714" lon="1.07087">
        <ele>222</ele>
        <time>2017-10-01T08:21:49.000Z</time>
      </trkpt>
      <trkpt lat="45.01714" lon="1.07087">
        <ele>222</ele>
        <time>2017-10-01T08:21:49.000Z</time>
      </trkpt>
      <trkpt lat="45.01714" lon="1.07087">
        <ele>222</ele>
        <time>2017-10-01T08:21:49.000Z</time>
      </trkpt>
      <trkpt lat="45.01713" lon="1.07087">
        <ele>222</ele>
        <time>2017-10-01T08:21:50.000Z</time>
      </trkpt>
      <trkpt lat="45.01711" lon="1.07085">
        <ele>222</ele>
        <time>2017-10-01T08:21:51.000Z</time>
      </trkpt>
      <trkpt lat="45.0171" lon="1.07084">
        <ele>222</ele>
        <time>2017-10-01T08:21:52.000Z</time>
      </trkpt>
      <trkpt lat="45.01708" lon="1.07083">
        <ele>222</ele>
        <time>2017-10-01T08:21:53.000Z</time>
      </trkpt>
      <trkpt lat="45.01705" lon="1.07082">
        <ele>222</ele>
        <time>2017-10-01T08:21:54.000Z</time>
      </trkpt>
      <trkpt lat="45.01703" lon="1.0708">
        <ele>222</ele>
        <time>2017-10-01T08:21:55.000Z</time>
      </trkpt>
      <trkpt lat="45.01699" lon="1.07078">
        <ele>222</ele>
        <time>2017-10-01T08:21:56.000Z</time>
      </trkpt>
      <trkpt lat="45.01696" lon="1.07076">
        <ele>222</ele>
        <time>2017-10-01T08:21:57.000Z</time>
      </trkpt>
      <trkpt lat="45.01692" lon="1.07073">
        <ele>221</ele>
        <time>2017-10-01T08:21:58.000Z</time>
      </trkpt>
      <trkpt lat="45.01688" lon="1.0707">
        <ele>221</ele>
        <time>2017-10-01T08:21:59.000Z</time>
      </trkpt>
      <trkpt lat="45.01683" lon="1.07067">
        <ele>221</ele>
        <time>2017-10-01T08:22:00.000Z</time>
      </trkpt>
      <trkpt lat="45.01679" lon="1.07064">
        <ele>221</ele>
        <time>2017-10-01T08:22:01.000Z</time>
      </trkpt>
      <trkpt lat="45.01674" lon="1.07061">
        <ele>221</ele>
        <time>2017-10-01T08:22:02.000Z</time>
      </trkpt>
      <trkpt lat="45.01669" lon="1.07057">
        <ele>221</ele>
        <time>2017-10-01T08:22:03.000Z</time>
      </trkpt>
      <trkpt lat="45.01663" lon="1.07054">
        <ele>220</ele>
        <time>2017-10-01T08:22:04.000Z</time>
      </trkpt>
      <trkpt lat="45.01658" lon="1.0705">
        <ele>220</ele>
        <time>2017-10-01T08:22:05.000Z</time>
      </trkpt>
      <trkpt lat="45.01652" lon="1.07047">
        <ele>220</ele>
        <time>2017-10-01T08:22:06.000Z</time>
      </trkpt>
      <trkpt lat="45.01646" lon="1.07043">
        <ele>220</ele>
        <time>2017-10-01T08:22:07.000Z</time>
      </trkpt>
      <trkpt lat="45.0164" lon="1.0704">
        <ele>219</ele>
        <time>2017-10-01T08:22:08.000Z</time>
      </trkpt>
      <trkpt lat="45.01634" lon="1.07036">
        <ele>219</ele>
        <time>2017-10-01T08:22:09.000Z</time>
      </trkpt>
      <trkpt lat="45.01628" lon="1.07032">
        <ele>219</ele>
        <time>2017-10-01T08:22:10.000Z</time>
      </trkpt>
      <trkpt lat="45.01622" lon="1.07029">
        <ele>220</ele>
        <time>2017-10-01T08:22:11.000Z</time>
      </trkpt>
      <trkpt lat="45.01616" lon="1.07025">
        <ele>220</ele>
        <time>2017-10-01T08:22:12.000Z</time>
      </trkpt>
      <trkpt lat="45.0161" lon="1.07021">
        <ele>220</ele>
        <time>2017-10-01T08:22:13.000Z</time>
      </trkpt>
      <trkpt lat="45.01604" lon="1.07017">
        <ele>221</ele>
        <time>2017-10-01T08:22:14.000Z</time>
      </trkpt>
      <trkpt lat="45.01598" lon="1.07013">
        <ele>221</ele>
        <time>2017-10-01T08:22:15.000Z</time>
      </trkpt>
      <trkpt lat="45.01593" lon="1.07009">
        <ele>222</ele>
        <time>2017-10-01T08:22:16.000Z</time>
      </trkpt>
      <trkpt lat="45.01587" lon="1.07005">
        <ele>222</ele>
        <time>2017-10-01T08:22:17.000Z</time>
      </trkpt>
      <trkpt lat="45.01582" lon="1.07002">
        <ele>223</ele>
        <time>2017-10-01T08:22:18.000Z</time>
      </trkpt>
      <trkpt lat="45.01577" lon="1.06998">
        <ele>223</ele>
        <time>2017-10-01T08:22:19.000Z</time>
      </trkpt>
      <trkpt lat="45.01572" lon="1.06996">
        <ele>222</ele>
        <time>2017-10-01T08:22:20.000Z</time>
      </trkpt>
      <trkpt lat="45.01567" lon="1.06994">
        <ele>222</ele>
        <time>2017-10-01T08:22:21.000Z</time>
      </trkpt>
      <trkpt lat="45.01561" lon="1.06993">
        <ele>222</ele>
        <time>2017-10-01T08:22:22.000Z</time>
      </trkpt>
      <trkpt lat="45.01556" lon="1.06992">
        <ele>221</ele>
        <time>2017-10-01T08:22:23.000Z</time>
      </trkpt>
      <trkpt lat="45.0155" lon="1.06991">
        <ele>221</ele>
        <time>2017-10-01T08:22:24.000Z</time>
      </trkpt>
      <trkpt lat="45.01544" lon="1.0699">
        <ele>220</ele>
        <time>2017-10-01T08:22:25.000Z</time>
      </trkpt>
      <trkpt lat="45.01538" lon="1.06987">
        <ele>220</ele>
        <time>2017-10-01T08:22:26.000Z</time>
      </trkpt>
      <trkpt lat="45.01533" lon="1.06984">
        <ele>220</ele>
        <time>2017-10-01T08:22:27.000Z</time>
      </trkpt>
      <trkpt lat="45.01527" lon="1.06981">
        <ele>220</ele>
        <time>2017-10-01T08:22:28.000Z</time>
      </trkpt>
      <trkpt lat="45.01522" lon="1.06978">
        <ele>220</ele>
        <time>2017-10-01T08:22:29.000Z</time>
      </trkpt>
      <trkpt lat="45.01517" lon="1.06976">
        <ele>220</ele>
        <time>2017-10-01T08:22:30.000Z</time>
      </trkpt>
      <trkpt lat="45.01511" lon="1.06974">
        <ele>220</ele>
        <time>2017-10-01T08:22:31.000Z</time>
      </trkpt>
      <trkpt lat="45.01506" lon="1.06972">
        <ele>219</ele>
        <time>2017-10-01T08:22:32.000Z</time>
      </trkpt>
      <trkpt lat="45.01501" lon="1.06971">
        <ele>219</ele>
        <time>2017-10-01T08:22:33.000Z</time>
      </trkpt>
      <trkpt lat="45.01496" lon="1.06969">
        <ele>219</ele>
        <time>2017-10-01T08:22:34.000Z</time>
      </trkpt>
      <trkpt lat="45.0149" lon="1.06967">
        <ele>219</ele>
        <time>2017-10-01T08:22:35.000Z</time>
      </trkpt>
      <trkpt lat="45.01485" lon="1.06966">
        <ele>219</ele>
        <time>2017-10-01T08:22:36.000Z</time>
      </trkpt>
      <trkpt lat="45.0148" lon="1.06964">
        <ele>219</ele>
        <time>2017-10-01T08:22:37.000Z</time>
      </trkpt>
      <trkpt lat="45.01475" lon="1.06962">
        <ele>220</ele>
        <time>2017-10-01T08:22:38.000Z</time>
      </trkpt>
      <trkpt lat="45.0147" lon="1.06961">
        <ele>220</ele>
        <time>2017-10-01T08:22:39.000Z</time>
      </trkpt>
      <trkpt lat="45.01466" lon="1.06959">
        <ele>220</ele>
        <time>2017-10-01T08:22:40.000Z</time>
      </trkpt>
      <trkpt lat="45.01461" lon="1.06958">
        <ele>220</ele>
        <time>2017-10-01T08:22:41.000Z</time>
      </trkpt>
      <trkpt lat="45.01457" lon="1.06956">
        <ele>220</ele>
        <time>2017-10-01T08:22:42.000Z</time>
      </trkpt>
      <trkpt lat="45.01452" lon="1.06955">
        <ele>220</ele>
        <time>2017-10-01T08:22:43.000Z</time>
      </trkpt>
      <trkpt lat="45.01447" lon="1.06953">
        <ele>220</ele>
        <time>2017-10-01T08:22:44.000Z</time>
      </trkpt>
      <trkpt lat="45.01442" lon="1.06952">
        <ele>220</ele>
        <time>2017-10-01T08:22:45.000Z</time>
      </trkpt>
      <trkpt lat="45.01437" lon="1.0695">
        <ele>221</ele>
        <time>2017-10-01T08:22:46.000Z</time>
      </trkpt>
      <trkpt lat="45.01431" lon="1.06948">
        <ele>221</ele>
        <time>2017-10-01T08:22:47.000Z</time>
      </trkpt>
      <trkpt lat="45.01425" lon="1.06945">
        <ele>221</ele>
        <time>2017-10-01T08:22:48.000Z</time>
      </trkpt>
      <trkpt lat="45.01419" lon="1.06943">
        <ele>222</ele>
        <time>2017-10-01T08:22:49.000Z</time>
      </trkpt>
      <trkpt lat="45.01412" lon="1.0694">
        <ele>222</ele>
        <time>2017-10-01T08:22:50.000Z</time>
      </trkpt>
      <trkpt lat="45.01405" lon="1.06938">
        <ele>222</ele>
        <time>2017-10-01T08:22:51.000Z</time>
      </trkpt>
      <trkpt lat="45.01397" lon="1.06935">
        <ele>222</ele>
        <time>2017-10-01T08:22:52.000Z</time>
      </trkpt>
      <trkpt lat="45.0139" lon="1.06933">
        <ele>222</ele>
        <time>2017-10-01T08:22:53.000Z</time>
      </trkpt>
      <trkpt lat="45.01382" lon="1.06931">
        <ele>222</ele>
        <time>2017-10-01T08:22:54.000Z</time>
      </trkpt>
      <trkpt lat="45.01374" lon="1.06929">
        <ele>221</ele>
        <time>2017-10-01T08:22:55.000Z</time>
      </trkpt>
      <trkpt lat="45.01367" lon="1.06927">
        <ele>221</ele>
        <time>2017-10-01T08:22:56.000Z</time>
      </trkpt>
      <trkpt lat="45.01359" lon="1.06925">
        <ele>221</ele>
        <time>2017-10-01T08:22:57.000Z</time>
      </trkpt>
      <trkpt lat="45.01352" lon="1.06923">
        <ele>221</ele>
        <time>2017-10-01T08:22:58.000Z</time>
      </trkpt>
      <trkpt lat="45.01345" lon="1.06922">
        <ele>221</ele>
        <time>2017-10-01T08:22:59.000Z</time>
      </trkpt>
      <trkpt lat="45.01339" lon="1.06919">
        <ele>220</ele>
        <time>2017-10-01T08:23:00.000Z</time>
      </trkpt>
      <trkpt lat="45.01333" lon="1.06917">
        <ele>220</ele>
        <time>2017-10-01T08:23:01.000Z</time>
      </trkpt>
      <trkpt lat="45.01327" lon="1.06914">
        <ele>220</ele>
        <time>2017-10-01T08:23:02.000Z</time>
      </trkpt>
      <trkpt lat="45.01322" lon="1.06912">
        <ele>219</ele>
        <time>2017-10-01T08:23:03.000Z</time>
      </trkpt>
      <trkpt lat="45.01316" lon="1.06909">
        <ele>218</ele>
        <time>2017-10-01T08:23:04.000Z</time>
      </trkpt>
      <trkpt lat="45.01311" lon="1.06907">
        <ele>218</ele>
        <time>2017-10-01T08:23:05.000Z</time>
      </trkpt>
      <trkpt lat="45.01305" lon="1.06904">
        <ele>217</ele>
        <time>2017-10-01T08:23:06.000Z</time>
      </trkpt>
      <trkpt lat="45.013" lon="1.06902">
        <ele>216</ele>
        <time>2017-10-01T08:23:07.000Z</time>
      </trkpt>
      <trkpt lat="45.01294" lon="1.069">
        <ele>215</ele>
        <time>2017-10-01T08:23:08.000Z</time>
      </trkpt>
      <trkpt lat="45.01287" lon="1.06899">
        <ele>214</ele>
        <time>2017-10-01T08:23:09.000Z</time>
      </trkpt>
      <trkpt lat="45.01281" lon="1.06897">
        <ele>214</ele>
        <time>2017-10-01T08:23:10.000Z</time>
      </trkpt>
      <trkpt lat="45.01275" lon="1.06896">
        <ele>213</ele>
        <time>2017-10-01T08:23:11.000Z</time>
      </trkpt>
      <trkpt lat="45.01268" lon="1.06894">
        <ele>212</ele>
        <time>2017-10-01T08:23:12.000Z</time>
      </trkpt>
      <trkpt lat="45.01262" lon="1.06892">
        <ele>211</ele>
        <time>2017-10-01T08:23:13.000Z</time>
      </trkpt>
      <trkpt lat="45.01256" lon="1.0689">
        <ele>210</ele>
        <time>2017-10-01T08:23:14.000Z</time>
      </trkpt>
      <trkpt lat="45.0125" lon="1.06886">
        <ele>210</ele>
        <time>2017-10-01T08:23:15.000Z</time>
      </trkpt>
      <trkpt lat="45.01245" lon="1.06882">
        <ele>209</ele>
        <time>2017-10-01T08:23:16.000Z</time>
      </trkpt>
      <trkpt lat="45.01241" lon="1.06877">
        <ele>209</ele>
        <time>2017-10-01T08:23:17.000Z</time>
      </trkpt>
      <trkpt lat="45.01237" lon="1.06871">
        <ele>208</ele>
        <time>2017-10-01T08:23:18.000Z</time>
      </trkpt>
      <trkpt lat="45.01233" lon="1.06864">
        <ele>208</ele>
        <time>2017-10-01T08:23:19.000Z</time>
      </trkpt>
      <trkpt lat="45.01228" lon="1.06856">
        <ele>208</ele>
        <time>2017-10-01T08:23:20.000Z</time>
      </trkpt>
      <trkpt lat="45.01223" lon="1.06847">
        <ele>208</ele>
        <time>2017-10-01T08:23:21.000Z</time>
      </trkpt>
      <trkpt lat="45.01219" lon="1.06837">
        <ele>208</ele>
        <time>2017-10-01T08:23:22.000Z</time>
      </trkpt>
      <trkpt lat="45.01215" lon="1.06826">
        <ele>208</ele>
        <time>2017-10-01T08:23:23.000Z</time>
      </trkpt>
      <trkpt lat="45.01212" lon="1.06815">
        <ele>208</ele>
        <time>2017-10-01T08:23:24.000Z</time>
      </trkpt>
      <trkpt lat="45.01209" lon="1.06806">
        <ele>209</ele>
        <time>2017-10-01T08:23:25.000Z</time>
      </trkpt>
      <trkpt lat="45.01206" lon="1.06798">
        <ele>209</ele>
        <time>2017-10-01T08:23:26.000Z</time>
      </trkpt>
      <trkpt lat="45.01204" lon="1.06791">
        <ele>209</ele>
        <time>2017-10-01T08:23:27.000Z</time>
      </trkpt>
      <trkpt lat="45.01201" lon="1.06783">
        <ele>210</ele>
        <time>2017-10-01T08:23:28.000Z</time>
      </trkpt>
      <trkpt lat="45.01198" lon="1.06775">
        <ele>210</ele>
        <time>2017-10-01T08:23:29.000Z</time>
      </trkpt>
      <trkpt lat="45.01195" lon="1.06767">
        <ele>210</ele>
        <time>2017-10-01T08:23:30.000Z</time>
      </trkpt>
      <trkpt lat="45.01192" lon="1.06758">
        <ele>211</ele>
        <time>2017-10-01T08:23:31.000Z</time>
      </trkpt>
      <trkpt lat="45.01189" lon="1.0675">
        <ele>211</ele>
        <time>2017-10-01T08:23:32.000Z</time>
      </trkpt>
      <trkpt lat="45.01186" lon="1.06742">
        <ele>211</ele>
        <time>2017-10-01T08:23:33.000Z</time>
      </trkpt>
      <trkpt lat="45.01182" lon="1.06737">
        <ele>211</ele>
        <time>2017-10-01T08:23:34.000Z</time>
      </trkpt>
      <trkpt lat="45.01179" lon="1.06733">
        <ele>210</ele>
        <time>2017-10-01T08:23:35.000Z</time>
      </trkpt>
      <trkpt lat="45.01175" lon="1.0673">
        <ele>210</ele>
        <time>2017-10-01T08:23:36.000Z</time>
      </trkpt>
      <trkpt lat="45.01171" lon="1.06727">
        <ele>210</ele>
        <time>2017-10-01T08:23:37.000Z</time>
      </trkpt>
      <trkpt lat="45.01167" lon="1.06725">
        <ele>209</ele>
        <time>2017-10-01T08:23:38.000Z</time>
      </trkpt>
      <trkpt lat="45.01162" lon="1.06721">
        <ele>208</ele>
        <time>2017-10-01T08:23:39.000Z</time>
      </trkpt>
      <trkpt lat="45.01158" lon="1.06717">
        <ele>207</ele>
        <time>2017-10-01T08:23:40.000Z</time>
      </trkpt>
      <trkpt lat="45.01155" lon="1.06711">
        <ele>207</ele>
        <time>2017-10-01T08:23:41.000Z</time>
      </trkpt>
      <trkpt lat="45.01151" lon="1.06705">
        <ele>207</ele>
        <time>2017-10-01T08:23:42.000Z</time>
      </trkpt>
      <trkpt lat="45.01148" lon="1.06698">
        <ele>206</ele>
        <time>2017-10-01T08:23:43.000Z</time>
      </trkpt>
      <trkpt lat="45.01145" lon="1.06691">
        <ele>207</ele>
        <time>2017-10-01T08:23:44.000Z</time>
      </trkpt>
      <trkpt lat="45.01142" lon="1.06683">
        <ele>207</ele>
        <time>2017-10-01T08:23:45.000Z</time>
      </trkpt>
      <trkpt lat="45.01138" lon="1.06675">
        <ele>207</ele>
        <time>2017-10-01T08:23:46.000Z</time>
      </trkpt>
      <trkpt lat="45.01133" lon="1.06667">
        <ele>207</ele>
        <time>2017-10-01T08:23:47.000Z</time>
      </trkpt>
      <trkpt lat="45.01129" lon="1.06659">
        <ele>207</ele>
        <time>2017-10-01T08:23:48.000Z</time>
      </trkpt>
      <trkpt lat="45.01124" lon="1.06651">
        <ele>206</ele>
        <time>2017-10-01T08:23:49.000Z</time>
      </trkpt>
      <trkpt lat="45.0112" lon="1.06644">
        <ele>206</ele>
        <time>2017-10-01T08:23:50.000Z</time>
      </trkpt>
      <trkpt lat="45.01116" lon="1.06638">
        <ele>206</ele>
        <time>2017-10-01T08:23:51.000Z</time>
      </trkpt>
      <trkpt lat="45.01112" lon="1.06633">
        <ele>206</ele>
        <time>2017-10-01T08:23:52.000Z</time>
      </trkpt>
      <trkpt lat="45.01107" lon="1.06631">
        <ele>205</ele>
        <time>2017-10-01T08:23:53.000Z</time>
      </trkpt>
      <trkpt lat="45.01101" lon="1.06629">
        <ele>204</ele>
        <time>2017-10-01T08:23:54.000Z</time>
      </trkpt>
      <trkpt lat="45.01095" lon="1.06629">
        <ele>203</ele>
        <time>2017-10-01T08:23:55.000Z</time>
      </trkpt>
      <trkpt lat="45.01088" lon="1.06629">
        <ele>202</ele>
        <time>2017-10-01T08:23:56.000Z</time>
      </trkpt>
      <trkpt lat="45.0108" lon="1.06629">
        <ele>201</ele>
        <time>2017-10-01T08:23:57.000Z</time>
      </trkpt>
      <trkpt lat="45.01073" lon="1.0663">
        <ele>200</ele>
        <time>2017-10-01T08:23:58.000Z</time>
      </trkpt>
      <trkpt lat="45.01065" lon="1.06632">
        <ele>200</ele>
        <time>2017-10-01T08:23:59.000Z</time>
      </trkpt>
      <trkpt lat="45.01059" lon="1.06633">
        <ele>199</ele>
        <time>2017-10-01T08:24:00.000Z</time>
      </trkpt>
      <trkpt lat="45.01052" lon="1.06636">
        <ele>198</ele>
        <time>2017-10-01T08:24:01.000Z</time>
      </trkpt>
      <trkpt lat="45.01046" lon="1.06639">
        <ele>197</ele>
        <time>2017-10-01T08:24:02.000Z</time>
      </trkpt>
      <trkpt lat="45.01041" lon="1.06643">
        <ele>196</ele>
        <time>2017-10-01T08:24:03.000Z</time>
      </trkpt>
      <trkpt lat="45.01035" lon="1.06648">
        <ele>195</ele>
        <time>2017-10-01T08:24:04.000Z</time>
      </trkpt>
      <trkpt lat="45.0103" lon="1.06653">
        <ele>194</ele>
        <time>2017-10-01T08:24:05.000Z</time>
      </trkpt>
      <trkpt lat="45.01025" lon="1.06659">
        <ele>192</ele>
        <time>2017-10-01T08:24:06.000Z</time>
      </trkpt>
      <trkpt lat="45.01019" lon="1.06666">
        <ele>190</ele>
        <time>2017-10-01T08:24:07.000Z</time>
      </trkpt>
      <trkpt lat="45.01013" lon="1.06675">
        <ele>188</ele>
        <time>2017-10-01T08:24:08.000Z</time>
      </trkpt>
      <trkpt lat="45.01006" lon="1.06685">
        <ele>185</ele>
        <time>2017-10-01T08:24:09.000Z</time>
      </trkpt>
      <trkpt lat="45.00998" lon="1.06696">
        <ele>183</ele>
        <time>2017-10-01T08:24:10.000Z</time>
      </trkpt>
      <trkpt lat="45.00989" lon="1.06708">
        <ele>181</ele>
        <time>2017-10-01T08:24:11.000Z</time>
      </trkpt>
      <trkpt lat="45.00981" lon="1.06718">
        <ele>179</ele>
        <time>2017-10-01T08:24:12.000Z</time>
      </trkpt>
      <trkpt lat="45.00974" lon="1.06728">
        <ele>178</ele>
        <time>2017-10-01T08:24:13.000Z</time>
      </trkpt>
      <trkpt lat="45.00968" lon="1.06735">
        <ele>177</ele>
        <time>2017-10-01T08:24:14.000Z</time>
      </trkpt>
      <trkpt lat="45.00963" lon="1.06741">
        <ele>177</ele>
        <time>2017-10-01T08:24:15.000Z</time>
      </trkpt>
      <trkpt lat="45.00959" lon="1.06747">
        <ele>176</ele>
        <time>2017-10-01T08:24:16.000Z</time>
      </trkpt>
      <trkpt lat="45.00956" lon="1.06755">
        <ele>175</ele>
        <time>2017-10-01T08:24:17.000Z</time>
      </trkpt>
      <trkpt lat="45.00952" lon="1.06765">
        <ele>174</ele>
        <time>2017-10-01T08:24:18.000Z</time>
      </trkpt>
      <trkpt lat="45.0095" lon="1.06776">
        <ele>173</ele>
        <time>2017-10-01T08:24:19.000Z</time>
      </trkpt>
      <trkpt lat="45.00947" lon="1.06787">
        <ele>171</ele>
        <time>2017-10-01T08:24:20.000Z</time>
      </trkpt>
      <trkpt lat="45.00944" lon="1.06799">
        <ele>170</ele>
        <time>2017-10-01T08:24:21.000Z</time>
      </trkpt>
      <trkpt lat="45.00942" lon="1.06811">
        <ele>169</ele>
        <time>2017-10-01T08:24:22.000Z</time>
      </trkpt>
      <trkpt lat="45.0094" lon="1.06821">
        <ele>167</ele>
        <time>2017-10-01T08:24:23.000Z</time>
      </trkpt>
      <trkpt lat="45.00938" lon="1.06831">
        <ele>167</ele>
        <time>2017-10-01T08:24:24.000Z</time>
      </trkpt>
      <trkpt lat="45.00935" lon="1.0684">
        <ele>165</ele>
        <time>2017-10-01T08:24:25.000Z</time>
      </trkpt>
      <trkpt lat="45.00932" lon="1.06848">
        <ele>164</ele>
        <time>2017-10-01T08:24:26.000Z</time>
      </trkpt>
      <trkpt lat="45.00929" lon="1.06855">
        <ele>163</ele>
        <time>2017-10-01T08:24:27.000Z</time>
      </trkpt>
      <trkpt lat="45.00925" lon="1.06861">
        <ele>163</ele>
        <time>2017-10-01T08:24:28.000Z</time>
      </trkpt>
      <trkpt lat="45.00921" lon="1.06865">
        <ele>163</ele>
        <time>2017-10-01T08:24:29.000Z</time>
      </trkpt>
      <trkpt lat="45.00917" lon="1.06868">
        <ele>163</ele>
        <time>2017-10-01T08:24:30.000Z</time>
      </trkpt>
      <trkpt lat="45.00913" lon="1.0687">
        <ele>162</ele>
        <time>2017-10-01T08:24:31.000Z</time>
      </trkpt>
      <trkpt lat="45.00909" lon="1.0687">
        <ele>162</ele>
        <time>2017-10-01T08:24:32.000Z</time>
      </trkpt>
      <trkpt lat="45.00905" lon="1.0687">
        <ele>162</ele>
        <time>2017-10-01T08:24:33.000Z</time>
      </trkpt>
      <trkpt lat="45.00901" lon="1.06869">
        <ele>162</ele>
        <time>2017-10-01T08:24:34.000Z</time>
      </trkpt>
      <trkpt lat="45.00897" lon="1.06867">
        <ele>162</ele>
        <time>2017-10-01T08:24:35.000Z</time>
      </trkpt>
      <trkpt lat="45.00893" lon="1.06865">
        <ele>162</ele>
        <time>2017-10-01T08:24:36.000Z</time>
      </trkpt>
      <trkpt lat="45.00889" lon="1.06863">
        <ele>162</ele>
        <time>2017-10-01T08:24:37.000Z</time>
      </trkpt>
      <trkpt lat="45.00884" lon="1.0686">
        <ele>162</ele>
        <time>2017-10-01T08:24:38.000Z</time>
      </trkpt>
      <trkpt lat="45.00879" lon="1.06858">
        <ele>162</ele>
        <time>2017-10-01T08:24:39.000Z</time>
      </trkpt>
      <trkpt lat="45.00874" lon="1.06856">
        <ele>162</ele>
        <time>2017-10-01T08:24:40.000Z</time>
      </trkpt>
      <trkpt lat="45.00869" lon="1.06854">
        <ele>162</ele>
        <time>2017-10-01T08:24:41.000Z</time>
      </trkpt>
      <trkpt lat="45.00864" lon="1.06852">
        <ele>162</ele>
        <time>2017-10-01T08:24:42.000Z</time>
      </trkpt>
      <trkpt lat="45.00858" lon="1.06851">
        <ele>162</ele>
        <time>2017-10-01T08:24:43.000Z</time>
      </trkpt>
      <trkpt lat="45.00853" lon="1.0685">
        <ele>162</ele>
        <time>2017-10-01T08:24:44.000Z</time>
      </trkpt>
      <trkpt lat="45.00847" lon="1.06849">
        <ele>162</ele>
        <time>2017-10-01T08:24:45.000Z</time>
      </trkpt>
      <trkpt lat="45.00841" lon="1.06849">
        <ele>161</ele>
        <time>2017-10-01T08:24:46.000Z</time>
      </trkpt>
      <trkpt lat="45.00834" lon="1.06848">
        <ele>161</ele>
        <time>2017-10-01T08:24:47.000Z</time>
      </trkpt>
      <trkpt lat="45.00828" lon="1.06848">
        <ele>161</ele>
        <time>2017-10-01T08:24:48.000Z</time>
      </trkpt>
      <trkpt lat="45.00821" lon="1.06847">
        <ele>160</ele>
        <time>2017-10-01T08:24:49.000Z</time>
      </trkpt>
      <trkpt lat="45.00814" lon="1.06847">
        <ele>160</ele>
        <time>2017-10-01T08:24:50.000Z</time>
      </trkpt>
      <trkpt lat="45.00807" lon="1.06846">
        <ele>160</ele>
        <time>2017-10-01T08:24:51.000Z</time>
      </trkpt>
      <trkpt lat="45.008" lon="1.06845">
        <ele>159</ele>
        <time>2017-10-01T08:24:52.000Z</time>
      </trkpt>
      <trkpt lat="45.00793" lon="1.06844">
        <ele>159</ele>
        <time>2017-10-01T08:24:53.000Z</time>
      </trkpt>
      <trkpt lat="45.00786" lon="1.06842">
        <ele>159</ele>
        <time>2017-10-01T08:24:54.000Z</time>
      </trkpt>
      <trkpt lat="45.00779" lon="1.0684">
        <ele>159</ele>
        <time>2017-10-01T08:24:55.000Z</time>
      </trkpt>
      <trkpt lat="45.00773" lon="1.06836">
        <ele>159</ele>
        <time>2017-10-01T08:24:56.000Z</time>
      </trkpt>
      <trkpt lat="45.00766" lon="1.06833">
        <ele>159</ele>
        <time>2017-10-01T08:24:57.000Z</time>
      </trkpt>
      <trkpt lat="45.0076" lon="1.06833">
        <ele>158</ele>
        <time>2017-10-01T08:24:58.000Z</time>
      </trkpt>
      <trkpt lat="45.00753" lon="1.06833">
        <ele>158</ele>
        <time>2017-10-01T08:24:59.000Z</time>
      </trkpt>
      <trkpt lat="45.00746" lon="1.06834">
        <ele>157</ele>
        <time>2017-10-01T08:25:00.000Z</time>
      </trkpt>
      <trkpt lat="45.00739" lon="1.06836">
        <ele>156</ele>
        <time>2017-10-01T08:25:01.000Z</time>
      </trkpt>
      <trkpt lat="45.00734" lon="1.06839">
        <ele>155</ele>
        <time>2017-10-01T08:25:02.000Z</time>
      </trkpt>
      <trkpt lat="45.00729" lon="1.06843">
        <ele>154</ele>
        <time>2017-10-01T08:25:03.000Z</time>
      </trkpt>
      <trkpt lat="45.00725" lon="1.06843">
        <ele>154</ele>
        <time>2017-10-01T08:25:04.000Z</time>
      </trkpt>
      <trkpt lat="45.00721" lon="1.0684">
        <ele>154</ele>
        <time>2017-10-01T08:25:05.000Z</time>
      </trkpt>
      <trkpt lat="45.00717" lon="1.06834">
        <ele>155</ele>
        <time>2017-10-01T08:25:06.000Z</time>
      </trkpt>
      <trkpt lat="45.00713" lon="1.06827">
        <ele>155</ele>
        <time>2017-10-01T08:25:07.000Z</time>
      </trkpt>
      <trkpt lat="45.00709" lon="1.06821">
        <ele>155</ele>
        <time>2017-10-01T08:25:08.000Z</time>
      </trkpt>
      <trkpt lat="45.00705" lon="1.06815">
        <ele>155</ele>
        <time>2017-10-01T08:25:09.000Z</time>
      </trkpt>
      <trkpt lat="45.00701" lon="1.0681">
        <ele>154</ele>
        <time>2017-10-01T08:25:10.000Z</time>
      </trkpt>
      <trkpt lat="45.00698" lon="1.06803">
        <ele>154</ele>
        <time>2017-10-01T08:25:11.000Z</time>
      </trkpt>
      <trkpt lat="45.00694" lon="1.06796">
        <ele>154</ele>
        <time>2017-10-01T08:25:12.000Z</time>
      </trkpt>
      <trkpt lat="45.00691" lon="1.06789">
        <ele>154</ele>
        <time>2017-10-01T08:25:13.000Z</time>
      </trkpt>
      <trkpt lat="45.00688" lon="1.06781">
        <ele>154</ele>
        <time>2017-10-01T08:25:14.000Z</time>
      </trkpt>
      <trkpt lat="45.00685" lon="1.06774">
        <ele>153</ele>
        <time>2017-10-01T08:25:15.000Z</time>
      </trkpt>
      <trkpt lat="45.00682" lon="1.06767">
        <ele>153</ele>
        <time>2017-10-01T08:25:16.000Z</time>
      </trkpt>
      <trkpt lat="45.00679" lon="1.06761">
        <ele>153</ele>
        <time>2017-10-01T08:25:17.000Z</time>
      </trkpt>
      <trkpt lat="45.00675" lon="1.06756">
        <ele>152</ele>
        <time>2017-10-01T08:25:18.000Z</time>
      </trkpt>
      <trkpt lat="45.00671" lon="1.06754">
        <ele>151</ele>
        <time>2017-10-01T08:25:19.000Z</time>
      </trkpt>
      <trkpt lat="45.00667" lon="1.06754">
        <ele>151</ele>
        <time>2017-10-01T08:25:20.000Z</time>
      </trkpt>
      <trkpt lat="45.00662" lon="1.06756">
        <ele>149</ele>
        <time>2017-10-01T08:25:21.000Z</time>
      </trkpt>
      <trkpt lat="45.00655" lon="1.06761">
        <ele>148</ele>
        <time>2017-10-01T08:25:22.000Z</time>
      </trkpt>
      <trkpt lat="45.00648" lon="1.06767">
        <ele>146</ele>
        <time>2017-10-01T08:25:23.000Z</time>
      </trkpt>
      <trkpt lat="45.0064" lon="1.06774">
        <ele>144</ele>
        <time>2017-10-01T08:25:24.000Z</time>
      </trkpt>
      <trkpt lat="45.00632" lon="1.0678">
        <ele>142</ele>
        <time>2017-10-01T08:25:25.000Z</time>
      </trkpt>
      <trkpt lat="45.00625" lon="1.06786">
        <ele>140</ele>
        <time>2017-10-01T08:25:26.000Z</time>
      </trkpt>
      <trkpt lat="45.00619" lon="1.0679">
        <ele>139</ele>
        <time>2017-10-01T08:25:27.000Z</time>
      </trkpt>
      <trkpt lat="45.00614" lon="1.06795">
        <ele>137</ele>
        <time>2017-10-01T08:25:28.000Z</time>
      </trkpt>
      <trkpt lat="45.0061" lon="1.06799">
        <ele>136</ele>
        <time>2017-10-01T08:25:29.000Z</time>
      </trkpt>
      <trkpt lat="45.00606" lon="1.06803">
        <ele>135</ele>
        <time>2017-10-01T08:25:30.000Z</time>
      </trkpt>
      <trkpt lat="45.00603" lon="1.06807">
        <ele>134</ele>
        <time>2017-10-01T08:25:31.000Z</time>
      </trkpt>
      <trkpt lat="45.00601" lon="1.0681">
        <ele>134</ele>
        <time>2017-10-01T08:25:32.000Z</time>
      </trkpt>
      <trkpt lat="45.006" lon="1.06813">
        <ele>133</ele>
        <time>2017-10-01T08:25:33.000Z</time>
      </trkpt>
      <trkpt lat="45.00599" lon="1.06816">
        <ele>133</ele>
        <time>2017-10-01T08:25:34.000Z</time>
      </trkpt>
      <trkpt lat="45.00598" lon="1.06821">
        <ele>133</ele>
        <time>2017-10-01T08:25:35.000Z</time>
      </trkpt>
      <trkpt lat="45.00597" lon="1.06826">
        <ele>132</ele>
        <time>2017-10-01T08:25:36.000Z</time>
      </trkpt>
      <trkpt lat="45.00596" lon="1.06831">
        <ele>132</ele>
        <time>2017-10-01T08:25:37.000Z</time>
      </trkpt>
      <trkpt lat="45.00594" lon="1.06837">
        <ele>131</ele>
        <time>2017-10-01T08:25:38.000Z</time>
      </trkpt>
      <trkpt lat="45.00593" lon="1.06844">
        <ele>131</ele>
        <time>2017-10-01T08:25:39.000Z</time>
      </trkpt>
      <trkpt lat="45.00591" lon="1.06851">
        <ele>130</ele>
        <time>2017-10-01T08:25:40.000Z</time>
      </trkpt>
      <trkpt lat="45.00589" lon="1.06858">
        <ele>129</ele>
        <time>2017-10-01T08:25:41.000Z</time>
      </trkpt>
      <trkpt lat="45.00587" lon="1.06864">
        <ele>129</ele>
        <time>2017-10-01T08:25:42.000Z</time>
      </trkpt>
      <trkpt lat="45.00584" lon="1.0687">
        <ele>128</ele>
        <time>2017-10-01T08:25:43.000Z</time>
      </trkpt>
      <trkpt lat="45.00579" lon="1.06876">
        <ele>127</ele>
        <time>2017-10-01T08:25:44.000Z</time>
      </trkpt>
      <trkpt lat="45.00574" lon="1.06882">
        <ele>126</ele>
        <time>2017-10-01T08:25:45.000Z</time>
      </trkpt>
      <trkpt lat="45.0057" lon="1.06889">
        <ele>124</ele>
        <time>2017-10-01T08:25:46.000Z</time>
      </trkpt>
      <trkpt lat="45.00566" lon="1.06897">
        <ele>123</ele>
        <time>2017-10-01T08:25:47.000Z</time>
      </trkpt>
      <trkpt lat="45.00563" lon="1.06907">
        <ele>123</ele>
        <time>2017-10-01T08:25:48.000Z</time>
      </trkpt>
      <trkpt lat="45.00561" lon="1.06916">
        <ele>122</ele>
        <time>2017-10-01T08:25:49.000Z</time>
      </trkpt>
      <trkpt lat="45.0056" lon="1.06924">
        <ele>121</ele>
        <time>2017-10-01T08:25:50.000Z</time>
      </trkpt>
      <trkpt lat="45.00559" lon="1.06931">
        <ele>120</ele>
        <time>2017-10-01T08:25:51.000Z</time>
      </trkpt>
      <trkpt lat="45.00557" lon="1.06937">
        <ele>119</ele>
        <time>2017-10-01T08:25:52.000Z</time>
      </trkpt>
      <trkpt lat="45.00555" lon="1.06943">
        <ele>118</ele>
        <time>2017-10-01T08:25:53.000Z</time>
      </trkpt>
      <trkpt lat="45.00551" lon="1.06949">
        <ele>117</ele>
        <time>2017-10-01T08:25:54.000Z</time>
      </trkpt>
      <trkpt lat="45.00547" lon="1.06954">
        <ele>116</ele>
        <time>2017-10-01T08:25:55.000Z</time>
      </trkpt>
      <trkpt lat="45.00542" lon="1.06959">
        <ele>115</ele>
        <time>2017-10-01T08:25:56.000Z</time>
      </trkpt>
      <trkpt lat="45.00537" lon="1.06964">
        <ele>114</ele>
        <time>2017-10-01T08:25:57.000Z</time>
      </trkpt>
      <trkpt lat="45.00533" lon="1.06967">
        <ele>113</ele>
        <time>2017-10-01T08:25:58.000Z</time>
      </trkpt>
      <trkpt lat="45.00528" lon="1.06971">
        <ele>112</ele>
        <time>2017-10-01T08:25:59.000Z</time>
      </trkpt>
      <trkpt lat="45.00525" lon="1.06973">
        <ele>111</ele>
        <time>2017-10-01T08:26:00.000Z</time>
      </trkpt>
      <trkpt lat="45.00522" lon="1.06975">
        <ele>111</ele>
        <time>2017-10-01T08:26:01.000Z</time>
      </trkpt>
      <trkpt lat="45.00519" lon="1.06977">
        <ele>110</ele>
        <time>2017-10-01T08:26:02.000Z</time>
      </trkpt>
      <trkpt lat="45.00516" lon="1.06978">
        <ele>110</ele>
        <time>2017-10-01T08:26:03.000Z</time>
      </trkpt>
      <trkpt lat="45.00514" lon="1.06979">
        <ele>109</ele>
        <time>2017-10-01T08:26:04.000Z</time>
      </trkpt>
      <trkpt lat="45.00512" lon="1.0698">
        <ele>109</ele>
        <time>2017-10-01T08:26:05.000Z</time>
      </trkpt>
      <trkpt lat="45.00511" lon="1.0698">
        <ele>109</ele>
        <time>2017-10-01T08:26:06.000Z</time>
      </trkpt>
      <trkpt lat="45.0051" lon="1.06981">
        <ele>109</ele>
        <time>2017-10-01T08:26:07.000Z</time>
      </trkpt>
      <trkpt lat="45.00509" lon="1.06982">
        <ele>108</ele>
        <time>2017-10-01T08:26:08.000Z</time>
      </trkpt>
      <trkpt lat="45.00508" lon="1.06982">
        <ele>108</ele>
        <time>2017-10-01T08:26:09.000Z</time>
      </trkpt>
      <trkpt lat="45.00507" lon="1.06983">
        <ele>108</ele>
        <time>2017-10-01T08:26:10.000Z</time>
      </trkpt>
      <trkpt lat="45.00506" lon="1.06983">
        <ele>108</ele>
        <time>2017-10-01T08:26:11.000Z</time>
      </trkpt>
      <trkpt lat="45.00505" lon="1.06984">
        <ele>108</ele>
        <time>2017-10-01T08:26:12.000Z</time>
      </trkpt>
      <trkpt lat="45.00503" lon="1.06984">
        <ele>108</ele>
        <time>2017-10-01T08:26:13.000Z</time>
      </trkpt>
      <trkpt lat="45.00502" lon="1.06985">
        <ele>107</ele>
        <time>2017-10-01T08:26:14.000Z</time>
      </trkpt>
      <trkpt lat="45.00501" lon="1.06985">
        <ele>107</ele>
        <time>2017-10-01T08:26:15.000Z</time>
      </trkpt>
      <trkpt lat="45.00499" lon="1.06986">
        <ele>107</ele>
        <time>2017-10-01T08:26:16.000Z</time>
      </trkpt>
      <trkpt lat="45.00498" lon="1.06986">
        <ele>107</ele>
        <time>2017-10-01T08:26:17.000Z</time>
      </trkpt>
      <trkpt lat="45.00496" lon="1.06986">
        <ele>107</ele>
        <time>2017-10-01T08:26:18.000Z</time>
      </trkpt>
      <trkpt lat="45.00494" lon="1.06986">
        <ele>106</ele>
        <time>2017-10-01T08:26:19.000Z</time>
      </trkpt>
      <trkpt lat="45.00492" lon="1.06987">
        <ele>106</ele>
        <time>2017-10-01T08:26:20.000Z</time>
      </trkpt>
      <trkpt lat="45.0049" lon="1.06988">
        <ele>106</ele>
        <time>2017-10-01T08:26:21.000Z</time>
      </trkpt>
      <trkpt lat="45.00488" lon="1.0699">
        <ele>105</ele>
        <time>2017-10-01T08:26:22.000Z</time>
      </trkpt>
      <trkpt lat="45.00485" lon="1.06992">
        <ele>105</ele>
        <time>2017-10-01T08:26:23.000Z</time>
      </trkpt>
      <trkpt lat="45.00482" lon="1.06994">
        <ele>104</ele>
        <time>2017-10-01T08:26:24.000Z</time>
      </trkpt>
      <trkpt lat="45.00479" lon="1.06994">
        <ele>104</ele>
        <time>2017-10-01T08:26:25.000Z</time>
      </trkpt>
      <trkpt lat="45.00478" lon="1.06991">
        <ele>104</ele>
        <time>2017-10-01T08:26:26.000Z</time>
      </trkpt>
      <trkpt lat="45.00476" lon="1.06987">
        <ele>104</ele>
        <time>2017-10-01T08:26:27.000Z</time>
      </trkpt>
      <trkpt lat="45.00475" lon="1.06982">
        <ele>104</ele>
        <time>2017-10-01T08:26:28.000Z</time>
      </trkpt>
      <trkpt lat="45.00474" lon="1.06977">
        <ele>104</ele>
        <time>2017-10-01T08:26:29.000Z</time>
      </trkpt>
      <trkpt lat="45.00473" lon="1.06971">
        <ele>105</ele>
        <time>2017-10-01T08:26:30.000Z</time>
      </trkpt>
      <trkpt lat="45.00473" lon="1.06966">
        <ele>105</ele>
        <time>2017-10-01T08:26:31.000Z</time>
      </trkpt>
      <trkpt lat="45.00472" lon="1.0696">
        <ele>105</ele>
        <time>2017-10-01T08:26:32.000Z</time>
      </trkpt>
      <trkpt lat="45.00472" lon="1.06955">
        <ele>106</ele>
        <time>2017-10-01T08:26:33.000Z</time>
      </trkpt>
      <trkpt lat="45.00472" lon="1.06949">
        <ele>106</ele>
        <time>2017-10-01T08:26:34.000Z</time>
      </trkpt>
      <trkpt lat="45.00473" lon="1.06943">
        <ele>106</ele>
        <time>2017-10-01T08:26:35.000Z</time>
      </trkpt>
      <trkpt lat="45.00473" lon="1.06938">
        <ele>107</ele>
        <time>2017-10-01T08:26:36.000Z</time>
      </trkpt>
      <trkpt lat="45.00473" lon="1.06932">
        <ele>107</ele>
        <time>2017-10-01T08:26:37.000Z</time>
      </trkpt>
      <trkpt lat="45.00474" lon="1.06926">
        <ele>107</ele>
        <time>2017-10-01T08:26:38.000Z</time>
      </trkpt>
      <trkpt lat="45.00475" lon="1.06921">
        <ele>108</ele>
        <time>2017-10-01T08:26:39.000Z</time>
      </trkpt>
      <trkpt lat="45.00475" lon="1.06916">
        <ele>108</ele>
        <time>2017-10-01T08:26:40.000Z</time>
      </trkpt>
      <trkpt lat="45.00475" lon="1.06911">
        <ele>108</ele>
        <time>2017-10-01T08:26:41.000Z</time>
      </trkpt>
      <trkpt lat="45.00475" lon="1.06907">
        <ele>108</ele>
        <time>2017-10-01T08:26:42.000Z</time>
      </trkpt>
      <trkpt lat="45.00475" lon="1.06903">
        <ele>108</ele>
        <time>2017-10-01T08:26:43.000Z</time>
      </trkpt>
      <trkpt lat="45.00476" lon="1.069">
        <ele>109</ele>
        <time>2017-10-01T08:26:44.000Z</time>
      </trkpt>
      <trkpt lat="45.00476" lon="1.06896">
        <ele>109</ele>
        <time>2017-10-01T08:26:45.000Z</time>
      </trkpt>
      <trkpt lat="45.00477" lon="1.06892">
        <ele>109</ele>
        <time>2017-10-01T08:26:46.000Z</time>
      </trkpt>
      <trkpt lat="45.00478" lon="1.06887">
        <ele>109</ele>
        <time>2017-10-01T08:26:47.000Z</time>
      </trkpt>
      <trkpt lat="45.00479" lon="1.06882">
        <ele>109</ele>
        <time>2017-10-01T08:26:48.000Z</time>
      </trkpt>
      <trkpt lat="45.00481" lon="1.06877">
        <ele>109</ele>
        <time>2017-10-01T08:26:49.000Z</time>
      </trkpt>
      <trkpt lat="45.00482" lon="1.06872">
        <ele>109</ele>
        <time>2017-10-01T08:26:50.000Z</time>
      </trkpt>
      <trkpt lat="45.00483" lon="1.06866">
        <ele>110</ele>
        <time>2017-10-01T08:26:51.000Z</time>
      </trkpt>
      <trkpt lat="45.00484" lon="1.06861">
        <ele>110</ele>
        <time>2017-10-01T08:26:52.000Z</time>
      </trkpt>
      <trkpt lat="45.00483" lon="1.06856">
        <ele>110</ele>
        <time>2017-10-01T08:26:53.000Z</time>
      </trkpt>
      <trkpt lat="45.00483" lon="1.0685">
        <ele>110</ele>
        <time>2017-10-01T08:26:54.000Z</time>
      </trkpt>
      <trkpt lat="45.00481" lon="1.06845">
        <ele>110</ele>
        <time>2017-10-01T08:26:55.000Z</time>
      </trkpt>
      <trkpt lat="45.00479" lon="1.0684">
        <ele>110</ele>
        <time>2017-10-01T08:26:56.000Z</time>
      </trkpt>
      <trkpt lat="45.00477" lon="1.06836">
        <ele>110</ele>
        <time>2017-10-01T08:26:57.000Z</time>
      </trkpt>
      <trkpt lat="45.00474" lon="1.06832">
        <ele>110</ele>
        <time>2017-10-01T08:26:58.000Z</time>
      </trkpt>
      <trkpt lat="45.00471" lon="1.06828">
        <ele>111</ele>
        <time>2017-10-01T08:26:59.000Z</time>
      </trkpt>
      <trkpt lat="45.00468" lon="1.06825">
        <ele>111</ele>
        <time>2017-10-01T08:27:00.000Z</time>
      </trkpt>
      <trkpt lat="45.00465" lon="1.06823">
        <ele>111</ele>
        <time>2017-10-01T08:27:01.000Z</time>
      </trkpt>
      <trkpt lat="45.00463" lon="1.0682">
        <ele>111</ele>
        <time>2017-10-01T08:27:02.000Z</time>
      </trkpt>
      <trkpt lat="45.0046" lon="1.06818">
        <ele>111</ele>
        <time>2017-10-01T08:27:03.000Z</time>
      </trkpt>
      <trkpt lat="45.00458" lon="1.06815">
        <ele>111</ele>
        <time>2017-10-01T08:27:04.000Z</time>
      </trkpt>
      <trkpt lat="45.00457" lon="1.06813">
        <ele>111</ele>
        <time>2017-10-01T08:27:05.000Z</time>
      </trkpt>
      <trkpt lat="45.00456" lon="1.0681">
        <ele>111</ele>
        <time>2017-10-01T08:27:06.000Z</time>
      </trkpt>
      <trkpt lat="45.00455" lon="1.06808">
        <ele>111</ele>
        <time>2017-10-01T08:27:07.000Z</time>
      </trkpt>
      <trkpt lat="45.00454" lon="1.06805">
        <ele>112</ele>
        <time>2017-10-01T08:27:08.000Z</time>
      </trkpt>
      <trkpt lat="45.00453" lon="1.06803">
        <ele>112</ele>
        <time>2017-10-01T08:27:09.000Z</time>
      </trkpt>
      <trkpt lat="45.00451" lon="1.06801">
        <ele>112</ele>
        <time>2017-10-01T08:27:10.000Z</time>
      </trkpt>
      <trkpt lat="45.00448" lon="1.068">
        <ele>112</ele>
        <time>2017-10-01T08:27:11.000Z</time>
      </trkpt>
      <trkpt lat="45.00445" lon="1.06798">
        <ele>112</ele>
        <time>2017-10-01T08:27:12.000Z</time>
      </trkpt>
      <trkpt lat="45.00442" lon="1.06798">
        <ele>112</ele>
        <time>2017-10-01T08:27:13.000Z</time>
      </trkpt>
      <trkpt lat="45.00439" lon="1.06798">
        <ele>112</ele>
        <time>2017-10-01T08:27:14.000Z</time>
      </trkpt>
      <trkpt lat="45.00436" lon="1.06798">
        <ele>111</ele>
        <time>2017-10-01T08:27:15.000Z</time>
      </trkpt>
      <trkpt lat="45.00434" lon="1.068">
        <ele>111</ele>
        <time>2017-10-01T08:27:16.000Z</time>
      </trkpt>
      <trkpt lat="45.00432" lon="1.06801">
        <ele>111</ele>
        <time>2017-10-01T08:27:17.000Z</time>
      </trkpt>
      <trkpt lat="45.00431" lon="1.06803">
        <ele>111</ele>
        <time>2017-10-01T08:27:18.000Z</time>
      </trkpt>
      <trkpt lat="45.0043" lon="1.06805">
        <ele>111</ele>
        <time>2017-10-01T08:27:32.000Z</time>
      </trkpt>
      <trkpt lat="45.0043" lon="1.06805">
        <ele>111</ele>
        <time>2017-10-01T08:27:32.000Z</time>
      </trkpt>
      <trkpt lat="45.0043" lon="1.06805">
        <ele>111</ele>
        <time>2017-10-01T08:27:32.000Z</time>
      </trkpt>
      <trkpt lat="45.0043" lon="1.06805">
        <ele>111</ele>
        <time>2017-10-01T08:27:32.000Z</time>
      </trkpt>
      <trkpt lat="45.0043" lon="1.06805">
        <ele>111</ele>
        <time>2017-10-01T08:27:32.000Z</time>
      </trkpt>
      <trkpt lat="45.0043" lon="1.06805">
        <ele>111</ele>
        <time>2017-10-01T08:27:32.000Z</time>
      </trkpt>
      <trkpt lat="45.0043" lon="1.06805">
        <ele>111</ele>
        <time>2017-10-01T08:27:32.000Z</time>
      </trkpt>
      <trkpt lat="45.0043" lon="1.06805">
        <ele>111</ele>
        <time>2017-10-01T08:27:32.000Z</time>
      </trkpt>
      <trkpt lat="45.0043" lon="1.06805">
        <ele>111</ele>
        <time>2017-10-01T08:27:32.000Z</time>
      </trkpt>
      <trkpt lat="45.0043" lon="1.06805">
        <ele>111</ele>
        <time>2017-10-01T08:27:32.000Z</time>
      </trkpt>
      <trkpt lat="45.0043" lon="1.06805">
        <ele>111</ele>
        <time>2017-10-01T08:27:32.000Z</time>
      </trkpt>
      <trkpt lat="45.0043" lon="1.06805">
        <ele>111</ele>
        <time>2017-10-01T08:27:32.000Z</time>
      </trkpt>
      <trkpt lat="45.0043" lon="1.06805">
        <ele>111</ele>
        <time>2017-10-01T08:27:32.000Z</time>
      </trkpt>
      <trkpt lat="45.0043" lon="1.06805">
        <ele>111</ele>
        <time>2017-10-01T08:27:32.000Z</time>
      </trkpt>
      <trkpt lat="45.0043" lon="1.06806">
        <ele>111</ele>
        <time>2017-10-01T08:27:33.000Z</time>
      </trkpt>
      <trkpt lat="45.0043" lon="1.06807">
        <ele>111</ele>
        <time>2017-10-01T08:27:34.000Z</time>
      </trkpt>
      <trkpt lat="45.0043" lon="1.06809">
        <ele>111</ele>
        <time>2017-10-01T08:27:35.000Z</time>
      </trkpt>
      <trkpt lat="45.00431" lon="1.06811">
        <ele>111</ele>
        <time>2017-10-01T08:27:36.000Z</time>
      </trkpt>
      <trkpt lat="45.00431" lon="1.06813">
        <ele>111</ele>
        <time>2017-10-01T08:27:37.000Z</time>
      </trkpt>
      <trkpt lat="45.00431" lon="1.06814">
        <ele>111</ele>
        <time>2017-10-01T08:27:39.000Z</time>
      </trkpt>
      <trkpt lat="45.00431" lon="1.06814">
        <ele>111</ele>
        <time>2017-10-01T08:27:39.000Z</time>
      </trkpt>
      <trkpt lat="45.00431" lon="1.06815">
        <ele>111</ele>
        <time>2017-10-01T08:27:40.000Z</time>
      </trkpt>
      <trkpt lat="45.00432" lon="1.06815">
        <ele>111</ele>
        <time>2017-10-01T08:27:41.000Z</time>
      </trkpt>
      <trkpt lat="45.00432" lon="1.06816">
        <ele>110</ele>
        <time>2017-10-01T08:27:56.000Z</time>
      </trkpt>
      <trkpt lat="45.00432" lon="1.06816">
        <ele>110</ele>
        <time>2017-10-01T08:27:56.000Z</time>
      </trkpt>
      <trkpt lat="45.00432" lon="1.06816">
        <ele>110</ele>
        <time>2017-10-01T08:27:56.000Z</time>
      </trkpt>
      <trkpt lat="45.00432" lon="1.06816">
        <ele>110</ele>
        <time>2017-10-01T08:27:56.000Z</time>
      </trkpt>
      <trkpt lat="45.00432" lon="1.06816">
        <ele>110</ele>
        <time>2017-10-01T08:27:56.000Z</time>
      </trkpt>
      <trkpt lat="45.00432" lon="1.06816">
        <ele>110</ele>
        <time>2017-10-01T08:27:56.000Z</time>
      </trkpt>
      <trkpt lat="45.00432" lon="1.06816">
        <ele>110</ele>
        <time>2017-10-01T08:27:56.000Z</time>
      </trkpt>
      <trkpt lat="45.00432" lon="1.06816">
        <ele>110</ele>
        <time>2017-10-01T08:27:56.000Z</time>
      </trkpt>
      <trkpt lat="45.00432" lon="1.06816">
        <ele>110</ele>
        <time>2017-10-01T08:27:56.000Z</time>
      </trkpt>
      <trkpt lat="45.00432" lon="1.06816">
        <ele>110</ele>
        <time>2017-10-01T08:27:56.000Z</time>
      </trkpt>
      <trkpt lat="45.00432" lon="1.06816">
        <ele>110</ele>
        <time>2017-10-01T08:27:56.000Z</time>
      </trkpt>
      <trkpt lat="45.00432" lon="1.06816">
        <ele>110</ele>
        <time>2017-10-01T08:27:56.000Z</time>
      </trkpt>
      <trkpt lat="45.00432" lon="1.06816">
        <ele>110</ele>
        <time>2017-10-01T08:27:56.000Z</time>
      </trkpt>
      <trkpt lat="45.00432" lon="1.06816">
        <ele>110</ele>
        <time>2017-10-01T08:27:56.000Z</time>
      </trkpt>
      <trkpt lat="45.00432" lon="1.06816">
        <ele>110</ele>
        <time>2017-10-01T08:27:56.000Z</time>
      </trkpt>
      <trkpt lat="45.00432" lon="1.06817">
        <ele>110</ele>
        <time>2017-10-01T08:28:00.000Z</time>
      </trkpt>
      <trkpt lat="45.00432" lon="1.06817">
        <ele>110</ele>
        <time>2017-10-01T08:28:00.000Z</time>
      </trkpt>
      <trkpt lat="45.00432" lon="1.06817">
        <ele>110</ele>
        <time>2017-10-01T08:28:00.000Z</time>
      </trkpt>
      <trkpt lat="45.00432" lon="1.06817">
        <ele>110</ele>
        <time>2017-10-01T08:28:00.000Z</time>
      </trkpt>
      <trkpt lat="45.00432" lon="1.06818">
        <ele>110</ele>
        <time>2017-10-01T08:28:02.000Z</time>
      </trkpt>
      <trkpt lat="45.00432" lon="1.06818">
        <ele>110</ele>
        <time>2017-10-01T08:28:02.000Z</time>
      </trkpt>
      <trkpt lat="45.00432" lon="1.06819">
        <ele>110</ele>
        <time>2017-10-01T08:28:04.000Z</time>
      </trkpt>
      <trkpt lat="45.00432" lon="1.06819">
        <ele>110</ele>
        <time>2017-10-01T08:28:04.000Z</time>
      </trkpt>
      <trkpt lat="45.00433" lon="1.0682">
        <ele>110</ele>
        <time>2017-10-01T08:28:05.000Z</time>
      </trkpt>
      <trkpt lat="45.00433" lon="1.06822">
        <ele>110</ele>
        <time>2017-10-01T08:28:06.000Z</time>
      </trkpt>
      <trkpt lat="45.00433" lon="1.06826">
        <ele>110</ele>
        <time>2017-10-01T08:28:07.000Z</time>
      </trkpt>
      <trkpt lat="45.00434" lon="1.06829">
        <ele>110</ele>
        <time>2017-10-01T08:28:08.000Z</time>
      </trkpt>
      <trkpt lat="45.00434" lon="1.0683">
        <ele>110</ele>
        <time>2017-10-01T08:28:09.000Z</time>
      </trkpt>
      <trkpt lat="45.00434" lon="1.06833">
        <ele>110</ele>
        <time>2017-10-01T08:28:10.000Z</time>
      </trkpt>
      <trkpt lat="45.00434" lon="1.06836">
        <ele>110</ele>
        <time>2017-10-01T08:28:11.000Z</time>
      </trkpt>
      <trkpt lat="45.00434" lon="1.06838">
        <ele>110</ele>
        <time>2017-10-01T08:28:12.000Z</time>
      </trkpt>
      <trkpt lat="45.00434" lon="1.06839">
        <ele>109</ele>
        <time>2017-10-01T08:28:13.000Z</time>
      </trkpt>
      <trkpt lat="45.00433" lon="1.06841">
        <ele>109</ele>
        <time>2017-10-01T08:28:14.000Z</time>
      </trkpt>
      <trkpt lat="45.00431" lon="1.06843">
        <ele>109</ele>
        <time>2017-10-01T08:28:15.000Z</time>
      </trkpt>
      <trkpt lat="45.0043" lon="1.06844">
        <ele>109</ele>
        <time>2017-10-01T08:28:16.000Z</time>
      </trkpt>
      <trkpt lat="45.00428" lon="1.06845">
        <ele>109</ele>
        <time>2017-10-01T08:28:17.000Z</time>
      </trkpt>
      <trkpt lat="45.00427" lon="1.06847">
        <ele>109</ele>
        <time>2017-10-01T08:28:19.000Z</time>
      </trkpt>
      <trkpt lat="45.00427" lon="1.06847">
        <ele>109</ele>
        <time>2017-10-01T08:28:19.000Z</time>
      </trkpt>
      <trkpt lat="45.00426" lon="1.06848">
        <ele>109</ele>
        <time>2017-10-01T08:28:20.000Z</time>
      </trkpt>
      <trkpt lat="45.00426" lon="1.06849">
        <ele>109</ele>
        <time>2017-10-01T08:28:22.000Z</time>
      </trkpt>
      <trkpt lat="45.00426" lon="1.06849">
        <ele>109</ele>
        <time>2017-10-01T08:28:22.000Z</time>
      </trkpt>
      <trkpt lat="45.00425" lon="1.06849">
        <ele>109</ele>
        <time>2017-10-01T08:28:25.000Z</time>
      </trkpt>
      <trkpt lat="45.00425" lon="1.06849">
        <ele>109</ele>
        <time>2017-10-01T08:28:25.000Z</time>
      </trkpt>
      <trkpt lat="45.00425" lon="1.06849">
        <ele>109</ele>
        <time>2017-10-01T08:28:25.000Z</time>
      </trkpt>
      <trkpt lat="45.00425" lon="1.0685">
        <ele>109</ele>
        <time>2017-10-01T08:28:26.000Z</time>
      </trkpt>
      <trkpt lat="45.00425" lon="1.06852">
        <ele>109</ele>
        <time>2017-10-01T08:28:27.000Z</time>
      </trkpt>
      <trkpt lat="45.00425" lon="1.06856">
        <ele>108</ele>
        <time>2017-10-01T08:28:28.000Z</time>
      </trkpt>
      <trkpt lat="45.00426" lon="1.06861">
        <ele>108</ele>
        <time>2017-10-01T08:28:29.000Z</time>
      </trkpt>
      <trkpt lat="45.00428" lon="1.06867">
        <ele>108</ele>
        <time>2017-10-01T08:28:30.000Z</time>
      </trkpt>
      <trkpt lat="45.00429" lon="1.06873">
        <ele>108</ele>
        <time>2017-10-01T08:28:31.000Z</time>
      </trkpt>
      <trkpt lat="45.0043" lon="1.06879">
        <ele>107</ele>
        <time>2017-10-01T08:28:32.000Z</time>
      </trkpt>
      <trkpt lat="45.00431" lon="1.06885">
        <ele>107</ele>
        <time>2017-10-01T08:28:33.000Z</time>
      </trkpt>
      <trkpt lat="45.00431" lon="1.06891">
        <ele>107</ele>
        <time>2017-10-01T08:28:34.000Z</time>
      </trkpt>
      <trkpt lat="45.0043" lon="1.06896">
        <ele>106</ele>
        <time>2017-10-01T08:28:35.000Z</time>
      </trkpt>
      <trkpt lat="45.00428" lon="1.06901">
        <ele>106</ele>
        <time>2017-10-01T08:28:36.000Z</time>
      </trkpt>
      <trkpt lat="45.00426" lon="1.06906">
        <ele>106</ele>
        <time>2017-10-01T08:28:37.000Z</time>
      </trkpt>
      <trkpt lat="45.00425" lon="1.0691">
        <ele>105</ele>
        <time>2017-10-01T08:28:38.000Z</time>
      </trkpt>
      <trkpt lat="45.00424" lon="1.06914">
        <ele>105</ele>
        <time>2017-10-01T08:28:39.000Z</time>
      </trkpt>
      <trkpt lat="45.00424" lon="1.06918">
        <ele>105</ele>
        <time>2017-10-01T08:28:40.000Z</time>
      </trkpt>
      <trkpt lat="45.00423" lon="1.06923">
        <ele>104</ele>
        <time>2017-10-01T08:28:41.000Z</time>
      </trkpt>
      <trkpt lat="45.00422" lon="1.06927">
        <ele>104</ele>
        <time>2017-10-01T08:28:42.000Z</time>
      </trkpt>
      <trkpt lat="45.00422" lon="1.06932">
        <ele>103</ele>
        <time>2017-10-01T08:28:43.000Z</time>
      </trkpt>
      <trkpt lat="45.00421" lon="1.06937">
        <ele>103</ele>
        <time>2017-10-01T08:28:44.000Z</time>
      </trkpt>
      <trkpt lat="45.00422" lon="1.06943">
        <ele>102</ele>
        <time>2017-10-01T08:28:45.000Z</time>
      </trkpt>
      <trkpt lat="45.00423" lon="1.06949">
        <ele>102</ele>
        <time>2017-10-01T08:28:46.000Z</time>
      </trkpt>
      <trkpt lat="45.00425" lon="1.06957">
        <ele>101</ele>
        <time>2017-10-01T08:28:47.000Z</time>
      </trkpt>
      <trkpt lat="45.00428" lon="1.06965">
        <ele>101</ele>
        <time>2017-10-01T08:28:48.000Z</time>
      </trkpt>
      <trkpt lat="45.00431" lon="1.06973">
        <ele>100</ele>
        <time>2017-10-01T08:28:49.000Z</time>
      </trkpt>
      <trkpt lat="45.00434" lon="1.0698">
        <ele>100</ele>
        <time>2017-10-01T08:28:50.000Z</time>
      </trkpt>
      <trkpt lat="45.00436" lon="1.06987">
        <ele>99</ele>
        <time>2017-10-01T08:28:51.000Z</time>
      </trkpt>
      <trkpt lat="45.00437" lon="1.06994">
        <ele>99</ele>
        <time>2017-10-01T08:28:52.000Z</time>
      </trkpt>
      <trkpt lat="45.00438" lon="1.07002">
        <ele>98</ele>
        <time>2017-10-01T08:28:53.000Z</time>
      </trkpt>
      <trkpt lat="45.00438" lon="1.07012">
        <ele>97</ele>
        <time>2017-10-01T08:28:54.000Z</time>
      </trkpt>
      <trkpt lat="45.00438" lon="1.07022">
        <ele>96</ele>
        <time>2017-10-01T08:28:55.000Z</time>
      </trkpt>
      <trkpt lat="45.00438" lon="1.07033">
        <ele>95</ele>
        <time>2017-10-01T08:28:56.000Z</time>
      </trkpt>
      <trkpt lat="45.00438" lon="1.07043">
        <ele>94</ele>
        <time>2017-10-01T08:28:57.000Z</time>
      </trkpt>
      <trkpt lat="45.00438" lon="1.07052">
        <ele>92</ele>
        <time>2017-10-01T08:28:58.000Z</time>
      </trkpt>
      <trkpt lat="45.00438" lon="1.07059">
        <ele>92</ele>
        <time>2017-10-01T08:28:59.000Z</time>
      </trkpt>
      <trkpt lat="45.00438" lon="1.07065">
        <ele>91</ele>
        <time>2017-10-01T08:29:00.000Z</time>
      </trkpt>
      <trkpt lat="45.00438" lon="1.0707">
        <ele>90</ele>
        <time>2017-10-01T08:29:01.000Z</time>
      </trkpt>
      <trkpt lat="45.00437" lon="1.07075">
        <ele>90</ele>
        <time>2017-10-01T08:29:02.000Z</time>
      </trkpt>
      <trkpt lat="45.00437" lon="1.07081">
        <ele>89</ele>
        <time>2017-10-01T08:29:03.000Z</time>
      </trkpt>
      <trkpt lat="45.00436" lon="1.07089">
        <ele>88</ele>
        <time>2017-10-01T08:29:04.000Z</time>
      </trkpt>
      <trkpt lat="45.00434" lon="1.07098">
        <ele>86</ele>
        <time>2017-10-01T08:29:05.000Z</time>
      </trkpt>
      <trkpt lat="45.00432" lon="1.07107">
        <ele>85</ele>
        <time>2017-10-01T08:29:06.000Z</time>
      </trkpt>
      <trkpt lat="45.0043" lon="1.07114">
        <ele>84</ele>
        <time>2017-10-01T08:29:07.000Z</time>
      </trkpt>
      <trkpt lat="45.00431" lon="1.0712">
        <ele>83</ele>
        <time>2017-10-01T08:29:08.000Z</time>
      </trkpt>
      <trkpt lat="45.00433" lon="1.07123">
        <ele>83</ele>
        <time>2017-10-01T08:29:09.000Z</time>
      </trkpt>
      <trkpt lat="45.00437" lon="1.07124">
        <ele>83</ele>
        <time>2017-10-01T08:29:10.000Z</time>
      </trkpt>
      <trkpt lat="45.00441" lon="1.07122">
        <ele>83</ele>
        <time>2017-10-01T08:29:11.000Z</time>
      </trkpt>
      <trkpt lat="45.00444" lon="1.07121">
        <ele>84</ele>
        <time>2017-10-01T08:29:12.000Z</time>
      </trkpt>
      <trkpt lat="45.00447" lon="1.07121">
        <ele>84</ele>
        <time>2017-10-01T08:29:13.000Z</time>
      </trkpt>
      <trkpt lat="45.00449" lon="1.07124">
        <ele>84</ele>
        <time>2017-10-01T08:29:14.000Z</time>
      </trkpt>
      <trkpt lat="45.0045" lon="1.07129">
        <ele>83</ele>
        <time>2017-10-01T08:29:15.000Z</time>
      </trkpt>
      <trkpt lat="45.00451" lon="1.07136">
        <ele>82</ele>
        <time>2017-10-01T08:29:16.000Z</time>
      </trkpt>
      <trkpt lat="45.0045" lon="1.07144">
        <ele>80</ele>
        <time>2017-10-01T08:29:17.000Z</time>
      </trkpt>
      <trkpt lat="45.00449" lon="1.07151">
        <ele>79</ele>
        <time>2017-10-01T08:29:18.000Z</time>
      </trkpt>
      <trkpt lat="45.00447" lon="1.07158">
        <ele>78</ele>
        <time>2017-10-01T08:29:19.000Z</time>
      </trkpt>
      <trkpt lat="45.00444" lon="1.07164">
        <ele>77</ele>
        <time>2017-10-01T08:29:20.000Z</time>
      </trkpt>
      <trkpt lat="45.0044" lon="1.0717">
        <ele>76</ele>
        <time>2017-10-01T08:29:21.000Z</time>
      </trkpt>
      <trkpt lat="45.00436" lon="1.07174">
        <ele>76</ele>
        <time>2017-10-01T08:29:22.000Z</time>
      </trkpt>
      <trkpt lat="45.00432" lon="1.07178">
        <ele>75</ele>
        <time>2017-10-01T08:29:23.000Z</time>
      </trkpt>
      <trkpt lat="45.0043" lon="1.07181">
        <ele>75</ele>
        <time>2017-10-01T08:29:24.000Z</time>
      </trkpt>
      <trkpt lat="45.00428" lon="1.07186">
        <ele>75</ele>
        <time>2017-10-01T08:29:25.000Z</time>
      </trkpt>
      <trkpt lat="45.00427" lon="1.07192">
        <ele>75</ele>
        <time>2017-10-01T08:29:26.000Z</time>
      </trkpt>
      <trkpt lat="45.00426" lon="1.07199">
        <ele>74</ele>
        <time>2017-10-01T08:29:27.000Z</time>
      </trkpt>
      <trkpt lat="45.00426" lon="1.07205">
        <ele>74</ele>
        <time>2017-10-01T08:29:28.000Z</time>
      </trkpt>
      <trkpt lat="45.00426" lon="1.07211">
        <ele>74</ele>
        <time>2017-10-01T08:29:29.000Z</time>
      </trkpt>
      <trkpt lat="45.00426" lon="1.07216">
        <ele>73</ele>
        <time>2017-10-01T08:29:30.000Z</time>
      </trkpt>
      <trkpt lat="45.00425" lon="1.0722">
        <ele>73</ele>
        <time>2017-10-01T08:29:31.000Z</time>
      </trkpt>
      <trkpt lat="45.00423" lon="1.07223">
        <ele>73</ele>
        <time>2017-10-01T08:29:32.000Z</time>
      </trkpt>
      <trkpt lat="45.0042" lon="1.07226">
        <ele>73</ele>
        <time>2017-10-01T08:29:33.000Z</time>
      </trkpt>
      <trkpt lat="45.00417" lon="1.07229">
        <ele>73</ele>
        <time>2017-10-01T08:29:34.000Z</time>
      </trkpt>
      <trkpt lat="45.00415" lon="1.07233">
        <ele>72</ele>
        <time>2017-10-01T08:29:35.000Z</time>
      </trkpt>
      <trkpt lat="45.00412" lon="1.07238">
        <ele>72</ele>
        <time>2017-10-01T08:29:36.000Z</time>
      </trkpt>
      <trkpt lat="45.0041" lon="1.07243">
        <ele>72</ele>
        <time>2017-10-01T08:29:37.000Z</time>
      </trkpt>
      <trkpt lat="45.00406" lon="1.07246">
        <ele>71</ele>
        <time>2017-10-01T08:29:38.000Z</time>
      </trkpt>
      <trkpt lat="45.00402" lon="1.07249">
        <ele>71</ele>
        <time>2017-10-01T08:29:39.000Z</time>
      </trkpt>
      <trkpt lat="45.00398" lon="1.07251">
        <ele>71</ele>
        <time>2017-10-01T08:29:40.000Z</time>
      </trkpt>
      <trkpt lat="45.00393" lon="1.07253">
        <ele>71</ele>
        <time>2017-10-01T08:29:41.000Z</time>
      </trkpt>
      <trkpt lat="45.00389" lon="1.07256">
        <ele>70</ele>
        <time>2017-10-01T08:29:42.000Z</time>
      </trkpt>
      <trkpt lat="45.00384" lon="1.07258">
        <ele>70</ele>
        <time>2017-10-01T08:29:43.000Z</time>
      </trkpt>
      <trkpt lat="45.0038" lon="1.07261">
        <ele>70</ele>
        <time>2017-10-01T08:29:44.000Z</time>
      </trkpt>
      <trkpt lat="45.00376" lon="1.07263">
        <ele>70</ele>
        <time>2017-10-01T08:29:45.000Z</time>
      </trkpt>
      <trkpt lat="45.00372" lon="1.07265">
        <ele>70</ele>
        <time>2017-10-01T08:29:46.000Z</time>
      </trkpt>
      <trkpt lat="45.00368" lon="1.07267">
        <ele>69</ele>
        <time>2017-10-01T08:29:47.000Z</time>
      </trkpt>
      <trkpt lat="45.00364" lon="1.07269">
        <ele>69</ele>
        <time>2017-10-01T08:29:48.000Z</time>
      </trkpt>
      <trkpt lat="45.00361" lon="1.0727">
        <ele>69</ele>
        <time>2017-10-01T08:29:49.000Z</time>
      </trkpt>
      <trkpt lat="45.00357" lon="1.07272">
        <ele>69</ele>
        <time>2017-10-01T08:29:50.000Z</time>
      </trkpt>
      <trkpt lat="45.00354" lon="1.07273">
        <ele>69</ele>
        <time>2017-10-01T08:29:51.000Z</time>
      </trkpt>
      <trkpt lat="45.0035" lon="1.07273">
        <ele>69</ele>
        <time>2017-10-01T08:29:52.000Z</time>
      </trkpt>
      <trkpt lat="45.00347" lon="1.07274">
        <ele>69</ele>
        <time>2017-10-01T08:29:53.000Z</time>
      </trkpt>
      <trkpt lat="45.00343" lon="1.07274">
        <ele>69</ele>
        <time>2017-10-01T08:29:54.000Z</time>
      </trkpt>
      <trkpt lat="45.00339" lon="1.07274">
        <ele>68</ele>
        <time>2017-10-01T08:29:55.000Z</time>
      </trkpt>
      <trkpt lat="45.00336" lon="1.07274">
        <ele>68</ele>
        <time>2017-10-01T08:29:56.000Z</time>
      </trkpt>
      <trkpt lat="45.00332" lon="1.07274">
        <ele>68</ele>
        <time>2017-10-01T08:29:57.000Z</time>
      </trkpt>
      <trkpt lat="45.00328" lon="1.07273">
        <ele>68</ele>
        <time>2017-10-01T08:29:58.000Z</time>
      </trkpt>
      <trkpt lat="45.00324" lon="1.07274">
        <ele>69</ele>
        <time>2017-10-01T08:29:59.000Z</time>
      </trkpt>
      <trkpt lat="45.0032" lon="1.07274">
        <ele>69</ele>
        <time>2017-10-01T08:30:00.000Z</time>
      </trkpt>
      <trkpt lat="45.00316" lon="1.07274">
        <ele>69</ele>
        <time>2017-10-01T08:30:01.000Z</time>
      </trkpt>
      <trkpt lat="45.00312" lon="1.07275">
        <ele>69</ele>
        <time>2017-10-01T08:30:02.000Z</time>
      </trkpt>
      <trkpt lat="45.00308" lon="1.07276">
        <ele>69</ele>
        <time>2017-10-01T08:30:03.000Z</time>
      </trkpt>
      <trkpt lat="45.00305" lon="1.07278">
        <ele>69</ele>
        <time>2017-10-01T08:30:04.000Z</time>
      </trkpt>
      <trkpt lat="45.00301" lon="1.07279">
        <ele>69</ele>
        <time>2017-10-01T08:30:05.000Z</time>
      </trkpt>
      <trkpt lat="45.00298" lon="1.07282">
        <ele>69</ele>
        <time>2017-10-01T08:30:06.000Z</time>
      </trkpt>
      <trkpt lat="45.00295" lon="1.07284">
        <ele>69</ele>
        <time>2017-10-01T08:30:07.000Z</time>
      </trkpt>
      <trkpt lat="45.00292" lon="1.07287">
        <ele>69</ele>
        <time>2017-10-01T08:30:08.000Z</time>
      </trkpt>
      <trkpt lat="45.00289" lon="1.07289">
        <ele>69</ele>
        <time>2017-10-01T08:30:09.000Z</time>
      </trkpt>
      <trkpt lat="45.00286" lon="1.07292">
        <ele>69</ele>
        <time>2017-10-01T08:30:10.000Z</time>
      </trkpt>
      <trkpt lat="45.00282" lon="1.07294">
        <ele>70</ele>
        <time>2017-10-01T08:30:11.000Z</time>
      </trkpt>
      <trkpt lat="45.00279" lon="1.07296">
        <ele>70</ele>
        <time>2017-10-01T08:30:12.000Z</time>
      </trkpt>
      <trkpt lat="45.00276" lon="1.07299">
        <ele>70</ele>
        <time>2017-10-01T08:30:13.000Z</time>
      </trkpt>
      <trkpt lat="45.00272" lon="1.07301">
        <ele>70</ele>
        <time>2017-10-01T08:30:14.000Z</time>
      </trkpt>
      <trkpt lat="45.00268" lon="1.07302">
        <ele>70</ele>
        <time>2017-10-01T08:30:15.000Z</time>
      </trkpt>
      <trkpt lat="45.00264" lon="1.07304">
        <ele>70</ele>
        <time>2017-10-01T08:30:16.000Z</time>
      </trkpt>
      <trkpt lat="45.0026" lon="1.07306">
        <ele>70</ele>
        <time>2017-10-01T08:30:17.000Z</time>
      </trkpt>
      <trkpt lat="45.00255" lon="1.07308">
        <ele>70</ele>
        <time>2017-10-01T08:30:18.000Z</time>
      </trkpt>
      <trkpt lat="45.0025" lon="1.07309">
        <ele>70</ele>
        <time>2017-10-01T08:30:19.000Z</time>
      </trkpt>
      <trkpt lat="45.00246" lon="1.0731">
        <ele>70</ele>
        <time>2017-10-01T08:30:20.000Z</time>
      </trkpt>
      <trkpt lat="45.00241" lon="1.07312">
        <ele>70</ele>
        <time>2017-10-01T08:30:21.000Z</time>
      </trkpt>
      <trkpt lat="45.00236" lon="1.07313">
        <ele>70</ele>
        <time>2017-10-01T08:30:22.000Z</time>
      </trkpt>
      <trkpt lat="45.00231" lon="1.07314">
        <ele>70</ele>
        <time>2017-10-01T08:30:23.000Z</time>
      </trkpt>
      <trkpt lat="45.00227" lon="1.07315">
        <ele>70</ele>
        <time>2017-10-01T08:30:24.000Z</time>
      </trkpt>
      <trkpt lat="45.00222" lon="1.07317">
        <ele>70</ele>
        <time>2017-10-01T08:30:25.000Z</time>
      </trkpt>
      <trkpt lat="45.00218" lon="1.07319">
        <ele>70</ele>
        <time>2017-10-01T08:30:26.000Z</time>
      </trkpt>
      <trkpt lat="45.00214" lon="1.07321">
        <ele>69</ele>
        <time>2017-10-01T08:30:27.000Z</time>
      </trkpt>
      <trkpt lat="45.0021" lon="1.07324">
        <ele>69</ele>
        <time>2017-10-01T08:30:28.000Z</time>
      </trkpt>
      <trkpt lat="45.00206" lon="1.07328">
        <ele>69</ele>
        <time>2017-10-01T08:30:29.000Z</time>
      </trkpt>
      <trkpt lat="45.00203" lon="1.07332">
        <ele>69</ele>
        <time>2017-10-01T08:30:30.000Z</time>
      </trkpt>
      <trkpt lat="45.00199" lon="1.07335">
        <ele>69</ele>
        <time>2017-10-01T08:30:31.000Z</time>
      </trkpt>
      <trkpt lat="45.00195" lon="1.07338">
        <ele>69</ele>
        <time>2017-10-01T08:30:32.000Z</time>
      </trkpt>
      <trkpt lat="45.0019" lon="1.07341">
        <ele>69</ele>
        <time>2017-10-01T08:30:33.000Z</time>
      </trkpt>
      <trkpt lat="45.00186" lon="1.07342">
        <ele>69</ele>
        <time>2017-10-01T08:30:34.000Z</time>
      </trkpt>
      <trkpt lat="45.00182" lon="1.07343">
        <ele>69</ele>
        <time>2017-10-01T08:30:35.000Z</time>
      </trkpt>
      <trkpt lat="45.00179" lon="1.07344">
        <ele>69</ele>
        <time>2017-10-01T08:30:36.000Z</time>
      </trkpt>
      <trkpt lat="45.00175" lon="1.07343">
        <ele>69</ele>
        <time>2017-10-01T08:30:37.000Z</time>
      </trkpt>
      <trkpt lat="45.0017" lon="1.07343">
        <ele>68</ele>
        <time>2017-10-01T08:30:38.000Z</time>
      </trkpt>
      <trkpt lat="45.00166" lon="1.07342">
        <ele>68</ele>
        <time>2017-10-01T08:30:39.000Z</time>
      </trkpt>
      <trkpt lat="45.0016" lon="1.0734">
        <ele>68</ele>
        <time>2017-10-01T08:30:40.000Z</time>
      </trkpt>
      <trkpt lat="45.00155" lon="1.07339">
        <ele>68</ele>
        <time>2017-10-01T08:30:41.000Z</time>
      </trkpt>
      <trkpt lat="45.0015" lon="1.07338">
        <ele>68</ele>
        <time>2017-10-01T08:30:42.000Z</time>
      </trkpt>
      <trkpt lat="45.00145" lon="1.07337">
        <ele>68</ele>
        <time>2017-10-01T08:30:43.000Z</time>
      </trkpt>
      <trkpt lat="45.0014" lon="1.07336">
        <ele>68</ele>
        <time>2017-10-01T08:30:44.000Z</time>
      </trkpt>
      <trkpt lat="45.00135" lon="1.07335">
        <ele>68</ele>
        <time>2017-10-01T08:30:45.000Z</time>
      </trkpt>
      <trkpt lat="45.0013" lon="1.07333">
        <ele>68</ele>
        <time>2017-10-01T08:30:46.000Z</time>
      </trkpt>
      <trkpt lat="45.00125" lon="1.07331">
        <ele>68</ele>
        <time>2017-10-01T08:30:47.000Z</time>
      </trkpt>
      <trkpt lat="45.0012" lon="1.07329">
        <ele>68</ele>
        <time>2017-10-01T08:30:48.000Z</time>
      </trkpt>
      <trkpt lat="45.00114" lon="1.07327">
        <ele>68</ele>
        <time>2017-10-01T08:30:49.000Z</time>
      </trkpt>
      <trkpt lat="45.00109" lon="1.07324">
        <ele>67</ele>
        <time>2017-10-01T08:30:50.000Z</time>
      </trkpt>
      <trkpt lat="45.00104" lon="1.07322">
        <ele>67</ele>
        <time>2017-10-01T08:30:51.000Z</time>
      </trkpt>
      <trkpt lat="45.00099" lon="1.0732">
        <ele>67</ele>
        <time>2017-10-01T08:30:52.000Z</time>
      </trkpt>
      <trkpt lat="45.00094" lon="1.07318">
        <ele>67</ele>
        <time>2017-10-01T08:30:53.000Z</time>
      </trkpt>
      <trkpt lat="45.00089" lon="1.07316">
        <ele>67</ele>
        <time>2017-10-01T08:30:54.000Z</time>
      </trkpt>
      <trkpt lat="45.00083" lon="1.07314">
        <ele>67</ele>
        <time>2017-10-01T08:30:55.000Z</time>
      </trkpt>
      <trkpt lat="45.00078" lon="1.07312">
        <ele>67</ele>
        <time>2017-10-01T08:30:56.000Z</time>
      </trkpt>
      <trkpt lat="45.00073" lon="1.07309">
        <ele>67</ele>
        <time>2017-10-01T08:30:57.000Z</time>
      </trkpt>
      <trkpt lat="45.00069" lon="1.07307">
        <ele>67</ele>
        <time>2017-10-01T08:30:58.000Z</time>
      </trkpt>
      <trkpt lat="45.00064" lon="1.07305">
        <ele>68</ele>
        <time>2017-10-01T08:30:59.000Z</time>
      </trkpt>
      <trkpt lat="45.0006" lon="1.07302">
        <ele>68</ele>
        <time>2017-10-01T08:31:00.000Z</time>
      </trkpt>
      <trkpt lat="45.00055" lon="1.073">
        <ele>68</ele>
        <time>2017-10-01T08:31:01.000Z</time>
      </trkpt>
      <trkpt lat="45.0005" lon="1.07298">
        <ele>68</ele>
        <time>2017-10-01T08:31:02.000Z</time>
      </trkpt>
      <trkpt lat="45.00046" lon="1.07297">
        <ele>68</ele>
        <time>2017-10-01T08:31:03.000Z</time>
      </trkpt>
      <trkpt lat="45.00042" lon="1.07297">
        <ele>68</ele>
        <time>2017-10-01T08:31:04.000Z</time>
      </trkpt>
      <trkpt lat="45.00038" lon="1.07298">
        <ele>68</ele>
        <time>2017-10-01T08:31:05.000Z</time>
      </trkpt>
      <trkpt lat="45.00035" lon="1.073">
        <ele>68</ele>
        <time>2017-10-01T08:31:06.000Z</time>
      </trkpt>
      <trkpt lat="45.00032" lon="1.07303">
        <ele>68</ele>
        <time>2017-10-01T08:31:07.000Z</time>
      </trkpt>
      <trkpt lat="45.0003" lon="1.07307">
        <ele>67</ele>
        <time>2017-10-01T08:31:08.000Z</time>
      </trkpt>
      <trkpt lat="45.00028" lon="1.07312">
        <ele>67</ele>
        <time>2017-10-01T08:31:09.000Z</time>
      </trkpt>
      <trkpt lat="45.00026" lon="1.07317">
        <ele>67</ele>
        <time>2017-10-01T08:31:10.000Z</time>
      </trkpt>
      <trkpt lat="45.00024" lon="1.07323">
        <ele>67</ele>
        <time>2017-10-01T08:31:11.000Z</time>
      </trkpt>
      <trkpt lat="45.00023" lon="1.07329">
        <ele>67</ele>
        <time>2017-10-01T08:31:12.000Z</time>
      </trkpt>
      <trkpt lat="45.00022" lon="1.07335">
        <ele>67</ele>
        <time>2017-10-01T08:31:13.000Z</time>
      </trkpt>
      <trkpt lat="45.00021" lon="1.07342">
        <ele>67</ele>
        <time>2017-10-01T08:31:14.000Z</time>
      </trkpt>
      <trkpt lat="45.0002" lon="1.07349">
        <ele>67</ele>
        <time>2017-10-01T08:31:15.000Z</time>
      </trkpt>
      <trkpt lat="45.00019" lon="1.07355">
        <ele>67</ele>
        <time>2017-10-01T08:31:16.000Z</time>
      </trkpt>
      <trkpt lat="45.00017" lon="1.07363">
        <ele>67</ele>
        <time>2017-10-01T08:31:17.000Z</time>
      </trkpt>
      <trkpt lat="45.00016" lon="1.0737">
        <ele>67</ele>
        <time>2017-10-01T08:31:18.000Z</time>
      </trkpt>
      <trkpt lat="45.00015" lon="1.07377">
        <ele>67</ele>
        <time>2017-10-01T08:31:19.000Z</time>
      </trkpt>
      <trkpt lat="45.00013" lon="1.07384">
        <ele>67</ele>
        <time>2017-10-01T08:31:20.000Z</time>
      </trkpt>
      <trkpt lat="45.00012" lon="1.07391">
        <ele>67</ele>
        <time>2017-10-01T08:31:21.000Z</time>
      </trkpt>
      <trkpt lat="45.00011" lon="1.07398">
        <ele>67</ele>
        <time>2017-10-01T08:31:22.000Z</time>
      </trkpt>
      <trkpt lat="45.0001" lon="1.07404">
        <ele>67</ele>
        <time>2017-10-01T08:31:23.000Z</time>
      </trkpt>
      <trkpt lat="45.00009" lon="1.0741">
        <ele>67</ele>
        <time>2017-10-01T08:31:24.000Z</time>
      </trkpt>
      <trkpt lat="45.00007" lon="1.07417">
        <ele>67</ele>
        <time>2017-10-01T08:31:25.000Z</time>
      </trkpt>
      <trkpt lat="45.00006" lon="1.07423">
        <ele>67</ele>
        <time>2017-10-01T08:31:26.000Z</time>
      </trkpt>
      <trkpt lat="45.00005" lon="1.07429">
        <ele>67</ele>
        <time>2017-10-01T08:31:27.000Z</time>
      </trkpt>
      <trkpt lat="45.00004" lon="1.07435">
        <ele>67</ele>
        <time>2017-10-01T08:31:28.000Z</time>
      </trkpt>
      <trkpt lat="45.00003" lon="1.07441">
        <ele>67</ele>
        <time>2017-10-01T08:31:29.000Z</time>
      </trkpt>
      <trkpt lat="45.00001" lon="1.07447">
        <ele>67</ele>
        <time>2017-10-01T08:31:30.000Z</time>
      </trkpt>
      <trkpt lat="44.99999" lon="1.07454">
        <ele>67</ele>
        <time>2017-10-01T08:31:31.000Z</time>
      </trkpt>
      <trkpt lat="44.99998" lon="1.0746">
        <ele>67</ele>
        <time>2017-10-01T08:31:32.000Z</time>
      </trkpt>
      <trkpt lat="44.99996" lon="1.07466">
        <ele>67</ele>
        <time>2017-10-01T08:31:33.000Z</time>
      </trkpt>
      <trkpt lat="44.99993" lon="1.0747">
        <ele>67</ele>
        <time>2017-10-01T08:31:34.000Z</time>
      </trkpt>
      <trkpt lat="44.9999" lon="1.07472">
        <ele>67</ele>
        <time>2017-10-01T08:31:35.000Z</time>
      </trkpt>
      <trkpt lat="44.99986" lon="1.07473">
        <ele>67</ele>
        <time>2017-10-01T08:31:36.000Z</time>
      </trkpt>
      <trkpt lat="44.99983" lon="1.07472">
        <ele>67</ele>
        <time>2017-10-01T08:31:37.000Z</time>
      </trkpt>
      <trkpt lat="44.99979" lon="1.0747">
        <ele>67</ele>
        <time>2017-10-01T08:31:38.000Z</time>
      </trkpt>
      <trkpt lat="44.99975" lon="1.07469">
        <ele>67</ele>
        <time>2017-10-01T08:31:39.000Z</time>
      </trkpt>
      <trkpt lat="44.99972" lon="1.07467">
        <ele>67</ele>
        <time>2017-10-01T08:31:40.000Z</time>
      </trkpt>
      <trkpt lat="44.99968" lon="1.07466">
        <ele>67</ele>
        <time>2017-10-01T08:31:41.000Z</time>
      </trkpt>
      <trkpt lat="44.99963" lon="1.07465">
        <ele>67</ele>
        <time>2017-10-01T08:31:42.000Z</time>
      </trkpt>
      <trkpt lat="44.99959" lon="1.07464">
        <ele>67</ele>
        <time>2017-10-01T08:31:43.000Z</time>
      </trkpt>
      <trkpt lat="44.99955" lon="1.07463">
        <ele>67</ele>
        <time>2017-10-01T08:31:44.000Z</time>
      </trkpt>
      <trkpt lat="44.9995" lon="1.07462">
        <ele>67</ele>
        <time>2017-10-01T08:31:45.000Z</time>
      </trkpt>
      <trkpt lat="44.99946" lon="1.07461">
        <ele>67</ele>
        <time>2017-10-01T08:31:46.000Z</time>
      </trkpt>
      <trkpt lat="44.99941" lon="1.07461">
        <ele>67</ele>
        <time>2017-10-01T08:31:47.000Z</time>
      </trkpt>
      <trkpt lat="44.99937" lon="1.0746">
        <ele>67</ele>
        <time>2017-10-01T08:31:48.000Z</time>
      </trkpt>
      <trkpt lat="44.99932" lon="1.0746">
        <ele>67</ele>
        <time>2017-10-01T08:31:49.000Z</time>
      </trkpt>
      <trkpt lat="44.99928" lon="1.0746">
        <ele>67</ele>
        <time>2017-10-01T08:31:50.000Z</time>
      </trkpt>
      <trkpt lat="44.99923" lon="1.07459">
        <ele>68</ele>
        <time>2017-10-01T08:31:51.000Z</time>
      </trkpt>
      <trkpt lat="44.99918" lon="1.07459">
        <ele>68</ele>
        <time>2017-10-01T08:31:52.000Z</time>
      </trkpt>
      <trkpt lat="44.99914" lon="1.07459">
        <ele>68</ele>
        <time>2017-10-01T08:31:53.000Z</time>
      </trkpt>
      <trkpt lat="44.99909" lon="1.07459">
        <ele>67</ele>
        <time>2017-10-01T08:31:54.000Z</time>
      </trkpt>
      <trkpt lat="44.99904" lon="1.07459">
        <ele>67</ele>
        <time>2017-10-01T08:31:55.000Z</time>
      </trkpt>
      <trkpt lat="44.99899" lon="1.07459">
        <ele>67</ele>
        <time>2017-10-01T08:31:56.000Z</time>
      </trkpt>
      <trkpt lat="44.99894" lon="1.07459">
        <ele>67</ele>
        <time>2017-10-01T08:31:57.000Z</time>
      </trkpt>
      <trkpt lat="44.99889" lon="1.0746">
        <ele>67</ele>
        <time>2017-10-01T08:31:58.000Z</time>
      </trkpt>
      <trkpt lat="44.99884" lon="1.0746">
        <ele>67</ele>
        <time>2017-10-01T08:31:59.000Z</time>
      </trkpt>
      <trkpt lat="44.99878" lon="1.0746">
        <ele>67</ele>
        <time>2017-10-01T08:32:00.000Z</time>
      </trkpt>
      <trkpt lat="44.99873" lon="1.0746">
        <ele>67</ele>
        <time>2017-10-01T08:32:01.000Z</time>
      </trkpt>
      <trkpt lat="44.99868" lon="1.0746">
        <ele>67</ele>
        <time>2017-10-01T08:32:02.000Z</time>
      </trkpt>
      <trkpt lat="44.99863" lon="1.07459">
        <ele>67</ele>
        <time>2017-10-01T08:32:03.000Z</time>
      </trkpt>
      <trkpt lat="44.99858" lon="1.07459">
        <ele>67</ele>
        <time>2017-10-01T08:32:04.000Z</time>
      </trkpt>
      <trkpt lat="44.99853" lon="1.07458">
        <ele>67</ele>
        <time>2017-10-01T08:32:05.000Z</time>
      </trkpt>
      <trkpt lat="44.99847" lon="1.07458">
        <ele>67</ele>
        <time>2017-10-01T08:32:06.000Z</time>
      </trkpt>
      <trkpt lat="44.99842" lon="1.07457">
        <ele>67</ele>
        <time>2017-10-01T08:32:07.000Z</time>
      </trkpt>
      <trkpt lat="44.99837" lon="1.07456">
        <ele>67</ele>
        <time>2017-10-01T08:32:08.000Z</time>
      </trkpt>
      <trkpt lat="44.99832" lon="1.07455">
        <ele>67</ele>
        <time>2017-10-01T08:32:09.000Z</time>
      </trkpt>
      <trkpt lat="44.99827" lon="1.07455">
        <ele>67</ele>
        <time>2017-10-01T08:32:10.000Z</time>
      </trkpt>
      <trkpt lat="44.99822" lon="1.07454">
        <ele>67</ele>
        <time>2017-10-01T08:32:11.000Z</time>
      </trkpt>
      <trkpt lat="44.99817" lon="1.07454">
        <ele>67</ele>
        <time>2017-10-01T08:32:12.000Z</time>
      </trkpt>
      <trkpt lat="44.99812" lon="1.07453">
        <ele>67</ele>
        <time>2017-10-01T08:32:13.000Z</time>
      </trkpt>
      <trkpt lat="44.99807" lon="1.07453">
        <ele>67</ele>
        <time>2017-10-01T08:32:14.000Z</time>
      </trkpt>
      <trkpt lat="44.99802" lon="1.07452">
        <ele>68</ele>
        <time>2017-10-01T08:32:15.000Z</time>
      </trkpt>
      <trkpt lat="44.99797" lon="1.07452">
        <ele>68</ele>
        <time>2017-10-01T08:32:16.000Z</time>
      </trkpt>
      <trkpt lat="44.99792" lon="1.07451">
        <ele>68</ele>
        <time>2017-10-01T08:32:17.000Z</time>
      </trkpt>
      <trkpt lat="44.99787" lon="1.07451">
        <ele>68</ele>
        <time>2017-10-01T08:32:18.000Z</time>
      </trkpt>
      <trkpt lat="44.99782" lon="1.0745">
        <ele>68</ele>
        <time>2017-10-01T08:32:19.000Z</time>
      </trkpt>
      <trkpt lat="44.99776" lon="1.07449">
        <ele>68</ele>
        <time>2017-10-01T08:32:20.000Z</time>
      </trkpt>
      <trkpt lat="44.99771" lon="1.07448">
        <ele>69</ele>
        <time>2017-10-01T08:32:21.000Z</time>
      </trkpt>
      <trkpt lat="44.99766" lon="1.07447">
        <ele>69</ele>
        <time>2017-10-01T08:32:22.000Z</time>
      </trkpt>
      <trkpt lat="44.99761" lon="1.07445">
        <ele>69</ele>
        <time>2017-10-01T08:32:23.000Z</time>
      </trkpt>
      <trkpt lat="44.99757" lon="1.07444">
        <ele>69</ele>
        <time>2017-10-01T08:32:24.000Z</time>
      </trkpt>
      <trkpt lat="44.99752" lon="1.07442">
        <ele>69</ele>
        <time>2017-10-01T08:32:25.000Z</time>
      </trkpt>
      <trkpt lat="44.99747" lon="1.0744">
        <ele>69</ele>
        <time>2017-10-01T08:32:26.000Z</time>
      </trkpt>
      <trkpt lat="44.99742" lon="1.07439">
        <ele>69</ele>
        <time>2017-10-01T08:32:27.000Z</time>
      </trkpt>
      <trkpt lat="44.99738" lon="1.07437">
        <ele>69</ele>
        <time>2017-10-01T08:32:28.000Z</time>
      </trkpt>
      <trkpt lat="44.99733" lon="1.07436">
        <ele>69</ele>
        <time>2017-10-01T08:32:29.000Z</time>
      </trkpt>
      <trkpt lat="44.99728" lon="1.07435">
        <ele>69</ele>
        <time>2017-10-01T08:32:30.000Z</time>
      </trkpt>
      <trkpt lat="44.99723" lon="1.07435">
        <ele>69</ele>
        <time>2017-10-01T08:32:31.000Z</time>
      </trkpt>
      <trkpt lat="44.99718" lon="1.07434">
        <ele>69</ele>
        <time>2017-10-01T08:32:32.000Z</time>
      </trkpt>
      <trkpt lat="44.99713" lon="1.07433">
        <ele>69</ele>
        <time>2017-10-01T08:32:33.000Z</time>
      </trkpt>
      <trkpt lat="44.99708" lon="1.07432">
        <ele>69</ele>
        <time>2017-10-01T08:32:34.000Z</time>
      </trkpt>
      <trkpt lat="44.99703" lon="1.07431">
        <ele>69</ele>
        <time>2017-10-01T08:32:35.000Z</time>
      </trkpt>
      <trkpt lat="44.99697" lon="1.0743">
        <ele>69</ele>
        <time>2017-10-01T08:32:36.000Z</time>
      </trkpt>
      <trkpt lat="44.99692" lon="1.07428">
        <ele>69</ele>
        <time>2017-10-01T08:32:37.000Z</time>
      </trkpt>
      <trkpt lat="44.99686" lon="1.07427">
        <ele>69</ele>
        <time>2017-10-01T08:32:38.000Z</time>
      </trkpt>
      <trkpt lat="44.9968" lon="1.07425">
        <ele>69</ele>
        <time>2017-10-01T08:32:39.000Z</time>
      </trkpt>
      <trkpt lat="44.99674" lon="1.07424">
        <ele>69</ele>
        <time>2017-10-01T08:32:40.000Z</time>
      </trkpt>
      <trkpt lat="44.99668" lon="1.07422">
        <ele>69</ele>
        <time>2017-10-01T08:32:41.000Z</time>
      </trkpt>
      <trkpt lat="44.99661" lon="1.07421">
        <ele>69</ele>
        <time>2017-10-01T08:32:42.000Z</time>
      </trkpt>
      <trkpt lat="44.99655" lon="1.0742">
        <ele>69</ele>
        <time>2017-10-01T08:32:43.000Z</time>
      </trkpt>
      <trkpt lat="44.99648" lon="1.07418">
        <ele>69</ele>
        <time>2017-10-01T08:32:44.000Z</time>
      </trkpt>
      <trkpt lat="44.99641" lon="1.07417">
        <ele>69</ele>
        <time>2017-10-01T08:32:45.000Z</time>
      </trkpt>
      <trkpt lat="44.99634" lon="1.07415">
        <ele>69</ele>
        <time>2017-10-01T08:32:46.000Z</time>
      </trkpt>
      <trkpt lat="44.99628" lon="1.07413">
        <ele>69</ele>
        <time>2017-10-01T08:32:47.000Z</time>
      </trkpt>
      <trkpt lat="44.99621" lon="1.07411">
        <ele>69</ele>
        <time>2017-10-01T08:32:48.000Z</time>
      </trkpt>
      <trkpt lat="44.99615" lon="1.07408">
        <ele>69</ele>
        <time>2017-10-01T08:32:49.000Z</time>
      </trkpt>
      <trkpt lat="44.99608" lon="1.07406">
        <ele>69</ele>
        <time>2017-10-01T08:32:50.000Z</time>
      </trkpt>
      <trkpt lat="44.99602" lon="1.07403">
        <ele>69</ele>
        <time>2017-10-01T08:32:51.000Z</time>
      </trkpt>
      <trkpt lat="44.99596" lon="1.07401">
        <ele>69</ele>
        <time>2017-10-01T08:32:52.000Z</time>
      </trkpt>
      <trkpt lat="44.9959" lon="1.07399">
        <ele>69</ele>
        <time>2017-10-01T08:32:53.000Z</time>
      </trkpt>
      <trkpt lat="44.99584" lon="1.07397">
        <ele>69</ele>
        <time>2017-10-01T08:32:54.000Z</time>
      </trkpt>
      <trkpt lat="44.99578" lon="1.07395">
        <ele>68</ele>
        <time>2017-10-01T08:32:55.000Z</time>
      </trkpt>
      <trkpt lat="44.99571" lon="1.07394">
        <ele>68</ele>
        <time>2017-10-01T08:32:56.000Z</time>
      </trkpt>
      <trkpt lat="44.99565" lon="1.07393">
        <ele>68</ele>
        <time>2017-10-01T08:32:57.000Z</time>
      </trkpt>
      <trkpt lat="44.99559" lon="1.07392">
        <ele>68</ele>
        <time>2017-10-01T08:32:58.000Z</time>
      </trkpt>
      <trkpt lat="44.99553" lon="1.07391">
        <ele>68</ele>
        <time>2017-10-01T08:32:59.000Z</time>
      </trkpt>
      <trkpt lat="44.99547" lon="1.07389">
        <ele>68</ele>
        <time>2017-10-01T08:33:00.000Z</time>
      </trkpt>
      <trkpt lat="44.99541" lon="1.07387">
        <ele>68</ele>
        <time>2017-10-01T08:33:01.000Z</time>
      </trkpt>
      <trkpt lat="44.99535" lon="1.07385">
        <ele>68</ele>
        <time>2017-10-01T08:33:02.000Z</time>
      </trkpt>
      <trkpt lat="44.99529" lon="1.07383">
        <ele>68</ele>
        <time>2017-10-01T08:33:03.000Z</time>
      </trkpt>
      <trkpt lat="44.99524" lon="1.0738">
        <ele>67</ele>
        <time>2017-10-01T08:33:04.000Z</time>
      </trkpt>
      <trkpt lat="44.99519" lon="1.07378">
        <ele>67</ele>
        <time>2017-10-01T08:33:05.000Z</time>
      </trkpt>
      <trkpt lat="44.99514" lon="1.07376">
        <ele>67</ele>
        <time>2017-10-01T08:33:06.000Z</time>
      </trkpt>
      <trkpt lat="44.99509" lon="1.07373">
        <ele>67</ele>
        <time>2017-10-01T08:33:07.000Z</time>
      </trkpt>
      <trkpt lat="44.99504" lon="1.07371">
        <ele>67</ele>
        <time>2017-10-01T08:33:08.000Z</time>
      </trkpt>
      <trkpt lat="44.99498" lon="1.07369">
        <ele>67</ele>
        <time>2017-10-01T08:33:09.000Z</time>
      </trkpt>
      <trkpt lat="44.99492" lon="1.07367">
        <ele>67</ele>
        <time>2017-10-01T08:33:10.000Z</time>
      </trkpt>
      <trkpt lat="44.99486" lon="1.07365">
        <ele>67</ele>
        <time>2017-10-01T08:33:11.000Z</time>
      </trkpt>
      <trkpt lat="44.99481" lon="1.07362">
        <ele>67</ele>
        <time>2017-10-01T08:33:12.000Z</time>
      </trkpt>
      <trkpt lat="44.99475" lon="1.0736">
        <ele>67</ele>
        <time>2017-10-01T08:33:13.000Z</time>
      </trkpt>
      <trkpt lat="44.9947" lon="1.07358">
        <ele>67</ele>
        <time>2017-10-01T08:33:14.000Z</time>
      </trkpt>
      <trkpt lat="44.99465" lon="1.07355">
        <ele>68</ele>
        <time>2017-10-01T08:33:15.000Z</time>
      </trkpt>
      <trkpt lat="44.9946" lon="1.07352">
        <ele>68</ele>
        <time>2017-10-01T08:33:16.000Z</time>
      </trkpt>
      <trkpt lat="44.99454" lon="1.0735">
        <ele>68</ele>
        <time>2017-10-01T08:33:17.000Z</time>
      </trkpt>
      <trkpt lat="44.99449" lon="1.07348">
        <ele>68</ele>
        <time>2017-10-01T08:33:18.000Z</time>
      </trkpt>
      <trkpt lat="44.99443" lon="1.07347">
        <ele>68</ele>
        <time>2017-10-01T08:33:19.000Z</time>
      </trkpt>
      <trkpt lat="44.99438" lon="1.07347">
        <ele>68</ele>
        <time>2017-10-01T08:33:20.000Z</time>
      </trkpt>
      <trkpt lat="44.99431" lon="1.07348">
        <ele>68</ele>
        <time>2017-10-01T08:33:21.000Z</time>
      </trkpt>
      <trkpt lat="44.99425" lon="1.07349">
        <ele>68</ele>
        <time>2017-10-01T08:33:22.000Z</time>
      </trkpt>
      <trkpt lat="44.99419" lon="1.07348">
        <ele>68</ele>
        <time>2017-10-01T08:33:23.000Z</time>
      </trkpt>
      <trkpt lat="44.99413" lon="1.07347">
        <ele>68</ele>
        <time>2017-10-01T08:33:24.000Z</time>
      </trkpt>
      <trkpt lat="44.99407" lon="1.07345">
        <ele>68</ele>
        <time>2017-10-01T08:33:25.000Z</time>
      </trkpt>
      <trkpt lat="44.99402" lon="1.07343">
        <ele>68</ele>
        <time>2017-10-01T08:33:26.000Z</time>
      </trkpt>
      <trkpt lat="44.99396" lon="1.0734">
        <ele>68</ele>
        <time>2017-10-01T08:33:27.000Z</time>
      </trkpt>
      <trkpt lat="44.99391" lon="1.07338">
        <ele>68</ele>
        <time>2017-10-01T08:33:28.000Z</time>
      </trkpt>
      <trkpt lat="44.99385" lon="1.07336">
        <ele>69</ele>
        <time>2017-10-01T08:33:29.000Z</time>
      </trkpt>
      <trkpt lat="44.9938" lon="1.07334">
        <ele>69</ele>
        <time>2017-10-01T08:33:30.000Z</time>
      </trkpt>
      <trkpt lat="44.99374" lon="1.07332">
        <ele>69</ele>
        <time>2017-10-01T08:33:31.000Z</time>
      </trkpt>
      <trkpt lat="44.99369" lon="1.0733">
        <ele>69</ele>
        <time>2017-10-01T08:33:32.000Z</time>
      </trkpt>
      <trkpt lat="44.99363" lon="1.07328">
        <ele>69</ele>
        <time>2017-10-01T08:33:33.000Z</time>
      </trkpt>
      <trkpt lat="44.99357" lon="1.07327">
        <ele>69</ele>
        <time>2017-10-01T08:33:34.000Z</time>
      </trkpt>
      <trkpt lat="44.99352" lon="1.07325">
        <ele>70</ele>
        <time>2017-10-01T08:33:35.000Z</time>
      </trkpt>
      <trkpt lat="44.99346" lon="1.07323">
        <ele>70</ele>
        <time>2017-10-01T08:33:36.000Z</time>
      </trkpt>
      <trkpt lat="44.9934" lon="1.07321">
        <ele>70</ele>
        <time>2017-10-01T08:33:37.000Z</time>
      </trkpt>
      <trkpt lat="44.99334" lon="1.07319">
        <ele>70</ele>
        <time>2017-10-01T08:33:38.000Z</time>
      </trkpt>
      <trkpt lat="44.99329" lon="1.07317">
        <ele>70</ele>
        <time>2017-10-01T08:33:39.000Z</time>
      </trkpt>
      <trkpt lat="44.99323" lon="1.07316">
        <ele>70</ele>
        <time>2017-10-01T08:33:40.000Z</time>
      </trkpt>
      <trkpt lat="44.99317" lon="1.07314">
        <ele>70</ele>
        <time>2017-10-01T08:33:41.000Z</time>
      </trkpt>
      <trkpt lat="44.99311" lon="1.07311">
        <ele>70</ele>
        <time>2017-10-01T08:33:42.000Z</time>
      </trkpt>
      <trkpt lat="44.99305" lon="1.07309">
        <ele>69</ele>
        <time>2017-10-01T08:33:43.000Z</time>
      </trkpt>
      <trkpt lat="44.99299" lon="1.07307">
        <ele>69</ele>
        <time>2017-10-01T08:33:44.000Z</time>
      </trkpt>
      <trkpt lat="44.99294" lon="1.07304">
        <ele>69</ele>
        <time>2017-10-01T08:33:45.000Z</time>
      </trkpt>
      <trkpt lat="44.99288" lon="1.07301">
        <ele>69</ele>
        <time>2017-10-01T08:33:46.000Z</time>
      </trkpt>
      <trkpt lat="44.99283" lon="1.07298">
        <ele>69</ele>
        <time>2017-10-01T08:33:47.000Z</time>
      </trkpt>
      <trkpt lat="44.99279" lon="1.07294">
        <ele>69</ele>
        <time>2017-10-01T08:33:48.000Z</time>
      </trkpt>
      <trkpt lat="44.99274" lon="1.07291">
        <ele>69</ele>
        <time>2017-10-01T08:33:49.000Z</time>
      </trkpt>
      <trkpt lat="44.9927" lon="1.07287">
        <ele>69</ele>
        <time>2017-10-01T08:33:50.000Z</time>
      </trkpt>
      <trkpt lat="44.99265" lon="1.07284">
        <ele>68</ele>
        <time>2017-10-01T08:33:51.000Z</time>
      </trkpt>
      <trkpt lat="44.9926" lon="1.07282">
        <ele>68</ele>
        <time>2017-10-01T08:33:52.000Z</time>
      </trkpt>
      <trkpt lat="44.99255" lon="1.0728">
        <ele>68</ele>
        <time>2017-10-01T08:33:53.000Z</time>
      </trkpt>
      <trkpt lat="44.9925" lon="1.07279">
        <ele>68</ele>
        <time>2017-10-01T08:33:54.000Z</time>
      </trkpt>
      <trkpt lat="44.99245" lon="1.07278">
        <ele>68</ele>
        <time>2017-10-01T08:33:55.000Z</time>
      </trkpt>
      <trkpt lat="44.9924" lon="1.07277">
        <ele>68</ele>
        <time>2017-10-01T08:33:56.000Z</time>
      </trkpt>
      <trkpt lat="44.99235" lon="1.07276">
        <ele>68</ele>
        <time>2017-10-01T08:33:57.000Z</time>
      </trkpt>
      <trkpt lat="44.9923" lon="1.07274">
        <ele>68</ele>
        <time>2017-10-01T08:33:58.000Z</time>
      </trkpt>
      <trkpt lat="44.99225" lon="1.07271">
        <ele>68</ele>
        <time>2017-10-01T08:33:59.000Z</time>
      </trkpt>
      <trkpt lat="44.99221" lon="1.07268">
        <ele>68</ele>
        <time>2017-10-01T08:34:00.000Z</time>
      </trkpt>
      <trkpt lat="44.99217" lon="1.07264">
        <ele>68</ele>
        <time>2017-10-01T08:34:01.000Z</time>
      </trkpt>
      <trkpt lat="44.99212" lon="1.0726">
        <ele>67</ele>
        <time>2017-10-01T08:34:02.000Z</time>
      </trkpt>
      <trkpt lat="44.99207" lon="1.07256">
        <ele>67</ele>
        <time>2017-10-01T08:34:03.000Z</time>
      </trkpt>
      <trkpt lat="44.99201" lon="1.07253">
        <ele>67</ele>
        <time>2017-10-01T08:34:04.000Z</time>
      </trkpt>
      <trkpt lat="44.99196" lon="1.0725">
        <ele>67</ele>
        <time>2017-10-01T08:34:05.000Z</time>
      </trkpt>
      <trkpt lat="44.9919" lon="1.07247">
        <ele>67</ele>
        <time>2017-10-01T08:34:06.000Z</time>
      </trkpt>
      <trkpt lat="44.99185" lon="1.07244">
        <ele>67</ele>
        <time>2017-10-01T08:34:07.000Z</time>
      </trkpt>
      <trkpt lat="44.99179" lon="1.07242">
        <ele>67</ele>
        <time>2017-10-01T08:34:08.000Z</time>
      </trkpt>
      <trkpt lat="44.99174" lon="1.07239">
        <ele>67</ele>
        <time>2017-10-01T08:34:09.000Z</time>
      </trkpt>
      <trkpt lat="44.99169" lon="1.07237">
        <ele>66</ele>
        <time>2017-10-01T08:34:10.000Z</time>
      </trkpt>
      <trkpt lat="44.99163" lon="1.07234">
        <ele>66</ele>
        <time>2017-10-01T08:34:11.000Z</time>
      </trkpt>
      <trkpt lat="44.99158" lon="1.07231">
        <ele>67</ele>
        <time>2017-10-01T08:34:12.000Z</time>
      </trkpt>
      <trkpt lat="44.99153" lon="1.07228">
        <ele>67</ele>
        <time>2017-10-01T08:34:13.000Z</time>
      </trkpt>
      <trkpt lat="44.99148" lon="1.07225">
        <ele>67</ele>
        <time>2017-10-01T08:34:14.000Z</time>
      </trkpt>
      <trkpt lat="44.99142" lon="1.07222">
        <ele>67</ele>
        <time>2017-10-01T08:34:15.000Z</time>
      </trkpt>
      <trkpt lat="44.99137" lon="1.07219">
        <ele>67</ele>
        <time>2017-10-01T08:34:16.000Z</time>
      </trkpt>
      <trkpt lat="44.99131" lon="1.07216">
        <ele>67</ele>
        <time>2017-10-01T08:34:17.000Z</time>
      </trkpt>
      <trkpt lat="44.99126" lon="1.07214">
        <ele>67</ele>
        <time>2017-10-01T08:34:18.000Z</time>
      </trkpt>
      <trkpt lat="44.9912" lon="1.07211">
        <ele>68</ele>
        <time>2017-10-01T08:34:19.000Z</time>
      </trkpt>
      <trkpt lat="44.99115" lon="1.07208">
        <ele>68</ele>
        <time>2017-10-01T08:34:20.000Z</time>
      </trkpt>
      <trkpt lat="44.99109" lon="1.07205">
        <ele>68</ele>
        <time>2017-10-01T08:34:21.000Z</time>
      </trkpt>
      <trkpt lat="44.99104" lon="1.07202">
        <ele>68</ele>
        <time>2017-10-01T08:34:22.000Z</time>
      </trkpt>
      <trkpt lat="44.99099" lon="1.07199">
        <ele>68</ele>
        <time>2017-10-01T08:34:23.000Z</time>
      </trkpt>
      <trkpt lat="44.99094" lon="1.07196">
        <ele>68</ele>
        <time>2017-10-01T08:34:24.000Z</time>
      </trkpt>
      <trkpt lat="44.99088" lon="1.07192">
        <ele>68</ele>
        <time>2017-10-01T08:34:25.000Z</time>
      </trkpt>
      <trkpt lat="44.99083" lon="1.07189">
        <ele>68</ele>
        <time>2017-10-01T08:34:26.000Z</time>
      </trkpt>
      <trkpt lat="44.99078" lon="1.07185">
        <ele>68</ele>
        <time>2017-10-01T08:34:27.000Z</time>
      </trkpt>
      <trkpt lat="44.99073" lon="1.07181">
        <ele>68</ele>
        <time>2017-10-01T08:34:28.000Z</time>
      </trkpt>
      <trkpt lat="44.99068" lon="1.07176">
        <ele>69</ele>
        <time>2017-10-01T08:34:29.000Z</time>
      </trkpt>
      <trkpt lat="44.99063" lon="1.07171">
        <ele>69</ele>
        <time>2017-10-01T08:34:30.000Z</time>
      </trkpt>
      <trkpt lat="44.99059" lon="1.07166">
        <ele>69</ele>
        <time>2017-10-01T08:34:31.000Z</time>
      </trkpt>
      <trkpt lat="44.99054" lon="1.07162">
        <ele>69</ele>
        <time>2017-10-01T08:34:32.000Z</time>
      </trkpt>
      <trkpt lat="44.99049" lon="1.07157">
        <ele>70</ele>
        <time>2017-10-01T08:34:33.000Z</time>
      </trkpt>
      <trkpt lat="44.99044" lon="1.07153">
        <ele>70</ele>
        <time>2017-10-01T08:34:34.000Z</time>
      </trkpt>
      <trkpt lat="44.9904" lon="1.07149">
        <ele>70</ele>
        <time>2017-10-01T08:34:35.000Z</time>
      </trkpt>
      <trkpt lat="44.99035" lon="1.07145">
        <ele>70</ele>
        <time>2017-10-01T08:34:36.000Z</time>
      </trkpt>
      <trkpt lat="44.99031" lon="1.07142">
        <ele>71</ele>
        <time>2017-10-01T08:34:37.000Z</time>
      </trkpt>
      <trkpt lat="44.99027" lon="1.07138">
        <ele>71</ele>
        <time>2017-10-01T08:34:38.000Z</time>
      </trkpt>
      <trkpt lat="44.99023" lon="1.07133">
        <ele>71</ele>
        <time>2017-10-01T08:34:39.000Z</time>
      </trkpt>
      <trkpt lat="44.99019" lon="1.07128">
        <ele>71</ele>
        <time>2017-10-01T08:34:40.000Z</time>
      </trkpt>
      <trkpt lat="44.99015" lon="1.07123">
        <ele>71</ele>
        <time>2017-10-01T08:34:41.000Z</time>
      </trkpt>
      <trkpt lat="44.99012" lon="1.07116">
        <ele>70</ele>
        <time>2017-10-01T08:34:42.000Z</time>
      </trkpt>
      <trkpt lat="44.99008" lon="1.07109">
        <ele>70</ele>
        <time>2017-10-01T08:34:43.000Z</time>
      </trkpt>
      <trkpt lat="44.99005" lon="1.07102">
        <ele>70</ele>
        <time>2017-10-01T08:34:44.000Z</time>
      </trkpt>
      <trkpt lat="44.99002" lon="1.07095">
        <ele>69</ele>
        <time>2017-10-01T08:34:45.000Z</time>
      </trkpt>
      <trkpt lat="44.99" lon="1.07087">
        <ele>69</ele>
        <time>2017-10-01T08:34:46.000Z</time>
      </trkpt>
      <trkpt lat="44.98999" lon="1.07078">
        <ele>69</ele>
        <time>2017-10-01T08:34:47.000Z</time>
      </trkpt>
      <trkpt lat="44.98999" lon="1.0707">
        <ele>69</ele>
        <time>2017-10-01T08:34:48.000Z</time>
      </trkpt>
      <trkpt lat="44.99" lon="1.07062">
        <ele>69</ele>
        <time>2017-10-01T08:34:49.000Z</time>
      </trkpt>
      <trkpt lat="44.99002" lon="1.07054">
        <ele>69</ele>
        <time>2017-10-01T08:34:50.000Z</time>
      </trkpt>
      <trkpt lat="44.99005" lon="1.07048">
        <ele>69</ele>
        <time>2017-10-01T08:34:51.000Z</time>
      </trkpt>
      <trkpt lat="44.99008" lon="1.07042">
        <ele>69</ele>
        <time>2017-10-01T08:34:52.000Z</time>
      </trkpt>
      <trkpt lat="44.99011" lon="1.07036">
        <ele>69</ele>
        <time>2017-10-01T08:34:53.000Z</time>
      </trkpt>
      <trkpt lat="44.99015" lon="1.0703">
        <ele>69</ele>
        <time>2017-10-01T08:34:54.000Z</time>
      </trkpt>
      <trkpt lat="44.99019" lon="1.07024">
        <ele>69</ele>
        <time>2017-10-01T08:34:55.000Z</time>
      </trkpt>
      <trkpt lat="44.99022" lon="1.07017">
        <ele>69</ele>
        <time>2017-10-01T08:34:56.000Z</time>
      </trkpt>
      <trkpt lat="44.99026" lon="1.07011">
        <ele>69</ele>
        <time>2017-10-01T08:34:57.000Z</time>
      </trkpt>
      <trkpt lat="44.99029" lon="1.07005">
        <ele>69</ele>
        <time>2017-10-01T08:34:58.000Z</time>
      </trkpt>
      <trkpt lat="44.99031" lon="1.06999">
        <ele>69</ele>
        <time>2017-10-01T08:34:59.000Z</time>
      </trkpt>
      <trkpt lat="44.99033" lon="1.06993">
        <ele>69</ele>
        <time>2017-10-01T08:35:00.000Z</time>
      </trkpt>
      <trkpt lat="44.99035" lon="1.06987">
        <ele>69</ele>
        <time>2017-10-01T08:35:01.000Z</time>
      </trkpt>
      <trkpt lat="44.99037" lon="1.0698">
        <ele>70</ele>
        <time>2017-10-01T08:35:02.000Z</time>
      </trkpt>
      <trkpt lat="44.99038" lon="1.06974">
        <ele>70</ele>
        <time>2017-10-01T08:35:03.000Z</time>
      </trkpt>
      <trkpt lat="44.9904" lon="1.06967">
        <ele>70</ele>
        <time>2017-10-01T08:35:04.000Z</time>
      </trkpt>
      <trkpt lat="44.99041" lon="1.0696">
        <ele>70</ele>
        <time>2017-10-01T08:35:05.000Z</time>
      </trkpt>
      <trkpt lat="44.99042" lon="1.06953">
        <ele>70</ele>
        <time>2017-10-01T08:35:06.000Z</time>
      </trkpt>
      <trkpt lat="44.99044" lon="1.06946">
        <ele>70</ele>
        <time>2017-10-01T08:35:07.000Z</time>
      </trkpt>
      <trkpt lat="44.99045" lon="1.06939">
        <ele>70</ele>
        <time>2017-10-01T08:35:08.000Z</time>
      </trkpt>
      <trkpt lat="44.99046" lon="1.06932">
        <ele>71</ele>
        <time>2017-10-01T08:35:09.000Z</time>
      </trkpt>
      <trkpt lat="44.99047" lon="1.06924">
        <ele>71</ele>
        <time>2017-10-01T08:35:10.000Z</time>
      </trkpt>
      <trkpt lat="44.99048" lon="1.06917">
        <ele>71</ele>
        <time>2017-10-01T08:35:11.000Z</time>
      </trkpt>
      <trkpt lat="44.99049" lon="1.0691">
        <ele>71</ele>
        <time>2017-10-01T08:35:12.000Z</time>
      </trkpt>
      <trkpt lat="44.9905" lon="1.06902">
        <ele>71</ele>
        <time>2017-10-01T08:35:13.000Z</time>
      </trkpt>
      <trkpt lat="44.99051" lon="1.06895">
        <ele>71</ele>
        <time>2017-10-01T08:35:14.000Z</time>
      </trkpt>
      <trkpt lat="44.99052" lon="1.06888">
        <ele>71</ele>
        <time>2017-10-01T08:35:15.000Z</time>
      </trkpt>
      <trkpt lat="44.99053" lon="1.06881">
        <ele>71</ele>
        <time>2017-10-01T08:35:16.000Z</time>
      </trkpt>
      <trkpt lat="44.99055" lon="1.06873">
        <ele>71</ele>
        <time>2017-10-01T08:35:17.000Z</time>
      </trkpt>
      <trkpt lat="44.99056" lon="1.06866">
        <ele>71</ele>
        <time>2017-10-01T08:35:18.000Z</time>
      </trkpt>
      <trkpt lat="44.99058" lon="1.06859">
        <ele>71</ele>
        <time>2017-10-01T08:35:19.000Z</time>
      </trkpt>
      <trkpt lat="44.9906" lon="1.06852">
        <ele>71</ele>
        <time>2017-10-01T08:35:20.000Z</time>
      </trkpt>
      <trkpt lat="44.99061" lon="1.06845">
        <ele>71</ele>
        <time>2017-10-01T08:35:21.000Z</time>
      </trkpt>
      <trkpt lat="44.99063" lon="1.06838">
        <ele>71</ele>
        <time>2017-10-01T08:35:22.000Z</time>
      </trkpt>
      <trkpt lat="44.99064" lon="1.06831">
        <ele>71</ele>
        <time>2017-10-01T08:35:23.000Z</time>
      </trkpt>
      <trkpt lat="44.99066" lon="1.06824">
        <ele>70</ele>
        <time>2017-10-01T08:35:24.000Z</time>
      </trkpt>
      <trkpt lat="44.99068" lon="1.06818">
        <ele>70</ele>
        <time>2017-10-01T08:35:25.000Z</time>
      </trkpt>
      <trkpt lat="44.99069" lon="1.06811">
        <ele>70</ele>
        <time>2017-10-01T08:35:26.000Z</time>
      </trkpt>
      <trkpt lat="44.99071" lon="1.06804">
        <ele>69</ele>
        <time>2017-10-01T08:35:27.000Z</time>
      </trkpt>
      <trkpt lat="44.99073" lon="1.06798">
        <ele>69</ele>
        <time>2017-10-01T08:35:28.000Z</time>
      </trkpt>
      <trkpt lat="44.99075" lon="1.06791">
        <ele>68</ele>
        <time>2017-10-01T08:35:29.000Z</time>
      </trkpt>
      <trkpt lat="44.99077" lon="1.06784">
        <ele>68</ele>
        <time>2017-10-01T08:35:30.000Z</time>
      </trkpt>
      <trkpt lat="44.9908" lon="1.06778">
        <ele>67</ele>
        <time>2017-10-01T08:35:31.000Z</time>
      </trkpt>
      <trkpt lat="44.99083" lon="1.06771">
        <ele>67</ele>
        <time>2017-10-01T08:35:32.000Z</time>
      </trkpt>
      <trkpt lat="44.99085" lon="1.06764">
        <ele>66</ele>
        <time>2017-10-01T08:35:33.000Z</time>
      </trkpt>
      <trkpt lat="44.99088" lon="1.06757">
        <ele>66</ele>
        <time>2017-10-01T08:35:34.000Z</time>
      </trkpt>
      <trkpt lat="44.99091" lon="1.06751">
        <ele>66</ele>
        <time>2017-10-01T08:35:35.000Z</time>
      </trkpt>
      <trkpt lat="44.99095" lon="1.06744">
        <ele>66</ele>
        <time>2017-10-01T08:35:36.000Z</time>
      </trkpt>
      <trkpt lat="44.99098" lon="1.06738">
        <ele>66</ele>
        <time>2017-10-01T08:35:37.000Z</time>
      </trkpt>
      <trkpt lat="44.99101" lon="1.06731">
        <ele>66</ele>
        <time>2017-10-01T08:35:38.000Z</time>
      </trkpt>
      <trkpt lat="44.99104" lon="1.06725">
        <ele>66</ele>
        <time>2017-10-01T08:35:39.000Z</time>
      </trkpt>
      <trkpt lat="44.99108" lon="1.06719">
        <ele>66</ele>
        <time>2017-10-01T08:35:40.000Z</time>
      </trkpt>
      <trkpt lat="44.99111" lon="1.06713">
        <ele>66</ele>
        <time>2017-10-01T08:35:41.000Z</time>
      </trkpt>
      <trkpt lat="44.99114" lon="1.06707">
        <ele>66</ele>
        <time>2017-10-01T08:35:42.000Z</time>
      </trkpt>
      <trkpt lat="44.99117" lon="1.06701">
        <ele>66</ele>
        <time>2017-10-01T08:35:43.000Z</time>
      </trkpt>
      <trkpt lat="44.9912" lon="1.06694">
        <ele>66</ele>
        <time>2017-10-01T08:35:44.000Z</time>
      </trkpt>
      <trkpt lat="44.99122" lon="1.06686">
        <ele>66</ele>
        <time>2017-10-01T08:35:45.000Z</time>
      </trkpt>
      <trkpt lat="44.99124" lon="1.06679">
        <ele>66</ele>
        <time>2017-10-01T08:35:46.000Z</time>
      </trkpt>
      <trkpt lat="44.99126" lon="1.06671">
        <ele>66</ele>
        <time>2017-10-01T08:35:47.000Z</time>
      </trkpt>
      <trkpt lat="44.99128" lon="1.06664">
        <ele>66</ele>
        <time>2017-10-01T08:35:48.000Z</time>
      </trkpt>
      <trkpt lat="44.9913" lon="1.06656">
        <ele>66</ele>
        <time>2017-10-01T08:35:49.000Z</time>
      </trkpt>
      <trkpt lat="44.99132" lon="1.06648">
        <ele>66</ele>
        <time>2017-10-01T08:35:50.000Z</time>
      </trkpt>
      <trkpt lat="44.99134" lon="1.06641">
        <ele>66</ele>
        <time>2017-10-01T08:35:51.000Z</time>
      </trkpt>
      <trkpt lat="44.99136" lon="1.06633">
        <ele>66</ele>
        <time>2017-10-01T08:35:52.000Z</time>
      </trkpt>
      <trkpt lat="44.99137" lon="1.06626">
        <ele>66</ele>
        <time>2017-10-01T08:35:53.000Z</time>
      </trkpt>
      <trkpt lat="44.99139" lon="1.06619">
        <ele>66</ele>
        <time>2017-10-01T08:35:54.000Z</time>
      </trkpt>
      <trkpt lat="44.99141" lon="1.06612">
        <ele>66</ele>
        <time>2017-10-01T08:35:55.000Z</time>
      </trkpt>
      <trkpt lat="44.99142" lon="1.06605">
        <ele>66</ele>
        <time>2017-10-01T08:35:56.000Z</time>
      </trkpt>
      <trkpt lat="44.99144" lon="1.06597">
        <ele>66</ele>
        <time>2017-10-01T08:35:57.000Z</time>
      </trkpt>
      <trkpt lat="44.99145" lon="1.0659">
        <ele>66</ele>
        <time>2017-10-01T08:35:58.000Z</time>
      </trkpt>
      <trkpt lat="44.99146" lon="1.06583">
        <ele>66</ele>
        <time>2017-10-01T08:35:59.000Z</time>
      </trkpt>
      <trkpt lat="44.99147" lon="1.06576">
        <ele>66</ele>
        <time>2017-10-01T08:36:00.000Z</time>
      </trkpt>
      <trkpt lat="44.99148" lon="1.06569">
        <ele>66</ele>
        <time>2017-10-01T08:36:01.000Z</time>
      </trkpt>
      <trkpt lat="44.99149" lon="1.06562">
        <ele>66</ele>
        <time>2017-10-01T08:36:02.000Z</time>
      </trkpt>
      <trkpt lat="44.9915" lon="1.06555">
        <ele>66</ele>
        <time>2017-10-01T08:36:03.000Z</time>
      </trkpt>
      <trkpt lat="44.99151" lon="1.06547">
        <ele>66</ele>
        <time>2017-10-01T08:36:04.000Z</time>
      </trkpt>
      <trkpt lat="44.99152" lon="1.06539">
        <ele>66</ele>
        <time>2017-10-01T08:36:05.000Z</time>
      </trkpt>
      <trkpt lat="44.99152" lon="1.06531">
        <ele>66</ele>
        <time>2017-10-01T08:36:06.000Z</time>
      </trkpt>
      <trkpt lat="44.99153" lon="1.06524">
        <ele>66</ele>
        <time>2017-10-01T08:36:07.000Z</time>
      </trkpt>
      <trkpt lat="44.99154" lon="1.06516">
        <ele>66</ele>
        <time>2017-10-01T08:36:08.000Z</time>
      </trkpt>
      <trkpt lat="44.99155" lon="1.06508">
        <ele>66</ele>
        <time>2017-10-01T08:36:09.000Z</time>
      </trkpt>
      <trkpt lat="44.99155" lon="1.065">
        <ele>66</ele>
        <time>2017-10-01T08:36:10.000Z</time>
      </trkpt>
      <trkpt lat="44.99157" lon="1.06493">
        <ele>66</ele>
        <time>2017-10-01T08:36:11.000Z</time>
      </trkpt>
      <trkpt lat="44.99158" lon="1.06486">
        <ele>66</ele>
        <time>2017-10-01T08:36:12.000Z</time>
      </trkpt>
      <trkpt lat="44.99159" lon="1.06479">
        <ele>66</ele>
        <time>2017-10-01T08:36:13.000Z</time>
      </trkpt>
      <trkpt lat="44.9916" lon="1.06471">
        <ele>65</ele>
        <time>2017-10-01T08:36:14.000Z</time>
      </trkpt>
      <trkpt lat="44.9916" lon="1.06463">
        <ele>65</ele>
        <time>2017-10-01T08:36:15.000Z</time>
      </trkpt>
      <trkpt lat="44.99161" lon="1.06455">
        <ele>65</ele>
        <time>2017-10-01T08:36:16.000Z</time>
      </trkpt>
      <trkpt lat="44.99162" lon="1.06446">
        <ele>65</ele>
        <time>2017-10-01T08:36:17.000Z</time>
      </trkpt>
      <trkpt lat="44.99163" lon="1.06438">
        <ele>65</ele>
        <time>2017-10-01T08:36:18.000Z</time>
      </trkpt>
      <trkpt lat="44.99164" lon="1.0643">
        <ele>65</ele>
        <time>2017-10-01T08:36:19.000Z</time>
      </trkpt>
      <trkpt lat="44.99165" lon="1.06423">
        <ele>65</ele>
        <time>2017-10-01T08:36:20.000Z</time>
      </trkpt>
      <trkpt lat="44.99166" lon="1.06415">
        <ele>65</ele>
        <time>2017-10-01T08:36:21.000Z</time>
      </trkpt>
      <trkpt lat="44.99168" lon="1.06407">
        <ele>65</ele>
        <time>2017-10-01T08:36:22.000Z</time>
      </trkpt>
      <trkpt lat="44.99169" lon="1.06399">
        <ele>65</ele>
        <time>2017-10-01T08:36:23.000Z</time>
      </trkpt>
      <trkpt lat="44.9917" lon="1.06391">
        <ele>65</ele>
        <time>2017-10-01T08:36:24.000Z</time>
      </trkpt>
      <trkpt lat="44.99172" lon="1.06383">
        <ele>65</ele>
        <time>2017-10-01T08:36:25.000Z</time>
      </trkpt>
      <trkpt lat="44.99173" lon="1.06375">
        <ele>65</ele>
        <time>2017-10-01T08:36:26.000Z</time>
      </trkpt>
      <trkpt lat="44.99174" lon="1.06367">
        <ele>65</ele>
        <time>2017-10-01T08:36:27.000Z</time>
      </trkpt>
      <trkpt lat="44.99176" lon="1.06359">
        <ele>65</ele>
        <time>2017-10-01T08:36:28.000Z</time>
      </trkpt>
      <trkpt lat="44.99177" lon="1.06351">
        <ele>66</ele>
        <time>2017-10-01T08:36:29.000Z</time>
      </trkpt>
      <trkpt lat="44.99178" lon="1.06343">
        <ele>66</ele>
        <time>2017-10-01T08:36:30.000Z</time>
      </trkpt>
      <trkpt lat="44.99179" lon="1.06335">
        <ele>66</ele>
        <time>2017-10-01T08:36:31.000Z</time>
      </trkpt>
      <trkpt lat="44.9918" lon="1.06328">
        <ele>66</ele>
        <time>2017-10-01T08:36:32.000Z</time>
      </trkpt>
      <trkpt lat="44.99181" lon="1.0632">
        <ele>66</ele>
        <time>2017-10-01T08:36:33.000Z</time>
      </trkpt>
      <trkpt lat="44.99183" lon="1.06313">
        <ele>66</ele>
        <time>2017-10-01T08:36:34.000Z</time>
      </trkpt>
      <trkpt lat="44.99184" lon="1.06306">
        <ele>66</ele>
        <time>2017-10-01T08:36:35.000Z</time>
      </trkpt>
      <trkpt lat="44.99185" lon="1.06299">
        <ele>66</ele>
        <time>2017-10-01T08:36:36.000Z</time>
      </trkpt>
      <trkpt lat="44.99186" lon="1.06293">
        <ele>67</ele>
        <time>2017-10-01T08:36:37.000Z</time>
      </trkpt>
      <trkpt lat="44.99187" lon="1.06287">
        <ele>67</ele>
        <time>2017-10-01T08:36:38.000Z</time>
      </trkpt>
      <trkpt lat="44.99188" lon="1.06281">
        <ele>67</ele>
        <time>2017-10-01T08:36:39.000Z</time>
      </trkpt>
      <trkpt lat="44.99189" lon="1.06275">
        <ele>67</ele>
        <time>2017-10-01T08:36:40.000Z</time>
      </trkpt>
      <trkpt lat="44.99189" lon="1.06269">
        <ele>67</ele>
        <time>2017-10-01T08:36:41.000Z</time>
      </trkpt>
      <trkpt lat="44.9919" lon="1.06263">
        <ele>67</ele>
        <time>2017-10-01T08:36:42.000Z</time>
      </trkpt>
      <trkpt lat="44.99191" lon="1.06257">
        <ele>67</ele>
        <time>2017-10-01T08:36:43.000Z</time>
      </trkpt>
      <trkpt lat="44.99192" lon="1.06251">
        <ele>68</ele>
        <time>2017-10-01T08:36:44.000Z</time>
      </trkpt>
      <trkpt lat="44.99193" lon="1.06245">
        <ele>67</ele>
        <time>2017-10-01T08:36:45.000Z</time>
      </trkpt>
      <trkpt lat="44.99194" lon="1.06239">
        <ele>67</ele>
        <time>2017-10-01T08:36:46.000Z</time>
      </trkpt>
      <trkpt lat="44.99194" lon="1.06232">
        <ele>67</ele>
        <time>2017-10-01T08:36:47.000Z</time>
      </trkpt>
      <trkpt lat="44.99195" lon="1.06226">
        <ele>67</ele>
        <time>2017-10-01T08:36:48.000Z</time>
      </trkpt>
      <trkpt lat="44.99196" lon="1.0622">
        <ele>67</ele>
        <time>2017-10-01T08:36:49.000Z</time>
      </trkpt>
      <trkpt lat="44.99196" lon="1.06214">
        <ele>67</ele>
        <time>2017-10-01T08:36:50.000Z</time>
      </trkpt>
      <trkpt lat="44.99197" lon="1.06208">
        <ele>67</ele>
        <time>2017-10-01T08:36:51.000Z</time>
      </trkpt>
      <trkpt lat="44.99196" lon="1.06203">
        <ele>67</ele>
        <time>2017-10-01T08:36:52.000Z</time>
      </trkpt>
      <trkpt lat="44.99196" lon="1.06198">
        <ele>67</ele>
        <time>2017-10-01T08:36:53.000Z</time>
      </trkpt>
      <trkpt lat="44.99195" lon="1.06194">
        <ele>67</ele>
        <time>2017-10-01T08:36:54.000Z</time>
      </trkpt>
      <trkpt lat="44.99193" lon="1.0619">
        <ele>67</ele>
        <time>2017-10-01T08:36:55.000Z</time>
      </trkpt>
      <trkpt lat="44.99192" lon="1.06186">
        <ele>66</ele>
        <time>2017-10-01T08:36:56.000Z</time>
      </trkpt>
      <trkpt lat="44.99191" lon="1.06183">
        <ele>66</ele>
        <time>2017-10-01T08:36:57.000Z</time>
      </trkpt>
      <trkpt lat="44.99189" lon="1.06181">
        <ele>66</ele>
        <time>2017-10-01T08:36:58.000Z</time>
      </trkpt>
      <trkpt lat="44.99188" lon="1.06178">
        <ele>66</ele>
        <time>2017-10-01T08:36:59.000Z</time>
      </trkpt>
      <trkpt lat="44.99187" lon="1.06175">
        <ele>66</ele>
        <time>2017-10-01T08:37:00.000Z</time>
      </trkpt>
      <trkpt lat="44.99186" lon="1.06172">
        <ele>66</ele>
        <time>2017-10-01T08:37:01.000Z</time>
      </trkpt>
      <trkpt lat="44.99185" lon="1.06167">
        <ele>66</ele>
        <time>2017-10-01T08:37:02.000Z</time>
      </trkpt>
      <trkpt lat="44.99185" lon="1.06161">
        <ele>66</ele>
        <time>2017-10-01T08:37:03.000Z</time>
      </trkpt>
      <trkpt lat="44.99185" lon="1.06155">
        <ele>66</ele>
        <time>2017-10-01T08:37:04.000Z</time>
      </trkpt>
      <trkpt lat="44.99186" lon="1.0615">
        <ele>66</ele>
        <time>2017-10-01T08:37:05.000Z</time>
      </trkpt>
      <trkpt lat="44.99188" lon="1.06145">
        <ele>66</ele>
        <time>2017-10-01T08:37:06.000Z</time>
      </trkpt>
      <trkpt lat="44.9919" lon="1.06141">
        <ele>66</ele>
        <time>2017-10-01T08:37:07.000Z</time>
      </trkpt>
      <trkpt lat="44.99192" lon="1.06137">
        <ele>66</ele>
        <time>2017-10-01T08:37:08.000Z</time>
      </trkpt>
      <trkpt lat="44.99194" lon="1.06133">
        <ele>66</ele>
        <time>2017-10-01T08:37:09.000Z</time>
      </trkpt>
      <trkpt lat="44.99195" lon="1.06129">
        <ele>66</ele>
        <time>2017-10-01T08:37:10.000Z</time>
      </trkpt>
      <trkpt lat="44.99196" lon="1.06123">
        <ele>66</ele>
        <time>2017-10-01T08:37:11.000Z</time>
      </trkpt>
      <trkpt lat="44.99196" lon="1.06117">
        <ele>66</ele>
        <time>2017-10-01T08:37:12.000Z</time>
      </trkpt>
      <trkpt lat="44.99195" lon="1.0611">
        <ele>66</ele>
        <time>2017-10-01T08:37:13.000Z</time>
      </trkpt>
      <trkpt lat="44.99194" lon="1.06102">
        <ele>66</ele>
        <time>2017-10-01T08:37:14.000Z</time>
      </trkpt>
      <trkpt lat="44.99194" lon="1.06095">
        <ele>66</ele>
        <time>2017-10-01T08:37:15.000Z</time>
      </trkpt>
      <trkpt lat="44.99193" lon="1.06087">
        <ele>66</ele>
        <time>2017-10-01T08:37:16.000Z</time>
      </trkpt>
      <trkpt lat="44.99192" lon="1.0608">
        <ele>67</ele>
        <time>2017-10-01T08:37:17.000Z</time>
      </trkpt>
      <trkpt lat="44.99192" lon="1.06072">
        <ele>67</ele>
        <time>2017-10-01T08:37:18.000Z</time>
      </trkpt>
      <trkpt lat="44.99192" lon="1.06066">
        <ele>67</ele>
        <time>2017-10-01T08:37:19.000Z</time>
      </trkpt>
      <trkpt lat="44.99193" lon="1.0606">
        <ele>67</ele>
        <time>2017-10-01T08:37:20.000Z</time>
      </trkpt>
      <trkpt lat="44.99193" lon="1.06054">
        <ele>67</ele>
        <time>2017-10-01T08:37:21.000Z</time>
      </trkpt>
      <trkpt lat="44.99193" lon="1.06049">
        <ele>67</ele>
        <time>2017-10-01T08:37:22.000Z</time>
      </trkpt>
      <trkpt lat="44.99193" lon="1.06043">
        <ele>67</ele>
        <time>2017-10-01T08:37:23.000Z</time>
      </trkpt>
      <trkpt lat="44.99193" lon="1.06037">
        <ele>67</ele>
        <time>2017-10-01T08:37:24.000Z</time>
      </trkpt>
      <trkpt lat="44.99193" lon="1.06031">
        <ele>68</ele>
        <time>2017-10-01T08:37:25.000Z</time>
      </trkpt>
      <trkpt lat="44.99193" lon="1.06024">
        <ele>68</ele>
        <time>2017-10-01T08:37:26.000Z</time>
      </trkpt>
      <trkpt lat="44.99193" lon="1.06018">
        <ele>68</ele>
        <time>2017-10-01T08:37:27.000Z</time>
      </trkpt>
      <trkpt lat="44.99193" lon="1.06011">
        <ele>68</ele>
        <time>2017-10-01T08:37:28.000Z</time>
      </trkpt>
      <trkpt lat="44.99192" lon="1.06004">
        <ele>68</ele>
        <time>2017-10-01T08:37:29.000Z</time>
      </trkpt>
      <trkpt lat="44.99192" lon="1.05997">
        <ele>68</ele>
        <time>2017-10-01T08:37:30.000Z</time>
      </trkpt>
      <trkpt lat="44.99191" lon="1.0599">
        <ele>68</ele>
        <time>2017-10-01T08:37:31.000Z</time>
      </trkpt>
      <trkpt lat="44.9919" lon="1.05983">
        <ele>68</ele>
        <time>2017-10-01T08:37:32.000Z</time>
      </trkpt>
      <trkpt lat="44.9919" lon="1.05977">
        <ele>68</ele>
        <time>2017-10-01T08:37:33.000Z</time>
      </trkpt>
      <trkpt lat="44.99189" lon="1.0597">
        <ele>68</ele>
        <time>2017-10-01T08:37:34.000Z</time>
      </trkpt>
      <trkpt lat="44.99188" lon="1.05963">
        <ele>68</ele>
        <time>2017-10-01T08:37:35.000Z</time>
      </trkpt>
      <trkpt lat="44.99187" lon="1.05956">
        <ele>68</ele>
        <time>2017-10-01T08:37:36.000Z</time>
      </trkpt>
      <trkpt lat="44.99187" lon="1.0595">
        <ele>68</ele>
        <time>2017-10-01T08:37:37.000Z</time>
      </trkpt>
      <trkpt lat="44.99186" lon="1.05943">
        <ele>68</ele>
        <time>2017-10-01T08:37:38.000Z</time>
      </trkpt>
      <trkpt lat="44.99186" lon="1.05937">
        <ele>68</ele>
        <time>2017-10-01T08:37:39.000Z</time>
      </trkpt>
      <trkpt lat="44.99185" lon="1.05931">
        <ele>68</ele>
        <time>2017-10-01T08:37:40.000Z</time>
      </trkpt>
      <trkpt lat="44.99185" lon="1.05925">
        <ele>68</ele>
        <time>2017-10-01T08:37:41.000Z</time>
      </trkpt>
      <trkpt lat="44.99184" lon="1.05919">
        <ele>68</ele>
        <time>2017-10-01T08:37:42.000Z</time>
      </trkpt>
      <trkpt lat="44.99184" lon="1.05913">
        <ele>68</ele>
        <time>2017-10-01T08:37:43.000Z</time>
      </trkpt>
      <trkpt lat="44.99184" lon="1.05908">
        <ele>67</ele>
        <time>2017-10-01T08:37:44.000Z</time>
      </trkpt>
      <trkpt lat="44.99184" lon="1.05902">
        <ele>67</ele>
        <time>2017-10-01T08:37:45.000Z</time>
      </trkpt>
      <trkpt lat="44.99183" lon="1.05897">
        <ele>67</ele>
        <time>2017-10-01T08:37:46.000Z</time>
      </trkpt>
      <trkpt lat="44.99182" lon="1.05893">
        <ele>67</ele>
        <time>2017-10-01T08:37:47.000Z</time>
      </trkpt>
      <trkpt lat="44.99182" lon="1.05888">
        <ele>67</ele>
        <time>2017-10-01T08:37:48.000Z</time>
      </trkpt>
      <trkpt lat="44.99181" lon="1.05884">
        <ele>67</ele>
        <time>2017-10-01T08:37:49.000Z</time>
      </trkpt>
      <trkpt lat="44.9918" lon="1.0588">
        <ele>67</ele>
        <time>2017-10-01T08:37:50.000Z</time>
      </trkpt>
      <trkpt lat="44.9918" lon="1.05876">
        <ele>67</ele>
        <time>2017-10-01T08:37:51.000Z</time>
      </trkpt>
      <trkpt lat="44.99181" lon="1.05871">
        <ele>66</ele>
        <time>2017-10-01T08:37:52.000Z</time>
      </trkpt>
      <trkpt lat="44.99182" lon="1.05867">
        <ele>66</ele>
        <time>2017-10-01T08:37:53.000Z</time>
      </trkpt>
      <trkpt lat="44.99183" lon="1.05863">
        <ele>66</ele>
        <time>2017-10-01T08:37:54.000Z</time>
      </trkpt>
      <trkpt lat="44.99186" lon="1.05859">
        <ele>66</ele>
        <time>2017-10-01T08:37:55.000Z</time>
      </trkpt>
      <trkpt lat="44.9919" lon="1.05856">
        <ele>66</ele>
        <time>2017-10-01T08:37:56.000Z</time>
      </trkpt>
      <trkpt lat="44.99194" lon="1.05854">
        <ele>66</ele>
        <time>2017-10-01T08:37:57.000Z</time>
      </trkpt>
      <trkpt lat="44.99198" lon="1.05852">
        <ele>66</ele>
        <time>2017-10-01T08:37:58.000Z</time>
      </trkpt>
      <trkpt lat="44.99202" lon="1.05851">
        <ele>66</ele>
        <time>2017-10-01T08:37:59.000Z</time>
      </trkpt>
      <trkpt lat="44.99206" lon="1.05849">
        <ele>66</ele>
        <time>2017-10-01T08:38:00.000Z</time>
      </trkpt>
      <trkpt lat="44.99209" lon="1.05846">
        <ele>65</ele>
        <time>2017-10-01T08:38:01.000Z</time>
      </trkpt>
      <trkpt lat="44.99211" lon="1.0584">
        <ele>65</ele>
        <time>2017-10-01T08:38:02.000Z</time>
      </trkpt>
      <trkpt lat="44.99211" lon="1.05833">
        <ele>65</ele>
        <time>2017-10-01T08:38:03.000Z</time>
      </trkpt>
      <trkpt lat="44.99212" lon="1.05826">
        <ele>65</ele>
        <time>2017-10-01T08:38:04.000Z</time>
      </trkpt>
      <trkpt lat="44.99212" lon="1.05818">
        <ele>65</ele>
        <time>2017-10-01T08:38:05.000Z</time>
      </trkpt>
      <trkpt lat="44.99212" lon="1.0581">
        <ele>65</ele>
        <time>2017-10-01T08:38:06.000Z</time>
      </trkpt>
      <trkpt lat="44.99213" lon="1.05803">
        <ele>65</ele>
        <time>2017-10-01T08:38:07.000Z</time>
      </trkpt>
      <trkpt lat="44.99213" lon="1.05796">
        <ele>65</ele>
        <time>2017-10-01T08:38:08.000Z</time>
      </trkpt>
      <trkpt lat="44.99213" lon="1.05789">
        <ele>65</ele>
        <time>2017-10-01T08:38:09.000Z</time>
      </trkpt>
      <trkpt lat="44.99214" lon="1.05781">
        <ele>65</ele>
        <time>2017-10-01T08:38:10.000Z</time>
      </trkpt>
      <trkpt lat="44.99214" lon="1.05774">
        <ele>65</ele>
        <time>2017-10-01T08:38:11.000Z</time>
      </trkpt>
      <trkpt lat="44.99215" lon="1.05767">
        <ele>65</ele>
        <time>2017-10-01T08:38:12.000Z</time>
      </trkpt>
      <trkpt lat="44.99215" lon="1.0576">
        <ele>65</ele>
        <time>2017-10-01T08:38:13.000Z</time>
      </trkpt>
      <trkpt lat="44.99216" lon="1.05752">
        <ele>65</ele>
        <time>2017-10-01T08:38:14.000Z</time>
      </trkpt>
      <trkpt lat="44.99217" lon="1.05744">
        <ele>65</ele>
        <time>2017-10-01T08:38:15.000Z</time>
      </trkpt>
      <trkpt lat="44.99218" lon="1.05736">
        <ele>65</ele>
        <time>2017-10-01T08:38:16.000Z</time>
      </trkpt>
      <trkpt lat="44.99219" lon="1.05728">
        <ele>65</ele>
        <time>2017-10-01T08:38:17.000Z</time>
      </trkpt>
      <trkpt lat="44.99221" lon="1.0572">
        <ele>65</ele>
        <time>2017-10-01T08:38:18.000Z</time>
      </trkpt>
      <trkpt lat="44.99223" lon="1.05712">
        <ele>65</ele>
        <time>2017-10-01T08:38:19.000Z</time>
      </trkpt>
      <trkpt lat="44.99225" lon="1.05704">
        <ele>65</ele>
        <time>2017-10-01T08:38:20.000Z</time>
      </trkpt>
      <trkpt lat="44.99227" lon="1.05696">
        <ele>65</ele>
        <time>2017-10-01T08:38:21.000Z</time>
      </trkpt>
      <trkpt lat="44.99229" lon="1.05688">
        <ele>65</ele>
        <time>2017-10-01T08:38:22.000Z</time>
      </trkpt>
      <trkpt lat="44.99232" lon="1.0568">
        <ele>65</ele>
        <time>2017-10-01T08:38:23.000Z</time>
      </trkpt>
      <trkpt lat="44.99234" lon="1.05673">
        <ele>65</ele>
        <time>2017-10-01T08:38:24.000Z</time>
      </trkpt>
      <trkpt lat="44.99236" lon="1.05664">
        <ele>65</ele>
        <time>2017-10-01T08:38:25.000Z</time>
      </trkpt>
      <trkpt lat="44.99237" lon="1.05656">
        <ele>65</ele>
        <time>2017-10-01T08:38:26.000Z</time>
      </trkpt>
      <trkpt lat="44.99238" lon="1.05647">
        <ele>65</ele>
        <time>2017-10-01T08:38:27.000Z</time>
      </trkpt>
      <trkpt lat="44.99238" lon="1.05639">
        <ele>66</ele>
        <time>2017-10-01T08:38:28.000Z</time>
      </trkpt>
      <trkpt lat="44.99237" lon="1.05631">
        <ele>66</ele>
        <time>2017-10-01T08:38:29.000Z</time>
      </trkpt>
      <trkpt lat="44.99237" lon="1.05624">
        <ele>66</ele>
        <time>2017-10-01T08:38:30.000Z</time>
      </trkpt>
      <trkpt lat="44.99237" lon="1.05617">
        <ele>66</ele>
        <time>2017-10-01T08:38:31.000Z</time>
      </trkpt>
      <trkpt lat="44.99237" lon="1.0561">
        <ele>66</ele>
        <time>2017-10-01T08:38:32.000Z</time>
      </trkpt>
      <trkpt lat="44.99237" lon="1.05603">
        <ele>66</ele>
        <time>2017-10-01T08:38:33.000Z</time>
      </trkpt>
      <trkpt lat="44.99238" lon="1.05596">
        <ele>66</ele>
        <time>2017-10-01T08:38:34.000Z</time>
      </trkpt>
      <trkpt lat="44.99239" lon="1.05589">
        <ele>66</ele>
        <time>2017-10-01T08:38:35.000Z</time>
      </trkpt>
      <trkpt lat="44.9924" lon="1.05582">
        <ele>66</ele>
        <time>2017-10-01T08:38:36.000Z</time>
      </trkpt>
      <trkpt lat="44.99241" lon="1.05575">
        <ele>67</ele>
        <time>2017-10-01T08:38:37.000Z</time>
      </trkpt>
      <trkpt lat="44.99242" lon="1.05568">
        <ele>68</ele>
        <time>2017-10-01T08:38:38.000Z</time>
      </trkpt>
      <trkpt lat="44.99244" lon="1.05561">
        <ele>69</ele>
        <time>2017-10-01T08:38:39.000Z</time>
      </trkpt>
      <trkpt lat="44.99246" lon="1.05554">
        <ele>70</ele>
        <time>2017-10-01T08:38:40.000Z</time>
      </trkpt>
      <trkpt lat="44.99249" lon="1.05548">
        <ele>70</ele>
        <time>2017-10-01T08:38:41.000Z</time>
      </trkpt>
      <trkpt lat="44.99252" lon="1.05541">
        <ele>71</ele>
        <time>2017-10-01T08:38:42.000Z</time>
      </trkpt>
      <trkpt lat="44.99255" lon="1.05536">
        <ele>72</ele>
        <time>2017-10-01T08:38:43.000Z</time>
      </trkpt>
      <trkpt lat="44.99258" lon="1.05531">
        <ele>73</ele>
        <time>2017-10-01T08:38:44.000Z</time>
      </trkpt>
      <trkpt lat="44.99261" lon="1.05526">
        <ele>74</ele>
        <time>2017-10-01T08:38:45.000Z</time>
      </trkpt>
      <trkpt lat="44.99264" lon="1.05522">
        <ele>75</ele>
        <time>2017-10-01T08:38:46.000Z</time>
      </trkpt>
      <trkpt lat="44.99267" lon="1.05519">
        <ele>76</ele>
        <time>2017-10-01T08:38:47.000Z</time>
      </trkpt>
      <trkpt lat="44.99269" lon="1.05515">
        <ele>77</ele>
        <time>2017-10-01T08:38:48.000Z</time>
      </trkpt>
      <trkpt lat="44.99272" lon="1.05512">
        <ele>78</ele>
        <time>2017-10-01T08:38:49.000Z</time>
      </trkpt>
      <trkpt lat="44.99275" lon="1.05509">
        <ele>79</ele>
        <time>2017-10-01T08:38:50.000Z</time>
      </trkpt>
      <trkpt lat="44.99277" lon="1.05505">
        <ele>80</ele>
        <time>2017-10-01T08:38:51.000Z</time>
      </trkpt>
      <trkpt lat="44.99278" lon="1.05501">
        <ele>81</ele>
        <time>2017-10-01T08:38:52.000Z</time>
      </trkpt>
      <trkpt lat="44.99278" lon="1.05497">
        <ele>82</ele>
        <time>2017-10-01T08:38:53.000Z</time>
      </trkpt>
      <trkpt lat="44.99277" lon="1.05493">
        <ele>83</ele>
        <time>2017-10-01T08:38:54.000Z</time>
      </trkpt>
      <trkpt lat="44.99275" lon="1.05488">
        <ele>83</ele>
        <time>2017-10-01T08:38:55.000Z</time>
      </trkpt>
      <trkpt lat="44.99273" lon="1.05485">
        <ele>84</ele>
        <time>2017-10-01T08:38:56.000Z</time>
      </trkpt>
      <trkpt lat="44.9927" lon="1.05481">
        <ele>84</ele>
        <time>2017-10-01T08:38:57.000Z</time>
      </trkpt>
      <trkpt lat="44.99268" lon="1.05477">
        <ele>85</ele>
        <time>2017-10-01T08:38:58.000Z</time>
      </trkpt>
      <trkpt lat="44.99266" lon="1.05474">
        <ele>85</ele>
        <time>2017-10-01T08:38:59.000Z</time>
      </trkpt>
      <trkpt lat="44.99263" lon="1.0547">
        <ele>86</ele>
        <time>2017-10-01T08:39:00.000Z</time>
      </trkpt>
      <trkpt lat="44.9926" lon="1.05467">
        <ele>86</ele>
        <time>2017-10-01T08:39:01.000Z</time>
      </trkpt>
      <trkpt lat="44.99257" lon="1.05463">
        <ele>86</ele>
        <time>2017-10-01T08:39:02.000Z</time>
      </trkpt>
      <trkpt lat="44.99254" lon="1.0546">
        <ele>87</ele>
        <time>2017-10-01T08:39:03.000Z</time>
      </trkpt>
      <trkpt lat="44.99251" lon="1.05456">
        <ele>87</ele>
        <time>2017-10-01T08:39:04.000Z</time>
      </trkpt>
      <trkpt lat="44.99248" lon="1.05452">
        <ele>87</ele>
        <time>2017-10-01T08:39:05.000Z</time>
      </trkpt>
      <trkpt lat="44.99245" lon="1.05448">
        <ele>88</ele>
        <time>2017-10-01T08:39:06.000Z</time>
      </trkpt>
      <trkpt lat="44.99242" lon="1.05445">
        <ele>88</ele>
        <time>2017-10-01T08:39:07.000Z</time>
      </trkpt>
      <trkpt lat="44.99239" lon="1.05441">
        <ele>88</ele>
        <time>2017-10-01T08:39:08.000Z</time>
      </trkpt>
      <trkpt lat="44.99236" lon="1.05437">
        <ele>88</ele>
        <time>2017-10-01T08:39:09.000Z</time>
      </trkpt>
      <trkpt lat="44.99233" lon="1.05434">
        <ele>88</ele>
        <time>2017-10-01T08:39:10.000Z</time>
      </trkpt>
      <trkpt lat="44.9923" lon="1.05431">
        <ele>88</ele>
        <time>2017-10-01T08:39:11.000Z</time>
      </trkpt>
      <trkpt lat="44.99226" lon="1.05428">
        <ele>88</ele>
        <time>2017-10-01T08:39:12.000Z</time>
      </trkpt>
      <trkpt lat="44.99223" lon="1.05424">
        <ele>88</ele>
        <time>2017-10-01T08:39:13.000Z</time>
      </trkpt>
      <trkpt lat="44.9922" lon="1.05421">
        <ele>88</ele>
        <time>2017-10-01T08:39:14.000Z</time>
      </trkpt>
      <trkpt lat="44.99217" lon="1.05416">
        <ele>88</ele>
        <time>2017-10-01T08:39:15.000Z</time>
      </trkpt>
      <trkpt lat="44.99214" lon="1.05412">
        <ele>88</ele>
        <time>2017-10-01T08:39:16.000Z</time>
      </trkpt>
      <trkpt lat="44.9921" lon="1.05408">
        <ele>87</ele>
        <time>2017-10-01T08:39:17.000Z</time>
      </trkpt>
      <trkpt lat="44.99207" lon="1.05404">
        <ele>87</ele>
        <time>2017-10-01T08:39:18.000Z</time>
      </trkpt>
      <trkpt lat="44.99204" lon="1.05399">
        <ele>86</ele>
        <time>2017-10-01T08:39:19.000Z</time>
      </trkpt>
      <trkpt lat="44.992" lon="1.05395">
        <ele>86</ele>
        <time>2017-10-01T08:39:20.000Z</time>
      </trkpt>
      <trkpt lat="44.99197" lon="1.0539">
        <ele>85</ele>
        <time>2017-10-01T08:39:21.000Z</time>
      </trkpt>
      <trkpt lat="44.99193" lon="1.05385">
        <ele>85</ele>
        <time>2017-10-01T08:39:22.000Z</time>
      </trkpt>
      <trkpt lat="44.9919" lon="1.05379">
        <ele>84</ele>
        <time>2017-10-01T08:39:23.000Z</time>
      </trkpt>
      <trkpt lat="44.99187" lon="1.05373">
        <ele>84</ele>
        <time>2017-10-01T08:39:24.000Z</time>
      </trkpt>
      <trkpt lat="44.99185" lon="1.05366">
        <ele>84</ele>
        <time>2017-10-01T08:39:25.000Z</time>
      </trkpt>
      <trkpt lat="44.99182" lon="1.0536">
        <ele>83</ele>
        <time>2017-10-01T08:39:26.000Z</time>
      </trkpt>
      <trkpt lat="44.9918" lon="1.05352">
        <ele>83</ele>
        <time>2017-10-01T08:39:27.000Z</time>
      </trkpt>
      <trkpt lat="44.99177" lon="1.05345">
        <ele>82</ele>
        <time>2017-10-01T08:39:28.000Z</time>
      </trkpt>
      <trkpt lat="44.99174" lon="1.05338">
        <ele>82</ele>
        <time>2017-10-01T08:39:29.000Z</time>
      </trkpt>
      <trkpt lat="44.99172" lon="1.0533">
        <ele>82</ele>
        <time>2017-10-01T08:39:30.000Z</time>
      </trkpt>
      <trkpt lat="44.99171" lon="1.05322">
        <ele>81</ele>
        <time>2017-10-01T08:39:31.000Z</time>
      </trkpt>
      <trkpt lat="44.9917" lon="1.05314">
        <ele>81</ele>
        <time>2017-10-01T08:39:32.000Z</time>
      </trkpt>
      <trkpt lat="44.99171" lon="1.05307">
        <ele>81</ele>
        <time>2017-10-01T08:39:33.000Z</time>
      </trkpt>
      <trkpt lat="44.99172" lon="1.053">
        <ele>82</ele>
        <time>2017-10-01T08:39:34.000Z</time>
      </trkpt>
      <trkpt lat="44.99173" lon="1.05294">
        <ele>82</ele>
        <time>2017-10-01T08:39:35.000Z</time>
      </trkpt>
      <trkpt lat="44.99175" lon="1.05289">
        <ele>83</ele>
        <time>2017-10-01T08:39:36.000Z</time>
      </trkpt>
      <trkpt lat="44.99178" lon="1.05284">
        <ele>84</ele>
        <time>2017-10-01T08:39:37.000Z</time>
      </trkpt>
      <trkpt lat="44.99181" lon="1.05279">
        <ele>85</ele>
        <time>2017-10-01T08:39:38.000Z</time>
      </trkpt>
      <trkpt lat="44.99183" lon="1.05275">
        <ele>85</ele>
        <time>2017-10-01T08:39:39.000Z</time>
      </trkpt>
      <trkpt lat="44.99186" lon="1.05272">
        <ele>86</ele>
        <time>2017-10-01T08:39:40.000Z</time>
      </trkpt>
      <trkpt lat="44.99189" lon="1.05268">
        <ele>87</ele>
        <time>2017-10-01T08:39:41.000Z</time>
      </trkpt>
      <trkpt lat="44.99191" lon="1.05264">
        <ele>87</ele>
        <time>2017-10-01T08:39:42.000Z</time>
      </trkpt>
      <trkpt lat="44.99193" lon="1.05261">
        <ele>88</ele>
        <time>2017-10-01T08:39:43.000Z</time>
      </trkpt>
      <trkpt lat="44.99195" lon="1.05258">
        <ele>89</ele>
        <time>2017-10-01T08:39:44.000Z</time>
      </trkpt>
      <trkpt lat="44.99197" lon="1.05254">
        <ele>89</ele>
        <time>2017-10-01T08:39:45.000Z</time>
      </trkpt>
      <trkpt lat="44.99199" lon="1.05251">
        <ele>90</ele>
        <time>2017-10-01T08:39:46.000Z</time>
      </trkpt>
      <trkpt lat="44.99201" lon="1.05248">
        <ele>90</ele>
        <time>2017-10-01T08:39:47.000Z</time>
      </trkpt>
      <trkpt lat="44.99203" lon="1.05245">
        <ele>91</ele>
        <time>2017-10-01T08:39:48.000Z</time>
      </trkpt>
      <trkpt lat="44.99205" lon="1.05242">
        <ele>91</ele>
        <time>2017-10-01T08:39:49.000Z</time>
      </trkpt>
      <trkpt lat="44.99207" lon="1.05239">
        <ele>92</ele>
        <time>2017-10-01T08:39:50.000Z</time>
      </trkpt>
      <trkpt lat="44.99209" lon="1.05236">
        <ele>92</ele>
        <time>2017-10-01T08:39:51.000Z</time>
      </trkpt>
      <trkpt lat="44.9921" lon="1.05233">
        <ele>92</ele>
        <time>2017-10-01T08:39:52.000Z</time>
      </trkpt>
      <trkpt lat="44.99213" lon="1.0523">
        <ele>93</ele>
        <time>2017-10-01T08:39:53.000Z</time>
      </trkpt>
      <trkpt lat="44.99215" lon="1.05226">
        <ele>93</ele>
        <time>2017-10-01T08:39:54.000Z</time>
      </trkpt>
      <trkpt lat="44.99217" lon="1.05223">
        <ele>93</ele>
        <time>2017-10-01T08:39:55.000Z</time>
      </trkpt>
      <trkpt lat="44.99219" lon="1.0522">
        <ele>93</ele>
        <time>2017-10-01T08:39:56.000Z</time>
      </trkpt>
      <trkpt lat="44.99221" lon="1.05217">
        <ele>94</ele>
        <time>2017-10-01T08:39:57.000Z</time>
      </trkpt>
      <trkpt lat="44.99224" lon="1.05214">
        <ele>94</ele>
        <time>2017-10-01T08:39:58.000Z</time>
      </trkpt>
      <trkpt lat="44.99226" lon="1.05211">
        <ele>94</ele>
        <time>2017-10-01T08:39:59.000Z</time>
      </trkpt>
      <trkpt lat="44.99229" lon="1.05208">
        <ele>94</ele>
        <time>2017-10-01T08:40:00.000Z</time>
      </trkpt>
      <trkpt lat="44.99231" lon="1.05206">
        <ele>94</ele>
        <time>2017-10-01T08:40:01.000Z</time>
      </trkpt>
      <trkpt lat="44.99234" lon="1.05203">
        <ele>94</ele>
        <time>2017-10-01T08:40:02.000Z</time>
      </trkpt>
      <trkpt lat="44.99237" lon="1.05201">
        <ele>94</ele>
        <time>2017-10-01T08:40:03.000Z</time>
      </trkpt>
      <trkpt lat="44.99239" lon="1.05198">
        <ele>94</ele>
        <time>2017-10-01T08:40:04.000Z</time>
      </trkpt>
      <trkpt lat="44.99242" lon="1.05196">
        <ele>93</ele>
        <time>2017-10-01T08:40:05.000Z</time>
      </trkpt>
      <trkpt lat="44.99245" lon="1.05194">
        <ele>93</ele>
        <time>2017-10-01T08:40:06.000Z</time>
      </trkpt>
      <trkpt lat="44.99247" lon="1.05191">
        <ele>93</ele>
        <time>2017-10-01T08:40:07.000Z</time>
      </trkpt>
      <trkpt lat="44.9925" lon="1.05189">
        <ele>93</ele>
        <time>2017-10-01T08:40:08.000Z</time>
      </trkpt>
      <trkpt lat="44.99253" lon="1.05187">
        <ele>93</ele>
        <time>2017-10-01T08:40:09.000Z</time>
      </trkpt>
      <trkpt lat="44.99256" lon="1.05184">
        <ele>93</ele>
        <time>2017-10-01T08:40:10.000Z</time>
      </trkpt>
      <trkpt lat="44.99259" lon="1.05182">
        <ele>93</ele>
        <time>2017-10-01T08:40:11.000Z</time>
      </trkpt>
      <trkpt lat="44.99261" lon="1.0518">
        <ele>93</ele>
        <time>2017-10-01T08:40:12.000Z</time>
      </trkpt>
      <trkpt lat="44.99264" lon="1.05177">
        <ele>93</ele>
        <time>2017-10-01T08:40:13.000Z</time>
      </trkpt>
      <trkpt lat="44.99267" lon="1.05175">
        <ele>94</ele>
        <time>2017-10-01T08:40:14.000Z</time>
      </trkpt>
      <trkpt lat="44.9927" lon="1.05172">
        <ele>94</ele>
        <time>2017-10-01T08:40:15.000Z</time>
      </trkpt>
      <trkpt lat="44.99273" lon="1.0517">
        <ele>94</ele>
        <time>2017-10-01T08:40:16.000Z</time>
      </trkpt>
      <trkpt lat="44.99277" lon="1.05167">
        <ele>94</ele>
        <time>2017-10-01T08:40:17.000Z</time>
      </trkpt>
      <trkpt lat="44.9928" lon="1.05165">
        <ele>95</ele>
        <time>2017-10-01T08:40:18.000Z</time>
      </trkpt>
      <trkpt lat="44.99283" lon="1.05162">
        <ele>95</ele>
        <time>2017-10-01T08:40:19.000Z</time>
      </trkpt>
      <trkpt lat="44.99286" lon="1.05159">
        <ele>96</ele>
        <time>2017-10-01T08:40:20.000Z</time>
      </trkpt>
      <trkpt lat="44.9929" lon="1.05156">
        <ele>97</ele>
        <time>2017-10-01T08:40:21.000Z</time>
      </trkpt>
      <trkpt lat="44.99293" lon="1.05153">
        <ele>97</ele>
        <time>2017-10-01T08:40:22.000Z</time>
      </trkpt>
      <trkpt lat="44.99296" lon="1.0515">
        <ele>98</ele>
        <time>2017-10-01T08:40:23.000Z</time>
      </trkpt>
      <trkpt lat="44.993" lon="1.05147">
        <ele>98</ele>
        <time>2017-10-01T08:40:24.000Z</time>
      </trkpt>
      <trkpt lat="44.99304" lon="1.05143">
        <ele>99</ele>
        <time>2017-10-01T08:40:25.000Z</time>
      </trkpt>
      <trkpt lat="44.99307" lon="1.0514">
        <ele>99</ele>
        <time>2017-10-01T08:40:26.000Z</time>
      </trkpt>
      <trkpt lat="44.99311" lon="1.05136">
        <ele>99</ele>
        <time>2017-10-01T08:40:27.000Z</time>
      </trkpt>
      <trkpt lat="44.99315" lon="1.05132">
        <ele>99</ele>
        <time>2017-10-01T08:40:28.000Z</time>
      </trkpt>
      <trkpt lat="44.99319" lon="1.05128">
        <ele>99</ele>
        <time>2017-10-01T08:40:29.000Z</time>
      </trkpt>
      <trkpt lat="44.99323" lon="1.05124">
        <ele>99</ele>
        <time>2017-10-01T08:40:30.000Z</time>
      </trkpt>
      <trkpt lat="44.99327" lon="1.0512">
        <ele>99</ele>
        <time>2017-10-01T08:40:31.000Z</time>
      </trkpt>
      <trkpt lat="44.99331" lon="1.05116">
        <ele>99</ele>
        <time>2017-10-01T08:40:32.000Z</time>
      </trkpt>
      <trkpt lat="44.99335" lon="1.05112">
        <ele>99</ele>
        <time>2017-10-01T08:40:33.000Z</time>
      </trkpt>
      <trkpt lat="44.99339" lon="1.05108">
        <ele>99</ele>
        <time>2017-10-01T08:40:34.000Z</time>
      </trkpt>
      <trkpt lat="44.99344" lon="1.05104">
        <ele>99</ele>
        <time>2017-10-01T08:40:35.000Z</time>
      </trkpt>
      <trkpt lat="44.99348" lon="1.05101">
        <ele>99</ele>
        <time>2017-10-01T08:40:36.000Z</time>
      </trkpt>
      <trkpt lat="44.99352" lon="1.05097">
        <ele>99</ele>
        <time>2017-10-01T08:40:37.000Z</time>
      </trkpt>
      <trkpt lat="44.99357" lon="1.05093">
        <ele>99</ele>
        <time>2017-10-01T08:40:38.000Z</time>
      </trkpt>
      <trkpt lat="44.99361" lon="1.05088">
        <ele>99</ele>
        <time>2017-10-01T08:40:39.000Z</time>
      </trkpt>
      <trkpt lat="44.99365" lon="1.05083">
        <ele>99</ele>
        <time>2017-10-01T08:40:40.000Z</time>
      </trkpt>
      <trkpt lat="44.99369" lon="1.05079">
        <ele>100</ele>
        <time>2017-10-01T08:40:41.000Z</time>
      </trkpt>
      <trkpt lat="44.99373" lon="1.05074">
        <ele>101</ele>
        <time>2017-10-01T08:40:42.000Z</time>
      </trkpt>
      <trkpt lat="44.99378" lon="1.0507">
        <ele>101</ele>
        <time>2017-10-01T08:40:43.000Z</time>
      </trkpt>
      <trkpt lat="44.99382" lon="1.05067">
        <ele>102</ele>
        <time>2017-10-01T08:40:44.000Z</time>
      </trkpt>
      <trkpt lat="44.99385" lon="1.05063">
        <ele>102</ele>
        <time>2017-10-01T08:40:45.000Z</time>
      </trkpt>
      <trkpt lat="44.99389" lon="1.0506">
        <ele>102</ele>
        <time>2017-10-01T08:40:46.000Z</time>
      </trkpt>
      <trkpt lat="44.99393" lon="1.05056">
        <ele>102</ele>
        <time>2017-10-01T08:40:47.000Z</time>
      </trkpt>
      <trkpt lat="44.99397" lon="1.05053">
        <ele>102</ele>
        <time>2017-10-01T08:40:48.000Z</time>
      </trkpt>
      <trkpt lat="44.99401" lon="1.0505">
        <ele>102</ele>
        <time>2017-10-01T08:40:49.000Z</time>
      </trkpt>
      <trkpt lat="44.99404" lon="1.05047">
        <ele>102</ele>
        <time>2017-10-01T08:40:50.000Z</time>
      </trkpt>
      <trkpt lat="44.99408" lon="1.05043">
        <ele>102</ele>
        <time>2017-10-01T08:40:51.000Z</time>
      </trkpt>
      <trkpt lat="44.99411" lon="1.0504">
        <ele>102</ele>
        <time>2017-10-01T08:40:52.000Z</time>
      </trkpt>
      <trkpt lat="44.99414" lon="1.05037">
        <ele>102</ele>
        <time>2017-10-01T08:40:53.000Z</time>
      </trkpt>
      <trkpt lat="44.99418" lon="1.05033">
        <ele>101</ele>
        <time>2017-10-01T08:40:54.000Z</time>
      </trkpt>
      <trkpt lat="44.99421" lon="1.0503">
        <ele>101</ele>
        <time>2017-10-01T08:40:55.000Z</time>
      </trkpt>
      <trkpt lat="44.99424" lon="1.05026">
        <ele>101</ele>
        <time>2017-10-01T08:40:56.000Z</time>
      </trkpt>
      <trkpt lat="44.99427" lon="1.05023">
        <ele>101</ele>
        <time>2017-10-01T08:40:57.000Z</time>
      </trkpt>
      <trkpt lat="44.9943" lon="1.0502">
        <ele>101</ele>
        <time>2017-10-01T08:40:58.000Z</time>
      </trkpt>
      <trkpt lat="44.99432" lon="1.05017">
        <ele>101</ele>
        <time>2017-10-01T08:40:59.000Z</time>
      </trkpt>
      <trkpt lat="44.99435" lon="1.05014">
        <ele>101</ele>
        <time>2017-10-01T08:41:00.000Z</time>
      </trkpt>
      <trkpt lat="44.99438" lon="1.05012">
        <ele>101</ele>
        <time>2017-10-01T08:41:01.000Z</time>
      </trkpt>
      <trkpt lat="44.9944" lon="1.0501">
        <ele>101</ele>
        <time>2017-10-01T08:41:02.000Z</time>
      </trkpt>
      <trkpt lat="44.99443" lon="1.05007">
        <ele>101</ele>
        <time>2017-10-01T08:41:03.000Z</time>
      </trkpt>
      <trkpt lat="44.99446" lon="1.05006">
        <ele>101</ele>
        <time>2017-10-01T08:41:04.000Z</time>
      </trkpt>
      <trkpt lat="44.99449" lon="1.05004">
        <ele>101</ele>
        <time>2017-10-01T08:41:05.000Z</time>
      </trkpt>
      <trkpt lat="44.99453" lon="1.05002">
        <ele>101</ele>
        <time>2017-10-01T08:41:06.000Z</time>
      </trkpt>
      <trkpt lat="44.99457" lon="1.05001">
        <ele>101</ele>
        <time>2017-10-01T08:41:07.000Z</time>
      </trkpt>
      <trkpt lat="44.99461" lon="1.04999">
        <ele>102</ele>
        <time>2017-10-01T08:41:08.000Z</time>
      </trkpt>
      <trkpt lat="44.99465" lon="1.04998">
        <ele>102</ele>
        <time>2017-10-01T08:41:09.000Z</time>
      </trkpt>
      <trkpt lat="44.99469" lon="1.04997">
        <ele>103</ele>
        <time>2017-10-01T08:41:10.000Z</time>
      </trkpt>
      <trkpt lat="44.99473" lon="1.04995">
        <ele>103</ele>
        <time>2017-10-01T08:41:11.000Z</time>
      </trkpt>
      <trkpt lat="44.99477" lon="1.04994">
        <ele>104</ele>
        <time>2017-10-01T08:41:12.000Z</time>
      </trkpt>
      <trkpt lat="44.99481" lon="1.04992">
        <ele>104</ele>
        <time>2017-10-01T08:41:13.000Z</time>
      </trkpt>
      <trkpt lat="44.99486" lon="1.04991">
        <ele>105</ele>
        <time>2017-10-01T08:41:14.000Z</time>
      </trkpt>
      <trkpt lat="44.9949" lon="1.04989">
        <ele>105</ele>
        <time>2017-10-01T08:41:15.000Z</time>
      </trkpt>
      <trkpt lat="44.99494" lon="1.04987">
        <ele>106</ele>
        <time>2017-10-01T08:41:16.000Z</time>
      </trkpt>
      <trkpt lat="44.99499" lon="1.04985">
        <ele>106</ele>
        <time>2017-10-01T08:41:17.000Z</time>
      </trkpt>
      <trkpt lat="44.99503" lon="1.04983">
        <ele>106</ele>
        <time>2017-10-01T08:41:18.000Z</time>
      </trkpt>
      <trkpt lat="44.99507" lon="1.04981">
        <ele>107</ele>
        <time>2017-10-01T08:41:19.000Z</time>
      </trkpt>
      <trkpt lat="44.99511" lon="1.04978">
        <ele>107</ele>
        <time>2017-10-01T08:41:20.000Z</time>
      </trkpt>
      <trkpt lat="44.99515" lon="1.04976">
        <ele>107</ele>
        <time>2017-10-01T08:41:21.000Z</time>
      </trkpt>
      <trkpt lat="44.99518" lon="1.04974">
        <ele>108</ele>
        <time>2017-10-01T08:41:22.000Z</time>
      </trkpt>
      <trkpt lat="44.99522" lon="1.04973">
        <ele>108</ele>
        <time>2017-10-01T08:41:23.000Z</time>
      </trkpt>
      <trkpt lat="44.99524" lon="1.04971">
        <ele>108</ele>
        <time>2017-10-01T08:41:24.000Z</time>
      </trkpt>
      <trkpt lat="44.99527" lon="1.0497">
        <ele>108</ele>
        <time>2017-10-01T08:41:25.000Z</time>
      </trkpt>
      <trkpt lat="44.9953" lon="1.04969">
        <ele>108</ele>
        <time>2017-10-01T08:41:26.000Z</time>
      </trkpt>
      <trkpt lat="44.99533" lon="1.04968">
        <ele>108</ele>
        <time>2017-10-01T08:41:27.000Z</time>
      </trkpt>
      <trkpt lat="44.99536" lon="1.04967">
        <ele>108</ele>
        <time>2017-10-01T08:41:28.000Z</time>
      </trkpt>
      <trkpt lat="44.99539" lon="1.04966">
        <ele>108</ele>
        <time>2017-10-01T08:41:29.000Z</time>
      </trkpt>
      <trkpt lat="44.99542" lon="1.04965">
        <ele>109</ele>
        <time>2017-10-01T08:41:30.000Z</time>
      </trkpt>
      <trkpt lat="44.99545" lon="1.04964">
        <ele>109</ele>
        <time>2017-10-01T08:41:31.000Z</time>
      </trkpt>
      <trkpt lat="44.99548" lon="1.04962">
        <ele>109</ele>
        <time>2017-10-01T08:41:32.000Z</time>
      </trkpt>
      <trkpt lat="44.99552" lon="1.04961">
        <ele>109</ele>
        <time>2017-10-01T08:41:33.000Z</time>
      </trkpt>
      <trkpt lat="44.99555" lon="1.04959">
        <ele>109</ele>
        <time>2017-10-01T08:41:34.000Z</time>
      </trkpt>
      <trkpt lat="44.99558" lon="1.04957">
        <ele>109</ele>
        <time>2017-10-01T08:41:35.000Z</time>
      </trkpt>
      <trkpt lat="44.99561" lon="1.04956">
        <ele>109</ele>
        <time>2017-10-01T08:41:36.000Z</time>
      </trkpt>
      <trkpt lat="44.99564" lon="1.04954">
        <ele>109</ele>
        <time>2017-10-01T08:41:37.000Z</time>
      </trkpt>
      <trkpt lat="44.99568" lon="1.04952">
        <ele>109</ele>
        <time>2017-10-01T08:41:38.000Z</time>
      </trkpt>
      <trkpt lat="44.99571" lon="1.04951">
        <ele>108</ele>
        <time>2017-10-01T08:41:39.000Z</time>
      </trkpt>
      <trkpt lat="44.99573" lon="1.04949">
        <ele>108</ele>
        <time>2017-10-01T08:41:40.000Z</time>
      </trkpt>
      <trkpt lat="44.99576" lon="1.04948">
        <ele>108</ele>
        <time>2017-10-01T08:41:41.000Z</time>
      </trkpt>
      <trkpt lat="44.99579" lon="1.04948">
        <ele>108</ele>
        <time>2017-10-01T08:41:42.000Z</time>
      </trkpt>
      <trkpt lat="44.99582" lon="1.04947">
        <ele>108</ele>
        <time>2017-10-01T08:41:43.000Z</time>
      </trkpt>
      <trkpt lat="44.99585" lon="1.04946">
        <ele>108</ele>
        <time>2017-10-01T08:41:44.000Z</time>
      </trkpt>
      <trkpt lat="44.99588" lon="1.04945">
        <ele>109</ele>
        <time>2017-10-01T08:41:45.000Z</time>
      </trkpt>
      <trkpt lat="44.99591" lon="1.04943">
        <ele>109</ele>
        <time>2017-10-01T08:41:46.000Z</time>
      </trkpt>
      <trkpt lat="44.99594" lon="1.04941">
        <ele>109</ele>
        <time>2017-10-01T08:41:47.000Z</time>
      </trkpt>
      <trkpt lat="44.99597" lon="1.04939">
        <ele>109</ele>
        <time>2017-10-01T08:41:48.000Z</time>
      </trkpt>
      <trkpt lat="44.996" lon="1.04936">
        <ele>109</ele>
        <time>2017-10-01T08:41:49.000Z</time>
      </trkpt>
      <trkpt lat="44.99604" lon="1.04933">
        <ele>109</ele>
        <time>2017-10-01T08:41:50.000Z</time>
      </trkpt>
      <trkpt lat="44.99607" lon="1.0493">
        <ele>109</ele>
        <time>2017-10-01T08:41:51.000Z</time>
      </trkpt>
      <trkpt lat="44.99611" lon="1.04926">
        <ele>109</ele>
        <time>2017-10-01T08:41:52.000Z</time>
      </trkpt>
      <trkpt lat="44.99614" lon="1.04924">
        <ele>109</ele>
        <time>2017-10-01T08:41:53.000Z</time>
      </trkpt>
      <trkpt lat="44.99617" lon="1.04921">
        <ele>109</ele>
        <time>2017-10-01T08:41:54.000Z</time>
      </trkpt>
      <trkpt lat="44.99621" lon="1.04918">
        <ele>109</ele>
        <time>2017-10-01T08:41:55.000Z</time>
      </trkpt>
      <trkpt lat="44.99624" lon="1.04916">
        <ele>110</ele>
        <time>2017-10-01T08:41:56.000Z</time>
      </trkpt>
      <trkpt lat="44.99628" lon="1.04914">
        <ele>110</ele>
        <time>2017-10-01T08:41:57.000Z</time>
      </trkpt>
      <trkpt lat="44.99631" lon="1.04911">
        <ele>111</ele>
        <time>2017-10-01T08:41:58.000Z</time>
      </trkpt>
      <trkpt lat="44.99634" lon="1.04909">
        <ele>111</ele>
        <time>2017-10-01T08:41:59.000Z</time>
      </trkpt>
      <trkpt lat="44.99638" lon="1.04907">
        <ele>111</ele>
        <time>2017-10-01T08:42:00.000Z</time>
      </trkpt>
      <trkpt lat="44.99641" lon="1.04904">
        <ele>112</ele>
        <time>2017-10-01T08:42:01.000Z</time>
      </trkpt>
      <trkpt lat="44.99644" lon="1.04902">
        <ele>112</ele>
        <time>2017-10-01T08:42:02.000Z</time>
      </trkpt>
      <trkpt lat="44.99647" lon="1.04899">
        <ele>113</ele>
        <time>2017-10-01T08:42:03.000Z</time>
      </trkpt>
      <trkpt lat="44.99651" lon="1.04897">
        <ele>113</ele>
        <time>2017-10-01T08:42:04.000Z</time>
      </trkpt>
      <trkpt lat="44.99654" lon="1.04894">
        <ele>113</ele>
        <time>2017-10-01T08:42:05.000Z</time>
      </trkpt>
      <trkpt lat="44.99658" lon="1.04891">
        <ele>114</ele>
        <time>2017-10-01T08:42:06.000Z</time>
      </trkpt>
      <trkpt lat="44.99661" lon="1.04889">
        <ele>114</ele>
        <time>2017-10-01T08:42:07.000Z</time>
      </trkpt>
      <trkpt lat="44.99665" lon="1.04886">
        <ele>114</ele>
        <time>2017-10-01T08:42:08.000Z</time>
      </trkpt>
      <trkpt lat="44.99668" lon="1.04883">
        <ele>114</ele>
        <time>2017-10-01T08:42:09.000Z</time>
      </trkpt>
      <trkpt lat="44.99672" lon="1.0488">
        <ele>115</ele>
        <time>2017-10-01T08:42:10.000Z</time>
      </trkpt>
      <trkpt lat="44.99675" lon="1.04877">
        <ele>115</ele>
        <time>2017-10-01T08:42:11.000Z</time>
      </trkpt>
      <trkpt lat="44.99679" lon="1.04874">
        <ele>116</ele>
        <time>2017-10-01T08:42:12.000Z</time>
      </trkpt>
      <trkpt lat="44.99682" lon="1.04871">
        <ele>116</ele>
        <time>2017-10-01T08:42:13.000Z</time>
      </trkpt>
      <trkpt lat="44.99686" lon="1.04868">
        <ele>116</ele>
        <time>2017-10-01T08:42:14.000Z</time>
      </trkpt>
      <trkpt lat="44.99689" lon="1.04865">
        <ele>116</ele>
        <time>2017-10-01T08:42:15.000Z</time>
      </trkpt>
      <trkpt lat="44.99692" lon="1.04862">
        <ele>117</ele>
        <time>2017-10-01T08:42:16.000Z</time>
      </trkpt>
      <trkpt lat="44.99696" lon="1.04859">
        <ele>117</ele>
        <time>2017-10-01T08:42:17.000Z</time>
      </trkpt>
      <trkpt lat="44.99699" lon="1.04856">
        <ele>117</ele>
        <time>2017-10-01T08:42:18.000Z</time>
      </trkpt>
      <trkpt lat="44.99702" lon="1.04853">
        <ele>117</ele>
        <time>2017-10-01T08:42:19.000Z</time>
      </trkpt>
      <trkpt lat="44.99705" lon="1.0485">
        <ele>117</ele>
        <time>2017-10-01T08:42:20.000Z</time>
      </trkpt>
      <trkpt lat="44.99708" lon="1.04847">
        <ele>117</ele>
        <time>2017-10-01T08:42:21.000Z</time>
      </trkpt>
      <trkpt lat="44.9971" lon="1.04844">
        <ele>117</ele>
        <time>2017-10-01T08:42:22.000Z</time>
      </trkpt>
      <trkpt lat="44.99713" lon="1.04841">
        <ele>117</ele>
        <time>2017-10-01T08:42:23.000Z</time>
      </trkpt>
      <trkpt lat="44.99716" lon="1.04838">
        <ele>117</ele>
        <time>2017-10-01T08:42:24.000Z</time>
      </trkpt>
      <trkpt lat="44.99718" lon="1.04835">
        <ele>117</ele>
        <time>2017-10-01T08:42:25.000Z</time>
      </trkpt>
      <trkpt lat="44.99721" lon="1.04833">
        <ele>117</ele>
        <time>2017-10-01T08:42:26.000Z</time>
      </trkpt>
      <trkpt lat="44.99723" lon="1.0483">
        <ele>117</ele>
        <time>2017-10-01T08:42:27.000Z</time>
      </trkpt>
      <trkpt lat="44.99725" lon="1.04827">
        <ele>117</ele>
        <time>2017-10-01T08:42:28.000Z</time>
      </trkpt>
      <trkpt lat="44.99728" lon="1.04824">
        <ele>117</ele>
        <time>2017-10-01T08:42:29.000Z</time>
      </trkpt>
      <trkpt lat="44.9973" lon="1.04822">
        <ele>117</ele>
        <time>2017-10-01T08:42:30.000Z</time>
      </trkpt>
      <trkpt lat="44.99732" lon="1.04819">
        <ele>118</ele>
        <time>2017-10-01T08:42:31.000Z</time>
      </trkpt>
      <trkpt lat="44.99733" lon="1.04816">
        <ele>118</ele>
        <time>2017-10-01T08:42:32.000Z</time>
      </trkpt>
      <trkpt lat="44.99735" lon="1.04813">
        <ele>118</ele>
        <time>2017-10-01T08:42:33.000Z</time>
      </trkpt>
      <trkpt lat="44.99737" lon="1.0481">
        <ele>118</ele>
        <time>2017-10-01T08:42:34.000Z</time>
      </trkpt>
      <trkpt lat="44.99739" lon="1.04807">
        <ele>118</ele>
        <time>2017-10-01T08:42:35.000Z</time>
      </trkpt>
      <trkpt lat="44.9974" lon="1.04803">
        <ele>118</ele>
        <time>2017-10-01T08:42:36.000Z</time>
      </trkpt>
      <trkpt lat="44.99742" lon="1.048">
        <ele>118</ele>
        <time>2017-10-01T08:42:37.000Z</time>
      </trkpt>
      <trkpt lat="44.99743" lon="1.04796">
        <ele>118</ele>
        <time>2017-10-01T08:42:38.000Z</time>
      </trkpt>
      <trkpt lat="44.99744" lon="1.04791">
        <ele>118</ele>
        <time>2017-10-01T08:42:39.000Z</time>
      </trkpt>
      <trkpt lat="44.99746" lon="1.04787">
        <ele>118</ele>
        <time>2017-10-01T08:42:40.000Z</time>
      </trkpt>
      <trkpt lat="44.99747" lon="1.04782">
        <ele>117</ele>
        <time>2017-10-01T08:42:41.000Z</time>
      </trkpt>
      <trkpt lat="44.99748" lon="1.04777">
        <ele>117</ele>
        <time>2017-10-01T08:42:42.000Z</time>
      </trkpt>
      <trkpt lat="44.99749" lon="1.04772">
        <ele>117</ele>
        <time>2017-10-01T08:42:43.000Z</time>
      </trkpt>
      <trkpt lat="44.9975" lon="1.04768">
        <ele>117</ele>
        <time>2017-10-01T08:42:44.000Z</time>
      </trkpt>
      <trkpt lat="44.99751" lon="1.04764">
        <ele>117</ele>
        <time>2017-10-01T08:42:45.000Z</time>
      </trkpt>
      <trkpt lat="44.99752" lon="1.0476">
        <ele>117</ele>
        <time>2017-10-01T08:42:46.000Z</time>
      </trkpt>
      <trkpt lat="44.99752" lon="1.04758">
        <ele>117</ele>
        <time>2017-10-01T08:42:47.000Z</time>
      </trkpt>
      <trkpt lat="44.99752" lon="1.04757">
        <ele>117</ele>
        <time>2017-10-01T08:42:48.000Z</time>
      </trkpt>
      <trkpt lat="44.99753" lon="1.04756">
        <ele>117</ele>
        <time>2017-10-01T08:43:04.000Z</time>
      </trkpt>
      <trkpt lat="44.99753" lon="1.04755">
        <ele>117</ele>
        <time>2017-10-01T08:43:04.000Z</time>
      </trkpt>
      <trkpt lat="44.99753" lon="1.04755">
        <ele>117</ele>
        <time>2017-10-01T08:43:04.000Z</time>
      </trkpt>
      <trkpt lat="44.99753" lon="1.04755">
        <ele>117</ele>
        <time>2017-10-01T08:43:04.000Z</time>
      </trkpt>
      <trkpt lat="44.99753" lon="1.04755">
        <ele>117</ele>
        <time>2017-10-01T08:43:04.000Z</time>
      </trkpt>
      <trkpt lat="44.99753" lon="1.04755">
        <ele>117</ele>
        <time>2017-10-01T08:43:04.000Z</time>
      </trkpt>
      <trkpt lat="44.99753" lon="1.04755">
        <ele>117</ele>
        <time>2017-10-01T08:43:04.000Z</time>
      </trkpt>
      <trkpt lat="44.99753" lon="1.04755">
        <ele>117</ele>
        <time>2017-10-01T08:43:04.000Z</time>
      </trkpt>
      <trkpt lat="44.99753" lon="1.04755">
        <ele>117</ele>
        <time>2017-10-01T08:43:04.000Z</time>
      </trkpt>
      <trkpt lat="44.99753" lon="1.04755">
        <ele>117</ele>
        <time>2017-10-01T08:43:04.000Z</time>
      </trkpt>
      <trkpt lat="44.99753" lon="1.04755">
        <ele>117</ele>
        <time>2017-10-01T08:43:04.000Z</time>
      </trkpt>
      <trkpt lat="44.99753" lon="1.04755">
        <ele>117</ele>
        <time>2017-10-01T08:43:04.000Z</time>
      </trkpt>
      <trkpt lat="44.99753" lon="1.04755">
        <ele>117</ele>
        <time>2017-10-01T08:43:04.000Z</time>
      </trkpt>
      <trkpt lat="44.99753" lon="1.04755">
        <ele>117</ele>
        <time>2017-10-01T08:43:04.000Z</time>
      </trkpt>
      <trkpt lat="44.99753" lon="1.04755">
        <ele>117</ele>
        <time>2017-10-01T08:43:04.000Z</time>
      </trkpt>
      <trkpt lat="44.99753" lon="1.04755">
        <ele>117</ele>
        <time>2017-10-01T08:43:04.000Z</time>
      </trkpt>
      <trkpt lat="44.99753" lon="1.04754">
        <ele>117</ele>
        <time>2017-10-01T08:43:08.000Z</time>
      </trkpt>
      <trkpt lat="44.99753" lon="1.04754">
        <ele>117</ele>
        <time>2017-10-01T08:43:08.000Z</time>
      </trkpt>
      <trkpt lat="44.99753" lon="1.04754">
        <ele>117</ele>
        <time>2017-10-01T08:43:08.000Z</time>
      </trkpt>
      <trkpt lat="44.99753" lon="1.04754">
        <ele>117</ele>
        <time>2017-10-01T08:43:08.000Z</time>
      </trkpt>
      <trkpt lat="44.99753" lon="1.04753">
        <ele>117</ele>
        <time>2017-10-01T08:43:10.000Z</time>
      </trkpt>
      <trkpt lat="44.99753" lon="1.04753">
        <ele>117</ele>
        <time>2017-10-01T08:43:10.000Z</time>
      </trkpt>
      <trkpt lat="44.99753" lon="1.04752">
        <ele>117</ele>
        <time>2017-10-01T08:43:11.000Z</time>
      </trkpt>
      <trkpt lat="44.99753" lon="1.04749">
        <ele>117</ele>
        <time>2017-10-01T08:43:12.000Z</time>
      </trkpt>
      <trkpt lat="44.99752" lon="1.04746">
        <ele>117</ele>
        <time>2017-10-01T08:43:13.000Z</time>
      </trkpt>
      <trkpt lat="44.99752" lon="1.04744">
        <ele>117</ele>
        <time>2017-10-01T08:43:14.000Z</time>
      </trkpt>
      <trkpt lat="44.99751" lon="1.04742">
        <ele>117</ele>
        <time>2017-10-01T08:43:15.000Z</time>
      </trkpt>
      <trkpt lat="44.99751" lon="1.0474">
        <ele>118</ele>
        <time>2017-10-01T08:43:16.000Z</time>
      </trkpt>
      <trkpt lat="44.9975" lon="1.04739">
        <ele>118</ele>
        <time>2017-10-01T08:43:17.000Z</time>
      </trkpt>
      <trkpt lat="44.99749" lon="1.04738">
        <ele>118</ele>
        <time>2017-10-01T08:43:18.000Z</time>
      </trkpt>
      <trkpt lat="44.99748" lon="1.04737">
        <ele>118</ele>
        <time>2017-10-01T08:43:20.000Z</time>
      </trkpt>
      <trkpt lat="44.99748" lon="1.04737">
        <ele>118</ele>
        <time>2017-10-01T08:43:20.000Z</time>
      </trkpt>
      <trkpt lat="44.99747" lon="1.04737">
        <ele>118</ele>
        <time>2017-10-01T08:43:21.000Z</time>
      </trkpt>
      <trkpt lat="44.99747" lon="1.04736">
        <ele>118</ele>
        <time>2017-10-01T08:43:22.000Z</time>
      </trkpt>
      <trkpt lat="44.99746" lon="1.04736">
        <ele>118</ele>
        <time>2017-10-01T08:43:24.000Z</time>
      </trkpt>
      <trkpt lat="44.99746" lon="1.04736">
        <ele>118</ele>
        <time>2017-10-01T08:43:24.000Z</time>
      </trkpt>
      <trkpt lat="44.99746" lon="1.04737">
        <ele>118</ele>
        <time>2017-10-01T08:43:30.000Z</time>
      </trkpt>
      <trkpt lat="44.99746" lon="1.04737">
        <ele>118</ele>
        <time>2017-10-01T08:43:30.000Z</time>
      </trkpt>
      <trkpt lat="44.99746" lon="1.04737">
        <ele>118</ele>
        <time>2017-10-01T08:43:30.000Z</time>
      </trkpt>
      <trkpt lat="44.99746" lon="1.04737">
        <ele>118</ele>
        <time>2017-10-01T08:43:30.000Z</time>
      </trkpt>
      <trkpt lat="44.99746" lon="1.04737">
        <ele>118</ele>
        <time>2017-10-01T08:43:30.000Z</time>
      </trkpt>
      <trkpt lat="44.99746" lon="1.04737">
        <ele>118</ele>
        <time>2017-10-01T08:43:30.000Z</time>
      </trkpt>
      <trkpt lat="44.99745" lon="1.04737">
        <ele>118</ele>
        <time>2017-10-01T08:43:33.000Z</time>
      </trkpt>
      <trkpt lat="44.99745" lon="1.04737">
        <ele>118</ele>
        <time>2017-10-01T08:43:33.000Z</time>
      </trkpt>
      <trkpt lat="44.99745" lon="1.04737">
        <ele>118</ele>
        <time>2017-10-01T08:43:33.000Z</time>
      </trkpt>
      <trkpt lat="44.99745" lon="1.04738">
        <ele>118</ele>
        <time>2017-10-01T08:43:37.000Z</time>
      </trkpt>
      <trkpt lat="44.99745" lon="1.04738">
        <ele>118</ele>
        <time>2017-10-01T08:43:37.000Z</time>
      </trkpt>
      <trkpt lat="44.99745" lon="1.04738">
        <ele>118</ele>
        <time>2017-10-01T08:43:37.000Z</time>
      </trkpt>
      <trkpt lat="44.99745" lon="1.04738">
        <ele>118</ele>
        <time>2017-10-01T08:43:37.000Z</time>
      </trkpt>
      <trkpt lat="44.99744" lon="1.04739">
        <ele>118</ele>
        <time>2017-10-01T08:43:38.000Z</time>
      </trkpt>
      <trkpt lat="44.99743" lon="1.04739">
        <ele>118</ele>
        <time>2017-10-01T08:43:39.000Z</time>
      </trkpt>
      <trkpt lat="44.99741" lon="1.0474">
        <ele>119</ele>
        <time>2017-10-01T08:43:40.000Z</time>
      </trkpt>
      <trkpt lat="44.99739" lon="1.0474">
        <ele>119</ele>
        <time>2017-10-01T08:43:41.000Z</time>
      </trkpt>
      <trkpt lat="44.99738" lon="1.04739">
        <ele>119</ele>
        <time>2017-10-01T08:43:42.000Z</time>
      </trkpt>
      <trkpt lat="44.99736" lon="1.04739">
        <ele>119</ele>
        <time>2017-10-01T08:43:43.000Z</time>
      </trkpt>
      <trkpt lat="44.99735" lon="1.04739">
        <ele>119</ele>
        <time>2017-10-01T08:43:44.000Z</time>
      </trkpt>
      <trkpt lat="44.99734" lon="1.04739">
        <ele>119</ele>
        <time>2017-10-01T08:43:45.000Z</time>
      </trkpt>
      <trkpt lat="44.99733" lon="1.04739">
        <ele>120</ele>
        <time>2017-10-01T08:43:46.000Z</time>
      </trkpt>
      <trkpt lat="44.99732" lon="1.04738">
        <ele>120</ele>
        <time>2017-10-01T08:43:47.000Z</time>
      </trkpt>
      <trkpt lat="44.99731" lon="1.04738">
        <ele>120</ele>
        <time>2017-10-01T08:43:48.000Z</time>
      </trkpt>
      <trkpt lat="44.9973" lon="1.04739">
        <ele>120</ele>
        <time>2017-10-01T08:43:49.000Z</time>
      </trkpt>
      <trkpt lat="44.99728" lon="1.04739">
        <ele>120</ele>
        <time>2017-10-01T08:43:50.000Z</time>
      </trkpt>
      <trkpt lat="44.99726" lon="1.0474">
        <ele>120</ele>
        <time>2017-10-01T08:43:51.000Z</time>
      </trkpt>
      <trkpt lat="44.99724" lon="1.04741">
        <ele>120</ele>
        <time>2017-10-01T08:43:52.000Z</time>
      </trkpt>
      <trkpt lat="44.99722" lon="1.04742">
        <ele>120</ele>
        <time>2017-10-01T08:43:53.000Z</time>
      </trkpt>
      <trkpt lat="44.9972" lon="1.04742">
        <ele>121</ele>
        <time>2017-10-01T08:43:54.000Z</time>
      </trkpt>
      <trkpt lat="44.99718" lon="1.04742">
        <ele>121</ele>
        <time>2017-10-01T08:43:55.000Z</time>
      </trkpt>
      <trkpt lat="44.99716" lon="1.04742">
        <ele>121</ele>
        <time>2017-10-01T08:43:56.000Z</time>
      </trkpt>
      <trkpt lat="44.99714" lon="1.04742">
        <ele>121</ele>
        <time>2017-10-01T08:43:57.000Z</time>
      </trkpt>
      <trkpt lat="44.99712" lon="1.04742">
        <ele>121</ele>
        <time>2017-10-01T08:43:58.000Z</time>
      </trkpt>
      <trkpt lat="44.99711" lon="1.04742">
        <ele>121</ele>
        <time>2017-10-01T08:43:59.000Z</time>
      </trkpt>
      <trkpt lat="44.99709" lon="1.04743">
        <ele>122</ele>
        <time>2017-10-01T08:44:00.000Z</time>
      </trkpt>
      <trkpt lat="44.99708" lon="1.04744">
        <ele>122</ele>
        <time>2017-10-01T08:44:01.000Z</time>
      </trkpt>
      <trkpt lat="44.99706" lon="1.04745">
        <ele>122</ele>
        <time>2017-10-01T08:44:02.000Z</time>
      </trkpt>
      <trkpt lat="44.99705" lon="1.04747">
        <ele>121</ele>
        <time>2017-10-01T08:44:03.000Z</time>
      </trkpt>
      <trkpt lat="44.99703" lon="1.04748">
        <ele>121</ele>
        <time>2017-10-01T08:44:04.000Z</time>
      </trkpt>
      <trkpt lat="44.99701" lon="1.0475">
        <ele>121</ele>
        <time>2017-10-01T08:44:05.000Z</time>
      </trkpt>
      <trkpt lat="44.997" lon="1.04752">
        <ele>121</ele>
        <time>2017-10-01T08:44:06.000Z</time>
      </trkpt>
      <trkpt lat="44.99698" lon="1.04754">
        <ele>121</ele>
        <time>2017-10-01T08:44:07.000Z</time>
      </trkpt>
      <trkpt lat="44.99696" lon="1.04756">
        <ele>121</ele>
        <time>2017-10-01T08:44:08.000Z</time>
      </trkpt>
      <trkpt lat="44.99694" lon="1.04758">
        <ele>121</ele>
        <time>2017-10-01T08:44:09.000Z</time>
      </trkpt>
      <trkpt lat="44.99693" lon="1.04761">
        <ele>121</ele>
        <time>2017-10-01T08:44:10.000Z</time>
      </trkpt>
      <trkpt lat="44.99691" lon="1.04763">
        <ele>121</ele>
        <time>2017-10-01T08:44:11.000Z</time>
      </trkpt>
      <trkpt lat="44.99689" lon="1.04765">
        <ele>121</ele>
        <time>2017-10-01T08:44:12.000Z</time>
      </trkpt>
      <trkpt lat="44.99687" lon="1.04767">
        <ele>121</ele>
        <time>2017-10-01T08:44:13.000Z</time>
      </trkpt>
      <trkpt lat="44.99685" lon="1.0477">
        <ele>121</ele>
        <time>2017-10-01T08:44:14.000Z</time>
      </trkpt>
      <trkpt lat="44.99683" lon="1.04772">
        <ele>121</ele>
        <time>2017-10-01T08:44:15.000Z</time>
      </trkpt>
      <trkpt lat="44.99681" lon="1.04774">
        <ele>121</ele>
        <time>2017-10-01T08:44:16.000Z</time>
      </trkpt>
      <trkpt lat="44.99679" lon="1.04775">
        <ele>121</ele>
        <time>2017-10-01T08:44:17.000Z</time>
      </trkpt>
      <trkpt lat="44.99677" lon="1.04777">
        <ele>121</ele>
        <time>2017-10-01T08:44:18.000Z</time>
      </trkpt>
      <trkpt lat="44.99674" lon="1.04779">
        <ele>120</ele>
        <time>2017-10-01T08:44:19.000Z</time>
      </trkpt>
      <trkpt lat="44.99672" lon="1.0478">
        <ele>120</ele>
        <time>2017-10-01T08:44:20.000Z</time>
      </trkpt>
      <trkpt lat="44.9967" lon="1.04781">
        <ele>120</ele>
        <time>2017-10-01T08:44:21.000Z</time>
      </trkpt>
      <trkpt lat="44.99668" lon="1.04783">
        <ele>120</ele>
        <time>2017-10-01T08:44:22.000Z</time>
      </trkpt>
      <trkpt lat="44.99667" lon="1.04784">
        <ele>120</ele>
        <time>2017-10-01T08:44:23.000Z</time>
      </trkpt>
      <trkpt lat="44.99665" lon="1.04786">
        <ele>120</ele>
        <time>2017-10-01T08:44:24.000Z</time>
      </trkpt>
      <trkpt lat="44.99663" lon="1.04787">
        <ele>120</ele>
        <time>2017-10-01T08:44:25.000Z</time>
      </trkpt>
      <trkpt lat="44.99661" lon="1.04789">
        <ele>120</ele>
        <time>2017-10-01T08:44:26.000Z</time>
      </trkpt>
      <trkpt lat="44.99659" lon="1.0479">
        <ele>120</ele>
        <time>2017-10-01T08:44:27.000Z</time>
      </trkpt>
      <trkpt lat="44.99657" lon="1.04792">
        <ele>120</ele>
        <time>2017-10-01T08:44:28.000Z</time>
      </trkpt>
      <trkpt lat="44.99654" lon="1.04793">
        <ele>120</ele>
        <time>2017-10-01T08:44:29.000Z</time>
      </trkpt>
      <trkpt lat="44.99652" lon="1.04795">
        <ele>120</ele>
        <time>2017-10-01T08:44:30.000Z</time>
      </trkpt>
      <trkpt lat="44.99649" lon="1.04796">
        <ele>120</ele>
        <time>2017-10-01T08:44:31.000Z</time>
      </trkpt>
      <trkpt lat="44.99647" lon="1.04797">
        <ele>120</ele>
        <time>2017-10-01T08:44:32.000Z</time>
      </trkpt>
      <trkpt lat="44.99644" lon="1.04797">
        <ele>120</ele>
        <time>2017-10-01T08:44:33.000Z</time>
      </trkpt>
      <trkpt lat="44.99642" lon="1.04797">
        <ele>120</ele>
        <time>2017-10-01T08:44:34.000Z</time>
      </trkpt>
      <trkpt lat="44.99639" lon="1.04797">
        <ele>120</ele>
        <time>2017-10-01T08:44:35.000Z</time>
      </trkpt>
      <trkpt lat="44.99637" lon="1.04796">
        <ele>120</ele>
        <time>2017-10-01T08:44:36.000Z</time>
      </trkpt>
      <trkpt lat="44.99634" lon="1.04796">
        <ele>120</ele>
        <time>2017-10-01T08:44:37.000Z</time>
      </trkpt>
      <trkpt lat="44.99631" lon="1.04795">
        <ele>121</ele>
        <time>2017-10-01T08:44:38.000Z</time>
      </trkpt>
      <trkpt lat="44.99628" lon="1.04795">
        <ele>121</ele>
        <time>2017-10-01T08:44:39.000Z</time>
      </trkpt>
      <trkpt lat="44.99625" lon="1.04795">
        <ele>121</ele>
        <time>2017-10-01T08:44:40.000Z</time>
      </trkpt>
      <trkpt lat="44.99622" lon="1.04794">
        <ele>121</ele>
        <time>2017-10-01T08:44:41.000Z</time>
      </trkpt>
      <trkpt lat="44.99619" lon="1.04793">
        <ele>122</ele>
        <time>2017-10-01T08:44:42.000Z</time>
      </trkpt>
      <trkpt lat="44.99616" lon="1.04792">
        <ele>122</ele>
        <time>2017-10-01T08:44:43.000Z</time>
      </trkpt>
      <trkpt lat="44.99614" lon="1.04789">
        <ele>123</ele>
        <time>2017-10-01T08:44:44.000Z</time>
      </trkpt>
      <trkpt lat="44.99611" lon="1.04786">
        <ele>123</ele>
        <time>2017-10-01T08:44:45.000Z</time>
      </trkpt>
      <trkpt lat="44.99608" lon="1.04784">
        <ele>124</ele>
        <time>2017-10-01T08:44:46.000Z</time>
      </trkpt>
      <trkpt lat="44.99605" lon="1.04781">
        <ele>124</ele>
        <time>2017-10-01T08:44:47.000Z</time>
      </trkpt>
      <trkpt lat="44.99602" lon="1.0478">
        <ele>125</ele>
        <time>2017-10-01T08:44:48.000Z</time>
      </trkpt>
      <trkpt lat="44.99598" lon="1.04779">
        <ele>125</ele>
        <time>2017-10-01T08:44:49.000Z</time>
      </trkpt>
      <trkpt lat="44.99594" lon="1.0478">
        <ele>125</ele>
        <time>2017-10-01T08:44:50.000Z</time>
      </trkpt>
      <trkpt lat="44.99591" lon="1.04782">
        <ele>125</ele>
        <time>2017-10-01T08:44:51.000Z</time>
      </trkpt>
      <trkpt lat="44.99588" lon="1.04785">
        <ele>125</ele>
        <time>2017-10-01T08:44:52.000Z</time>
      </trkpt>
      <trkpt lat="44.99586" lon="1.04789">
        <ele>124</ele>
        <time>2017-10-01T08:44:53.000Z</time>
      </trkpt>
      <trkpt lat="44.99584" lon="1.04792">
        <ele>124</ele>
        <time>2017-10-01T08:44:54.000Z</time>
      </trkpt>
      <trkpt lat="44.99582" lon="1.04795">
        <ele>124</ele>
        <time>2017-10-01T08:44:55.000Z</time>
      </trkpt>
      <trkpt lat="44.9958" lon="1.04798">
        <ele>123</ele>
        <time>2017-10-01T08:44:56.000Z</time>
      </trkpt>
      <trkpt lat="44.99577" lon="1.04801">
        <ele>123</ele>
        <time>2017-10-01T08:44:57.000Z</time>
      </trkpt>
      <trkpt lat="44.99575" lon="1.04804">
        <ele>123</ele>
        <time>2017-10-01T08:44:58.000Z</time>
      </trkpt>
      <trkpt lat="44.99572" lon="1.04808">
        <ele>122</ele>
        <time>2017-10-01T08:44:59.000Z</time>
      </trkpt>
      <trkpt lat="44.9957" lon="1.04811">
        <ele>122</ele>
        <time>2017-10-01T08:45:00.000Z</time>
      </trkpt>
      <trkpt lat="44.99567" lon="1.04814">
        <ele>122</ele>
        <time>2017-10-01T08:45:01.000Z</time>
      </trkpt>
      <trkpt lat="44.99564" lon="1.04816">
        <ele>122</ele>
        <time>2017-10-01T08:45:02.000Z</time>
      </trkpt>
      <trkpt lat="44.99561" lon="1.04818">
        <ele>122</ele>
        <time>2017-10-01T08:45:03.000Z</time>
      </trkpt>
      <trkpt lat="44.99559" lon="1.04821">
        <ele>122</ele>
        <time>2017-10-01T08:45:04.000Z</time>
      </trkpt>
      <trkpt lat="44.99556" lon="1.04823">
        <ele>121</ele>
        <time>2017-10-01T08:45:05.000Z</time>
      </trkpt>
      <trkpt lat="44.99553" lon="1.04826">
        <ele>121</ele>
        <time>2017-10-01T08:45:06.000Z</time>
      </trkpt>
      <trkpt lat="44.9955" lon="1.0483">
        <ele>121</ele>
        <time>2017-10-01T08:45:07.000Z</time>
      </trkpt>
      <trkpt lat="44.99547" lon="1.04833">
        <ele>121</ele>
        <time>2017-10-01T08:45:08.000Z</time>
      </trkpt>
      <trkpt lat="44.99543" lon="1.04836">
        <ele>120</ele>
        <time>2017-10-01T08:45:09.000Z</time>
      </trkpt>
      <trkpt lat="44.99539" lon="1.04839">
        <ele>120</ele>
        <time>2017-10-01T08:45:10.000Z</time>
      </trkpt>
      <trkpt lat="44.99535" lon="1.04841">
        <ele>120</ele>
        <time>2017-10-01T08:45:11.000Z</time>
      </trkpt>
      <trkpt lat="44.9953" lon="1.04842">
        <ele>121</ele>
        <time>2017-10-01T08:45:12.000Z</time>
      </trkpt>
      <trkpt lat="44.99526" lon="1.04844">
        <ele>121</ele>
        <time>2017-10-01T08:45:13.000Z</time>
      </trkpt>
      <trkpt lat="44.99521" lon="1.04844">
        <ele>121</ele>
        <time>2017-10-01T08:45:14.000Z</time>
      </trkpt>
      <trkpt lat="44.99517" lon="1.04845">
        <ele>122</ele>
        <time>2017-10-01T08:45:15.000Z</time>
      </trkpt>
      <trkpt lat="44.99512" lon="1.04845">
        <ele>122</ele>
        <time>2017-10-01T08:45:16.000Z</time>
      </trkpt>
      <trkpt lat="44.99508" lon="1.04846">
        <ele>122</ele>
        <time>2017-10-01T08:45:17.000Z</time>
      </trkpt>
      <trkpt lat="44.99503" lon="1.04847">
        <ele>123</ele>
        <time>2017-10-01T08:45:18.000Z</time>
      </trkpt>
      <trkpt lat="44.99499" lon="1.04847">
        <ele>123</ele>
        <time>2017-10-01T08:45:19.000Z</time>
      </trkpt>
      <trkpt lat="44.99495" lon="1.04848">
        <ele>123</ele>
        <time>2017-10-01T08:45:20.000Z</time>
      </trkpt>
      <trkpt lat="44.99491" lon="1.0485">
        <ele>123</ele>
        <time>2017-10-01T08:45:21.000Z</time>
      </trkpt>
      <trkpt lat="44.99487" lon="1.04852">
        <ele>123</ele>
        <time>2017-10-01T08:45:22.000Z</time>
      </trkpt>
      <trkpt lat="44.99484" lon="1.04853">
        <ele>123</ele>
        <time>2017-10-01T08:45:23.000Z</time>
      </trkpt>
      <trkpt lat="44.9948" lon="1.04855">
        <ele>123</ele>
        <time>2017-10-01T08:45:24.000Z</time>
      </trkpt>
      <trkpt lat="44.99476" lon="1.04856">
        <ele>123</ele>
        <time>2017-10-01T08:45:25.000Z</time>
      </trkpt>
      <trkpt lat="44.99472" lon="1.04857">
        <ele>123</ele>
        <time>2017-10-01T08:45:26.000Z</time>
      </trkpt>
      <trkpt lat="44.99468" lon="1.04857">
        <ele>123</ele>
        <time>2017-10-01T08:45:27.000Z</time>
      </trkpt>
      <trkpt lat="44.99465" lon="1.04857">
        <ele>124</ele>
        <time>2017-10-01T08:45:28.000Z</time>
      </trkpt>
      <trkpt lat="44.99461" lon="1.04857">
        <ele>124</ele>
        <time>2017-10-01T08:45:29.000Z</time>
      </trkpt>
      <trkpt lat="44.99458" lon="1.04857">
        <ele>124</ele>
        <time>2017-10-01T08:45:30.000Z</time>
      </trkpt>
      <trkpt lat="44.99455" lon="1.04856">
        <ele>125</ele>
        <time>2017-10-01T08:45:31.000Z</time>
      </trkpt>
      <trkpt lat="44.99451" lon="1.04856">
        <ele>125</ele>
        <time>2017-10-01T08:45:32.000Z</time>
      </trkpt>
      <trkpt lat="44.99448" lon="1.04855">
        <ele>125</ele>
        <time>2017-10-01T08:45:33.000Z</time>
      </trkpt>
      <trkpt lat="44.99445" lon="1.04854">
        <ele>126</ele>
        <time>2017-10-01T08:45:34.000Z</time>
      </trkpt>
      <trkpt lat="44.99441" lon="1.04853">
        <ele>126</ele>
        <time>2017-10-01T08:45:35.000Z</time>
      </trkpt>
      <trkpt lat="44.99437" lon="1.04851">
        <ele>127</ele>
        <time>2017-10-01T08:45:36.000Z</time>
      </trkpt>
      <trkpt lat="44.99434" lon="1.0485">
        <ele>128</ele>
        <time>2017-10-01T08:45:37.000Z</time>
      </trkpt>
      <trkpt lat="44.9943" lon="1.04849">
        <ele>128</ele>
        <time>2017-10-01T08:45:38.000Z</time>
      </trkpt>
      <trkpt lat="44.99426" lon="1.04847">
        <ele>129</ele>
        <time>2017-10-01T08:45:39.000Z</time>
      </trkpt>
      <trkpt lat="44.99423" lon="1.04846">
        <ele>129</ele>
        <time>2017-10-01T08:45:40.000Z</time>
      </trkpt>
      <trkpt lat="44.99419" lon="1.04846">
        <ele>130</ele>
        <time>2017-10-01T08:45:41.000Z</time>
      </trkpt>
      <trkpt lat="44.99415" lon="1.04845">
        <ele>130</ele>
        <time>2017-10-01T08:45:42.000Z</time>
      </trkpt>
      <trkpt lat="44.99412" lon="1.04845">
        <ele>131</ele>
        <time>2017-10-01T08:45:43.000Z</time>
      </trkpt>
      <trkpt lat="44.99408" lon="1.04846">
        <ele>131</ele>
        <time>2017-10-01T08:45:44.000Z</time>
      </trkpt>
      <trkpt lat="44.99404" lon="1.04847">
        <ele>131</ele>
        <time>2017-10-01T08:45:45.000Z</time>
      </trkpt>
      <trkpt lat="44.99401" lon="1.04848">
        <ele>132</ele>
        <time>2017-10-01T08:45:46.000Z</time>
      </trkpt>
      <trkpt lat="44.99397" lon="1.04851">
        <ele>132</ele>
        <time>2017-10-01T08:45:47.000Z</time>
      </trkpt>
      <trkpt lat="44.99394" lon="1.04853">
        <ele>132</ele>
        <time>2017-10-01T08:45:48.000Z</time>
      </trkpt>
      <trkpt lat="44.9939" lon="1.04856">
        <ele>132</ele>
        <time>2017-10-01T08:45:49.000Z</time>
      </trkpt>
      <trkpt lat="44.99387" lon="1.04859">
        <ele>132</ele>
        <time>2017-10-01T08:45:50.000Z</time>
      </trkpt>
      <trkpt lat="44.99383" lon="1.04863">
        <ele>131</ele>
        <time>2017-10-01T08:45:51.000Z</time>
      </trkpt>
      <trkpt lat="44.9938" lon="1.04866">
        <ele>131</ele>
        <time>2017-10-01T08:45:52.000Z</time>
      </trkpt>
      <trkpt lat="44.99377" lon="1.0487">
        <ele>131</ele>
        <time>2017-10-01T08:45:53.000Z</time>
      </trkpt>
      <trkpt lat="44.99374" lon="1.04873">
        <ele>131</ele>
        <time>2017-10-01T08:45:54.000Z</time>
      </trkpt>
      <trkpt lat="44.9937" lon="1.04877">
        <ele>131</ele>
        <time>2017-10-01T08:45:55.000Z</time>
      </trkpt>
      <trkpt lat="44.99367" lon="1.0488">
        <ele>131</ele>
        <time>2017-10-01T08:45:56.000Z</time>
      </trkpt>
      <trkpt lat="44.99364" lon="1.04883">
        <ele>131</ele>
        <time>2017-10-01T08:45:57.000Z</time>
      </trkpt>
      <trkpt lat="44.9936" lon="1.04885">
        <ele>131</ele>
        <time>2017-10-01T08:45:58.000Z</time>
      </trkpt>
      <trkpt lat="44.99357" lon="1.04887">
        <ele>131</ele>
        <time>2017-10-01T08:45:59.000Z</time>
      </trkpt>
      <trkpt lat="44.99353" lon="1.04889">
        <ele>131</ele>
        <time>2017-10-01T08:46:00.000Z</time>
      </trkpt>
      <trkpt lat="44.99349" lon="1.0489">
        <ele>132</ele>
        <time>2017-10-01T08:46:01.000Z</time>
      </trkpt>
      <trkpt lat="44.99345" lon="1.04892">
        <ele>132</ele>
        <time>2017-10-01T08:46:02.000Z</time>
      </trkpt>
      <trkpt lat="44.99342" lon="1.04893">
        <ele>132</ele>
        <time>2017-10-01T08:46:03.000Z</time>
      </trkpt>
      <trkpt lat="44.99338" lon="1.04893">
        <ele>133</ele>
        <time>2017-10-01T08:46:04.000Z</time>
      </trkpt>
      <trkpt lat="44.99334" lon="1.04894">
        <ele>133</ele>
        <time>2017-10-01T08:46:05.000Z</time>
      </trkpt>
      <trkpt lat="44.99331" lon="1.04895">
        <ele>134</ele>
        <time>2017-10-01T08:46:06.000Z</time>
      </trkpt>
      <trkpt lat="44.99327" lon="1.04896">
        <ele>134</ele>
        <time>2017-10-01T08:46:07.000Z</time>
      </trkpt>
      <trkpt lat="44.99324" lon="1.04898">
        <ele>134</ele>
        <time>2017-10-01T08:46:08.000Z</time>
      </trkpt>
      <trkpt lat="44.9932" lon="1.04899">
        <ele>134</ele>
        <time>2017-10-01T08:46:09.000Z</time>
      </trkpt>
      <trkpt lat="44.99316" lon="1.04902">
        <ele>134</ele>
        <time>2017-10-01T08:46:10.000Z</time>
      </trkpt>
      <trkpt lat="44.99312" lon="1.04904">
        <ele>134</ele>
        <time>2017-10-01T08:46:11.000Z</time>
      </trkpt>
      <trkpt lat="44.99308" lon="1.04907">
        <ele>134</ele>
        <time>2017-10-01T08:46:12.000Z</time>
      </trkpt>
      <trkpt lat="44.99304" lon="1.0491">
        <ele>134</ele>
        <time>2017-10-01T08:46:13.000Z</time>
      </trkpt>
      <trkpt lat="44.99301" lon="1.04913">
        <ele>134</ele>
        <time>2017-10-01T08:46:14.000Z</time>
      </trkpt>
      <trkpt lat="44.99297" lon="1.04915">
        <ele>133</ele>
        <time>2017-10-01T08:46:15.000Z</time>
      </trkpt>
      <trkpt lat="44.99293" lon="1.04916">
        <ele>133</ele>
        <time>2017-10-01T08:46:16.000Z</time>
      </trkpt>
      <trkpt lat="44.9929" lon="1.04918">
        <ele>134</ele>
        <time>2017-10-01T08:46:17.000Z</time>
      </trkpt>
      <trkpt lat="44.99286" lon="1.04919">
        <ele>134</ele>
        <time>2017-10-01T08:46:18.000Z</time>
      </trkpt>
      <trkpt lat="44.99283" lon="1.04919">
        <ele>134</ele>
        <time>2017-10-01T08:46:19.000Z</time>
      </trkpt>
      <trkpt lat="44.9928" lon="1.0492">
        <ele>134</ele>
        <time>2017-10-01T08:46:20.000Z</time>
      </trkpt>
      <trkpt lat="44.99276" lon="1.04921">
        <ele>134</ele>
        <time>2017-10-01T08:46:21.000Z</time>
      </trkpt>
      <trkpt lat="44.99273" lon="1.04922">
        <ele>134</ele>
        <time>2017-10-01T08:46:22.000Z</time>
      </trkpt>
      <trkpt lat="44.9927" lon="1.04923">
        <ele>134</ele>
        <time>2017-10-01T08:46:23.000Z</time>
      </trkpt>
      <trkpt lat="44.99266" lon="1.04924">
        <ele>135</ele>
        <time>2017-10-01T08:46:24.000Z</time>
      </trkpt>
      <trkpt lat="44.99263" lon="1.04925">
        <ele>135</ele>
        <time>2017-10-01T08:46:25.000Z</time>
      </trkpt>
      <trkpt lat="44.9926" lon="1.04926">
        <ele>135</ele>
        <time>2017-10-01T08:46:26.000Z</time>
      </trkpt>
      <trkpt lat="44.99257" lon="1.04927">
        <ele>135</ele>
        <time>2017-10-01T08:46:27.000Z</time>
      </trkpt>
      <trkpt lat="44.99254" lon="1.04928">
        <ele>135</ele>
        <time>2017-10-01T08:46:28.000Z</time>
      </trkpt>
      <trkpt lat="44.99251" lon="1.04929">
        <ele>135</ele>
        <time>2017-10-01T08:46:29.000Z</time>
      </trkpt>
      <trkpt lat="44.99247" lon="1.0493">
        <ele>135</ele>
        <time>2017-10-01T08:46:30.000Z</time>
      </trkpt>
      <trkpt lat="44.99244" lon="1.04931">
        <ele>135</ele>
        <time>2017-10-01T08:46:31.000Z</time>
      </trkpt>
      <trkpt lat="44.99241" lon="1.04932">
        <ele>136</ele>
        <time>2017-10-01T08:46:32.000Z</time>
      </trkpt>
      <trkpt lat="44.99237" lon="1.04933">
        <ele>136</ele>
        <time>2017-10-01T08:46:33.000Z</time>
      </trkpt>
      <trkpt lat="44.99233" lon="1.04934">
        <ele>136</ele>
        <time>2017-10-01T08:46:34.000Z</time>
      </trkpt>
      <trkpt lat="44.99229" lon="1.04936">
        <ele>136</ele>
        <time>2017-10-01T08:46:35.000Z</time>
      </trkpt>
      <trkpt lat="44.99225" lon="1.04937">
        <ele>136</ele>
        <time>2017-10-01T08:46:36.000Z</time>
      </trkpt>
      <trkpt lat="44.99221" lon="1.04939">
        <ele>136</ele>
        <time>2017-10-01T08:46:37.000Z</time>
      </trkpt>
      <trkpt lat="44.99218" lon="1.04941">
        <ele>136</ele>
        <time>2017-10-01T08:46:38.000Z</time>
      </trkpt>
      <trkpt lat="44.99214" lon="1.04944">
        <ele>136</ele>
        <time>2017-10-01T08:46:39.000Z</time>
      </trkpt>
      <trkpt lat="44.9921" lon="1.04947">
        <ele>136</ele>
        <time>2017-10-01T08:46:40.000Z</time>
      </trkpt>
      <trkpt lat="44.99207" lon="1.0495">
        <ele>135</ele>
        <time>2017-10-01T08:46:41.000Z</time>
      </trkpt>
      <trkpt lat="44.99203" lon="1.04954">
        <ele>135</ele>
        <time>2017-10-01T08:46:42.000Z</time>
      </trkpt>
      <trkpt lat="44.99199" lon="1.04959">
        <ele>134</ele>
        <time>2017-10-01T08:46:43.000Z</time>
      </trkpt>
      <trkpt lat="44.99195" lon="1.04965">
        <ele>134</ele>
        <time>2017-10-01T08:46:44.000Z</time>
      </trkpt>
      <trkpt lat="44.99191" lon="1.04971">
        <ele>133</ele>
        <time>2017-10-01T08:46:45.000Z</time>
      </trkpt>
      <trkpt lat="44.99186" lon="1.04977">
        <ele>133</ele>
        <time>2017-10-01T08:46:46.000Z</time>
      </trkpt>
      <trkpt lat="44.99182" lon="1.04983">
        <ele>132</ele>
        <time>2017-10-01T08:46:47.000Z</time>
      </trkpt>
      <trkpt lat="44.99178" lon="1.04986">
        <ele>132</ele>
        <time>2017-10-01T08:46:48.000Z</time>
      </trkpt>
      <trkpt lat="44.99174" lon="1.04988">
        <ele>132</ele>
        <time>2017-10-01T08:46:49.000Z</time>
      </trkpt>
      <trkpt lat="44.9917" lon="1.04987">
        <ele>132</ele>
        <time>2017-10-01T08:46:50.000Z</time>
      </trkpt>
      <trkpt lat="44.99167" lon="1.04985">
        <ele>133</ele>
        <time>2017-10-01T08:46:51.000Z</time>
      </trkpt>
      <trkpt lat="44.99164" lon="1.04983">
        <ele>134</ele>
        <time>2017-10-01T08:46:52.000Z</time>
      </trkpt>
      <trkpt lat="44.99162" lon="1.04982">
        <ele>134</ele>
        <time>2017-10-01T08:46:53.000Z</time>
      </trkpt>
      <trkpt lat="44.99159" lon="1.04981">
        <ele>135</ele>
        <time>2017-10-01T08:46:54.000Z</time>
      </trkpt>
      <trkpt lat="44.99156" lon="1.04982">
        <ele>135</ele>
        <time>2017-10-01T08:46:55.000Z</time>
      </trkpt>
      <trkpt lat="44.99154" lon="1.04984">
        <ele>135</ele>
        <time>2017-10-01T08:46:56.000Z</time>
      </trkpt>
      <trkpt lat="44.9915" lon="1.04986">
        <ele>135</ele>
        <time>2017-10-01T08:46:57.000Z</time>
      </trkpt>
      <trkpt lat="44.99147" lon="1.04988">
        <ele>135</ele>
        <time>2017-10-01T08:46:58.000Z</time>
      </trkpt>
      <trkpt lat="44.99143" lon="1.0499">
        <ele>135</ele>
        <time>2017-10-01T08:46:59.000Z</time>
      </trkpt>
      <trkpt lat="44.9914" lon="1.04991">
        <ele>135</ele>
        <time>2017-10-01T08:47:00.000Z</time>
      </trkpt>
      <trkpt lat="44.99136" lon="1.04992">
        <ele>135</ele>
        <time>2017-10-01T08:47:01.000Z</time>
      </trkpt>
      <trkpt lat="44.99132" lon="1.04993">
        <ele>136</ele>
        <time>2017-10-01T08:47:02.000Z</time>
      </trkpt>
      <trkpt lat="44.99129" lon="1.04994">
        <ele>136</ele>
        <time>2017-10-01T08:47:03.000Z</time>
      </trkpt>
      <trkpt lat="44.99126" lon="1.04994">
        <ele>136</ele>
        <time>2017-10-01T08:47:04.000Z</time>
      </trkpt>
      <trkpt lat="44.99124" lon="1.04995">
        <ele>136</ele>
        <time>2017-10-01T08:47:05.000Z</time>
      </trkpt>
      <trkpt lat="44.99122" lon="1.04995">
        <ele>136</ele>
        <time>2017-10-01T08:47:06.000Z</time>
      </trkpt>
      <trkpt lat="44.9912" lon="1.04996">
        <ele>136</ele>
        <time>2017-10-01T08:47:07.000Z</time>
      </trkpt>
      <trkpt lat="44.99119" lon="1.04997">
        <ele>136</ele>
        <time>2017-10-01T08:47:08.000Z</time>
      </trkpt>
      <trkpt lat="44.99117" lon="1.04997">
        <ele>136</ele>
        <time>2017-10-01T08:47:09.000Z</time>
      </trkpt>
      <trkpt lat="44.99116" lon="1.04998">
        <ele>136</ele>
        <time>2017-10-01T08:47:10.000Z</time>
      </trkpt>
      <trkpt lat="44.99114" lon="1.04999">
        <ele>136</ele>
        <time>2017-10-01T08:47:11.000Z</time>
      </trkpt>
      <trkpt lat="44.99113" lon="1.05">
        <ele>136</ele>
        <time>2017-10-01T08:47:12.000Z</time>
      </trkpt>
      <trkpt lat="44.99111" lon="1.05001">
        <ele>136</ele>
        <time>2017-10-01T08:47:13.000Z</time>
      </trkpt>
      <trkpt lat="44.9911" lon="1.05002">
        <ele>136</ele>
        <time>2017-10-01T08:47:14.000Z</time>
      </trkpt>
      <trkpt lat="44.99108" lon="1.05003">
        <ele>136</ele>
        <time>2017-10-01T08:47:15.000Z</time>
      </trkpt>
      <trkpt lat="44.99107" lon="1.05003">
        <ele>137</ele>
        <time>2017-10-01T08:47:16.000Z</time>
      </trkpt>
      <trkpt lat="44.99106" lon="1.05003">
        <ele>137</ele>
        <time>2017-10-01T08:47:17.000Z</time>
      </trkpt>
      <trkpt lat="44.99106" lon="1.05002">
        <ele>137</ele>
        <time>2017-10-01T08:47:18.000Z</time>
      </trkpt>
      <trkpt lat="44.99106" lon="1.05">
        <ele>137</ele>
        <time>2017-10-01T08:47:19.000Z</time>
      </trkpt>
      <trkpt lat="44.99107" lon="1.04999">
        <ele>137</ele>
        <time>2017-10-01T08:47:20.000Z</time>
      </trkpt>
      <trkpt lat="44.99108" lon="1.04997">
        <ele>137</ele>
        <time>2017-10-01T08:47:21.000Z</time>
      </trkpt>
      <trkpt lat="44.99109" lon="1.04995">
        <ele>138</ele>
        <time>2017-10-01T08:47:22.000Z</time>
      </trkpt>
      <trkpt lat="44.99111" lon="1.04993">
        <ele>138</ele>
        <time>2017-10-01T08:47:23.000Z</time>
      </trkpt>
      <trkpt lat="44.99112" lon="1.04991">
        <ele>138</ele>
        <time>2017-10-01T08:47:24.000Z</time>
      </trkpt>
      <trkpt lat="44.99113" lon="1.04988">
        <ele>138</ele>
        <time>2017-10-01T08:47:25.000Z</time>
      </trkpt>
      <trkpt lat="44.99115" lon="1.04986">
        <ele>139</ele>
        <time>2017-10-01T08:47:26.000Z</time>
      </trkpt>
      <trkpt lat="44.99116" lon="1.04984">
        <ele>139</ele>
        <time>2017-10-01T08:47:27.000Z</time>
      </trkpt>
      <trkpt lat="44.99118" lon="1.04982">
        <ele>139</ele>
        <time>2017-10-01T08:47:28.000Z</time>
      </trkpt>
      <trkpt lat="44.99119" lon="1.04979">
        <ele>139</ele>
        <time>2017-10-01T08:47:29.000Z</time>
      </trkpt>
      <trkpt lat="44.99121" lon="1.04977">
        <ele>140</ele>
        <time>2017-10-01T08:47:30.000Z</time>
      </trkpt>
      <trkpt lat="44.99122" lon="1.04975">
        <ele>140</ele>
        <time>2017-10-01T08:47:31.000Z</time>
      </trkpt>
      <trkpt lat="44.99124" lon="1.04973">
        <ele>140</ele>
        <time>2017-10-01T08:47:32.000Z</time>
      </trkpt>
      <trkpt lat="44.99125" lon="1.04971">
        <ele>140</ele>
        <time>2017-10-01T08:47:33.000Z</time>
      </trkpt>
      <trkpt lat="44.99127" lon="1.04968">
        <ele>141</ele>
        <time>2017-10-01T08:47:34.000Z</time>
      </trkpt>
      <trkpt lat="44.99128" lon="1.04966">
        <ele>141</ele>
        <time>2017-10-01T08:47:35.000Z</time>
      </trkpt>
      <trkpt lat="44.99129" lon="1.04964">
        <ele>141</ele>
        <time>2017-10-01T08:47:36.000Z</time>
      </trkpt>
      <trkpt lat="44.99131" lon="1.04962">
        <ele>141</ele>
        <time>2017-10-01T08:47:37.000Z</time>
      </trkpt>
      <trkpt lat="44.99132" lon="1.0496">
        <ele>141</ele>
        <time>2017-10-01T08:47:38.000Z</time>
      </trkpt>
      <trkpt lat="44.99134" lon="1.04958">
        <ele>142</ele>
        <time>2017-10-01T08:47:39.000Z</time>
      </trkpt>
      <trkpt lat="44.99135" lon="1.04956">
        <ele>142</ele>
        <time>2017-10-01T08:47:40.000Z</time>
      </trkpt>
      <trkpt lat="44.99136" lon="1.04954">
        <ele>142</ele>
        <time>2017-10-01T08:47:41.000Z</time>
      </trkpt>
      <trkpt lat="44.99138" lon="1.04952">
        <ele>142</ele>
        <time>2017-10-01T08:47:42.000Z</time>
      </trkpt>
      <trkpt lat="44.99139" lon="1.0495">
        <ele>142</ele>
        <time>2017-10-01T08:47:43.000Z</time>
      </trkpt>
      <trkpt lat="44.9914" lon="1.04949">
        <ele>142</ele>
        <time>2017-10-01T08:47:44.000Z</time>
      </trkpt>
      <trkpt lat="44.99141" lon="1.04947">
        <ele>143</ele>
        <time>2017-10-01T08:47:45.000Z</time>
      </trkpt>
      <trkpt lat="44.99142" lon="1.04945">
        <ele>143</ele>
        <time>2017-10-01T08:47:46.000Z</time>
      </trkpt>
      <trkpt lat="44.99144" lon="1.04942">
        <ele>143</ele>
        <time>2017-10-01T08:47:47.000Z</time>
      </trkpt>
      <trkpt lat="44.99145" lon="1.0494">
        <ele>143</ele>
        <time>2017-10-01T08:47:48.000Z</time>
      </trkpt>
      <trkpt lat="44.99147" lon="1.04938">
        <ele>144</ele>
        <time>2017-10-01T08:47:49.000Z</time>
      </trkpt>
      <trkpt lat="44.99148" lon="1.04936">
        <ele>144</ele>
        <time>2017-10-01T08:47:50.000Z</time>
      </trkpt>
      <trkpt lat="44.99149" lon="1.04933">
        <ele>144</ele>
        <time>2017-10-01T08:47:51.000Z</time>
      </trkpt>
      <trkpt lat="44.99151" lon="1.04931">
        <ele>144</ele>
        <time>2017-10-01T08:47:52.000Z</time>
      </trkpt>
      <trkpt lat="44.99152" lon="1.0493">
        <ele>144</ele>
        <time>2017-10-01T08:47:53.000Z</time>
      </trkpt>
      <trkpt lat="44.99154" lon="1.04928">
        <ele>144</ele>
        <time>2017-10-01T08:47:54.000Z</time>
      </trkpt>
      <trkpt lat="44.99155" lon="1.04926">
        <ele>145</ele>
        <time>2017-10-01T08:47:55.000Z</time>
      </trkpt>
      <trkpt lat="44.99157" lon="1.04924">
        <ele>145</ele>
        <time>2017-10-01T08:47:56.000Z</time>
      </trkpt>
      <trkpt lat="44.99158" lon="1.04922">
        <ele>145</ele>
        <time>2017-10-01T08:47:57.000Z</time>
      </trkpt>
      <trkpt lat="44.9916" lon="1.0492">
        <ele>145</ele>
        <time>2017-10-01T08:47:58.000Z</time>
      </trkpt>
      <trkpt lat="44.99161" lon="1.04918">
        <ele>145</ele>
        <time>2017-10-01T08:47:59.000Z</time>
      </trkpt>
      <trkpt lat="44.99163" lon="1.04917">
        <ele>145</ele>
        <time>2017-10-01T08:48:00.000Z</time>
      </trkpt>
      <trkpt lat="44.99164" lon="1.04915">
        <ele>145</ele>
        <time>2017-10-01T08:48:01.000Z</time>
      </trkpt>
      <trkpt lat="44.99166" lon="1.04913">
        <ele>145</ele>
        <time>2017-10-01T08:48:02.000Z</time>
      </trkpt>
      <trkpt lat="44.99167" lon="1.04911">
        <ele>146</ele>
        <time>2017-10-01T08:48:03.000Z</time>
      </trkpt>
      <trkpt lat="44.99169" lon="1.0491">
        <ele>146</ele>
        <time>2017-10-01T08:48:04.000Z</time>
      </trkpt>
      <trkpt lat="44.9917" lon="1.04908">
        <ele>146</ele>
        <time>2017-10-01T08:48:05.000Z</time>
      </trkpt>
      <trkpt lat="44.99172" lon="1.04906">
        <ele>146</ele>
        <time>2017-10-01T08:48:06.000Z</time>
      </trkpt>
      <trkpt lat="44.99173" lon="1.04904">
        <ele>147</ele>
        <time>2017-10-01T08:48:07.000Z</time>
      </trkpt>
      <trkpt lat="44.99175" lon="1.04903">
        <ele>147</ele>
        <time>2017-10-01T08:48:08.000Z</time>
      </trkpt>
      <trkpt lat="44.99176" lon="1.04901">
        <ele>147</ele>
        <time>2017-10-01T08:48:09.000Z</time>
      </trkpt>
      <trkpt lat="44.99178" lon="1.04899">
        <ele>147</ele>
        <time>2017-10-01T08:48:10.000Z</time>
      </trkpt>
      <trkpt lat="44.9918" lon="1.04897">
        <ele>148</ele>
        <time>2017-10-01T08:48:11.000Z</time>
      </trkpt>
      <trkpt lat="44.99181" lon="1.04896">
        <ele>148</ele>
        <time>2017-10-01T08:48:12.000Z</time>
      </trkpt>
      <trkpt lat="44.99183" lon="1.04894">
        <ele>148</ele>
        <time>2017-10-01T08:48:13.000Z</time>
      </trkpt>
      <trkpt lat="44.99184" lon="1.04892">
        <ele>148</ele>
        <time>2017-10-01T08:48:14.000Z</time>
      </trkpt>
      <trkpt lat="44.99186" lon="1.04891">
        <ele>149</ele>
        <time>2017-10-01T08:48:15.000Z</time>
      </trkpt>
      <trkpt lat="44.99188" lon="1.04889">
        <ele>149</ele>
        <time>2017-10-01T08:48:16.000Z</time>
      </trkpt>
      <trkpt lat="44.99189" lon="1.04887">
        <ele>149</ele>
        <time>2017-10-01T08:48:17.000Z</time>
      </trkpt>
      <trkpt lat="44.99191" lon="1.04886">
        <ele>149</ele>
        <time>2017-10-01T08:48:18.000Z</time>
      </trkpt>
      <trkpt lat="44.99193" lon="1.04884">
        <ele>149</ele>
        <time>2017-10-01T08:48:19.000Z</time>
      </trkpt>
      <trkpt lat="44.99194" lon="1.04882">
        <ele>150</ele>
        <time>2017-10-01T08:48:20.000Z</time>
      </trkpt>
      <trkpt lat="44.99196" lon="1.04881">
        <ele>150</ele>
        <time>2017-10-01T08:48:21.000Z</time>
      </trkpt>
      <trkpt lat="44.99198" lon="1.04879">
        <ele>150</ele>
        <time>2017-10-01T08:48:22.000Z</time>
      </trkpt>
      <trkpt lat="44.99199" lon="1.04878">
        <ele>150</ele>
        <time>2017-10-01T08:48:23.000Z</time>
      </trkpt>
      <trkpt lat="44.99201" lon="1.04876">
        <ele>150</ele>
        <time>2017-10-01T08:48:24.000Z</time>
      </trkpt>
      <trkpt lat="44.99202" lon="1.04875">
        <ele>151</ele>
        <time>2017-10-01T08:48:25.000Z</time>
      </trkpt>
      <trkpt lat="44.99204" lon="1.04873">
        <ele>151</ele>
        <time>2017-10-01T08:48:26.000Z</time>
      </trkpt>
      <trkpt lat="44.99205" lon="1.04872">
        <ele>151</ele>
        <time>2017-10-01T08:48:27.000Z</time>
      </trkpt>
      <trkpt lat="44.99207" lon="1.04871">
        <ele>151</ele>
        <time>2017-10-01T08:48:28.000Z</time>
      </trkpt>
      <trkpt lat="44.99208" lon="1.0487">
        <ele>151</ele>
        <time>2017-10-01T08:48:29.000Z</time>
      </trkpt>
      <trkpt lat="44.9921" lon="1.04869">
        <ele>151</ele>
        <time>2017-10-01T08:48:30.000Z</time>
      </trkpt>
      <trkpt lat="44.99212" lon="1.04867">
        <ele>151</ele>
        <time>2017-10-01T08:48:31.000Z</time>
      </trkpt>
      <trkpt lat="44.99213" lon="1.04866">
        <ele>152</ele>
        <time>2017-10-01T08:48:32.000Z</time>
      </trkpt>
      <trkpt lat="44.99215" lon="1.04865">
        <ele>152</ele>
        <time>2017-10-01T08:48:33.000Z</time>
      </trkpt>
      <trkpt lat="44.99217" lon="1.04864">
        <ele>152</ele>
        <time>2017-10-01T08:48:34.000Z</time>
      </trkpt>
      <trkpt lat="44.9922" lon="1.04862">
        <ele>152</ele>
        <time>2017-10-01T08:48:35.000Z</time>
      </trkpt>
      <trkpt lat="44.99222" lon="1.04861">
        <ele>152</ele>
        <time>2017-10-01T08:48:36.000Z</time>
      </trkpt>
      <trkpt lat="44.99225" lon="1.0486">
        <ele>152</ele>
        <time>2017-10-01T08:48:37.000Z</time>
      </trkpt>
      <trkpt lat="44.99227" lon="1.04858">
        <ele>152</ele>
        <time>2017-10-01T08:48:38.000Z</time>
      </trkpt>
      <trkpt lat="44.9923" lon="1.04857">
        <ele>152</ele>
        <time>2017-10-01T08:48:39.000Z</time>
      </trkpt>
      <trkpt lat="44.99232" lon="1.04855">
        <ele>152</ele>
        <time>2017-10-01T08:48:40.000Z</time>
      </trkpt>
      <trkpt lat="44.99235" lon="1.04853">
        <ele>152</ele>
        <time>2017-10-01T08:48:41.000Z</time>
      </trkpt>
      <trkpt lat="44.99238" lon="1.04852">
        <ele>153</ele>
        <time>2017-10-01T08:48:42.000Z</time>
      </trkpt>
      <trkpt lat="44.9924" lon="1.0485">
        <ele>153</ele>
        <time>2017-10-01T08:48:43.000Z</time>
      </trkpt>
      <trkpt lat="44.99242" lon="1.04849">
        <ele>153</ele>
        <time>2017-10-01T08:48:44.000Z</time>
      </trkpt>
      <trkpt lat="44.99245" lon="1.04848">
        <ele>153</ele>
        <time>2017-10-01T08:48:45.000Z</time>
      </trkpt>
      <trkpt lat="44.99247" lon="1.04846">
        <ele>153</ele>
        <time>2017-10-01T08:48:46.000Z</time>
      </trkpt>
      <trkpt lat="44.9925" lon="1.04844">
        <ele>153</ele>
        <time>2017-10-01T08:48:47.000Z</time>
      </trkpt>
      <trkpt lat="44.99253" lon="1.04842">
        <ele>153</ele>
        <time>2017-10-01T08:48:48.000Z</time>
      </trkpt>
      <trkpt lat="44.99256" lon="1.0484">
        <ele>153</ele>
        <time>2017-10-01T08:48:49.000Z</time>
      </trkpt>
      <trkpt lat="44.99259" lon="1.04838">
        <ele>153</ele>
        <time>2017-10-01T08:48:50.000Z</time>
      </trkpt>
      <trkpt lat="44.99262" lon="1.04836">
        <ele>153</ele>
        <time>2017-10-01T08:48:51.000Z</time>
      </trkpt>
      <trkpt lat="44.99265" lon="1.04833">
        <ele>154</ele>
        <time>2017-10-01T08:48:52.000Z</time>
      </trkpt>
      <trkpt lat="44.99269" lon="1.04831">
        <ele>154</ele>
        <time>2017-10-01T08:48:53.000Z</time>
      </trkpt>
      <trkpt lat="44.99272" lon="1.04828">
        <ele>154</ele>
        <time>2017-10-01T08:48:54.000Z</time>
      </trkpt>
      <trkpt lat="44.99275" lon="1.04826">
        <ele>154</ele>
        <time>2017-10-01T08:48:55.000Z</time>
      </trkpt>
      <trkpt lat="44.99278" lon="1.04823">
        <ele>154</ele>
        <time>2017-10-01T08:48:56.000Z</time>
      </trkpt>
      <trkpt lat="44.99281" lon="1.04821">
        <ele>154</ele>
        <time>2017-10-01T08:48:57.000Z</time>
      </trkpt>
      <trkpt lat="44.99283" lon="1.04818">
        <ele>154</ele>
        <time>2017-10-01T08:48:58.000Z</time>
      </trkpt>
      <trkpt lat="44.99285" lon="1.04816">
        <ele>154</ele>
        <time>2017-10-01T08:48:59.000Z</time>
      </trkpt>
      <trkpt lat="44.99288" lon="1.04814">
        <ele>154</ele>
        <time>2017-10-01T08:49:00.000Z</time>
      </trkpt>
      <trkpt lat="44.9929" lon="1.04811">
        <ele>154</ele>
        <time>2017-10-01T08:49:01.000Z</time>
      </trkpt>
      <trkpt lat="44.99292" lon="1.04809">
        <ele>154</ele>
        <time>2017-10-01T08:49:02.000Z</time>
      </trkpt>
      <trkpt lat="44.99294" lon="1.04807">
        <ele>155</ele>
        <time>2017-10-01T08:49:03.000Z</time>
      </trkpt>
      <trkpt lat="44.99296" lon="1.04805">
        <ele>155</ele>
        <time>2017-10-01T08:49:04.000Z</time>
      </trkpt>
      <trkpt lat="44.99298" lon="1.04803">
        <ele>155</ele>
        <time>2017-10-01T08:49:05.000Z</time>
      </trkpt>
      <trkpt lat="44.99299" lon="1.04801">
        <ele>155</ele>
        <time>2017-10-01T08:49:06.000Z</time>
      </trkpt>
      <trkpt lat="44.99301" lon="1.04799">
        <ele>155</ele>
        <time>2017-10-01T08:49:07.000Z</time>
      </trkpt>
      <trkpt lat="44.99303" lon="1.04797">
        <ele>155</ele>
        <time>2017-10-01T08:49:08.000Z</time>
      </trkpt>
      <trkpt lat="44.99305" lon="1.04795">
        <ele>155</ele>
        <time>2017-10-01T08:49:09.000Z</time>
      </trkpt>
      <trkpt lat="44.99307" lon="1.04793">
        <ele>155</ele>
        <time>2017-10-01T08:49:10.000Z</time>
      </trkpt>
      <trkpt lat="44.99309" lon="1.04791">
        <ele>155</ele>
        <time>2017-10-01T08:49:11.000Z</time>
      </trkpt>
      <trkpt lat="44.99312" lon="1.04789">
        <ele>155</ele>
        <time>2017-10-01T08:49:12.000Z</time>
      </trkpt>
      <trkpt lat="44.99314" lon="1.04787">
        <ele>155</ele>
        <time>2017-10-01T08:49:13.000Z</time>
      </trkpt>
      <trkpt lat="44.99316" lon="1.04784">
        <ele>155</ele>
        <time>2017-10-01T08:49:14.000Z</time>
      </trkpt>
      <trkpt lat="44.99318" lon="1.04782">
        <ele>155</ele>
        <time>2017-10-01T08:49:15.000Z</time>
      </trkpt>
      <trkpt lat="44.99319" lon="1.0478">
        <ele>156</ele>
        <time>2017-10-01T08:49:16.000Z</time>
      </trkpt>
      <trkpt lat="44.99321" lon="1.04778">
        <ele>156</ele>
        <time>2017-10-01T08:49:17.000Z</time>
      </trkpt>
      <trkpt lat="44.99323" lon="1.04776">
        <ele>156</ele>
        <time>2017-10-01T08:49:18.000Z</time>
      </trkpt>
      <trkpt lat="44.99325" lon="1.04774">
        <ele>156</ele>
        <time>2017-10-01T08:49:19.000Z</time>
      </trkpt>
      <trkpt lat="44.99327" lon="1.04772">
        <ele>156</ele>
        <time>2017-10-01T08:49:20.000Z</time>
      </trkpt>
      <trkpt lat="44.99328" lon="1.0477">
        <ele>156</ele>
        <time>2017-10-01T08:49:21.000Z</time>
      </trkpt>
      <trkpt lat="44.9933" lon="1.04769">
        <ele>156</ele>
        <time>2017-10-01T08:49:22.000Z</time>
      </trkpt>
      <trkpt lat="44.99332" lon="1.04767">
        <ele>156</ele>
        <time>2017-10-01T08:49:23.000Z</time>
      </trkpt>
      <trkpt lat="44.99333" lon="1.04765">
        <ele>156</ele>
        <time>2017-10-01T08:49:24.000Z</time>
      </trkpt>
      <trkpt lat="44.99335" lon="1.04763">
        <ele>156</ele>
        <time>2017-10-01T08:49:25.000Z</time>
      </trkpt>
      <trkpt lat="44.99337" lon="1.04761">
        <ele>156</ele>
        <time>2017-10-01T08:49:26.000Z</time>
      </trkpt>
      <trkpt lat="44.99338" lon="1.04759">
        <ele>156</ele>
        <time>2017-10-01T08:49:27.000Z</time>
      </trkpt>
      <trkpt lat="44.9934" lon="1.04757">
        <ele>156</ele>
        <time>2017-10-01T08:49:28.000Z</time>
      </trkpt>
      <trkpt lat="44.99341" lon="1.04755">
        <ele>157</ele>
        <time>2017-10-01T08:49:29.000Z</time>
      </trkpt>
      <trkpt lat="44.99343" lon="1.04753">
        <ele>157</ele>
        <time>2017-10-01T08:49:30.000Z</time>
      </trkpt>
      <trkpt lat="44.99344" lon="1.04751">
        <ele>157</ele>
        <time>2017-10-01T08:49:31.000Z</time>
      </trkpt>
      <trkpt lat="44.99346" lon="1.0475">
        <ele>157</ele>
        <time>2017-10-01T08:49:32.000Z</time>
      </trkpt>
      <trkpt lat="44.99348" lon="1.04748">
        <ele>157</ele>
        <time>2017-10-01T08:49:33.000Z</time>
      </trkpt>
      <trkpt lat="44.99349" lon="1.04746">
        <ele>157</ele>
        <time>2017-10-01T08:49:34.000Z</time>
      </trkpt>
      <trkpt lat="44.99351" lon="1.04744">
        <ele>158</ele>
        <time>2017-10-01T08:49:35.000Z</time>
      </trkpt>
      <trkpt lat="44.99352" lon="1.04742">
        <ele>158</ele>
        <time>2017-10-01T08:49:36.000Z</time>
      </trkpt>
      <trkpt lat="44.99354" lon="1.0474">
        <ele>158</ele>
        <time>2017-10-01T08:49:37.000Z</time>
      </trkpt>
      <trkpt lat="44.99355" lon="1.04738">
        <ele>158</ele>
        <time>2017-10-01T08:49:38.000Z</time>
      </trkpt>
      <trkpt lat="44.99357" lon="1.04736">
        <ele>158</ele>
        <time>2017-10-01T08:49:39.000Z</time>
      </trkpt>
      <trkpt lat="44.99358" lon="1.04735">
        <ele>159</ele>
        <time>2017-10-01T08:49:40.000Z</time>
      </trkpt>
      <trkpt lat="44.99359" lon="1.04733">
        <ele>159</ele>
        <time>2017-10-01T08:49:41.000Z</time>
      </trkpt>
      <trkpt lat="44.99361" lon="1.04731">
        <ele>159</ele>
        <time>2017-10-01T08:49:42.000Z</time>
      </trkpt>
      <trkpt lat="44.99362" lon="1.0473">
        <ele>159</ele>
        <time>2017-10-01T08:49:43.000Z</time>
      </trkpt>
      <trkpt lat="44.99363" lon="1.04728">
        <ele>159</ele>
        <time>2017-10-01T08:49:44.000Z</time>
      </trkpt>
      <trkpt lat="44.99365" lon="1.04726">
        <ele>159</ele>
        <time>2017-10-01T08:49:45.000Z</time>
      </trkpt>
      <trkpt lat="44.99366" lon="1.04725">
        <ele>160</ele>
        <time>2017-10-01T08:49:46.000Z</time>
      </trkpt>
      <trkpt lat="44.99367" lon="1.04723">
        <ele>160</ele>
        <time>2017-10-01T08:49:47.000Z</time>
      </trkpt>
      <trkpt lat="44.99368" lon="1.04722">
        <ele>160</ele>
        <time>2017-10-01T08:49:48.000Z</time>
      </trkpt>
      <trkpt lat="44.99369" lon="1.0472">
        <ele>160</ele>
        <time>2017-10-01T08:49:49.000Z</time>
      </trkpt>
      <trkpt lat="44.99371" lon="1.04718">
        <ele>160</ele>
        <time>2017-10-01T08:49:50.000Z</time>
      </trkpt>
      <trkpt lat="44.99372" lon="1.04717">
        <ele>160</ele>
        <time>2017-10-01T08:49:51.000Z</time>
      </trkpt>
      <trkpt lat="44.99373" lon="1.04715">
        <ele>161</ele>
        <time>2017-10-01T08:49:52.000Z</time>
      </trkpt>
      <trkpt lat="44.99374" lon="1.04714">
        <ele>161</ele>
        <time>2017-10-01T08:49:53.000Z</time>
      </trkpt>
      <trkpt lat="44.99375" lon="1.04713">
        <ele>161</ele>
        <time>2017-10-01T08:49:54.000Z</time>
      </trkpt>
      <trkpt lat="44.99376" lon="1.04711">
        <ele>161</ele>
        <time>2017-10-01T08:49:55.000Z</time>
      </trkpt>
      <trkpt lat="44.99377" lon="1.0471">
        <ele>161</ele>
        <time>2017-10-01T08:49:56.000Z</time>
      </trkpt>
      <trkpt lat="44.99378" lon="1.04709">
        <ele>161</ele>
        <time>2017-10-01T08:49:57.000Z</time>
      </trkpt>
      <trkpt lat="44.99379" lon="1.04708">
        <ele>161</ele>
        <time>2017-10-01T08:49:58.000Z</time>
      </trkpt>
      <trkpt lat="44.9938" lon="1.04707">
        <ele>162</ele>
        <time>2017-10-01T08:49:59.000Z</time>
      </trkpt>
      <trkpt lat="44.99381" lon="1.04706">
        <ele>162</ele>
        <time>2017-10-01T08:50:00.000Z</time>
      </trkpt>
      <trkpt lat="44.99382" lon="1.04705">
        <ele>162</ele>
        <time>2017-10-01T08:50:01.000Z</time>
      </trkpt>
      <trkpt lat="44.99383" lon="1.04704">
        <ele>162</ele>
        <time>2017-10-01T08:50:02.000Z</time>
      </trkpt>
      <trkpt lat="44.99384" lon="1.04703">
        <ele>162</ele>
        <time>2017-10-01T08:50:03.000Z</time>
      </trkpt>
      <trkpt lat="44.99386" lon="1.04702">
        <ele>162</ele>
        <time>2017-10-01T08:50:04.000Z</time>
      </trkpt>
      <trkpt lat="44.99387" lon="1.047">
        <ele>162</ele>
        <time>2017-10-01T08:50:05.000Z</time>
      </trkpt>
      <trkpt lat="44.99388" lon="1.04699">
        <ele>162</ele>
        <time>2017-10-01T08:50:06.000Z</time>
      </trkpt>
      <trkpt lat="44.9939" lon="1.04698">
        <ele>162</ele>
        <time>2017-10-01T08:50:07.000Z</time>
      </trkpt>
      <trkpt lat="44.99391" lon="1.04696">
        <ele>162</ele>
        <time>2017-10-01T08:50:08.000Z</time>
      </trkpt>
      <trkpt lat="44.99393" lon="1.04695">
        <ele>162</ele>
        <time>2017-10-01T08:50:09.000Z</time>
      </trkpt>
      <trkpt lat="44.99394" lon="1.04693">
        <ele>163</ele>
        <time>2017-10-01T08:50:10.000Z</time>
      </trkpt>
      <trkpt lat="44.99395" lon="1.04692">
        <ele>163</ele>
        <time>2017-10-01T08:50:11.000Z</time>
      </trkpt>
      <trkpt lat="44.99397" lon="1.0469">
        <ele>163</ele>
        <time>2017-10-01T08:50:12.000Z</time>
      </trkpt>
      <trkpt lat="44.99398" lon="1.04689">
        <ele>163</ele>
        <time>2017-10-01T08:50:13.000Z</time>
      </trkpt>
      <trkpt lat="44.99399" lon="1.04687">
        <ele>163</ele>
        <time>2017-10-01T08:50:14.000Z</time>
      </trkpt>
      <trkpt lat="44.99401" lon="1.04685">
        <ele>163</ele>
        <time>2017-10-01T08:50:15.000Z</time>
      </trkpt>
      <trkpt lat="44.99402" lon="1.04684">
        <ele>164</ele>
        <time>2017-10-01T08:50:16.000Z</time>
      </trkpt>
      <trkpt lat="44.99403" lon="1.04682">
        <ele>164</ele>
        <time>2017-10-01T08:50:17.000Z</time>
      </trkpt>
      <trkpt lat="44.99404" lon="1.04681">
        <ele>164</ele>
        <time>2017-10-01T08:50:18.000Z</time>
      </trkpt>
      <trkpt lat="44.99405" lon="1.04679">
        <ele>164</ele>
        <time>2017-10-01T08:50:19.000Z</time>
      </trkpt>
      <trkpt lat="44.99406" lon="1.04678">
        <ele>164</ele>
        <time>2017-10-01T08:50:20.000Z</time>
      </trkpt>
      <trkpt lat="44.99407" lon="1.04677">
        <ele>165</ele>
        <time>2017-10-01T08:50:21.000Z</time>
      </trkpt>
      <trkpt lat="44.99408" lon="1.04675">
        <ele>165</ele>
        <time>2017-10-01T08:50:22.000Z</time>
      </trkpt>
      <trkpt lat="44.99409" lon="1.04674">
        <ele>165</ele>
        <time>2017-10-01T08:50:23.000Z</time>
      </trkpt>
      <trkpt lat="44.9941" lon="1.04672">
        <ele>165</ele>
        <time>2017-10-01T08:50:24.000Z</time>
      </trkpt>
      <trkpt lat="44.9941" lon="1.0467">
        <ele>166</ele>
        <time>2017-10-01T08:50:25.000Z</time>
      </trkpt>
      <trkpt lat="44.99411" lon="1.04669">
        <ele>166</ele>
        <time>2017-10-01T08:50:26.000Z</time>
      </trkpt>
      <trkpt lat="44.99412" lon="1.04667">
        <ele>166</ele>
        <time>2017-10-01T08:50:27.000Z</time>
      </trkpt>
      <trkpt lat="44.99412" lon="1.04666">
        <ele>166</ele>
        <time>2017-10-01T08:50:28.000Z</time>
      </trkpt>
      <trkpt lat="44.99413" lon="1.04664">
        <ele>166</ele>
        <time>2017-10-01T08:50:29.000Z</time>
      </trkpt>
      <trkpt lat="44.99414" lon="1.04662">
        <ele>167</ele>
        <time>2017-10-01T08:50:30.000Z</time>
      </trkpt>
      <trkpt lat="44.99415" lon="1.0466">
        <ele>167</ele>
        <time>2017-10-01T08:50:31.000Z</time>
      </trkpt>
      <trkpt lat="44.99415" lon="1.04659">
        <ele>167</ele>
        <time>2017-10-01T08:50:32.000Z</time>
      </trkpt>
      <trkpt lat="44.99416" lon="1.04657">
        <ele>167</ele>
        <time>2017-10-01T08:50:33.000Z</time>
      </trkpt>
      <trkpt lat="44.99417" lon="1.04655">
        <ele>167</ele>
        <time>2017-10-01T08:50:34.000Z</time>
      </trkpt>
      <trkpt lat="44.99418" lon="1.04653">
        <ele>167</ele>
        <time>2017-10-01T08:50:35.000Z</time>
      </trkpt>
      <trkpt lat="44.99419" lon="1.04652">
        <ele>168</ele>
        <time>2017-10-01T08:50:36.000Z</time>
      </trkpt>
      <trkpt lat="44.9942" lon="1.0465">
        <ele>168</ele>
        <time>2017-10-01T08:50:37.000Z</time>
      </trkpt>
      <trkpt lat="44.99421" lon="1.04648">
        <ele>168</ele>
        <time>2017-10-01T08:50:38.000Z</time>
      </trkpt>
      <trkpt lat="44.99422" lon="1.04646">
        <ele>168</ele>
        <time>2017-10-01T08:50:39.000Z</time>
      </trkpt>
      <trkpt lat="44.99423" lon="1.04644">
        <ele>168</ele>
        <time>2017-10-01T08:50:40.000Z</time>
      </trkpt>
      <trkpt lat="44.99423" lon="1.04642">
        <ele>169</ele>
        <time>2017-10-01T08:50:41.000Z</time>
      </trkpt>
      <trkpt lat="44.99424" lon="1.0464">
        <ele>169</ele>
        <time>2017-10-01T08:50:42.000Z</time>
      </trkpt>
      <trkpt lat="44.99425" lon="1.04638">
        <ele>169</ele>
        <time>2017-10-01T08:50:43.000Z</time>
      </trkpt>
      <trkpt lat="44.99426" lon="1.04636">
        <ele>169</ele>
        <time>2017-10-01T08:50:44.000Z</time>
      </trkpt>
      <trkpt lat="44.99427" lon="1.04634">
        <ele>169</ele>
        <time>2017-10-01T08:50:45.000Z</time>
      </trkpt>
      <trkpt lat="44.99428" lon="1.04632">
        <ele>170</ele>
        <time>2017-10-01T08:50:46.000Z</time>
      </trkpt>
      <trkpt lat="44.99429" lon="1.04631">
        <ele>170</ele>
        <time>2017-10-01T08:50:47.000Z</time>
      </trkpt>
      <trkpt lat="44.9943" lon="1.04629">
        <ele>170</ele>
        <time>2017-10-01T08:50:48.000Z</time>
      </trkpt>
      <trkpt lat="44.99431" lon="1.04628">
        <ele>170</ele>
        <time>2017-10-01T08:50:49.000Z</time>
      </trkpt>
      <trkpt lat="44.99432" lon="1.04626">
        <ele>170</ele>
        <time>2017-10-01T08:50:50.000Z</time>
      </trkpt>
      <trkpt lat="44.99432" lon="1.04625">
        <ele>170</ele>
        <time>2017-10-01T08:50:51.000Z</time>
      </trkpt>
      <trkpt lat="44.99433" lon="1.04623">
        <ele>170</ele>
        <time>2017-10-01T08:50:52.000Z</time>
      </trkpt>
      <trkpt lat="44.99434" lon="1.04622">
        <ele>171</ele>
        <time>2017-10-01T08:50:53.000Z</time>
      </trkpt>
      <trkpt lat="44.99435" lon="1.0462">
        <ele>171</ele>
        <time>2017-10-01T08:50:54.000Z</time>
      </trkpt>
      <trkpt lat="44.99435" lon="1.04618">
        <ele>171</ele>
        <time>2017-10-01T08:50:55.000Z</time>
      </trkpt>
      <trkpt lat="44.99436" lon="1.04616">
        <ele>171</ele>
        <time>2017-10-01T08:50:56.000Z</time>
      </trkpt>
      <trkpt lat="44.99437" lon="1.04615">
        <ele>171</ele>
        <time>2017-10-01T08:50:57.000Z</time>
      </trkpt>
      <trkpt lat="44.99437" lon="1.04613">
        <ele>172</ele>
        <time>2017-10-01T08:50:58.000Z</time>
      </trkpt>
      <trkpt lat="44.99438" lon="1.04611">
        <ele>172</ele>
        <time>2017-10-01T08:50:59.000Z</time>
      </trkpt>
      <trkpt lat="44.99438" lon="1.04609">
        <ele>172</ele>
        <time>2017-10-01T08:51:00.000Z</time>
      </trkpt>
      <trkpt lat="44.99439" lon="1.04607">
        <ele>172</ele>
        <time>2017-10-01T08:51:01.000Z</time>
      </trkpt>
      <trkpt lat="44.9944" lon="1.04606">
        <ele>172</ele>
        <time>2017-10-01T08:51:02.000Z</time>
      </trkpt>
      <trkpt lat="44.9944" lon="1.04604">
        <ele>173</ele>
        <time>2017-10-01T08:51:03.000Z</time>
      </trkpt>
      <trkpt lat="44.99441" lon="1.04602">
        <ele>173</ele>
        <time>2017-10-01T08:51:04.000Z</time>
      </trkpt>
      <trkpt lat="44.99442" lon="1.04601">
        <ele>173</ele>
        <time>2017-10-01T08:51:05.000Z</time>
      </trkpt>
      <trkpt lat="44.99442" lon="1.04599">
        <ele>173</ele>
        <time>2017-10-01T08:51:06.000Z</time>
      </trkpt>
      <trkpt lat="44.99443" lon="1.04597">
        <ele>173</ele>
        <time>2017-10-01T08:51:07.000Z</time>
      </trkpt>
      <trkpt lat="44.99444" lon="1.04596">
        <ele>173</ele>
        <time>2017-10-01T08:51:08.000Z</time>
      </trkpt>
      <trkpt lat="44.99444" lon="1.04594">
        <ele>174</ele>
        <time>2017-10-01T08:51:09.000Z</time>
      </trkpt>
      <trkpt lat="44.99445" lon="1.04592">
        <ele>174</ele>
        <time>2017-10-01T08:51:10.000Z</time>
      </trkpt>
      <trkpt lat="44.99446" lon="1.04591">
        <ele>174</ele>
        <time>2017-10-01T08:51:11.000Z</time>
      </trkpt>
      <trkpt lat="44.99446" lon="1.04589">
        <ele>174</ele>
        <time>2017-10-01T08:51:12.000Z</time>
      </trkpt>
      <trkpt lat="44.99447" lon="1.04588">
        <ele>174</ele>
        <time>2017-10-01T08:51:13.000Z</time>
      </trkpt>
      <trkpt lat="44.99448" lon="1.04586">
        <ele>174</ele>
        <time>2017-10-01T08:51:14.000Z</time>
      </trkpt>
      <trkpt lat="44.99448" lon="1.04584">
        <ele>175</ele>
        <time>2017-10-01T08:51:15.000Z</time>
      </trkpt>
      <trkpt lat="44.99448" lon="1.04583">
        <ele>175</ele>
        <time>2017-10-01T08:51:16.000Z</time>
      </trkpt>
      <trkpt lat="44.99449" lon="1.04581">
        <ele>175</ele>
        <time>2017-10-01T08:51:17.000Z</time>
      </trkpt>
      <trkpt lat="44.99449" lon="1.04579">
        <ele>175</ele>
        <time>2017-10-01T08:51:18.000Z</time>
      </trkpt>
      <trkpt lat="44.9945" lon="1.04577">
        <ele>175</ele>
        <time>2017-10-01T08:51:19.000Z</time>
      </trkpt>
      <trkpt lat="44.9945" lon="1.04575">
        <ele>176</ele>
        <time>2017-10-01T08:51:20.000Z</time>
      </trkpt>
      <trkpt lat="44.99451" lon="1.04574">
        <ele>176</ele>
        <time>2017-10-01T08:51:21.000Z</time>
      </trkpt>
      <trkpt lat="44.99451" lon="1.04572">
        <ele>176</ele>
        <time>2017-10-01T08:51:22.000Z</time>
      </trkpt>
      <trkpt lat="44.99452" lon="1.0457">
        <ele>176</ele>
        <time>2017-10-01T08:51:23.000Z</time>
      </trkpt>
      <trkpt lat="44.99452" lon="1.04568">
        <ele>176</ele>
        <time>2017-10-01T08:51:24.000Z</time>
      </trkpt>
      <trkpt lat="44.99453" lon="1.04566">
        <ele>176</ele>
        <time>2017-10-01T08:51:25.000Z</time>
      </trkpt>
      <trkpt lat="44.99453" lon="1.04564">
        <ele>177</ele>
        <time>2017-10-01T08:51:26.000Z</time>
      </trkpt>
      <trkpt lat="44.99454" lon="1.04562">
        <ele>177</ele>
        <time>2017-10-01T08:51:27.000Z</time>
      </trkpt>
      <trkpt lat="44.99454" lon="1.04559">
        <ele>177</ele>
        <time>2017-10-01T08:51:28.000Z</time>
      </trkpt>
      <trkpt lat="44.99455" lon="1.04557">
        <ele>177</ele>
        <time>2017-10-01T08:51:29.000Z</time>
      </trkpt>
      <trkpt lat="44.99455" lon="1.04554">
        <ele>178</ele>
        <time>2017-10-01T08:51:30.000Z</time>
      </trkpt>
      <trkpt lat="44.99455" lon="1.04552">
        <ele>178</ele>
        <time>2017-10-01T08:51:31.000Z</time>
      </trkpt>
      <trkpt lat="44.99455" lon="1.04549">
        <ele>178</ele>
        <time>2017-10-01T08:51:32.000Z</time>
      </trkpt>
      <trkpt lat="44.99455" lon="1.04547">
        <ele>178</ele>
        <time>2017-10-01T08:51:33.000Z</time>
      </trkpt>
      <trkpt lat="44.99455" lon="1.04544">
        <ele>179</ele>
        <time>2017-10-01T08:51:34.000Z</time>
      </trkpt>
      <trkpt lat="44.99455" lon="1.04542">
        <ele>179</ele>
        <time>2017-10-01T08:51:35.000Z</time>
      </trkpt>
      <trkpt lat="44.99455" lon="1.0454">
        <ele>179</ele>
        <time>2017-10-01T08:51:36.000Z</time>
      </trkpt>
      <trkpt lat="44.99454" lon="1.04538">
        <ele>180</ele>
        <time>2017-10-01T08:51:37.000Z</time>
      </trkpt>
      <trkpt lat="44.99454" lon="1.04536">
        <ele>180</ele>
        <time>2017-10-01T08:51:38.000Z</time>
      </trkpt>
      <trkpt lat="44.99454" lon="1.04534">
        <ele>180</ele>
        <time>2017-10-01T08:51:39.000Z</time>
      </trkpt>
      <trkpt lat="44.99454" lon="1.04532">
        <ele>181</ele>
        <time>2017-10-01T08:51:40.000Z</time>
      </trkpt>
      <trkpt lat="44.99453" lon="1.0453">
        <ele>181</ele>
        <time>2017-10-01T08:51:41.000Z</time>
      </trkpt>
      <trkpt lat="44.99453" lon="1.04528">
        <ele>181</ele>
        <time>2017-10-01T08:51:42.000Z</time>
      </trkpt>
      <trkpt lat="44.99453" lon="1.04525">
        <ele>181</ele>
        <time>2017-10-01T08:51:43.000Z</time>
      </trkpt>
      <trkpt lat="44.99453" lon="1.04523">
        <ele>182</ele>
        <time>2017-10-01T08:51:44.000Z</time>
      </trkpt>
      <trkpt lat="44.99454" lon="1.04521">
        <ele>182</ele>
        <time>2017-10-01T08:51:45.000Z</time>
      </trkpt>
      <trkpt lat="44.99454" lon="1.04519">
        <ele>182</ele>
        <time>2017-10-01T08:51:46.000Z</time>
      </trkpt>
      <trkpt lat="44.99454" lon="1.04516">
        <ele>182</ele>
        <time>2017-10-01T08:51:47.000Z</time>
      </trkpt>
      <trkpt lat="44.99454" lon="1.04514">
        <ele>183</ele>
        <time>2017-10-01T08:51:48.000Z</time>
      </trkpt>
      <trkpt lat="44.99454" lon="1.04512">
        <ele>183</ele>
        <time>2017-10-01T08:51:49.000Z</time>
      </trkpt>
      <trkpt lat="44.99454" lon="1.04509">
        <ele>183</ele>
        <time>2017-10-01T08:51:50.000Z</time>
      </trkpt>
      <trkpt lat="44.99454" lon="1.04507">
        <ele>184</ele>
        <time>2017-10-01T08:51:51.000Z</time>
      </trkpt>
      <trkpt lat="44.99454" lon="1.04505">
        <ele>184</ele>
        <time>2017-10-01T08:51:52.000Z</time>
      </trkpt>
      <trkpt lat="44.99454" lon="1.04503">
        <ele>184</ele>
        <time>2017-10-01T08:51:53.000Z</time>
      </trkpt>
      <trkpt lat="44.99454" lon="1.045">
        <ele>184</ele>
        <time>2017-10-01T08:51:54.000Z</time>
      </trkpt>
      <trkpt lat="44.99454" lon="1.04498">
        <ele>185</ele>
        <time>2017-10-01T08:51:55.000Z</time>
      </trkpt>
      <trkpt lat="44.99454" lon="1.04496">
        <ele>185</ele>
        <time>2017-10-01T08:51:56.000Z</time>
      </trkpt>
      <trkpt lat="44.99454" lon="1.04493">
        <ele>185</ele>
        <time>2017-10-01T08:51:57.000Z</time>
      </trkpt>
      <trkpt lat="44.99454" lon="1.04491">
        <ele>185</ele>
        <time>2017-10-01T08:51:58.000Z</time>
      </trkpt>
      <trkpt lat="44.99453" lon="1.04489">
        <ele>185</ele>
        <time>2017-10-01T08:51:59.000Z</time>
      </trkpt>
      <trkpt lat="44.99453" lon="1.04486">
        <ele>186</ele>
        <time>2017-10-01T08:52:00.000Z</time>
      </trkpt>
      <trkpt lat="44.99453" lon="1.04484">
        <ele>186</ele>
        <time>2017-10-01T08:52:01.000Z</time>
      </trkpt>
      <trkpt lat="44.99453" lon="1.04482">
        <ele>186</ele>
        <time>2017-10-01T08:52:02.000Z</time>
      </trkpt>
      <trkpt lat="44.99453" lon="1.04479">
        <ele>186</ele>
        <time>2017-10-01T08:52:03.000Z</time>
      </trkpt>
      <trkpt lat="44.99453" lon="1.04477">
        <ele>187</ele>
        <time>2017-10-01T08:52:04.000Z</time>
      </trkpt>
      <trkpt lat="44.99453" lon="1.04475">
        <ele>187</ele>
        <time>2017-10-01T08:52:05.000Z</time>
      </trkpt>
      <trkpt lat="44.99453" lon="1.04472">
        <ele>187</ele>
        <time>2017-10-01T08:52:06.000Z</time>
      </trkpt>
      <trkpt lat="44.99453" lon="1.0447">
        <ele>187</ele>
        <time>2017-10-01T08:52:07.000Z</time>
      </trkpt>
      <trkpt lat="44.99454" lon="1.04468">
        <ele>187</ele>
        <time>2017-10-01T08:52:08.000Z</time>
      </trkpt>
      <trkpt lat="44.99454" lon="1.04465">
        <ele>187</ele>
        <time>2017-10-01T08:52:09.000Z</time>
      </trkpt>
      <trkpt lat="44.99454" lon="1.04463">
        <ele>188</ele>
        <time>2017-10-01T08:52:10.000Z</time>
      </trkpt>
      <trkpt lat="44.99454" lon="1.04461">
        <ele>188</ele>
        <time>2017-10-01T08:52:11.000Z</time>
      </trkpt>
      <trkpt lat="44.99454" lon="1.04458">
        <ele>188</ele>
        <time>2017-10-01T08:52:12.000Z</time>
      </trkpt>
      <trkpt lat="44.99455" lon="1.04456">
        <ele>188</ele>
        <time>2017-10-01T08:52:13.000Z</time>
      </trkpt>
      <trkpt lat="44.99455" lon="1.04454">
        <ele>188</ele>
        <time>2017-10-01T08:52:14.000Z</time>
      </trkpt>
      <trkpt lat="44.99455" lon="1.04451">
        <ele>188</ele>
        <time>2017-10-01T08:52:15.000Z</time>
      </trkpt>
      <trkpt lat="44.99456" lon="1.04449">
        <ele>189</ele>
        <time>2017-10-01T08:52:16.000Z</time>
      </trkpt>
      <trkpt lat="44.99456" lon="1.04447">
        <ele>189</ele>
        <time>2017-10-01T08:52:17.000Z</time>
      </trkpt>
      <trkpt lat="44.99456" lon="1.04445">
        <ele>189</ele>
        <time>2017-10-01T08:52:18.000Z</time>
      </trkpt>
      <trkpt lat="44.99457" lon="1.04442">
        <ele>189</ele>
        <time>2017-10-01T08:52:19.000Z</time>
      </trkpt>
      <trkpt lat="44.99457" lon="1.0444">
        <ele>189</ele>
        <time>2017-10-01T08:52:20.000Z</time>
      </trkpt>
      <trkpt lat="44.99457" lon="1.04438">
        <ele>189</ele>
        <time>2017-10-01T08:52:21.000Z</time>
      </trkpt>
      <trkpt lat="44.99458" lon="1.04436">
        <ele>189</ele>
        <time>2017-10-01T08:52:22.000Z</time>
      </trkpt>
      <trkpt lat="44.99458" lon="1.04434">
        <ele>190</ele>
        <time>2017-10-01T08:52:23.000Z</time>
      </trkpt>
      <trkpt lat="44.99458" lon="1.04432">
        <ele>190</ele>
        <time>2017-10-01T08:52:24.000Z</time>
      </trkpt>
      <trkpt lat="44.99459" lon="1.0443">
        <ele>190</ele>
        <time>2017-10-01T08:52:25.000Z</time>
      </trkpt>
      <trkpt lat="44.99459" lon="1.04428">
        <ele>190</ele>
        <time>2017-10-01T08:52:26.000Z</time>
      </trkpt>
      <trkpt lat="44.99459" lon="1.04426">
        <ele>190</ele>
        <time>2017-10-01T08:52:27.000Z</time>
      </trkpt>
      <trkpt lat="44.9946" lon="1.04424">
        <ele>190</ele>
        <time>2017-10-01T08:52:28.000Z</time>
      </trkpt>
      <trkpt lat="44.9946" lon="1.04422">
        <ele>190</ele>
        <time>2017-10-01T08:52:29.000Z</time>
      </trkpt>
      <trkpt lat="44.9946" lon="1.0442">
        <ele>190</ele>
        <time>2017-10-01T08:52:30.000Z</time>
      </trkpt>
      <trkpt lat="44.9946" lon="1.04418">
        <ele>191</ele>
        <time>2017-10-01T08:52:31.000Z</time>
      </trkpt>
      <trkpt lat="44.99461" lon="1.04416">
        <ele>191</ele>
        <time>2017-10-01T08:52:32.000Z</time>
      </trkpt>
      <trkpt lat="44.99461" lon="1.04414">
        <ele>191</ele>
        <time>2017-10-01T08:52:33.000Z</time>
      </trkpt>
      <trkpt lat="44.99461" lon="1.04412">
        <ele>191</ele>
        <time>2017-10-01T08:52:34.000Z</time>
      </trkpt>
      <trkpt lat="44.99461" lon="1.0441">
        <ele>191</ele>
        <time>2017-10-01T08:52:35.000Z</time>
      </trkpt>
      <trkpt lat="44.99461" lon="1.04408">
        <ele>191</ele>
        <time>2017-10-01T08:52:36.000Z</time>
      </trkpt>
      <trkpt lat="44.99461" lon="1.04406">
        <ele>191</ele>
        <time>2017-10-01T08:52:37.000Z</time>
      </trkpt>
      <trkpt lat="44.99461" lon="1.04404">
        <ele>191</ele>
        <time>2017-10-01T08:52:38.000Z</time>
      </trkpt>
      <trkpt lat="44.99461" lon="1.04402">
        <ele>191</ele>
        <time>2017-10-01T08:52:39.000Z</time>
      </trkpt>
      <trkpt lat="44.99461" lon="1.04399">
        <ele>191</ele>
        <time>2017-10-01T08:52:40.000Z</time>
      </trkpt>
      <trkpt lat="44.99461" lon="1.04397">
        <ele>191</ele>
        <time>2017-10-01T08:52:41.000Z</time>
      </trkpt>
      <trkpt lat="44.99461" lon="1.04395">
        <ele>191</ele>
        <time>2017-10-01T08:52:42.000Z</time>
      </trkpt>
      <trkpt lat="44.99461" lon="1.04392">
        <ele>191</ele>
        <time>2017-10-01T08:52:43.000Z</time>
      </trkpt>
      <trkpt lat="44.9946" lon="1.0439">
        <ele>191</ele>
        <time>2017-10-01T08:52:44.000Z</time>
      </trkpt>
      <trkpt lat="44.9946" lon="1.04387">
        <ele>191</ele>
        <time>2017-10-01T08:52:45.000Z</time>
      </trkpt>
      <trkpt lat="44.9946" lon="1.04384">
        <ele>191</ele>
        <time>2017-10-01T08:52:46.000Z</time>
      </trkpt>
      <trkpt lat="44.9946" lon="1.04382">
        <ele>192</ele>
        <time>2017-10-01T08:52:47.000Z</time>
      </trkpt>
      <trkpt lat="44.99459" lon="1.04379">
        <ele>192</ele>
        <time>2017-10-01T08:52:48.000Z</time>
      </trkpt>
      <trkpt lat="44.99459" lon="1.04376">
        <ele>192</ele>
        <time>2017-10-01T08:52:49.000Z</time>
      </trkpt>
      <trkpt lat="44.99459" lon="1.04373">
        <ele>192</ele>
        <time>2017-10-01T08:52:50.000Z</time>
      </trkpt>
      <trkpt lat="44.99459" lon="1.0437">
        <ele>192</ele>
        <time>2017-10-01T08:52:51.000Z</time>
      </trkpt>
      <trkpt lat="44.99459" lon="1.04367">
        <ele>192</ele>
        <time>2017-10-01T08:52:52.000Z</time>
      </trkpt>
      <trkpt lat="44.99458" lon="1.04364">
        <ele>192</ele>
        <time>2017-10-01T08:52:53.000Z</time>
      </trkpt>
      <trkpt lat="44.99458" lon="1.04361">
        <ele>192</ele>
        <time>2017-10-01T08:52:54.000Z</time>
      </trkpt>
      <trkpt lat="44.99458" lon="1.04358">
        <ele>192</ele>
        <time>2017-10-01T08:52:55.000Z</time>
      </trkpt>
      <trkpt lat="44.99458" lon="1.04355">
        <ele>192</ele>
        <time>2017-10-01T08:52:56.000Z</time>
      </trkpt>
      <trkpt lat="44.99457" lon="1.04353">
        <ele>192</ele>
        <time>2017-10-01T08:52:57.000Z</time>
      </trkpt>
      <trkpt lat="44.99457" lon="1.0435">
        <ele>192</ele>
        <time>2017-10-01T08:52:58.000Z</time>
      </trkpt>
      <trkpt lat="44.99457" lon="1.04347">
        <ele>192</ele>
        <time>2017-10-01T08:52:59.000Z</time>
      </trkpt>
      <trkpt lat="44.99456" lon="1.04345">
        <ele>193</ele>
        <time>2017-10-01T08:53:00.000Z</time>
      </trkpt>
      <trkpt lat="44.99455" lon="1.04342">
        <ele>193</ele>
        <time>2017-10-01T08:53:01.000Z</time>
      </trkpt>
      <trkpt lat="44.99455" lon="1.0434">
        <ele>193</ele>
        <time>2017-10-01T08:53:02.000Z</time>
      </trkpt>
      <trkpt lat="44.99455" lon="1.04337">
        <ele>193</ele>
        <time>2017-10-01T08:53:03.000Z</time>
      </trkpt>
      <trkpt lat="44.99454" lon="1.04335">
        <ele>193</ele>
        <time>2017-10-01T08:53:04.000Z</time>
      </trkpt>
      <trkpt lat="44.99454" lon="1.04333">
        <ele>193</ele>
        <time>2017-10-01T08:53:05.000Z</time>
      </trkpt>
      <trkpt lat="44.99454" lon="1.0433">
        <ele>193</ele>
        <time>2017-10-01T08:53:06.000Z</time>
      </trkpt>
      <trkpt lat="44.99454" lon="1.04328">
        <ele>193</ele>
        <time>2017-10-01T08:53:07.000Z</time>
      </trkpt>
      <trkpt lat="44.99454" lon="1.04325">
        <ele>193</ele>
        <time>2017-10-01T08:53:08.000Z</time>
      </trkpt>
      <trkpt lat="44.99454" lon="1.04323">
        <ele>193</ele>
        <time>2017-10-01T08:53:09.000Z</time>
      </trkpt>
      <trkpt lat="44.99454" lon="1.0432">
        <ele>194</ele>
        <time>2017-10-01T08:53:10.000Z</time>
      </trkpt>
      <trkpt lat="44.99454" lon="1.04317">
        <ele>194</ele>
        <time>2017-10-01T08:53:11.000Z</time>
      </trkpt>
      <trkpt lat="44.99454" lon="1.04315">
        <ele>194</ele>
        <time>2017-10-01T08:53:12.000Z</time>
      </trkpt>
      <trkpt lat="44.99454" lon="1.04312">
        <ele>194</ele>
        <time>2017-10-01T08:53:13.000Z</time>
      </trkpt>
      <trkpt lat="44.99453" lon="1.04309">
        <ele>194</ele>
        <time>2017-10-01T08:53:14.000Z</time>
      </trkpt>
      <trkpt lat="44.99453" lon="1.04307">
        <ele>194</ele>
        <time>2017-10-01T08:53:15.000Z</time>
      </trkpt>
      <trkpt lat="44.99453" lon="1.04305">
        <ele>194</ele>
        <time>2017-10-01T08:53:16.000Z</time>
      </trkpt>
      <trkpt lat="44.99453" lon="1.04303">
        <ele>195</ele>
        <time>2017-10-01T08:53:17.000Z</time>
      </trkpt>
      <trkpt lat="44.99453" lon="1.04302">
        <ele>195</ele>
        <time>2017-10-01T08:53:18.000Z</time>
      </trkpt>
      <trkpt lat="44.99453" lon="1.043">
        <ele>195</ele>
        <time>2017-10-01T08:53:19.000Z</time>
      </trkpt>
      <trkpt lat="44.99453" lon="1.04298">
        <ele>195</ele>
        <time>2017-10-01T08:53:20.000Z</time>
      </trkpt>
      <trkpt lat="44.99454" lon="1.04296">
        <ele>195</ele>
        <time>2017-10-01T08:53:21.000Z</time>
      </trkpt>
      <trkpt lat="44.99454" lon="1.04294">
        <ele>195</ele>
        <time>2017-10-01T08:53:22.000Z</time>
      </trkpt>
      <trkpt lat="44.99454" lon="1.04292">
        <ele>195</ele>
        <time>2017-10-01T08:53:23.000Z</time>
      </trkpt>
      <trkpt lat="44.99454" lon="1.04289">
        <ele>195</ele>
        <time>2017-10-01T08:53:24.000Z</time>
      </trkpt>
      <trkpt lat="44.99455" lon="1.04287">
        <ele>195</ele>
        <time>2017-10-01T08:53:25.000Z</time>
      </trkpt>
      <trkpt lat="44.99455" lon="1.04284">
        <ele>195</ele>
        <time>2017-10-01T08:53:26.000Z</time>
      </trkpt>
      <trkpt lat="44.99455" lon="1.04281">
        <ele>196</ele>
        <time>2017-10-01T08:53:27.000Z</time>
      </trkpt>
      <trkpt lat="44.99456" lon="1.04278">
        <ele>196</ele>
        <time>2017-10-01T08:53:28.000Z</time>
      </trkpt>
      <trkpt lat="44.99456" lon="1.04275">
        <ele>196</ele>
        <time>2017-10-01T08:53:29.000Z</time>
      </trkpt>
      <trkpt lat="44.99457" lon="1.04273">
        <ele>196</ele>
        <time>2017-10-01T08:53:30.000Z</time>
      </trkpt>
      <trkpt lat="44.99458" lon="1.0427">
        <ele>196</ele>
        <time>2017-10-01T08:53:31.000Z</time>
      </trkpt>
      <trkpt lat="44.99458" lon="1.04267">
        <ele>196</ele>
        <time>2017-10-01T08:53:32.000Z</time>
      </trkpt>
      <trkpt lat="44.99459" lon="1.04264">
        <ele>196</ele>
        <time>2017-10-01T08:53:33.000Z</time>
      </trkpt>
      <trkpt lat="44.9946" lon="1.04261">
        <ele>196</ele>
        <time>2017-10-01T08:53:34.000Z</time>
      </trkpt>
      <trkpt lat="44.9946" lon="1.04258">
        <ele>197</ele>
        <time>2017-10-01T08:53:35.000Z</time>
      </trkpt>
      <trkpt lat="44.99461" lon="1.04255">
        <ele>197</ele>
        <time>2017-10-01T08:53:36.000Z</time>
      </trkpt>
      <trkpt lat="44.99462" lon="1.04252">
        <ele>197</ele>
        <time>2017-10-01T08:53:37.000Z</time>
      </trkpt>
      <trkpt lat="44.99462" lon="1.0425">
        <ele>197</ele>
        <time>2017-10-01T08:53:38.000Z</time>
      </trkpt>
      <trkpt lat="44.99463" lon="1.04247">
        <ele>197</ele>
        <time>2017-10-01T08:53:39.000Z</time>
      </trkpt>
      <trkpt lat="44.99463" lon="1.04244">
        <ele>198</ele>
        <time>2017-10-01T08:53:40.000Z</time>
      </trkpt>
      <trkpt lat="44.99464" lon="1.04241">
        <ele>198</ele>
        <time>2017-10-01T08:53:41.000Z</time>
      </trkpt>
      <trkpt lat="44.99464" lon="1.04239">
        <ele>198</ele>
        <time>2017-10-01T08:53:42.000Z</time>
      </trkpt>
      <trkpt lat="44.99465" lon="1.04236">
        <ele>198</ele>
        <time>2017-10-01T08:53:43.000Z</time>
      </trkpt>
      <trkpt lat="44.99465" lon="1.04233">
        <ele>198</ele>
        <time>2017-10-01T08:53:44.000Z</time>
      </trkpt>
      <trkpt lat="44.99466" lon="1.04231">
        <ele>199</ele>
        <time>2017-10-01T08:53:45.000Z</time>
      </trkpt>
      <trkpt lat="44.99467" lon="1.04228">
        <ele>199</ele>
        <time>2017-10-01T08:53:46.000Z</time>
      </trkpt>
      <trkpt lat="44.99467" lon="1.04225">
        <ele>199</ele>
        <time>2017-10-01T08:53:47.000Z</time>
      </trkpt>
      <trkpt lat="44.99468" lon="1.04223">
        <ele>199</ele>
        <time>2017-10-01T08:53:48.000Z</time>
      </trkpt>
      <trkpt lat="44.99468" lon="1.0422">
        <ele>200</ele>
        <time>2017-10-01T08:53:49.000Z</time>
      </trkpt>
      <trkpt lat="44.99468" lon="1.04218">
        <ele>200</ele>
        <time>2017-10-01T08:53:50.000Z</time>
      </trkpt>
      <trkpt lat="44.99468" lon="1.04215">
        <ele>200</ele>
        <time>2017-10-01T08:53:51.000Z</time>
      </trkpt>
      <trkpt lat="44.99468" lon="1.04213">
        <ele>200</ele>
        <time>2017-10-01T08:53:52.000Z</time>
      </trkpt>
      <trkpt lat="44.99468" lon="1.0421">
        <ele>200</ele>
        <time>2017-10-01T08:53:53.000Z</time>
      </trkpt>
      <trkpt lat="44.99468" lon="1.04209">
        <ele>201</ele>
        <time>2017-10-01T08:53:54.000Z</time>
      </trkpt>
      <trkpt lat="44.99469" lon="1.04207">
        <ele>201</ele>
        <time>2017-10-01T08:53:55.000Z</time>
      </trkpt>
      <trkpt lat="44.99469" lon="1.04203">
        <ele>201</ele>
        <time>2017-10-01T08:53:56.000Z</time>
      </trkpt>
      <trkpt lat="44.99469" lon="1.04199">
        <ele>201</ele>
        <time>2017-10-01T08:53:57.000Z</time>
      </trkpt>
      <trkpt lat="44.99469" lon="1.04196">
        <ele>202</ele>
        <time>2017-10-01T08:53:58.000Z</time>
      </trkpt>
      <trkpt lat="44.99469" lon="1.04193">
        <ele>202</ele>
        <time>2017-10-01T08:53:59.000Z</time>
      </trkpt>
      <trkpt lat="44.99469" lon="1.0419">
        <ele>202</ele>
        <time>2017-10-01T08:54:00.000Z</time>
      </trkpt>
      <trkpt lat="44.9947" lon="1.04187">
        <ele>203</ele>
        <time>2017-10-01T08:54:01.000Z</time>
      </trkpt>
      <trkpt lat="44.9947" lon="1.04184">
        <ele>203</ele>
        <time>2017-10-01T08:54:02.000Z</time>
      </trkpt>
      <trkpt lat="44.99471" lon="1.04182">
        <ele>203</ele>
        <time>2017-10-01T08:54:03.000Z</time>
      </trkpt>
      <trkpt lat="44.99471" lon="1.04179">
        <ele>203</ele>
        <time>2017-10-01T08:54:04.000Z</time>
      </trkpt>
      <trkpt lat="44.99472" lon="1.04176">
        <ele>204</ele>
        <time>2017-10-01T08:54:05.000Z</time>
      </trkpt>
      <trkpt lat="44.99473" lon="1.04173">
        <ele>204</ele>
        <time>2017-10-01T08:54:06.000Z</time>
      </trkpt>
      <trkpt lat="44.99474" lon="1.0417">
        <ele>204</ele>
        <time>2017-10-01T08:54:07.000Z</time>
      </trkpt>
      <trkpt lat="44.99474" lon="1.04167">
        <ele>205</ele>
        <time>2017-10-01T08:54:08.000Z</time>
      </trkpt>
      <trkpt lat="44.99475" lon="1.04164">
        <ele>205</ele>
        <time>2017-10-01T08:54:09.000Z</time>
      </trkpt>
      <trkpt lat="44.99476" lon="1.04162">
        <ele>205</ele>
        <time>2017-10-01T08:54:10.000Z</time>
      </trkpt>
      <trkpt lat="44.99476" lon="1.04159">
        <ele>205</ele>
        <time>2017-10-01T08:54:11.000Z</time>
      </trkpt>
      <trkpt lat="44.99477" lon="1.04157">
        <ele>205</ele>
        <time>2017-10-01T08:54:12.000Z</time>
      </trkpt>
      <trkpt lat="44.99478" lon="1.04155">
        <ele>205</ele>
        <time>2017-10-01T08:54:13.000Z</time>
      </trkpt>
      <trkpt lat="44.99478" lon="1.04153">
        <ele>205</ele>
        <time>2017-10-01T08:54:14.000Z</time>
      </trkpt>
      <trkpt lat="44.99479" lon="1.04151">
        <ele>205</ele>
        <time>2017-10-01T08:54:15.000Z</time>
      </trkpt>
      <trkpt lat="44.99479" lon="1.04149">
        <ele>206</ele>
        <time>2017-10-01T08:54:16.000Z</time>
      </trkpt>
      <trkpt lat="44.9948" lon="1.04147">
        <ele>206</ele>
        <time>2017-10-01T08:54:17.000Z</time>
      </trkpt>
      <trkpt lat="44.9948" lon="1.04144">
        <ele>206</ele>
        <time>2017-10-01T08:54:18.000Z</time>
      </trkpt>
      <trkpt lat="44.9948" lon="1.04142">
        <ele>206</ele>
        <time>2017-10-01T08:54:19.000Z</time>
      </trkpt>
      <trkpt lat="44.99481" lon="1.0414">
        <ele>206</ele>
        <time>2017-10-01T08:54:20.000Z</time>
      </trkpt>
      <trkpt lat="44.99481" lon="1.04137">
        <ele>206</ele>
        <time>2017-10-01T08:54:21.000Z</time>
      </trkpt>
      <trkpt lat="44.99482" lon="1.04135">
        <ele>206</ele>
        <time>2017-10-01T08:54:22.000Z</time>
      </trkpt>
      <trkpt lat="44.99482" lon="1.04133">
        <ele>207</ele>
        <time>2017-10-01T08:54:23.000Z</time>
      </trkpt>
      <trkpt lat="44.99483" lon="1.0413">
        <ele>207</ele>
        <time>2017-10-01T08:54:24.000Z</time>
      </trkpt>
      <trkpt lat="44.99483" lon="1.04128">
        <ele>207</ele>
        <time>2017-10-01T08:54:25.000Z</time>
      </trkpt>
      <trkpt lat="44.99484" lon="1.04126">
        <ele>207</ele>
        <time>2017-10-01T08:54:26.000Z</time>
      </trkpt>
      <trkpt lat="44.99485" lon="1.04123">
        <ele>207</ele>
        <time>2017-10-01T08:54:27.000Z</time>
      </trkpt>
      <trkpt lat="44.99486" lon="1.04121">
        <ele>207</ele>
        <time>2017-10-01T08:54:28.000Z</time>
      </trkpt>
      <trkpt lat="44.99486" lon="1.04119">
        <ele>208</ele>
        <time>2017-10-01T08:54:29.000Z</time>
      </trkpt>
      <trkpt lat="44.99487" lon="1.04117">
        <ele>208</ele>
        <time>2017-10-01T08:54:30.000Z</time>
      </trkpt>
      <trkpt lat="44.99488" lon="1.04114">
        <ele>208</ele>
        <time>2017-10-01T08:54:31.000Z</time>
      </trkpt>
      <trkpt lat="44.99489" lon="1.04112">
        <ele>208</ele>
        <time>2017-10-01T08:54:32.000Z</time>
      </trkpt>
      <trkpt lat="44.9949" lon="1.0411">
        <ele>209</ele>
        <time>2017-10-01T08:54:33.000Z</time>
      </trkpt>
      <trkpt lat="44.99492" lon="1.04108">
        <ele>209</ele>
        <time>2017-10-01T08:54:34.000Z</time>
      </trkpt>
      <trkpt lat="44.99493" lon="1.04106">
        <ele>209</ele>
        <time>2017-10-01T08:54:35.000Z</time>
      </trkpt>
      <trkpt lat="44.99494" lon="1.04104">
        <ele>209</ele>
        <time>2017-10-01T08:54:36.000Z</time>
      </trkpt>
      <trkpt lat="44.99495" lon="1.04101">
        <ele>210</ele>
        <time>2017-10-01T08:54:37.000Z</time>
      </trkpt>
      <trkpt lat="44.99496" lon="1.04099">
        <ele>210</ele>
        <time>2017-10-01T08:54:38.000Z</time>
      </trkpt>
      <trkpt lat="44.99498" lon="1.04097">
        <ele>210</ele>
        <time>2017-10-01T08:54:39.000Z</time>
      </trkpt>
      <trkpt lat="44.99499" lon="1.04095">
        <ele>211</ele>
        <time>2017-10-01T08:54:40.000Z</time>
      </trkpt>
      <trkpt lat="44.995" lon="1.04092">
        <ele>211</ele>
        <time>2017-10-01T08:54:41.000Z</time>
      </trkpt>
      <trkpt lat="44.99502" lon="1.0409">
        <ele>211</ele>
        <time>2017-10-01T08:54:42.000Z</time>
      </trkpt>
      <trkpt lat="44.99503" lon="1.04087">
        <ele>211</ele>
        <time>2017-10-01T08:54:43.000Z</time>
      </trkpt>
      <trkpt lat="44.99504" lon="1.04085">
        <ele>211</ele>
        <time>2017-10-01T08:54:44.000Z</time>
      </trkpt>
      <trkpt lat="44.99506" lon="1.04082">
        <ele>212</ele>
        <time>2017-10-01T08:54:45.000Z</time>
      </trkpt>
      <trkpt lat="44.99507" lon="1.04079">
        <ele>211</ele>
        <time>2017-10-01T08:54:46.000Z</time>
      </trkpt>
      <trkpt lat="44.99508" lon="1.04077">
        <ele>211</ele>
        <time>2017-10-01T08:54:47.000Z</time>
      </trkpt>
      <trkpt lat="44.9951" lon="1.04074">
        <ele>211</ele>
        <time>2017-10-01T08:54:48.000Z</time>
      </trkpt>
      <trkpt lat="44.99511" lon="1.04072">
        <ele>211</ele>
        <time>2017-10-01T08:54:49.000Z</time>
      </trkpt>
      <trkpt lat="44.99513" lon="1.04069">
        <ele>211</ele>
        <time>2017-10-01T08:54:50.000Z</time>
      </trkpt>
      <trkpt lat="44.99514" lon="1.04067">
        <ele>211</ele>
        <time>2017-10-01T08:54:51.000Z</time>
      </trkpt>
      <trkpt lat="44.99516" lon="1.04064">
        <ele>211</ele>
        <time>2017-10-01T08:54:52.000Z</time>
      </trkpt>
      <trkpt lat="44.99518" lon="1.04062">
        <ele>211</ele>
        <time>2017-10-01T08:54:53.000Z</time>
      </trkpt>
      <trkpt lat="44.99519" lon="1.04059">
        <ele>211</ele>
        <time>2017-10-01T08:54:54.000Z</time>
      </trkpt>
      <trkpt lat="44.99521" lon="1.04057">
        <ele>211</ele>
        <time>2017-10-01T08:54:55.000Z</time>
      </trkpt>
      <trkpt lat="44.99523" lon="1.04055">
        <ele>211</ele>
        <time>2017-10-01T08:54:56.000Z</time>
      </trkpt>
      <trkpt lat="44.99525" lon="1.04052">
        <ele>211</ele>
        <time>2017-10-01T08:54:57.000Z</time>
      </trkpt>
      <trkpt lat="44.99527" lon="1.0405">
        <ele>211</ele>
        <time>2017-10-01T08:54:58.000Z</time>
      </trkpt>
      <trkpt lat="44.99528" lon="1.04047">
        <ele>211</ele>
        <time>2017-10-01T08:54:59.000Z</time>
      </trkpt>
      <trkpt lat="44.9953" lon="1.04045">
        <ele>211</ele>
        <time>2017-10-01T08:55:00.000Z</time>
      </trkpt>
      <trkpt lat="44.99532" lon="1.04042">
        <ele>211</ele>
        <time>2017-10-01T08:55:01.000Z</time>
      </trkpt>
      <trkpt lat="44.99534" lon="1.0404">
        <ele>211</ele>
        <time>2017-10-01T08:55:02.000Z</time>
      </trkpt>
      <trkpt lat="44.99536" lon="1.04037">
        <ele>211</ele>
        <time>2017-10-01T08:55:03.000Z</time>
      </trkpt>
      <trkpt lat="44.99538" lon="1.04034">
        <ele>211</ele>
        <time>2017-10-01T08:55:04.000Z</time>
      </trkpt>
      <trkpt lat="44.9954" lon="1.04031">
        <ele>211</ele>
        <time>2017-10-01T08:55:05.000Z</time>
      </trkpt>
      <trkpt lat="44.99541" lon="1.04028">
        <ele>212</ele>
        <time>2017-10-01T08:55:06.000Z</time>
      </trkpt>
      <trkpt lat="44.99543" lon="1.04025">
        <ele>212</ele>
        <time>2017-10-01T08:55:07.000Z</time>
      </trkpt>
      <trkpt lat="44.99545" lon="1.04022">
        <ele>212</ele>
        <time>2017-10-01T08:55:08.000Z</time>
      </trkpt>
      <trkpt lat="44.99547" lon="1.04019">
        <ele>212</ele>
        <time>2017-10-01T08:55:09.000Z</time>
      </trkpt>
      <trkpt lat="44.99549" lon="1.04015">
        <ele>212</ele>
        <time>2017-10-01T08:55:10.000Z</time>
      </trkpt>
      <trkpt lat="44.9955" lon="1.04012">
        <ele>212</ele>
        <time>2017-10-01T08:55:11.000Z</time>
      </trkpt>
      <trkpt lat="44.99552" lon="1.04008">
        <ele>212</ele>
        <time>2017-10-01T08:55:12.000Z</time>
      </trkpt>
      <trkpt lat="44.99553" lon="1.04005">
        <ele>212</ele>
        <time>2017-10-01T08:55:13.000Z</time>
      </trkpt>
      <trkpt lat="44.99555" lon="1.04002">
        <ele>212</ele>
        <time>2017-10-01T08:55:14.000Z</time>
      </trkpt>
      <trkpt lat="44.99556" lon="1.03999">
        <ele>213</ele>
        <time>2017-10-01T08:55:15.000Z</time>
      </trkpt>
      <trkpt lat="44.99557" lon="1.03996">
        <ele>213</ele>
        <time>2017-10-01T08:55:16.000Z</time>
      </trkpt>
      <trkpt lat="44.99559" lon="1.03993">
        <ele>213</ele>
        <time>2017-10-01T08:55:17.000Z</time>
      </trkpt>
      <trkpt lat="44.9956" lon="1.0399">
        <ele>213</ele>
        <time>2017-10-01T08:55:18.000Z</time>
      </trkpt>
      <trkpt lat="44.99561" lon="1.03987">
        <ele>213</ele>
        <time>2017-10-01T08:55:19.000Z</time>
      </trkpt>
      <trkpt lat="44.99563" lon="1.03985">
        <ele>213</ele>
        <time>2017-10-01T08:55:20.000Z</time>
      </trkpt>
      <trkpt lat="44.99565" lon="1.03982">
        <ele>213</ele>
        <time>2017-10-01T08:55:21.000Z</time>
      </trkpt>
      <trkpt lat="44.99566" lon="1.03979">
        <ele>213</ele>
        <time>2017-10-01T08:55:22.000Z</time>
      </trkpt>
      <trkpt lat="44.99568" lon="1.03976">
        <ele>213</ele>
        <time>2017-10-01T08:55:23.000Z</time>
      </trkpt>
      <trkpt lat="44.99571" lon="1.03973">
        <ele>214</ele>
        <time>2017-10-01T08:55:24.000Z</time>
      </trkpt>
      <trkpt lat="44.99573" lon="1.0397">
        <ele>214</ele>
        <time>2017-10-01T08:55:25.000Z</time>
      </trkpt>
      <trkpt lat="44.99575" lon="1.03968">
        <ele>214</ele>
        <time>2017-10-01T08:55:26.000Z</time>
      </trkpt>
      <trkpt lat="44.99578" lon="1.03965">
        <ele>214</ele>
        <time>2017-10-01T08:55:27.000Z</time>
      </trkpt>
      <trkpt lat="44.9958" lon="1.03962">
        <ele>215</ele>
        <time>2017-10-01T08:55:28.000Z</time>
      </trkpt>
      <trkpt lat="44.99582" lon="1.0396">
        <ele>215</ele>
        <time>2017-10-01T08:55:29.000Z</time>
      </trkpt>
      <trkpt lat="44.99585" lon="1.03958">
        <ele>215</ele>
        <time>2017-10-01T08:55:30.000Z</time>
      </trkpt>
      <trkpt lat="44.99587" lon="1.03956">
        <ele>215</ele>
        <time>2017-10-01T08:55:31.000Z</time>
      </trkpt>
      <trkpt lat="44.99589" lon="1.03954">
        <ele>215</ele>
        <time>2017-10-01T08:55:32.000Z</time>
      </trkpt>
      <trkpt lat="44.99591" lon="1.03952">
        <ele>215</ele>
        <time>2017-10-01T08:55:33.000Z</time>
      </trkpt>
      <trkpt lat="44.99593" lon="1.0395">
        <ele>215</ele>
        <time>2017-10-01T08:55:34.000Z</time>
      </trkpt>
      <trkpt lat="44.99595" lon="1.03949">
        <ele>215</ele>
        <time>2017-10-01T08:55:35.000Z</time>
      </trkpt>
      <trkpt lat="44.99597" lon="1.03947">
        <ele>215</ele>
        <time>2017-10-01T08:55:36.000Z</time>
      </trkpt>
      <trkpt lat="44.99599" lon="1.03945">
        <ele>215</ele>
        <time>2017-10-01T08:55:37.000Z</time>
      </trkpt>
      <trkpt lat="44.996" lon="1.03943">
        <ele>215</ele>
        <time>2017-10-01T08:55:38.000Z</time>
      </trkpt>
      <trkpt lat="44.99602" lon="1.0394">
        <ele>216</ele>
        <time>2017-10-01T08:55:39.000Z</time>
      </trkpt>
      <trkpt lat="44.99604" lon="1.03937">
        <ele>216</ele>
        <time>2017-10-01T08:55:40.000Z</time>
      </trkpt>
      <trkpt lat="44.99607" lon="1.03934">
        <ele>216</ele>
        <time>2017-10-01T08:55:41.000Z</time>
      </trkpt>
      <trkpt lat="44.99609" lon="1.03931">
        <ele>216</ele>
        <time>2017-10-01T08:55:42.000Z</time>
      </trkpt>
      <trkpt lat="44.99611" lon="1.03927">
        <ele>216</ele>
        <time>2017-10-01T08:55:43.000Z</time>
      </trkpt>
      <trkpt lat="44.99614" lon="1.03924">
        <ele>216</ele>
        <time>2017-10-01T08:55:44.000Z</time>
      </trkpt>
      <trkpt lat="44.99616" lon="1.03921">
        <ele>217</ele>
        <time>2017-10-01T08:55:45.000Z</time>
      </trkpt>
      <trkpt lat="44.99618" lon="1.03919">
        <ele>217</ele>
        <time>2017-10-01T08:55:46.000Z</time>
      </trkpt>
      <trkpt lat="44.9962" lon="1.03917">
        <ele>217</ele>
        <time>2017-10-01T08:55:47.000Z</time>
      </trkpt>
      <trkpt lat="44.99622" lon="1.03914">
        <ele>217</ele>
        <time>2017-10-01T08:55:48.000Z</time>
      </trkpt>
      <trkpt lat="44.99624" lon="1.03912">
        <ele>217</ele>
        <time>2017-10-01T08:55:49.000Z</time>
      </trkpt>
      <trkpt lat="44.99626" lon="1.0391">
        <ele>217</ele>
        <time>2017-10-01T08:55:50.000Z</time>
      </trkpt>
      <trkpt lat="44.99628" lon="1.03908">
        <ele>217</ele>
        <time>2017-10-01T08:55:51.000Z</time>
      </trkpt>
      <trkpt lat="44.9963" lon="1.03905">
        <ele>217</ele>
        <time>2017-10-01T08:55:52.000Z</time>
      </trkpt>
      <trkpt lat="44.99632" lon="1.03902">
        <ele>217</ele>
        <time>2017-10-01T08:55:53.000Z</time>
      </trkpt>
      <trkpt lat="44.99634" lon="1.03898">
        <ele>217</ele>
        <time>2017-10-01T08:55:54.000Z</time>
      </trkpt>
      <trkpt lat="44.99637" lon="1.03895">
        <ele>217</ele>
        <time>2017-10-01T08:55:55.000Z</time>
      </trkpt>
      <trkpt lat="44.99639" lon="1.03891">
        <ele>217</ele>
        <time>2017-10-01T08:55:56.000Z</time>
      </trkpt>
      <trkpt lat="44.99641" lon="1.03888">
        <ele>217</ele>
        <time>2017-10-01T08:55:57.000Z</time>
      </trkpt>
      <trkpt lat="44.99643" lon="1.03885">
        <ele>217</ele>
        <time>2017-10-01T08:55:58.000Z</time>
      </trkpt>
      <trkpt lat="44.99645" lon="1.03882">
        <ele>217</ele>
        <time>2017-10-01T08:55:59.000Z</time>
      </trkpt>
      <trkpt lat="44.99647" lon="1.03879">
        <ele>218</ele>
        <time>2017-10-01T08:56:00.000Z</time>
      </trkpt>
      <trkpt lat="44.99648" lon="1.03876">
        <ele>218</ele>
        <time>2017-10-01T08:56:01.000Z</time>
      </trkpt>
      <trkpt lat="44.9965" lon="1.03873">
        <ele>218</ele>
        <time>2017-10-01T08:56:02.000Z</time>
      </trkpt>
      <trkpt lat="44.99652" lon="1.03871">
        <ele>218</ele>
        <time>2017-10-01T08:56:03.000Z</time>
      </trkpt>
      <trkpt lat="44.99653" lon="1.03867">
        <ele>218</ele>
        <time>2017-10-01T08:56:04.000Z</time>
      </trkpt>
      <trkpt lat="44.99655" lon="1.03864">
        <ele>218</ele>
        <time>2017-10-01T08:56:05.000Z</time>
      </trkpt>
      <trkpt lat="44.99657" lon="1.03861">
        <ele>218</ele>
        <time>2017-10-01T08:56:06.000Z</time>
      </trkpt>
      <trkpt lat="44.99659" lon="1.03857">
        <ele>219</ele>
        <time>2017-10-01T08:56:07.000Z</time>
      </trkpt>
      <trkpt lat="44.99661" lon="1.03853">
        <ele>219</ele>
        <time>2017-10-01T08:56:08.000Z</time>
      </trkpt>
      <trkpt lat="44.99663" lon="1.03849">
        <ele>219</ele>
        <time>2017-10-01T08:56:09.000Z</time>
      </trkpt>
      <trkpt lat="44.99665" lon="1.03845">
        <ele>219</ele>
        <time>2017-10-01T08:56:10.000Z</time>
      </trkpt>
      <trkpt lat="44.99668" lon="1.03841">
        <ele>219</ele>
        <time>2017-10-01T08:56:11.000Z</time>
      </trkpt>
      <trkpt lat="44.9967" lon="1.03837">
        <ele>219</ele>
        <time>2017-10-01T08:56:12.000Z</time>
      </trkpt>
      <trkpt lat="44.99673" lon="1.03833">
        <ele>219</ele>
        <time>2017-10-01T08:56:13.000Z</time>
      </trkpt>
      <trkpt lat="44.99675" lon="1.03828">
        <ele>219</ele>
        <time>2017-10-01T08:56:14.000Z</time>
      </trkpt>
      <trkpt lat="44.99678" lon="1.03824">
        <ele>218</ele>
        <time>2017-10-01T08:56:15.000Z</time>
      </trkpt>
      <trkpt lat="44.99681" lon="1.0382">
        <ele>218</ele>
        <time>2017-10-01T08:56:16.000Z</time>
      </trkpt>
      <trkpt lat="44.99684" lon="1.03815">
        <ele>218</ele>
        <time>2017-10-01T08:56:17.000Z</time>
      </trkpt>
      <trkpt lat="44.99686" lon="1.03811">
        <ele>217</ele>
        <time>2017-10-01T08:56:18.000Z</time>
      </trkpt>
      <trkpt lat="44.99689" lon="1.03806">
        <ele>217</ele>
        <time>2017-10-01T08:56:19.000Z</time>
      </trkpt>
      <trkpt lat="44.99691" lon="1.03802">
        <ele>216</ele>
        <time>2017-10-01T08:56:20.000Z</time>
      </trkpt>
      <trkpt lat="44.99694" lon="1.03797">
        <ele>216</ele>
        <time>2017-10-01T08:56:21.000Z</time>
      </trkpt>
      <trkpt lat="44.99696" lon="1.03792">
        <ele>216</ele>
        <time>2017-10-01T08:56:22.000Z</time>
      </trkpt>
      <trkpt lat="44.99697" lon="1.03788">
        <ele>215</ele>
        <time>2017-10-01T08:56:23.000Z</time>
      </trkpt>
      <trkpt lat="44.99699" lon="1.03783">
        <ele>215</ele>
        <time>2017-10-01T08:56:24.000Z</time>
      </trkpt>
      <trkpt lat="44.99701" lon="1.03778">
        <ele>215</ele>
        <time>2017-10-01T08:56:25.000Z</time>
      </trkpt>
      <trkpt lat="44.99702" lon="1.03773">
        <ele>215</ele>
        <time>2017-10-01T08:56:26.000Z</time>
      </trkpt>
      <trkpt lat="44.99704" lon="1.03769">
        <ele>214</ele>
        <time>2017-10-01T08:56:27.000Z</time>
      </trkpt>
      <trkpt lat="44.99706" lon="1.03764">
        <ele>214</ele>
        <time>2017-10-01T08:56:28.000Z</time>
      </trkpt>
      <trkpt lat="44.99708" lon="1.0376">
        <ele>214</ele>
        <time>2017-10-01T08:56:29.000Z</time>
      </trkpt>
      <trkpt lat="44.99711" lon="1.03755">
        <ele>214</ele>
        <time>2017-10-01T08:56:30.000Z</time>
      </trkpt>
      <trkpt lat="44.99714" lon="1.0375">
        <ele>214</ele>
        <time>2017-10-01T08:56:31.000Z</time>
      </trkpt>
      <trkpt lat="44.99716" lon="1.03746">
        <ele>214</ele>
        <time>2017-10-01T08:56:32.000Z</time>
      </trkpt>
      <trkpt lat="44.99719" lon="1.03741">
        <ele>214</ele>
        <time>2017-10-01T08:56:33.000Z</time>
      </trkpt>
      <trkpt lat="44.99722" lon="1.03735">
        <ele>213</ele>
        <time>2017-10-01T08:56:34.000Z</time>
      </trkpt>
      <trkpt lat="44.99725" lon="1.0373">
        <ele>213</ele>
        <time>2017-10-01T08:56:35.000Z</time>
      </trkpt>
      <trkpt lat="44.99728" lon="1.03724">
        <ele>213</ele>
        <time>2017-10-01T08:56:36.000Z</time>
      </trkpt>
      <trkpt lat="44.99731" lon="1.03718">
        <ele>213</ele>
        <time>2017-10-01T08:56:37.000Z</time>
      </trkpt>
      <trkpt lat="44.99733" lon="1.03711">
        <ele>212</ele>
        <time>2017-10-01T08:56:38.000Z</time>
      </trkpt>
      <trkpt lat="44.99735" lon="1.03704">
        <ele>212</ele>
        <time>2017-10-01T08:56:39.000Z</time>
      </trkpt>
      <trkpt lat="44.99737" lon="1.03697">
        <ele>212</ele>
        <time>2017-10-01T08:56:40.000Z</time>
      </trkpt>
      <trkpt lat="44.99738" lon="1.0369">
        <ele>211</ele>
        <time>2017-10-01T08:56:41.000Z</time>
      </trkpt>
      <trkpt lat="44.99739" lon="1.03683">
        <ele>211</ele>
        <time>2017-10-01T08:56:42.000Z</time>
      </trkpt>
      <trkpt lat="44.99741" lon="1.03675">
        <ele>211</ele>
        <time>2017-10-01T08:56:43.000Z</time>
      </trkpt>
      <trkpt lat="44.99742" lon="1.03668">
        <ele>210</ele>
        <time>2017-10-01T08:56:44.000Z</time>
      </trkpt>
      <trkpt lat="44.99744" lon="1.03661">
        <ele>210</ele>
        <time>2017-10-01T08:56:45.000Z</time>
      </trkpt>
      <trkpt lat="44.99746" lon="1.03654">
        <ele>210</ele>
        <time>2017-10-01T08:56:46.000Z</time>
      </trkpt>
      <trkpt lat="44.99748" lon="1.03647">
        <ele>210</ele>
        <time>2017-10-01T08:56:47.000Z</time>
      </trkpt>
      <trkpt lat="44.99751" lon="1.0364">
        <ele>210</ele>
        <time>2017-10-01T08:56:48.000Z</time>
      </trkpt>
      <trkpt lat="44.99754" lon="1.03634">
        <ele>210</ele>
        <time>2017-10-01T08:56:49.000Z</time>
      </trkpt>
      <trkpt lat="44.99757" lon="1.03628">
        <ele>210</ele>
        <time>2017-10-01T08:56:50.000Z</time>
      </trkpt>
      <trkpt lat="44.9976" lon="1.03622">
        <ele>210</ele>
        <time>2017-10-01T08:56:51.000Z</time>
      </trkpt>
      <trkpt lat="44.99764" lon="1.03616">
        <ele>210</ele>
        <time>2017-10-01T08:56:52.000Z</time>
      </trkpt>
      <trkpt lat="44.99767" lon="1.0361">
        <ele>209</ele>
        <time>2017-10-01T08:56:53.000Z</time>
      </trkpt>
      <trkpt lat="44.9977" lon="1.03604">
        <ele>209</ele>
        <time>2017-10-01T08:56:54.000Z</time>
      </trkpt>
      <trkpt lat="44.99771" lon="1.03598">
        <ele>209</ele>
        <time>2017-10-01T08:56:55.000Z</time>
      </trkpt>
      <trkpt lat="44.99773" lon="1.03591">
        <ele>209</ele>
        <time>2017-10-01T08:56:56.000Z</time>
      </trkpt>
      <trkpt lat="44.99774" lon="1.03583">
        <ele>209</ele>
        <time>2017-10-01T08:56:57.000Z</time>
      </trkpt>
      <trkpt lat="44.99775" lon="1.03575">
        <ele>209</ele>
        <time>2017-10-01T08:56:58.000Z</time>
      </trkpt>
      <trkpt lat="44.99776" lon="1.03567">
        <ele>209</ele>
        <time>2017-10-01T08:56:59.000Z</time>
      </trkpt>
      <trkpt lat="44.99777" lon="1.03559">
        <ele>209</ele>
        <time>2017-10-01T08:57:00.000Z</time>
      </trkpt>
      <trkpt lat="44.99777" lon="1.03552">
        <ele>209</ele>
        <time>2017-10-01T08:57:01.000Z</time>
      </trkpt>
      <trkpt lat="44.99777" lon="1.03545">
        <ele>209</ele>
        <time>2017-10-01T08:57:02.000Z</time>
      </trkpt>
      <trkpt lat="44.99777" lon="1.0354">
        <ele>209</ele>
        <time>2017-10-01T08:57:03.000Z</time>
      </trkpt>
      <trkpt lat="44.99777" lon="1.03534">
        <ele>209</ele>
        <time>2017-10-01T08:57:04.000Z</time>
      </trkpt>
      <trkpt lat="44.99777" lon="1.03529">
        <ele>209</ele>
        <time>2017-10-01T08:57:05.000Z</time>
      </trkpt>
      <trkpt lat="44.99777" lon="1.03524">
        <ele>209</ele>
        <time>2017-10-01T08:57:06.000Z</time>
      </trkpt>
      <trkpt lat="44.99777" lon="1.03519">
        <ele>209</ele>
        <time>2017-10-01T08:57:07.000Z</time>
      </trkpt>
      <trkpt lat="44.99777" lon="1.03515">
        <ele>209</ele>
        <time>2017-10-01T08:57:08.000Z</time>
      </trkpt>
      <trkpt lat="44.99777" lon="1.03511">
        <ele>209</ele>
        <time>2017-10-01T08:57:09.000Z</time>
      </trkpt>
      <trkpt lat="44.99776" lon="1.03506">
        <ele>209</ele>
        <time>2017-10-01T08:57:10.000Z</time>
      </trkpt>
      <trkpt lat="44.99776" lon="1.03502">
        <ele>209</ele>
        <time>2017-10-01T08:57:11.000Z</time>
      </trkpt>
      <trkpt lat="44.99775" lon="1.03498">
        <ele>209</ele>
        <time>2017-10-01T08:57:12.000Z</time>
      </trkpt>
      <trkpt lat="44.99773" lon="1.03494">
        <ele>209</ele>
        <time>2017-10-01T08:57:13.000Z</time>
      </trkpt>
      <trkpt lat="44.99771" lon="1.03491">
        <ele>209</ele>
        <time>2017-10-01T08:57:14.000Z</time>
      </trkpt>
      <trkpt lat="44.99769" lon="1.03487">
        <ele>209</ele>
        <time>2017-10-01T08:57:15.000Z</time>
      </trkpt>
      <trkpt lat="44.99765" lon="1.03484">
        <ele>208</ele>
        <time>2017-10-01T08:57:16.000Z</time>
      </trkpt>
      <trkpt lat="44.99762" lon="1.03481">
        <ele>208</ele>
        <time>2017-10-01T08:57:17.000Z</time>
      </trkpt>
      <trkpt lat="44.99758" lon="1.03478">
        <ele>208</ele>
        <time>2017-10-01T08:57:18.000Z</time>
      </trkpt>
      <trkpt lat="44.99754" lon="1.03474">
        <ele>208</ele>
        <time>2017-10-01T08:57:19.000Z</time>
      </trkpt>
      <trkpt lat="44.99749" lon="1.0347">
        <ele>208</ele>
        <time>2017-10-01T08:57:20.000Z</time>
      </trkpt>
      <trkpt lat="44.99745" lon="1.03464">
        <ele>207</ele>
        <time>2017-10-01T08:57:21.000Z</time>
      </trkpt>
      <trkpt lat="44.99741" lon="1.03458">
        <ele>207</ele>
        <time>2017-10-01T08:57:22.000Z</time>
      </trkpt>
      <trkpt lat="44.99737" lon="1.03451">
        <ele>206</ele>
        <time>2017-10-01T08:57:23.000Z</time>
      </trkpt>
      <trkpt lat="44.99734" lon="1.03443">
        <ele>206</ele>
        <time>2017-10-01T08:57:24.000Z</time>
      </trkpt>
      <trkpt lat="44.9973" lon="1.03434">
        <ele>205</ele>
        <time>2017-10-01T08:57:25.000Z</time>
      </trkpt>
      <trkpt lat="44.99728" lon="1.03425">
        <ele>205</ele>
        <time>2017-10-01T08:57:26.000Z</time>
      </trkpt>
      <trkpt lat="44.99726" lon="1.03416">
        <ele>204</ele>
        <time>2017-10-01T08:57:27.000Z</time>
      </trkpt>
      <trkpt lat="44.99724" lon="1.03406">
        <ele>204</ele>
        <time>2017-10-01T08:57:28.000Z</time>
      </trkpt>
      <trkpt lat="44.99723" lon="1.03397">
        <ele>203</ele>
        <time>2017-10-01T08:57:29.000Z</time>
      </trkpt>
      <trkpt lat="44.99722" lon="1.03387">
        <ele>202</ele>
        <time>2017-10-01T08:57:30.000Z</time>
      </trkpt>
      <trkpt lat="44.99722" lon="1.03377">
        <ele>201</ele>
        <time>2017-10-01T08:57:31.000Z</time>
      </trkpt>
      <trkpt lat="44.99721" lon="1.03367">
        <ele>201</ele>
        <time>2017-10-01T08:57:32.000Z</time>
      </trkpt>
      <trkpt lat="44.99721" lon="1.03357">
        <ele>200</ele>
        <time>2017-10-01T08:57:33.000Z</time>
      </trkpt>
      <trkpt lat="44.99721" lon="1.03346">
        <ele>199</ele>
        <time>2017-10-01T08:57:34.000Z</time>
      </trkpt>
      <trkpt lat="44.99721" lon="1.03336">
        <ele>198</ele>
        <time>2017-10-01T08:57:35.000Z</time>
      </trkpt>
      <trkpt lat="44.99724" lon="1.03327">
        <ele>198</ele>
        <time>2017-10-01T08:57:36.000Z</time>
      </trkpt>
      <trkpt lat="44.99726" lon="1.03319">
        <ele>198</ele>
        <time>2017-10-01T08:57:37.000Z</time>
      </trkpt>
      <trkpt lat="44.99728" lon="1.03311">
        <ele>198</ele>
        <time>2017-10-01T08:57:38.000Z</time>
      </trkpt>
      <trkpt lat="44.99729" lon="1.03303">
        <ele>197</ele>
        <time>2017-10-01T08:57:39.000Z</time>
      </trkpt>
      <trkpt lat="44.99731" lon="1.03296">
        <ele>197</ele>
        <time>2017-10-01T08:57:40.000Z</time>
      </trkpt>
      <trkpt lat="44.99733" lon="1.03288">
        <ele>197</ele>
        <time>2017-10-01T08:57:41.000Z</time>
      </trkpt>
      <trkpt lat="44.99735" lon="1.03281">
        <ele>197</ele>
        <time>2017-10-01T08:57:42.000Z</time>
      </trkpt>
      <trkpt lat="44.99738" lon="1.03275">
        <ele>197</ele>
        <time>2017-10-01T08:57:43.000Z</time>
      </trkpt>
      <trkpt lat="44.9974" lon="1.03268">
        <ele>197</ele>
        <time>2017-10-01T08:57:44.000Z</time>
      </trkpt>
      <trkpt lat="44.99743" lon="1.03262">
        <ele>197</ele>
        <time>2017-10-01T08:57:45.000Z</time>
      </trkpt>
      <trkpt lat="44.99745" lon="1.03256">
        <ele>198</ele>
        <time>2017-10-01T08:57:46.000Z</time>
      </trkpt>
      <trkpt lat="44.99748" lon="1.03251">
        <ele>198</ele>
        <time>2017-10-01T08:57:47.000Z</time>
      </trkpt>
      <trkpt lat="44.99751" lon="1.03246">
        <ele>198</ele>
        <time>2017-10-01T08:57:48.000Z</time>
      </trkpt>
      <trkpt lat="44.99754" lon="1.03241">
        <ele>198</ele>
        <time>2017-10-01T08:57:49.000Z</time>
      </trkpt>
      <trkpt lat="44.99757" lon="1.03237">
        <ele>197</ele>
        <time>2017-10-01T08:57:50.000Z</time>
      </trkpt>
      <trkpt lat="44.9976" lon="1.03233">
        <ele>197</ele>
        <time>2017-10-01T08:57:51.000Z</time>
      </trkpt>
      <trkpt lat="44.99763" lon="1.03229">
        <ele>197</ele>
        <time>2017-10-01T08:57:52.000Z</time>
      </trkpt>
      <trkpt lat="44.99766" lon="1.03225">
        <ele>196</ele>
        <time>2017-10-01T08:57:53.000Z</time>
      </trkpt>
      <trkpt lat="44.99769" lon="1.03222">
        <ele>196</ele>
        <time>2017-10-01T08:57:54.000Z</time>
      </trkpt>
      <trkpt lat="44.99773" lon="1.03218">
        <ele>196</ele>
        <time>2017-10-01T08:57:55.000Z</time>
      </trkpt>
      <trkpt lat="44.99776" lon="1.03214">
        <ele>196</ele>
        <time>2017-10-01T08:57:56.000Z</time>
      </trkpt>
      <trkpt lat="44.99779" lon="1.0321">
        <ele>195</ele>
        <time>2017-10-01T08:57:57.000Z</time>
      </trkpt>
      <trkpt lat="44.99782" lon="1.03207">
        <ele>195</ele>
        <time>2017-10-01T08:57:58.000Z</time>
      </trkpt>
      <trkpt lat="44.99785" lon="1.03202">
        <ele>195</ele>
        <time>2017-10-01T08:57:59.000Z</time>
      </trkpt>
      <trkpt lat="44.99789" lon="1.03198">
        <ele>194</ele>
        <time>2017-10-01T08:58:00.000Z</time>
      </trkpt>
      <trkpt lat="44.99792" lon="1.03194">
        <ele>194</ele>
        <time>2017-10-01T08:58:01.000Z</time>
      </trkpt>
      <trkpt lat="44.99795" lon="1.0319">
        <ele>193</ele>
        <time>2017-10-01T08:58:02.000Z</time>
      </trkpt>
      <trkpt lat="44.99798" lon="1.03185">
        <ele>193</ele>
        <time>2017-10-01T08:58:03.000Z</time>
      </trkpt>
      <trkpt lat="44.99801" lon="1.03181">
        <ele>192</ele>
        <time>2017-10-01T08:58:04.000Z</time>
      </trkpt>
      <trkpt lat="44.99804" lon="1.03178">
        <ele>192</ele>
        <time>2017-10-01T08:58:05.000Z</time>
      </trkpt>
      <trkpt lat="44.99806" lon="1.03174">
        <ele>192</ele>
        <time>2017-10-01T08:58:06.000Z</time>
      </trkpt>
      <trkpt lat="44.99809" lon="1.0317">
        <ele>191</ele>
        <time>2017-10-01T08:58:07.000Z</time>
      </trkpt>
      <trkpt lat="44.99812" lon="1.03166">
        <ele>191</ele>
        <time>2017-10-01T08:58:08.000Z</time>
      </trkpt>
      <trkpt lat="44.99815" lon="1.03163">
        <ele>190</ele>
        <time>2017-10-01T08:58:09.000Z</time>
      </trkpt>
      <trkpt lat="44.99819" lon="1.03159">
        <ele>189</ele>
        <time>2017-10-01T08:58:10.000Z</time>
      </trkpt>
      <trkpt lat="44.99822" lon="1.03156">
        <ele>189</ele>
        <time>2017-10-01T08:58:11.000Z</time>
      </trkpt>
      <trkpt lat="44.99826" lon="1.03153">
        <ele>188</ele>
        <time>2017-10-01T08:58:12.000Z</time>
      </trkpt>
      <trkpt lat="44.9983" lon="1.03149">
        <ele>187</ele>
        <time>2017-10-01T08:58:13.000Z</time>
      </trkpt>
      <trkpt lat="44.99834" lon="1.03146">
        <ele>187</ele>
        <time>2017-10-01T08:58:14.000Z</time>
      </trkpt>
      <trkpt lat="44.99839" lon="1.03142">
        <ele>186</ele>
        <time>2017-10-01T08:58:15.000Z</time>
      </trkpt>
      <trkpt lat="44.99845" lon="1.03139">
        <ele>186</ele>
        <time>2017-10-01T08:58:16.000Z</time>
      </trkpt>
      <trkpt lat="44.9985" lon="1.03136">
        <ele>185</ele>
        <time>2017-10-01T08:58:17.000Z</time>
      </trkpt>
      <trkpt lat="44.99856" lon="1.03132">
        <ele>184</ele>
        <time>2017-10-01T08:58:18.000Z</time>
      </trkpt>
      <trkpt lat="44.99863" lon="1.03129">
        <ele>184</ele>
        <time>2017-10-01T08:58:19.000Z</time>
      </trkpt>
      <trkpt lat="44.99869" lon="1.03125">
        <ele>183</ele>
        <time>2017-10-01T08:58:20.000Z</time>
      </trkpt>
      <trkpt lat="44.99875" lon="1.03122">
        <ele>182</ele>
        <time>2017-10-01T08:58:21.000Z</time>
      </trkpt>
      <trkpt lat="44.99881" lon="1.03118">
        <ele>182</ele>
        <time>2017-10-01T08:58:22.000Z</time>
      </trkpt>
      <trkpt lat="44.99887" lon="1.03115">
        <ele>181</ele>
        <time>2017-10-01T08:58:23.000Z</time>
      </trkpt>
      <trkpt lat="44.99893" lon="1.03111">
        <ele>180</ele>
        <time>2017-10-01T08:58:24.000Z</time>
      </trkpt>
      <trkpt lat="44.99899" lon="1.03107">
        <ele>179</ele>
        <time>2017-10-01T08:58:25.000Z</time>
      </trkpt>
      <trkpt lat="44.99904" lon="1.03103">
        <ele>178</ele>
        <time>2017-10-01T08:58:26.000Z</time>
      </trkpt>
      <trkpt lat="44.99909" lon="1.03099">
        <ele>177</ele>
        <time>2017-10-01T08:58:27.000Z</time>
      </trkpt>
      <trkpt lat="44.99913" lon="1.03095">
        <ele>176</ele>
        <time>2017-10-01T08:58:28.000Z</time>
      </trkpt>
      <trkpt lat="44.99918" lon="1.0309">
        <ele>175</ele>
        <time>2017-10-01T08:58:29.000Z</time>
      </trkpt>
      <trkpt lat="44.99922" lon="1.03085">
        <ele>174</ele>
        <time>2017-10-01T08:58:30.000Z</time>
      </trkpt>
      <trkpt lat="44.99925" lon="1.0308">
        <ele>173</ele>
        <time>2017-10-01T08:58:31.000Z</time>
      </trkpt>
      <trkpt lat="44.99929" lon="1.03075">
        <ele>172</ele>
        <time>2017-10-01T08:58:32.000Z</time>
      </trkpt>
      <trkpt lat="44.99932" lon="1.0307">
        <ele>171</ele>
        <time>2017-10-01T08:58:33.000Z</time>
      </trkpt>
      <trkpt lat="44.99935" lon="1.03064">
        <ele>171</ele>
        <time>2017-10-01T08:58:34.000Z</time>
      </trkpt>
      <trkpt lat="44.99938" lon="1.03059">
        <ele>170</ele>
        <time>2017-10-01T08:58:35.000Z</time>
      </trkpt>
      <trkpt lat="44.99941" lon="1.03054">
        <ele>169</ele>
        <time>2017-10-01T08:58:36.000Z</time>
      </trkpt>
      <trkpt lat="44.99943" lon="1.03049">
        <ele>168</ele>
        <time>2017-10-01T08:58:37.000Z</time>
      </trkpt>
      <trkpt lat="44.99946" lon="1.03045">
        <ele>167</ele>
        <time>2017-10-01T08:58:38.000Z</time>
      </trkpt>
      <trkpt lat="44.99948" lon="1.0304">
        <ele>166</ele>
        <time>2017-10-01T08:58:39.000Z</time>
      </trkpt>
      <trkpt lat="44.99951" lon="1.03036">
        <ele>166</ele>
        <time>2017-10-01T08:58:40.000Z</time>
      </trkpt>
      <trkpt lat="44.99953" lon="1.03032">
        <ele>165</ele>
        <time>2017-10-01T08:58:41.000Z</time>
      </trkpt>
      <trkpt lat="44.99955" lon="1.03027">
        <ele>164</ele>
        <time>2017-10-01T08:58:42.000Z</time>
      </trkpt>
      <trkpt lat="44.99957" lon="1.03022">
        <ele>163</ele>
        <time>2017-10-01T08:58:43.000Z</time>
      </trkpt>
      <trkpt lat="44.99959" lon="1.03016">
        <ele>162</ele>
        <time>2017-10-01T08:58:44.000Z</time>
      </trkpt>
      <trkpt lat="44.99961" lon="1.0301">
        <ele>161</ele>
        <time>2017-10-01T08:58:45.000Z</time>
      </trkpt>
      <trkpt lat="44.99963" lon="1.03002">
        <ele>159</ele>
        <time>2017-10-01T08:58:46.000Z</time>
      </trkpt>
      <trkpt lat="44.99964" lon="1.02995">
        <ele>158</ele>
        <time>2017-10-01T08:58:47.000Z</time>
      </trkpt>
      <trkpt lat="44.99963" lon="1.02989">
        <ele>158</ele>
        <time>2017-10-01T08:58:48.000Z</time>
      </trkpt>
      <trkpt lat="44.99964" lon="1.02983">
        <ele>157</ele>
        <time>2017-10-01T08:58:49.000Z</time>
      </trkpt>
      <trkpt lat="44.99966" lon="1.02978">
        <ele>157</ele>
        <time>2017-10-01T08:58:50.000Z</time>
      </trkpt>
      <trkpt lat="44.9997" lon="1.02972">
        <ele>157</ele>
        <time>2017-10-01T08:58:51.000Z</time>
      </trkpt>
      <trkpt lat="44.99975" lon="1.02969">
        <ele>158</ele>
        <time>2017-10-01T08:58:52.000Z</time>
      </trkpt>
      <trkpt lat="44.9998" lon="1.02966">
        <ele>158</ele>
        <time>2017-10-01T08:58:53.000Z</time>
      </trkpt>
      <trkpt lat="44.99985" lon="1.02962">
        <ele>158</ele>
        <time>2017-10-01T08:58:54.000Z</time>
      </trkpt>
      <trkpt lat="44.99988" lon="1.02956">
        <ele>158</ele>
        <time>2017-10-01T08:58:55.000Z</time>
      </trkpt>
      <trkpt lat="44.99991" lon="1.02948">
        <ele>157</ele>
        <time>2017-10-01T08:58:56.000Z</time>
      </trkpt>
      <trkpt lat="44.99992" lon="1.02938">
        <ele>156</ele>
        <time>2017-10-01T08:58:57.000Z</time>
      </trkpt>
      <trkpt lat="44.99991" lon="1.02929">
        <ele>155</ele>
        <time>2017-10-01T08:58:58.000Z</time>
      </trkpt>
      <trkpt lat="44.9999" lon="1.02919">
        <ele>154</ele>
        <time>2017-10-01T08:58:59.000Z</time>
      </trkpt>
      <trkpt lat="44.99988" lon="1.02909">
        <ele>155</ele>
        <time>2017-10-01T08:59:00.000Z</time>
      </trkpt>
      <trkpt lat="44.99985" lon="1.02899">
        <ele>156</ele>
        <time>2017-10-01T08:59:01.000Z</time>
      </trkpt>
      <trkpt lat="44.99983" lon="1.0289">
        <ele>157</ele>
        <time>2017-10-01T08:59:02.000Z</time>
      </trkpt>
      <trkpt lat="44.9998" lon="1.02881">
        <ele>158</ele>
        <time>2017-10-01T08:59:03.000Z</time>
      </trkpt>
      <trkpt lat="44.99977" lon="1.02874">
        <ele>158</ele>
        <time>2017-10-01T08:59:04.000Z</time>
      </trkpt>
      <trkpt lat="44.99974" lon="1.02868">
        <ele>159</ele>
        <time>2017-10-01T08:59:05.000Z</time>
      </trkpt>
      <trkpt lat="44.99971" lon="1.02865">
        <ele>159</ele>
        <time>2017-10-01T08:59:06.000Z</time>
      </trkpt>
      <trkpt lat="44.99969" lon="1.02865">
        <ele>159</ele>
        <time>2017-10-01T08:59:07.000Z</time>
      </trkpt>
      <trkpt lat="44.99966" lon="1.02867">
        <ele>159</ele>
        <time>2017-10-01T08:59:08.000Z</time>
      </trkpt>
      <trkpt lat="44.99963" lon="1.02869">
        <ele>159</ele>
        <time>2017-10-01T08:59:09.000Z</time>
      </trkpt>
      <trkpt lat="44.99959" lon="1.02872">
        <ele>158</ele>
        <time>2017-10-01T08:59:10.000Z</time>
      </trkpt>
      <trkpt lat="44.99955" lon="1.02875">
        <ele>158</ele>
        <time>2017-10-01T08:59:11.000Z</time>
      </trkpt>
      <trkpt lat="44.99951" lon="1.02877">
        <ele>157</ele>
        <time>2017-10-01T08:59:12.000Z</time>
      </trkpt>
      <trkpt lat="44.99947" lon="1.0288">
        <ele>157</ele>
        <time>2017-10-01T08:59:13.000Z</time>
      </trkpt>
      <trkpt lat="44.99942" lon="1.02882">
        <ele>156</ele>
        <time>2017-10-01T08:59:14.000Z</time>
      </trkpt>
      <trkpt lat="44.99937" lon="1.02885">
        <ele>156</ele>
        <time>2017-10-01T08:59:15.000Z</time>
      </trkpt>
      <trkpt lat="44.99932" lon="1.02888">
        <ele>155</ele>
        <time>2017-10-01T08:59:16.000Z</time>
      </trkpt>
      <trkpt lat="44.99927" lon="1.02891">
        <ele>155</ele>
        <time>2017-10-01T08:59:17.000Z</time>
      </trkpt>
      <trkpt lat="44.99922" lon="1.02893">
        <ele>154</ele>
        <time>2017-10-01T08:59:18.000Z</time>
      </trkpt>
      <trkpt lat="44.99916" lon="1.02896">
        <ele>153</ele>
        <time>2017-10-01T08:59:19.000Z</time>
      </trkpt>
      <trkpt lat="44.99911" lon="1.02898">
        <ele>153</ele>
        <time>2017-10-01T08:59:20.000Z</time>
      </trkpt>
      <trkpt lat="44.99906" lon="1.02901">
        <ele>152</ele>
        <time>2017-10-01T08:59:21.000Z</time>
      </trkpt>
      <trkpt lat="44.99902" lon="1.02903">
        <ele>151</ele>
        <time>2017-10-01T08:59:22.000Z</time>
      </trkpt>
      <trkpt lat="44.99897" lon="1.02905">
        <ele>151</ele>
        <time>2017-10-01T08:59:23.000Z</time>
      </trkpt>
      <trkpt lat="44.99892" lon="1.02906">
        <ele>150</ele>
        <time>2017-10-01T08:59:24.000Z</time>
      </trkpt>
      <trkpt lat="44.99888" lon="1.02907">
        <ele>150</ele>
        <time>2017-10-01T08:59:25.000Z</time>
      </trkpt>
      <trkpt lat="44.99883" lon="1.02908">
        <ele>149</ele>
        <time>2017-10-01T08:59:26.000Z</time>
      </trkpt>
      <trkpt lat="44.99878" lon="1.02909">
        <ele>149</ele>
        <time>2017-10-01T08:59:27.000Z</time>
      </trkpt>
      <trkpt lat="44.99873" lon="1.02908">
        <ele>149</ele>
        <time>2017-10-01T08:59:28.000Z</time>
      </trkpt>
      <trkpt lat="44.99868" lon="1.02908">
        <ele>148</ele>
        <time>2017-10-01T08:59:29.000Z</time>
      </trkpt>
      <trkpt lat="44.99862" lon="1.02907">
        <ele>148</ele>
        <time>2017-10-01T08:59:30.000Z</time>
      </trkpt>
      <trkpt lat="44.99856" lon="1.02905">
        <ele>148</ele>
        <time>2017-10-01T08:59:31.000Z</time>
      </trkpt>
      <trkpt lat="44.99851" lon="1.02904">
        <ele>148</ele>
        <time>2017-10-01T08:59:32.000Z</time>
      </trkpt>
      <trkpt lat="44.99845" lon="1.02902">
        <ele>148</ele>
        <time>2017-10-01T08:59:33.000Z</time>
      </trkpt>
      <trkpt lat="44.99839" lon="1.029">
        <ele>148</ele>
        <time>2017-10-01T08:59:34.000Z</time>
      </trkpt>
      <trkpt lat="44.99832" lon="1.02898">
        <ele>148</ele>
        <time>2017-10-01T08:59:35.000Z</time>
      </trkpt>
      <trkpt lat="44.99826" lon="1.02896">
        <ele>148</ele>
        <time>2017-10-01T08:59:36.000Z</time>
      </trkpt>
      <trkpt lat="44.99819" lon="1.02894">
        <ele>148</ele>
        <time>2017-10-01T08:59:37.000Z</time>
      </trkpt>
      <trkpt lat="44.99812" lon="1.02891">
        <ele>148</ele>
        <time>2017-10-01T08:59:38.000Z</time>
      </trkpt>
      <trkpt lat="44.99805" lon="1.02888">
        <ele>148</ele>
        <time>2017-10-01T08:59:39.000Z</time>
      </trkpt>
      <trkpt lat="44.99797" lon="1.02885">
        <ele>148</ele>
        <time>2017-10-01T08:59:40.000Z</time>
      </trkpt>
      <trkpt lat="44.99789" lon="1.02882">
        <ele>148</ele>
        <time>2017-10-01T08:59:41.000Z</time>
      </trkpt>
      <trkpt lat="44.99781" lon="1.02878">
        <ele>148</ele>
        <time>2017-10-01T08:59:42.000Z</time>
      </trkpt>
      <trkpt lat="44.99775" lon="1.02875">
        <ele>148</ele>
        <time>2017-10-01T08:59:43.000Z</time>
      </trkpt>
      <trkpt lat="44.99769" lon="1.02872">
        <ele>148</ele>
        <time>2017-10-01T08:59:44.000Z</time>
      </trkpt>
      <trkpt lat="44.99763" lon="1.02869">
        <ele>148</ele>
        <time>2017-10-01T08:59:45.000Z</time>
      </trkpt>
      <trkpt lat="44.99757" lon="1.02866">
        <ele>148</ele>
        <time>2017-10-01T08:59:46.000Z</time>
      </trkpt>
      <trkpt lat="44.99751" lon="1.02864">
        <ele>148</ele>
        <time>2017-10-01T08:59:47.000Z</time>
      </trkpt>
      <trkpt lat="44.99745" lon="1.02862">
        <ele>148</ele>
        <time>2017-10-01T08:59:48.000Z</time>
      </trkpt>
      <trkpt lat="44.99738" lon="1.0286">
        <ele>148</ele>
        <time>2017-10-01T08:59:49.000Z</time>
      </trkpt>
      <trkpt lat="44.99731" lon="1.02858">
        <ele>148</ele>
        <time>2017-10-01T08:59:50.000Z</time>
      </trkpt>
      <trkpt lat="44.99724" lon="1.02857">
        <ele>148</ele>
        <time>2017-10-01T08:59:51.000Z</time>
      </trkpt>
      <trkpt lat="44.99718" lon="1.02857">
        <ele>148</ele>
        <time>2017-10-01T08:59:52.000Z</time>
      </trkpt>
      <trkpt lat="44.99711" lon="1.02857">
        <ele>148</ele>
        <time>2017-10-01T08:59:53.000Z</time>
      </trkpt>
      <trkpt lat="44.99705" lon="1.02858">
        <ele>147</ele>
        <time>2017-10-01T08:59:54.000Z</time>
      </trkpt>
      <trkpt lat="44.99699" lon="1.0286">
        <ele>147</ele>
        <time>2017-10-01T08:59:55.000Z</time>
      </trkpt>
      <trkpt lat="44.99693" lon="1.02862">
        <ele>146</ele>
        <time>2017-10-01T08:59:56.000Z</time>
      </trkpt>
      <trkpt lat="44.99688" lon="1.02864">
        <ele>145</ele>
        <time>2017-10-01T08:59:57.000Z</time>
      </trkpt>
      <trkpt lat="44.99683" lon="1.02866">
        <ele>145</ele>
        <time>2017-10-01T08:59:58.000Z</time>
      </trkpt>
      <trkpt lat="44.99678" lon="1.02868">
        <ele>144</ele>
        <time>2017-10-01T08:59:59.000Z</time>
      </trkpt>
      <trkpt lat="44.99673" lon="1.0287">
        <ele>144</ele>
        <time>2017-10-01T09:00:00.000Z</time>
      </trkpt>
      <trkpt lat="44.99669" lon="1.02872">
        <ele>143</ele>
        <time>2017-10-01T09:00:01.000Z</time>
      </trkpt>
      <trkpt lat="44.99664" lon="1.02875">
        <ele>142</ele>
        <time>2017-10-01T09:00:02.000Z</time>
      </trkpt>
      <trkpt lat="44.99659" lon="1.02877">
        <ele>142</ele>
        <time>2017-10-01T09:00:03.000Z</time>
      </trkpt>
      <trkpt lat="44.99655" lon="1.02881">
        <ele>141</ele>
        <time>2017-10-01T09:00:04.000Z</time>
      </trkpt>
      <trkpt lat="44.9965" lon="1.02885">
        <ele>140</ele>
        <time>2017-10-01T09:00:05.000Z</time>
      </trkpt>
      <trkpt lat="44.99646" lon="1.02889">
        <ele>140</ele>
        <time>2017-10-01T09:00:06.000Z</time>
      </trkpt>
      <trkpt lat="44.99641" lon="1.02893">
        <ele>139</ele>
        <time>2017-10-01T09:00:07.000Z</time>
      </trkpt>
      <trkpt lat="44.99636" lon="1.02897">
        <ele>138</ele>
        <time>2017-10-01T09:00:08.000Z</time>
      </trkpt>
      <trkpt lat="44.99631" lon="1.029">
        <ele>137</ele>
        <time>2017-10-01T09:00:09.000Z</time>
      </trkpt>
      <trkpt lat="44.99625" lon="1.02903">
        <ele>137</ele>
        <time>2017-10-01T09:00:10.000Z</time>
      </trkpt>
      <trkpt lat="44.9962" lon="1.02905">
        <ele>137</ele>
        <time>2017-10-01T09:00:11.000Z</time>
      </trkpt>
      <trkpt lat="44.99614" lon="1.02906">
        <ele>137</ele>
        <time>2017-10-01T09:00:12.000Z</time>
      </trkpt>
      <trkpt lat="44.99608" lon="1.02907">
        <ele>137</ele>
        <time>2017-10-01T09:00:13.000Z</time>
      </trkpt>
      <trkpt lat="44.99602" lon="1.02908">
        <ele>137</ele>
        <time>2017-10-01T09:00:14.000Z</time>
      </trkpt>
      <trkpt lat="44.99596" lon="1.02909">
        <ele>137</ele>
        <time>2017-10-01T09:00:15.000Z</time>
      </trkpt>
      <trkpt lat="44.99589" lon="1.02909">
        <ele>137</ele>
        <time>2017-10-01T09:00:16.000Z</time>
      </trkpt>
      <trkpt lat="44.99583" lon="1.0291">
        <ele>137</ele>
        <time>2017-10-01T09:00:17.000Z</time>
      </trkpt>
      <trkpt lat="44.99577" lon="1.0291">
        <ele>138</ele>
        <time>2017-10-01T09:00:18.000Z</time>
      </trkpt>
      <trkpt lat="44.99571" lon="1.02911">
        <ele>138</ele>
        <time>2017-10-01T09:00:19.000Z</time>
      </trkpt>
      <trkpt lat="44.99566" lon="1.02912">
        <ele>138</ele>
        <time>2017-10-01T09:00:20.000Z</time>
      </trkpt>
      <trkpt lat="44.99562" lon="1.02914">
        <ele>138</ele>
        <time>2017-10-01T09:00:21.000Z</time>
      </trkpt>
      <trkpt lat="44.99559" lon="1.02918">
        <ele>138</ele>
        <time>2017-10-01T09:00:22.000Z</time>
      </trkpt>
      <trkpt lat="44.99558" lon="1.02923">
        <ele>138</ele>
        <time>2017-10-01T09:00:23.000Z</time>
      </trkpt>
      <trkpt lat="44.99558" lon="1.02929">
        <ele>137</ele>
        <time>2017-10-01T09:00:24.000Z</time>
      </trkpt>
      <trkpt lat="44.99559" lon="1.02934">
        <ele>137</ele>
        <time>2017-10-01T09:00:25.000Z</time>
      </trkpt>
      <trkpt lat="44.99561" lon="1.02939">
        <ele>136</ele>
        <time>2017-10-01T09:00:26.000Z</time>
      </trkpt>
      <trkpt lat="44.99563" lon="1.02944">
        <ele>136</ele>
        <time>2017-10-01T09:00:27.000Z</time>
      </trkpt>
      <trkpt lat="44.99564" lon="1.02948">
        <ele>135</ele>
        <time>2017-10-01T09:00:28.000Z</time>
      </trkpt>
      <trkpt lat="44.99564" lon="1.02952">
        <ele>135</ele>
        <time>2017-10-01T09:00:29.000Z</time>
      </trkpt>
      <trkpt lat="44.99563" lon="1.02957">
        <ele>135</ele>
        <time>2017-10-01T09:00:30.000Z</time>
      </trkpt>
      <trkpt lat="44.99561" lon="1.02962">
        <ele>135</ele>
        <time>2017-10-01T09:00:31.000Z</time>
      </trkpt>
      <trkpt lat="44.99559" lon="1.02966">
        <ele>135</ele>
        <time>2017-10-01T09:00:32.000Z</time>
      </trkpt>
      <trkpt lat="44.99557" lon="1.02972">
        <ele>135</ele>
        <time>2017-10-01T09:00:33.000Z</time>
      </trkpt>
      <trkpt lat="44.99554" lon="1.02977">
        <ele>135</ele>
        <time>2017-10-01T09:00:34.000Z</time>
      </trkpt>
      <trkpt lat="44.99552" lon="1.02983">
        <ele>135</ele>
        <time>2017-10-01T09:00:35.000Z</time>
      </trkpt>
      <trkpt lat="44.99551" lon="1.02989">
        <ele>135</ele>
        <time>2017-10-01T09:00:36.000Z</time>
      </trkpt>
      <trkpt lat="44.9955" lon="1.02995">
        <ele>134</ele>
        <time>2017-10-01T09:00:37.000Z</time>
      </trkpt>
      <trkpt lat="44.9955" lon="1.03001">
        <ele>134</ele>
        <time>2017-10-01T09:00:38.000Z</time>
      </trkpt>
      <trkpt lat="44.99549" lon="1.03008">
        <ele>134</ele>
        <time>2017-10-01T09:00:39.000Z</time>
      </trkpt>
      <trkpt lat="44.99548" lon="1.03014">
        <ele>135</ele>
        <time>2017-10-01T09:00:40.000Z</time>
      </trkpt>
      <trkpt lat="44.99547" lon="1.0302">
        <ele>135</ele>
        <time>2017-10-01T09:00:41.000Z</time>
      </trkpt>
      <trkpt lat="44.99546" lon="1.03026">
        <ele>135</ele>
        <time>2017-10-01T09:00:42.000Z</time>
      </trkpt>
      <trkpt lat="44.99544" lon="1.03032">
        <ele>135</ele>
        <time>2017-10-01T09:00:43.000Z</time>
      </trkpt>
      <trkpt lat="44.99542" lon="1.03039">
        <ele>136</ele>
        <time>2017-10-01T09:00:44.000Z</time>
      </trkpt>
      <trkpt lat="44.99539" lon="1.03045">
        <ele>136</ele>
        <time>2017-10-01T09:00:45.000Z</time>
      </trkpt>
      <trkpt lat="44.99537" lon="1.03051">
        <ele>136</ele>
        <time>2017-10-01T09:00:46.000Z</time>
      </trkpt>
      <trkpt lat="44.99534" lon="1.03058">
        <ele>136</ele>
        <time>2017-10-01T09:00:47.000Z</time>
      </trkpt>
      <trkpt lat="44.99531" lon="1.03064">
        <ele>136</ele>
        <time>2017-10-01T09:00:48.000Z</time>
      </trkpt>
      <trkpt lat="44.99528" lon="1.0307">
        <ele>136</ele>
        <time>2017-10-01T09:00:49.000Z</time>
      </trkpt>
      <trkpt lat="44.99525" lon="1.03076">
        <ele>137</ele>
        <time>2017-10-01T09:00:50.000Z</time>
      </trkpt>
      <trkpt lat="44.99522" lon="1.03082">
        <ele>137</ele>
        <time>2017-10-01T09:00:51.000Z</time>
      </trkpt>
      <trkpt lat="44.99519" lon="1.03087">
        <ele>137</ele>
        <time>2017-10-01T09:00:52.000Z</time>
      </trkpt>
      <trkpt lat="44.99516" lon="1.03092">
        <ele>136</ele>
        <time>2017-10-01T09:00:53.000Z</time>
      </trkpt>
      <trkpt lat="44.99513" lon="1.03097">
        <ele>136</ele>
        <time>2017-10-01T09:00:54.000Z</time>
      </trkpt>
      <trkpt lat="44.99509" lon="1.03101">
        <ele>136</ele>
        <time>2017-10-01T09:00:55.000Z</time>
      </trkpt>
      <trkpt lat="44.99506" lon="1.03105">
        <ele>136</ele>
        <time>2017-10-01T09:00:56.000Z</time>
      </trkpt>
      <trkpt lat="44.99503" lon="1.03109">
        <ele>136</ele>
        <time>2017-10-01T09:00:57.000Z</time>
      </trkpt>
      <trkpt lat="44.995" lon="1.03113">
        <ele>135</ele>
        <time>2017-10-01T09:00:58.000Z</time>
      </trkpt>
      <trkpt lat="44.99497" lon="1.03117">
        <ele>136</ele>
        <time>2017-10-01T09:00:59.000Z</time>
      </trkpt>
      <trkpt lat="44.99494" lon="1.0312">
        <ele>136</ele>
        <time>2017-10-01T09:01:00.000Z</time>
      </trkpt>
      <trkpt lat="44.99491" lon="1.03123">
        <ele>136</ele>
        <time>2017-10-01T09:01:01.000Z</time>
      </trkpt>
      <trkpt lat="44.99488" lon="1.03126">
        <ele>137</ele>
        <time>2017-10-01T09:01:02.000Z</time>
      </trkpt>
      <trkpt lat="44.99485" lon="1.03129">
        <ele>137</ele>
        <time>2017-10-01T09:01:03.000Z</time>
      </trkpt>
      <trkpt lat="44.99483" lon="1.03132">
        <ele>137</ele>
        <time>2017-10-01T09:01:04.000Z</time>
      </trkpt>
      <trkpt lat="44.9948" lon="1.03135">
        <ele>137</ele>
        <time>2017-10-01T09:01:05.000Z</time>
      </trkpt>
      <trkpt lat="44.99477" lon="1.03138">
        <ele>137</ele>
        <time>2017-10-01T09:01:06.000Z</time>
      </trkpt>
      <trkpt lat="44.99475" lon="1.03141">
        <ele>138</ele>
        <time>2017-10-01T09:01:07.000Z</time>
      </trkpt>
      <trkpt lat="44.99472" lon="1.03144">
        <ele>138</ele>
        <time>2017-10-01T09:01:08.000Z</time>
      </trkpt>
      <trkpt lat="44.9947" lon="1.03147">
        <ele>138</ele>
        <time>2017-10-01T09:01:09.000Z</time>
      </trkpt>
      <trkpt lat="44.99467" lon="1.03151">
        <ele>138</ele>
        <time>2017-10-01T09:01:10.000Z</time>
      </trkpt>
      <trkpt lat="44.99464" lon="1.03155">
        <ele>138</ele>
        <time>2017-10-01T09:01:11.000Z</time>
      </trkpt>
      <trkpt lat="44.99461" lon="1.03159">
        <ele>138</ele>
        <time>2017-10-01T09:01:12.000Z</time>
      </trkpt>
      <trkpt lat="44.99458" lon="1.03163">
        <ele>138</ele>
        <time>2017-10-01T09:01:13.000Z</time>
      </trkpt>
      <trkpt lat="44.99454" lon="1.03168">
        <ele>138</ele>
        <time>2017-10-01T09:01:14.000Z</time>
      </trkpt>
      <trkpt lat="44.9945" lon="1.03174">
        <ele>138</ele>
        <time>2017-10-01T09:01:15.000Z</time>
      </trkpt>
      <trkpt lat="44.99447" lon="1.0318">
        <ele>138</ele>
        <time>2017-10-01T09:01:16.000Z</time>
      </trkpt>
      <trkpt lat="44.99443" lon="1.03187">
        <ele>138</ele>
        <time>2017-10-01T09:01:17.000Z</time>
      </trkpt>
      <trkpt lat="44.9944" lon="1.03193">
        <ele>137</ele>
        <time>2017-10-01T09:01:18.000Z</time>
      </trkpt>
      <trkpt lat="44.99437" lon="1.03199">
        <ele>137</ele>
        <time>2017-10-01T09:01:19.000Z</time>
      </trkpt>
      <trkpt lat="44.99435" lon="1.03206">
        <ele>136</ele>
        <time>2017-10-01T09:01:20.000Z</time>
      </trkpt>
      <trkpt lat="44.99433" lon="1.03212">
        <ele>135</ele>
        <time>2017-10-01T09:01:21.000Z</time>
      </trkpt>
      <trkpt lat="44.9943" lon="1.03218">
        <ele>134</ele>
        <time>2017-10-01T09:01:22.000Z</time>
      </trkpt>
      <trkpt lat="44.99426" lon="1.03225">
        <ele>133</ele>
        <time>2017-10-01T09:01:23.000Z</time>
      </trkpt>
      <trkpt lat="44.99421" lon="1.03232">
        <ele>132</ele>
        <time>2017-10-01T09:01:24.000Z</time>
      </trkpt>
      <trkpt lat="44.99416" lon="1.03238">
        <ele>131</ele>
        <time>2017-10-01T09:01:25.000Z</time>
      </trkpt>
      <trkpt lat="44.99411" lon="1.03245">
        <ele>130</ele>
        <time>2017-10-01T09:01:26.000Z</time>
      </trkpt>
      <trkpt lat="44.99406" lon="1.03251">
        <ele>130</ele>
        <time>2017-10-01T09:01:27.000Z</time>
      </trkpt>
      <trkpt lat="44.99401" lon="1.03256">
        <ele>130</ele>
        <time>2017-10-01T09:01:28.000Z</time>
      </trkpt>
      <trkpt lat="44.99397" lon="1.03262">
        <ele>131</ele>
        <time>2017-10-01T09:01:29.000Z</time>
      </trkpt>
      <trkpt lat="44.99392" lon="1.03267">
        <ele>131</ele>
        <time>2017-10-01T09:01:30.000Z</time>
      </trkpt>
      <trkpt lat="44.99388" lon="1.03272">
        <ele>131</ele>
        <time>2017-10-01T09:01:31.000Z</time>
      </trkpt>
      <trkpt lat="44.99385" lon="1.03276">
        <ele>131</ele>
        <time>2017-10-01T09:01:32.000Z</time>
      </trkpt>
      <trkpt lat="44.99381" lon="1.03281">
        <ele>131</ele>
        <time>2017-10-01T09:01:33.000Z</time>
      </trkpt>
      <trkpt lat="44.99378" lon="1.03285">
        <ele>131</ele>
        <time>2017-10-01T09:01:34.000Z</time>
      </trkpt>
      <trkpt lat="44.99375" lon="1.03289">
        <ele>132</ele>
        <time>2017-10-01T09:01:35.000Z</time>
      </trkpt>
      <trkpt lat="44.99372" lon="1.03292">
        <ele>131</ele>
        <time>2017-10-01T09:01:36.000Z</time>
      </trkpt>
      <trkpt lat="44.99369" lon="1.03296">
        <ele>131</ele>
        <time>2017-10-01T09:01:37.000Z</time>
      </trkpt>
      <trkpt lat="44.99366" lon="1.033">
        <ele>131</ele>
        <time>2017-10-01T09:01:38.000Z</time>
      </trkpt>
      <trkpt lat="44.99363" lon="1.03304">
        <ele>131</ele>
        <time>2017-10-01T09:01:39.000Z</time>
      </trkpt>
      <trkpt lat="44.99359" lon="1.03309">
        <ele>131</ele>
        <time>2017-10-01T09:01:40.000Z</time>
      </trkpt>
      <trkpt lat="44.99356" lon="1.03313">
        <ele>131</ele>
        <time>2017-10-01T09:01:41.000Z</time>
      </trkpt>
      <trkpt lat="44.99353" lon="1.03318">
        <ele>131</ele>
        <time>2017-10-01T09:01:42.000Z</time>
      </trkpt>
      <trkpt lat="44.99349" lon="1.03324">
        <ele>130</ele>
        <time>2017-10-01T09:01:43.000Z</time>
      </trkpt>
      <trkpt lat="44.99345" lon="1.0333">
        <ele>130</ele>
        <time>2017-10-01T09:01:44.000Z</time>
      </trkpt>
      <trkpt lat="44.99342" lon="1.03336">
        <ele>129</ele>
        <time>2017-10-01T09:01:45.000Z</time>
      </trkpt>
      <trkpt lat="44.99339" lon="1.03343">
        <ele>129</ele>
        <time>2017-10-01T09:01:46.000Z</time>
      </trkpt>
      <trkpt lat="44.99335" lon="1.0335">
        <ele>129</ele>
        <time>2017-10-01T09:01:47.000Z</time>
      </trkpt>
      <trkpt lat="44.99332" lon="1.03357">
        <ele>129</ele>
        <time>2017-10-01T09:01:48.000Z</time>
      </trkpt>
      <trkpt lat="44.99329" lon="1.03364">
        <ele>130</ele>
        <time>2017-10-01T09:01:49.000Z</time>
      </trkpt>
      <trkpt lat="44.99327" lon="1.0337">
        <ele>130</ele>
        <time>2017-10-01T09:01:50.000Z</time>
      </trkpt>
      <trkpt lat="44.99324" lon="1.03377">
        <ele>130</ele>
        <time>2017-10-01T09:01:51.000Z</time>
      </trkpt>
      <trkpt lat="44.99321" lon="1.03383">
        <ele>131</ele>
        <time>2017-10-01T09:01:52.000Z</time>
      </trkpt>
      <trkpt lat="44.99319" lon="1.03388">
        <ele>131</ele>
        <time>2017-10-01T09:01:53.000Z</time>
      </trkpt>
      <trkpt lat="44.99316" lon="1.03393">
        <ele>131</ele>
        <time>2017-10-01T09:01:54.000Z</time>
      </trkpt>
      <trkpt lat="44.99313" lon="1.03399">
        <ele>131</ele>
        <time>2017-10-01T09:01:55.000Z</time>
      </trkpt>
      <trkpt lat="44.9931" lon="1.03405">
        <ele>132</ele>
        <time>2017-10-01T09:01:56.000Z</time>
      </trkpt>
      <trkpt lat="44.99307" lon="1.03411">
        <ele>132</ele>
        <time>2017-10-01T09:01:57.000Z</time>
      </trkpt>
      <trkpt lat="44.99303" lon="1.03419">
        <ele>132</ele>
        <time>2017-10-01T09:01:58.000Z</time>
      </trkpt>
      <trkpt lat="44.99299" lon="1.03427">
        <ele>133</ele>
        <time>2017-10-01T09:01:59.000Z</time>
      </trkpt>
      <trkpt lat="44.99296" lon="1.03434">
        <ele>133</ele>
        <time>2017-10-01T09:02:00.000Z</time>
      </trkpt>
      <trkpt lat="44.99294" lon="1.03441">
        <ele>133</ele>
        <time>2017-10-01T09:02:01.000Z</time>
      </trkpt>
      <trkpt lat="44.99292" lon="1.03448">
        <ele>133</ele>
        <time>2017-10-01T09:02:02.000Z</time>
      </trkpt>
      <trkpt lat="44.99291" lon="1.03454">
        <ele>133</ele>
        <time>2017-10-01T09:02:03.000Z</time>
      </trkpt>
      <trkpt lat="44.9929" lon="1.0346">
        <ele>133</ele>
        <time>2017-10-01T09:02:04.000Z</time>
      </trkpt>
      <trkpt lat="44.99289" lon="1.03466">
        <ele>133</ele>
        <time>2017-10-01T09:02:05.000Z</time>
      </trkpt>
      <trkpt lat="44.99289" lon="1.03471">
        <ele>133</ele>
        <time>2017-10-01T09:02:06.000Z</time>
      </trkpt>
      <trkpt lat="44.99288" lon="1.03476">
        <ele>132</ele>
        <time>2017-10-01T09:02:07.000Z</time>
      </trkpt>
      <trkpt lat="44.99288" lon="1.03482">
        <ele>132</ele>
        <time>2017-10-01T09:02:08.000Z</time>
      </trkpt>
      <trkpt lat="44.99287" lon="1.03488">
        <ele>132</ele>
        <time>2017-10-01T09:02:09.000Z</time>
      </trkpt>
      <trkpt lat="44.99287" lon="1.03494">
        <ele>132</ele>
        <time>2017-10-01T09:02:10.000Z</time>
      </trkpt>
      <trkpt lat="44.99286" lon="1.035">
        <ele>132</ele>
        <time>2017-10-01T09:02:11.000Z</time>
      </trkpt>
      <trkpt lat="44.99284" lon="1.03506">
        <ele>132</ele>
        <time>2017-10-01T09:02:12.000Z</time>
      </trkpt>
      <trkpt lat="44.99283" lon="1.03513">
        <ele>132</ele>
        <time>2017-10-01T09:02:13.000Z</time>
      </trkpt>
      <trkpt lat="44.99282" lon="1.0352">
        <ele>131</ele>
        <time>2017-10-01T09:02:14.000Z</time>
      </trkpt>
      <trkpt lat="44.9928" lon="1.03527">
        <ele>131</ele>
        <time>2017-10-01T09:02:15.000Z</time>
      </trkpt>
      <trkpt lat="44.99279" lon="1.03534">
        <ele>131</ele>
        <time>2017-10-01T09:02:16.000Z</time>
      </trkpt>
      <trkpt lat="44.99277" lon="1.03541">
        <ele>130</ele>
        <time>2017-10-01T09:02:17.000Z</time>
      </trkpt>
      <trkpt lat="44.99276" lon="1.03548">
        <ele>130</ele>
        <time>2017-10-01T09:02:18.000Z</time>
      </trkpt>
      <trkpt lat="44.99275" lon="1.03555">
        <ele>130</ele>
        <time>2017-10-01T09:02:19.000Z</time>
      </trkpt>
      <trkpt lat="44.99274" lon="1.03562">
        <ele>129</ele>
        <time>2017-10-01T09:02:20.000Z</time>
      </trkpt>
      <trkpt lat="44.99273" lon="1.03569">
        <ele>129</ele>
        <time>2017-10-01T09:02:21.000Z</time>
      </trkpt>
      <trkpt lat="44.99272" lon="1.03576">
        <ele>129</ele>
        <time>2017-10-01T09:02:22.000Z</time>
      </trkpt>
      <trkpt lat="44.99271" lon="1.03582">
        <ele>128</ele>
        <time>2017-10-01T09:02:23.000Z</time>
      </trkpt>
      <trkpt lat="44.99271" lon="1.03589">
        <ele>128</ele>
        <time>2017-10-01T09:02:24.000Z</time>
      </trkpt>
      <trkpt lat="44.9927" lon="1.03595">
        <ele>127</ele>
        <time>2017-10-01T09:02:25.000Z</time>
      </trkpt>
      <trkpt lat="44.99269" lon="1.03602">
        <ele>127</ele>
        <time>2017-10-01T09:02:26.000Z</time>
      </trkpt>
      <trkpt lat="44.99267" lon="1.03609">
        <ele>126</ele>
        <time>2017-10-01T09:02:27.000Z</time>
      </trkpt>
      <trkpt lat="44.99264" lon="1.03616">
        <ele>126</ele>
        <time>2017-10-01T09:02:28.000Z</time>
      </trkpt>
      <trkpt lat="44.99262" lon="1.03624">
        <ele>125</ele>
        <time>2017-10-01T09:02:29.000Z</time>
      </trkpt>
      <trkpt lat="44.99259" lon="1.03631">
        <ele>125</ele>
        <time>2017-10-01T09:02:30.000Z</time>
      </trkpt>
      <trkpt lat="44.99256" lon="1.03638">
        <ele>124</ele>
        <time>2017-10-01T09:02:31.000Z</time>
      </trkpt>
      <trkpt lat="44.99253" lon="1.03644">
        <ele>124</ele>
        <time>2017-10-01T09:02:32.000Z</time>
      </trkpt>
      <trkpt lat="44.99251" lon="1.0365">
        <ele>123</ele>
        <time>2017-10-01T09:02:33.000Z</time>
      </trkpt>
      <trkpt lat="44.9925" lon="1.03654">
        <ele>123</ele>
        <time>2017-10-01T09:02:34.000Z</time>
      </trkpt>
      <trkpt lat="44.99249" lon="1.03658">
        <ele>123</ele>
        <time>2017-10-01T09:02:35.000Z</time>
      </trkpt>
      <trkpt lat="44.99248" lon="1.03662">
        <ele>122</ele>
        <time>2017-10-01T09:02:36.000Z</time>
      </trkpt>
      <trkpt lat="44.99248" lon="1.03664">
        <ele>122</ele>
        <time>2017-10-01T09:02:37.000Z</time>
      </trkpt>
      <trkpt lat="44.99247" lon="1.03667">
        <ele>122</ele>
        <time>2017-10-01T09:02:38.000Z</time>
      </trkpt>
      <trkpt lat="44.99246" lon="1.0367">
        <ele>122</ele>
        <time>2017-10-01T09:02:39.000Z</time>
      </trkpt>
      <trkpt lat="44.99245" lon="1.03673">
        <ele>122</ele>
        <time>2017-10-01T09:02:40.000Z</time>
      </trkpt>
      <trkpt lat="44.99243" lon="1.03676">
        <ele>122</ele>
        <time>2017-10-01T09:02:41.000Z</time>
      </trkpt>
      <trkpt lat="44.99241" lon="1.03679">
        <ele>122</ele>
        <time>2017-10-01T09:02:42.000Z</time>
      </trkpt>
      <trkpt lat="44.9924" lon="1.03681">
        <ele>122</ele>
        <time>2017-10-01T09:02:43.000Z</time>
      </trkpt>
      <trkpt lat="44.99238" lon="1.03684">
        <ele>122</ele>
        <time>2017-10-01T09:02:44.000Z</time>
      </trkpt>
      <trkpt lat="44.99236" lon="1.03686">
        <ele>122</ele>
        <time>2017-10-01T09:02:45.000Z</time>
      </trkpt>
      <trkpt lat="44.99236" lon="1.03687">
        <ele>122</ele>
        <time>2017-10-01T09:02:46.000Z</time>
      </trkpt>
      <trkpt lat="44.99235" lon="1.03688">
        <ele>121</ele>
        <time>2017-10-01T09:02:47.000Z</time>
      </trkpt>
      <trkpt lat="44.99235" lon="1.0369">
        <ele>121</ele>
        <time>2017-10-01T09:02:48.000Z</time>
      </trkpt>
      <trkpt lat="44.99234" lon="1.03692">
        <ele>121</ele>
        <time>2017-10-01T09:02:49.000Z</time>
      </trkpt>
      <trkpt lat="44.99234" lon="1.03695">
        <ele>121</ele>
        <time>2017-10-01T09:02:50.000Z</time>
      </trkpt>
      <trkpt lat="44.99234" lon="1.03697">
        <ele>121</ele>
        <time>2017-10-01T09:02:51.000Z</time>
      </trkpt>
      <trkpt lat="44.99234" lon="1.037">
        <ele>120</ele>
        <time>2017-10-01T09:02:52.000Z</time>
      </trkpt>
      <trkpt lat="44.99234" lon="1.03703">
        <ele>120</ele>
        <time>2017-10-01T09:02:53.000Z</time>
      </trkpt>
      <trkpt lat="44.99234" lon="1.03707">
        <ele>120</ele>
        <time>2017-10-01T09:02:54.000Z</time>
      </trkpt>
      <trkpt lat="44.99231" lon="1.0371">
        <ele>120</ele>
        <time>2017-10-01T09:02:55.000Z</time>
      </trkpt>
      <trkpt lat="44.99228" lon="1.03714">
        <ele>120</ele>
        <time>2017-10-01T09:02:56.000Z</time>
      </trkpt>
      <trkpt lat="44.99225" lon="1.03718">
        <ele>119</ele>
        <time>2017-10-01T09:02:57.000Z</time>
      </trkpt>
      <trkpt lat="44.99222" lon="1.03723">
        <ele>119</ele>
        <time>2017-10-01T09:02:58.000Z</time>
      </trkpt>
      <trkpt lat="44.99219" lon="1.03727">
        <ele>119</ele>
        <time>2017-10-01T09:02:59.000Z</time>
      </trkpt>
      <trkpt lat="44.99216" lon="1.03731">
        <ele>119</ele>
        <time>2017-10-01T09:03:00.000Z</time>
      </trkpt>
      <trkpt lat="44.99214" lon="1.03735">
        <ele>118</ele>
        <time>2017-10-01T09:03:01.000Z</time>
      </trkpt>
      <trkpt lat="44.99211" lon="1.03739">
        <ele>118</ele>
        <time>2017-10-01T09:03:02.000Z</time>
      </trkpt>
      <trkpt lat="44.99209" lon="1.03744">
        <ele>118</ele>
        <time>2017-10-01T09:03:03.000Z</time>
      </trkpt>
      <trkpt lat="44.99207" lon="1.03748">
        <ele>117</ele>
        <time>2017-10-01T09:03:04.000Z</time>
      </trkpt>
      <trkpt lat="44.99205" lon="1.03752">
        <ele>117</ele>
        <time>2017-10-01T09:03:05.000Z</time>
      </trkpt>
      <trkpt lat="44.99203" lon="1.03756">
        <ele>117</ele>
        <time>2017-10-01T09:03:06.000Z</time>
      </trkpt>
      <trkpt lat="44.99201" lon="1.0376">
        <ele>118</ele>
        <time>2017-10-01T09:03:07.000Z</time>
      </trkpt>
      <trkpt lat="44.99199" lon="1.03764">
        <ele>118</ele>
        <time>2017-10-01T09:03:08.000Z</time>
      </trkpt>
      <trkpt lat="44.99197" lon="1.03768">
        <ele>118</ele>
        <time>2017-10-01T09:03:09.000Z</time>
      </trkpt>
      <trkpt lat="44.99195" lon="1.03772">
        <ele>118</ele>
        <time>2017-10-01T09:03:10.000Z</time>
      </trkpt>
      <trkpt lat="44.99193" lon="1.03776">
        <ele>118</ele>
        <time>2017-10-01T09:03:11.000Z</time>
      </trkpt>
      <trkpt lat="44.99192" lon="1.0378">
        <ele>118</ele>
        <time>2017-10-01T09:03:12.000Z</time>
      </trkpt>
      <trkpt lat="44.9919" lon="1.03784">
        <ele>117</ele>
        <time>2017-10-01T09:03:13.000Z</time>
      </trkpt>
      <trkpt lat="44.99189" lon="1.03788">
        <ele>117</ele>
        <time>2017-10-01T09:03:14.000Z</time>
      </trkpt>
      <trkpt lat="44.99188" lon="1.03791">
        <ele>117</ele>
        <time>2017-10-01T09:03:15.000Z</time>
      </trkpt>
      <trkpt lat="44.99187" lon="1.03795">
        <ele>117</ele>
        <time>2017-10-01T09:03:16.000Z</time>
      </trkpt>
      <trkpt lat="44.99186" lon="1.03798">
        <ele>117</ele>
        <time>2017-10-01T09:03:17.000Z</time>
      </trkpt>
      <trkpt lat="44.99185" lon="1.03801">
        <ele>117</ele>
        <time>2017-10-01T09:03:18.000Z</time>
      </trkpt>
      <trkpt lat="44.99183" lon="1.03803">
        <ele>117</ele>
        <time>2017-10-01T09:03:19.000Z</time>
      </trkpt>
      <trkpt lat="44.99182" lon="1.03806">
        <ele>116</ele>
        <time>2017-10-01T09:03:20.000Z</time>
      </trkpt>
      <trkpt lat="44.99181" lon="1.03809">
        <ele>116</ele>
        <time>2017-10-01T09:03:21.000Z</time>
      </trkpt>
      <trkpt lat="44.9918" lon="1.03811">
        <ele>116</ele>
        <time>2017-10-01T09:03:22.000Z</time>
      </trkpt>
      <trkpt lat="44.99178" lon="1.03814">
        <ele>116</ele>
        <time>2017-10-01T09:03:23.000Z</time>
      </trkpt>
      <trkpt lat="44.99177" lon="1.03816">
        <ele>116</ele>
        <time>2017-10-01T09:03:24.000Z</time>
      </trkpt>
      <trkpt lat="44.99175" lon="1.03818">
        <ele>115</ele>
        <time>2017-10-01T09:03:25.000Z</time>
      </trkpt>
      <trkpt lat="44.99173" lon="1.03821">
        <ele>115</ele>
        <time>2017-10-01T09:03:26.000Z</time>
      </trkpt>
      <trkpt lat="44.99172" lon="1.03823">
        <ele>115</ele>
        <time>2017-10-01T09:03:27.000Z</time>
      </trkpt>
      <trkpt lat="44.99171" lon="1.03825">
        <ele>115</ele>
        <time>2017-10-01T09:03:28.000Z</time>
      </trkpt>
      <trkpt lat="44.9917" lon="1.03827">
        <ele>114</ele>
        <time>2017-10-01T09:03:29.000Z</time>
      </trkpt>
      <trkpt lat="44.99169" lon="1.03828">
        <ele>114</ele>
        <time>2017-10-01T09:03:30.000Z</time>
      </trkpt>
      <trkpt lat="44.99168" lon="1.03831">
        <ele>114</ele>
        <time>2017-10-01T09:03:31.000Z</time>
      </trkpt>
      <trkpt lat="44.99167" lon="1.03833">
        <ele>114</ele>
        <time>2017-10-01T09:03:32.000Z</time>
      </trkpt>
      <trkpt lat="44.99166" lon="1.03835">
        <ele>114</ele>
        <time>2017-10-01T09:03:33.000Z</time>
      </trkpt>
      <trkpt lat="44.99165" lon="1.03838">
        <ele>114</ele>
        <time>2017-10-01T09:03:34.000Z</time>
      </trkpt>
      <trkpt lat="44.99164" lon="1.03842">
        <ele>114</ele>
        <time>2017-10-01T09:03:35.000Z</time>
      </trkpt>
      <trkpt lat="44.99162" lon="1.03845">
        <ele>114</ele>
        <time>2017-10-01T09:03:36.000Z</time>
      </trkpt>
      <trkpt lat="44.99161" lon="1.03849">
        <ele>114</ele>
        <time>2017-10-01T09:03:37.000Z</time>
      </trkpt>
      <trkpt lat="44.99159" lon="1.03853">
        <ele>114</ele>
        <time>2017-10-01T09:03:38.000Z</time>
      </trkpt>
      <trkpt lat="44.99157" lon="1.03857">
        <ele>114</ele>
        <time>2017-10-01T09:03:39.000Z</time>
      </trkpt>
      <trkpt lat="44.99155" lon="1.0386">
        <ele>114</ele>
        <time>2017-10-01T09:03:40.000Z</time>
      </trkpt>
      <trkpt lat="44.99153" lon="1.03864">
        <ele>114</ele>
        <time>2017-10-01T09:03:41.000Z</time>
      </trkpt>
      <trkpt lat="44.9915" lon="1.03867">
        <ele>114</ele>
        <time>2017-10-01T09:03:42.000Z</time>
      </trkpt>
      <trkpt lat="44.99148" lon="1.03871">
        <ele>114</ele>
        <time>2017-10-01T09:03:43.000Z</time>
      </trkpt>
      <trkpt lat="44.99146" lon="1.03874">
        <ele>114</ele>
        <time>2017-10-01T09:03:44.000Z</time>
      </trkpt>
      <trkpt lat="44.99144" lon="1.03877">
        <ele>114</ele>
        <time>2017-10-01T09:03:45.000Z</time>
      </trkpt>
      <trkpt lat="44.99142" lon="1.0388">
        <ele>114</ele>
        <time>2017-10-01T09:03:46.000Z</time>
      </trkpt>
      <trkpt lat="44.99139" lon="1.03883">
        <ele>113</ele>
        <time>2017-10-01T09:03:47.000Z</time>
      </trkpt>
      <trkpt lat="44.99137" lon="1.03886">
        <ele>113</ele>
        <time>2017-10-01T09:03:48.000Z</time>
      </trkpt>
      <trkpt lat="44.99135" lon="1.03889">
        <ele>113</ele>
        <time>2017-10-01T09:03:49.000Z</time>
      </trkpt>
      <trkpt lat="44.99133" lon="1.03892">
        <ele>113</ele>
        <time>2017-10-01T09:03:50.000Z</time>
      </trkpt>
      <trkpt lat="44.99131" lon="1.03895">
        <ele>113</ele>
        <time>2017-10-01T09:03:51.000Z</time>
      </trkpt>
      <trkpt lat="44.99129" lon="1.03898">
        <ele>113</ele>
        <time>2017-10-01T09:03:52.000Z</time>
      </trkpt>
      <trkpt lat="44.99127" lon="1.039">
        <ele>112</ele>
        <time>2017-10-01T09:03:53.000Z</time>
      </trkpt>
      <trkpt lat="44.99125" lon="1.03903">
        <ele>112</ele>
        <time>2017-10-01T09:03:54.000Z</time>
      </trkpt>
      <trkpt lat="44.99123" lon="1.03905">
        <ele>112</ele>
        <time>2017-10-01T09:03:55.000Z</time>
      </trkpt>
      <trkpt lat="44.99121" lon="1.03908">
        <ele>112</ele>
        <time>2017-10-01T09:03:56.000Z</time>
      </trkpt>
      <trkpt lat="44.9912" lon="1.0391">
        <ele>111</ele>
        <time>2017-10-01T09:03:57.000Z</time>
      </trkpt>
      <trkpt lat="44.99118" lon="1.03912">
        <ele>111</ele>
        <time>2017-10-01T09:03:58.000Z</time>
      </trkpt>
      <trkpt lat="44.99116" lon="1.03915">
        <ele>111</ele>
        <time>2017-10-01T09:03:59.000Z</time>
      </trkpt>
      <trkpt lat="44.99114" lon="1.03917">
        <ele>110</ele>
        <time>2017-10-01T09:04:00.000Z</time>
      </trkpt>
      <trkpt lat="44.99112" lon="1.03918">
        <ele>110</ele>
        <time>2017-10-01T09:04:01.000Z</time>
      </trkpt>
      <trkpt lat="44.9911" lon="1.0392">
        <ele>110</ele>
        <time>2017-10-01T09:04:02.000Z</time>
      </trkpt>
      <trkpt lat="44.99108" lon="1.03922">
        <ele>110</ele>
        <time>2017-10-01T09:04:03.000Z</time>
      </trkpt>
      <trkpt lat="44.99106" lon="1.03924">
        <ele>110</ele>
        <time>2017-10-01T09:04:04.000Z</time>
      </trkpt>
      <trkpt lat="44.99104" lon="1.03925">
        <ele>110</ele>
        <time>2017-10-01T09:04:05.000Z</time>
      </trkpt>
      <trkpt lat="44.99102" lon="1.03927">
        <ele>109</ele>
        <time>2017-10-01T09:04:06.000Z</time>
      </trkpt>
      <trkpt lat="44.991" lon="1.03929">
        <ele>109</ele>
        <time>2017-10-01T09:04:07.000Z</time>
      </trkpt>
      <trkpt lat="44.99098" lon="1.03931">
        <ele>109</ele>
        <time>2017-10-01T09:04:08.000Z</time>
      </trkpt>
      <trkpt lat="44.99095" lon="1.03933">
        <ele>109</ele>
        <time>2017-10-01T09:04:09.000Z</time>
      </trkpt>
      <trkpt lat="44.99093" lon="1.03936">
        <ele>109</ele>
        <time>2017-10-01T09:04:10.000Z</time>
      </trkpt>
      <trkpt lat="44.99091" lon="1.03939">
        <ele>108</ele>
        <time>2017-10-01T09:04:11.000Z</time>
      </trkpt>
      <trkpt lat="44.99089" lon="1.03941">
        <ele>108</ele>
        <time>2017-10-01T09:04:12.000Z</time>
      </trkpt>
      <trkpt lat="44.99086" lon="1.03943">
        <ele>108</ele>
        <time>2017-10-01T09:04:13.000Z</time>
      </trkpt>
      <trkpt lat="44.99084" lon="1.03945">
        <ele>107</ele>
        <time>2017-10-01T09:04:14.000Z</time>
      </trkpt>
      <trkpt lat="44.99081" lon="1.03947">
        <ele>108</ele>
        <time>2017-10-01T09:04:15.000Z</time>
      </trkpt>
      <trkpt lat="44.99079" lon="1.03949">
        <ele>108</ele>
        <time>2017-10-01T09:04:16.000Z</time>
      </trkpt>
      <trkpt lat="44.99077" lon="1.03952">
        <ele>108</ele>
        <time>2017-10-01T09:04:17.000Z</time>
      </trkpt>
      <trkpt lat="44.99076" lon="1.03956">
        <ele>108</ele>
        <time>2017-10-01T09:04:18.000Z</time>
      </trkpt>
      <trkpt lat="44.99075" lon="1.0396">
        <ele>108</ele>
        <time>2017-10-01T09:04:19.000Z</time>
      </trkpt>
      <trkpt lat="44.99075" lon="1.03965">
        <ele>108</ele>
        <time>2017-10-01T09:04:20.000Z</time>
      </trkpt>
      <trkpt lat="44.99075" lon="1.03969">
        <ele>108</ele>
        <time>2017-10-01T09:04:21.000Z</time>
      </trkpt>
      <trkpt lat="44.99074" lon="1.03974">
        <ele>108</ele>
        <time>2017-10-01T09:04:22.000Z</time>
      </trkpt>
      <trkpt lat="44.99073" lon="1.03979">
        <ele>108</ele>
        <time>2017-10-01T09:04:23.000Z</time>
      </trkpt>
      <trkpt lat="44.99072" lon="1.03984">
        <ele>108</ele>
        <time>2017-10-01T09:04:24.000Z</time>
      </trkpt>
      <trkpt lat="44.9907" lon="1.03988">
        <ele>108</ele>
        <time>2017-10-01T09:04:25.000Z</time>
      </trkpt>
      <trkpt lat="44.99069" lon="1.03992">
        <ele>108</ele>
        <time>2017-10-01T09:04:26.000Z</time>
      </trkpt>
      <trkpt lat="44.99067" lon="1.03997">
        <ele>108</ele>
        <time>2017-10-01T09:04:27.000Z</time>
      </trkpt>
      <trkpt lat="44.99066" lon="1.04001">
        <ele>108</ele>
        <time>2017-10-01T09:04:28.000Z</time>
      </trkpt>
      <trkpt lat="44.99064" lon="1.04004">
        <ele>108</ele>
        <time>2017-10-01T09:04:29.000Z</time>
      </trkpt>
      <trkpt lat="44.99063" lon="1.04008">
        <ele>108</ele>
        <time>2017-10-01T09:04:30.000Z</time>
      </trkpt>
      <trkpt lat="44.99062" lon="1.04011">
        <ele>109</ele>
        <time>2017-10-01T09:04:31.000Z</time>
      </trkpt>
      <trkpt lat="44.9906" lon="1.04014">
        <ele>109</ele>
        <time>2017-10-01T09:04:32.000Z</time>
      </trkpt>
      <trkpt lat="44.99059" lon="1.04016">
        <ele>109</ele>
        <time>2017-10-01T09:04:33.000Z</time>
      </trkpt>
      <trkpt lat="44.99057" lon="1.04019">
        <ele>109</ele>
        <time>2017-10-01T09:04:34.000Z</time>
      </trkpt>
      <trkpt lat="44.99055" lon="1.04021">
        <ele>110</ele>
        <time>2017-10-01T09:04:35.000Z</time>
      </trkpt>
      <trkpt lat="44.99054" lon="1.04023">
        <ele>110</ele>
        <time>2017-10-01T09:04:36.000Z</time>
      </trkpt>
      <trkpt lat="44.99052" lon="1.04025">
        <ele>110</ele>
        <time>2017-10-01T09:04:37.000Z</time>
      </trkpt>
      <trkpt lat="44.99051" lon="1.04027">
        <ele>110</ele>
        <time>2017-10-01T09:04:38.000Z</time>
      </trkpt>
      <trkpt lat="44.99049" lon="1.0403">
        <ele>110</ele>
        <time>2017-10-01T09:04:39.000Z</time>
      </trkpt>
      <trkpt lat="44.99048" lon="1.04033">
        <ele>111</ele>
        <time>2017-10-01T09:04:40.000Z</time>
      </trkpt>
      <trkpt lat="44.99047" lon="1.04037">
        <ele>111</ele>
        <time>2017-10-01T09:04:41.000Z</time>
      </trkpt>
      <trkpt lat="44.99046" lon="1.04041">
        <ele>111</ele>
        <time>2017-10-01T09:04:42.000Z</time>
      </trkpt>
      <trkpt lat="44.99045" lon="1.04045">
        <ele>111</ele>
        <time>2017-10-01T09:04:43.000Z</time>
      </trkpt>
      <trkpt lat="44.99044" lon="1.04049">
        <ele>111</ele>
        <time>2017-10-01T09:04:44.000Z</time>
      </trkpt>
      <trkpt lat="44.99042" lon="1.04053">
        <ele>111</ele>
        <time>2017-10-01T09:04:45.000Z</time>
      </trkpt>
      <trkpt lat="44.99041" lon="1.04056">
        <ele>111</ele>
        <time>2017-10-01T09:04:46.000Z</time>
      </trkpt>
      <trkpt lat="44.99039" lon="1.04059">
        <ele>111</ele>
        <time>2017-10-01T09:04:47.000Z</time>
      </trkpt>
      <trkpt lat="44.99037" lon="1.04062">
        <ele>111</ele>
        <time>2017-10-01T09:04:48.000Z</time>
      </trkpt>
      <trkpt lat="44.99035" lon="1.04065">
        <ele>111</ele>
        <time>2017-10-01T09:04:49.000Z</time>
      </trkpt>
      <trkpt lat="44.99033" lon="1.04067">
        <ele>111</ele>
        <time>2017-10-01T09:04:50.000Z</time>
      </trkpt>
      <trkpt lat="44.99031" lon="1.04069">
        <ele>111</ele>
        <time>2017-10-01T09:04:51.000Z</time>
      </trkpt>
      <trkpt lat="44.99028" lon="1.04072">
        <ele>111</ele>
        <time>2017-10-01T09:04:52.000Z</time>
      </trkpt>
      <trkpt lat="44.99026" lon="1.04074">
        <ele>111</ele>
        <time>2017-10-01T09:04:53.000Z</time>
      </trkpt>
      <trkpt lat="44.99025" lon="1.04077">
        <ele>111</ele>
        <time>2017-10-01T09:04:54.000Z</time>
      </trkpt>
      <trkpt lat="44.99024" lon="1.0408">
        <ele>110</ele>
        <time>2017-10-01T09:04:55.000Z</time>
      </trkpt>
      <trkpt lat="44.99024" lon="1.04084">
        <ele>110</ele>
        <time>2017-10-01T09:04:56.000Z</time>
      </trkpt>
      <trkpt lat="44.99023" lon="1.04088">
        <ele>110</ele>
        <time>2017-10-01T09:04:57.000Z</time>
      </trkpt>
      <trkpt lat="44.99022" lon="1.04091">
        <ele>110</ele>
        <time>2017-10-01T09:04:58.000Z</time>
      </trkpt>
      <trkpt lat="44.99021" lon="1.04095">
        <ele>110</ele>
        <time>2017-10-01T09:04:59.000Z</time>
      </trkpt>
      <trkpt lat="44.99019" lon="1.04098">
        <ele>110</ele>
        <time>2017-10-01T09:05:00.000Z</time>
      </trkpt>
      <trkpt lat="44.99017" lon="1.04101">
        <ele>110</ele>
        <time>2017-10-01T09:05:01.000Z</time>
      </trkpt>
      <trkpt lat="44.99015" lon="1.04104">
        <ele>110</ele>
        <time>2017-10-01T09:05:02.000Z</time>
      </trkpt>
      <trkpt lat="44.99013" lon="1.04105">
        <ele>110</ele>
        <time>2017-10-01T09:05:03.000Z</time>
      </trkpt>
      <trkpt lat="44.9901" lon="1.04106">
        <ele>110</ele>
        <time>2017-10-01T09:05:04.000Z</time>
      </trkpt>
      <trkpt lat="44.99008" lon="1.04107">
        <ele>110</ele>
        <time>2017-10-01T09:05:05.000Z</time>
      </trkpt>
      <trkpt lat="44.99006" lon="1.04109">
        <ele>110</ele>
        <time>2017-10-01T09:05:06.000Z</time>
      </trkpt>
      <trkpt lat="44.99005" lon="1.04112">
        <ele>110</ele>
        <time>2017-10-01T09:05:07.000Z</time>
      </trkpt>
      <trkpt lat="44.99003" lon="1.04115">
        <ele>110</ele>
        <time>2017-10-01T09:05:08.000Z</time>
      </trkpt>
      <trkpt lat="44.99002" lon="1.04118">
        <ele>109</ele>
        <time>2017-10-01T09:05:09.000Z</time>
      </trkpt>
      <trkpt lat="44.99" lon="1.04121">
        <ele>109</ele>
        <time>2017-10-01T09:05:10.000Z</time>
      </trkpt>
      <trkpt lat="44.98998" lon="1.04124">
        <ele>109</ele>
        <time>2017-10-01T09:05:11.000Z</time>
      </trkpt>
      <trkpt lat="44.98996" lon="1.04126">
        <ele>110</ele>
        <time>2017-10-01T09:05:12.000Z</time>
      </trkpt>
      <trkpt lat="44.98994" lon="1.04129">
        <ele>110</ele>
        <time>2017-10-01T09:05:13.000Z</time>
      </trkpt>
      <trkpt lat="44.98992" lon="1.04132">
        <ele>110</ele>
        <time>2017-10-01T09:05:14.000Z</time>
      </trkpt>
      <trkpt lat="44.9899" lon="1.04135">
        <ele>110</ele>
        <time>2017-10-01T09:05:15.000Z</time>
      </trkpt>
      <trkpt lat="44.98988" lon="1.04139">
        <ele>111</ele>
        <time>2017-10-01T09:05:16.000Z</time>
      </trkpt>
      <trkpt lat="44.98987" lon="1.04144">
        <ele>111</ele>
        <time>2017-10-01T09:05:17.000Z</time>
      </trkpt>
      <trkpt lat="44.98986" lon="1.04149">
        <ele>111</ele>
        <time>2017-10-01T09:05:18.000Z</time>
      </trkpt>
      <trkpt lat="44.98985" lon="1.04154">
        <ele>111</ele>
        <time>2017-10-01T09:05:19.000Z</time>
      </trkpt>
      <trkpt lat="44.98984" lon="1.04159">
        <ele>111</ele>
        <time>2017-10-01T09:05:20.000Z</time>
      </trkpt>
      <trkpt lat="44.98983" lon="1.04164">
        <ele>111</ele>
        <time>2017-10-01T09:05:21.000Z</time>
      </trkpt>
      <trkpt lat="44.98982" lon="1.04169">
        <ele>110</ele>
        <time>2017-10-01T09:05:22.000Z</time>
      </trkpt>
      <trkpt lat="44.98981" lon="1.04174">
        <ele>110</ele>
        <time>2017-10-01T09:05:23.000Z</time>
      </trkpt>
      <trkpt lat="44.98981" lon="1.04179">
        <ele>110</ele>
        <time>2017-10-01T09:05:24.000Z</time>
      </trkpt>
      <trkpt lat="44.9898" lon="1.04184">
        <ele>110</ele>
        <time>2017-10-01T09:05:25.000Z</time>
      </trkpt>
      <trkpt lat="44.98978" lon="1.04188">
        <ele>110</ele>
        <time>2017-10-01T09:05:26.000Z</time>
      </trkpt>
      <trkpt lat="44.98977" lon="1.04193">
        <ele>110</ele>
        <time>2017-10-01T09:05:27.000Z</time>
      </trkpt>
      <trkpt lat="44.98976" lon="1.04197">
        <ele>110</ele>
        <time>2017-10-01T09:05:28.000Z</time>
      </trkpt>
      <trkpt lat="44.98974" lon="1.04201">
        <ele>111</ele>
        <time>2017-10-01T09:05:29.000Z</time>
      </trkpt>
      <trkpt lat="44.98972" lon="1.04206">
        <ele>111</ele>
        <time>2017-10-01T09:05:30.000Z</time>
      </trkpt>
      <trkpt lat="44.9897" lon="1.0421">
        <ele>111</ele>
        <time>2017-10-01T09:05:31.000Z</time>
      </trkpt>
      <trkpt lat="44.98968" lon="1.04214">
        <ele>111</ele>
        <time>2017-10-01T09:05:32.000Z</time>
      </trkpt>
      <trkpt lat="44.98966" lon="1.04218">
        <ele>111</ele>
        <time>2017-10-01T09:05:33.000Z</time>
      </trkpt>
      <trkpt lat="44.98964" lon="1.04222">
        <ele>111</ele>
        <time>2017-10-01T09:05:34.000Z</time>
      </trkpt>
      <trkpt lat="44.98962" lon="1.04225">
        <ele>111</ele>
        <time>2017-10-01T09:05:35.000Z</time>
      </trkpt>
      <trkpt lat="44.98961" lon="1.04229">
        <ele>112</ele>
        <time>2017-10-01T09:05:36.000Z</time>
      </trkpt>
      <trkpt lat="44.98959" lon="1.04233">
        <ele>112</ele>
        <time>2017-10-01T09:05:37.000Z</time>
      </trkpt>
      <trkpt lat="44.98958" lon="1.04237">
        <ele>112</ele>
        <time>2017-10-01T09:05:38.000Z</time>
      </trkpt>
      <trkpt lat="44.98957" lon="1.04241">
        <ele>112</ele>
        <time>2017-10-01T09:05:39.000Z</time>
      </trkpt>
      <trkpt lat="44.98957" lon="1.04244">
        <ele>112</ele>
        <time>2017-10-01T09:05:40.000Z</time>
      </trkpt>
      <trkpt lat="44.98957" lon="1.04248">
        <ele>111</ele>
        <time>2017-10-01T09:05:41.000Z</time>
      </trkpt>
      <trkpt lat="44.98957" lon="1.04252">
        <ele>111</ele>
        <time>2017-10-01T09:05:42.000Z</time>
      </trkpt>
      <trkpt lat="44.98957" lon="1.04256">
        <ele>111</ele>
        <time>2017-10-01T09:05:43.000Z</time>
      </trkpt>
      <trkpt lat="44.98957" lon="1.04259">
        <ele>111</ele>
        <time>2017-10-01T09:05:44.000Z</time>
      </trkpt>
      <trkpt lat="44.98958" lon="1.04263">
        <ele>110</ele>
        <time>2017-10-01T09:05:45.000Z</time>
      </trkpt>
      <trkpt lat="44.98958" lon="1.04266">
        <ele>110</ele>
        <time>2017-10-01T09:05:46.000Z</time>
      </trkpt>
      <trkpt lat="44.98958" lon="1.0427">
        <ele>110</ele>
        <time>2017-10-01T09:05:47.000Z</time>
      </trkpt>
      <trkpt lat="44.98958" lon="1.04274">
        <ele>109</ele>
        <time>2017-10-01T09:05:48.000Z</time>
      </trkpt>
      <trkpt lat="44.98957" lon="1.04279">
        <ele>109</ele>
        <time>2017-10-01T09:05:49.000Z</time>
      </trkpt>
      <trkpt lat="44.98956" lon="1.04284">
        <ele>109</ele>
        <time>2017-10-01T09:05:50.000Z</time>
      </trkpt>
      <trkpt lat="44.98954" lon="1.0429">
        <ele>109</ele>
        <time>2017-10-01T09:05:51.000Z</time>
      </trkpt>
      <trkpt lat="44.98952" lon="1.04296">
        <ele>108</ele>
        <time>2017-10-01T09:05:52.000Z</time>
      </trkpt>
      <trkpt lat="44.9895" lon="1.04302">
        <ele>108</ele>
        <time>2017-10-01T09:05:53.000Z</time>
      </trkpt>
      <trkpt lat="44.98948" lon="1.04307">
        <ele>108</ele>
        <time>2017-10-01T09:05:54.000Z</time>
      </trkpt>
      <trkpt lat="44.98946" lon="1.0431">
        <ele>107</ele>
        <time>2017-10-01T09:05:55.000Z</time>
      </trkpt>
      <trkpt lat="44.98944" lon="1.04313">
        <ele>107</ele>
        <time>2017-10-01T09:05:56.000Z</time>
      </trkpt>
      <trkpt lat="44.98942" lon="1.04315">
        <ele>107</ele>
        <time>2017-10-01T09:05:57.000Z</time>
      </trkpt>
      <trkpt lat="44.9894" lon="1.04318">
        <ele>107</ele>
        <time>2017-10-01T09:05:58.000Z</time>
      </trkpt>
      <trkpt lat="44.98938" lon="1.04321">
        <ele>107</ele>
        <time>2017-10-01T09:05:59.000Z</time>
      </trkpt>
      <trkpt lat="44.98934" lon="1.04324">
        <ele>106</ele>
        <time>2017-10-01T09:06:00.000Z</time>
      </trkpt>
      <trkpt lat="44.98931" lon="1.04328">
        <ele>106</ele>
        <time>2017-10-01T09:06:01.000Z</time>
      </trkpt>
      <trkpt lat="44.98927" lon="1.04332">
        <ele>106</ele>
        <time>2017-10-01T09:06:02.000Z</time>
      </trkpt>
      <trkpt lat="44.98924" lon="1.04335">
        <ele>105</ele>
        <time>2017-10-01T09:06:03.000Z</time>
      </trkpt>
      <trkpt lat="44.98921" lon="1.04338">
        <ele>105</ele>
        <time>2017-10-01T09:06:04.000Z</time>
      </trkpt>
      <trkpt lat="44.98919" lon="1.04341">
        <ele>105</ele>
        <time>2017-10-01T09:06:05.000Z</time>
      </trkpt>
      <trkpt lat="44.98918" lon="1.04343">
        <ele>104</ele>
        <time>2017-10-01T09:06:06.000Z</time>
      </trkpt>
      <trkpt lat="44.98917" lon="1.04345">
        <ele>104</ele>
        <time>2017-10-01T09:06:07.000Z</time>
      </trkpt>
      <trkpt lat="44.98916" lon="1.04346">
        <ele>104</ele>
        <time>2017-10-01T09:06:08.000Z</time>
      </trkpt>
      <trkpt lat="44.98915" lon="1.04348">
        <ele>104</ele>
        <time>2017-10-01T09:06:09.000Z</time>
      </trkpt>
      <trkpt lat="44.98915" lon="1.0435">
        <ele>104</ele>
        <time>2017-10-01T09:06:10.000Z</time>
      </trkpt>
      <trkpt lat="44.98914" lon="1.04351">
        <ele>103</ele>
        <time>2017-10-01T09:06:11.000Z</time>
      </trkpt>
      <trkpt lat="44.98913" lon="1.04353">
        <ele>103</ele>
        <time>2017-10-01T09:06:12.000Z</time>
      </trkpt>
      <trkpt lat="44.98913" lon="1.04354">
        <ele>103</ele>
        <time>2017-10-01T09:06:13.000Z</time>
      </trkpt>
      <trkpt lat="44.98912" lon="1.04355">
        <ele>103</ele>
        <time>2017-10-01T09:06:14.000Z</time>
      </trkpt>
      <trkpt lat="44.9891" lon="1.04357">
        <ele>103</ele>
        <time>2017-10-01T09:06:15.000Z</time>
      </trkpt>
      <trkpt lat="44.98909" lon="1.04358">
        <ele>103</ele>
        <time>2017-10-01T09:06:16.000Z</time>
      </trkpt>
      <trkpt lat="44.98907" lon="1.0436">
        <ele>103</ele>
        <time>2017-10-01T09:06:17.000Z</time>
      </trkpt>
      <trkpt lat="44.98905" lon="1.04362">
        <ele>103</ele>
        <time>2017-10-01T09:06:18.000Z</time>
      </trkpt>
      <trkpt lat="44.98902" lon="1.04364">
        <ele>103</ele>
        <time>2017-10-01T09:06:19.000Z</time>
      </trkpt>
      <trkpt lat="44.989" lon="1.04367">
        <ele>103</ele>
        <time>2017-10-01T09:06:20.000Z</time>
      </trkpt>
      <trkpt lat="44.98897" lon="1.04369">
        <ele>103</ele>
        <time>2017-10-01T09:06:21.000Z</time>
      </trkpt>
      <trkpt lat="44.98895" lon="1.04372">
        <ele>103</ele>
        <time>2017-10-01T09:06:22.000Z</time>
      </trkpt>
      <trkpt lat="44.98893" lon="1.04375">
        <ele>103</ele>
        <time>2017-10-01T09:06:23.000Z</time>
      </trkpt>
      <trkpt lat="44.98891" lon="1.04378">
        <ele>103</ele>
        <time>2017-10-01T09:06:24.000Z</time>
      </trkpt>
      <trkpt lat="44.98889" lon="1.0438">
        <ele>103</ele>
        <time>2017-10-01T09:06:25.000Z</time>
      </trkpt>
      <trkpt lat="44.98887" lon="1.04383">
        <ele>102</ele>
        <time>2017-10-01T09:06:26.000Z</time>
      </trkpt>
      <trkpt lat="44.98884" lon="1.04386">
        <ele>102</ele>
        <time>2017-10-01T09:06:27.000Z</time>
      </trkpt>
      <trkpt lat="44.98882" lon="1.04388">
        <ele>102</ele>
        <time>2017-10-01T09:06:28.000Z</time>
      </trkpt>
      <trkpt lat="44.98879" lon="1.04389">
        <ele>102</ele>
        <time>2017-10-01T09:06:29.000Z</time>
      </trkpt>
      <trkpt lat="44.98876" lon="1.04391">
        <ele>103</ele>
        <time>2017-10-01T09:06:30.000Z</time>
      </trkpt>
      <trkpt lat="44.98873" lon="1.04392">
        <ele>103</ele>
        <time>2017-10-01T09:06:31.000Z</time>
      </trkpt>
      <trkpt lat="44.9887" lon="1.04393">
        <ele>103</ele>
        <time>2017-10-01T09:06:32.000Z</time>
      </trkpt>
      <trkpt lat="44.98868" lon="1.04393">
        <ele>103</ele>
        <time>2017-10-01T09:06:33.000Z</time>
      </trkpt>
      <trkpt lat="44.98865" lon="1.04394">
        <ele>104</ele>
        <time>2017-10-01T09:06:34.000Z</time>
      </trkpt>
      <trkpt lat="44.98864" lon="1.04394">
        <ele>104</ele>
        <time>2017-10-01T09:06:35.000Z</time>
      </trkpt>
      <trkpt lat="44.98862" lon="1.04394">
        <ele>104</ele>
        <time>2017-10-01T09:06:36.000Z</time>
      </trkpt>
      <trkpt lat="44.98861" lon="1.04394">
        <ele>104</ele>
        <time>2017-10-01T09:06:37.000Z</time>
      </trkpt>
      <trkpt lat="44.9886" lon="1.04394">
        <ele>104</ele>
        <time>2017-10-01T09:06:38.000Z</time>
      </trkpt>
      <trkpt lat="44.98858" lon="1.04395">
        <ele>104</ele>
        <time>2017-10-01T09:06:39.000Z</time>
      </trkpt>
      <trkpt lat="44.98856" lon="1.04397">
        <ele>104</ele>
        <time>2017-10-01T09:06:40.000Z</time>
      </trkpt>
      <trkpt lat="44.98854" lon="1.04399">
        <ele>104</ele>
        <time>2017-10-01T09:06:41.000Z</time>
      </trkpt>
      <trkpt lat="44.98853" lon="1.04402">
        <ele>104</ele>
        <time>2017-10-01T09:06:42.000Z</time>
      </trkpt>
      <trkpt lat="44.98852" lon="1.04404">
        <ele>104</ele>
        <time>2017-10-01T09:06:43.000Z</time>
      </trkpt>
      <trkpt lat="44.98852" lon="1.04406">
        <ele>103</ele>
        <time>2017-10-01T09:06:44.000Z</time>
      </trkpt>
      <trkpt lat="44.98851" lon="1.04409">
        <ele>103</ele>
        <time>2017-10-01T09:06:45.000Z</time>
      </trkpt>
      <trkpt lat="44.9885" lon="1.04411">
        <ele>103</ele>
        <time>2017-10-01T09:06:46.000Z</time>
      </trkpt>
      <trkpt lat="44.98848" lon="1.04414">
        <ele>102</ele>
        <time>2017-10-01T09:06:47.000Z</time>
      </trkpt>
      <trkpt lat="44.98846" lon="1.04418">
        <ele>102</ele>
        <time>2017-10-01T09:06:48.000Z</time>
      </trkpt>
      <trkpt lat="44.98844" lon="1.04421">
        <ele>102</ele>
        <time>2017-10-01T09:06:49.000Z</time>
      </trkpt>
      <trkpt lat="44.98841" lon="1.04425">
        <ele>101</ele>
        <time>2017-10-01T09:06:50.000Z</time>
      </trkpt>
      <trkpt lat="44.98838" lon="1.04428">
        <ele>101</ele>
        <time>2017-10-01T09:06:51.000Z</time>
      </trkpt>
      <trkpt lat="44.98836" lon="1.04432">
        <ele>101</ele>
        <time>2017-10-01T09:06:52.000Z</time>
      </trkpt>
      <trkpt lat="44.98833" lon="1.04435">
        <ele>100</ele>
        <time>2017-10-01T09:06:53.000Z</time>
      </trkpt>
      <trkpt lat="44.9883" lon="1.04439">
        <ele>100</ele>
        <time>2017-10-01T09:06:54.000Z</time>
      </trkpt>
      <trkpt lat="44.98827" lon="1.04442">
        <ele>100</ele>
        <time>2017-10-01T09:06:55.000Z</time>
      </trkpt>
      <trkpt lat="44.98824" lon="1.04444">
        <ele>100</ele>
        <time>2017-10-01T09:06:56.000Z</time>
      </trkpt>
      <trkpt lat="44.98821" lon="1.04447">
        <ele>100</ele>
        <time>2017-10-01T09:06:57.000Z</time>
      </trkpt>
      <trkpt lat="44.98819" lon="1.04448">
        <ele>100</ele>
        <time>2017-10-01T09:06:58.000Z</time>
      </trkpt>
      <trkpt lat="44.98816" lon="1.04449">
        <ele>100</ele>
        <time>2017-10-01T09:06:59.000Z</time>
      </trkpt>
      <trkpt lat="44.98813" lon="1.0445">
        <ele>100</ele>
        <time>2017-10-01T09:07:00.000Z</time>
      </trkpt>
      <trkpt lat="44.98811" lon="1.04451">
        <ele>100</ele>
        <time>2017-10-01T09:07:01.000Z</time>
      </trkpt>
      <trkpt lat="44.98808" lon="1.04453">
        <ele>100</ele>
        <time>2017-10-01T09:07:02.000Z</time>
      </trkpt>
      <trkpt lat="44.98806" lon="1.04455">
        <ele>100</ele>
        <time>2017-10-01T09:07:03.000Z</time>
      </trkpt>
      <trkpt lat="44.98803" lon="1.04458">
        <ele>100</ele>
        <time>2017-10-01T09:07:04.000Z</time>
      </trkpt>
      <trkpt lat="44.98801" lon="1.04462">
        <ele>99</ele>
        <time>2017-10-01T09:07:05.000Z</time>
      </trkpt>
      <trkpt lat="44.98799" lon="1.04466">
        <ele>99</ele>
        <time>2017-10-01T09:07:06.000Z</time>
      </trkpt>
      <trkpt lat="44.98796" lon="1.0447">
        <ele>98</ele>
        <time>2017-10-01T09:07:07.000Z</time>
      </trkpt>
      <trkpt lat="44.98794" lon="1.04474">
        <ele>98</ele>
        <time>2017-10-01T09:07:08.000Z</time>
      </trkpt>
      <trkpt lat="44.98792" lon="1.04478">
        <ele>97</ele>
        <time>2017-10-01T09:07:09.000Z</time>
      </trkpt>
      <trkpt lat="44.9879" lon="1.04482">
        <ele>97</ele>
        <time>2017-10-01T09:07:10.000Z</time>
      </trkpt>
      <trkpt lat="44.98789" lon="1.04485">
        <ele>97</ele>
        <time>2017-10-01T09:07:11.000Z</time>
      </trkpt>
      <trkpt lat="44.98787" lon="1.04488">
        <ele>96</ele>
        <time>2017-10-01T09:07:12.000Z</time>
      </trkpt>
      <trkpt lat="44.98785" lon="1.04491">
        <ele>96</ele>
        <time>2017-10-01T09:07:13.000Z</time>
      </trkpt>
      <trkpt lat="44.98783" lon="1.04494">
        <ele>96</ele>
        <time>2017-10-01T09:07:14.000Z</time>
      </trkpt>
      <trkpt lat="44.98782" lon="1.04498">
        <ele>95</ele>
        <time>2017-10-01T09:07:15.000Z</time>
      </trkpt>
      <trkpt lat="44.9878" lon="1.04502">
        <ele>95</ele>
        <time>2017-10-01T09:07:16.000Z</time>
      </trkpt>
      <trkpt lat="44.98778" lon="1.04506">
        <ele>95</ele>
        <time>2017-10-01T09:07:17.000Z</time>
      </trkpt>
      <trkpt lat="44.98776" lon="1.04511">
        <ele>95</ele>
        <time>2017-10-01T09:07:18.000Z</time>
      </trkpt>
      <trkpt lat="44.98774" lon="1.04515">
        <ele>96</ele>
        <time>2017-10-01T09:07:19.000Z</time>
      </trkpt>
      <trkpt lat="44.98773" lon="1.0452">
        <ele>96</ele>
        <time>2017-10-01T09:07:20.000Z</time>
      </trkpt>
      <trkpt lat="44.98771" lon="1.04525">
        <ele>96</ele>
        <time>2017-10-01T09:07:21.000Z</time>
      </trkpt>
      <trkpt lat="44.9877" lon="1.0453">
        <ele>96</ele>
        <time>2017-10-01T09:07:22.000Z</time>
      </trkpt>
      <trkpt lat="44.98769" lon="1.04534">
        <ele>96</ele>
        <time>2017-10-01T09:07:23.000Z</time>
      </trkpt>
      <trkpt lat="44.98768" lon="1.04538">
        <ele>96</ele>
        <time>2017-10-01T09:07:24.000Z</time>
      </trkpt>
      <trkpt lat="44.98768" lon="1.04542">
        <ele>96</ele>
        <time>2017-10-01T09:07:25.000Z</time>
      </trkpt>
      <trkpt lat="44.98767" lon="1.04546">
        <ele>96</ele>
        <time>2017-10-01T09:07:26.000Z</time>
      </trkpt>
      <trkpt lat="44.98766" lon="1.0455">
        <ele>95</ele>
        <time>2017-10-01T09:07:27.000Z</time>
      </trkpt>
      <trkpt lat="44.98765" lon="1.04554">
        <ele>95</ele>
        <time>2017-10-01T09:07:28.000Z</time>
      </trkpt>
      <trkpt lat="44.98764" lon="1.04558">
        <ele>95</ele>
        <time>2017-10-01T09:07:29.000Z</time>
      </trkpt>
      <trkpt lat="44.98763" lon="1.04562">
        <ele>95</ele>
        <time>2017-10-01T09:07:30.000Z</time>
      </trkpt>
      <trkpt lat="44.98761" lon="1.04565">
        <ele>95</ele>
        <time>2017-10-01T09:07:31.000Z</time>
      </trkpt>
      <trkpt lat="44.9876" lon="1.04569">
        <ele>95</ele>
        <time>2017-10-01T09:07:32.000Z</time>
      </trkpt>
      <trkpt lat="44.98758" lon="1.04572">
        <ele>95</ele>
        <time>2017-10-01T09:07:33.000Z</time>
      </trkpt>
      <trkpt lat="44.98757" lon="1.04576">
        <ele>95</ele>
        <time>2017-10-01T09:07:34.000Z</time>
      </trkpt>
      <trkpt lat="44.98755" lon="1.0458">
        <ele>95</ele>
        <time>2017-10-01T09:07:35.000Z</time>
      </trkpt>
      <trkpt lat="44.98754" lon="1.04584">
        <ele>95</ele>
        <time>2017-10-01T09:07:36.000Z</time>
      </trkpt>
      <trkpt lat="44.98752" lon="1.04588">
        <ele>94</ele>
        <time>2017-10-01T09:07:37.000Z</time>
      </trkpt>
      <trkpt lat="44.98751" lon="1.04591">
        <ele>94</ele>
        <time>2017-10-01T09:07:38.000Z</time>
      </trkpt>
      <trkpt lat="44.9875" lon="1.04596">
        <ele>94</ele>
        <time>2017-10-01T09:07:39.000Z</time>
      </trkpt>
      <trkpt lat="44.98749" lon="1.046">
        <ele>93</ele>
        <time>2017-10-01T09:07:40.000Z</time>
      </trkpt>
      <trkpt lat="44.98748" lon="1.04604">
        <ele>93</ele>
        <time>2017-10-01T09:07:41.000Z</time>
      </trkpt>
      <trkpt lat="44.98747" lon="1.04608">
        <ele>93</ele>
        <time>2017-10-01T09:07:42.000Z</time>
      </trkpt>
      <trkpt lat="44.98746" lon="1.04613">
        <ele>93</ele>
        <time>2017-10-01T09:07:43.000Z</time>
      </trkpt>
      <trkpt lat="44.98745" lon="1.04617">
        <ele>93</ele>
        <time>2017-10-01T09:07:44.000Z</time>
      </trkpt>
      <trkpt lat="44.98744" lon="1.04621">
        <ele>93</ele>
        <time>2017-10-01T09:07:45.000Z</time>
      </trkpt>
      <trkpt lat="44.98742" lon="1.04625">
        <ele>93</ele>
        <time>2017-10-01T09:07:46.000Z</time>
      </trkpt>
      <trkpt lat="44.9874" lon="1.04628">
        <ele>93</ele>
        <time>2017-10-01T09:07:47.000Z</time>
      </trkpt>
      <trkpt lat="44.98739" lon="1.04632">
        <ele>93</ele>
        <time>2017-10-01T09:07:48.000Z</time>
      </trkpt>
      <trkpt lat="44.98737" lon="1.04635">
        <ele>93</ele>
        <time>2017-10-01T09:07:49.000Z</time>
      </trkpt>
      <trkpt lat="44.98735" lon="1.04639">
        <ele>93</ele>
        <time>2017-10-01T09:07:50.000Z</time>
      </trkpt>
      <trkpt lat="44.98733" lon="1.04642">
        <ele>93</ele>
        <time>2017-10-01T09:07:51.000Z</time>
      </trkpt>
      <trkpt lat="44.98731" lon="1.04646">
        <ele>93</ele>
        <time>2017-10-01T09:07:52.000Z</time>
      </trkpt>
      <trkpt lat="44.98729" lon="1.04649">
        <ele>93</ele>
        <time>2017-10-01T09:07:53.000Z</time>
      </trkpt>
      <trkpt lat="44.98727" lon="1.04652">
        <ele>93</ele>
        <time>2017-10-01T09:07:54.000Z</time>
      </trkpt>
      <trkpt lat="44.98726" lon="1.04656">
        <ele>93</ele>
        <time>2017-10-01T09:07:55.000Z</time>
      </trkpt>
      <trkpt lat="44.98724" lon="1.04659">
        <ele>93</ele>
        <time>2017-10-01T09:07:56.000Z</time>
      </trkpt>
      <trkpt lat="44.98722" lon="1.04662">
        <ele>92</ele>
        <time>2017-10-01T09:07:57.000Z</time>
      </trkpt>
      <trkpt lat="44.9872" lon="1.04665">
        <ele>92</ele>
        <time>2017-10-01T09:07:58.000Z</time>
      </trkpt>
      <trkpt lat="44.98718" lon="1.04668">
        <ele>92</ele>
        <time>2017-10-01T09:07:59.000Z</time>
      </trkpt>
      <trkpt lat="44.98716" lon="1.04671">
        <ele>93</ele>
        <time>2017-10-01T09:08:00.000Z</time>
      </trkpt>
      <trkpt lat="44.98714" lon="1.04675">
        <ele>93</ele>
        <time>2017-10-01T09:08:01.000Z</time>
      </trkpt>
      <trkpt lat="44.98713" lon="1.04678">
        <ele>93</ele>
        <time>2017-10-01T09:08:02.000Z</time>
      </trkpt>
      <trkpt lat="44.98711" lon="1.04682">
        <ele>93</ele>
        <time>2017-10-01T09:08:03.000Z</time>
      </trkpt>
      <trkpt lat="44.98709" lon="1.04687">
        <ele>93</ele>
        <time>2017-10-01T09:08:04.000Z</time>
      </trkpt>
      <trkpt lat="44.98707" lon="1.04692">
        <ele>92</ele>
        <time>2017-10-01T09:08:05.000Z</time>
      </trkpt>
      <trkpt lat="44.98705" lon="1.04698">
        <ele>92</ele>
        <time>2017-10-01T09:08:06.000Z</time>
      </trkpt>
      <trkpt lat="44.98703" lon="1.04703">
        <ele>92</ele>
        <time>2017-10-01T09:08:07.000Z</time>
      </trkpt>
      <trkpt lat="44.98701" lon="1.04709">
        <ele>91</ele>
        <time>2017-10-01T09:08:08.000Z</time>
      </trkpt>
      <trkpt lat="44.98698" lon="1.04715">
        <ele>91</ele>
        <time>2017-10-01T09:08:09.000Z</time>
      </trkpt>
      <trkpt lat="44.98695" lon="1.04721">
        <ele>90</ele>
        <time>2017-10-01T09:08:10.000Z</time>
      </trkpt>
      <trkpt lat="44.98692" lon="1.04727">
        <ele>90</ele>
        <time>2017-10-01T09:08:11.000Z</time>
      </trkpt>
      <trkpt lat="44.98689" lon="1.04733">
        <ele>89</ele>
        <time>2017-10-01T09:08:12.000Z</time>
      </trkpt>
      <trkpt lat="44.98685" lon="1.04739">
        <ele>89</ele>
        <time>2017-10-01T09:08:13.000Z</time>
      </trkpt>
      <trkpt lat="44.98682" lon="1.04745">
        <ele>88</ele>
        <time>2017-10-01T09:08:14.000Z</time>
      </trkpt>
      <trkpt lat="44.9868" lon="1.0475">
        <ele>87</ele>
        <time>2017-10-01T09:08:15.000Z</time>
      </trkpt>
      <trkpt lat="44.98678" lon="1.04756">
        <ele>87</ele>
        <time>2017-10-01T09:08:16.000Z</time>
      </trkpt>
      <trkpt lat="44.98676" lon="1.04761">
        <ele>87</ele>
        <time>2017-10-01T09:08:17.000Z</time>
      </trkpt>
      <trkpt lat="44.98674" lon="1.04766">
        <ele>87</ele>
        <time>2017-10-01T09:08:18.000Z</time>
      </trkpt>
      <trkpt lat="44.98673" lon="1.04771">
        <ele>87</ele>
        <time>2017-10-01T09:08:19.000Z</time>
      </trkpt>
      <trkpt lat="44.98671" lon="1.04775">
        <ele>87</ele>
        <time>2017-10-01T09:08:20.000Z</time>
      </trkpt>
      <trkpt lat="44.9867" lon="1.0478">
        <ele>87</ele>
        <time>2017-10-01T09:08:21.000Z</time>
      </trkpt>
      <trkpt lat="44.98668" lon="1.04784">
        <ele>87</ele>
        <time>2017-10-01T09:08:22.000Z</time>
      </trkpt>
      <trkpt lat="44.98666" lon="1.04787">
        <ele>87</ele>
        <time>2017-10-01T09:08:23.000Z</time>
      </trkpt>
      <trkpt lat="44.98663" lon="1.04791">
        <ele>87</ele>
        <time>2017-10-01T09:08:24.000Z</time>
      </trkpt>
      <trkpt lat="44.98661" lon="1.04793">
        <ele>87</ele>
        <time>2017-10-01T09:08:25.000Z</time>
      </trkpt>
      <trkpt lat="44.98658" lon="1.04796">
        <ele>88</ele>
        <time>2017-10-01T09:08:26.000Z</time>
      </trkpt>
      <trkpt lat="44.98656" lon="1.04798">
        <ele>88</ele>
        <time>2017-10-01T09:08:27.000Z</time>
      </trkpt>
      <trkpt lat="44.98653" lon="1.04799">
        <ele>88</ele>
        <time>2017-10-01T09:08:28.000Z</time>
      </trkpt>
      <trkpt lat="44.98651" lon="1.048">
        <ele>89</ele>
        <time>2017-10-01T09:08:29.000Z</time>
      </trkpt>
      <trkpt lat="44.98649" lon="1.048">
        <ele>89</ele>
        <time>2017-10-01T09:08:30.000Z</time>
      </trkpt>
      <trkpt lat="44.98647" lon="1.048">
        <ele>89</ele>
        <time>2017-10-01T09:08:31.000Z</time>
      </trkpt>
      <trkpt lat="44.98645" lon="1.048">
        <ele>90</ele>
        <time>2017-10-01T09:08:32.000Z</time>
      </trkpt>
      <trkpt lat="44.98643" lon="1.04801">
        <ele>90</ele>
        <time>2017-10-01T09:08:33.000Z</time>
      </trkpt>
      <trkpt lat="44.98642" lon="1.04801">
        <ele>90</ele>
        <time>2017-10-01T09:08:34.000Z</time>
      </trkpt>
      <trkpt lat="44.9864" lon="1.04802">
        <ele>90</ele>
        <time>2017-10-01T09:08:35.000Z</time>
      </trkpt>
      <trkpt lat="44.98639" lon="1.04803">
        <ele>90</ele>
        <time>2017-10-01T09:08:36.000Z</time>
      </trkpt>
      <trkpt lat="44.98637" lon="1.04806">
        <ele>90</ele>
        <time>2017-10-01T09:08:37.000Z</time>
      </trkpt>
      <trkpt lat="44.98635" lon="1.0481">
        <ele>91</ele>
        <time>2017-10-01T09:08:38.000Z</time>
      </trkpt>
      <trkpt lat="44.98633" lon="1.04814">
        <ele>91</ele>
        <time>2017-10-01T09:08:39.000Z</time>
      </trkpt>
      <trkpt lat="44.98631" lon="1.04818">
        <ele>91</ele>
        <time>2017-10-01T09:08:40.000Z</time>
      </trkpt>
      <trkpt lat="44.98629" lon="1.04822">
        <ele>91</ele>
        <time>2017-10-01T09:08:41.000Z</time>
      </trkpt>
      <trkpt lat="44.98627" lon="1.04825">
        <ele>91</ele>
        <time>2017-10-01T09:08:42.000Z</time>
      </trkpt>
      <trkpt lat="44.98624" lon="1.04828">
        <ele>91</ele>
        <time>2017-10-01T09:08:43.000Z</time>
      </trkpt>
      <trkpt lat="44.98622" lon="1.0483">
        <ele>91</ele>
        <time>2017-10-01T09:08:44.000Z</time>
      </trkpt>
      <trkpt lat="44.9862" lon="1.04833">
        <ele>91</ele>
        <time>2017-10-01T09:08:45.000Z</time>
      </trkpt>
      <trkpt lat="44.98618" lon="1.04834">
        <ele>91</ele>
        <time>2017-10-01T09:08:46.000Z</time>
      </trkpt>
      <trkpt lat="44.98616" lon="1.04836">
        <ele>91</ele>
        <time>2017-10-01T09:08:47.000Z</time>
      </trkpt>
      <trkpt lat="44.98614" lon="1.04837">
        <ele>91</ele>
        <time>2017-10-01T09:08:48.000Z</time>
      </trkpt>
      <trkpt lat="44.98612" lon="1.04838">
        <ele>92</ele>
        <time>2017-10-01T09:08:49.000Z</time>
      </trkpt>
      <trkpt lat="44.9861" lon="1.04839">
        <ele>92</ele>
        <time>2017-10-01T09:08:50.000Z</time>
      </trkpt>
      <trkpt lat="44.98608" lon="1.0484">
        <ele>92</ele>
        <time>2017-10-01T09:08:51.000Z</time>
      </trkpt>
      <trkpt lat="44.98607" lon="1.04841">
        <ele>92</ele>
        <time>2017-10-01T09:08:52.000Z</time>
      </trkpt>
      <trkpt lat="44.98605" lon="1.04842">
        <ele>92</ele>
        <time>2017-10-01T09:08:53.000Z</time>
      </trkpt>
      <trkpt lat="44.98604" lon="1.04843">
        <ele>92</ele>
        <time>2017-10-01T09:08:54.000Z</time>
      </trkpt>
      <trkpt lat="44.98603" lon="1.04843">
        <ele>92</ele>
        <time>2017-10-01T09:08:55.000Z</time>
      </trkpt>
      <trkpt lat="44.98602" lon="1.04843">
        <ele>92</ele>
        <time>2017-10-01T09:08:56.000Z</time>
      </trkpt>
      <trkpt lat="44.98601" lon="1.04843">
        <ele>92</ele>
        <time>2017-10-01T09:08:57.000Z</time>
      </trkpt>
      <trkpt lat="44.98599" lon="1.04844">
        <ele>92</ele>
        <time>2017-10-01T09:08:58.000Z</time>
      </trkpt>
      <trkpt lat="44.98598" lon="1.04845">
        <ele>92</ele>
        <time>2017-10-01T09:08:59.000Z</time>
      </trkpt>
      <trkpt lat="44.98596" lon="1.04847">
        <ele>92</ele>
        <time>2017-10-01T09:09:00.000Z</time>
      </trkpt>
      <trkpt lat="44.98594" lon="1.0485">
        <ele>92</ele>
        <time>2017-10-01T09:09:01.000Z</time>
      </trkpt>
      <trkpt lat="44.98592" lon="1.04853">
        <ele>92</ele>
        <time>2017-10-01T09:09:02.000Z</time>
      </trkpt>
      <trkpt lat="44.9859" lon="1.04856">
        <ele>92</ele>
        <time>2017-10-01T09:09:03.000Z</time>
      </trkpt>
      <trkpt lat="44.98588" lon="1.0486">
        <ele>92</ele>
        <time>2017-10-01T09:09:04.000Z</time>
      </trkpt>
      <trkpt lat="44.98585" lon="1.04863">
        <ele>91</ele>
        <time>2017-10-01T09:09:05.000Z</time>
      </trkpt>
      <trkpt lat="44.98583" lon="1.04866">
        <ele>91</ele>
        <time>2017-10-01T09:09:06.000Z</time>
      </trkpt>
      <trkpt lat="44.98581" lon="1.04869">
        <ele>91</ele>
        <time>2017-10-01T09:09:07.000Z</time>
      </trkpt>
      <trkpt lat="44.98579" lon="1.04872">
        <ele>91</ele>
        <time>2017-10-01T09:09:08.000Z</time>
      </trkpt>
      <trkpt lat="44.98578" lon="1.04875">
        <ele>91</ele>
        <time>2017-10-01T09:09:09.000Z</time>
      </trkpt>
      <trkpt lat="44.98576" lon="1.04878">
        <ele>91</ele>
        <time>2017-10-01T09:09:10.000Z</time>
      </trkpt>
      <trkpt lat="44.98574" lon="1.04881">
        <ele>91</ele>
        <time>2017-10-01T09:09:11.000Z</time>
      </trkpt>
      <trkpt lat="44.98572" lon="1.04883">
        <ele>91</ele>
        <time>2017-10-01T09:09:12.000Z</time>
      </trkpt>
      <trkpt lat="44.9857" lon="1.04886">
        <ele>91</ele>
        <time>2017-10-01T09:09:13.000Z</time>
      </trkpt>
      <trkpt lat="44.98568" lon="1.04888">
        <ele>91</ele>
        <time>2017-10-01T09:09:14.000Z</time>
      </trkpt>
      <trkpt lat="44.98567" lon="1.0489">
        <ele>91</ele>
        <time>2017-10-01T09:09:15.000Z</time>
      </trkpt>
      <trkpt lat="44.98565" lon="1.04892">
        <ele>91</ele>
        <time>2017-10-01T09:09:16.000Z</time>
      </trkpt>
      <trkpt lat="44.98563" lon="1.04894">
        <ele>91</ele>
        <time>2017-10-01T09:09:17.000Z</time>
      </trkpt>
      <trkpt lat="44.98562" lon="1.04896">
        <ele>91</ele>
        <time>2017-10-01T09:09:18.000Z</time>
      </trkpt>
      <trkpt lat="44.98561" lon="1.04898">
        <ele>91</ele>
        <time>2017-10-01T09:09:19.000Z</time>
      </trkpt>
      <trkpt lat="44.9856" lon="1.04901">
        <ele>91</ele>
        <time>2017-10-01T09:09:20.000Z</time>
      </trkpt>
      <trkpt lat="44.98558" lon="1.04904">
        <ele>91</ele>
        <time>2017-10-01T09:09:21.000Z</time>
      </trkpt>
      <trkpt lat="44.98556" lon="1.04906">
        <ele>91</ele>
        <time>2017-10-01T09:09:22.000Z</time>
      </trkpt>
      <trkpt lat="44.98553" lon="1.04909">
        <ele>91</ele>
        <time>2017-10-01T09:09:23.000Z</time>
      </trkpt>
      <trkpt lat="44.9855" lon="1.04911">
        <ele>91</ele>
        <time>2017-10-01T09:09:24.000Z</time>
      </trkpt>
      <trkpt lat="44.98546" lon="1.04913">
        <ele>91</ele>
        <time>2017-10-01T09:09:25.000Z</time>
      </trkpt>
      <trkpt lat="44.98543" lon="1.04915">
        <ele>92</ele>
        <time>2017-10-01T09:09:26.000Z</time>
      </trkpt>
      <trkpt lat="44.98539" lon="1.04917">
        <ele>92</ele>
        <time>2017-10-01T09:09:27.000Z</time>
      </trkpt>
      <trkpt lat="44.98536" lon="1.04919">
        <ele>92</ele>
        <time>2017-10-01T09:09:28.000Z</time>
      </trkpt>
      <trkpt lat="44.98533" lon="1.04921">
        <ele>93</ele>
        <time>2017-10-01T09:09:29.000Z</time>
      </trkpt>
      <trkpt lat="44.9853" lon="1.04923">
        <ele>93</ele>
        <time>2017-10-01T09:09:30.000Z</time>
      </trkpt>
      <trkpt lat="44.98526" lon="1.04925">
        <ele>93</ele>
        <time>2017-10-01T09:09:31.000Z</time>
      </trkpt>
      <trkpt lat="44.98523" lon="1.04927">
        <ele>93</ele>
        <time>2017-10-01T09:09:32.000Z</time>
      </trkpt>
      <trkpt lat="44.9852" lon="1.0493">
        <ele>93</ele>
        <time>2017-10-01T09:09:33.000Z</time>
      </trkpt>
      <trkpt lat="44.98517" lon="1.04933">
        <ele>93</ele>
        <time>2017-10-01T09:09:34.000Z</time>
      </trkpt>
      <trkpt lat="44.98513" lon="1.04937">
        <ele>93</ele>
        <time>2017-10-01T09:09:35.000Z</time>
      </trkpt>
      <trkpt lat="44.9851" lon="1.04941">
        <ele>93</ele>
        <time>2017-10-01T09:09:36.000Z</time>
      </trkpt>
      <trkpt lat="44.98506" lon="1.04945">
        <ele>93</ele>
        <time>2017-10-01T09:09:37.000Z</time>
      </trkpt>
      <trkpt lat="44.98503" lon="1.04949">
        <ele>93</ele>
        <time>2017-10-01T09:09:38.000Z</time>
      </trkpt>
      <trkpt lat="44.985" lon="1.04952">
        <ele>92</ele>
        <time>2017-10-01T09:09:39.000Z</time>
      </trkpt>
      <trkpt lat="44.98497" lon="1.04956">
        <ele>92</ele>
        <time>2017-10-01T09:09:40.000Z</time>
      </trkpt>
      <trkpt lat="44.98495" lon="1.04959">
        <ele>92</ele>
        <time>2017-10-01T09:09:41.000Z</time>
      </trkpt>
      <trkpt lat="44.98493" lon="1.04962">
        <ele>92</ele>
        <time>2017-10-01T09:09:42.000Z</time>
      </trkpt>
      <trkpt lat="44.9849" lon="1.04965">
        <ele>92</ele>
        <time>2017-10-01T09:09:43.000Z</time>
      </trkpt>
      <trkpt lat="44.98488" lon="1.04968">
        <ele>92</ele>
        <time>2017-10-01T09:09:44.000Z</time>
      </trkpt>
      <trkpt lat="44.98486" lon="1.0497">
        <ele>92</ele>
        <time>2017-10-01T09:09:45.000Z</time>
      </trkpt>
      <trkpt lat="44.98484" lon="1.04973">
        <ele>92</ele>
        <time>2017-10-01T09:09:46.000Z</time>
      </trkpt>
      <trkpt lat="44.98481" lon="1.04976">
        <ele>91</ele>
        <time>2017-10-01T09:09:47.000Z</time>
      </trkpt>
      <trkpt lat="44.98479" lon="1.04979">
        <ele>91</ele>
        <time>2017-10-01T09:09:48.000Z</time>
      </trkpt>
      <trkpt lat="44.98477" lon="1.04982">
        <ele>91</ele>
        <time>2017-10-01T09:09:49.000Z</time>
      </trkpt>
      <trkpt lat="44.98476" lon="1.04984">
        <ele>91</ele>
        <time>2017-10-01T09:09:50.000Z</time>
      </trkpt>
      <trkpt lat="44.98474" lon="1.04987">
        <ele>91</ele>
        <time>2017-10-01T09:09:51.000Z</time>
      </trkpt>
      <trkpt lat="44.98473" lon="1.04988">
        <ele>91</ele>
        <time>2017-10-01T09:09:52.000Z</time>
      </trkpt>
      <trkpt lat="44.98472" lon="1.0499">
        <ele>91</ele>
        <time>2017-10-01T09:09:53.000Z</time>
      </trkpt>
      <trkpt lat="44.98471" lon="1.04992">
        <ele>91</ele>
        <time>2017-10-01T09:09:54.000Z</time>
      </trkpt>
      <trkpt lat="44.9847" lon="1.04996">
        <ele>90</ele>
        <time>2017-10-01T09:09:55.000Z</time>
      </trkpt>
      <trkpt lat="44.98469" lon="1.05001">
        <ele>90</ele>
        <time>2017-10-01T09:09:56.000Z</time>
      </trkpt>
      <trkpt lat="44.98468" lon="1.05006">
        <ele>89</ele>
        <time>2017-10-01T09:09:57.000Z</time>
      </trkpt>
      <trkpt lat="44.98467" lon="1.05011">
        <ele>89</ele>
        <time>2017-10-01T09:09:58.000Z</time>
      </trkpt>
      <trkpt lat="44.98467" lon="1.05016">
        <ele>89</ele>
        <time>2017-10-01T09:09:59.000Z</time>
      </trkpt>
      <trkpt lat="44.98466" lon="1.05021">
        <ele>88</ele>
        <time>2017-10-01T09:10:00.000Z</time>
      </trkpt>
      <trkpt lat="44.98464" lon="1.05025">
        <ele>88</ele>
        <time>2017-10-01T09:10:01.000Z</time>
      </trkpt>
      <trkpt lat="44.98463" lon="1.05029">
        <ele>88</ele>
        <time>2017-10-01T09:10:02.000Z</time>
      </trkpt>
      <trkpt lat="44.98462" lon="1.05033">
        <ele>88</ele>
        <time>2017-10-01T09:10:03.000Z</time>
      </trkpt>
      <trkpt lat="44.98461" lon="1.05038">
        <ele>88</ele>
        <time>2017-10-01T09:10:04.000Z</time>
      </trkpt>
      <trkpt lat="44.98462" lon="1.05042">
        <ele>87</ele>
        <time>2017-10-01T09:10:05.000Z</time>
      </trkpt>
      <trkpt lat="44.98462" lon="1.05047">
        <ele>87</ele>
        <time>2017-10-01T09:10:06.000Z</time>
      </trkpt>
      <trkpt lat="44.98462" lon="1.05053">
        <ele>86</ele>
        <time>2017-10-01T09:10:07.000Z</time>
      </trkpt>
      <trkpt lat="44.98461" lon="1.05058">
        <ele>86</ele>
        <time>2017-10-01T09:10:08.000Z</time>
      </trkpt>
      <trkpt lat="44.98461" lon="1.05063">
        <ele>86</ele>
        <time>2017-10-01T09:10:09.000Z</time>
      </trkpt>
      <trkpt lat="44.98461" lon="1.05068">
        <ele>85</ele>
        <time>2017-10-01T09:10:10.000Z</time>
      </trkpt>
      <trkpt lat="44.98461" lon="1.05072">
        <ele>85</ele>
        <time>2017-10-01T09:10:11.000Z</time>
      </trkpt>
      <trkpt lat="44.9846" lon="1.05076">
        <ele>85</ele>
        <time>2017-10-01T09:10:12.000Z</time>
      </trkpt>
      <trkpt lat="44.9846" lon="1.0508">
        <ele>85</ele>
        <time>2017-10-01T09:10:13.000Z</time>
      </trkpt>
      <trkpt lat="44.9846" lon="1.05083">
        <ele>84</ele>
        <time>2017-10-01T09:10:14.000Z</time>
      </trkpt>
      <trkpt lat="44.9846" lon="1.05086">
        <ele>84</ele>
        <time>2017-10-01T09:10:15.000Z</time>
      </trkpt>
      <trkpt lat="44.98459" lon="1.05089">
        <ele>84</ele>
        <time>2017-10-01T09:10:16.000Z</time>
      </trkpt>
      <trkpt lat="44.98459" lon="1.05092">
        <ele>84</ele>
        <time>2017-10-01T09:10:17.000Z</time>
      </trkpt>
      <trkpt lat="44.98458" lon="1.05094">
        <ele>84</ele>
        <time>2017-10-01T09:10:18.000Z</time>
      </trkpt>
      <trkpt lat="44.98458" lon="1.05096">
        <ele>84</ele>
        <time>2017-10-01T09:10:19.000Z</time>
      </trkpt>
      <trkpt lat="44.98457" lon="1.05098">
        <ele>84</ele>
        <time>2017-10-01T09:10:20.000Z</time>
      </trkpt>
      <trkpt lat="44.98457" lon="1.051">
        <ele>84</ele>
        <time>2017-10-01T09:10:21.000Z</time>
      </trkpt>
      <trkpt lat="44.98456" lon="1.05102">
        <ele>84</ele>
        <time>2017-10-01T09:10:22.000Z</time>
      </trkpt>
      <trkpt lat="44.98456" lon="1.05103">
        <ele>84</ele>
        <time>2017-10-01T09:10:23.000Z</time>
      </trkpt>
      <trkpt lat="44.98455" lon="1.05105">
        <ele>84</ele>
        <time>2017-10-01T09:10:24.000Z</time>
      </trkpt>
      <trkpt lat="44.98454" lon="1.05107">
        <ele>84</ele>
        <time>2017-10-01T09:10:25.000Z</time>
      </trkpt>
      <trkpt lat="44.98454" lon="1.05108">
        <ele>84</ele>
        <time>2017-10-01T09:10:26.000Z</time>
      </trkpt>
      <trkpt lat="44.98453" lon="1.0511">
        <ele>84</ele>
        <time>2017-10-01T09:10:27.000Z</time>
      </trkpt>
      <trkpt lat="44.98452" lon="1.05111">
        <ele>84</ele>
        <time>2017-10-01T09:10:28.000Z</time>
      </trkpt>
      <trkpt lat="44.98452" lon="1.05113">
        <ele>84</ele>
        <time>2017-10-01T09:10:29.000Z</time>
      </trkpt>
      <trkpt lat="44.98451" lon="1.05114">
        <ele>84</ele>
        <time>2017-10-01T09:10:30.000Z</time>
      </trkpt>
      <trkpt lat="44.98451" lon="1.05116">
        <ele>84</ele>
        <time>2017-10-01T09:10:31.000Z</time>
      </trkpt>
      <trkpt lat="44.9845" lon="1.05118">
        <ele>84</ele>
        <time>2017-10-01T09:10:32.000Z</time>
      </trkpt>
      <trkpt lat="44.98449" lon="1.05119">
        <ele>84</ele>
        <time>2017-10-01T09:10:33.000Z</time>
      </trkpt>
      <trkpt lat="44.98449" lon="1.05121">
        <ele>84</ele>
        <time>2017-10-01T09:10:34.000Z</time>
      </trkpt>
      <trkpt lat="44.98449" lon="1.05122">
        <ele>84</ele>
        <time>2017-10-01T09:10:35.000Z</time>
      </trkpt>
      <trkpt lat="44.98448" lon="1.05123">
        <ele>84</ele>
        <time>2017-10-01T09:10:36.000Z</time>
      </trkpt>
      <trkpt lat="44.98448" lon="1.05124">
        <ele>84</ele>
        <time>2017-10-01T09:10:38.000Z</time>
      </trkpt>
      <trkpt lat="44.98448" lon="1.05124">
        <ele>84</ele>
        <time>2017-10-01T09:10:38.000Z</time>
      </trkpt>
      <trkpt lat="44.98448" lon="1.05125">
        <ele>84</ele>
        <time>2017-10-01T09:10:39.000Z</time>
      </trkpt>
      <trkpt lat="44.98448" lon="1.05128">
        <ele>83</ele>
        <time>2017-10-01T09:10:40.000Z</time>
      </trkpt>
      <trkpt lat="44.98447" lon="1.05131">
        <ele>83</ele>
        <time>2017-10-01T09:10:41.000Z</time>
      </trkpt>
      <trkpt lat="44.98446" lon="1.05134">
        <ele>83</ele>
        <time>2017-10-01T09:10:42.000Z</time>
      </trkpt>
      <trkpt lat="44.98446" lon="1.05138">
        <ele>83</ele>
        <time>2017-10-01T09:10:43.000Z</time>
      </trkpt>
      <trkpt lat="44.98445" lon="1.05141">
        <ele>83</ele>
        <time>2017-10-01T09:10:44.000Z</time>
      </trkpt>
      <trkpt lat="44.98444" lon="1.05144">
        <ele>83</ele>
        <time>2017-10-01T09:10:45.000Z</time>
      </trkpt>
      <trkpt lat="44.98443" lon="1.05147">
        <ele>83</ele>
        <time>2017-10-01T09:10:46.000Z</time>
      </trkpt>
      <trkpt lat="44.98442" lon="1.0515">
        <ele>83</ele>
        <time>2017-10-01T09:10:47.000Z</time>
      </trkpt>
      <trkpt lat="44.98442" lon="1.05153">
        <ele>83</ele>
        <time>2017-10-01T09:10:48.000Z</time>
      </trkpt>
      <trkpt lat="44.98441" lon="1.05156">
        <ele>82</ele>
        <time>2017-10-01T09:10:49.000Z</time>
      </trkpt>
      <trkpt lat="44.98441" lon="1.05158">
        <ele>82</ele>
        <time>2017-10-01T09:10:50.000Z</time>
      </trkpt>
      <trkpt lat="44.9844" lon="1.05161">
        <ele>82</ele>
        <time>2017-10-01T09:10:51.000Z</time>
      </trkpt>
      <trkpt lat="44.98439" lon="1.05163">
        <ele>82</ele>
        <time>2017-10-01T09:10:52.000Z</time>
      </trkpt>
      <trkpt lat="44.98439" lon="1.05166">
        <ele>82</ele>
        <time>2017-10-01T09:10:53.000Z</time>
      </trkpt>
      <trkpt lat="44.98438" lon="1.05168">
        <ele>82</ele>
        <time>2017-10-01T09:10:54.000Z</time>
      </trkpt>
      <trkpt lat="44.98437" lon="1.0517">
        <ele>82</ele>
        <time>2017-10-01T09:10:55.000Z</time>
      </trkpt>
      <trkpt lat="44.98437" lon="1.05172">
        <ele>82</ele>
        <time>2017-10-01T09:10:56.000Z</time>
      </trkpt>
      <trkpt lat="44.98436" lon="1.05174">
        <ele>82</ele>
        <time>2017-10-01T09:10:57.000Z</time>
      </trkpt>
      <trkpt lat="44.98435" lon="1.05177">
        <ele>81</ele>
        <time>2017-10-01T09:10:58.000Z</time>
      </trkpt>
      <trkpt lat="44.98434" lon="1.05179">
        <ele>81</ele>
        <time>2017-10-01T09:10:59.000Z</time>
      </trkpt>
      <trkpt lat="44.98434" lon="1.05181">
        <ele>81</ele>
        <time>2017-10-01T09:11:00.000Z</time>
      </trkpt>
      <trkpt lat="44.98433" lon="1.05184">
        <ele>81</ele>
        <time>2017-10-01T09:11:01.000Z</time>
      </trkpt>
      <trkpt lat="44.98432" lon="1.05186">
        <ele>81</ele>
        <time>2017-10-01T09:11:02.000Z</time>
      </trkpt>
      <trkpt lat="44.98431" lon="1.05188">
        <ele>81</ele>
        <time>2017-10-01T09:11:03.000Z</time>
      </trkpt>
      <trkpt lat="44.9843" lon="1.05191">
        <ele>81</ele>
        <time>2017-10-01T09:11:04.000Z</time>
      </trkpt>
      <trkpt lat="44.98429" lon="1.05193">
        <ele>80</ele>
        <time>2017-10-01T09:11:05.000Z</time>
      </trkpt>
      <trkpt lat="44.98428" lon="1.05195">
        <ele>80</ele>
        <time>2017-10-01T09:11:06.000Z</time>
      </trkpt>
      <trkpt lat="44.98427" lon="1.05198">
        <ele>80</ele>
        <time>2017-10-01T09:11:07.000Z</time>
      </trkpt>
      <trkpt lat="44.98426" lon="1.052">
        <ele>80</ele>
        <time>2017-10-01T09:11:08.000Z</time>
      </trkpt>
      <trkpt lat="44.98425" lon="1.05202">
        <ele>80</ele>
        <time>2017-10-01T09:11:09.000Z</time>
      </trkpt>
      <trkpt lat="44.98423" lon="1.05204">
        <ele>80</ele>
        <time>2017-10-01T09:11:10.000Z</time>
      </trkpt>
      <trkpt lat="44.98422" lon="1.05206">
        <ele>80</ele>
        <time>2017-10-01T09:11:11.000Z</time>
      </trkpt>
      <trkpt lat="44.9842" lon="1.05208">
        <ele>80</ele>
        <time>2017-10-01T09:11:12.000Z</time>
      </trkpt>
      <trkpt lat="44.98419" lon="1.0521">
        <ele>80</ele>
        <time>2017-10-01T09:11:13.000Z</time>
      </trkpt>
      <trkpt lat="44.98417" lon="1.05211">
        <ele>80</ele>
        <time>2017-10-01T09:11:14.000Z</time>
      </trkpt>
      <trkpt lat="44.98416" lon="1.05212">
        <ele>80</ele>
        <time>2017-10-01T09:11:15.000Z</time>
      </trkpt>
      <trkpt lat="44.98414" lon="1.05213">
        <ele>80</ele>
        <time>2017-10-01T09:11:16.000Z</time>
      </trkpt>
      <trkpt lat="44.98413" lon="1.05213">
        <ele>80</ele>
        <time>2017-10-01T09:11:17.000Z</time>
      </trkpt>
      <trkpt lat="44.98411" lon="1.05214">
        <ele>80</ele>
        <time>2017-10-01T09:11:18.000Z</time>
      </trkpt>
      <trkpt lat="44.9841" lon="1.05214">
        <ele>80</ele>
        <time>2017-10-01T09:11:19.000Z</time>
      </trkpt>
      <trkpt lat="44.98409" lon="1.05214">
        <ele>80</ele>
        <time>2017-10-01T09:11:20.000Z</time>
      </trkpt>
      <trkpt lat="44.98407" lon="1.05214">
        <ele>80</ele>
        <time>2017-10-01T09:11:21.000Z</time>
      </trkpt>
      <trkpt lat="44.98406" lon="1.05215">
        <ele>80</ele>
        <time>2017-10-01T09:11:22.000Z</time>
      </trkpt>
      <trkpt lat="44.98404" lon="1.05215">
        <ele>80</ele>
        <time>2017-10-01T09:11:23.000Z</time>
      </trkpt>
      <trkpt lat="44.98403" lon="1.05215">
        <ele>80</ele>
        <time>2017-10-01T09:13:41.000Z</time>
      </trkpt>
      <trkpt lat="44.98403" lon="1.05215">
        <ele>80</ele>
        <time>2017-10-01T09:13:41.000Z</time>
      </trkpt>
      <trkpt lat="44.98403" lon="1.05215">
        <ele>80</ele>
        <time>2017-10-01T09:13:41.000Z</time>
      </trkpt>
      <trkpt lat="44.98403" lon="1.05215">
        <ele>80</ele>
        <time>2017-10-01T09:13:41.000Z</time>
      </trkpt>
      <trkpt lat="44.98403" lon="1.05215">
        <ele>80</ele>
        <time>2017-10-01T09:13:41.000Z</time>
      </trkpt>
      <trkpt lat="44.98403" lon="1.05215">
        <ele>80</ele>
        <time>2017-10-01T09:13:41.000Z</time>
      </trkpt>
      <trkpt lat="44.98403" lon="1.05215">
        <ele>80</ele>
        <time>2017-10-01T09:13:41.000Z</time>
      </trkpt>
      <trkpt lat="44.98403" lon="1.05215">
        <ele>80</ele>
        <time>2017-10-01T09:13:41.000Z</time>
      </trkpt>
      <trkpt lat="44.98403" lon="1.05215">
        <ele>80</ele>
        <time>2017-10-01T09:13:41.000Z</time>
      </trkpt>
      <trkpt lat="44.98403" lon="1.05215">
        <ele>80</ele>
        <time>2017-10-01T09:13:41.000Z</time>
      </trkpt>
      <trkpt lat="44.98403" lon="1.05215">
        <ele>80</ele>
        <time>2017-10-01T09:13:41.000Z</time>
      </trkpt>
      <trkpt lat="44.98403" lon="1.05215">
        <ele>80</ele>
        <time>2017-10-01T09:13:41.000Z</time>
      </trkpt>
      <trkpt lat="44.98403" lon="1.05215">
        <ele>80</ele>
        <time>2017-10-01T09:13:41.000Z</time>
      </trkpt>
      <trkpt lat="44.98403" lon="1.05215">
        <ele>80</ele>
        <time>2017-10-01T09:13:41.000Z</time>
      </trkpt>
      <trkpt lat="44.98403" lon="1.05215">
        <ele>80</ele>
        <time>2017-10-01T09:13:41.000Z</time>
      </trkpt>
      <trkpt lat="44.98403" lon="1.05215">
        <ele>80</ele>
        <time>2017-10-01T09:13:41.000Z</time>
      </trkpt>
      <trkpt lat="44.98403" lon="1.05215">
        <ele>80</ele>
        <time>2017-10-01T09:13:41.000Z</time>
      </trkpt>
      <trkpt lat="44.98403" lon="1.05215">
        <ele>80</ele>
        <time>2017-10-01T09:13:41.000Z</time>
      </trkpt>
      <trkpt lat="44.98403" lon="1.05215">
        <ele>80</ele>
        <time>2017-10-01T09:13:41.000Z</time>
      </trkpt>
      <trkpt lat="44.98403" lon="1.05215">
        <ele>80</ele>
        <time>2017-10-01T09:13:41.000Z</time>
      </trkpt>
      <trkpt lat="44.98403" lon="1.05215">
        <ele>80</ele>
        <time>2017-10-01T09:13:41.000Z</time>
      </trkpt>
      <trkpt lat="44.98403" lon="1.05215">
        <ele>80</ele>
        <time>2017-10-01T09:13:41.000Z</time>
      </trkpt>
      <trkpt lat="44.98403" lon="1.05215">
        <ele>80</ele>
        <time>2017-10-01T09:13:41.000Z</time>
      </trkpt>
      <trkpt lat="44.98403" lon="1.05215">
        <ele>80</ele>
        <time>2017-10-01T09:13:41.000Z</time>
      </trkpt>
      <trkpt lat="44.98403" lon="1.05215">
        <ele>80</ele>
        <time>2017-10-01T09:13:41.000Z</time>
      </trkpt>
      <trkpt lat="44.98403" lon="1.05215">
        <ele>80</ele>
        <time>2017-10-01T09:13:41.000Z</time>
      </trkpt>
      <trkpt lat="44.98403" lon="1.05215">
        <ele>80</ele>
        <time>2017-10-01T09:13:41.000Z</time>
      </trkpt>
      <trkpt lat="44.98403" lon="1.05215">
        <ele>80</ele>
        <time>2017-10-01T09:13:41.000Z</time>
      </trkpt>
      <trkpt lat="44.98403" lon="1.05215">
        <ele>80</ele>
        <time>2017-10-01T09:13:41.000Z</time>
      </trkpt>
      <trkpt lat="44.98403" lon="1.05215">
        <ele>80</ele>
        <time>2017-10-01T09:13:41.000Z</time>
      </trkpt>
      <trkpt lat="44.98403" lon="1.05215">
        <ele>80</ele>
        <time>2017-10-01T09:13:41.000Z</time>
      </trkpt>
      <trkpt lat="44.98403" lon="1.05215">
        <ele>80</ele>
        <time>2017-10-01T09:13:41.000Z</time>
      </trkpt>
      <trkpt lat="44.98403" lon="1.05215">
        <ele>80</ele>
        <time>2017-10-01T09:13:41.000Z</time>
      </trkpt>
      <trkpt lat="44.98403" lon="1.05215">
        <ele>80</ele>
        <time>2017-10-01T09:13:41.000Z</time>
      </trkpt>
      <trkpt lat="44.98403" lon="1.05215">
        <ele>80</ele>
        <time>2017-10-01T09:13:41.000Z</time>
      </trkpt>
      <trkpt lat="44.98403" lon="1.05215">
        <ele>80</ele>
        <time>2017-10-01T09:13:41.000Z</time>
      </trkpt>
      <trkpt lat="44.98403" lon="1.05215">
        <ele>80</ele>
        <time>2017-10-01T09:13:41.000Z</time>
      </trkpt>
      <trkpt lat="44.98403" lon="1.05215">
        <ele>80</ele>
        <time>2017-10-01T09:13:41.000Z</time>
      </trkpt>
      <trkpt lat="44.98403" lon="1.05215">
        <ele>80</ele>
        <time>2017-10-01T09:13:41.000Z</time>
      </trkpt>
      <trkpt lat="44.98403" lon="1.05215">
        <ele>80</ele>
        <time>2017-10-01T09:13:41.000Z</time>
      </trkpt>
      <trkpt lat="44.98403" lon="1.05215">
        <ele>80</ele>
        <time>2017-10-01T09:13:41.000Z</time>
      </trkpt>
      <trkpt lat="44.98403" lon="1.05215">
        <ele>80</ele>
        <time>2017-10-01T09:13:41.000Z</time>
      </trkpt>
      <trkpt lat="44.98403" lon="1.05215">
        <ele>80</ele>
        <time>2017-10-01T09:13:41.000Z</time>
      </trkpt>
      <trkpt lat="44.98403" lon="1.05215">
        <ele>80</ele>
        <time>2017-10-01T09:13:41.000Z</time>
      </trkpt>
      <trkpt lat="44.98403" lon="1.05215">
        <ele>80</ele>
        <time>2017-10-01T09:13:41.000Z</time>
      </trkpt>
      <trkpt lat="44.98403" lon="1.05215">
        <ele>80</ele>
        <time>2017-10-01T09:13:41.000Z</time>
      </trkpt>
      <trkpt lat="44.98403" lon="1.05215">
        <ele>80</ele>
        <time>2017-10-01T09:13:41.000Z</time>
      </trkpt>
      <trkpt lat="44.98403" lon="1.05215">
        <ele>80</ele>
        <time>2017-10-01T09:13:41.000Z</time>
      </trkpt>
      <trkpt lat="44.98403" lon="1.05215">
        <ele>80</ele>
        <time>2017-10-01T09:13:41.000Z</time>
      </trkpt>
      <trkpt lat="44.98403" lon="1.05215">
        <ele>80</ele>
        <time>2017-10-01T09:13:41.000Z</time>
      </trkpt>
      <trkpt lat="44.98403" lon="1.05215">
        <ele>80</ele>
        <time>2017-10-01T09:13:41.000Z</time>
      </trkpt>
      <trkpt lat="44.98403" lon="1.05215">
        <ele>80</ele>
        <time>2017-10-01T09:13:41.000Z</time>
      </trkpt>
      <trkpt lat="44.98403" lon="1.05215">
        <ele>80</ele>
        <time>2017-10-01T09:13:41.000Z</time>
      </trkpt>
      <trkpt lat="44.98403" lon="1.05215">
        <ele>80</ele>
        <time>2017-10-01T09:13:41.000Z</time>
      </trkpt>
      <trkpt lat="44.98403" lon="1.05215">
        <ele>80</ele>
        <time>2017-10-01T09:13:41.000Z</time>
      </trkpt>
      <trkpt lat="44.98403" lon="1.05215">
        <ele>80</ele>
        <time>2017-10-01T09:13:41.000Z</time>
      </trkpt>
      <trkpt lat="44.98403" lon="1.05215">
        <ele>80</ele>
        <time>2017-10-01T09:13:41.000Z</time>
      </trkpt>
      <trkpt lat="44.98403" lon="1.05215">
        <ele>80</ele>
        <time>2017-10-01T09:13:41.000Z</time>
      </trkpt>
      <trkpt lat="44.98403" lon="1.05215">
        <ele>80</ele>
        <time>2017-10-01T09:13:41.000Z</time>
      </trkpt>
      <trkpt lat="44.98403" lon="1.05215">
        <ele>80</ele>
        <time>2017-10-01T09:13:41.000Z</time>
      </trkpt>
      <trkpt lat="44.98403" lon="1.05215">
        <ele>80</ele>
        <time>2017-10-01T09:13:41.000Z</time>
      </trkpt>
      <trkpt lat="44.98403" lon="1.05215">
        <ele>80</ele>
        <time>2017-10-01T09:13:41.000Z</time>
      </trkpt>
      <trkpt lat="44.98403" lon="1.05215">
        <ele>80</ele>
        <time>2017-10-01T09:13:41.000Z</time>
      </trkpt>
      <trkpt lat="44.98403" lon="1.05215">
        <ele>80</ele>
        <time>2017-10-01T09:13:41.000Z</time>
      </trkpt>
      <trkpt lat="44.98403" lon="1.05215">
        <ele>80</ele>
        <time>2017-10-01T09:13:41.000Z</time>
      </trkpt>
      <trkpt lat="44.98403" lon="1.05215">
        <ele>80</ele>
        <time>2017-10-01T09:13:41.000Z</time>
      </trkpt>
      <trkpt lat="44.98403" lon="1.05215">
        <ele>80</ele>
        <time>2017-10-01T09:13:41.000Z</time>
      </trkpt>
      <trkpt lat="44.98403" lon="1.05215">
        <ele>80</ele>
        <time>2017-10-01T09:13:41.000Z</time>
      </trkpt>
      <trkpt lat="44.98403" lon="1.05215">
        <ele>80</ele>
        <time>2017-10-01T09:13:41.000Z</time>
      </trkpt>
      <trkpt lat="44.98403" lon="1.05215">
        <ele>80</ele>
        <time>2017-10-01T09:13:41.000Z</time>
      </trkpt>
      <trkpt lat="44.98403" lon="1.05215">
        <ele>80</ele>
        <time>2017-10-01T09:13:41.000Z</time>
      </trkpt>
      <trkpt lat="44.98403" lon="1.05215">
        <ele>80</ele>
        <time>2017-10-01T09:13:41.000Z</time>
      </trkpt>
      <trkpt lat="44.98403" lon="1.05215">
        <ele>80</ele>
        <time>2017-10-01T09:13:41.000Z</time>
      </trkpt>
      <trkpt lat="44.98403" lon="1.05215">
        <ele>80</ele>
        <time>2017-10-01T09:13:41.000Z</time>
      </trkpt>
      <trkpt lat="44.98403" lon="1.05215">
        <ele>80</ele>
        <time>2017-10-01T09:13:41.000Z</time>
      </trkpt>
      <trkpt lat="44.98403" lon="1.05215">
        <ele>80</ele>
        <time>2017-10-01T09:13:41.000Z</time>
      </trkpt>
      <trkpt lat="44.98403" lon="1.05215">
        <ele>80</ele>
        <time>2017-10-01T09:13:41.000Z</time>
      </trkpt>
      <trkpt lat="44.98403" lon="1.05215">
        <ele>80</ele>
        <time>2017-10-01T09:13:41.000Z</time>
      </trkpt>
      <trkpt lat="44.98403" lon="1.05215">
        <ele>80</ele>
        <time>2017-10-01T09:13:41.000Z</time>
      </trkpt>
      <trkpt lat="44.98403" lon="1.05215">
        <ele>80</ele>
        <time>2017-10-01T09:13:41.000Z</time>
      </trkpt>
      <trkpt lat="44.98403" lon="1.05215">
        <ele>80</ele>
        <time>2017-10-01T09:13:41.000Z</time>
      </trkpt>
      <trkpt lat="44.98403" lon="1.05215">
        <ele>80</ele>
        <time>2017-10-01T09:13:41.000Z</time>
      </trkpt>
      <trkpt lat="44.98403" lon="1.05215">
        <ele>80</ele>
        <time>2017-10-01T09:13:41.000Z</time>
      </trkpt>
      <trkpt lat="44.98403" lon="1.05215">
        <ele>80</ele>
        <time>2017-10-01T09:13:41.000Z</time>
      </trkpt>
      <trkpt lat="44.98403" lon="1.05215">
        <ele>80</ele>
        <time>2017-10-01T09:13:41.000Z</time>
      </trkpt>
      <trkpt lat="44.98403" lon="1.05215">
        <ele>80</ele>
        <time>2017-10-01T09:13:41.000Z</time>
      </trkpt>
      <trkpt lat="44.98403" lon="1.05215">
        <ele>80</ele>
        <time>2017-10-01T09:13:41.000Z</time>
      </trkpt>
      <trkpt lat="44.98403" lon="1.05215">
        <ele>80</ele>
        <time>2017-10-01T09:13:41.000Z</time>
      </trkpt>
      <trkpt lat="44.98403" lon="1.05215">
        <ele>80</ele>
        <time>2017-10-01T09:13:41.000Z</time>
      </trkpt>
      <trkpt lat="44.98403" lon="1.05215">
        <ele>80</ele>
        <time>2017-10-01T09:13:41.000Z</time>
      </trkpt>
      <trkpt lat="44.98403" lon="1.05215">
        <ele>80</ele>
        <time>2017-10-01T09:13:41.000Z</time>
      </trkpt>
      <trkpt lat="44.98403" lon="1.05215">
        <ele>80</ele>
        <time>2017-10-01T09:13:41.000Z</time>
      </trkpt>
      <trkpt lat="44.98403" lon="1.05215">
        <ele>80</ele>
        <time>2017-10-01T09:13:41.000Z</time>
      </trkpt>
      <trkpt lat="44.98403" lon="1.05215">
        <ele>80</ele>
        <time>2017-10-01T09:13:41.000Z</time>
      </trkpt>
      <trkpt lat="44.98403" lon="1.05215">
        <ele>80</ele>
        <time>2017-10-01T09:13:41.000Z</time>
      </trkpt>
      <trkpt lat="44.98403" lon="1.05215">
        <ele>80</ele>
        <time>2017-10-01T09:13:41.000Z</time>
      </trkpt>
      <trkpt lat="44.98403" lon="1.05215">
        <ele>80</ele>
        <time>2017-10-01T09:13:41.000Z</time>
      </trkpt>
      <trkpt lat="44.98403" lon="1.05215">
        <ele>80</ele>
        <time>2017-10-01T09:13:41.000Z</time>
      </trkpt>
      <trkpt lat="44.98403" lon="1.05215">
        <ele>80</ele>
        <time>2017-10-01T09:13:41.000Z</time>
      </trkpt>
      <trkpt lat="44.98403" lon="1.05215">
        <ele>80</ele>
        <time>2017-10-01T09:13:41.000Z</time>
      </trkpt>
      <trkpt lat="44.98403" lon="1.05215">
        <ele>80</ele>
        <time>2017-10-01T09:13:41.000Z</time>
      </trkpt>
      <trkpt lat="44.98403" lon="1.05215">
        <ele>80</ele>
        <time>2017-10-01T09:13:41.000Z</time>
      </trkpt>
      <trkpt lat="44.98403" lon="1.05215">
        <ele>80</ele>
        <time>2017-10-01T09:13:41.000Z</time>
      </trkpt>
      <trkpt lat="44.98403" lon="1.05215">
        <ele>80</ele>
        <time>2017-10-01T09:13:41.000Z</time>
      </trkpt>
      <trkpt lat="44.98403" lon="1.05215">
        <ele>80</ele>
        <time>2017-10-01T09:13:41.000Z</time>
      </trkpt>
      <trkpt lat="44.98403" lon="1.05215">
        <ele>80</ele>
        <time>2017-10-01T09:13:41.000Z</time>
      </trkpt>
      <trkpt lat="44.98403" lon="1.05215">
        <ele>80</ele>
        <time>2017-10-01T09:13:41.000Z</time>
      </trkpt>
      <trkpt lat="44.98403" lon="1.05215">
        <ele>80</ele>
        <time>2017-10-01T09:13:41.000Z</time>
      </trkpt>
      <trkpt lat="44.98403" lon="1.05215">
        <ele>80</ele>
        <time>2017-10-01T09:13:41.000Z</time>
      </trkpt>
      <trkpt lat="44.98403" lon="1.05215">
        <ele>80</ele>
        <time>2017-10-01T09:13:41.000Z</time>
      </trkpt>
      <trkpt lat="44.98403" lon="1.05215">
        <ele>80</ele>
        <time>2017-10-01T09:13:41.000Z</time>
      </trkpt>
      <trkpt lat="44.98403" lon="1.05215">
        <ele>80</ele>
        <time>2017-10-01T09:13:41.000Z</time>
      </trkpt>
      <trkpt lat="44.98403" lon="1.05215">
        <ele>80</ele>
        <time>2017-10-01T09:13:41.000Z</time>
      </trkpt>
      <trkpt lat="44.98403" lon="1.05215">
        <ele>80</ele>
        <time>2017-10-01T09:13:41.000Z</time>
      </trkpt>
      <trkpt lat="44.98403" lon="1.05215">
        <ele>80</ele>
        <time>2017-10-01T09:13:41.000Z</time>
      </trkpt>
      <trkpt lat="44.98403" lon="1.05215">
        <ele>80</ele>
        <time>2017-10-01T09:13:41.000Z</time>
      </trkpt>
      <trkpt lat="44.98403" lon="1.05215">
        <ele>80</ele>
        <time>2017-10-01T09:13:41.000Z</time>
      </trkpt>
      <trkpt lat="44.98403" lon="1.05215">
        <ele>80</ele>
        <time>2017-10-01T09:13:41.000Z</time>
      </trkpt>
      <trkpt lat="44.98403" lon="1.05215">
        <ele>80</ele>
        <time>2017-10-01T09:13:41.000Z</time>
      </trkpt>
      <trkpt lat="44.98403" lon="1.05215">
        <ele>80</ele>
        <time>2017-10-01T09:13:41.000Z</time>
      </trkpt>
      <trkpt lat="44.98403" lon="1.05215">
        <ele>80</ele>
        <time>2017-10-01T09:13:41.000Z</time>
      </trkpt>
      <trkpt lat="44.98403" lon="1.05215">
        <ele>80</ele>
        <time>2017-10-01T09:13:41.000Z</time>
      </trkpt>
      <trkpt lat="44.98403" lon="1.05215">
        <ele>80</ele>
        <time>2017-10-01T09:13:41.000Z</time>
      </trkpt>
      <trkpt lat="44.98403" lon="1.05215">
        <ele>80</ele>
        <time>2017-10-01T09:13:41.000Z</time>
      </trkpt>
      <trkpt lat="44.98403" lon="1.05215">
        <ele>80</ele>
        <time>2017-10-01T09:13:41.000Z</time>
      </trkpt>
      <trkpt lat="44.98403" lon="1.05215">
        <ele>80</ele>
        <time>2017-10-01T09:13:41.000Z</time>
      </trkpt>
      <trkpt lat="44.98403" lon="1.05215">
        <ele>80</ele>
        <time>2017-10-01T09:13:41.000Z</time>
      </trkpt>
      <trkpt lat="44.98403" lon="1.05215">
        <ele>80</ele>
        <time>2017-10-01T09:13:41.000Z</time>
      </trkpt>
      <trkpt lat="44.98403" lon="1.05215">
        <ele>80</ele>
        <time>2017-10-01T09:13:41.000Z</time>
      </trkpt>
      <trkpt lat="44.98403" lon="1.05215">
        <ele>80</ele>
        <time>2017-10-01T09:13:41.000Z</time>
      </trkpt>
      <trkpt lat="44.98403" lon="1.05215">
        <ele>80</ele>
        <time>2017-10-01T09:13:41.000Z</time>
      </trkpt>
      <trkpt lat="44.98403" lon="1.05215">
        <ele>80</ele>
        <time>2017-10-01T09:13:41.000Z</time>
      </trkpt>
      <trkpt lat="44.98403" lon="1.05215">
        <ele>80</ele>
        <time>2017-10-01T09:13:41.000Z</time>
      </trkpt>
      <trkpt lat="44.98403" lon="1.05215">
        <ele>80</ele>
        <time>2017-10-01T09:13:41.000Z</time>
      </trkpt>
      <trkpt lat="44.98403" lon="1.05215">
        <ele>80</ele>
        <time>2017-10-01T09:13:41.000Z</time>
      </trkpt>
      <trkpt lat="44.98403" lon="1.05215">
        <ele>80</ele>
        <time>2017-10-01T09:13:41.000Z</time>
      </trkpt>
      <trkpt lat="44.98403" lon="1.05215">
        <ele>80</ele>
        <time>2017-10-01T09:13:41.000Z</time>
      </trkpt>
      <trkpt lat="44.98403" lon="1.05215">
        <ele>80</ele>
        <time>2017-10-01T09:13:41.000Z</time>
      </trkpt>
      <trkpt lat="44.98402" lon="1.05215">
        <ele>80</ele>
        <time>2017-10-01T09:13:44.000Z</time>
      </trkpt>
      <trkpt lat="44.98402" lon="1.05215">
        <ele>80</ele>
        <time>2017-10-01T09:13:44.000Z</time>
      </trkpt>
      <trkpt lat="44.98402" lon="1.05215">
        <ele>80</ele>
        <time>2017-10-01T09:13:44.000Z</time>
      </trkpt>
      <trkpt lat="44.98401" lon="1.05215">
        <ele>80</ele>
        <time>2017-10-01T09:13:45.000Z</time>
      </trkpt>
      <trkpt lat="44.984" lon="1.05215">
        <ele>80</ele>
        <time>2017-10-01T09:13:46.000Z</time>
      </trkpt>
      <trkpt lat="44.98399" lon="1.05215">
        <ele>81</ele>
        <time>2017-10-01T09:13:47.000Z</time>
      </trkpt>
      <trkpt lat="44.98397" lon="1.05214">
        <ele>81</ele>
        <time>2017-10-01T09:13:48.000Z</time>
      </trkpt>
      <trkpt lat="44.98396" lon="1.05214">
        <ele>81</ele>
        <time>2017-10-01T09:13:49.000Z</time>
      </trkpt>
      <trkpt lat="44.98394" lon="1.05214">
        <ele>81</ele>
        <time>2017-10-01T09:13:50.000Z</time>
      </trkpt>
      <trkpt lat="44.98392" lon="1.05214">
        <ele>81</ele>
        <time>2017-10-01T09:13:51.000Z</time>
      </trkpt>
      <trkpt lat="44.98391" lon="1.05213">
        <ele>81</ele>
        <time>2017-10-01T09:13:52.000Z</time>
      </trkpt>
      <trkpt lat="44.98389" lon="1.05213">
        <ele>82</ele>
        <time>2017-10-01T09:13:53.000Z</time>
      </trkpt>
      <trkpt lat="44.98387" lon="1.05213">
        <ele>82</ele>
        <time>2017-10-01T09:13:54.000Z</time>
      </trkpt>
      <trkpt lat="44.98385" lon="1.05212">
        <ele>82</ele>
        <time>2017-10-01T09:13:55.000Z</time>
      </trkpt>
      <trkpt lat="44.98384" lon="1.05212">
        <ele>82</ele>
        <time>2017-10-01T09:13:56.000Z</time>
      </trkpt>
      <trkpt lat="44.98382" lon="1.05211">
        <ele>82</ele>
        <time>2017-10-01T09:13:57.000Z</time>
      </trkpt>
      <trkpt lat="44.9838" lon="1.0521">
        <ele>83</ele>
        <time>2017-10-01T09:13:58.000Z</time>
      </trkpt>
      <trkpt lat="44.98377" lon="1.05209">
        <ele>83</ele>
        <time>2017-10-01T09:13:59.000Z</time>
      </trkpt>
      <trkpt lat="44.98375" lon="1.05208">
        <ele>83</ele>
        <time>2017-10-01T09:14:00.000Z</time>
      </trkpt>
      <trkpt lat="44.98372" lon="1.05207">
        <ele>84</ele>
        <time>2017-10-01T09:14:01.000Z</time>
      </trkpt>
      <trkpt lat="44.9837" lon="1.05206">
        <ele>84</ele>
        <time>2017-10-01T09:14:02.000Z</time>
      </trkpt>
      <trkpt lat="44.98367" lon="1.05204">
        <ele>85</ele>
        <time>2017-10-01T09:14:03.000Z</time>
      </trkpt>
      <trkpt lat="44.98365" lon="1.05203">
        <ele>85</ele>
        <time>2017-10-01T09:14:04.000Z</time>
      </trkpt>
      <trkpt lat="44.98362" lon="1.05202">
        <ele>85</ele>
        <time>2017-10-01T09:14:05.000Z</time>
      </trkpt>
      <trkpt lat="44.9836" lon="1.052">
        <ele>86</ele>
        <time>2017-10-01T09:14:06.000Z</time>
      </trkpt>
      <trkpt lat="44.98357" lon="1.05199">
        <ele>86</ele>
        <time>2017-10-01T09:14:07.000Z</time>
      </trkpt>
      <trkpt lat="44.98354" lon="1.05197">
        <ele>87</ele>
        <time>2017-10-01T09:14:08.000Z</time>
      </trkpt>
      <trkpt lat="44.98352" lon="1.05196">
        <ele>87</ele>
        <time>2017-10-01T09:14:09.000Z</time>
      </trkpt>
      <trkpt lat="44.98349" lon="1.05194">
        <ele>88</ele>
        <time>2017-10-01T09:14:10.000Z</time>
      </trkpt>
      <trkpt lat="44.98347" lon="1.05193">
        <ele>89</ele>
        <time>2017-10-01T09:14:11.000Z</time>
      </trkpt>
      <trkpt lat="44.98344" lon="1.05192">
        <ele>89</ele>
        <time>2017-10-01T09:14:12.000Z</time>
      </trkpt>
      <trkpt lat="44.98342" lon="1.0519">
        <ele>90</ele>
        <time>2017-10-01T09:14:13.000Z</time>
      </trkpt>
      <trkpt lat="44.98339" lon="1.05189">
        <ele>90</ele>
        <time>2017-10-01T09:14:14.000Z</time>
      </trkpt>
      <trkpt lat="44.98337" lon="1.05187">
        <ele>91</ele>
        <time>2017-10-01T09:14:15.000Z</time>
      </trkpt>
      <trkpt lat="44.98335" lon="1.05186">
        <ele>91</ele>
        <time>2017-10-01T09:14:16.000Z</time>
      </trkpt>
      <trkpt lat="44.98332" lon="1.05184">
        <ele>92</ele>
        <time>2017-10-01T09:14:17.000Z</time>
      </trkpt>
      <trkpt lat="44.9833" lon="1.05183">
        <ele>92</ele>
        <time>2017-10-01T09:14:18.000Z</time>
      </trkpt>
      <trkpt lat="44.98328" lon="1.05181">
        <ele>92</ele>
        <time>2017-10-01T09:14:19.000Z</time>
      </trkpt>
      <trkpt lat="44.98326" lon="1.0518">
        <ele>92</ele>
        <time>2017-10-01T09:14:20.000Z</time>
      </trkpt>
      <trkpt lat="44.98323" lon="1.05179">
        <ele>93</ele>
        <time>2017-10-01T09:14:21.000Z</time>
      </trkpt>
      <trkpt lat="44.98321" lon="1.05177">
        <ele>93</ele>
        <time>2017-10-01T09:14:22.000Z</time>
      </trkpt>
      <trkpt lat="44.98319" lon="1.05176">
        <ele>93</ele>
        <time>2017-10-01T09:14:23.000Z</time>
      </trkpt>
      <trkpt lat="44.98317" lon="1.05174">
        <ele>93</ele>
        <time>2017-10-01T09:14:24.000Z</time>
      </trkpt>
      <trkpt lat="44.98314" lon="1.05173">
        <ele>94</ele>
        <time>2017-10-01T09:14:25.000Z</time>
      </trkpt>
      <trkpt lat="44.98312" lon="1.05172">
        <ele>94</ele>
        <time>2017-10-01T09:14:26.000Z</time>
      </trkpt>
      <trkpt lat="44.9831" lon="1.05171">
        <ele>94</ele>
        <time>2017-10-01T09:14:27.000Z</time>
      </trkpt>
      <trkpt lat="44.98307" lon="1.0517">
        <ele>94</ele>
        <time>2017-10-01T09:14:28.000Z</time>
      </trkpt>
      <trkpt lat="44.98304" lon="1.0517">
        <ele>94</ele>
        <time>2017-10-01T09:14:29.000Z</time>
      </trkpt>
      <trkpt lat="44.98301" lon="1.05169">
        <ele>94</ele>
        <time>2017-10-01T09:14:30.000Z</time>
      </trkpt>
      <trkpt lat="44.98299" lon="1.05169">
        <ele>94</ele>
        <time>2017-10-01T09:14:31.000Z</time>
      </trkpt>
      <trkpt lat="44.98296" lon="1.05169">
        <ele>94</ele>
        <time>2017-10-01T09:14:32.000Z</time>
      </trkpt>
      <trkpt lat="44.98293" lon="1.05169">
        <ele>94</ele>
        <time>2017-10-01T09:14:33.000Z</time>
      </trkpt>
      <trkpt lat="44.9829" lon="1.05169">
        <ele>94</ele>
        <time>2017-10-01T09:14:34.000Z</time>
      </trkpt>
      <trkpt lat="44.98287" lon="1.05169">
        <ele>94</ele>
        <time>2017-10-01T09:14:35.000Z</time>
      </trkpt>
      <trkpt lat="44.98284" lon="1.05169">
        <ele>93</ele>
        <time>2017-10-01T09:14:36.000Z</time>
      </trkpt>
      <trkpt lat="44.98281" lon="1.05168">
        <ele>93</ele>
        <time>2017-10-01T09:14:37.000Z</time>
      </trkpt>
      <trkpt lat="44.98278" lon="1.05168">
        <ele>93</ele>
        <time>2017-10-01T09:14:38.000Z</time>
      </trkpt>
      <trkpt lat="44.98275" lon="1.05168">
        <ele>93</ele>
        <time>2017-10-01T09:14:39.000Z</time>
      </trkpt>
      <trkpt lat="44.98271" lon="1.05168">
        <ele>93</ele>
        <time>2017-10-01T09:14:40.000Z</time>
      </trkpt>
      <trkpt lat="44.98268" lon="1.05168">
        <ele>93</ele>
        <time>2017-10-01T09:14:41.000Z</time>
      </trkpt>
      <trkpt lat="44.98265" lon="1.05168">
        <ele>93</ele>
        <time>2017-10-01T09:14:42.000Z</time>
      </trkpt>
      <trkpt lat="44.98262" lon="1.05167">
        <ele>93</ele>
        <time>2017-10-01T09:14:43.000Z</time>
      </trkpt>
      <trkpt lat="44.98258" lon="1.05167">
        <ele>93</ele>
        <time>2017-10-01T09:14:44.000Z</time>
      </trkpt>
      <trkpt lat="44.98255" lon="1.05167">
        <ele>93</ele>
        <time>2017-10-01T09:14:45.000Z</time>
      </trkpt>
      <trkpt lat="44.98252" lon="1.05167">
        <ele>93</ele>
        <time>2017-10-01T09:14:46.000Z</time>
      </trkpt>
      <trkpt lat="44.98249" lon="1.05166">
        <ele>93</ele>
        <time>2017-10-01T09:14:47.000Z</time>
      </trkpt>
      <trkpt lat="44.98245" lon="1.05166">
        <ele>92</ele>
        <time>2017-10-01T09:14:48.000Z</time>
      </trkpt>
      <trkpt lat="44.98242" lon="1.05166">
        <ele>92</ele>
        <time>2017-10-01T09:14:49.000Z</time>
      </trkpt>
      <trkpt lat="44.98239" lon="1.05166">
        <ele>92</ele>
        <time>2017-10-01T09:14:50.000Z</time>
      </trkpt>
      <trkpt lat="44.98236" lon="1.05165">
        <ele>92</ele>
        <time>2017-10-01T09:14:51.000Z</time>
      </trkpt>
      <trkpt lat="44.98232" lon="1.05165">
        <ele>92</ele>
        <time>2017-10-01T09:14:52.000Z</time>
      </trkpt>
      <trkpt lat="44.98229" lon="1.05165">
        <ele>92</ele>
        <time>2017-10-01T09:14:53.000Z</time>
      </trkpt>
      <trkpt lat="44.98226" lon="1.05164">
        <ele>92</ele>
        <time>2017-10-01T09:14:54.000Z</time>
      </trkpt>
      <trkpt lat="44.98223" lon="1.05164">
        <ele>92</ele>
        <time>2017-10-01T09:14:55.000Z</time>
      </trkpt>
      <trkpt lat="44.98219" lon="1.05164">
        <ele>92</ele>
        <time>2017-10-01T09:14:56.000Z</time>
      </trkpt>
      <trkpt lat="44.98216" lon="1.05163">
        <ele>91</ele>
        <time>2017-10-01T09:14:57.000Z</time>
      </trkpt>
      <trkpt lat="44.98212" lon="1.05163">
        <ele>91</ele>
        <time>2017-10-01T09:14:58.000Z</time>
      </trkpt>
      <trkpt lat="44.98209" lon="1.05163">
        <ele>91</ele>
        <time>2017-10-01T09:14:59.000Z</time>
      </trkpt>
      <trkpt lat="44.98205" lon="1.05163">
        <ele>91</ele>
        <time>2017-10-01T09:15:00.000Z</time>
      </trkpt>
      <trkpt lat="44.98201" lon="1.05162">
        <ele>91</ele>
        <time>2017-10-01T09:15:01.000Z</time>
      </trkpt>
      <trkpt lat="44.98197" lon="1.05162">
        <ele>91</ele>
        <time>2017-10-01T09:15:02.000Z</time>
      </trkpt>
      <trkpt lat="44.98193" lon="1.05162">
        <ele>91</ele>
        <time>2017-10-01T09:15:03.000Z</time>
      </trkpt>
      <trkpt lat="44.98188" lon="1.05162">
        <ele>90</ele>
        <time>2017-10-01T09:15:04.000Z</time>
      </trkpt>
      <trkpt lat="44.98183" lon="1.05162">
        <ele>90</ele>
        <time>2017-10-01T09:15:05.000Z</time>
      </trkpt>
      <trkpt lat="44.98178" lon="1.05162">
        <ele>90</ele>
        <time>2017-10-01T09:15:06.000Z</time>
      </trkpt>
      <trkpt lat="44.98173" lon="1.05162">
        <ele>90</ele>
        <time>2017-10-01T09:15:07.000Z</time>
      </trkpt>
      <trkpt lat="44.98167" lon="1.05161">
        <ele>90</ele>
        <time>2017-10-01T09:15:08.000Z</time>
      </trkpt>
      <trkpt lat="44.98162" lon="1.0516">
        <ele>90</ele>
        <time>2017-10-01T09:15:09.000Z</time>
      </trkpt>
      <trkpt lat="44.98157" lon="1.05158">
        <ele>89</ele>
        <time>2017-10-01T09:15:10.000Z</time>
      </trkpt>
      <trkpt lat="44.98152" lon="1.05154">
        <ele>89</ele>
        <time>2017-10-01T09:15:11.000Z</time>
      </trkpt>
      <trkpt lat="44.98147" lon="1.0515">
        <ele>89</ele>
        <time>2017-10-01T09:15:12.000Z</time>
      </trkpt>
      <trkpt lat="44.98143" lon="1.05145">
        <ele>89</ele>
        <time>2017-10-01T09:15:13.000Z</time>
      </trkpt>
      <trkpt lat="44.98139" lon="1.0514">
        <ele>89</ele>
        <time>2017-10-01T09:15:14.000Z</time>
      </trkpt>
      <trkpt lat="44.98135" lon="1.05135">
        <ele>89</ele>
        <time>2017-10-01T09:15:15.000Z</time>
      </trkpt>
      <trkpt lat="44.98132" lon="1.0513">
        <ele>89</ele>
        <time>2017-10-01T09:15:16.000Z</time>
      </trkpt>
      <trkpt lat="44.98128" lon="1.05124">
        <ele>89</ele>
        <time>2017-10-01T09:15:17.000Z</time>
      </trkpt>
      <trkpt lat="44.98125" lon="1.05119">
        <ele>89</ele>
        <time>2017-10-01T09:15:18.000Z</time>
      </trkpt>
      <trkpt lat="44.98122" lon="1.05114">
        <ele>89</ele>
        <time>2017-10-01T09:15:19.000Z</time>
      </trkpt>
      <trkpt lat="44.98119" lon="1.05109">
        <ele>88</ele>
        <time>2017-10-01T09:15:20.000Z</time>
      </trkpt>
      <trkpt lat="44.98115" lon="1.05104">
        <ele>88</ele>
        <time>2017-10-01T09:15:21.000Z</time>
      </trkpt>
      <trkpt lat="44.98112" lon="1.05099">
        <ele>88</ele>
        <time>2017-10-01T09:15:22.000Z</time>
      </trkpt>
      <trkpt lat="44.98108" lon="1.05094">
        <ele>88</ele>
        <time>2017-10-01T09:15:23.000Z</time>
      </trkpt>
      <trkpt lat="44.98105" lon="1.05089">
        <ele>88</ele>
        <time>2017-10-01T09:15:24.000Z</time>
      </trkpt>
      <trkpt lat="44.98101" lon="1.05084">
        <ele>88</ele>
        <time>2017-10-01T09:15:25.000Z</time>
      </trkpt>
      <trkpt lat="44.98097" lon="1.0508">
        <ele>87</ele>
        <time>2017-10-01T09:15:26.000Z</time>
      </trkpt>
      <trkpt lat="44.98094" lon="1.05075">
        <ele>87</ele>
        <time>2017-10-01T09:15:27.000Z</time>
      </trkpt>
      <trkpt lat="44.9809" lon="1.0507">
        <ele>87</ele>
        <time>2017-10-01T09:15:28.000Z</time>
      </trkpt>
      <trkpt lat="44.98087" lon="1.05065">
        <ele>87</ele>
        <time>2017-10-01T09:15:29.000Z</time>
      </trkpt>
      <trkpt lat="44.98083" lon="1.0506">
        <ele>87</ele>
        <time>2017-10-01T09:15:30.000Z</time>
      </trkpt>
      <trkpt lat="44.9808" lon="1.05055">
        <ele>87</ele>
        <time>2017-10-01T09:15:31.000Z</time>
      </trkpt>
      <trkpt lat="44.98076" lon="1.0505">
        <ele>86</ele>
        <time>2017-10-01T09:15:32.000Z</time>
      </trkpt>
      <trkpt lat="44.98073" lon="1.05045">
        <ele>86</ele>
        <time>2017-10-01T09:15:33.000Z</time>
      </trkpt>
      <trkpt lat="44.98069" lon="1.05041">
        <ele>86</ele>
        <time>2017-10-01T09:15:34.000Z</time>
      </trkpt>
      <trkpt lat="44.98065" lon="1.05037">
        <ele>86</ele>
        <time>2017-10-01T09:15:35.000Z</time>
      </trkpt>
      <trkpt lat="44.98061" lon="1.05032">
        <ele>86</ele>
        <time>2017-10-01T09:15:36.000Z</time>
      </trkpt>
      <trkpt lat="44.98057" lon="1.05028">
        <ele>86</ele>
        <time>2017-10-01T09:15:37.000Z</time>
      </trkpt>
      <trkpt lat="44.98054" lon="1.05023">
        <ele>86</ele>
        <time>2017-10-01T09:15:38.000Z</time>
      </trkpt>
      <trkpt lat="44.98051" lon="1.05018">
        <ele>86</ele>
        <time>2017-10-01T09:15:39.000Z</time>
      </trkpt>
      <trkpt lat="44.98048" lon="1.05012">
        <ele>86</ele>
        <time>2017-10-01T09:15:40.000Z</time>
      </trkpt>
      <trkpt lat="44.98046" lon="1.05006">
        <ele>86</ele>
        <time>2017-10-01T09:15:41.000Z</time>
      </trkpt>
      <trkpt lat="44.98043" lon="1.05">
        <ele>86</ele>
        <time>2017-10-01T09:15:42.000Z</time>
      </trkpt>
      <trkpt lat="44.98042" lon="1.04994">
        <ele>86</ele>
        <time>2017-10-01T09:15:43.000Z</time>
      </trkpt>
      <trkpt lat="44.9804" lon="1.04987">
        <ele>86</ele>
        <time>2017-10-01T09:15:44.000Z</time>
      </trkpt>
      <trkpt lat="44.98039" lon="1.0498">
        <ele>86</ele>
        <time>2017-10-01T09:15:45.000Z</time>
      </trkpt>
      <trkpt lat="44.98038" lon="1.04974">
        <ele>86</ele>
        <time>2017-10-01T09:15:46.000Z</time>
      </trkpt>
      <trkpt lat="44.98037" lon="1.04968">
        <ele>86</ele>
        <time>2017-10-01T09:15:47.000Z</time>
      </trkpt>
      <trkpt lat="44.98035" lon="1.04961">
        <ele>86</ele>
        <time>2017-10-01T09:15:48.000Z</time>
      </trkpt>
      <trkpt lat="44.98034" lon="1.04955">
        <ele>86</ele>
        <time>2017-10-01T09:15:49.000Z</time>
      </trkpt>
      <trkpt lat="44.98034" lon="1.04949">
        <ele>86</ele>
        <time>2017-10-01T09:15:50.000Z</time>
      </trkpt>
      <trkpt lat="44.98033" lon="1.04943">
        <ele>86</ele>
        <time>2017-10-01T09:15:51.000Z</time>
      </trkpt>
      <trkpt lat="44.98032" lon="1.04936">
        <ele>86</ele>
        <time>2017-10-01T09:15:52.000Z</time>
      </trkpt>
      <trkpt lat="44.98031" lon="1.0493">
        <ele>86</ele>
        <time>2017-10-01T09:15:53.000Z</time>
      </trkpt>
      <trkpt lat="44.9803" lon="1.04924">
        <ele>87</ele>
        <time>2017-10-01T09:15:54.000Z</time>
      </trkpt>
      <trkpt lat="44.98029" lon="1.04918">
        <ele>87</ele>
        <time>2017-10-01T09:15:55.000Z</time>
      </trkpt>
      <trkpt lat="44.98028" lon="1.04911">
        <ele>87</ele>
        <time>2017-10-01T09:15:56.000Z</time>
      </trkpt>
      <trkpt lat="44.98027" lon="1.04905">
        <ele>87</ele>
        <time>2017-10-01T09:15:57.000Z</time>
      </trkpt>
      <trkpt lat="44.98026" lon="1.04899">
        <ele>87</ele>
        <time>2017-10-01T09:15:58.000Z</time>
      </trkpt>
      <trkpt lat="44.98025" lon="1.04893">
        <ele>87</ele>
        <time>2017-10-01T09:15:59.000Z</time>
      </trkpt>
      <trkpt lat="44.98024" lon="1.04886">
        <ele>87</ele>
        <time>2017-10-01T09:16:00.000Z</time>
      </trkpt>
      <trkpt lat="44.98023" lon="1.0488">
        <ele>87</ele>
        <time>2017-10-01T09:16:01.000Z</time>
      </trkpt>
      <trkpt lat="44.98023" lon="1.04873">
        <ele>87</ele>
        <time>2017-10-01T09:16:02.000Z</time>
      </trkpt>
      <trkpt lat="44.98022" lon="1.04866">
        <ele>87</ele>
        <time>2017-10-01T09:16:03.000Z</time>
      </trkpt>
      <trkpt lat="44.98022" lon="1.04858">
        <ele>87</ele>
        <time>2017-10-01T09:16:04.000Z</time>
      </trkpt>
      <trkpt lat="44.98022" lon="1.04851">
        <ele>87</ele>
        <time>2017-10-01T09:16:05.000Z</time>
      </trkpt>
      <trkpt lat="44.98022" lon="1.04843">
        <ele>87</ele>
        <time>2017-10-01T09:16:06.000Z</time>
      </trkpt>
      <trkpt lat="44.98022" lon="1.04834">
        <ele>87</ele>
        <time>2017-10-01T09:16:07.000Z</time>
      </trkpt>
      <trkpt lat="44.98023" lon="1.04826">
        <ele>87</ele>
        <time>2017-10-01T09:16:08.000Z</time>
      </trkpt>
      <trkpt lat="44.98023" lon="1.04817">
        <ele>87</ele>
        <time>2017-10-01T09:16:09.000Z</time>
      </trkpt>
      <trkpt lat="44.98023" lon="1.04807">
        <ele>87</ele>
        <time>2017-10-01T09:16:10.000Z</time>
      </trkpt>
      <trkpt lat="44.98023" lon="1.04798">
        <ele>88</ele>
        <time>2017-10-01T09:16:11.000Z</time>
      </trkpt>
      <trkpt lat="44.98022" lon="1.04789">
        <ele>88</ele>
        <time>2017-10-01T09:16:12.000Z</time>
      </trkpt>
      <trkpt lat="44.98022" lon="1.04779">
        <ele>88</ele>
        <time>2017-10-01T09:16:13.000Z</time>
      </trkpt>
      <trkpt lat="44.98022" lon="1.0477">
        <ele>88</ele>
        <time>2017-10-01T09:16:14.000Z</time>
      </trkpt>
      <trkpt lat="44.98022" lon="1.04762">
        <ele>88</ele>
        <time>2017-10-01T09:16:15.000Z</time>
      </trkpt>
      <trkpt lat="44.98022" lon="1.04754">
        <ele>88</ele>
        <time>2017-10-01T09:16:16.000Z</time>
      </trkpt>
      <trkpt lat="44.98022" lon="1.04747">
        <ele>88</ele>
        <time>2017-10-01T09:16:17.000Z</time>
      </trkpt>
      <trkpt lat="44.98022" lon="1.0474">
        <ele>88</ele>
        <time>2017-10-01T09:16:18.000Z</time>
      </trkpt>
      <trkpt lat="44.98021" lon="1.04732">
        <ele>88</ele>
        <time>2017-10-01T09:16:19.000Z</time>
      </trkpt>
      <trkpt lat="44.98021" lon="1.04725">
        <ele>88</ele>
        <time>2017-10-01T09:16:20.000Z</time>
      </trkpt>
      <trkpt lat="44.9802" lon="1.04717">
        <ele>88</ele>
        <time>2017-10-01T09:16:21.000Z</time>
      </trkpt>
      <trkpt lat="44.98019" lon="1.04708">
        <ele>88</ele>
        <time>2017-10-01T09:16:22.000Z</time>
      </trkpt>
      <trkpt lat="44.98017" lon="1.04699">
        <ele>87</ele>
        <time>2017-10-01T09:16:23.000Z</time>
      </trkpt>
      <trkpt lat="44.98015" lon="1.04692">
        <ele>87</ele>
        <time>2017-10-01T09:16:24.000Z</time>
      </trkpt>
      <trkpt lat="44.98012" lon="1.04687">
        <ele>87</ele>
        <time>2017-10-01T09:16:25.000Z</time>
      </trkpt>
      <trkpt lat="44.98009" lon="1.04683">
        <ele>87</ele>
        <time>2017-10-01T09:16:26.000Z</time>
      </trkpt>
      <trkpt lat="44.98005" lon="1.04681">
        <ele>86</ele>
        <time>2017-10-01T09:16:27.000Z</time>
      </trkpt>
      <trkpt lat="44.98002" lon="1.04681">
        <ele>86</ele>
        <time>2017-10-01T09:16:28.000Z</time>
      </trkpt>
      <trkpt lat="44.97997" lon="1.04681">
        <ele>86</ele>
        <time>2017-10-01T09:16:29.000Z</time>
      </trkpt>
      <trkpt lat="44.97993" lon="1.04682">
        <ele>85</ele>
        <time>2017-10-01T09:16:30.000Z</time>
      </trkpt>
      <trkpt lat="44.97988" lon="1.04683">
        <ele>85</ele>
        <time>2017-10-01T09:16:31.000Z</time>
      </trkpt>
      <trkpt lat="44.97982" lon="1.04684">
        <ele>85</ele>
        <time>2017-10-01T09:16:32.000Z</time>
      </trkpt>
      <trkpt lat="44.97976" lon="1.04685">
        <ele>84</ele>
        <time>2017-10-01T09:16:33.000Z</time>
      </trkpt>
      <trkpt lat="44.97969" lon="1.04686">
        <ele>84</ele>
        <time>2017-10-01T09:16:34.000Z</time>
      </trkpt>
      <trkpt lat="44.97962" lon="1.04685">
        <ele>83</ele>
        <time>2017-10-01T09:16:35.000Z</time>
      </trkpt>
      <trkpt lat="44.97955" lon="1.04685">
        <ele>83</ele>
        <time>2017-10-01T09:16:36.000Z</time>
      </trkpt>
      <trkpt lat="44.97947" lon="1.04684">
        <ele>82</ele>
        <time>2017-10-01T09:16:37.000Z</time>
      </trkpt>
      <trkpt lat="44.9794" lon="1.04682">
        <ele>82</ele>
        <time>2017-10-01T09:16:38.000Z</time>
      </trkpt>
      <trkpt lat="44.97932" lon="1.04679">
        <ele>81</ele>
        <time>2017-10-01T09:16:39.000Z</time>
      </trkpt>
      <trkpt lat="44.97924" lon="1.04675">
        <ele>81</ele>
        <time>2017-10-01T09:16:40.000Z</time>
      </trkpt>
      <trkpt lat="44.97916" lon="1.04671">
        <ele>80</ele>
        <time>2017-10-01T09:16:41.000Z</time>
      </trkpt>
      <trkpt lat="44.97908" lon="1.04666">
        <ele>79</ele>
        <time>2017-10-01T09:16:42.000Z</time>
      </trkpt>
      <trkpt lat="44.97899" lon="1.0466">
        <ele>78</ele>
        <time>2017-10-01T09:16:43.000Z</time>
      </trkpt>
      <trkpt lat="44.97891" lon="1.04653">
        <ele>77</ele>
        <time>2017-10-01T09:16:44.000Z</time>
      </trkpt>
      <trkpt lat="44.97883" lon="1.04646">
        <ele>76</ele>
        <time>2017-10-01T09:16:45.000Z</time>
      </trkpt>
      <trkpt lat="44.97875" lon="1.0464">
        <ele>75</ele>
        <time>2017-10-01T09:16:46.000Z</time>
      </trkpt>
      <trkpt lat="44.97866" lon="1.04634">
        <ele>74</ele>
        <time>2017-10-01T09:16:47.000Z</time>
      </trkpt>
      <trkpt lat="44.97856" lon="1.0463">
        <ele>73</ele>
        <time>2017-10-01T09:16:48.000Z</time>
      </trkpt>
      <trkpt lat="44.97847" lon="1.04626">
        <ele>71</ele>
        <time>2017-10-01T09:16:49.000Z</time>
      </trkpt>
      <trkpt lat="44.97837" lon="1.04624">
        <ele>70</ele>
        <time>2017-10-01T09:16:50.000Z</time>
      </trkpt>
      <trkpt lat="44.97827" lon="1.04622">
        <ele>69</ele>
        <time>2017-10-01T09:16:51.000Z</time>
      </trkpt>
      <trkpt lat="44.97818" lon="1.0462">
        <ele>69</ele>
        <time>2017-10-01T09:16:52.000Z</time>
      </trkpt>
      <trkpt lat="44.97809" lon="1.04619">
        <ele>68</ele>
        <time>2017-10-01T09:16:53.000Z</time>
      </trkpt>
      <trkpt lat="44.97801" lon="1.04618">
        <ele>67</ele>
        <time>2017-10-01T09:16:54.000Z</time>
      </trkpt>
      <trkpt lat="44.97792" lon="1.04617">
        <ele>67</ele>
        <time>2017-10-01T09:16:55.000Z</time>
      </trkpt>
      <trkpt lat="44.97784" lon="1.04617">
        <ele>66</ele>
        <time>2017-10-01T09:16:56.000Z</time>
      </trkpt>
      <trkpt lat="44.97776" lon="1.04616">
        <ele>66</ele>
        <time>2017-10-01T09:16:57.000Z</time>
      </trkpt>
      <trkpt lat="44.97768" lon="1.04616">
        <ele>65</ele>
        <time>2017-10-01T09:16:58.000Z</time>
      </trkpt>
      <trkpt lat="44.9776" lon="1.04615">
        <ele>65</ele>
        <time>2017-10-01T09:16:59.000Z</time>
      </trkpt>
      <trkpt lat="44.97753" lon="1.04615">
        <ele>64</ele>
        <time>2017-10-01T09:17:00.000Z</time>
      </trkpt>
      <trkpt lat="44.97745" lon="1.04615">
        <ele>65</ele>
        <time>2017-10-01T09:17:01.000Z</time>
      </trkpt>
      <trkpt lat="44.97737" lon="1.04614">
        <ele>65</ele>
        <time>2017-10-01T09:17:02.000Z</time>
      </trkpt>
      <trkpt lat="44.9773" lon="1.04614">
        <ele>66</ele>
        <time>2017-10-01T09:17:03.000Z</time>
      </trkpt>
      <trkpt lat="44.97723" lon="1.04614">
        <ele>67</ele>
        <time>2017-10-01T09:17:04.000Z</time>
      </trkpt>
      <trkpt lat="44.97716" lon="1.04614">
        <ele>67</ele>
        <time>2017-10-01T09:17:05.000Z</time>
      </trkpt>
      <trkpt lat="44.97709" lon="1.04613">
        <ele>68</ele>
        <time>2017-10-01T09:17:06.000Z</time>
      </trkpt>
      <trkpt lat="44.97702" lon="1.04613">
        <ele>69</ele>
        <time>2017-10-01T09:17:07.000Z</time>
      </trkpt>
      <trkpt lat="44.97695" lon="1.04613">
        <ele>69</ele>
        <time>2017-10-01T09:17:08.000Z</time>
      </trkpt>
      <trkpt lat="44.97688" lon="1.04613">
        <ele>70</ele>
        <time>2017-10-01T09:17:09.000Z</time>
      </trkpt>
      <trkpt lat="44.97681" lon="1.04613">
        <ele>71</ele>
        <time>2017-10-01T09:17:10.000Z</time>
      </trkpt>
      <trkpt lat="44.97674" lon="1.04612">
        <ele>71</ele>
        <time>2017-10-01T09:17:11.000Z</time>
      </trkpt>
      <trkpt lat="44.97667" lon="1.04612">
        <ele>72</ele>
        <time>2017-10-01T09:17:12.000Z</time>
      </trkpt>
      <trkpt lat="44.97659" lon="1.04612">
        <ele>75</ele>
        <time>2017-10-01T09:17:13.000Z</time>
      </trkpt>
      <trkpt lat="44.97652" lon="1.04611">
        <ele>77</ele>
        <time>2017-10-01T09:17:14.000Z</time>
      </trkpt>
      <trkpt lat="44.97646" lon="1.04609">
        <ele>79</ele>
        <time>2017-10-01T09:17:15.000Z</time>
      </trkpt>
      <trkpt lat="44.97642" lon="1.04604">
        <ele>80</ele>
        <time>2017-10-01T09:17:16.000Z</time>
      </trkpt>
      <trkpt lat="44.97638" lon="1.04598">
        <ele>81</ele>
        <time>2017-10-01T09:17:17.000Z</time>
      </trkpt>
      <trkpt lat="44.97635" lon="1.04589">
        <ele>81</ele>
        <time>2017-10-01T09:17:18.000Z</time>
      </trkpt>
      <trkpt lat="44.97633" lon="1.0458">
        <ele>82</ele>
        <time>2017-10-01T09:17:19.000Z</time>
      </trkpt>
      <trkpt lat="44.97631" lon="1.04569">
        <ele>82</ele>
        <time>2017-10-01T09:17:20.000Z</time>
      </trkpt>
      <trkpt lat="44.97629" lon="1.04557">
        <ele>81</ele>
        <time>2017-10-01T09:17:21.000Z</time>
      </trkpt>
      <trkpt lat="44.97629" lon="1.04546">
        <ele>81</ele>
        <time>2017-10-01T09:17:22.000Z</time>
      </trkpt>
      <trkpt lat="44.97629" lon="1.04536">
        <ele>80</ele>
        <time>2017-10-01T09:17:23.000Z</time>
      </trkpt>
      <trkpt lat="44.97629" lon="1.04529">
        <ele>79</ele>
        <time>2017-10-01T09:17:24.000Z</time>
      </trkpt>
      <trkpt lat="44.97629" lon="1.04524">
        <ele>79</ele>
        <time>2017-10-01T09:17:25.000Z</time>
      </trkpt>
      <trkpt lat="44.97629" lon="1.0452">
        <ele>79</ele>
        <time>2017-10-01T09:17:26.000Z</time>
      </trkpt>
      <trkpt lat="44.97629" lon="1.04517">
        <ele>79</ele>
        <time>2017-10-01T09:17:27.000Z</time>
      </trkpt>
      <trkpt lat="44.97628" lon="1.04514">
        <ele>79</ele>
        <time>2017-10-01T09:17:28.000Z</time>
      </trkpt>
      <trkpt lat="44.97628" lon="1.04513">
        <ele>78</ele>
        <time>2017-10-01T09:17:29.000Z</time>
      </trkpt>
      <trkpt lat="44.97628" lon="1.04512">
        <ele>78</ele>
        <time>2017-10-01T09:17:30.000Z</time>
      </trkpt>
      <trkpt lat="44.97628" lon="1.04511">
        <ele>78</ele>
        <time>2017-10-01T09:17:34.000Z</time>
      </trkpt>
      <trkpt lat="44.97628" lon="1.04511">
        <ele>78</ele>
        <time>2017-10-01T09:17:34.000Z</time>
      </trkpt>
      <trkpt lat="44.97628" lon="1.04511">
        <ele>78</ele>
        <time>2017-10-01T09:17:34.000Z</time>
      </trkpt>
      <trkpt lat="44.97628" lon="1.04511">
        <ele>78</ele>
        <time>2017-10-01T09:17:34.000Z</time>
      </trkpt>
      <trkpt lat="44.97628" lon="1.0451">
        <ele>79</ele>
        <time>2017-10-01T09:17:52.000Z</time>
      </trkpt>
      <trkpt lat="44.97628" lon="1.0451">
        <ele>79</ele>
        <time>2017-10-01T09:17:52.000Z</time>
      </trkpt>
      <trkpt lat="44.97628" lon="1.0451">
        <ele>79</ele>
        <time>2017-10-01T09:17:52.000Z</time>
      </trkpt>
      <trkpt lat="44.97628" lon="1.0451">
        <ele>79</ele>
        <time>2017-10-01T09:17:52.000Z</time>
      </trkpt>
      <trkpt lat="44.97628" lon="1.0451">
        <ele>79</ele>
        <time>2017-10-01T09:17:52.000Z</time>
      </trkpt>
      <trkpt lat="44.97628" lon="1.0451">
        <ele>79</ele>
        <time>2017-10-01T09:17:52.000Z</time>
      </trkpt>
      <trkpt lat="44.97628" lon="1.0451">
        <ele>79</ele>
        <time>2017-10-01T09:17:52.000Z</time>
      </trkpt>
      <trkpt lat="44.97628" lon="1.0451">
        <ele>79</ele>
        <time>2017-10-01T09:17:52.000Z</time>
      </trkpt>
      <trkpt lat="44.97628" lon="1.0451">
        <ele>79</ele>
        <time>2017-10-01T09:17:52.000Z</time>
      </trkpt>
      <trkpt lat="44.97628" lon="1.0451">
        <ele>79</ele>
        <time>2017-10-01T09:17:52.000Z</time>
      </trkpt>
      <trkpt lat="44.97628" lon="1.0451">
        <ele>79</ele>
        <time>2017-10-01T09:17:52.000Z</time>
      </trkpt>
      <trkpt lat="44.97628" lon="1.0451">
        <ele>79</ele>
        <time>2017-10-01T09:17:52.000Z</time>
      </trkpt>
      <trkpt lat="44.97628" lon="1.0451">
        <ele>79</ele>
        <time>2017-10-01T09:17:52.000Z</time>
      </trkpt>
      <trkpt lat="44.97628" lon="1.0451">
        <ele>79</ele>
        <time>2017-10-01T09:17:52.000Z</time>
      </trkpt>
      <trkpt lat="44.97628" lon="1.0451">
        <ele>79</ele>
        <time>2017-10-01T09:17:52.000Z</time>
      </trkpt>
      <trkpt lat="44.97628" lon="1.0451">
        <ele>79</ele>
        <time>2017-10-01T09:17:52.000Z</time>
      </trkpt>
      <trkpt lat="44.97628" lon="1.0451">
        <ele>79</ele>
        <time>2017-10-01T09:17:52.000Z</time>
      </trkpt>
      <trkpt lat="44.97628" lon="1.0451">
        <ele>79</ele>
        <time>2017-10-01T09:17:52.000Z</time>
      </trkpt>
      <trkpt lat="44.97628" lon="1.0451">
        <ele>78</ele>
        <time>2017-10-01T09:22:07.000Z</time>
      </trkpt>
      <trkpt lat="44.97628" lon="1.0451">
        <ele>78</ele>
        <time>2017-10-01T09:22:07.000Z</time>
      </trkpt>
      <trkpt lat="44.97628" lon="1.0451">
        <ele>78</ele>
        <time>2017-10-01T09:22:07.000Z</time>
      </trkpt>
      <trkpt lat="44.97628" lon="1.0451">
        <ele>78</ele>
        <time>2017-10-01T09:22:07.000Z</time>
      </trkpt>
      <trkpt lat="44.97628" lon="1.0451">
        <ele>78</ele>
        <time>2017-10-01T09:22:07.000Z</time>
      </trkpt>
      <trkpt lat="44.97628" lon="1.0451">
        <ele>78</ele>
        <time>2017-10-01T09:22:07.000Z</time>
      </trkpt>
      <trkpt lat="44.97628" lon="1.0451">
        <ele>78</ele>
        <time>2017-10-01T09:22:07.000Z</time>
      </trkpt>
      <trkpt lat="44.97628" lon="1.0451">
        <ele>78</ele>
        <time>2017-10-01T09:22:07.000Z</time>
      </trkpt>
      <trkpt lat="44.97628" lon="1.0451">
        <ele>78</ele>
        <time>2017-10-01T09:22:07.000Z</time>
      </trkpt>
      <trkpt lat="44.97628" lon="1.0451">
        <ele>78</ele>
        <time>2017-10-01T09:22:07.000Z</time>
      </trkpt>
      <trkpt lat="44.97628" lon="1.0451">
        <ele>78</ele>
        <time>2017-10-01T09:22:07.000Z</time>
      </trkpt>
      <trkpt lat="44.97628" lon="1.0451">
        <ele>78</ele>
        <time>2017-10-01T09:22:07.000Z</time>
      </trkpt>
      <trkpt lat="44.97628" lon="1.0451">
        <ele>78</ele>
        <time>2017-10-01T09:22:07.000Z</time>
      </trkpt>
      <trkpt lat="44.97628" lon="1.0451">
        <ele>78</ele>
        <time>2017-10-01T09:22:07.000Z</time>
      </trkpt>
      <trkpt lat="44.97628" lon="1.0451">
        <ele>78</ele>
        <time>2017-10-01T09:22:07.000Z</time>
      </trkpt>
      <trkpt lat="44.97628" lon="1.0451">
        <ele>78</ele>
        <time>2017-10-01T09:22:07.000Z</time>
      </trkpt>
      <trkpt lat="44.97628" lon="1.0451">
        <ele>78</ele>
        <time>2017-10-01T09:22:07.000Z</time>
      </trkpt>
      <trkpt lat="44.97628" lon="1.0451">
        <ele>78</ele>
        <time>2017-10-01T09:22:07.000Z</time>
      </trkpt>
      <trkpt lat="44.97628" lon="1.0451">
        <ele>78</ele>
        <time>2017-10-01T09:22:07.000Z</time>
      </trkpt>
      <trkpt lat="44.97628" lon="1.0451">
        <ele>78</ele>
        <time>2017-10-01T09:22:07.000Z</time>
      </trkpt>
      <trkpt lat="44.97628" lon="1.0451">
        <ele>78</ele>
        <time>2017-10-01T09:22:07.000Z</time>
      </trkpt>
      <trkpt lat="44.97628" lon="1.0451">
        <ele>78</ele>
        <time>2017-10-01T09:22:07.000Z</time>
      </trkpt>
      <trkpt lat="44.97628" lon="1.0451">
        <ele>78</ele>
        <time>2017-10-01T09:22:07.000Z</time>
      </trkpt>
      <trkpt lat="44.97628" lon="1.0451">
        <ele>78</ele>
        <time>2017-10-01T09:22:07.000Z</time>
      </trkpt>
      <trkpt lat="44.97628" lon="1.0451">
        <ele>78</ele>
        <time>2017-10-01T09:22:07.000Z</time>
      </trkpt>
      <trkpt lat="44.97628" lon="1.0451">
        <ele>78</ele>
        <time>2017-10-01T09:22:07.000Z</time>
      </trkpt>
      <trkpt lat="44.97628" lon="1.0451">
        <ele>78</ele>
        <time>2017-10-01T09:22:07.000Z</time>
      </trkpt>
      <trkpt lat="44.97628" lon="1.0451">
        <ele>78</ele>
        <time>2017-10-01T09:22:07.000Z</time>
      </trkpt>
      <trkpt lat="44.97628" lon="1.0451">
        <ele>78</ele>
        <time>2017-10-01T09:22:07.000Z</time>
      </trkpt>
      <trkpt lat="44.97628" lon="1.0451">
        <ele>78</ele>
        <time>2017-10-01T09:22:07.000Z</time>
      </trkpt>
      <trkpt lat="44.97628" lon="1.0451">
        <ele>78</ele>
        <time>2017-10-01T09:22:07.000Z</time>
      </trkpt>
      <trkpt lat="44.97628" lon="1.0451">
        <ele>78</ele>
        <time>2017-10-01T09:22:07.000Z</time>
      </trkpt>
      <trkpt lat="44.97628" lon="1.0451">
        <ele>78</ele>
        <time>2017-10-01T09:22:07.000Z</time>
      </trkpt>
      <trkpt lat="44.97628" lon="1.0451">
        <ele>78</ele>
        <time>2017-10-01T09:22:07.000Z</time>
      </trkpt>
      <trkpt lat="44.97628" lon="1.0451">
        <ele>78</ele>
        <time>2017-10-01T09:22:07.000Z</time>
      </trkpt>
      <trkpt lat="44.97628" lon="1.0451">
        <ele>78</ele>
        <time>2017-10-01T09:22:07.000Z</time>
      </trkpt>
      <trkpt lat="44.97628" lon="1.0451">
        <ele>78</ele>
        <time>2017-10-01T09:22:07.000Z</time>
      </trkpt>
      <trkpt lat="44.97628" lon="1.0451">
        <ele>78</ele>
        <time>2017-10-01T09:22:07.000Z</time>
      </trkpt>
      <trkpt lat="44.97628" lon="1.0451">
        <ele>78</ele>
        <time>2017-10-01T09:22:07.000Z</time>
      </trkpt>
      <trkpt lat="44.97628" lon="1.0451">
        <ele>78</ele>
        <time>2017-10-01T09:22:07.000Z</time>
      </trkpt>
      <trkpt lat="44.97628" lon="1.0451">
        <ele>78</ele>
        <time>2017-10-01T09:22:07.000Z</time>
      </trkpt>
      <trkpt lat="44.97628" lon="1.0451">
        <ele>78</ele>
        <time>2017-10-01T09:22:07.000Z</time>
      </trkpt>
      <trkpt lat="44.97628" lon="1.0451">
        <ele>78</ele>
        <time>2017-10-01T09:22:07.000Z</time>
      </trkpt>
      <trkpt lat="44.97628" lon="1.0451">
        <ele>78</ele>
        <time>2017-10-01T09:22:07.000Z</time>
      </trkpt>
      <trkpt lat="44.97628" lon="1.0451">
        <ele>78</ele>
        <time>2017-10-01T09:22:07.000Z</time>
      </trkpt>
      <trkpt lat="44.97628" lon="1.0451">
        <ele>78</ele>
        <time>2017-10-01T09:22:07.000Z</time>
      </trkpt>
      <trkpt lat="44.97628" lon="1.0451">
        <ele>78</ele>
        <time>2017-10-01T09:22:07.000Z</time>
      </trkpt>
      <trkpt lat="44.97628" lon="1.0451">
        <ele>78</ele>
        <time>2017-10-01T09:22:07.000Z</time>
      </trkpt>
      <trkpt lat="44.97628" lon="1.0451">
        <ele>78</ele>
        <time>2017-10-01T09:22:07.000Z</time>
      </trkpt>
      <trkpt lat="44.97628" lon="1.0451">
        <ele>78</ele>
        <time>2017-10-01T09:22:07.000Z</time>
      </trkpt>
      <trkpt lat="44.97628" lon="1.0451">
        <ele>78</ele>
        <time>2017-10-01T09:22:07.000Z</time>
      </trkpt>
      <trkpt lat="44.97628" lon="1.0451">
        <ele>78</ele>
        <time>2017-10-01T09:22:07.000Z</time>
      </trkpt>
      <trkpt lat="44.97628" lon="1.0451">
        <ele>78</ele>
        <time>2017-10-01T09:22:07.000Z</time>
      </trkpt>
      <trkpt lat="44.97628" lon="1.0451">
        <ele>78</ele>
        <time>2017-10-01T09:22:07.000Z</time>
      </trkpt>
      <trkpt lat="44.97628" lon="1.0451">
        <ele>78</ele>
        <time>2017-10-01T09:22:07.000Z</time>
      </trkpt>
      <trkpt lat="44.97628" lon="1.0451">
        <ele>78</ele>
        <time>2017-10-01T09:22:07.000Z</time>
      </trkpt>
      <trkpt lat="44.97628" lon="1.0451">
        <ele>78</ele>
        <time>2017-10-01T09:22:07.000Z</time>
      </trkpt>
      <trkpt lat="44.97628" lon="1.0451">
        <ele>78</ele>
        <time>2017-10-01T09:22:07.000Z</time>
      </trkpt>
      <trkpt lat="44.97628" lon="1.0451">
        <ele>78</ele>
        <time>2017-10-01T09:22:07.000Z</time>
      </trkpt>
      <trkpt lat="44.97628" lon="1.0451">
        <ele>78</ele>
        <time>2017-10-01T09:22:07.000Z</time>
      </trkpt>
      <trkpt lat="44.97628" lon="1.0451">
        <ele>78</ele>
        <time>2017-10-01T09:22:07.000Z</time>
      </trkpt>
      <trkpt lat="44.97628" lon="1.0451">
        <ele>78</ele>
        <time>2017-10-01T09:22:07.000Z</time>
      </trkpt>
      <trkpt lat="44.97628" lon="1.0451">
        <ele>78</ele>
        <time>2017-10-01T09:22:07.000Z</time>
      </trkpt>
      <trkpt lat="44.97628" lon="1.0451">
        <ele>78</ele>
        <time>2017-10-01T09:22:07.000Z</time>
      </trkpt>
      <trkpt lat="44.97628" lon="1.0451">
        <ele>78</ele>
        <time>2017-10-01T09:22:07.000Z</time>
      </trkpt>
      <trkpt lat="44.97628" lon="1.0451">
        <ele>78</ele>
        <time>2017-10-01T09:22:07.000Z</time>
      </trkpt>
      <trkpt lat="44.97628" lon="1.0451">
        <ele>78</ele>
        <time>2017-10-01T09:22:07.000Z</time>
      </trkpt>
      <trkpt lat="44.97628" lon="1.0451">
        <ele>78</ele>
        <time>2017-10-01T09:22:07.000Z</time>
      </trkpt>
      <trkpt lat="44.97628" lon="1.0451">
        <ele>78</ele>
        <time>2017-10-01T09:22:07.000Z</time>
      </trkpt>
      <trkpt lat="44.97628" lon="1.0451">
        <ele>78</ele>
        <time>2017-10-01T09:22:07.000Z</time>
      </trkpt>
      <trkpt lat="44.97628" lon="1.0451">
        <ele>78</ele>
        <time>2017-10-01T09:22:07.000Z</time>
      </trkpt>
      <trkpt lat="44.97628" lon="1.0451">
        <ele>78</ele>
        <time>2017-10-01T09:22:07.000Z</time>
      </trkpt>
      <trkpt lat="44.97628" lon="1.0451">
        <ele>78</ele>
        <time>2017-10-01T09:22:07.000Z</time>
      </trkpt>
      <trkpt lat="44.97628" lon="1.0451">
        <ele>78</ele>
        <time>2017-10-01T09:22:07.000Z</time>
      </trkpt>
      <trkpt lat="44.97628" lon="1.0451">
        <ele>78</ele>
        <time>2017-10-01T09:22:07.000Z</time>
      </trkpt>
      <trkpt lat="44.97628" lon="1.0451">
        <ele>78</ele>
        <time>2017-10-01T09:22:07.000Z</time>
      </trkpt>
      <trkpt lat="44.97628" lon="1.0451">
        <ele>78</ele>
        <time>2017-10-01T09:22:07.000Z</time>
      </trkpt>
      <trkpt lat="44.97628" lon="1.0451">
        <ele>78</ele>
        <time>2017-10-01T09:22:07.000Z</time>
      </trkpt>
      <trkpt lat="44.97628" lon="1.0451">
        <ele>78</ele>
        <time>2017-10-01T09:22:07.000Z</time>
      </trkpt>
      <trkpt lat="44.97628" lon="1.0451">
        <ele>78</ele>
        <time>2017-10-01T09:22:07.000Z</time>
      </trkpt>
      <trkpt lat="44.97628" lon="1.0451">
        <ele>78</ele>
        <time>2017-10-01T09:22:07.000Z</time>
      </trkpt>
      <trkpt lat="44.97628" lon="1.0451">
        <ele>78</ele>
        <time>2017-10-01T09:22:07.000Z</time>
      </trkpt>
      <trkpt lat="44.97628" lon="1.0451">
        <ele>78</ele>
        <time>2017-10-01T09:22:07.000Z</time>
      </trkpt>
      <trkpt lat="44.97628" lon="1.0451">
        <ele>78</ele>
        <time>2017-10-01T09:22:07.000Z</time>
      </trkpt>
      <trkpt lat="44.97628" lon="1.0451">
        <ele>78</ele>
        <time>2017-10-01T09:22:07.000Z</time>
      </trkpt>
      <trkpt lat="44.97628" lon="1.0451">
        <ele>78</ele>
        <time>2017-10-01T09:22:07.000Z</time>
      </trkpt>
      <trkpt lat="44.97628" lon="1.0451">
        <ele>78</ele>
        <time>2017-10-01T09:22:07.000Z</time>
      </trkpt>
      <trkpt lat="44.97628" lon="1.0451">
        <ele>78</ele>
        <time>2017-10-01T09:22:07.000Z</time>
      </trkpt>
      <trkpt lat="44.97628" lon="1.0451">
        <ele>78</ele>
        <time>2017-10-01T09:22:07.000Z</time>
      </trkpt>
      <trkpt lat="44.97628" lon="1.0451">
        <ele>78</ele>
        <time>2017-10-01T09:22:07.000Z</time>
      </trkpt>
      <trkpt lat="44.97628" lon="1.0451">
        <ele>78</ele>
        <time>2017-10-01T09:22:07.000Z</time>
      </trkpt>
      <trkpt lat="44.97628" lon="1.0451">
        <ele>78</ele>
        <time>2017-10-01T09:22:07.000Z</time>
      </trkpt>
      <trkpt lat="44.97628" lon="1.0451">
        <ele>78</ele>
        <time>2017-10-01T09:22:07.000Z</time>
      </trkpt>
      <trkpt lat="44.97628" lon="1.0451">
        <ele>78</ele>
        <time>2017-10-01T09:22:07.000Z</time>
      </trkpt>
      <trkpt lat="44.97628" lon="1.0451">
        <ele>78</ele>
        <time>2017-10-01T09:22:07.000Z</time>
      </trkpt>
      <trkpt lat="44.97628" lon="1.0451">
        <ele>78</ele>
        <time>2017-10-01T09:22:07.000Z</time>
      </trkpt>
      <trkpt lat="44.97628" lon="1.0451">
        <ele>78</ele>
        <time>2017-10-01T09:22:07.000Z</time>
      </trkpt>
      <trkpt lat="44.97628" lon="1.0451">
        <ele>78</ele>
        <time>2017-10-01T09:22:07.000Z</time>
      </trkpt>
      <trkpt lat="44.97628" lon="1.0451">
        <ele>78</ele>
        <time>2017-10-01T09:22:07.000Z</time>
      </trkpt>
      <trkpt lat="44.97628" lon="1.0451">
        <ele>78</ele>
        <time>2017-10-01T09:22:07.000Z</time>
      </trkpt>
      <trkpt lat="44.97628" lon="1.0451">
        <ele>78</ele>
        <time>2017-10-01T09:22:07.000Z</time>
      </trkpt>
      <trkpt lat="44.97628" lon="1.0451">
        <ele>78</ele>
        <time>2017-10-01T09:22:07.000Z</time>
      </trkpt>
      <trkpt lat="44.97628" lon="1.0451">
        <ele>78</ele>
        <time>2017-10-01T09:22:07.000Z</time>
      </trkpt>
      <trkpt lat="44.97628" lon="1.0451">
        <ele>78</ele>
        <time>2017-10-01T09:22:07.000Z</time>
      </trkpt>
      <trkpt lat="44.97628" lon="1.0451">
        <ele>78</ele>
        <time>2017-10-01T09:22:07.000Z</time>
      </trkpt>
      <trkpt lat="44.97628" lon="1.0451">
        <ele>78</ele>
        <time>2017-10-01T09:22:07.000Z</time>
      </trkpt>
      <trkpt lat="44.97628" lon="1.0451">
        <ele>78</ele>
        <time>2017-10-01T09:22:07.000Z</time>
      </trkpt>
      <trkpt lat="44.97628" lon="1.0451">
        <ele>78</ele>
        <time>2017-10-01T09:22:07.000Z</time>
      </trkpt>
      <trkpt lat="44.97628" lon="1.0451">
        <ele>78</ele>
        <time>2017-10-01T09:22:07.000Z</time>
      </trkpt>
      <trkpt lat="44.97628" lon="1.0451">
        <ele>78</ele>
        <time>2017-10-01T09:22:07.000Z</time>
      </trkpt>
      <trkpt lat="44.97628" lon="1.0451">
        <ele>78</ele>
        <time>2017-10-01T09:22:07.000Z</time>
      </trkpt>
      <trkpt lat="44.97628" lon="1.0451">
        <ele>78</ele>
        <time>2017-10-01T09:22:07.000Z</time>
      </trkpt>
      <trkpt lat="44.97628" lon="1.0451">
        <ele>78</ele>
        <time>2017-10-01T09:22:07.000Z</time>
      </trkpt>
      <trkpt lat="44.97628" lon="1.0451">
        <ele>78</ele>
        <time>2017-10-01T09:22:07.000Z</time>
      </trkpt>
      <trkpt lat="44.97628" lon="1.0451">
        <ele>78</ele>
        <time>2017-10-01T09:22:07.000Z</time>
      </trkpt>
      <trkpt lat="44.97628" lon="1.0451">
        <ele>78</ele>
        <time>2017-10-01T09:22:07.000Z</time>
      </trkpt>
      <trkpt lat="44.97628" lon="1.0451">
        <ele>78</ele>
        <time>2017-10-01T09:22:07.000Z</time>
      </trkpt>
      <trkpt lat="44.97628" lon="1.0451">
        <ele>78</ele>
        <time>2017-10-01T09:22:07.000Z</time>
      </trkpt>
      <trkpt lat="44.97628" lon="1.0451">
        <ele>78</ele>
        <time>2017-10-01T09:22:07.000Z</time>
      </trkpt>
      <trkpt lat="44.97628" lon="1.0451">
        <ele>78</ele>
        <time>2017-10-01T09:22:07.000Z</time>
      </trkpt>
      <trkpt lat="44.97628" lon="1.0451">
        <ele>78</ele>
        <time>2017-10-01T09:22:07.000Z</time>
      </trkpt>
      <trkpt lat="44.97628" lon="1.0451">
        <ele>78</ele>
        <time>2017-10-01T09:22:07.000Z</time>
      </trkpt>
      <trkpt lat="44.97628" lon="1.0451">
        <ele>78</ele>
        <time>2017-10-01T09:22:07.000Z</time>
      </trkpt>
      <trkpt lat="44.97628" lon="1.0451">
        <ele>78</ele>
        <time>2017-10-01T09:22:07.000Z</time>
      </trkpt>
      <trkpt lat="44.97628" lon="1.0451">
        <ele>78</ele>
        <time>2017-10-01T09:22:07.000Z</time>
      </trkpt>
      <trkpt lat="44.97628" lon="1.0451">
        <ele>78</ele>
        <time>2017-10-01T09:22:07.000Z</time>
      </trkpt>
      <trkpt lat="44.97628" lon="1.0451">
        <ele>78</ele>
        <time>2017-10-01T09:22:07.000Z</time>
      </trkpt>
      <trkpt lat="44.97628" lon="1.0451">
        <ele>78</ele>
        <time>2017-10-01T09:22:07.000Z</time>
      </trkpt>
      <trkpt lat="44.97628" lon="1.0451">
        <ele>78</ele>
        <time>2017-10-01T09:22:07.000Z</time>
      </trkpt>
      <trkpt lat="44.97628" lon="1.0451">
        <ele>78</ele>
        <time>2017-10-01T09:22:07.000Z</time>
      </trkpt>
      <trkpt lat="44.97628" lon="1.0451">
        <ele>78</ele>
        <time>2017-10-01T09:22:07.000Z</time>
      </trkpt>
      <trkpt lat="44.97628" lon="1.0451">
        <ele>78</ele>
        <time>2017-10-01T09:22:07.000Z</time>
      </trkpt>
      <trkpt lat="44.97628" lon="1.0451">
        <ele>78</ele>
        <time>2017-10-01T09:22:07.000Z</time>
      </trkpt>
      <trkpt lat="44.97628" lon="1.0451">
        <ele>78</ele>
        <time>2017-10-01T09:22:07.000Z</time>
      </trkpt>
      <trkpt lat="44.97628" lon="1.0451">
        <ele>78</ele>
        <time>2017-10-01T09:22:07.000Z</time>
      </trkpt>
      <trkpt lat="44.97628" lon="1.0451">
        <ele>78</ele>
        <time>2017-10-01T09:22:07.000Z</time>
      </trkpt>
      <trkpt lat="44.97628" lon="1.0451">
        <ele>78</ele>
        <time>2017-10-01T09:22:07.000Z</time>
      </trkpt>
      <trkpt lat="44.97628" lon="1.0451">
        <ele>78</ele>
        <time>2017-10-01T09:22:07.000Z</time>
      </trkpt>
      <trkpt lat="44.97628" lon="1.0451">
        <ele>78</ele>
        <time>2017-10-01T09:22:07.000Z</time>
      </trkpt>
      <trkpt lat="44.97628" lon="1.0451">
        <ele>78</ele>
        <time>2017-10-01T09:22:07.000Z</time>
      </trkpt>
      <trkpt lat="44.97628" lon="1.0451">
        <ele>78</ele>
        <time>2017-10-01T09:22:07.000Z</time>
      </trkpt>
      <trkpt lat="44.97628" lon="1.0451">
        <ele>78</ele>
        <time>2017-10-01T09:22:07.000Z</time>
      </trkpt>
      <trkpt lat="44.97628" lon="1.0451">
        <ele>78</ele>
        <time>2017-10-01T09:22:07.000Z</time>
      </trkpt>
      <trkpt lat="44.97628" lon="1.0451">
        <ele>78</ele>
        <time>2017-10-01T09:22:07.000Z</time>
      </trkpt>
      <trkpt lat="44.97628" lon="1.0451">
        <ele>78</ele>
        <time>2017-10-01T09:22:07.000Z</time>
      </trkpt>
      <trkpt lat="44.97628" lon="1.0451">
        <ele>78</ele>
        <time>2017-10-01T09:22:07.000Z</time>
      </trkpt>
      <trkpt lat="44.97628" lon="1.0451">
        <ele>78</ele>
        <time>2017-10-01T09:22:07.000Z</time>
      </trkpt>
      <trkpt lat="44.97628" lon="1.0451">
        <ele>78</ele>
        <time>2017-10-01T09:22:07.000Z</time>
      </trkpt>
      <trkpt lat="44.97628" lon="1.0451">
        <ele>78</ele>
        <time>2017-10-01T09:22:07.000Z</time>
      </trkpt>
      <trkpt lat="44.97628" lon="1.0451">
        <ele>78</ele>
        <time>2017-10-01T09:22:07.000Z</time>
      </trkpt>
      <trkpt lat="44.97628" lon="1.0451">
        <ele>78</ele>
        <time>2017-10-01T09:22:07.000Z</time>
      </trkpt>
      <trkpt lat="44.97628" lon="1.0451">
        <ele>78</ele>
        <time>2017-10-01T09:22:07.000Z</time>
      </trkpt>
      <trkpt lat="44.97628" lon="1.0451">
        <ele>78</ele>
        <time>2017-10-01T09:22:07.000Z</time>
      </trkpt>
      <trkpt lat="44.97628" lon="1.0451">
        <ele>78</ele>
        <time>2017-10-01T09:22:07.000Z</time>
      </trkpt>
      <trkpt lat="44.97628" lon="1.0451">
        <ele>78</ele>
        <time>2017-10-01T09:22:07.000Z</time>
      </trkpt>
      <trkpt lat="44.97628" lon="1.0451">
        <ele>78</ele>
        <time>2017-10-01T09:22:07.000Z</time>
      </trkpt>
      <trkpt lat="44.97628" lon="1.0451">
        <ele>78</ele>
        <time>2017-10-01T09:22:07.000Z</time>
      </trkpt>
      <trkpt lat="44.97628" lon="1.0451">
        <ele>78</ele>
        <time>2017-10-01T09:22:07.000Z</time>
      </trkpt>
      <trkpt lat="44.97628" lon="1.0451">
        <ele>78</ele>
        <time>2017-10-01T09:22:07.000Z</time>
      </trkpt>
      <trkpt lat="44.97628" lon="1.0451">
        <ele>78</ele>
        <time>2017-10-01T09:22:07.000Z</time>
      </trkpt>
      <trkpt lat="44.97628" lon="1.0451">
        <ele>78</ele>
        <time>2017-10-01T09:22:07.000Z</time>
      </trkpt>
      <trkpt lat="44.97628" lon="1.0451">
        <ele>78</ele>
        <time>2017-10-01T09:22:07.000Z</time>
      </trkpt>
      <trkpt lat="44.97628" lon="1.0451">
        <ele>78</ele>
        <time>2017-10-01T09:22:07.000Z</time>
      </trkpt>
      <trkpt lat="44.97628" lon="1.0451">
        <ele>78</ele>
        <time>2017-10-01T09:22:07.000Z</time>
      </trkpt>
      <trkpt lat="44.97628" lon="1.0451">
        <ele>78</ele>
        <time>2017-10-01T09:22:07.000Z</time>
      </trkpt>
      <trkpt lat="44.97628" lon="1.0451">
        <ele>78</ele>
        <time>2017-10-01T09:22:07.000Z</time>
      </trkpt>
      <trkpt lat="44.97628" lon="1.0451">
        <ele>78</ele>
        <time>2017-10-01T09:22:07.000Z</time>
      </trkpt>
      <trkpt lat="44.97628" lon="1.0451">
        <ele>78</ele>
        <time>2017-10-01T09:22:07.000Z</time>
      </trkpt>
      <trkpt lat="44.97628" lon="1.0451">
        <ele>78</ele>
        <time>2017-10-01T09:22:07.000Z</time>
      </trkpt>
      <trkpt lat="44.97628" lon="1.0451">
        <ele>78</ele>
        <time>2017-10-01T09:22:07.000Z</time>
      </trkpt>
      <trkpt lat="44.97628" lon="1.0451">
        <ele>78</ele>
        <time>2017-10-01T09:22:07.000Z</time>
      </trkpt>
      <trkpt lat="44.97628" lon="1.0451">
        <ele>78</ele>
        <time>2017-10-01T09:22:07.000Z</time>
      </trkpt>
      <trkpt lat="44.97628" lon="1.0451">
        <ele>78</ele>
        <time>2017-10-01T09:22:07.000Z</time>
      </trkpt>
      <trkpt lat="44.97628" lon="1.0451">
        <ele>78</ele>
        <time>2017-10-01T09:22:07.000Z</time>
      </trkpt>
      <trkpt lat="44.97628" lon="1.0451">
        <ele>78</ele>
        <time>2017-10-01T09:22:07.000Z</time>
      </trkpt>
      <trkpt lat="44.97628" lon="1.0451">
        <ele>78</ele>
        <time>2017-10-01T09:22:07.000Z</time>
      </trkpt>
      <trkpt lat="44.97628" lon="1.0451">
        <ele>78</ele>
        <time>2017-10-01T09:22:07.000Z</time>
      </trkpt>
      <trkpt lat="44.97628" lon="1.0451">
        <ele>78</ele>
        <time>2017-10-01T09:22:07.000Z</time>
      </trkpt>
      <trkpt lat="44.97628" lon="1.0451">
        <ele>78</ele>
        <time>2017-10-01T09:22:07.000Z</time>
      </trkpt>
      <trkpt lat="44.97628" lon="1.0451">
        <ele>78</ele>
        <time>2017-10-01T09:22:07.000Z</time>
      </trkpt>
      <trkpt lat="44.97628" lon="1.0451">
        <ele>78</ele>
        <time>2017-10-01T09:22:07.000Z</time>
      </trkpt>
      <trkpt lat="44.97628" lon="1.0451">
        <ele>78</ele>
        <time>2017-10-01T09:22:07.000Z</time>
      </trkpt>
      <trkpt lat="44.97628" lon="1.0451">
        <ele>78</ele>
        <time>2017-10-01T09:22:07.000Z</time>
      </trkpt>
      <trkpt lat="44.97628" lon="1.0451">
        <ele>78</ele>
        <time>2017-10-01T09:22:07.000Z</time>
      </trkpt>
      <trkpt lat="44.97628" lon="1.0451">
        <ele>78</ele>
        <time>2017-10-01T09:22:07.000Z</time>
      </trkpt>
      <trkpt lat="44.97628" lon="1.0451">
        <ele>78</ele>
        <time>2017-10-01T09:22:07.000Z</time>
      </trkpt>
      <trkpt lat="44.97628" lon="1.0451">
        <ele>78</ele>
        <time>2017-10-01T09:22:07.000Z</time>
      </trkpt>
      <trkpt lat="44.97628" lon="1.0451">
        <ele>78</ele>
        <time>2017-10-01T09:22:07.000Z</time>
      </trkpt>
      <trkpt lat="44.97628" lon="1.0451">
        <ele>78</ele>
        <time>2017-10-01T09:22:07.000Z</time>
      </trkpt>
      <trkpt lat="44.97628" lon="1.0451">
        <ele>78</ele>
        <time>2017-10-01T09:22:07.000Z</time>
      </trkpt>
      <trkpt lat="44.97628" lon="1.0451">
        <ele>78</ele>
        <time>2017-10-01T09:22:07.000Z</time>
      </trkpt>
      <trkpt lat="44.97628" lon="1.0451">
        <ele>78</ele>
        <time>2017-10-01T09:22:07.000Z</time>
      </trkpt>
      <trkpt lat="44.97628" lon="1.0451">
        <ele>78</ele>
        <time>2017-10-01T09:22:07.000Z</time>
      </trkpt>
      <trkpt lat="44.97628" lon="1.0451">
        <ele>78</ele>
        <time>2017-10-01T09:22:07.000Z</time>
      </trkpt>
      <trkpt lat="44.97628" lon="1.0451">
        <ele>78</ele>
        <time>2017-10-01T09:22:07.000Z</time>
      </trkpt>
      <trkpt lat="44.97628" lon="1.0451">
        <ele>78</ele>
        <time>2017-10-01T09:22:07.000Z</time>
      </trkpt>
      <trkpt lat="44.97628" lon="1.0451">
        <ele>78</ele>
        <time>2017-10-01T09:22:07.000Z</time>
      </trkpt>
      <trkpt lat="44.97628" lon="1.0451">
        <ele>78</ele>
        <time>2017-10-01T09:22:07.000Z</time>
      </trkpt>
      <trkpt lat="44.97628" lon="1.0451">
        <ele>78</ele>
        <time>2017-10-01T09:22:07.000Z</time>
      </trkpt>
      <trkpt lat="44.97628" lon="1.0451">
        <ele>78</ele>
        <time>2017-10-01T09:22:07.000Z</time>
      </trkpt>
      <trkpt lat="44.97628" lon="1.0451">
        <ele>78</ele>
        <time>2017-10-01T09:22:07.000Z</time>
      </trkpt>
      <trkpt lat="44.97628" lon="1.0451">
        <ele>78</ele>
        <time>2017-10-01T09:22:07.000Z</time>
      </trkpt>
      <trkpt lat="44.97628" lon="1.0451">
        <ele>78</ele>
        <time>2017-10-01T09:22:07.000Z</time>
      </trkpt>
      <trkpt lat="44.97628" lon="1.0451">
        <ele>78</ele>
        <time>2017-10-01T09:22:07.000Z</time>
      </trkpt>
      <trkpt lat="44.97628" lon="1.0451">
        <ele>78</ele>
        <time>2017-10-01T09:22:07.000Z</time>
      </trkpt>
      <trkpt lat="44.97628" lon="1.0451">
        <ele>78</ele>
        <time>2017-10-01T09:22:07.000Z</time>
      </trkpt>
      <trkpt lat="44.97628" lon="1.0451">
        <ele>78</ele>
        <time>2017-10-01T09:22:07.000Z</time>
      </trkpt>
      <trkpt lat="44.97628" lon="1.0451">
        <ele>78</ele>
        <time>2017-10-01T09:22:07.000Z</time>
      </trkpt>
      <trkpt lat="44.97628" lon="1.0451">
        <ele>78</ele>
        <time>2017-10-01T09:22:07.000Z</time>
      </trkpt>
      <trkpt lat="44.97628" lon="1.0451">
        <ele>78</ele>
        <time>2017-10-01T09:22:07.000Z</time>
      </trkpt>
      <trkpt lat="44.97628" lon="1.0451">
        <ele>78</ele>
        <time>2017-10-01T09:22:07.000Z</time>
      </trkpt>
      <trkpt lat="44.97628" lon="1.0451">
        <ele>78</ele>
        <time>2017-10-01T09:22:07.000Z</time>
      </trkpt>
      <trkpt lat="44.97628" lon="1.0451">
        <ele>78</ele>
        <time>2017-10-01T09:22:07.000Z</time>
      </trkpt>
      <trkpt lat="44.97628" lon="1.0451">
        <ele>78</ele>
        <time>2017-10-01T09:22:07.000Z</time>
      </trkpt>
      <trkpt lat="44.97628" lon="1.0451">
        <ele>78</ele>
        <time>2017-10-01T09:22:07.000Z</time>
      </trkpt>
      <trkpt lat="44.97628" lon="1.0451">
        <ele>78</ele>
        <time>2017-10-01T09:22:07.000Z</time>
      </trkpt>
      <trkpt lat="44.97628" lon="1.0451">
        <ele>78</ele>
        <time>2017-10-01T09:22:07.000Z</time>
      </trkpt>
      <trkpt lat="44.97628" lon="1.0451">
        <ele>78</ele>
        <time>2017-10-01T09:22:07.000Z</time>
      </trkpt>
      <trkpt lat="44.97628" lon="1.0451">
        <ele>78</ele>
        <time>2017-10-01T09:22:07.000Z</time>
      </trkpt>
      <trkpt lat="44.97628" lon="1.0451">
        <ele>78</ele>
        <time>2017-10-01T09:22:07.000Z</time>
      </trkpt>
      <trkpt lat="44.97628" lon="1.0451">
        <ele>78</ele>
        <time>2017-10-01T09:22:07.000Z</time>
      </trkpt>
      <trkpt lat="44.97628" lon="1.0451">
        <ele>78</ele>
        <time>2017-10-01T09:22:07.000Z</time>
      </trkpt>
      <trkpt lat="44.97628" lon="1.0451">
        <ele>78</ele>
        <time>2017-10-01T09:22:07.000Z</time>
      </trkpt>
      <trkpt lat="44.97628" lon="1.0451">
        <ele>78</ele>
        <time>2017-10-01T09:22:07.000Z</time>
      </trkpt>
      <trkpt lat="44.97628" lon="1.0451">
        <ele>78</ele>
        <time>2017-10-01T09:22:07.000Z</time>
      </trkpt>
      <trkpt lat="44.97628" lon="1.0451">
        <ele>78</ele>
        <time>2017-10-01T09:22:07.000Z</time>
      </trkpt>
      <trkpt lat="44.97628" lon="1.0451">
        <ele>78</ele>
        <time>2017-10-01T09:22:07.000Z</time>
      </trkpt>
      <trkpt lat="44.97628" lon="1.0451">
        <ele>78</ele>
        <time>2017-10-01T09:22:07.000Z</time>
      </trkpt>
      <trkpt lat="44.97628" lon="1.0451">
        <ele>78</ele>
        <time>2017-10-01T09:22:07.000Z</time>
      </trkpt>
      <trkpt lat="44.97628" lon="1.0451">
        <ele>78</ele>
        <time>2017-10-01T09:22:07.000Z</time>
      </trkpt>
      <trkpt lat="44.97628" lon="1.0451">
        <ele>78</ele>
        <time>2017-10-01T09:22:07.000Z</time>
      </trkpt>
      <trkpt lat="44.97628" lon="1.0451">
        <ele>78</ele>
        <time>2017-10-01T09:22:07.000Z</time>
      </trkpt>
      <trkpt lat="44.97628" lon="1.0451">
        <ele>78</ele>
        <time>2017-10-01T09:22:07.000Z</time>
      </trkpt>
      <trkpt lat="44.97628" lon="1.0451">
        <ele>78</ele>
        <time>2017-10-01T09:22:07.000Z</time>
      </trkpt>
      <trkpt lat="44.97628" lon="1.0451">
        <ele>78</ele>
        <time>2017-10-01T09:22:07.000Z</time>
      </trkpt>
      <trkpt lat="44.97628" lon="1.0451">
        <ele>78</ele>
        <time>2017-10-01T09:22:07.000Z</time>
      </trkpt>
      <trkpt lat="44.97628" lon="1.0451">
        <ele>78</ele>
        <time>2017-10-01T09:22:07.000Z</time>
      </trkpt>
      <trkpt lat="44.97628" lon="1.04509">
        <ele>78</ele>
        <time>2017-10-01T09:22:07.000Z</time>
      </trkpt>
      <trkpt lat="44.97628" lon="1.04509">
        <ele>78</ele>
        <time>2017-10-01T09:22:07.000Z</time>
      </trkpt>
      <trkpt lat="44.97628" lon="1.04509">
        <ele>78</ele>
        <time>2017-10-01T09:22:07.000Z</time>
      </trkpt>
      <trkpt lat="44.97628" lon="1.04509">
        <ele>78</ele>
        <time>2017-10-01T09:22:07.000Z</time>
      </trkpt>
      <trkpt lat="44.97628" lon="1.04509">
        <ele>78</ele>
        <time>2017-10-01T09:22:07.000Z</time>
      </trkpt>
      <trkpt lat="44.97628" lon="1.04509">
        <ele>78</ele>
        <time>2017-10-01T09:22:07.000Z</time>
      </trkpt>
      <trkpt lat="44.97628" lon="1.04509">
        <ele>78</ele>
        <time>2017-10-01T09:22:07.000Z</time>
      </trkpt>
      <trkpt lat="44.97628" lon="1.04509">
        <ele>78</ele>
        <time>2017-10-01T09:22:07.000Z</time>
      </trkpt>
      <trkpt lat="44.97628" lon="1.04509">
        <ele>78</ele>
        <time>2017-10-01T09:22:07.000Z</time>
      </trkpt>
      <trkpt lat="44.97628" lon="1.04509">
        <ele>78</ele>
        <time>2017-10-01T09:22:07.000Z</time>
      </trkpt>
      <trkpt lat="44.97628" lon="1.04509">
        <ele>78</ele>
        <time>2017-10-01T09:22:07.000Z</time>
      </trkpt>
      <trkpt lat="44.97628" lon="1.04509">
        <ele>78</ele>
        <time>2017-10-01T09:22:07.000Z</time>
      </trkpt>
      <trkpt lat="44.97628" lon="1.04509">
        <ele>78</ele>
        <time>2017-10-01T09:22:07.000Z</time>
      </trkpt>
      <trkpt lat="44.97628" lon="1.04509">
        <ele>78</ele>
        <time>2017-10-01T09:22:07.000Z</time>
      </trkpt>
      <trkpt lat="44.97628" lon="1.04509">
        <ele>78</ele>
        <time>2017-10-01T09:22:07.000Z</time>
      </trkpt>
      <trkpt lat="44.97628" lon="1.04509">
        <ele>78</ele>
        <time>2017-10-01T09:22:07.000Z</time>
      </trkpt>
      <trkpt lat="44.97628" lon="1.04509">
        <ele>78</ele>
        <time>2017-10-01T09:22:07.000Z</time>
      </trkpt>
      <trkpt lat="44.97628" lon="1.04509">
        <ele>78</ele>
        <time>2017-10-01T09:22:07.000Z</time>
      </trkpt>
      <trkpt lat="44.97627" lon="1.04509">
        <ele>78</ele>
        <time>2017-10-01T09:22:08.000Z</time>
      </trkpt>
      <trkpt lat="44.97627" lon="1.04509">
        <ele>78</ele>
        <time>2017-10-01T09:22:10.000Z</time>
      </trkpt>
      <trkpt lat="44.97627" lon="1.04508">
        <ele>78</ele>
        <time>2017-10-01T09:22:10.000Z</time>
      </trkpt>
      <trkpt lat="44.97627" lon="1.04507">
        <ele>78</ele>
        <time>2017-10-01T09:22:11.000Z</time>
      </trkpt>
      <trkpt lat="44.97627" lon="1.04506">
        <ele>78</ele>
        <time>2017-10-01T09:22:12.000Z</time>
      </trkpt>
      <trkpt lat="44.97627" lon="1.04502">
        <ele>78</ele>
        <time>2017-10-01T09:22:13.000Z</time>
      </trkpt>
      <trkpt lat="44.97627" lon="1.045">
        <ele>78</ele>
        <time>2017-10-01T09:22:14.000Z</time>
      </trkpt>
      <trkpt lat="44.97626" lon="1.04497">
        <ele>78</ele>
        <time>2017-10-01T09:22:15.000Z</time>
      </trkpt>
      <trkpt lat="44.97625" lon="1.04495">
        <ele>78</ele>
        <time>2017-10-01T09:22:16.000Z</time>
      </trkpt>
      <trkpt lat="44.97625" lon="1.04493">
        <ele>78</ele>
        <time>2017-10-01T09:22:17.000Z</time>
      </trkpt>
      <trkpt lat="44.97624" lon="1.04491">
        <ele>78</ele>
        <time>2017-10-01T09:22:18.000Z</time>
      </trkpt>
      <trkpt lat="44.97624" lon="1.0449">
        <ele>78</ele>
        <time>2017-10-01T09:22:19.000Z</time>
      </trkpt>
      <trkpt lat="44.97623" lon="1.04489">
        <ele>78</ele>
        <time>2017-10-01T09:22:20.000Z</time>
      </trkpt>
      <trkpt lat="44.97623" lon="1.04488">
        <ele>78</ele>
        <time>2017-10-01T09:22:21.000Z</time>
      </trkpt>
      <trkpt lat="44.97623" lon="1.04487">
        <ele>78</ele>
        <time>2017-10-01T09:22:22.000Z</time>
      </trkpt>
      <trkpt lat="44.97622" lon="1.04487">
        <ele>78</ele>
        <time>2017-10-01T09:22:25.000Z</time>
      </trkpt>
      <trkpt lat="44.97622" lon="1.04486">
        <ele>78</ele>
        <time>2017-10-01T09:22:25.000Z</time>
      </trkpt>
      <trkpt lat="44.97622" lon="1.04486">
        <ele>78</ele>
        <time>2017-10-01T09:22:25.000Z</time>
      </trkpt>
      <trkpt lat="44.97622" lon="1.04485">
        <ele>78</ele>
        <time>2017-10-01T09:22:26.000Z</time>
      </trkpt>
      <trkpt lat="44.97622" lon="1.04484">
        <ele>78</ele>
        <time>2017-10-01T09:22:27.000Z</time>
      </trkpt>
      <trkpt lat="44.97622" lon="1.04483">
        <ele>78</ele>
        <time>2017-10-01T09:22:28.000Z</time>
      </trkpt>
      <trkpt lat="44.97621" lon="1.04482">
        <ele>79</ele>
        <time>2017-10-01T09:22:30.000Z</time>
      </trkpt>
      <trkpt lat="44.97621" lon="1.04482">
        <ele>79</ele>
        <time>2017-10-01T09:22:30.000Z</time>
      </trkpt>
      <trkpt lat="44.97621" lon="1.04481">
        <ele>79</ele>
        <time>2017-10-01T09:22:31.000Z</time>
      </trkpt>
      <trkpt lat="44.9762" lon="1.04481">
        <ele>79</ele>
        <time>2017-10-01T09:22:35.000Z</time>
      </trkpt>
      <trkpt lat="44.9762" lon="1.0448">
        <ele>79</ele>
        <time>2017-10-01T09:22:35.000Z</time>
      </trkpt>
      <trkpt lat="44.9762" lon="1.0448">
        <ele>79</ele>
        <time>2017-10-01T09:22:35.000Z</time>
      </trkpt>
      <trkpt lat="44.9762" lon="1.0448">
        <ele>79</ele>
        <time>2017-10-01T09:22:35.000Z</time>
      </trkpt>
      <trkpt lat="44.97619" lon="1.04479">
        <ele>79</ele>
        <time>2017-10-01T09:22:36.000Z</time>
      </trkpt>
      <trkpt lat="44.97617" lon="1.04478">
        <ele>79</ele>
        <time>2017-10-01T09:22:37.000Z</time>
      </trkpt>
      <trkpt lat="44.97616" lon="1.04477">
        <ele>80</ele>
        <time>2017-10-01T09:22:42.000Z</time>
      </trkpt>
      <trkpt lat="44.97616" lon="1.04477">
        <ele>80</ele>
        <time>2017-10-01T09:22:42.000Z</time>
      </trkpt>
      <trkpt lat="44.97616" lon="1.04477">
        <ele>80</ele>
        <time>2017-10-01T09:22:42.000Z</time>
      </trkpt>
      <trkpt lat="44.97616" lon="1.04477">
        <ele>80</ele>
        <time>2017-10-01T09:22:42.000Z</time>
      </trkpt>
      <trkpt lat="44.97616" lon="1.04477">
        <ele>80</ele>
        <time>2017-10-01T09:22:42.000Z</time>
      </trkpt>
      <trkpt lat="44.97615" lon="1.04477">
        <ele>80</ele>
        <time>2017-10-01T09:22:46.000Z</time>
      </trkpt>
      <trkpt lat="44.97615" lon="1.04477">
        <ele>80</ele>
        <time>2017-10-01T09:22:46.000Z</time>
      </trkpt>
      <trkpt lat="44.97615" lon="1.04477">
        <ele>80</ele>
        <time>2017-10-01T09:22:46.000Z</time>
      </trkpt>
      <trkpt lat="44.97615" lon="1.04477">
        <ele>80</ele>
        <time>2017-10-01T09:22:46.000Z</time>
      </trkpt>
      <trkpt lat="44.97615" lon="1.04477">
        <ele>80</ele>
        <time>2017-10-01T09:22:47.000Z</time>
      </trkpt>
      <trkpt lat="44.97614" lon="1.04476">
        <ele>80</ele>
        <time>2017-10-01T09:22:49.000Z</time>
      </trkpt>
      <trkpt lat="44.97614" lon="1.04476">
        <ele>80</ele>
        <time>2017-10-01T09:22:49.000Z</time>
      </trkpt>
      <trkpt lat="44.97613" lon="1.04475">
        <ele>80</ele>
        <time>2017-10-01T09:22:50.000Z</time>
      </trkpt>
      <trkpt lat="44.97612" lon="1.04474">
        <ele>80</ele>
        <time>2017-10-01T09:22:51.000Z</time>
      </trkpt>
      <trkpt lat="44.97612" lon="1.04473">
        <ele>80</ele>
        <time>2017-10-01T09:22:52.000Z</time>
      </trkpt>
      <trkpt lat="44.97611" lon="1.04472">
        <ele>81</ele>
        <time>2017-10-01T09:22:53.000Z</time>
      </trkpt>
      <trkpt lat="44.9761" lon="1.04471">
        <ele>81</ele>
        <time>2017-10-01T09:22:54.000Z</time>
      </trkpt>
      <trkpt lat="44.97609" lon="1.0447">
        <ele>81</ele>
        <time>2017-10-01T09:22:55.000Z</time>
      </trkpt>
      <trkpt lat="44.97608" lon="1.04468">
        <ele>81</ele>
        <time>2017-10-01T09:22:56.000Z</time>
      </trkpt>
      <trkpt lat="44.97607" lon="1.04467">
        <ele>81</ele>
        <time>2017-10-01T09:22:57.000Z</time>
      </trkpt>
      <trkpt lat="44.97606" lon="1.04466">
        <ele>81</ele>
        <time>2017-10-01T09:22:58.000Z</time>
      </trkpt>
      <trkpt lat="44.97605" lon="1.04465">
        <ele>82</ele>
        <time>2017-10-01T09:22:59.000Z</time>
      </trkpt>
      <trkpt lat="44.97604" lon="1.04464">
        <ele>82</ele>
        <time>2017-10-01T09:23:00.000Z</time>
      </trkpt>
      <trkpt lat="44.97603" lon="1.04462">
        <ele>82</ele>
        <time>2017-10-01T09:23:01.000Z</time>
      </trkpt>
      <trkpt lat="44.97602" lon="1.04459">
        <ele>82</ele>
        <time>2017-10-01T09:23:02.000Z</time>
      </trkpt>
      <trkpt lat="44.97601" lon="1.04457">
        <ele>82</ele>
        <time>2017-10-01T09:23:03.000Z</time>
      </trkpt>
      <trkpt lat="44.97599" lon="1.04454">
        <ele>82</ele>
        <time>2017-10-01T09:23:04.000Z</time>
      </trkpt>
      <trkpt lat="44.97598" lon="1.04452">
        <ele>82</ele>
        <time>2017-10-01T09:23:05.000Z</time>
      </trkpt>
      <trkpt lat="44.97597" lon="1.0445">
        <ele>82</ele>
        <time>2017-10-01T09:23:06.000Z</time>
      </trkpt>
      <trkpt lat="44.97596" lon="1.04448">
        <ele>83</ele>
        <time>2017-10-01T09:23:07.000Z</time>
      </trkpt>
      <trkpt lat="44.97594" lon="1.04446">
        <ele>83</ele>
        <time>2017-10-01T09:23:08.000Z</time>
      </trkpt>
      <trkpt lat="44.97593" lon="1.04444">
        <ele>83</ele>
        <time>2017-10-01T09:23:09.000Z</time>
      </trkpt>
      <trkpt lat="44.97592" lon="1.04442">
        <ele>83</ele>
        <time>2017-10-01T09:23:10.000Z</time>
      </trkpt>
      <trkpt lat="44.97591" lon="1.04441">
        <ele>83</ele>
        <time>2017-10-01T09:23:11.000Z</time>
      </trkpt>
      <trkpt lat="44.9759" lon="1.04439">
        <ele>83</ele>
        <time>2017-10-01T09:23:12.000Z</time>
      </trkpt>
      <trkpt lat="44.97589" lon="1.04437">
        <ele>83</ele>
        <time>2017-10-01T09:23:13.000Z</time>
      </trkpt>
      <trkpt lat="44.97588" lon="1.04436">
        <ele>83</ele>
        <time>2017-10-01T09:23:14.000Z</time>
      </trkpt>
      <trkpt lat="44.97587" lon="1.04434">
        <ele>83</ele>
        <time>2017-10-01T09:23:15.000Z</time>
      </trkpt>
      <trkpt lat="44.97586" lon="1.04432">
        <ele>84</ele>
        <time>2017-10-01T09:23:16.000Z</time>
      </trkpt>
      <trkpt lat="44.97584" lon="1.0443">
        <ele>84</ele>
        <time>2017-10-01T09:23:17.000Z</time>
      </trkpt>
      <trkpt lat="44.97583" lon="1.04428">
        <ele>84</ele>
        <time>2017-10-01T09:23:18.000Z</time>
      </trkpt>
      <trkpt lat="44.97582" lon="1.04427">
        <ele>84</ele>
        <time>2017-10-01T09:23:19.000Z</time>
      </trkpt>
      <trkpt lat="44.97581" lon="1.04425">
        <ele>84</ele>
        <time>2017-10-01T09:23:20.000Z</time>
      </trkpt>
      <trkpt lat="44.9758" lon="1.04423">
        <ele>84</ele>
        <time>2017-10-01T09:23:21.000Z</time>
      </trkpt>
      <trkpt lat="44.97579" lon="1.04421">
        <ele>84</ele>
        <time>2017-10-01T09:23:22.000Z</time>
      </trkpt>
      <trkpt lat="44.97578" lon="1.04419">
        <ele>84</ele>
        <time>2017-10-01T09:23:23.000Z</time>
      </trkpt>
      <trkpt lat="44.97577" lon="1.04417">
        <ele>84</ele>
        <time>2017-10-01T09:23:24.000Z</time>
      </trkpt>
      <trkpt lat="44.97576" lon="1.04416">
        <ele>84</ele>
        <time>2017-10-01T09:23:25.000Z</time>
      </trkpt>
      <trkpt lat="44.97575" lon="1.04414">
        <ele>84</ele>
        <time>2017-10-01T09:23:26.000Z</time>
      </trkpt>
      <trkpt lat="44.97574" lon="1.04413">
        <ele>84</ele>
        <time>2017-10-01T09:23:27.000Z</time>
      </trkpt>
      <trkpt lat="44.97574" lon="1.04411">
        <ele>84</ele>
        <time>2017-10-01T09:23:28.000Z</time>
      </trkpt>
      <trkpt lat="44.97573" lon="1.0441">
        <ele>84</ele>
        <time>2017-10-01T09:23:29.000Z</time>
      </trkpt>
      <trkpt lat="44.97572" lon="1.04408">
        <ele>85</ele>
        <time>2017-10-01T09:23:30.000Z</time>
      </trkpt>
      <trkpt lat="44.97571" lon="1.04407">
        <ele>85</ele>
        <time>2017-10-01T09:23:31.000Z</time>
      </trkpt>
      <trkpt lat="44.9757" lon="1.04405">
        <ele>85</ele>
        <time>2017-10-01T09:23:32.000Z</time>
      </trkpt>
      <trkpt lat="44.9757" lon="1.04403">
        <ele>85</ele>
        <time>2017-10-01T09:23:33.000Z</time>
      </trkpt>
      <trkpt lat="44.97569" lon="1.04401">
        <ele>85</ele>
        <time>2017-10-01T09:23:34.000Z</time>
      </trkpt>
      <trkpt lat="44.97568" lon="1.04399">
        <ele>85</ele>
        <time>2017-10-01T09:23:35.000Z</time>
      </trkpt>
      <trkpt lat="44.97567" lon="1.04398">
        <ele>85</ele>
        <time>2017-10-01T09:23:36.000Z</time>
      </trkpt>
      <trkpt lat="44.97565" lon="1.04396">
        <ele>85</ele>
        <time>2017-10-01T09:23:37.000Z</time>
      </trkpt>
      <trkpt lat="44.97564" lon="1.04395">
        <ele>85</ele>
        <time>2017-10-01T09:23:38.000Z</time>
      </trkpt>
      <trkpt lat="44.97563" lon="1.04394">
        <ele>86</ele>
        <time>2017-10-01T09:23:39.000Z</time>
      </trkpt>
      <trkpt lat="44.97561" lon="1.04394">
        <ele>86</ele>
        <time>2017-10-01T09:23:40.000Z</time>
      </trkpt>
      <trkpt lat="44.9756" lon="1.04395">
        <ele>87</ele>
        <time>2017-10-01T09:23:41.000Z</time>
      </trkpt>
      <trkpt lat="44.97559" lon="1.04396">
        <ele>87</ele>
        <time>2017-10-01T09:23:42.000Z</time>
      </trkpt>
      <trkpt lat="44.97559" lon="1.04397">
        <ele>87</ele>
        <time>2017-10-01T09:23:43.000Z</time>
      </trkpt>
      <trkpt lat="44.97559" lon="1.04399">
        <ele>87</ele>
        <time>2017-10-01T09:23:44.000Z</time>
      </trkpt>
      <trkpt lat="44.9756" lon="1.04401">
        <ele>87</ele>
        <time>2017-10-01T09:23:45.000Z</time>
      </trkpt>
      <trkpt lat="44.97561" lon="1.04404">
        <ele>87</ele>
        <time>2017-10-01T09:23:46.000Z</time>
      </trkpt>
      <trkpt lat="44.97561" lon="1.04406">
        <ele>87</ele>
        <time>2017-10-01T09:23:47.000Z</time>
      </trkpt>
      <trkpt lat="44.97562" lon="1.04408">
        <ele>87</ele>
        <time>2017-10-01T09:23:48.000Z</time>
      </trkpt>
      <trkpt lat="44.97563" lon="1.04411">
        <ele>87</ele>
        <time>2017-10-01T09:23:49.000Z</time>
      </trkpt>
      <trkpt lat="44.97564" lon="1.04413">
        <ele>87</ele>
        <time>2017-10-01T09:23:50.000Z</time>
      </trkpt>
      <trkpt lat="44.97565" lon="1.04416">
        <ele>87</ele>
        <time>2017-10-01T09:23:51.000Z</time>
      </trkpt>
      <trkpt lat="44.97566" lon="1.04419">
        <ele>87</ele>
        <time>2017-10-01T09:23:52.000Z</time>
      </trkpt>
      <trkpt lat="44.97568" lon="1.04423">
        <ele>87</ele>
        <time>2017-10-01T09:23:53.000Z</time>
      </trkpt>
      <trkpt lat="44.97569" lon="1.04427">
        <ele>87</ele>
        <time>2017-10-01T09:23:54.000Z</time>
      </trkpt>
      <trkpt lat="44.9757" lon="1.04431">
        <ele>87</ele>
        <time>2017-10-01T09:23:55.000Z</time>
      </trkpt>
      <trkpt lat="44.97571" lon="1.04435">
        <ele>87</ele>
        <time>2017-10-01T09:23:56.000Z</time>
      </trkpt>
      <trkpt lat="44.97572" lon="1.04439">
        <ele>87</ele>
        <time>2017-10-01T09:23:57.000Z</time>
      </trkpt>
      <trkpt lat="44.97572" lon="1.04444">
        <ele>88</ele>
        <time>2017-10-01T09:23:58.000Z</time>
      </trkpt>
      <trkpt lat="44.97571" lon="1.04447">
        <ele>88</ele>
        <time>2017-10-01T09:23:59.000Z</time>
      </trkpt>
      <trkpt lat="44.9757" lon="1.04448">
        <ele>88</ele>
        <time>2017-10-01T09:24:00.000Z</time>
      </trkpt>
      <trkpt lat="44.97569" lon="1.04449">
        <ele>89</ele>
        <time>2017-10-01T09:24:01.000Z</time>
      </trkpt>
      <trkpt lat="44.97568" lon="1.0445">
        <ele>89</ele>
        <time>2017-10-01T09:24:02.000Z</time>
      </trkpt>
      <trkpt lat="44.97568" lon="1.04451">
        <ele>89</ele>
        <time>2017-10-01T09:24:03.000Z</time>
      </trkpt>
      <trkpt lat="44.97567" lon="1.04453">
        <ele>90</ele>
        <time>2017-10-01T09:24:04.000Z</time>
      </trkpt>
      <trkpt lat="44.97566" lon="1.04455">
        <ele>90</ele>
        <time>2017-10-01T09:24:05.000Z</time>
      </trkpt>
      <trkpt lat="44.97565" lon="1.04457">
        <ele>90</ele>
        <time>2017-10-01T09:24:06.000Z</time>
      </trkpt>
      <trkpt lat="44.97565" lon="1.0446">
        <ele>91</ele>
        <time>2017-10-01T09:24:07.000Z</time>
      </trkpt>
      <trkpt lat="44.97564" lon="1.04462">
        <ele>91</ele>
        <time>2017-10-01T09:24:08.000Z</time>
      </trkpt>
      <trkpt lat="44.97564" lon="1.04465">
        <ele>91</ele>
        <time>2017-10-01T09:24:09.000Z</time>
      </trkpt>
      <trkpt lat="44.97564" lon="1.04467">
        <ele>91</ele>
        <time>2017-10-01T09:24:10.000Z</time>
      </trkpt>
      <trkpt lat="44.97563" lon="1.04469">
        <ele>92</ele>
        <time>2017-10-01T09:24:11.000Z</time>
      </trkpt>
      <trkpt lat="44.97563" lon="1.04472">
        <ele>92</ele>
        <time>2017-10-01T09:24:12.000Z</time>
      </trkpt>
      <trkpt lat="44.97563" lon="1.04474">
        <ele>92</ele>
        <time>2017-10-01T09:24:13.000Z</time>
      </trkpt>
      <trkpt lat="44.97563" lon="1.04476">
        <ele>92</ele>
        <time>2017-10-01T09:24:14.000Z</time>
      </trkpt>
      <trkpt lat="44.97563" lon="1.04478">
        <ele>92</ele>
        <time>2017-10-01T09:24:15.000Z</time>
      </trkpt>
      <trkpt lat="44.97562" lon="1.0448">
        <ele>93</ele>
        <time>2017-10-01T09:24:16.000Z</time>
      </trkpt>
      <trkpt lat="44.97562" lon="1.04482">
        <ele>93</ele>
        <time>2017-10-01T09:24:17.000Z</time>
      </trkpt>
      <trkpt lat="44.97561" lon="1.04484">
        <ele>93</ele>
        <time>2017-10-01T09:24:18.000Z</time>
      </trkpt>
      <trkpt lat="44.9756" lon="1.04486">
        <ele>94</ele>
        <time>2017-10-01T09:24:19.000Z</time>
      </trkpt>
      <trkpt lat="44.9756" lon="1.04488">
        <ele>94</ele>
        <time>2017-10-01T09:24:20.000Z</time>
      </trkpt>
      <trkpt lat="44.97559" lon="1.0449">
        <ele>94</ele>
        <time>2017-10-01T09:24:21.000Z</time>
      </trkpt>
      <trkpt lat="44.97559" lon="1.04492">
        <ele>94</ele>
        <time>2017-10-01T09:24:22.000Z</time>
      </trkpt>
      <trkpt lat="44.97558" lon="1.04494">
        <ele>95</ele>
        <time>2017-10-01T09:24:23.000Z</time>
      </trkpt>
      <trkpt lat="44.97558" lon="1.04496">
        <ele>95</ele>
        <time>2017-10-01T09:24:24.000Z</time>
      </trkpt>
      <trkpt lat="44.97558" lon="1.04498">
        <ele>95</ele>
        <time>2017-10-01T09:24:25.000Z</time>
      </trkpt>
      <trkpt lat="44.97558" lon="1.045">
        <ele>95</ele>
        <time>2017-10-01T09:24:26.000Z</time>
      </trkpt>
      <trkpt lat="44.97558" lon="1.04501">
        <ele>95</ele>
        <time>2017-10-01T09:24:27.000Z</time>
      </trkpt>
      <trkpt lat="44.97558" lon="1.04503">
        <ele>95</ele>
        <time>2017-10-01T09:24:28.000Z</time>
      </trkpt>
      <trkpt lat="44.97557" lon="1.04505">
        <ele>96</ele>
        <time>2017-10-01T09:24:29.000Z</time>
      </trkpt>
      <trkpt lat="44.97557" lon="1.04507">
        <ele>96</ele>
        <time>2017-10-01T09:24:30.000Z</time>
      </trkpt>
      <trkpt lat="44.97557" lon="1.04508">
        <ele>96</ele>
        <time>2017-10-01T09:24:31.000Z</time>
      </trkpt>
      <trkpt lat="44.97557" lon="1.0451">
        <ele>96</ele>
        <time>2017-10-01T09:24:32.000Z</time>
      </trkpt>
      <trkpt lat="44.97557" lon="1.04512">
        <ele>96</ele>
        <time>2017-10-01T09:24:33.000Z</time>
      </trkpt>
      <trkpt lat="44.97557" lon="1.04514">
        <ele>97</ele>
        <time>2017-10-01T09:24:34.000Z</time>
      </trkpt>
      <trkpt lat="44.97556" lon="1.04516">
        <ele>97</ele>
        <time>2017-10-01T09:24:35.000Z</time>
      </trkpt>
      <trkpt lat="44.97556" lon="1.04517">
        <ele>97</ele>
        <time>2017-10-01T09:24:36.000Z</time>
      </trkpt>
      <trkpt lat="44.97556" lon="1.04519">
        <ele>97</ele>
        <time>2017-10-01T09:24:37.000Z</time>
      </trkpt>
      <trkpt lat="44.97556" lon="1.04521">
        <ele>97</ele>
        <time>2017-10-01T09:24:38.000Z</time>
      </trkpt>
      <trkpt lat="44.97556" lon="1.04523">
        <ele>98</ele>
        <time>2017-10-01T09:24:39.000Z</time>
      </trkpt>
      <trkpt lat="44.97556" lon="1.04526">
        <ele>98</ele>
        <time>2017-10-01T09:24:40.000Z</time>
      </trkpt>
      <trkpt lat="44.97557" lon="1.04528">
        <ele>98</ele>
        <time>2017-10-01T09:24:41.000Z</time>
      </trkpt>
      <trkpt lat="44.97557" lon="1.0453">
        <ele>98</ele>
        <time>2017-10-01T09:24:42.000Z</time>
      </trkpt>
      <trkpt lat="44.97557" lon="1.04533">
        <ele>98</ele>
        <time>2017-10-01T09:24:43.000Z</time>
      </trkpt>
      <trkpt lat="44.97557" lon="1.04535">
        <ele>99</ele>
        <time>2017-10-01T09:24:44.000Z</time>
      </trkpt>
      <trkpt lat="44.97557" lon="1.04538">
        <ele>99</ele>
        <time>2017-10-01T09:24:45.000Z</time>
      </trkpt>
      <trkpt lat="44.97557" lon="1.0454">
        <ele>99</ele>
        <time>2017-10-01T09:24:46.000Z</time>
      </trkpt>
      <trkpt lat="44.97557" lon="1.04543">
        <ele>99</ele>
        <time>2017-10-01T09:24:47.000Z</time>
      </trkpt>
      <trkpt lat="44.97557" lon="1.04545">
        <ele>99</ele>
        <time>2017-10-01T09:24:48.000Z</time>
      </trkpt>
      <trkpt lat="44.97557" lon="1.04547">
        <ele>100</ele>
        <time>2017-10-01T09:24:49.000Z</time>
      </trkpt>
      <trkpt lat="44.97557" lon="1.0455">
        <ele>100</ele>
        <time>2017-10-01T09:24:50.000Z</time>
      </trkpt>
      <trkpt lat="44.97558" lon="1.04552">
        <ele>100</ele>
        <time>2017-10-01T09:24:51.000Z</time>
      </trkpt>
      <trkpt lat="44.97558" lon="1.04554">
        <ele>100</ele>
        <time>2017-10-01T09:24:52.000Z</time>
      </trkpt>
      <trkpt lat="44.97558" lon="1.04556">
        <ele>100</ele>
        <time>2017-10-01T09:24:53.000Z</time>
      </trkpt>
      <trkpt lat="44.97559" lon="1.04557">
        <ele>100</ele>
        <time>2017-10-01T09:24:54.000Z</time>
      </trkpt>
      <trkpt lat="44.97559" lon="1.04559">
        <ele>101</ele>
        <time>2017-10-01T09:24:55.000Z</time>
      </trkpt>
      <trkpt lat="44.97559" lon="1.04561">
        <ele>101</ele>
        <time>2017-10-01T09:24:56.000Z</time>
      </trkpt>
      <trkpt lat="44.9756" lon="1.04563">
        <ele>101</ele>
        <time>2017-10-01T09:24:57.000Z</time>
      </trkpt>
      <trkpt lat="44.9756" lon="1.04565">
        <ele>101</ele>
        <time>2017-10-01T09:24:58.000Z</time>
      </trkpt>
      <trkpt lat="44.97561" lon="1.04567">
        <ele>101</ele>
        <time>2017-10-01T09:24:59.000Z</time>
      </trkpt>
      <trkpt lat="44.97561" lon="1.04569">
        <ele>101</ele>
        <time>2017-10-01T09:25:00.000Z</time>
      </trkpt>
      <trkpt lat="44.97561" lon="1.04571">
        <ele>101</ele>
        <time>2017-10-01T09:25:01.000Z</time>
      </trkpt>
      <trkpt lat="44.97562" lon="1.04574">
        <ele>102</ele>
        <time>2017-10-01T09:25:02.000Z</time>
      </trkpt>
      <trkpt lat="44.97562" lon="1.04576">
        <ele>102</ele>
        <time>2017-10-01T09:25:03.000Z</time>
      </trkpt>
      <trkpt lat="44.97561" lon="1.04579">
        <ele>102</ele>
        <time>2017-10-01T09:25:04.000Z</time>
      </trkpt>
      <trkpt lat="44.97561" lon="1.04581">
        <ele>102</ele>
        <time>2017-10-01T09:25:05.000Z</time>
      </trkpt>
      <trkpt lat="44.97561" lon="1.04584">
        <ele>103</ele>
        <time>2017-10-01T09:25:06.000Z</time>
      </trkpt>
      <trkpt lat="44.9756" lon="1.04586">
        <ele>103</ele>
        <time>2017-10-01T09:25:07.000Z</time>
      </trkpt>
      <trkpt lat="44.9756" lon="1.04589">
        <ele>103</ele>
        <time>2017-10-01T09:25:08.000Z</time>
      </trkpt>
      <trkpt lat="44.97559" lon="1.04592">
        <ele>103</ele>
        <time>2017-10-01T09:25:09.000Z</time>
      </trkpt>
      <trkpt lat="44.97559" lon="1.04595">
        <ele>103</ele>
        <time>2017-10-01T09:25:10.000Z</time>
      </trkpt>
      <trkpt lat="44.97558" lon="1.04597">
        <ele>104</ele>
        <time>2017-10-01T09:25:11.000Z</time>
      </trkpt>
      <trkpt lat="44.97558" lon="1.046">
        <ele>104</ele>
        <time>2017-10-01T09:25:12.000Z</time>
      </trkpt>
      <trkpt lat="44.97557" lon="1.04603">
        <ele>104</ele>
        <time>2017-10-01T09:25:13.000Z</time>
      </trkpt>
      <trkpt lat="44.97557" lon="1.04606">
        <ele>104</ele>
        <time>2017-10-01T09:25:14.000Z</time>
      </trkpt>
      <trkpt lat="44.97557" lon="1.04609">
        <ele>104</ele>
        <time>2017-10-01T09:25:15.000Z</time>
      </trkpt>
      <trkpt lat="44.97557" lon="1.04611">
        <ele>105</ele>
        <time>2017-10-01T09:25:16.000Z</time>
      </trkpt>
      <trkpt lat="44.97557" lon="1.04614">
        <ele>105</ele>
        <time>2017-10-01T09:25:17.000Z</time>
      </trkpt>
      <trkpt lat="44.97558" lon="1.04617">
        <ele>105</ele>
        <time>2017-10-01T09:25:18.000Z</time>
      </trkpt>
      <trkpt lat="44.97558" lon="1.0462">
        <ele>105</ele>
        <time>2017-10-01T09:25:19.000Z</time>
      </trkpt>
      <trkpt lat="44.97559" lon="1.04623">
        <ele>105</ele>
        <time>2017-10-01T09:25:20.000Z</time>
      </trkpt>
      <trkpt lat="44.9756" lon="1.04626">
        <ele>105</ele>
        <time>2017-10-01T09:25:21.000Z</time>
      </trkpt>
      <trkpt lat="44.97561" lon="1.04628">
        <ele>105</ele>
        <time>2017-10-01T09:25:22.000Z</time>
      </trkpt>
      <trkpt lat="44.97562" lon="1.04631">
        <ele>105</ele>
        <time>2017-10-01T09:25:23.000Z</time>
      </trkpt>
      <trkpt lat="44.97563" lon="1.04634">
        <ele>105</ele>
        <time>2017-10-01T09:25:24.000Z</time>
      </trkpt>
      <trkpt lat="44.97564" lon="1.04637">
        <ele>105</ele>
        <time>2017-10-01T09:25:25.000Z</time>
      </trkpt>
      <trkpt lat="44.97565" lon="1.0464">
        <ele>105</ele>
        <time>2017-10-01T09:25:26.000Z</time>
      </trkpt>
      <trkpt lat="44.97566" lon="1.04643">
        <ele>105</ele>
        <time>2017-10-01T09:25:27.000Z</time>
      </trkpt>
      <trkpt lat="44.97567" lon="1.04646">
        <ele>106</ele>
        <time>2017-10-01T09:25:28.000Z</time>
      </trkpt>
      <trkpt lat="44.97567" lon="1.0465">
        <ele>106</ele>
        <time>2017-10-01T09:25:29.000Z</time>
      </trkpt>
      <trkpt lat="44.97568" lon="1.04653">
        <ele>106</ele>
        <time>2017-10-01T09:25:30.000Z</time>
      </trkpt>
      <trkpt lat="44.97569" lon="1.04656">
        <ele>106</ele>
        <time>2017-10-01T09:25:31.000Z</time>
      </trkpt>
      <trkpt lat="44.9757" lon="1.04659">
        <ele>106</ele>
        <time>2017-10-01T09:25:32.000Z</time>
      </trkpt>
      <trkpt lat="44.97571" lon="1.04662">
        <ele>106</ele>
        <time>2017-10-01T09:25:33.000Z</time>
      </trkpt>
      <trkpt lat="44.97571" lon="1.04665">
        <ele>106</ele>
        <time>2017-10-01T09:25:34.000Z</time>
      </trkpt>
      <trkpt lat="44.97572" lon="1.04667">
        <ele>106</ele>
        <time>2017-10-01T09:25:35.000Z</time>
      </trkpt>
      <trkpt lat="44.97573" lon="1.0467">
        <ele>107</ele>
        <time>2017-10-01T09:25:36.000Z</time>
      </trkpt>
      <trkpt lat="44.97574" lon="1.04672">
        <ele>107</ele>
        <time>2017-10-01T09:25:37.000Z</time>
      </trkpt>
      <trkpt lat="44.97575" lon="1.04675">
        <ele>107</ele>
        <time>2017-10-01T09:25:38.000Z</time>
      </trkpt>
      <trkpt lat="44.97575" lon="1.04677">
        <ele>107</ele>
        <time>2017-10-01T09:25:39.000Z</time>
      </trkpt>
      <trkpt lat="44.97576" lon="1.0468">
        <ele>107</ele>
        <time>2017-10-01T09:25:40.000Z</time>
      </trkpt>
      <trkpt lat="44.97577" lon="1.04682">
        <ele>107</ele>
        <time>2017-10-01T09:25:41.000Z</time>
      </trkpt>
      <trkpt lat="44.97578" lon="1.04684">
        <ele>107</ele>
        <time>2017-10-01T09:25:42.000Z</time>
      </trkpt>
      <trkpt lat="44.97579" lon="1.04686">
        <ele>107</ele>
        <time>2017-10-01T09:25:43.000Z</time>
      </trkpt>
      <trkpt lat="44.9758" lon="1.04689">
        <ele>107</ele>
        <time>2017-10-01T09:25:44.000Z</time>
      </trkpt>
      <trkpt lat="44.97581" lon="1.04691">
        <ele>107</ele>
        <time>2017-10-01T09:25:45.000Z</time>
      </trkpt>
      <trkpt lat="44.97582" lon="1.04693">
        <ele>108</ele>
        <time>2017-10-01T09:25:46.000Z</time>
      </trkpt>
      <trkpt lat="44.97583" lon="1.04696">
        <ele>108</ele>
        <time>2017-10-01T09:25:47.000Z</time>
      </trkpt>
      <trkpt lat="44.97584" lon="1.04698">
        <ele>108</ele>
        <time>2017-10-01T09:25:48.000Z</time>
      </trkpt>
      <trkpt lat="44.97585" lon="1.047">
        <ele>108</ele>
        <time>2017-10-01T09:25:49.000Z</time>
      </trkpt>
      <trkpt lat="44.97585" lon="1.04703">
        <ele>107</ele>
        <time>2017-10-01T09:25:50.000Z</time>
      </trkpt>
      <trkpt lat="44.97586" lon="1.04705">
        <ele>107</ele>
        <time>2017-10-01T09:25:51.000Z</time>
      </trkpt>
      <trkpt lat="44.97587" lon="1.04708">
        <ele>107</ele>
        <time>2017-10-01T09:25:52.000Z</time>
      </trkpt>
      <trkpt lat="44.97588" lon="1.04711">
        <ele>107</ele>
        <time>2017-10-01T09:25:53.000Z</time>
      </trkpt>
      <trkpt lat="44.97589" lon="1.04713">
        <ele>107</ele>
        <time>2017-10-01T09:25:54.000Z</time>
      </trkpt>
      <trkpt lat="44.9759" lon="1.04716">
        <ele>107</ele>
        <time>2017-10-01T09:25:55.000Z</time>
      </trkpt>
      <trkpt lat="44.97591" lon="1.04719">
        <ele>107</ele>
        <time>2017-10-01T09:25:56.000Z</time>
      </trkpt>
      <trkpt lat="44.97591" lon="1.04721">
        <ele>107</ele>
        <time>2017-10-01T09:25:57.000Z</time>
      </trkpt>
      <trkpt lat="44.97591" lon="1.04724">
        <ele>107</ele>
        <time>2017-10-01T09:25:58.000Z</time>
      </trkpt>
      <trkpt lat="44.97592" lon="1.04726">
        <ele>107</ele>
        <time>2017-10-01T09:25:59.000Z</time>
      </trkpt>
      <trkpt lat="44.97592" lon="1.04729">
        <ele>107</ele>
        <time>2017-10-01T09:26:00.000Z</time>
      </trkpt>
      <trkpt lat="44.97592" lon="1.04731">
        <ele>107</ele>
        <time>2017-10-01T09:26:01.000Z</time>
      </trkpt>
      <trkpt lat="44.97592" lon="1.04733">
        <ele>107</ele>
        <time>2017-10-01T09:26:02.000Z</time>
      </trkpt>
      <trkpt lat="44.97592" lon="1.04736">
        <ele>107</ele>
        <time>2017-10-01T09:26:03.000Z</time>
      </trkpt>
      <trkpt lat="44.97592" lon="1.04738">
        <ele>107</ele>
        <time>2017-10-01T09:26:04.000Z</time>
      </trkpt>
      <trkpt lat="44.97592" lon="1.0474">
        <ele>107</ele>
        <time>2017-10-01T09:26:05.000Z</time>
      </trkpt>
      <trkpt lat="44.97593" lon="1.04743">
        <ele>107</ele>
        <time>2017-10-01T09:26:06.000Z</time>
      </trkpt>
      <trkpt lat="44.97593" lon="1.04745">
        <ele>107</ele>
        <time>2017-10-01T09:26:07.000Z</time>
      </trkpt>
      <trkpt lat="44.97593" lon="1.04747">
        <ele>108</ele>
        <time>2017-10-01T09:26:08.000Z</time>
      </trkpt>
      <trkpt lat="44.97593" lon="1.0475">
        <ele>108</ele>
        <time>2017-10-01T09:26:09.000Z</time>
      </trkpt>
      <trkpt lat="44.97593" lon="1.04752">
        <ele>108</ele>
        <time>2017-10-01T09:26:10.000Z</time>
      </trkpt>
      <trkpt lat="44.97593" lon="1.04754">
        <ele>108</ele>
        <time>2017-10-01T09:26:11.000Z</time>
      </trkpt>
      <trkpt lat="44.97593" lon="1.04757">
        <ele>108</ele>
        <time>2017-10-01T09:26:12.000Z</time>
      </trkpt>
      <trkpt lat="44.97593" lon="1.04759">
        <ele>109</ele>
        <time>2017-10-01T09:26:13.000Z</time>
      </trkpt>
      <trkpt lat="44.97592" lon="1.04762">
        <ele>109</ele>
        <time>2017-10-01T09:26:14.000Z</time>
      </trkpt>
      <trkpt lat="44.97592" lon="1.04764">
        <ele>109</ele>
        <time>2017-10-01T09:26:15.000Z</time>
      </trkpt>
      <trkpt lat="44.97592" lon="1.04767">
        <ele>110</ele>
        <time>2017-10-01T09:26:16.000Z</time>
      </trkpt>
      <trkpt lat="44.97592" lon="1.04769">
        <ele>110</ele>
        <time>2017-10-01T09:26:17.000Z</time>
      </trkpt>
      <trkpt lat="44.97592" lon="1.04771">
        <ele>110</ele>
        <time>2017-10-01T09:26:18.000Z</time>
      </trkpt>
      <trkpt lat="44.97592" lon="1.04774">
        <ele>110</ele>
        <time>2017-10-01T09:26:19.000Z</time>
      </trkpt>
      <trkpt lat="44.97592" lon="1.04776">
        <ele>110</ele>
        <time>2017-10-01T09:26:20.000Z</time>
      </trkpt>
      <trkpt lat="44.97592" lon="1.04778">
        <ele>111</ele>
        <time>2017-10-01T09:26:21.000Z</time>
      </trkpt>
      <trkpt lat="44.97592" lon="1.04781">
        <ele>111</ele>
        <time>2017-10-01T09:26:22.000Z</time>
      </trkpt>
      <trkpt lat="44.97592" lon="1.04783">
        <ele>111</ele>
        <time>2017-10-01T09:26:23.000Z</time>
      </trkpt>
      <trkpt lat="44.97592" lon="1.04785">
        <ele>111</ele>
        <time>2017-10-01T09:26:24.000Z</time>
      </trkpt>
      <trkpt lat="44.97592" lon="1.04788">
        <ele>111</ele>
        <time>2017-10-01T09:26:25.000Z</time>
      </trkpt>
      <trkpt lat="44.97592" lon="1.0479">
        <ele>112</ele>
        <time>2017-10-01T09:26:26.000Z</time>
      </trkpt>
      <trkpt lat="44.97591" lon="1.04792">
        <ele>112</ele>
        <time>2017-10-01T09:26:27.000Z</time>
      </trkpt>
      <trkpt lat="44.97591" lon="1.04795">
        <ele>112</ele>
        <time>2017-10-01T09:26:28.000Z</time>
      </trkpt>
      <trkpt lat="44.97591" lon="1.04797">
        <ele>112</ele>
        <time>2017-10-01T09:26:29.000Z</time>
      </trkpt>
      <trkpt lat="44.97591" lon="1.048">
        <ele>113</ele>
        <time>2017-10-01T09:26:30.000Z</time>
      </trkpt>
      <trkpt lat="44.97591" lon="1.04802">
        <ele>113</ele>
        <time>2017-10-01T09:26:31.000Z</time>
      </trkpt>
      <trkpt lat="44.97591" lon="1.04805">
        <ele>113</ele>
        <time>2017-10-01T09:26:32.000Z</time>
      </trkpt>
      <trkpt lat="44.97591" lon="1.04807">
        <ele>113</ele>
        <time>2017-10-01T09:26:33.000Z</time>
      </trkpt>
      <trkpt lat="44.97592" lon="1.0481">
        <ele>113</ele>
        <time>2017-10-01T09:26:34.000Z</time>
      </trkpt>
      <trkpt lat="44.97592" lon="1.04812">
        <ele>113</ele>
        <time>2017-10-01T09:26:35.000Z</time>
      </trkpt>
      <trkpt lat="44.97592" lon="1.04814">
        <ele>114</ele>
        <time>2017-10-01T09:26:36.000Z</time>
      </trkpt>
      <trkpt lat="44.97592" lon="1.04817">
        <ele>114</ele>
        <time>2017-10-01T09:26:37.000Z</time>
      </trkpt>
      <trkpt lat="44.97593" lon="1.04819">
        <ele>114</ele>
        <time>2017-10-01T09:26:38.000Z</time>
      </trkpt>
      <trkpt lat="44.97593" lon="1.04822">
        <ele>114</ele>
        <time>2017-10-01T09:26:39.000Z</time>
      </trkpt>
      <trkpt lat="44.97593" lon="1.04824">
        <ele>114</ele>
        <time>2017-10-01T09:26:40.000Z</time>
      </trkpt>
      <trkpt lat="44.97593" lon="1.04827">
        <ele>114</ele>
        <time>2017-10-01T09:26:41.000Z</time>
      </trkpt>
      <trkpt lat="44.97593" lon="1.04829">
        <ele>114</ele>
        <time>2017-10-01T09:26:42.000Z</time>
      </trkpt>
      <trkpt lat="44.97593" lon="1.04832">
        <ele>115</ele>
        <time>2017-10-01T09:26:43.000Z</time>
      </trkpt>
      <trkpt lat="44.97593" lon="1.04835">
        <ele>115</ele>
        <time>2017-10-01T09:26:44.000Z</time>
      </trkpt>
      <trkpt lat="44.97593" lon="1.04837">
        <ele>115</ele>
        <time>2017-10-01T09:26:45.000Z</time>
      </trkpt>
      <trkpt lat="44.97593" lon="1.0484">
        <ele>115</ele>
        <time>2017-10-01T09:26:46.000Z</time>
      </trkpt>
      <trkpt lat="44.97593" lon="1.04842">
        <ele>116</ele>
        <time>2017-10-01T09:26:47.000Z</time>
      </trkpt>
      <trkpt lat="44.97593" lon="1.04845">
        <ele>116</ele>
        <time>2017-10-01T09:26:48.000Z</time>
      </trkpt>
      <trkpt lat="44.97592" lon="1.04848">
        <ele>116</ele>
        <time>2017-10-01T09:26:49.000Z</time>
      </trkpt>
      <trkpt lat="44.97592" lon="1.0485">
        <ele>117</ele>
        <time>2017-10-01T09:26:50.000Z</time>
      </trkpt>
      <trkpt lat="44.97592" lon="1.04853">
        <ele>117</ele>
        <time>2017-10-01T09:26:51.000Z</time>
      </trkpt>
      <trkpt lat="44.97592" lon="1.04855">
        <ele>117</ele>
        <time>2017-10-01T09:26:52.000Z</time>
      </trkpt>
      <trkpt lat="44.97592" lon="1.04857">
        <ele>117</ele>
        <time>2017-10-01T09:26:53.000Z</time>
      </trkpt>
      <trkpt lat="44.97593" lon="1.0486">
        <ele>118</ele>
        <time>2017-10-01T09:26:54.000Z</time>
      </trkpt>
      <trkpt lat="44.97593" lon="1.04862">
        <ele>118</ele>
        <time>2017-10-01T09:26:55.000Z</time>
      </trkpt>
      <trkpt lat="44.97593" lon="1.04864">
        <ele>118</ele>
        <time>2017-10-01T09:26:56.000Z</time>
      </trkpt>
      <trkpt lat="44.97593" lon="1.04866">
        <ele>118</ele>
        <time>2017-10-01T09:26:57.000Z</time>
      </trkpt>
      <trkpt lat="44.97593" lon="1.04869">
        <ele>118</ele>
        <time>2017-10-01T09:26:58.000Z</time>
      </trkpt>
      <trkpt lat="44.97593" lon="1.04871">
        <ele>118</ele>
        <time>2017-10-01T09:26:59.000Z</time>
      </trkpt>
      <trkpt lat="44.97594" lon="1.04873">
        <ele>118</ele>
        <time>2017-10-01T09:27:00.000Z</time>
      </trkpt>
      <trkpt lat="44.97594" lon="1.04875">
        <ele>119</ele>
        <time>2017-10-01T09:27:01.000Z</time>
      </trkpt>
      <trkpt lat="44.97594" lon="1.04877">
        <ele>119</ele>
        <time>2017-10-01T09:27:02.000Z</time>
      </trkpt>
      <trkpt lat="44.97595" lon="1.04879">
        <ele>119</ele>
        <time>2017-10-01T09:27:03.000Z</time>
      </trkpt>
      <trkpt lat="44.97595" lon="1.04881">
        <ele>119</ele>
        <time>2017-10-01T09:27:04.000Z</time>
      </trkpt>
      <trkpt lat="44.97595" lon="1.04882">
        <ele>119</ele>
        <time>2017-10-01T09:27:05.000Z</time>
      </trkpt>
      <trkpt lat="44.97596" lon="1.04884">
        <ele>119</ele>
        <time>2017-10-01T09:27:06.000Z</time>
      </trkpt>
      <trkpt lat="44.97596" lon="1.04886">
        <ele>119</ele>
        <time>2017-10-01T09:27:07.000Z</time>
      </trkpt>
      <trkpt lat="44.97596" lon="1.04888">
        <ele>119</ele>
        <time>2017-10-01T09:27:08.000Z</time>
      </trkpt>
      <trkpt lat="44.97597" lon="1.0489">
        <ele>119</ele>
        <time>2017-10-01T09:27:09.000Z</time>
      </trkpt>
      <trkpt lat="44.97597" lon="1.04892">
        <ele>119</ele>
        <time>2017-10-01T09:27:10.000Z</time>
      </trkpt>
      <trkpt lat="44.97597" lon="1.04894">
        <ele>119</ele>
        <time>2017-10-01T09:27:11.000Z</time>
      </trkpt>
      <trkpt lat="44.97597" lon="1.04896">
        <ele>119</ele>
        <time>2017-10-01T09:27:12.000Z</time>
      </trkpt>
      <trkpt lat="44.97597" lon="1.04898">
        <ele>119</ele>
        <time>2017-10-01T09:27:13.000Z</time>
      </trkpt>
      <trkpt lat="44.97598" lon="1.049">
        <ele>120</ele>
        <time>2017-10-01T09:27:14.000Z</time>
      </trkpt>
      <trkpt lat="44.97598" lon="1.04902">
        <ele>120</ele>
        <time>2017-10-01T09:27:15.000Z</time>
      </trkpt>
      <trkpt lat="44.97598" lon="1.04904">
        <ele>120</ele>
        <time>2017-10-01T09:27:16.000Z</time>
      </trkpt>
      <trkpt lat="44.97598" lon="1.04906">
        <ele>120</ele>
        <time>2017-10-01T09:27:17.000Z</time>
      </trkpt>
      <trkpt lat="44.97598" lon="1.04908">
        <ele>120</ele>
        <time>2017-10-01T09:27:18.000Z</time>
      </trkpt>
      <trkpt lat="44.97598" lon="1.0491">
        <ele>120</ele>
        <time>2017-10-01T09:27:19.000Z</time>
      </trkpt>
      <trkpt lat="44.97598" lon="1.04912">
        <ele>121</ele>
        <time>2017-10-01T09:27:20.000Z</time>
      </trkpt>
      <trkpt lat="44.97598" lon="1.04914">
        <ele>121</ele>
        <time>2017-10-01T09:27:21.000Z</time>
      </trkpt>
      <trkpt lat="44.97597" lon="1.04916">
        <ele>121</ele>
        <time>2017-10-01T09:27:22.000Z</time>
      </trkpt>
      <trkpt lat="44.97597" lon="1.04918">
        <ele>122</ele>
        <time>2017-10-01T09:27:23.000Z</time>
      </trkpt>
      <trkpt lat="44.97596" lon="1.0492">
        <ele>122</ele>
        <time>2017-10-01T09:27:24.000Z</time>
      </trkpt>
      <trkpt lat="44.97596" lon="1.04922">
        <ele>122</ele>
        <time>2017-10-01T09:27:25.000Z</time>
      </trkpt>
      <trkpt lat="44.97596" lon="1.04924">
        <ele>123</ele>
        <time>2017-10-01T09:27:26.000Z</time>
      </trkpt>
      <trkpt lat="44.97595" lon="1.04926">
        <ele>123</ele>
        <time>2017-10-01T09:27:27.000Z</time>
      </trkpt>
      <trkpt lat="44.97595" lon="1.04928">
        <ele>123</ele>
        <time>2017-10-01T09:27:28.000Z</time>
      </trkpt>
      <trkpt lat="44.97595" lon="1.0493">
        <ele>123</ele>
        <time>2017-10-01T09:27:29.000Z</time>
      </trkpt>
      <trkpt lat="44.97595" lon="1.04932">
        <ele>124</ele>
        <time>2017-10-01T09:27:30.000Z</time>
      </trkpt>
      <trkpt lat="44.97594" lon="1.04933">
        <ele>124</ele>
        <time>2017-10-01T09:27:31.000Z</time>
      </trkpt>
      <trkpt lat="44.97594" lon="1.04935">
        <ele>124</ele>
        <time>2017-10-01T09:27:32.000Z</time>
      </trkpt>
      <trkpt lat="44.97594" lon="1.04937">
        <ele>124</ele>
        <time>2017-10-01T09:27:33.000Z</time>
      </trkpt>
      <trkpt lat="44.97594" lon="1.04939">
        <ele>124</ele>
        <time>2017-10-01T09:27:34.000Z</time>
      </trkpt>
      <trkpt lat="44.97594" lon="1.04941">
        <ele>125</ele>
        <time>2017-10-01T09:27:35.000Z</time>
      </trkpt>
      <trkpt lat="44.97594" lon="1.04943">
        <ele>125</ele>
        <time>2017-10-01T09:27:36.000Z</time>
      </trkpt>
      <trkpt lat="44.97594" lon="1.04946">
        <ele>125</ele>
        <time>2017-10-01T09:27:37.000Z</time>
      </trkpt>
      <trkpt lat="44.97593" lon="1.04948">
        <ele>125</ele>
        <time>2017-10-01T09:27:38.000Z</time>
      </trkpt>
      <trkpt lat="44.97593" lon="1.0495">
        <ele>126</ele>
        <time>2017-10-01T09:27:39.000Z</time>
      </trkpt>
      <trkpt lat="44.97593" lon="1.04952">
        <ele>126</ele>
        <time>2017-10-01T09:27:40.000Z</time>
      </trkpt>
      <trkpt lat="44.97592" lon="1.04954">
        <ele>126</ele>
        <time>2017-10-01T09:27:41.000Z</time>
      </trkpt>
      <trkpt lat="44.97591" lon="1.04956">
        <ele>127</ele>
        <time>2017-10-01T09:27:42.000Z</time>
      </trkpt>
      <trkpt lat="44.97591" lon="1.04959">
        <ele>127</ele>
        <time>2017-10-01T09:27:43.000Z</time>
      </trkpt>
      <trkpt lat="44.9759" lon="1.04961">
        <ele>128</ele>
        <time>2017-10-01T09:27:44.000Z</time>
      </trkpt>
      <trkpt lat="44.9759" lon="1.04963">
        <ele>128</ele>
        <time>2017-10-01T09:27:45.000Z</time>
      </trkpt>
      <trkpt lat="44.97589" lon="1.04966">
        <ele>128</ele>
        <time>2017-10-01T09:27:46.000Z</time>
      </trkpt>
      <trkpt lat="44.97588" lon="1.04968">
        <ele>129</ele>
        <time>2017-10-01T09:27:47.000Z</time>
      </trkpt>
      <trkpt lat="44.97588" lon="1.0497">
        <ele>129</ele>
        <time>2017-10-01T09:27:48.000Z</time>
      </trkpt>
      <trkpt lat="44.97587" lon="1.04973">
        <ele>130</ele>
        <time>2017-10-01T09:27:49.000Z</time>
      </trkpt>
      <trkpt lat="44.97587" lon="1.04975">
        <ele>130</ele>
        <time>2017-10-01T09:27:50.000Z</time>
      </trkpt>
      <trkpt lat="44.97587" lon="1.04977">
        <ele>130</ele>
        <time>2017-10-01T09:27:51.000Z</time>
      </trkpt>
      <trkpt lat="44.97586" lon="1.0498">
        <ele>131</ele>
        <time>2017-10-01T09:27:52.000Z</time>
      </trkpt>
      <trkpt lat="44.97586" lon="1.04982">
        <ele>131</ele>
        <time>2017-10-01T09:27:53.000Z</time>
      </trkpt>
      <trkpt lat="44.97586" lon="1.04985">
        <ele>131</ele>
        <time>2017-10-01T09:27:54.000Z</time>
      </trkpt>
      <trkpt lat="44.97585" lon="1.04987">
        <ele>132</ele>
        <time>2017-10-01T09:27:55.000Z</time>
      </trkpt>
      <trkpt lat="44.97585" lon="1.0499">
        <ele>132</ele>
        <time>2017-10-01T09:27:56.000Z</time>
      </trkpt>
      <trkpt lat="44.97585" lon="1.04992">
        <ele>132</ele>
        <time>2017-10-01T09:27:57.000Z</time>
      </trkpt>
      <trkpt lat="44.97585" lon="1.04995">
        <ele>132</ele>
        <time>2017-10-01T09:27:58.000Z</time>
      </trkpt>
      <trkpt lat="44.97585" lon="1.04997">
        <ele>133</ele>
        <time>2017-10-01T09:27:59.000Z</time>
      </trkpt>
      <trkpt lat="44.97585" lon="1.05">
        <ele>133</ele>
        <time>2017-10-01T09:28:00.000Z</time>
      </trkpt>
      <trkpt lat="44.97585" lon="1.05002">
        <ele>133</ele>
        <time>2017-10-01T09:28:01.000Z</time>
      </trkpt>
      <trkpt lat="44.97584" lon="1.05004">
        <ele>133</ele>
        <time>2017-10-01T09:28:02.000Z</time>
      </trkpt>
      <trkpt lat="44.97583" lon="1.05006">
        <ele>134</ele>
        <time>2017-10-01T09:28:03.000Z</time>
      </trkpt>
      <trkpt lat="44.97583" lon="1.05008">
        <ele>134</ele>
        <time>2017-10-01T09:28:04.000Z</time>
      </trkpt>
      <trkpt lat="44.97582" lon="1.0501">
        <ele>134</ele>
        <time>2017-10-01T09:28:05.000Z</time>
      </trkpt>
      <trkpt lat="44.97581" lon="1.05012">
        <ele>134</ele>
        <time>2017-10-01T09:28:06.000Z</time>
      </trkpt>
      <trkpt lat="44.9758" lon="1.05013">
        <ele>134</ele>
        <time>2017-10-01T09:28:07.000Z</time>
      </trkpt>
      <trkpt lat="44.97579" lon="1.05015">
        <ele>134</ele>
        <time>2017-10-01T09:28:08.000Z</time>
      </trkpt>
      <trkpt lat="44.97578" lon="1.05017">
        <ele>135</ele>
        <time>2017-10-01T09:28:09.000Z</time>
      </trkpt>
      <trkpt lat="44.97578" lon="1.05019">
        <ele>135</ele>
        <time>2017-10-01T09:28:10.000Z</time>
      </trkpt>
      <trkpt lat="44.97578" lon="1.05022">
        <ele>135</ele>
        <time>2017-10-01T09:28:11.000Z</time>
      </trkpt>
      <trkpt lat="44.97578" lon="1.05024">
        <ele>135</ele>
        <time>2017-10-01T09:28:12.000Z</time>
      </trkpt>
      <trkpt lat="44.97579" lon="1.05026">
        <ele>135</ele>
        <time>2017-10-01T09:28:13.000Z</time>
      </trkpt>
      <trkpt lat="44.9758" lon="1.05029">
        <ele>135</ele>
        <time>2017-10-01T09:28:14.000Z</time>
      </trkpt>
      <trkpt lat="44.97581" lon="1.05031">
        <ele>135</ele>
        <time>2017-10-01T09:28:15.000Z</time>
      </trkpt>
      <trkpt lat="44.97581" lon="1.05033">
        <ele>136</ele>
        <time>2017-10-01T09:28:16.000Z</time>
      </trkpt>
      <trkpt lat="44.97582" lon="1.05036">
        <ele>136</ele>
        <time>2017-10-01T09:28:17.000Z</time>
      </trkpt>
      <trkpt lat="44.97583" lon="1.05038">
        <ele>136</ele>
        <time>2017-10-01T09:28:18.000Z</time>
      </trkpt>
      <trkpt lat="44.97584" lon="1.0504">
        <ele>136</ele>
        <time>2017-10-01T09:28:19.000Z</time>
      </trkpt>
      <trkpt lat="44.97585" lon="1.05043">
        <ele>135</ele>
        <time>2017-10-01T09:28:20.000Z</time>
      </trkpt>
      <trkpt lat="44.97586" lon="1.05045">
        <ele>135</ele>
        <time>2017-10-01T09:28:21.000Z</time>
      </trkpt>
      <trkpt lat="44.97586" lon="1.05047">
        <ele>135</ele>
        <time>2017-10-01T09:28:22.000Z</time>
      </trkpt>
      <trkpt lat="44.97587" lon="1.0505">
        <ele>135</ele>
        <time>2017-10-01T09:28:23.000Z</time>
      </trkpt>
      <trkpt lat="44.97588" lon="1.05052">
        <ele>135</ele>
        <time>2017-10-01T09:28:24.000Z</time>
      </trkpt>
      <trkpt lat="44.97588" lon="1.05055">
        <ele>135</ele>
        <time>2017-10-01T09:28:25.000Z</time>
      </trkpt>
      <trkpt lat="44.97589" lon="1.05057">
        <ele>135</ele>
        <time>2017-10-01T09:28:26.000Z</time>
      </trkpt>
      <trkpt lat="44.9759" lon="1.0506">
        <ele>134</ele>
        <time>2017-10-01T09:28:27.000Z</time>
      </trkpt>
      <trkpt lat="44.9759" lon="1.05063">
        <ele>134</ele>
        <time>2017-10-01T09:28:28.000Z</time>
      </trkpt>
      <trkpt lat="44.97591" lon="1.05066">
        <ele>134</ele>
        <time>2017-10-01T09:28:29.000Z</time>
      </trkpt>
      <trkpt lat="44.97591" lon="1.05069">
        <ele>134</ele>
        <time>2017-10-01T09:28:30.000Z</time>
      </trkpt>
      <trkpt lat="44.97591" lon="1.05071">
        <ele>135</ele>
        <time>2017-10-01T09:28:31.000Z</time>
      </trkpt>
      <trkpt lat="44.97591" lon="1.05074">
        <ele>135</ele>
        <time>2017-10-01T09:28:32.000Z</time>
      </trkpt>
      <trkpt lat="44.97591" lon="1.05076">
        <ele>135</ele>
        <time>2017-10-01T09:28:33.000Z</time>
      </trkpt>
      <trkpt lat="44.97591" lon="1.05078">
        <ele>135</ele>
        <time>2017-10-01T09:28:34.000Z</time>
      </trkpt>
      <trkpt lat="44.97591" lon="1.0508">
        <ele>135</ele>
        <time>2017-10-01T09:28:35.000Z</time>
      </trkpt>
      <trkpt lat="44.97591" lon="1.05082">
        <ele>135</ele>
        <time>2017-10-01T09:28:36.000Z</time>
      </trkpt>
      <trkpt lat="44.97591" lon="1.05084">
        <ele>135</ele>
        <time>2017-10-01T09:28:37.000Z</time>
      </trkpt>
      <trkpt lat="44.97591" lon="1.05086">
        <ele>136</ele>
        <time>2017-10-01T09:28:38.000Z</time>
      </trkpt>
      <trkpt lat="44.97591" lon="1.05088">
        <ele>136</ele>
        <time>2017-10-01T09:29:59.000Z</time>
      </trkpt>
      <trkpt lat="44.97591" lon="1.05089">
        <ele>136</ele>
        <time>2017-10-01T09:30:04.000Z</time>
      </trkpt>
      <trkpt lat="44.97591" lon="1.0509">
        <ele>136</ele>
        <time>2017-10-01T09:28:50.000Z</time>
      </trkpt>
      <trkpt lat="44.97591" lon="1.0509">
        <ele>136</ele>
        <time>2017-10-01T09:28:50.000Z</time>
      </trkpt>
      <trkpt lat="44.97591" lon="1.0509">
        <ele>136</ele>
        <time>2017-10-01T09:28:50.000Z</time>
      </trkpt>
      <trkpt lat="44.97591" lon="1.0509">
        <ele>136</ele>
        <time>2017-10-01T09:28:50.000Z</time>
      </trkpt>
      <trkpt lat="44.97591" lon="1.0509">
        <ele>136</ele>
        <time>2017-10-01T09:28:50.000Z</time>
      </trkpt>
      <trkpt lat="44.97591" lon="1.0509">
        <ele>136</ele>
        <time>2017-10-01T09:28:50.000Z</time>
      </trkpt>
      <trkpt lat="44.97591" lon="1.0509">
        <ele>136</ele>
        <time>2017-10-01T09:28:50.000Z</time>
      </trkpt>
      <trkpt lat="44.97591" lon="1.0509">
        <ele>136</ele>
        <time>2017-10-01T09:28:50.000Z</time>
      </trkpt>
      <trkpt lat="44.97591" lon="1.0509">
        <ele>136</ele>
        <time>2017-10-01T09:28:50.000Z</time>
      </trkpt>
      <trkpt lat="44.97591" lon="1.0509">
        <ele>136</ele>
        <time>2017-10-01T09:28:50.000Z</time>
      </trkpt>
      <trkpt lat="44.97591" lon="1.05091">
        <ele>136</ele>
        <time>2017-10-01T09:28:52.000Z</time>
      </trkpt>
      <trkpt lat="44.97591" lon="1.05091">
        <ele>136</ele>
        <time>2017-10-01T09:28:52.000Z</time>
      </trkpt>
      <trkpt lat="44.9759" lon="1.05091">
        <ele>137</ele>
        <time>2017-10-01T09:28:54.000Z</time>
      </trkpt>
      <trkpt lat="44.9759" lon="1.05091">
        <ele>137</ele>
        <time>2017-10-01T09:28:54.000Z</time>
      </trkpt>
      <trkpt lat="44.97589" lon="1.05092">
        <ele>137</ele>
        <time>2017-10-01T09:28:56.000Z</time>
      </trkpt>
      <trkpt lat="44.97589" lon="1.05092">
        <ele>137</ele>
        <time>2017-10-01T09:28:56.000Z</time>
      </trkpt>
      <trkpt lat="44.97588" lon="1.05091">
        <ele>137</ele>
        <time>2017-10-01T09:28:57.000Z</time>
      </trkpt>
      <trkpt lat="44.97588" lon="1.0509">
        <ele>137</ele>
        <time>2017-10-01T09:28:58.000Z</time>
      </trkpt>
      <trkpt lat="44.97588" lon="1.05089">
        <ele>137</ele>
        <time>2017-10-01T09:28:59.000Z</time>
      </trkpt>
      <trkpt lat="44.97587" lon="1.05088">
        <ele>137</ele>
        <time>2017-10-01T09:29:00.000Z</time>
      </trkpt>
      <trkpt lat="44.97586" lon="1.05087">
        <ele>138</ele>
        <time>2017-10-01T09:29:02.000Z</time>
      </trkpt>
      <trkpt lat="44.97586" lon="1.05087">
        <ele>138</ele>
        <time>2017-10-01T09:29:02.000Z</time>
      </trkpt>
      <trkpt lat="44.97585" lon="1.05087">
        <ele>138</ele>
        <time>2017-10-01T09:29:03.000Z</time>
      </trkpt>
      <trkpt lat="44.97584" lon="1.05087">
        <ele>139</ele>
        <time>2017-10-01T09:29:04.000Z</time>
      </trkpt>
      <trkpt lat="44.97583" lon="1.05088">
        <ele>139</ele>
        <time>2017-10-01T09:29:05.000Z</time>
      </trkpt>
      <trkpt lat="44.97582" lon="1.05088">
        <ele>139</ele>
        <time>2017-10-01T09:29:06.000Z</time>
      </trkpt>
      <trkpt lat="44.97582" lon="1.05089">
        <ele>139</ele>
        <time>2017-10-01T09:29:07.000Z</time>
      </trkpt>
      <trkpt lat="44.97581" lon="1.05089">
        <ele>139</ele>
        <time>2017-10-01T09:29:08.000Z</time>
      </trkpt>
      <trkpt lat="44.97581" lon="1.0509">
        <ele>139</ele>
        <time>2017-10-01T09:29:47.000Z</time>
      </trkpt>
      <trkpt lat="44.97581" lon="1.0509">
        <ele>139</ele>
        <time>2017-10-01T09:29:47.000Z</time>
      </trkpt>
      <trkpt lat="44.9758" lon="1.0509">
        <ele>139</ele>
        <time>2017-10-01T09:29:46.000Z</time>
      </trkpt>
      <trkpt lat="44.9758" lon="1.05091">
        <ele>139</ele>
        <time>2017-10-01T09:29:43.000Z</time>
      </trkpt>
      <trkpt lat="44.9758" lon="1.05091">
        <ele>139</ele>
        <time>2017-10-01T09:29:43.000Z</time>
      </trkpt>
      <trkpt lat="44.9758" lon="1.05091">
        <ele>139</ele>
        <time>2017-10-01T09:29:43.000Z</time>
      </trkpt>
      <trkpt lat="44.9758" lon="1.05091">
        <ele>139</ele>
        <time>2017-10-01T09:29:43.000Z</time>
      </trkpt>
      <trkpt lat="44.9758" lon="1.05091">
        <ele>139</ele>
        <time>2017-10-01T09:29:43.000Z</time>
      </trkpt>
      <trkpt lat="44.9758" lon="1.05091">
        <ele>139</ele>
        <time>2017-10-01T09:29:43.000Z</time>
      </trkpt>
      <trkpt lat="44.9758" lon="1.05091">
        <ele>139</ele>
        <time>2017-10-01T09:29:43.000Z</time>
      </trkpt>
      <trkpt lat="44.9758" lon="1.05091">
        <ele>139</ele>
        <time>2017-10-01T09:29:43.000Z</time>
      </trkpt>
      <trkpt lat="44.9758" lon="1.05091">
        <ele>139</ele>
        <time>2017-10-01T09:29:43.000Z</time>
      </trkpt>
      <trkpt lat="44.9758" lon="1.05091">
        <ele>139</ele>
        <time>2017-10-01T09:29:43.000Z</time>
      </trkpt>
      <trkpt lat="44.9758" lon="1.05091">
        <ele>139</ele>
        <time>2017-10-01T09:29:43.000Z</time>
      </trkpt>
      <trkpt lat="44.9758" lon="1.05091">
        <ele>139</ele>
        <time>2017-10-01T09:29:43.000Z</time>
      </trkpt>
      <trkpt lat="44.9758" lon="1.05091">
        <ele>139</ele>
        <time>2017-10-01T09:29:43.000Z</time>
      </trkpt>
      <trkpt lat="44.9758" lon="1.05091">
        <ele>139</ele>
        <time>2017-10-01T09:29:43.000Z</time>
      </trkpt>
      <trkpt lat="44.9758" lon="1.05091">
        <ele>139</ele>
        <time>2017-10-01T09:29:43.000Z</time>
      </trkpt>
      <trkpt lat="44.9758" lon="1.05091">
        <ele>139</ele>
        <time>2017-10-01T09:29:43.000Z</time>
      </trkpt>
      <trkpt lat="44.9758" lon="1.05091">
        <ele>139</ele>
        <time>2017-10-01T09:29:43.000Z</time>
      </trkpt>
      <trkpt lat="44.9758" lon="1.05091">
        <ele>139</ele>
        <time>2017-10-01T09:29:43.000Z</time>
      </trkpt>
      <trkpt lat="44.9758" lon="1.05091">
        <ele>139</ele>
        <time>2017-10-01T09:29:43.000Z</time>
      </trkpt>
      <trkpt lat="44.9758" lon="1.05091">
        <ele>139</ele>
        <time>2017-10-01T09:29:43.000Z</time>
      </trkpt>
      <trkpt lat="44.9758" lon="1.05091">
        <ele>139</ele>
        <time>2017-10-01T09:29:43.000Z</time>
      </trkpt>
      <trkpt lat="44.9758" lon="1.05091">
        <ele>139</ele>
        <time>2017-10-01T09:29:43.000Z</time>
      </trkpt>
      <trkpt lat="44.9758" lon="1.05091">
        <ele>139</ele>
        <time>2017-10-01T09:29:43.000Z</time>
      </trkpt>
      <trkpt lat="44.9758" lon="1.05091">
        <ele>139</ele>
        <time>2017-10-01T09:29:43.000Z</time>
      </trkpt>
      <trkpt lat="44.9758" lon="1.05091">
        <ele>139</ele>
        <time>2017-10-01T09:29:43.000Z</time>
      </trkpt>
      <trkpt lat="44.9758" lon="1.05091">
        <ele>139</ele>
        <time>2017-10-01T09:29:43.000Z</time>
      </trkpt>
      <trkpt lat="44.9758" lon="1.05091">
        <ele>139</ele>
        <time>2017-10-01T09:29:43.000Z</time>
      </trkpt>
      <trkpt lat="44.9758" lon="1.05091">
        <ele>139</ele>
        <time>2017-10-01T09:29:43.000Z</time>
      </trkpt>
      <trkpt lat="44.9758" lon="1.05091">
        <ele>139</ele>
        <time>2017-10-01T09:29:43.000Z</time>
      </trkpt>
      <trkpt lat="44.9758" lon="1.05091">
        <ele>139</ele>
        <time>2017-10-01T09:29:43.000Z</time>
      </trkpt>
      <trkpt lat="44.9758" lon="1.05091">
        <ele>139</ele>
        <time>2017-10-01T09:29:43.000Z</time>
      </trkpt>
      <trkpt lat="44.9758" lon="1.05091">
        <ele>139</ele>
        <time>2017-10-01T09:29:43.000Z</time>
      </trkpt>
      <trkpt lat="44.9758" lon="1.0509">
        <ele>139</ele>
        <time>2017-10-01T09:29:46.000Z</time>
      </trkpt>
      <trkpt lat="44.9758" lon="1.0509">
        <ele>139</ele>
        <time>2017-10-01T09:29:46.000Z</time>
      </trkpt>
      <trkpt lat="44.9758" lon="1.0509">
        <ele>139</ele>
        <time>2017-10-01T09:29:46.000Z</time>
      </trkpt>
      <trkpt lat="44.97581" lon="1.0509">
        <ele>139</ele>
        <time>2017-10-01T09:29:47.000Z</time>
      </trkpt>
      <trkpt lat="44.97582" lon="1.0509">
        <ele>139</ele>
        <time>2017-10-01T09:29:48.000Z</time>
      </trkpt>
      <trkpt lat="44.97583" lon="1.0509">
        <ele>139</ele>
        <time>2017-10-01T09:29:49.000Z</time>
      </trkpt>
      <trkpt lat="44.97584" lon="1.05089">
        <ele>139</ele>
        <time>2017-10-01T09:29:50.000Z</time>
      </trkpt>
      <trkpt lat="44.97585" lon="1.05088">
        <ele>138</ele>
        <time>2017-10-01T09:29:51.000Z</time>
      </trkpt>
      <trkpt lat="44.97586" lon="1.05087">
        <ele>138</ele>
        <time>2017-10-01T09:29:52.000Z</time>
      </trkpt>
      <trkpt lat="44.97587" lon="1.05086">
        <ele>137</ele>
        <time>2017-10-01T09:29:53.000Z</time>
      </trkpt>
      <trkpt lat="44.97588" lon="1.05085">
        <ele>137</ele>
        <time>2017-10-01T09:29:54.000Z</time>
      </trkpt>
      <trkpt lat="44.97589" lon="1.05085">
        <ele>136</ele>
        <time>2017-10-01T09:29:55.000Z</time>
      </trkpt>
      <trkpt lat="44.9759" lon="1.05086">
        <ele>136</ele>
        <time>2017-10-01T09:29:56.000Z</time>
      </trkpt>
      <trkpt lat="44.9759" lon="1.05087">
        <ele>136</ele>
        <time>2017-10-01T09:29:57.000Z</time>
      </trkpt>
      <trkpt lat="44.97591" lon="1.05087">
        <ele>136</ele>
        <time>2017-10-01T09:29:58.000Z</time>
      </trkpt>
      <trkpt lat="44.97591" lon="1.05088">
        <ele>136</ele>
        <time>2017-10-01T09:29:59.000Z</time>
      </trkpt>
      <trkpt lat="44.97591" lon="1.05089">
        <ele>136</ele>
        <time>2017-10-01T09:30:04.000Z</time>
      </trkpt>
      <trkpt lat="44.97591" lon="1.05089">
        <ele>136</ele>
        <time>2017-10-01T09:30:04.000Z</time>
      </trkpt>
      <trkpt lat="44.97591" lon="1.05089">
        <ele>136</ele>
        <time>2017-10-01T09:30:04.000Z</time>
      </trkpt>
      <trkpt lat="44.97591" lon="1.05089">
        <ele>136</ele>
        <time>2017-10-01T09:30:04.000Z</time>
      </trkpt>
      <trkpt lat="44.97591" lon="1.05089">
        <ele>136</ele>
        <time>2017-10-01T09:30:04.000Z</time>
      </trkpt>
      <trkpt lat="44.97592" lon="1.0509">
        <ele>135</ele>
        <time>2017-10-01T09:30:05.000Z</time>
      </trkpt>
      <trkpt lat="44.97594" lon="1.05091">
        <ele>135</ele>
        <time>2017-10-01T09:30:06.000Z</time>
      </trkpt>
      <trkpt lat="44.97595" lon="1.05092">
        <ele>135</ele>
        <time>2017-10-01T09:30:07.000Z</time>
      </trkpt>
      <trkpt lat="44.97596" lon="1.05094">
        <ele>134</ele>
        <time>2017-10-01T09:30:08.000Z</time>
      </trkpt>
      <trkpt lat="44.97598" lon="1.05096">
        <ele>134</ele>
        <time>2017-10-01T09:30:09.000Z</time>
      </trkpt>
      <trkpt lat="44.97599" lon="1.05098">
        <ele>134</ele>
        <time>2017-10-01T09:30:10.000Z</time>
      </trkpt>
      <trkpt lat="44.976" lon="1.05101">
        <ele>134</ele>
        <time>2017-10-01T09:30:11.000Z</time>
      </trkpt>
      <trkpt lat="44.97601" lon="1.05104">
        <ele>133</ele>
        <time>2017-10-01T09:30:12.000Z</time>
      </trkpt>
      <trkpt lat="44.97602" lon="1.05107">
        <ele>134</ele>
        <time>2017-10-01T09:30:13.000Z</time>
      </trkpt>
      <trkpt lat="44.97602" lon="1.05111">
        <ele>134</ele>
        <time>2017-10-01T09:30:14.000Z</time>
      </trkpt>
      <trkpt lat="44.97603" lon="1.05115">
        <ele>134</ele>
        <time>2017-10-01T09:30:15.000Z</time>
      </trkpt>
      <trkpt lat="44.97604" lon="1.05119">
        <ele>134</ele>
        <time>2017-10-01T09:30:16.000Z</time>
      </trkpt>
      <trkpt lat="44.97604" lon="1.05124">
        <ele>134</ele>
        <time>2017-10-01T09:30:17.000Z</time>
      </trkpt>
      <trkpt lat="44.97605" lon="1.05129">
        <ele>135</ele>
        <time>2017-10-01T09:30:18.000Z</time>
      </trkpt>
      <trkpt lat="44.97606" lon="1.05134">
        <ele>135</ele>
        <time>2017-10-01T09:30:19.000Z</time>
      </trkpt>
      <trkpt lat="44.97607" lon="1.05139">
        <ele>135</ele>
        <time>2017-10-01T09:30:20.000Z</time>
      </trkpt>
      <trkpt lat="44.97608" lon="1.05145">
        <ele>135</ele>
        <time>2017-10-01T09:30:21.000Z</time>
      </trkpt>
      <trkpt lat="44.9761" lon="1.05151">
        <ele>135</ele>
        <time>2017-10-01T09:30:22.000Z</time>
      </trkpt>
      <trkpt lat="44.97613" lon="1.05158">
        <ele>135</ele>
        <time>2017-10-01T09:30:23.000Z</time>
      </trkpt>
      <trkpt lat="44.97615" lon="1.05164">
        <ele>135</ele>
        <time>2017-10-01T09:30:24.000Z</time>
      </trkpt>
      <trkpt lat="44.97618" lon="1.05171">
        <ele>135</ele>
        <time>2017-10-01T09:30:25.000Z</time>
      </trkpt>
      <trkpt lat="44.97622" lon="1.05177">
        <ele>134</ele>
        <time>2017-10-01T09:30:26.000Z</time>
      </trkpt>
      <trkpt lat="44.97625" lon="1.05183">
        <ele>134</ele>
        <time>2017-10-01T09:30:27.000Z</time>
      </trkpt>
      <trkpt lat="44.97629" lon="1.05189">
        <ele>133</ele>
        <time>2017-10-01T09:30:28.000Z</time>
      </trkpt>
      <trkpt lat="44.97632" lon="1.05194">
        <ele>133</ele>
        <time>2017-10-01T09:30:29.000Z</time>
      </trkpt>
      <trkpt lat="44.97636" lon="1.052">
        <ele>132</ele>
        <time>2017-10-01T09:30:30.000Z</time>
      </trkpt>
      <trkpt lat="44.9764" lon="1.05205">
        <ele>131</ele>
        <time>2017-10-01T09:30:31.000Z</time>
      </trkpt>
      <trkpt lat="44.97644" lon="1.05211">
        <ele>131</ele>
        <time>2017-10-01T09:30:32.000Z</time>
      </trkpt>
      <trkpt lat="44.97648" lon="1.05218">
        <ele>130</ele>
        <time>2017-10-01T09:30:33.000Z</time>
      </trkpt>
      <trkpt lat="44.97652" lon="1.05225">
        <ele>130</ele>
        <time>2017-10-01T09:30:34.000Z</time>
      </trkpt>
      <trkpt lat="44.97656" lon="1.05232">
        <ele>129</ele>
        <time>2017-10-01T09:30:35.000Z</time>
      </trkpt>
      <trkpt lat="44.9766" lon="1.0524">
        <ele>129</ele>
        <time>2017-10-01T09:30:36.000Z</time>
      </trkpt>
      <trkpt lat="44.97664" lon="1.05249">
        <ele>129</ele>
        <time>2017-10-01T09:30:37.000Z</time>
      </trkpt>
      <trkpt lat="44.97667" lon="1.05257">
        <ele>129</ele>
        <time>2017-10-01T09:30:38.000Z</time>
      </trkpt>
      <trkpt lat="44.97669" lon="1.05265">
        <ele>128</ele>
        <time>2017-10-01T09:30:39.000Z</time>
      </trkpt>
      <trkpt lat="44.97671" lon="1.05273">
        <ele>127</ele>
        <time>2017-10-01T09:30:40.000Z</time>
      </trkpt>
      <trkpt lat="44.97672" lon="1.05281">
        <ele>127</ele>
        <time>2017-10-01T09:30:41.000Z</time>
      </trkpt>
      <trkpt lat="44.97673" lon="1.05288">
        <ele>127</ele>
        <time>2017-10-01T09:30:42.000Z</time>
      </trkpt>
      <trkpt lat="44.97673" lon="1.05295">
        <ele>127</ele>
        <time>2017-10-01T09:30:43.000Z</time>
      </trkpt>
      <trkpt lat="44.97673" lon="1.05302">
        <ele>128</ele>
        <time>2017-10-01T09:30:44.000Z</time>
      </trkpt>
      <trkpt lat="44.97673" lon="1.05309">
        <ele>128</ele>
        <time>2017-10-01T09:30:45.000Z</time>
      </trkpt>
      <trkpt lat="44.97672" lon="1.05316">
        <ele>128</ele>
        <time>2017-10-01T09:30:46.000Z</time>
      </trkpt>
      <trkpt lat="44.97672" lon="1.05323">
        <ele>129</ele>
        <time>2017-10-01T09:30:47.000Z</time>
      </trkpt>
      <trkpt lat="44.97672" lon="1.05329">
        <ele>129</ele>
        <time>2017-10-01T09:30:48.000Z</time>
      </trkpt>
      <trkpt lat="44.97671" lon="1.05336">
        <ele>130</ele>
        <time>2017-10-01T09:30:49.000Z</time>
      </trkpt>
      <trkpt lat="44.9767" lon="1.05343">
        <ele>130</ele>
        <time>2017-10-01T09:30:50.000Z</time>
      </trkpt>
      <trkpt lat="44.9767" lon="1.0535">
        <ele>130</ele>
        <time>2017-10-01T09:30:51.000Z</time>
      </trkpt>
      <trkpt lat="44.97669" lon="1.05357">
        <ele>130</ele>
        <time>2017-10-01T09:30:52.000Z</time>
      </trkpt>
      <trkpt lat="44.97668" lon="1.05364">
        <ele>130</ele>
        <time>2017-10-01T09:30:53.000Z</time>
      </trkpt>
      <trkpt lat="44.97667" lon="1.05371">
        <ele>131</ele>
        <time>2017-10-01T09:30:54.000Z</time>
      </trkpt>
      <trkpt lat="44.97665" lon="1.05378">
        <ele>131</ele>
        <time>2017-10-01T09:30:55.000Z</time>
      </trkpt>
      <trkpt lat="44.97664" lon="1.05386">
        <ele>131</ele>
        <time>2017-10-01T09:30:56.000Z</time>
      </trkpt>
      <trkpt lat="44.97663" lon="1.05393">
        <ele>131</ele>
        <time>2017-10-01T09:30:57.000Z</time>
      </trkpt>
      <trkpt lat="44.97661" lon="1.05401">
        <ele>132</ele>
        <time>2017-10-01T09:30:58.000Z</time>
      </trkpt>
      <trkpt lat="44.9766" lon="1.05408">
        <ele>132</ele>
        <time>2017-10-01T09:30:59.000Z</time>
      </trkpt>
      <trkpt lat="44.97659" lon="1.05416">
        <ele>132</ele>
        <time>2017-10-01T09:31:00.000Z</time>
      </trkpt>
      <trkpt lat="44.97659" lon="1.05423">
        <ele>133</ele>
        <time>2017-10-01T09:31:01.000Z</time>
      </trkpt>
      <trkpt lat="44.97658" lon="1.0543">
        <ele>133</ele>
        <time>2017-10-01T09:31:02.000Z</time>
      </trkpt>
      <trkpt lat="44.97659" lon="1.05436">
        <ele>133</ele>
        <time>2017-10-01T09:31:03.000Z</time>
      </trkpt>
      <trkpt lat="44.97661" lon="1.05442">
        <ele>133</ele>
        <time>2017-10-01T09:31:04.000Z</time>
      </trkpt>
      <trkpt lat="44.97663" lon="1.05447">
        <ele>133</ele>
        <time>2017-10-01T09:31:05.000Z</time>
      </trkpt>
      <trkpt lat="44.97666" lon="1.05451">
        <ele>133</ele>
        <time>2017-10-01T09:31:06.000Z</time>
      </trkpt>
      <trkpt lat="44.9767" lon="1.05456">
        <ele>132</ele>
        <time>2017-10-01T09:31:07.000Z</time>
      </trkpt>
      <trkpt lat="44.97674" lon="1.0546">
        <ele>131</ele>
        <time>2017-10-01T09:31:08.000Z</time>
      </trkpt>
      <trkpt lat="44.9768" lon="1.05463">
        <ele>130</ele>
        <time>2017-10-01T09:31:09.000Z</time>
      </trkpt>
      <trkpt lat="44.97686" lon="1.05467">
        <ele>128</ele>
        <time>2017-10-01T09:31:10.000Z</time>
      </trkpt>
      <trkpt lat="44.97692" lon="1.05471">
        <ele>127</ele>
        <time>2017-10-01T09:31:11.000Z</time>
      </trkpt>
      <trkpt lat="44.97699" lon="1.05476">
        <ele>125</ele>
        <time>2017-10-01T09:31:12.000Z</time>
      </trkpt>
      <trkpt lat="44.97705" lon="1.0548">
        <ele>124</ele>
        <time>2017-10-01T09:31:13.000Z</time>
      </trkpt>
      <trkpt lat="44.97711" lon="1.05486">
        <ele>123</ele>
        <time>2017-10-01T09:31:14.000Z</time>
      </trkpt>
      <trkpt lat="44.97717" lon="1.05492">
        <ele>121</ele>
        <time>2017-10-01T09:31:15.000Z</time>
      </trkpt>
      <trkpt lat="44.97721" lon="1.05498">
        <ele>121</ele>
        <time>2017-10-01T09:31:16.000Z</time>
      </trkpt>
      <trkpt lat="44.97725" lon="1.05506">
        <ele>120</ele>
        <time>2017-10-01T09:31:17.000Z</time>
      </trkpt>
      <trkpt lat="44.97728" lon="1.05514">
        <ele>119</ele>
        <time>2017-10-01T09:31:18.000Z</time>
      </trkpt>
      <trkpt lat="44.9773" lon="1.05522">
        <ele>119</ele>
        <time>2017-10-01T09:31:19.000Z</time>
      </trkpt>
      <trkpt lat="44.97732" lon="1.05531">
        <ele>118</ele>
        <time>2017-10-01T09:31:20.000Z</time>
      </trkpt>
      <trkpt lat="44.97733" lon="1.05539">
        <ele>118</ele>
        <time>2017-10-01T09:31:21.000Z</time>
      </trkpt>
      <trkpt lat="44.97734" lon="1.05547">
        <ele>117</ele>
        <time>2017-10-01T09:31:22.000Z</time>
      </trkpt>
      <trkpt lat="44.97735" lon="1.05555">
        <ele>117</ele>
        <time>2017-10-01T09:31:23.000Z</time>
      </trkpt>
      <trkpt lat="44.97736" lon="1.05563">
        <ele>117</ele>
        <time>2017-10-01T09:31:24.000Z</time>
      </trkpt>
      <trkpt lat="44.97736" lon="1.0557">
        <ele>117</ele>
        <time>2017-10-01T09:31:25.000Z</time>
      </trkpt>
      <trkpt lat="44.97735" lon="1.05577">
        <ele>117</ele>
        <time>2017-10-01T09:31:26.000Z</time>
      </trkpt>
      <trkpt lat="44.97734" lon="1.05584">
        <ele>118</ele>
        <time>2017-10-01T09:31:27.000Z</time>
      </trkpt>
      <trkpt lat="44.97733" lon="1.0559">
        <ele>118</ele>
        <time>2017-10-01T09:31:28.000Z</time>
      </trkpt>
      <trkpt lat="44.97732" lon="1.05596">
        <ele>118</ele>
        <time>2017-10-01T09:31:29.000Z</time>
      </trkpt>
      <trkpt lat="44.9773" lon="1.05602">
        <ele>118</ele>
        <time>2017-10-01T09:31:30.000Z</time>
      </trkpt>
      <trkpt lat="44.97729" lon="1.05607">
        <ele>118</ele>
        <time>2017-10-01T09:31:31.000Z</time>
      </trkpt>
      <trkpt lat="44.97728" lon="1.05611">
        <ele>118</ele>
        <time>2017-10-01T09:31:32.000Z</time>
      </trkpt>
      <trkpt lat="44.97727" lon="1.05616">
        <ele>118</ele>
        <time>2017-10-01T09:31:33.000Z</time>
      </trkpt>
      <trkpt lat="44.97726" lon="1.0562">
        <ele>118</ele>
        <time>2017-10-01T09:31:34.000Z</time>
      </trkpt>
      <trkpt lat="44.97724" lon="1.05624">
        <ele>119</ele>
        <time>2017-10-01T09:31:35.000Z</time>
      </trkpt>
      <trkpt lat="44.97722" lon="1.05629">
        <ele>119</ele>
        <time>2017-10-01T09:31:36.000Z</time>
      </trkpt>
      <trkpt lat="44.9772" lon="1.05634">
        <ele>119</ele>
        <time>2017-10-01T09:31:37.000Z</time>
      </trkpt>
      <trkpt lat="44.97718" lon="1.05639">
        <ele>120</ele>
        <time>2017-10-01T09:31:38.000Z</time>
      </trkpt>
      <trkpt lat="44.97716" lon="1.05645">
        <ele>120</ele>
        <time>2017-10-01T09:31:39.000Z</time>
      </trkpt>
      <trkpt lat="44.97713" lon="1.05652">
        <ele>121</ele>
        <time>2017-10-01T09:31:40.000Z</time>
      </trkpt>
      <trkpt lat="44.9771" lon="1.05658">
        <ele>121</ele>
        <time>2017-10-01T09:31:41.000Z</time>
      </trkpt>
      <trkpt lat="44.97708" lon="1.05665">
        <ele>122</ele>
        <time>2017-10-01T09:31:42.000Z</time>
      </trkpt>
      <trkpt lat="44.97705" lon="1.05672">
        <ele>122</ele>
        <time>2017-10-01T09:31:43.000Z</time>
      </trkpt>
      <trkpt lat="44.97703" lon="1.05679">
        <ele>122</ele>
        <time>2017-10-01T09:31:44.000Z</time>
      </trkpt>
      <trkpt lat="44.977" lon="1.05685">
        <ele>122</ele>
        <time>2017-10-01T09:31:45.000Z</time>
      </trkpt>
      <trkpt lat="44.97698" lon="1.05691">
        <ele>123</ele>
        <time>2017-10-01T09:31:46.000Z</time>
      </trkpt>
      <trkpt lat="44.97697" lon="1.05696">
        <ele>123</ele>
        <time>2017-10-01T09:31:47.000Z</time>
      </trkpt>
      <trkpt lat="44.97695" lon="1.05702">
        <ele>122</ele>
        <time>2017-10-01T09:31:48.000Z</time>
      </trkpt>
      <trkpt lat="44.97693" lon="1.05709">
        <ele>122</ele>
        <time>2017-10-01T09:31:49.000Z</time>
      </trkpt>
      <trkpt lat="44.97691" lon="1.05718">
        <ele>122</ele>
        <time>2017-10-01T09:31:50.000Z</time>
      </trkpt>
      <trkpt lat="44.97689" lon="1.05726">
        <ele>122</ele>
        <time>2017-10-01T09:31:51.000Z</time>
      </trkpt>
      <trkpt lat="44.97688" lon="1.05734">
        <ele>121</ele>
        <time>2017-10-01T09:31:52.000Z</time>
      </trkpt>
      <trkpt lat="44.97686" lon="1.05741">
        <ele>121</ele>
        <time>2017-10-01T09:31:53.000Z</time>
      </trkpt>
      <trkpt lat="44.97684" lon="1.05748">
        <ele>121</ele>
        <time>2017-10-01T09:31:54.000Z</time>
      </trkpt>
      <trkpt lat="44.97682" lon="1.05755">
        <ele>121</ele>
        <time>2017-10-01T09:31:55.000Z</time>
      </trkpt>
      <trkpt lat="44.9768" lon="1.05762">
        <ele>121</ele>
        <time>2017-10-01T09:31:56.000Z</time>
      </trkpt>
      <trkpt lat="44.97678" lon="1.05768">
        <ele>121</ele>
        <time>2017-10-01T09:31:57.000Z</time>
      </trkpt>
      <trkpt lat="44.97677" lon="1.05775">
        <ele>120</ele>
        <time>2017-10-01T09:31:58.000Z</time>
      </trkpt>
      <trkpt lat="44.97675" lon="1.05781">
        <ele>120</ele>
        <time>2017-10-01T09:31:59.000Z</time>
      </trkpt>
      <trkpt lat="44.97673" lon="1.05788">
        <ele>120</ele>
        <time>2017-10-01T09:32:00.000Z</time>
      </trkpt>
      <trkpt lat="44.97671" lon="1.05795">
        <ele>120</ele>
        <time>2017-10-01T09:32:01.000Z</time>
      </trkpt>
      <trkpt lat="44.97669" lon="1.05802">
        <ele>120</ele>
        <time>2017-10-01T09:32:02.000Z</time>
      </trkpt>
      <trkpt lat="44.97667" lon="1.0581">
        <ele>120</ele>
        <time>2017-10-01T09:32:03.000Z</time>
      </trkpt>
      <trkpt lat="44.97665" lon="1.05819">
        <ele>119</ele>
        <time>2017-10-01T09:32:04.000Z</time>
      </trkpt>
      <trkpt lat="44.97663" lon="1.05827">
        <ele>119</ele>
        <time>2017-10-01T09:32:05.000Z</time>
      </trkpt>
      <trkpt lat="44.97661" lon="1.05834">
        <ele>119</ele>
        <time>2017-10-01T09:32:06.000Z</time>
      </trkpt>
      <trkpt lat="44.9766" lon="1.0584">
        <ele>119</ele>
        <time>2017-10-01T09:32:07.000Z</time>
      </trkpt>
      <trkpt lat="44.97658" lon="1.05845">
        <ele>119</ele>
        <time>2017-10-01T09:32:08.000Z</time>
      </trkpt>
      <trkpt lat="44.97656" lon="1.05849">
        <ele>119</ele>
        <time>2017-10-01T09:32:09.000Z</time>
      </trkpt>
      <trkpt lat="44.97654" lon="1.05854">
        <ele>119</ele>
        <time>2017-10-01T09:32:10.000Z</time>
      </trkpt>
      <trkpt lat="44.97653" lon="1.05859">
        <ele>119</ele>
        <time>2017-10-01T09:32:11.000Z</time>
      </trkpt>
      <trkpt lat="44.97651" lon="1.05864">
        <ele>119</ele>
        <time>2017-10-01T09:32:12.000Z</time>
      </trkpt>
      <trkpt lat="44.97649" lon="1.05869">
        <ele>119</ele>
        <time>2017-10-01T09:32:13.000Z</time>
      </trkpt>
      <trkpt lat="44.97647" lon="1.05875">
        <ele>119</ele>
        <time>2017-10-01T09:32:14.000Z</time>
      </trkpt>
      <trkpt lat="44.97646" lon="1.0588">
        <ele>119</ele>
        <time>2017-10-01T09:32:15.000Z</time>
      </trkpt>
      <trkpt lat="44.97644" lon="1.05885">
        <ele>118</ele>
        <time>2017-10-01T09:32:16.000Z</time>
      </trkpt>
      <trkpt lat="44.97642" lon="1.05891">
        <ele>118</ele>
        <time>2017-10-01T09:32:17.000Z</time>
      </trkpt>
      <trkpt lat="44.97639" lon="1.05898">
        <ele>118</ele>
        <time>2017-10-01T09:32:18.000Z</time>
      </trkpt>
      <trkpt lat="44.97637" lon="1.05905">
        <ele>118</ele>
        <time>2017-10-01T09:32:19.000Z</time>
      </trkpt>
      <trkpt lat="44.97634" lon="1.05912">
        <ele>118</ele>
        <time>2017-10-01T09:32:20.000Z</time>
      </trkpt>
      <trkpt lat="44.9763" lon="1.05919">
        <ele>118</ele>
        <time>2017-10-01T09:32:21.000Z</time>
      </trkpt>
      <trkpt lat="44.97627" lon="1.05924">
        <ele>118</ele>
        <time>2017-10-01T09:32:22.000Z</time>
      </trkpt>
      <trkpt lat="44.97625" lon="1.0593">
        <ele>118</ele>
        <time>2017-10-01T09:32:23.000Z</time>
      </trkpt>
      <trkpt lat="44.97622" lon="1.05935">
        <ele>119</ele>
        <time>2017-10-01T09:32:24.000Z</time>
      </trkpt>
      <trkpt lat="44.9762" lon="1.05941">
        <ele>119</ele>
        <time>2017-10-01T09:32:25.000Z</time>
      </trkpt>
      <trkpt lat="44.97618" lon="1.05948">
        <ele>118</ele>
        <time>2017-10-01T09:32:26.000Z</time>
      </trkpt>
      <trkpt lat="44.97616" lon="1.05954">
        <ele>118</ele>
        <time>2017-10-01T09:32:27.000Z</time>
      </trkpt>
      <trkpt lat="44.97614" lon="1.05961">
        <ele>118</ele>
        <time>2017-10-01T09:32:28.000Z</time>
      </trkpt>
      <trkpt lat="44.97612" lon="1.05966">
        <ele>118</ele>
        <time>2017-10-01T09:32:29.000Z</time>
      </trkpt>
      <trkpt lat="44.9761" lon="1.05972">
        <ele>118</ele>
        <time>2017-10-01T09:32:30.000Z</time>
      </trkpt>
      <trkpt lat="44.97608" lon="1.05977">
        <ele>118</ele>
        <time>2017-10-01T09:32:31.000Z</time>
      </trkpt>
      <trkpt lat="44.97606" lon="1.05982">
        <ele>118</ele>
        <time>2017-10-01T09:32:32.000Z</time>
      </trkpt>
      <trkpt lat="44.97604" lon="1.05987">
        <ele>117</ele>
        <time>2017-10-01T09:32:33.000Z</time>
      </trkpt>
      <trkpt lat="44.97602" lon="1.05993">
        <ele>117</ele>
        <time>2017-10-01T09:32:34.000Z</time>
      </trkpt>
      <trkpt lat="44.976" lon="1.05998">
        <ele>117</ele>
        <time>2017-10-01T09:32:35.000Z</time>
      </trkpt>
      <trkpt lat="44.97598" lon="1.06004">
        <ele>117</ele>
        <time>2017-10-01T09:32:36.000Z</time>
      </trkpt>
      <trkpt lat="44.97596" lon="1.06011">
        <ele>117</ele>
        <time>2017-10-01T09:32:37.000Z</time>
      </trkpt>
      <trkpt lat="44.97594" lon="1.06017">
        <ele>116</ele>
        <time>2017-10-01T09:32:38.000Z</time>
      </trkpt>
      <trkpt lat="44.97593" lon="1.06024">
        <ele>116</ele>
        <time>2017-10-01T09:32:39.000Z</time>
      </trkpt>
      <trkpt lat="44.97591" lon="1.0603">
        <ele>116</ele>
        <time>2017-10-01T09:32:40.000Z</time>
      </trkpt>
      <trkpt lat="44.9759" lon="1.06037">
        <ele>115</ele>
        <time>2017-10-01T09:32:41.000Z</time>
      </trkpt>
      <trkpt lat="44.97588" lon="1.06044">
        <ele>115</ele>
        <time>2017-10-01T09:32:42.000Z</time>
      </trkpt>
      <trkpt lat="44.97587" lon="1.06051">
        <ele>114</ele>
        <time>2017-10-01T09:32:43.000Z</time>
      </trkpt>
      <trkpt lat="44.97586" lon="1.06057">
        <ele>114</ele>
        <time>2017-10-01T09:32:44.000Z</time>
      </trkpt>
      <trkpt lat="44.97585" lon="1.06064">
        <ele>113</ele>
        <time>2017-10-01T09:32:45.000Z</time>
      </trkpt>
      <trkpt lat="44.97584" lon="1.0607">
        <ele>113</ele>
        <time>2017-10-01T09:32:46.000Z</time>
      </trkpt>
      <trkpt lat="44.97583" lon="1.06077">
        <ele>112</ele>
        <time>2017-10-01T09:32:47.000Z</time>
      </trkpt>
      <trkpt lat="44.97582" lon="1.06083">
        <ele>112</ele>
        <time>2017-10-01T09:32:48.000Z</time>
      </trkpt>
      <trkpt lat="44.97582" lon="1.06088">
        <ele>112</ele>
        <time>2017-10-01T09:32:49.000Z</time>
      </trkpt>
      <trkpt lat="44.97581" lon="1.06094">
        <ele>112</ele>
        <time>2017-10-01T09:32:50.000Z</time>
      </trkpt>
      <trkpt lat="44.97581" lon="1.06098">
        <ele>111</ele>
        <time>2017-10-01T09:32:51.000Z</time>
      </trkpt>
      <trkpt lat="44.97581" lon="1.06103">
        <ele>111</ele>
        <time>2017-10-01T09:32:52.000Z</time>
      </trkpt>
      <trkpt lat="44.97581" lon="1.06107">
        <ele>111</ele>
        <time>2017-10-01T09:32:53.000Z</time>
      </trkpt>
      <trkpt lat="44.97581" lon="1.0611">
        <ele>111</ele>
        <time>2017-10-01T09:32:54.000Z</time>
      </trkpt>
      <trkpt lat="44.97581" lon="1.06113">
        <ele>111</ele>
        <time>2017-10-01T09:32:55.000Z</time>
      </trkpt>
      <trkpt lat="44.9758" lon="1.06115">
        <ele>111</ele>
        <time>2017-10-01T09:32:56.000Z</time>
      </trkpt>
      <trkpt lat="44.9758" lon="1.06117">
        <ele>111</ele>
        <time>2017-10-01T09:32:57.000Z</time>
      </trkpt>
      <trkpt lat="44.97579" lon="1.06118">
        <ele>111</ele>
        <time>2017-10-01T09:32:58.000Z</time>
      </trkpt>
      <trkpt lat="44.97578" lon="1.0612">
        <ele>111</ele>
        <time>2017-10-01T09:32:59.000Z</time>
      </trkpt>
      <trkpt lat="44.97576" lon="1.06122">
        <ele>112</ele>
        <time>2017-10-01T09:33:00.000Z</time>
      </trkpt>
      <trkpt lat="44.97574" lon="1.06125">
        <ele>112</ele>
        <time>2017-10-01T09:33:01.000Z</time>
      </trkpt>
      <trkpt lat="44.97571" lon="1.06129">
        <ele>112</ele>
        <time>2017-10-01T09:33:02.000Z</time>
      </trkpt>
      <trkpt lat="44.9757" lon="1.06134">
        <ele>112</ele>
        <time>2017-10-01T09:33:03.000Z</time>
      </trkpt>
      <trkpt lat="44.97569" lon="1.06139">
        <ele>112</ele>
        <time>2017-10-01T09:33:04.000Z</time>
      </trkpt>
      <trkpt lat="44.97569" lon="1.06145">
        <ele>112</ele>
        <time>2017-10-01T09:33:05.000Z</time>
      </trkpt>
      <trkpt lat="44.9757" lon="1.06151">
        <ele>111</ele>
        <time>2017-10-01T09:33:06.000Z</time>
      </trkpt>
      <trkpt lat="44.97571" lon="1.06157">
        <ele>111</ele>
        <time>2017-10-01T09:33:07.000Z</time>
      </trkpt>
      <trkpt lat="44.97573" lon="1.06163">
        <ele>111</ele>
        <time>2017-10-01T09:33:08.000Z</time>
      </trkpt>
      <trkpt lat="44.97575" lon="1.06168">
        <ele>110</ele>
        <time>2017-10-01T09:33:09.000Z</time>
      </trkpt>
      <trkpt lat="44.97576" lon="1.06174">
        <ele>110</ele>
        <time>2017-10-01T09:33:10.000Z</time>
      </trkpt>
      <trkpt lat="44.97577" lon="1.06179">
        <ele>110</ele>
        <time>2017-10-01T09:33:11.000Z</time>
      </trkpt>
      <trkpt lat="44.97578" lon="1.06184">
        <ele>110</ele>
        <time>2017-10-01T09:33:12.000Z</time>
      </trkpt>
      <trkpt lat="44.97579" lon="1.06189">
        <ele>110</ele>
        <time>2017-10-01T09:33:13.000Z</time>
      </trkpt>
      <trkpt lat="44.97581" lon="1.06194">
        <ele>110</ele>
        <time>2017-10-01T09:33:14.000Z</time>
      </trkpt>
      <trkpt lat="44.97582" lon="1.06198">
        <ele>110</ele>
        <time>2017-10-01T09:33:15.000Z</time>
      </trkpt>
      <trkpt lat="44.97583" lon="1.06202">
        <ele>110</ele>
        <time>2017-10-01T09:33:16.000Z</time>
      </trkpt>
      <trkpt lat="44.97584" lon="1.06207">
        <ele>111</ele>
        <time>2017-10-01T09:33:17.000Z</time>
      </trkpt>
      <trkpt lat="44.97586" lon="1.06211">
        <ele>111</ele>
        <time>2017-10-01T09:33:18.000Z</time>
      </trkpt>
      <trkpt lat="44.97587" lon="1.06215">
        <ele>111</ele>
        <time>2017-10-01T09:33:19.000Z</time>
      </trkpt>
      <trkpt lat="44.97588" lon="1.06219">
        <ele>112</ele>
        <time>2017-10-01T09:33:20.000Z</time>
      </trkpt>
      <trkpt lat="44.97588" lon="1.06223">
        <ele>112</ele>
        <time>2017-10-01T09:33:21.000Z</time>
      </trkpt>
      <trkpt lat="44.97589" lon="1.06228">
        <ele>112</ele>
        <time>2017-10-01T09:33:22.000Z</time>
      </trkpt>
      <trkpt lat="44.97589" lon="1.06233">
        <ele>112</ele>
        <time>2017-10-01T09:33:23.000Z</time>
      </trkpt>
      <trkpt lat="44.97589" lon="1.06238">
        <ele>112</ele>
        <time>2017-10-01T09:33:24.000Z</time>
      </trkpt>
      <trkpt lat="44.97588" lon="1.06243">
        <ele>112</ele>
        <time>2017-10-01T09:33:25.000Z</time>
      </trkpt>
      <trkpt lat="44.97588" lon="1.06248">
        <ele>112</ele>
        <time>2017-10-01T09:33:26.000Z</time>
      </trkpt>
      <trkpt lat="44.97588" lon="1.06253">
        <ele>113</ele>
        <time>2017-10-01T09:33:27.000Z</time>
      </trkpt>
      <trkpt lat="44.97588" lon="1.06259">
        <ele>113</ele>
        <time>2017-10-01T09:33:28.000Z</time>
      </trkpt>
      <trkpt lat="44.97588" lon="1.06264">
        <ele>113</ele>
        <time>2017-10-01T09:33:29.000Z</time>
      </trkpt>
      <trkpt lat="44.97589" lon="1.0627">
        <ele>113</ele>
        <time>2017-10-01T09:33:30.000Z</time>
      </trkpt>
      <trkpt lat="44.97589" lon="1.06276">
        <ele>114</ele>
        <time>2017-10-01T09:33:31.000Z</time>
      </trkpt>
      <trkpt lat="44.9759" lon="1.06281">
        <ele>114</ele>
        <time>2017-10-01T09:33:32.000Z</time>
      </trkpt>
      <trkpt lat="44.97591" lon="1.06287">
        <ele>114</ele>
        <time>2017-10-01T09:33:33.000Z</time>
      </trkpt>
      <trkpt lat="44.97592" lon="1.06292">
        <ele>115</ele>
        <time>2017-10-01T09:33:34.000Z</time>
      </trkpt>
      <trkpt lat="44.97593" lon="1.06298">
        <ele>115</ele>
        <time>2017-10-01T09:33:35.000Z</time>
      </trkpt>
      <trkpt lat="44.97594" lon="1.06303">
        <ele>115</ele>
        <time>2017-10-01T09:33:36.000Z</time>
      </trkpt>
      <trkpt lat="44.97595" lon="1.06309">
        <ele>116</ele>
        <time>2017-10-01T09:33:37.000Z</time>
      </trkpt>
      <trkpt lat="44.97596" lon="1.06314">
        <ele>116</ele>
        <time>2017-10-01T09:33:38.000Z</time>
      </trkpt>
      <trkpt lat="44.97597" lon="1.06319">
        <ele>116</ele>
        <time>2017-10-01T09:33:39.000Z</time>
      </trkpt>
      <trkpt lat="44.97599" lon="1.06324">
        <ele>117</ele>
        <time>2017-10-01T09:33:40.000Z</time>
      </trkpt>
      <trkpt lat="44.976" lon="1.06329">
        <ele>117</ele>
        <time>2017-10-01T09:33:41.000Z</time>
      </trkpt>
      <trkpt lat="44.97601" lon="1.06334">
        <ele>117</ele>
        <time>2017-10-01T09:33:42.000Z</time>
      </trkpt>
      <trkpt lat="44.97603" lon="1.06338">
        <ele>117</ele>
        <time>2017-10-01T09:33:43.000Z</time>
      </trkpt>
      <trkpt lat="44.97604" lon="1.06342">
        <ele>118</ele>
        <time>2017-10-01T09:33:44.000Z</time>
      </trkpt>
      <trkpt lat="44.97605" lon="1.06346">
        <ele>118</ele>
        <time>2017-10-01T09:33:45.000Z</time>
      </trkpt>
      <trkpt lat="44.97607" lon="1.0635">
        <ele>118</ele>
        <time>2017-10-01T09:33:46.000Z</time>
      </trkpt>
      <trkpt lat="44.97608" lon="1.06354">
        <ele>118</ele>
        <time>2017-10-01T09:33:47.000Z</time>
      </trkpt>
      <trkpt lat="44.97609" lon="1.06358">
        <ele>118</ele>
        <time>2017-10-01T09:33:48.000Z</time>
      </trkpt>
      <trkpt lat="44.9761" lon="1.06361">
        <ele>118</ele>
        <time>2017-10-01T09:33:49.000Z</time>
      </trkpt>
      <trkpt lat="44.97612" lon="1.06365">
        <ele>118</ele>
        <time>2017-10-01T09:33:50.000Z</time>
      </trkpt>
      <trkpt lat="44.97613" lon="1.06368">
        <ele>118</ele>
        <time>2017-10-01T09:33:51.000Z</time>
      </trkpt>
      <trkpt lat="44.97614" lon="1.06371">
        <ele>118</ele>
        <time>2017-10-01T09:33:52.000Z</time>
      </trkpt>
      <trkpt lat="44.97615" lon="1.06375">
        <ele>119</ele>
        <time>2017-10-01T09:33:53.000Z</time>
      </trkpt>
      <trkpt lat="44.97616" lon="1.06378">
        <ele>119</ele>
        <time>2017-10-01T09:33:54.000Z</time>
      </trkpt>
      <trkpt lat="44.97617" lon="1.06381">
        <ele>119</ele>
        <time>2017-10-01T09:33:55.000Z</time>
      </trkpt>
      <trkpt lat="44.97618" lon="1.06384">
        <ele>119</ele>
        <time>2017-10-01T09:33:56.000Z</time>
      </trkpt>
      <trkpt lat="44.97619" lon="1.06388">
        <ele>119</ele>
        <time>2017-10-01T09:33:57.000Z</time>
      </trkpt>
      <trkpt lat="44.9762" lon="1.06391">
        <ele>118</ele>
        <time>2017-10-01T09:33:58.000Z</time>
      </trkpt>
      <trkpt lat="44.97621" lon="1.06395">
        <ele>118</ele>
        <time>2017-10-01T09:33:59.000Z</time>
      </trkpt>
      <trkpt lat="44.97622" lon="1.06398">
        <ele>118</ele>
        <time>2017-10-01T09:34:00.000Z</time>
      </trkpt>
      <trkpt lat="44.97623" lon="1.06402">
        <ele>118</ele>
        <time>2017-10-01T09:34:01.000Z</time>
      </trkpt>
      <trkpt lat="44.97624" lon="1.06405">
        <ele>118</ele>
        <time>2017-10-01T09:34:02.000Z</time>
      </trkpt>
      <trkpt lat="44.97626" lon="1.06409">
        <ele>118</ele>
        <time>2017-10-01T09:34:03.000Z</time>
      </trkpt>
      <trkpt lat="44.97628" lon="1.06413">
        <ele>118</ele>
        <time>2017-10-01T09:34:04.000Z</time>
      </trkpt>
      <trkpt lat="44.9763" lon="1.06417">
        <ele>118</ele>
        <time>2017-10-01T09:34:05.000Z</time>
      </trkpt>
      <trkpt lat="44.97631" lon="1.06422">
        <ele>118</ele>
        <time>2017-10-01T09:34:06.000Z</time>
      </trkpt>
      <trkpt lat="44.97632" lon="1.06426">
        <ele>118</ele>
        <time>2017-10-01T09:34:07.000Z</time>
      </trkpt>
      <trkpt lat="44.97632" lon="1.06431">
        <ele>118</ele>
        <time>2017-10-01T09:34:08.000Z</time>
      </trkpt>
      <trkpt lat="44.97632" lon="1.06435">
        <ele>119</ele>
        <time>2017-10-01T09:34:09.000Z</time>
      </trkpt>
      <trkpt lat="44.97631" lon="1.06438">
        <ele>119</ele>
        <time>2017-10-01T09:34:10.000Z</time>
      </trkpt>
      <trkpt lat="44.97631" lon="1.06442">
        <ele>119</ele>
        <time>2017-10-01T09:34:11.000Z</time>
      </trkpt>
      <trkpt lat="44.9763" lon="1.06444">
        <ele>119</ele>
        <time>2017-10-01T09:34:12.000Z</time>
      </trkpt>
      <trkpt lat="44.9763" lon="1.06447">
        <ele>119</ele>
        <time>2017-10-01T09:34:13.000Z</time>
      </trkpt>
      <trkpt lat="44.97629" lon="1.06449">
        <ele>119</ele>
        <time>2017-10-01T09:34:14.000Z</time>
      </trkpt>
      <trkpt lat="44.97628" lon="1.06451">
        <ele>119</ele>
        <time>2017-10-01T09:34:15.000Z</time>
      </trkpt>
      <trkpt lat="44.97626" lon="1.06453">
        <ele>119</ele>
        <time>2017-10-01T09:34:16.000Z</time>
      </trkpt>
      <trkpt lat="44.97625" lon="1.06455">
        <ele>119</ele>
        <time>2017-10-01T09:34:17.000Z</time>
      </trkpt>
      <trkpt lat="44.97624" lon="1.06457">
        <ele>120</ele>
        <time>2017-10-01T09:34:18.000Z</time>
      </trkpt>
      <trkpt lat="44.97622" lon="1.06459">
        <ele>120</ele>
        <time>2017-10-01T09:34:19.000Z</time>
      </trkpt>
      <trkpt lat="44.97621" lon="1.0646">
        <ele>120</ele>
        <time>2017-10-01T09:34:20.000Z</time>
      </trkpt>
      <trkpt lat="44.9762" lon="1.06462">
        <ele>120</ele>
        <time>2017-10-01T09:34:21.000Z</time>
      </trkpt>
      <trkpt lat="44.97619" lon="1.06463">
        <ele>120</ele>
        <time>2017-10-01T09:34:22.000Z</time>
      </trkpt>
      <trkpt lat="44.97618" lon="1.06464">
        <ele>120</ele>
        <time>2017-10-01T09:34:23.000Z</time>
      </trkpt>
      <trkpt lat="44.97617" lon="1.06466">
        <ele>120</ele>
        <time>2017-10-01T09:34:24.000Z</time>
      </trkpt>
      <trkpt lat="44.97616" lon="1.06469">
        <ele>120</ele>
        <time>2017-10-01T09:34:25.000Z</time>
      </trkpt>
      <trkpt lat="44.97614" lon="1.06472">
        <ele>120</ele>
        <time>2017-10-01T09:34:26.000Z</time>
      </trkpt>
      <trkpt lat="44.97613" lon="1.06476">
        <ele>120</ele>
        <time>2017-10-01T09:34:27.000Z</time>
      </trkpt>
      <trkpt lat="44.97612" lon="1.06479">
        <ele>120</ele>
        <time>2017-10-01T09:34:28.000Z</time>
      </trkpt>
      <trkpt lat="44.9761" lon="1.06483">
        <ele>120</ele>
        <time>2017-10-01T09:34:29.000Z</time>
      </trkpt>
      <trkpt lat="44.97609" lon="1.06486">
        <ele>120</ele>
        <time>2017-10-01T09:34:30.000Z</time>
      </trkpt>
      <trkpt lat="44.97608" lon="1.0649">
        <ele>120</ele>
        <time>2017-10-01T09:34:31.000Z</time>
      </trkpt>
      <trkpt lat="44.97607" lon="1.06493">
        <ele>120</ele>
        <time>2017-10-01T09:34:32.000Z</time>
      </trkpt>
      <trkpt lat="44.97607" lon="1.06496">
        <ele>120</ele>
        <time>2017-10-01T09:34:33.000Z</time>
      </trkpt>
      <trkpt lat="44.97606" lon="1.06499">
        <ele>120</ele>
        <time>2017-10-01T09:34:34.000Z</time>
      </trkpt>
      <trkpt lat="44.97605" lon="1.06502">
        <ele>120</ele>
        <time>2017-10-01T09:34:35.000Z</time>
      </trkpt>
      <trkpt lat="44.97605" lon="1.06505">
        <ele>121</ele>
        <time>2017-10-01T09:34:36.000Z</time>
      </trkpt>
      <trkpt lat="44.97604" lon="1.06508">
        <ele>121</ele>
        <time>2017-10-01T09:34:37.000Z</time>
      </trkpt>
      <trkpt lat="44.97604" lon="1.06511">
        <ele>121</ele>
        <time>2017-10-01T09:34:38.000Z</time>
      </trkpt>
      <trkpt lat="44.97604" lon="1.06514">
        <ele>121</ele>
        <time>2017-10-01T09:34:39.000Z</time>
      </trkpt>
      <trkpt lat="44.97603" lon="1.06517">
        <ele>121</ele>
        <time>2017-10-01T09:34:40.000Z</time>
      </trkpt>
      <trkpt lat="44.97603" lon="1.0652">
        <ele>121</ele>
        <time>2017-10-01T09:34:41.000Z</time>
      </trkpt>
      <trkpt lat="44.97603" lon="1.06523">
        <ele>121</ele>
        <time>2017-10-01T09:34:42.000Z</time>
      </trkpt>
      <trkpt lat="44.97603" lon="1.06526">
        <ele>121</ele>
        <time>2017-10-01T09:34:43.000Z</time>
      </trkpt>
      <trkpt lat="44.97602" lon="1.06529">
        <ele>121</ele>
        <time>2017-10-01T09:34:44.000Z</time>
      </trkpt>
      <trkpt lat="44.97602" lon="1.06532">
        <ele>122</ele>
        <time>2017-10-01T09:34:45.000Z</time>
      </trkpt>
      <trkpt lat="44.97602" lon="1.06535">
        <ele>122</ele>
        <time>2017-10-01T09:34:46.000Z</time>
      </trkpt>
      <trkpt lat="44.97602" lon="1.06538">
        <ele>122</ele>
        <time>2017-10-01T09:34:47.000Z</time>
      </trkpt>
      <trkpt lat="44.97602" lon="1.06541">
        <ele>122</ele>
        <time>2017-10-01T09:34:48.000Z</time>
      </trkpt>
      <trkpt lat="44.97602" lon="1.06544">
        <ele>122</ele>
        <time>2017-10-01T09:34:49.000Z</time>
      </trkpt>
      <trkpt lat="44.97603" lon="1.06547">
        <ele>122</ele>
        <time>2017-10-01T09:34:50.000Z</time>
      </trkpt>
      <trkpt lat="44.97603" lon="1.06549">
        <ele>122</ele>
        <time>2017-10-01T09:34:51.000Z</time>
      </trkpt>
      <trkpt lat="44.97603" lon="1.06552">
        <ele>122</ele>
        <time>2017-10-01T09:34:52.000Z</time>
      </trkpt>
      <trkpt lat="44.97603" lon="1.06555">
        <ele>123</ele>
        <time>2017-10-01T09:34:53.000Z</time>
      </trkpt>
      <trkpt lat="44.97604" lon="1.06557">
        <ele>123</ele>
        <time>2017-10-01T09:34:54.000Z</time>
      </trkpt>
      <trkpt lat="44.97604" lon="1.0656">
        <ele>123</ele>
        <time>2017-10-01T09:34:55.000Z</time>
      </trkpt>
      <trkpt lat="44.97604" lon="1.06563">
        <ele>123</ele>
        <time>2017-10-01T09:34:56.000Z</time>
      </trkpt>
      <trkpt lat="44.97605" lon="1.06566">
        <ele>123</ele>
        <time>2017-10-01T09:34:57.000Z</time>
      </trkpt>
      <trkpt lat="44.97605" lon="1.06568">
        <ele>123</ele>
        <time>2017-10-01T09:34:58.000Z</time>
      </trkpt>
      <trkpt lat="44.97606" lon="1.06571">
        <ele>123</ele>
        <time>2017-10-01T09:34:59.000Z</time>
      </trkpt>
      <trkpt lat="44.97606" lon="1.06574">
        <ele>124</ele>
        <time>2017-10-01T09:35:00.000Z</time>
      </trkpt>
      <trkpt lat="44.97607" lon="1.06577">
        <ele>124</ele>
        <time>2017-10-01T09:35:01.000Z</time>
      </trkpt>
      <trkpt lat="44.97607" lon="1.0658">
        <ele>124</ele>
        <time>2017-10-01T09:35:02.000Z</time>
      </trkpt>
      <trkpt lat="44.97608" lon="1.06583">
        <ele>124</ele>
        <time>2017-10-01T09:35:03.000Z</time>
      </trkpt>
      <trkpt lat="44.97609" lon="1.06586">
        <ele>124</ele>
        <time>2017-10-01T09:35:04.000Z</time>
      </trkpt>
      <trkpt lat="44.9761" lon="1.06589">
        <ele>125</ele>
        <time>2017-10-01T09:35:05.000Z</time>
      </trkpt>
      <trkpt lat="44.97611" lon="1.06592">
        <ele>125</ele>
        <time>2017-10-01T09:35:06.000Z</time>
      </trkpt>
      <trkpt lat="44.97612" lon="1.06595">
        <ele>125</ele>
        <time>2017-10-01T09:35:07.000Z</time>
      </trkpt>
      <trkpt lat="44.97613" lon="1.06598">
        <ele>126</ele>
        <time>2017-10-01T09:35:08.000Z</time>
      </trkpt>
      <trkpt lat="44.97614" lon="1.06601">
        <ele>126</ele>
        <time>2017-10-01T09:35:09.000Z</time>
      </trkpt>
      <trkpt lat="44.97615" lon="1.06603">
        <ele>126</ele>
        <time>2017-10-01T09:35:10.000Z</time>
      </trkpt>
      <trkpt lat="44.97616" lon="1.06605">
        <ele>126</ele>
        <time>2017-10-01T09:35:11.000Z</time>
      </trkpt>
      <trkpt lat="44.97616" lon="1.06607">
        <ele>126</ele>
        <time>2017-10-01T09:35:12.000Z</time>
      </trkpt>
      <trkpt lat="44.97617" lon="1.06609">
        <ele>127</ele>
        <time>2017-10-01T09:35:13.000Z</time>
      </trkpt>
      <trkpt lat="44.97618" lon="1.06611">
        <ele>127</ele>
        <time>2017-10-01T09:35:14.000Z</time>
      </trkpt>
      <trkpt lat="44.97619" lon="1.06613">
        <ele>127</ele>
        <time>2017-10-01T09:35:15.000Z</time>
      </trkpt>
      <trkpt lat="44.97619" lon="1.06615">
        <ele>127</ele>
        <time>2017-10-01T09:35:16.000Z</time>
      </trkpt>
      <trkpt lat="44.9762" lon="1.06617">
        <ele>127</ele>
        <time>2017-10-01T09:35:17.000Z</time>
      </trkpt>
      <trkpt lat="44.97621" lon="1.06619">
        <ele>128</ele>
        <time>2017-10-01T09:35:18.000Z</time>
      </trkpt>
      <trkpt lat="44.97621" lon="1.06622">
        <ele>128</ele>
        <time>2017-10-01T09:35:19.000Z</time>
      </trkpt>
      <trkpt lat="44.97622" lon="1.06624">
        <ele>128</ele>
        <time>2017-10-01T09:35:20.000Z</time>
      </trkpt>
      <trkpt lat="44.97623" lon="1.06626">
        <ele>128</ele>
        <time>2017-10-01T09:35:21.000Z</time>
      </trkpt>
      <trkpt lat="44.97623" lon="1.06628">
        <ele>128</ele>
        <time>2017-10-01T09:35:22.000Z</time>
      </trkpt>
      <trkpt lat="44.97624" lon="1.06629">
        <ele>128</ele>
        <time>2017-10-01T09:35:23.000Z</time>
      </trkpt>
      <trkpt lat="44.97624" lon="1.06631">
        <ele>129</ele>
        <time>2017-10-01T09:35:24.000Z</time>
      </trkpt>
      <trkpt lat="44.97625" lon="1.06632">
        <ele>129</ele>
        <time>2017-10-01T09:35:25.000Z</time>
      </trkpt>
      <trkpt lat="44.97626" lon="1.06634">
        <ele>129</ele>
        <time>2017-10-01T09:35:26.000Z</time>
      </trkpt>
      <trkpt lat="44.97626" lon="1.06636">
        <ele>129</ele>
        <time>2017-10-01T09:35:27.000Z</time>
      </trkpt>
      <trkpt lat="44.97627" lon="1.06638">
        <ele>129</ele>
        <time>2017-10-01T09:35:28.000Z</time>
      </trkpt>
      <trkpt lat="44.97628" lon="1.0664">
        <ele>129</ele>
        <time>2017-10-01T09:35:29.000Z</time>
      </trkpt>
      <trkpt lat="44.97628" lon="1.06641">
        <ele>129</ele>
        <time>2017-10-01T09:35:30.000Z</time>
      </trkpt>
      <trkpt lat="44.97628" lon="1.06642">
        <ele>129</ele>
        <time>2017-10-01T09:35:31.000Z</time>
      </trkpt>
      <trkpt lat="44.97629" lon="1.06643">
        <ele>130</ele>
        <time>2017-10-01T09:35:32.000Z</time>
      </trkpt>
      <trkpt lat="44.97629" lon="1.06645">
        <ele>130</ele>
        <time>2017-10-01T09:35:33.000Z</time>
      </trkpt>
      <trkpt lat="44.9763" lon="1.06646">
        <ele>130</ele>
        <time>2017-10-01T09:35:34.000Z</time>
      </trkpt>
      <trkpt lat="44.97631" lon="1.06648">
        <ele>130</ele>
        <time>2017-10-01T09:35:35.000Z</time>
      </trkpt>
      <trkpt lat="44.97631" lon="1.06649">
        <ele>130</ele>
        <time>2017-10-01T09:35:36.000Z</time>
      </trkpt>
      <trkpt lat="44.97632" lon="1.0665">
        <ele>130</ele>
        <time>2017-10-01T09:35:37.000Z</time>
      </trkpt>
      <trkpt lat="44.97632" lon="1.06651">
        <ele>130</ele>
        <time>2017-10-01T09:35:38.000Z</time>
      </trkpt>
      <trkpt lat="44.97633" lon="1.06653">
        <ele>130</ele>
        <time>2017-10-01T09:35:39.000Z</time>
      </trkpt>
      <trkpt lat="44.97633" lon="1.06656">
        <ele>131</ele>
        <time>2017-10-01T09:35:40.000Z</time>
      </trkpt>
      <trkpt lat="44.97634" lon="1.06659">
        <ele>131</ele>
        <time>2017-10-01T09:35:41.000Z</time>
      </trkpt>
      <trkpt lat="44.97634" lon="1.06663">
        <ele>131</ele>
        <time>2017-10-01T09:35:42.000Z</time>
      </trkpt>
      <trkpt lat="44.97635" lon="1.06666">
        <ele>131</ele>
        <time>2017-10-01T09:35:43.000Z</time>
      </trkpt>
      <trkpt lat="44.97635" lon="1.06669">
        <ele>131</ele>
        <time>2017-10-01T09:35:44.000Z</time>
      </trkpt>
      <trkpt lat="44.97635" lon="1.06672">
        <ele>132</ele>
        <time>2017-10-01T09:35:45.000Z</time>
      </trkpt>
      <trkpt lat="44.97636" lon="1.06675">
        <ele>132</ele>
        <time>2017-10-01T09:35:46.000Z</time>
      </trkpt>
      <trkpt lat="44.97636" lon="1.06678">
        <ele>132</ele>
        <time>2017-10-01T09:35:47.000Z</time>
      </trkpt>
      <trkpt lat="44.97636" lon="1.06682">
        <ele>132</ele>
        <time>2017-10-01T09:35:48.000Z</time>
      </trkpt>
      <trkpt lat="44.97636" lon="1.06685">
        <ele>133</ele>
        <time>2017-10-01T09:35:49.000Z</time>
      </trkpt>
      <trkpt lat="44.97637" lon="1.06687">
        <ele>133</ele>
        <time>2017-10-01T09:35:50.000Z</time>
      </trkpt>
      <trkpt lat="44.97637" lon="1.0669">
        <ele>133</ele>
        <time>2017-10-01T09:35:51.000Z</time>
      </trkpt>
      <trkpt lat="44.97638" lon="1.06693">
        <ele>133</ele>
        <time>2017-10-01T09:35:52.000Z</time>
      </trkpt>
      <trkpt lat="44.97638" lon="1.06695">
        <ele>134</ele>
        <time>2017-10-01T09:35:53.000Z</time>
      </trkpt>
      <trkpt lat="44.97639" lon="1.06698">
        <ele>134</ele>
        <time>2017-10-01T09:35:54.000Z</time>
      </trkpt>
      <trkpt lat="44.9764" lon="1.067">
        <ele>134</ele>
        <time>2017-10-01T09:35:55.000Z</time>
      </trkpt>
      <trkpt lat="44.9764" lon="1.06702">
        <ele>134</ele>
        <time>2017-10-01T09:35:56.000Z</time>
      </trkpt>
      <trkpt lat="44.97641" lon="1.06704">
        <ele>134</ele>
        <time>2017-10-01T09:35:57.000Z</time>
      </trkpt>
      <trkpt lat="44.97642" lon="1.06706">
        <ele>134</ele>
        <time>2017-10-01T09:35:58.000Z</time>
      </trkpt>
      <trkpt lat="44.97642" lon="1.06707">
        <ele>134</ele>
        <time>2017-10-01T09:35:59.000Z</time>
      </trkpt>
      <trkpt lat="44.97643" lon="1.06709">
        <ele>135</ele>
        <time>2017-10-01T09:36:00.000Z</time>
      </trkpt>
      <trkpt lat="44.97643" lon="1.0671">
        <ele>135</ele>
        <time>2017-10-01T09:36:01.000Z</time>
      </trkpt>
      <trkpt lat="44.97644" lon="1.06712">
        <ele>135</ele>
        <time>2017-10-01T09:36:02.000Z</time>
      </trkpt>
      <trkpt lat="44.97645" lon="1.06713">
        <ele>135</ele>
        <time>2017-10-01T09:36:03.000Z</time>
      </trkpt>
      <trkpt lat="44.97645" lon="1.06714">
        <ele>135</ele>
        <time>2017-10-01T09:36:04.000Z</time>
      </trkpt>
      <trkpt lat="44.97646" lon="1.06715">
        <ele>135</ele>
        <time>2017-10-01T09:36:06.000Z</time>
      </trkpt>
      <trkpt lat="44.97646" lon="1.06716">
        <ele>135</ele>
        <time>2017-10-01T09:36:06.000Z</time>
      </trkpt>
      <trkpt lat="44.97646" lon="1.06716">
        <ele>135</ele>
        <time>2017-10-01T09:36:07.000Z</time>
      </trkpt>
      <trkpt lat="44.97647" lon="1.06718">
        <ele>135</ele>
        <time>2017-10-01T09:36:08.000Z</time>
      </trkpt>
      <trkpt lat="44.97647" lon="1.06719">
        <ele>135</ele>
        <time>2017-10-01T09:36:09.000Z</time>
      </trkpt>
      <trkpt lat="44.97648" lon="1.06722">
        <ele>135</ele>
        <time>2017-10-01T09:36:10.000Z</time>
      </trkpt>
      <trkpt lat="44.97649" lon="1.06725">
        <ele>135</ele>
        <time>2017-10-01T09:36:11.000Z</time>
      </trkpt>
      <trkpt lat="44.9765" lon="1.06727">
        <ele>136</ele>
        <time>2017-10-01T09:36:12.000Z</time>
      </trkpt>
      <trkpt lat="44.9765" lon="1.06729">
        <ele>136</ele>
        <time>2017-10-01T09:36:13.000Z</time>
      </trkpt>
      <trkpt lat="44.97651" lon="1.06731">
        <ele>136</ele>
        <time>2017-10-01T09:36:14.000Z</time>
      </trkpt>
      <trkpt lat="44.97651" lon="1.06733">
        <ele>136</ele>
        <time>2017-10-01T09:36:15.000Z</time>
      </trkpt>
      <trkpt lat="44.97651" lon="1.06735">
        <ele>136</ele>
        <time>2017-10-01T09:36:16.000Z</time>
      </trkpt>
      <trkpt lat="44.97651" lon="1.06737">
        <ele>136</ele>
        <time>2017-10-01T09:36:17.000Z</time>
      </trkpt>
      <trkpt lat="44.97651" lon="1.06739">
        <ele>136</ele>
        <time>2017-10-01T09:36:18.000Z</time>
      </trkpt>
      <trkpt lat="44.97651" lon="1.06741">
        <ele>136</ele>
        <time>2017-10-01T09:36:19.000Z</time>
      </trkpt>
      <trkpt lat="44.97651" lon="1.06743">
        <ele>136</ele>
        <time>2017-10-01T09:36:20.000Z</time>
      </trkpt>
      <trkpt lat="44.97651" lon="1.06745">
        <ele>136</ele>
        <time>2017-10-01T09:36:21.000Z</time>
      </trkpt>
      <trkpt lat="44.97651" lon="1.06747">
        <ele>136</ele>
        <time>2017-10-01T09:36:22.000Z</time>
      </trkpt>
      <trkpt lat="44.97652" lon="1.06749">
        <ele>137</ele>
        <time>2017-10-01T09:36:23.000Z</time>
      </trkpt>
      <trkpt lat="44.97652" lon="1.06752">
        <ele>137</ele>
        <time>2017-10-01T09:36:24.000Z</time>
      </trkpt>
      <trkpt lat="44.97652" lon="1.06754">
        <ele>137</ele>
        <time>2017-10-01T09:36:25.000Z</time>
      </trkpt>
      <trkpt lat="44.97653" lon="1.06757">
        <ele>137</ele>
        <time>2017-10-01T09:36:26.000Z</time>
      </trkpt>
      <trkpt lat="44.97653" lon="1.0676">
        <ele>137</ele>
        <time>2017-10-01T09:36:27.000Z</time>
      </trkpt>
      <trkpt lat="44.97653" lon="1.06763">
        <ele>138</ele>
        <time>2017-10-01T09:36:28.000Z</time>
      </trkpt>
      <trkpt lat="44.97654" lon="1.06766">
        <ele>138</ele>
        <time>2017-10-01T09:36:29.000Z</time>
      </trkpt>
      <trkpt lat="44.97654" lon="1.06769">
        <ele>138</ele>
        <time>2017-10-01T09:36:30.000Z</time>
      </trkpt>
      <trkpt lat="44.97654" lon="1.06772">
        <ele>138</ele>
        <time>2017-10-01T09:36:31.000Z</time>
      </trkpt>
      <trkpt lat="44.97655" lon="1.06774">
        <ele>138</ele>
        <time>2017-10-01T09:36:32.000Z</time>
      </trkpt>
      <trkpt lat="44.97655" lon="1.06777">
        <ele>139</ele>
        <time>2017-10-01T09:36:33.000Z</time>
      </trkpt>
      <trkpt lat="44.97655" lon="1.0678">
        <ele>139</ele>
        <time>2017-10-01T09:36:34.000Z</time>
      </trkpt>
      <trkpt lat="44.97656" lon="1.06782">
        <ele>139</ele>
        <time>2017-10-01T09:36:35.000Z</time>
      </trkpt>
      <trkpt lat="44.97656" lon="1.06785">
        <ele>139</ele>
        <time>2017-10-01T09:36:36.000Z</time>
      </trkpt>
      <trkpt lat="44.97656" lon="1.06788">
        <ele>139</ele>
        <time>2017-10-01T09:36:37.000Z</time>
      </trkpt>
      <trkpt lat="44.97656" lon="1.0679">
        <ele>140</ele>
        <time>2017-10-01T09:36:38.000Z</time>
      </trkpt>
      <trkpt lat="44.97656" lon="1.06793">
        <ele>140</ele>
        <time>2017-10-01T09:36:39.000Z</time>
      </trkpt>
      <trkpt lat="44.97655" lon="1.06796">
        <ele>140</ele>
        <time>2017-10-01T09:36:40.000Z</time>
      </trkpt>
      <trkpt lat="44.97655" lon="1.06799">
        <ele>140</ele>
        <time>2017-10-01T09:36:41.000Z</time>
      </trkpt>
      <trkpt lat="44.97655" lon="1.06802">
        <ele>141</ele>
        <time>2017-10-01T09:36:42.000Z</time>
      </trkpt>
      <trkpt lat="44.97655" lon="1.06805">
        <ele>141</ele>
        <time>2017-10-01T09:36:43.000Z</time>
      </trkpt>
      <trkpt lat="44.97655" lon="1.06809">
        <ele>141</ele>
        <time>2017-10-01T09:36:44.000Z</time>
      </trkpt>
      <trkpt lat="44.97655" lon="1.06812">
        <ele>142</ele>
        <time>2017-10-01T09:36:45.000Z</time>
      </trkpt>
      <trkpt lat="44.97655" lon="1.06815">
        <ele>142</ele>
        <time>2017-10-01T09:36:46.000Z</time>
      </trkpt>
      <trkpt lat="44.97655" lon="1.06818">
        <ele>142</ele>
        <time>2017-10-01T09:36:47.000Z</time>
      </trkpt>
      <trkpt lat="44.97656" lon="1.06821">
        <ele>142</ele>
        <time>2017-10-01T09:36:48.000Z</time>
      </trkpt>
      <trkpt lat="44.97656" lon="1.06824">
        <ele>142</ele>
        <time>2017-10-01T09:36:49.000Z</time>
      </trkpt>
      <trkpt lat="44.97657" lon="1.06827">
        <ele>143</ele>
        <time>2017-10-01T09:36:50.000Z</time>
      </trkpt>
      <trkpt lat="44.97657" lon="1.06829">
        <ele>143</ele>
        <time>2017-10-01T09:36:51.000Z</time>
      </trkpt>
      <trkpt lat="44.97657" lon="1.06832">
        <ele>143</ele>
        <time>2017-10-01T09:36:52.000Z</time>
      </trkpt>
      <trkpt lat="44.97658" lon="1.06835">
        <ele>143</ele>
        <time>2017-10-01T09:36:53.000Z</time>
      </trkpt>
      <trkpt lat="44.97658" lon="1.06838">
        <ele>143</ele>
        <time>2017-10-01T09:36:54.000Z</time>
      </trkpt>
      <trkpt lat="44.97659" lon="1.0684">
        <ele>143</ele>
        <time>2017-10-01T09:36:55.000Z</time>
      </trkpt>
      <trkpt lat="44.97659" lon="1.06843">
        <ele>144</ele>
        <time>2017-10-01T09:36:56.000Z</time>
      </trkpt>
      <trkpt lat="44.97659" lon="1.06845">
        <ele>144</ele>
        <time>2017-10-01T09:36:57.000Z</time>
      </trkpt>
      <trkpt lat="44.9766" lon="1.06848">
        <ele>144</ele>
        <time>2017-10-01T09:36:58.000Z</time>
      </trkpt>
      <trkpt lat="44.9766" lon="1.0685">
        <ele>144</ele>
        <time>2017-10-01T09:36:59.000Z</time>
      </trkpt>
      <trkpt lat="44.9766" lon="1.06852">
        <ele>144</ele>
        <time>2017-10-01T09:37:00.000Z</time>
      </trkpt>
      <trkpt lat="44.97661" lon="1.06855">
        <ele>144</ele>
        <time>2017-10-01T09:37:01.000Z</time>
      </trkpt>
      <trkpt lat="44.97661" lon="1.06857">
        <ele>144</ele>
        <time>2017-10-01T09:37:02.000Z</time>
      </trkpt>
      <trkpt lat="44.97661" lon="1.06859">
        <ele>145</ele>
        <time>2017-10-01T09:37:03.000Z</time>
      </trkpt>
      <trkpt lat="44.97662" lon="1.06861">
        <ele>145</ele>
        <time>2017-10-01T09:37:04.000Z</time>
      </trkpt>
      <trkpt lat="44.97662" lon="1.06863">
        <ele>145</ele>
        <time>2017-10-01T09:37:05.000Z</time>
      </trkpt>
      <trkpt lat="44.97662" lon="1.06865">
        <ele>145</ele>
        <time>2017-10-01T09:37:06.000Z</time>
      </trkpt>
      <trkpt lat="44.97662" lon="1.06867">
        <ele>145</ele>
        <time>2017-10-01T09:37:07.000Z</time>
      </trkpt>
      <trkpt lat="44.97663" lon="1.06869">
        <ele>145</ele>
        <time>2017-10-01T09:37:08.000Z</time>
      </trkpt>
      <trkpt lat="44.97663" lon="1.06871">
        <ele>145</ele>
        <time>2017-10-01T09:37:09.000Z</time>
      </trkpt>
      <trkpt lat="44.97664" lon="1.06874">
        <ele>145</ele>
        <time>2017-10-01T09:37:10.000Z</time>
      </trkpt>
      <trkpt lat="44.97664" lon="1.06876">
        <ele>146</ele>
        <time>2017-10-01T09:37:11.000Z</time>
      </trkpt>
      <trkpt lat="44.97665" lon="1.06878">
        <ele>146</ele>
        <time>2017-10-01T09:37:12.000Z</time>
      </trkpt>
      <trkpt lat="44.97665" lon="1.0688">
        <ele>146</ele>
        <time>2017-10-01T09:37:13.000Z</time>
      </trkpt>
      <trkpt lat="44.97666" lon="1.06882">
        <ele>146</ele>
        <time>2017-10-01T09:37:14.000Z</time>
      </trkpt>
      <trkpt lat="44.97666" lon="1.06884">
        <ele>146</ele>
        <time>2017-10-01T09:37:15.000Z</time>
      </trkpt>
      <trkpt lat="44.97666" lon="1.06886">
        <ele>146</ele>
        <time>2017-10-01T09:37:16.000Z</time>
      </trkpt>
      <trkpt lat="44.97667" lon="1.06888">
        <ele>146</ele>
        <time>2017-10-01T09:37:17.000Z</time>
      </trkpt>
      <trkpt lat="44.97667" lon="1.0689">
        <ele>146</ele>
        <time>2017-10-01T09:37:18.000Z</time>
      </trkpt>
      <trkpt lat="44.97668" lon="1.06892">
        <ele>147</ele>
        <time>2017-10-01T09:37:19.000Z</time>
      </trkpt>
      <trkpt lat="44.97668" lon="1.06894">
        <ele>147</ele>
        <time>2017-10-01T09:37:20.000Z</time>
      </trkpt>
      <trkpt lat="44.97668" lon="1.06896">
        <ele>147</ele>
        <time>2017-10-01T09:37:21.000Z</time>
      </trkpt>
      <trkpt lat="44.97669" lon="1.06898">
        <ele>147</ele>
        <time>2017-10-01T09:37:22.000Z</time>
      </trkpt>
      <trkpt lat="44.97669" lon="1.069">
        <ele>148</ele>
        <time>2017-10-01T09:37:23.000Z</time>
      </trkpt>
      <trkpt lat="44.97669" lon="1.06902">
        <ele>148</ele>
        <time>2017-10-01T09:37:24.000Z</time>
      </trkpt>
      <trkpt lat="44.97669" lon="1.06905">
        <ele>148</ele>
        <time>2017-10-01T09:37:25.000Z</time>
      </trkpt>
      <trkpt lat="44.9767" lon="1.06907">
        <ele>148</ele>
        <time>2017-10-01T09:37:26.000Z</time>
      </trkpt>
      <trkpt lat="44.9767" lon="1.06909">
        <ele>149</ele>
        <time>2017-10-01T09:37:27.000Z</time>
      </trkpt>
      <trkpt lat="44.9767" lon="1.06911">
        <ele>149</ele>
        <time>2017-10-01T09:37:28.000Z</time>
      </trkpt>
      <trkpt lat="44.9767" lon="1.06913">
        <ele>149</ele>
        <time>2017-10-01T09:37:29.000Z</time>
      </trkpt>
      <trkpt lat="44.9767" lon="1.06915">
        <ele>149</ele>
        <time>2017-10-01T09:37:30.000Z</time>
      </trkpt>
      <trkpt lat="44.9767" lon="1.06918">
        <ele>149</ele>
        <time>2017-10-01T09:37:31.000Z</time>
      </trkpt>
      <trkpt lat="44.97671" lon="1.0692">
        <ele>150</ele>
        <time>2017-10-01T09:37:32.000Z</time>
      </trkpt>
      <trkpt lat="44.97671" lon="1.06922">
        <ele>150</ele>
        <time>2017-10-01T09:37:33.000Z</time>
      </trkpt>
      <trkpt lat="44.97671" lon="1.06924">
        <ele>150</ele>
        <time>2017-10-01T09:37:34.000Z</time>
      </trkpt>
      <trkpt lat="44.97671" lon="1.06927">
        <ele>150</ele>
        <time>2017-10-01T09:37:35.000Z</time>
      </trkpt>
      <trkpt lat="44.97671" lon="1.06929">
        <ele>150</ele>
        <time>2017-10-01T09:37:36.000Z</time>
      </trkpt>
      <trkpt lat="44.97671" lon="1.06931">
        <ele>151</ele>
        <time>2017-10-01T09:37:37.000Z</time>
      </trkpt>
      <trkpt lat="44.97671" lon="1.06934">
        <ele>151</ele>
        <time>2017-10-01T09:37:38.000Z</time>
      </trkpt>
      <trkpt lat="44.97672" lon="1.06936">
        <ele>151</ele>
        <time>2017-10-01T09:37:39.000Z</time>
      </trkpt>
      <trkpt lat="44.97672" lon="1.06939">
        <ele>151</ele>
        <time>2017-10-01T09:37:40.000Z</time>
      </trkpt>
      <trkpt lat="44.97672" lon="1.06941">
        <ele>152</ele>
        <time>2017-10-01T09:37:41.000Z</time>
      </trkpt>
      <trkpt lat="44.97672" lon="1.06944">
        <ele>152</ele>
        <time>2017-10-01T09:37:42.000Z</time>
      </trkpt>
      <trkpt lat="44.97673" lon="1.06946">
        <ele>152</ele>
        <time>2017-10-01T09:37:43.000Z</time>
      </trkpt>
      <trkpt lat="44.97673" lon="1.06948">
        <ele>152</ele>
        <time>2017-10-01T09:37:44.000Z</time>
      </trkpt>
      <trkpt lat="44.97674" lon="1.0695">
        <ele>153</ele>
        <time>2017-10-01T09:37:45.000Z</time>
      </trkpt>
      <trkpt lat="44.97674" lon="1.06952">
        <ele>153</ele>
        <time>2017-10-01T09:37:46.000Z</time>
      </trkpt>
      <trkpt lat="44.97674" lon="1.06954">
        <ele>153</ele>
        <time>2017-10-01T09:37:47.000Z</time>
      </trkpt>
      <trkpt lat="44.97675" lon="1.06956">
        <ele>153</ele>
        <time>2017-10-01T09:37:48.000Z</time>
      </trkpt>
      <trkpt lat="44.97675" lon="1.06958">
        <ele>154</ele>
        <time>2017-10-01T09:37:49.000Z</time>
      </trkpt>
      <trkpt lat="44.97675" lon="1.0696">
        <ele>154</ele>
        <time>2017-10-01T09:37:50.000Z</time>
      </trkpt>
      <trkpt lat="44.97675" lon="1.06962">
        <ele>154</ele>
        <time>2017-10-01T09:37:51.000Z</time>
      </trkpt>
      <trkpt lat="44.97675" lon="1.06964">
        <ele>154</ele>
        <time>2017-10-01T09:37:52.000Z</time>
      </trkpt>
      <trkpt lat="44.97675" lon="1.06966">
        <ele>154</ele>
        <time>2017-10-01T09:37:53.000Z</time>
      </trkpt>
      <trkpt lat="44.97674" lon="1.06967">
        <ele>154</ele>
        <time>2017-10-01T09:37:54.000Z</time>
      </trkpt>
      <trkpt lat="44.97674" lon="1.06969">
        <ele>154</ele>
        <time>2017-10-01T09:37:55.000Z</time>
      </trkpt>
      <trkpt lat="44.97674" lon="1.06971">
        <ele>154</ele>
        <time>2017-10-01T09:37:56.000Z</time>
      </trkpt>
      <trkpt lat="44.97674" lon="1.06973">
        <ele>155</ele>
        <time>2017-10-01T09:37:57.000Z</time>
      </trkpt>
      <trkpt lat="44.97674" lon="1.06975">
        <ele>155</ele>
        <time>2017-10-01T09:37:58.000Z</time>
      </trkpt>
      <trkpt lat="44.97675" lon="1.06977">
        <ele>155</ele>
        <time>2017-10-01T09:37:59.000Z</time>
      </trkpt>
      <trkpt lat="44.97675" lon="1.06979">
        <ele>155</ele>
        <time>2017-10-01T09:38:00.000Z</time>
      </trkpt>
      <trkpt lat="44.97675" lon="1.06981">
        <ele>155</ele>
        <time>2017-10-01T09:38:01.000Z</time>
      </trkpt>
      <trkpt lat="44.97676" lon="1.06983">
        <ele>156</ele>
        <time>2017-10-01T09:38:02.000Z</time>
      </trkpt>
      <trkpt lat="44.97676" lon="1.06986">
        <ele>156</ele>
        <time>2017-10-01T09:38:03.000Z</time>
      </trkpt>
      <trkpt lat="44.97677" lon="1.06988">
        <ele>156</ele>
        <time>2017-10-01T09:38:04.000Z</time>
      </trkpt>
      <trkpt lat="44.97677" lon="1.0699">
        <ele>156</ele>
        <time>2017-10-01T09:38:05.000Z</time>
      </trkpt>
      <trkpt lat="44.97677" lon="1.06992">
        <ele>157</ele>
        <time>2017-10-01T09:38:06.000Z</time>
      </trkpt>
      <trkpt lat="44.97678" lon="1.06995">
        <ele>157</ele>
        <time>2017-10-01T09:38:07.000Z</time>
      </trkpt>
      <trkpt lat="44.97678" lon="1.06997">
        <ele>157</ele>
        <time>2017-10-01T09:38:08.000Z</time>
      </trkpt>
      <trkpt lat="44.97679" lon="1.06999">
        <ele>157</ele>
        <time>2017-10-01T09:38:09.000Z</time>
      </trkpt>
      <trkpt lat="44.97679" lon="1.07001">
        <ele>158</ele>
        <time>2017-10-01T09:38:10.000Z</time>
      </trkpt>
      <trkpt lat="44.97679" lon="1.07003">
        <ele>158</ele>
        <time>2017-10-01T09:38:11.000Z</time>
      </trkpt>
      <trkpt lat="44.9768" lon="1.07006">
        <ele>158</ele>
        <time>2017-10-01T09:38:12.000Z</time>
      </trkpt>
      <trkpt lat="44.9768" lon="1.07008">
        <ele>158</ele>
        <time>2017-10-01T09:38:13.000Z</time>
      </trkpt>
      <trkpt lat="44.97681" lon="1.0701">
        <ele>159</ele>
        <time>2017-10-01T09:38:14.000Z</time>
      </trkpt>
      <trkpt lat="44.97681" lon="1.07012">
        <ele>159</ele>
        <time>2017-10-01T09:38:15.000Z</time>
      </trkpt>
      <trkpt lat="44.97682" lon="1.07014">
        <ele>159</ele>
        <time>2017-10-01T09:38:16.000Z</time>
      </trkpt>
      <trkpt lat="44.97682" lon="1.07016">
        <ele>159</ele>
        <time>2017-10-01T09:38:17.000Z</time>
      </trkpt>
      <trkpt lat="44.97682" lon="1.07018">
        <ele>160</ele>
        <time>2017-10-01T09:38:18.000Z</time>
      </trkpt>
      <trkpt lat="44.97683" lon="1.0702">
        <ele>160</ele>
        <time>2017-10-01T09:38:19.000Z</time>
      </trkpt>
      <trkpt lat="44.97683" lon="1.07022">
        <ele>160</ele>
        <time>2017-10-01T09:38:20.000Z</time>
      </trkpt>
      <trkpt lat="44.97684" lon="1.07024">
        <ele>160</ele>
        <time>2017-10-01T09:38:21.000Z</time>
      </trkpt>
      <trkpt lat="44.97684" lon="1.07026">
        <ele>160</ele>
        <time>2017-10-01T09:38:22.000Z</time>
      </trkpt>
      <trkpt lat="44.97684" lon="1.07028">
        <ele>161</ele>
        <time>2017-10-01T09:38:23.000Z</time>
      </trkpt>
      <trkpt lat="44.97684" lon="1.07029">
        <ele>161</ele>
        <time>2017-10-01T09:38:24.000Z</time>
      </trkpt>
      <trkpt lat="44.97685" lon="1.07031">
        <ele>161</ele>
        <time>2017-10-01T09:38:25.000Z</time>
      </trkpt>
      <trkpt lat="44.97685" lon="1.07033">
        <ele>161</ele>
        <time>2017-10-01T09:38:26.000Z</time>
      </trkpt>
      <trkpt lat="44.97685" lon="1.07035">
        <ele>161</ele>
        <time>2017-10-01T09:38:27.000Z</time>
      </trkpt>
      <trkpt lat="44.97685" lon="1.07037">
        <ele>162</ele>
        <time>2017-10-01T09:38:28.000Z</time>
      </trkpt>
      <trkpt lat="44.97685" lon="1.07039">
        <ele>162</ele>
        <time>2017-10-01T09:38:29.000Z</time>
      </trkpt>
      <trkpt lat="44.97685" lon="1.07041">
        <ele>162</ele>
        <time>2017-10-01T09:38:30.000Z</time>
      </trkpt>
      <trkpt lat="44.97685" lon="1.07043">
        <ele>162</ele>
        <time>2017-10-01T09:38:31.000Z</time>
      </trkpt>
      <trkpt lat="44.97686" lon="1.07045">
        <ele>162</ele>
        <time>2017-10-01T09:38:32.000Z</time>
      </trkpt>
      <trkpt lat="44.97686" lon="1.07047">
        <ele>163</ele>
        <time>2017-10-01T09:38:33.000Z</time>
      </trkpt>
      <trkpt lat="44.97686" lon="1.07048">
        <ele>163</ele>
        <time>2017-10-01T09:38:34.000Z</time>
      </trkpt>
      <trkpt lat="44.97687" lon="1.0705">
        <ele>163</ele>
        <time>2017-10-01T09:38:35.000Z</time>
      </trkpt>
      <trkpt lat="44.97687" lon="1.07052">
        <ele>163</ele>
        <time>2017-10-01T09:38:36.000Z</time>
      </trkpt>
      <trkpt lat="44.97688" lon="1.07053">
        <ele>163</ele>
        <time>2017-10-01T09:38:37.000Z</time>
      </trkpt>
      <trkpt lat="44.97688" lon="1.07055">
        <ele>163</ele>
        <time>2017-10-01T09:38:38.000Z</time>
      </trkpt>
      <trkpt lat="44.97689" lon="1.07056">
        <ele>164</ele>
        <time>2017-10-01T09:38:39.000Z</time>
      </trkpt>
      <trkpt lat="44.97689" lon="1.07058">
        <ele>164</ele>
        <time>2017-10-01T09:38:40.000Z</time>
      </trkpt>
      <trkpt lat="44.9769" lon="1.07059">
        <ele>164</ele>
        <time>2017-10-01T09:38:41.000Z</time>
      </trkpt>
      <trkpt lat="44.9769" lon="1.07061">
        <ele>164</ele>
        <time>2017-10-01T09:38:42.000Z</time>
      </trkpt>
      <trkpt lat="44.97691" lon="1.07063">
        <ele>164</ele>
        <time>2017-10-01T09:38:43.000Z</time>
      </trkpt>
      <trkpt lat="44.97691" lon="1.07065">
        <ele>165</ele>
        <time>2017-10-01T09:38:44.000Z</time>
      </trkpt>
      <trkpt lat="44.97692" lon="1.07066">
        <ele>165</ele>
        <time>2017-10-01T09:38:45.000Z</time>
      </trkpt>
      <trkpt lat="44.97692" lon="1.07068">
        <ele>165</ele>
        <time>2017-10-01T09:38:46.000Z</time>
      </trkpt>
      <trkpt lat="44.97693" lon="1.0707">
        <ele>165</ele>
        <time>2017-10-01T09:38:47.000Z</time>
      </trkpt>
      <trkpt lat="44.97693" lon="1.07072">
        <ele>165</ele>
        <time>2017-10-01T09:38:48.000Z</time>
      </trkpt>
      <trkpt lat="44.97693" lon="1.07074">
        <ele>165</ele>
        <time>2017-10-01T09:38:49.000Z</time>
      </trkpt>
      <trkpt lat="44.97694" lon="1.07076">
        <ele>166</ele>
        <time>2017-10-01T09:38:50.000Z</time>
      </trkpt>
      <trkpt lat="44.97694" lon="1.07078">
        <ele>166</ele>
        <time>2017-10-01T09:38:51.000Z</time>
      </trkpt>
      <trkpt lat="44.97694" lon="1.0708">
        <ele>166</ele>
        <time>2017-10-01T09:38:52.000Z</time>
      </trkpt>
      <trkpt lat="44.97695" lon="1.07082">
        <ele>166</ele>
        <time>2017-10-01T09:38:53.000Z</time>
      </trkpt>
      <trkpt lat="44.97695" lon="1.07084">
        <ele>166</ele>
        <time>2017-10-01T09:38:54.000Z</time>
      </trkpt>
      <trkpt lat="44.97695" lon="1.07086">
        <ele>166</ele>
        <time>2017-10-01T09:38:55.000Z</time>
      </trkpt>
      <trkpt lat="44.97696" lon="1.07088">
        <ele>167</ele>
        <time>2017-10-01T09:38:56.000Z</time>
      </trkpt>
      <trkpt lat="44.97696" lon="1.0709">
        <ele>167</ele>
        <time>2017-10-01T09:38:57.000Z</time>
      </trkpt>
      <trkpt lat="44.97697" lon="1.07092">
        <ele>167</ele>
        <time>2017-10-01T09:38:58.000Z</time>
      </trkpt>
      <trkpt lat="44.97697" lon="1.07094">
        <ele>167</ele>
        <time>2017-10-01T09:38:59.000Z</time>
      </trkpt>
      <trkpt lat="44.97698" lon="1.07096">
        <ele>167</ele>
        <time>2017-10-01T09:39:00.000Z</time>
      </trkpt>
      <trkpt lat="44.97699" lon="1.07097">
        <ele>167</ele>
        <time>2017-10-01T09:39:01.000Z</time>
      </trkpt>
      <trkpt lat="44.977" lon="1.07099">
        <ele>168</ele>
        <time>2017-10-01T09:39:02.000Z</time>
      </trkpt>
      <trkpt lat="44.97701" lon="1.07101">
        <ele>168</ele>
        <time>2017-10-01T09:39:03.000Z</time>
      </trkpt>
      <trkpt lat="44.97702" lon="1.07102">
        <ele>168</ele>
        <time>2017-10-01T09:39:04.000Z</time>
      </trkpt>
      <trkpt lat="44.97703" lon="1.07104">
        <ele>168</ele>
        <time>2017-10-01T09:39:05.000Z</time>
      </trkpt>
      <trkpt lat="44.97704" lon="1.07105">
        <ele>168</ele>
        <time>2017-10-01T09:39:06.000Z</time>
      </trkpt>
      <trkpt lat="44.97705" lon="1.07107">
        <ele>168</ele>
        <time>2017-10-01T09:39:07.000Z</time>
      </trkpt>
      <trkpt lat="44.97706" lon="1.07109">
        <ele>168</ele>
        <time>2017-10-01T09:39:08.000Z</time>
      </trkpt>
      <trkpt lat="44.97706" lon="1.07111">
        <ele>169</ele>
        <time>2017-10-01T09:39:09.000Z</time>
      </trkpt>
      <trkpt lat="44.97707" lon="1.07113">
        <ele>169</ele>
        <time>2017-10-01T09:39:10.000Z</time>
      </trkpt>
      <trkpt lat="44.97708" lon="1.07115">
        <ele>169</ele>
        <time>2017-10-01T09:39:11.000Z</time>
      </trkpt>
      <trkpt lat="44.97708" lon="1.07118">
        <ele>169</ele>
        <time>2017-10-01T09:39:12.000Z</time>
      </trkpt>
      <trkpt lat="44.97709" lon="1.0712">
        <ele>169</ele>
        <time>2017-10-01T09:39:13.000Z</time>
      </trkpt>
      <trkpt lat="44.97709" lon="1.07122">
        <ele>169</ele>
        <time>2017-10-01T09:39:14.000Z</time>
      </trkpt>
      <trkpt lat="44.9771" lon="1.07124">
        <ele>170</ele>
        <time>2017-10-01T09:39:15.000Z</time>
      </trkpt>
      <trkpt lat="44.9771" lon="1.07126">
        <ele>170</ele>
        <time>2017-10-01T09:39:16.000Z</time>
      </trkpt>
      <trkpt lat="44.97711" lon="1.07128">
        <ele>170</ele>
        <time>2017-10-01T09:39:17.000Z</time>
      </trkpt>
      <trkpt lat="44.97711" lon="1.0713">
        <ele>170</ele>
        <time>2017-10-01T09:39:18.000Z</time>
      </trkpt>
      <trkpt lat="44.97712" lon="1.07132">
        <ele>170</ele>
        <time>2017-10-01T09:39:19.000Z</time>
      </trkpt>
      <trkpt lat="44.97713" lon="1.07134">
        <ele>170</ele>
        <time>2017-10-01T09:39:20.000Z</time>
      </trkpt>
      <trkpt lat="44.97714" lon="1.07136">
        <ele>170</ele>
        <time>2017-10-01T09:39:21.000Z</time>
      </trkpt>
      <trkpt lat="44.97715" lon="1.07137">
        <ele>170</ele>
        <time>2017-10-01T09:39:22.000Z</time>
      </trkpt>
      <trkpt lat="44.97716" lon="1.07139">
        <ele>170</ele>
        <time>2017-10-01T09:39:23.000Z</time>
      </trkpt>
      <trkpt lat="44.97717" lon="1.07141">
        <ele>171</ele>
        <time>2017-10-01T09:39:24.000Z</time>
      </trkpt>
      <trkpt lat="44.97718" lon="1.07143">
        <ele>171</ele>
        <time>2017-10-01T09:39:25.000Z</time>
      </trkpt>
      <trkpt lat="44.97719" lon="1.07145">
        <ele>171</ele>
        <time>2017-10-01T09:39:26.000Z</time>
      </trkpt>
      <trkpt lat="44.9772" lon="1.07147">
        <ele>171</ele>
        <time>2017-10-01T09:39:27.000Z</time>
      </trkpt>
      <trkpt lat="44.97721" lon="1.07149">
        <ele>171</ele>
        <time>2017-10-01T09:39:28.000Z</time>
      </trkpt>
      <trkpt lat="44.97722" lon="1.07151">
        <ele>171</ele>
        <time>2017-10-01T09:39:29.000Z</time>
      </trkpt>
      <trkpt lat="44.97722" lon="1.07153">
        <ele>171</ele>
        <time>2017-10-01T09:39:30.000Z</time>
      </trkpt>
      <trkpt lat="44.97723" lon="1.07155">
        <ele>171</ele>
        <time>2017-10-01T09:39:31.000Z</time>
      </trkpt>
      <trkpt lat="44.97723" lon="1.07157">
        <ele>171</ele>
        <time>2017-10-01T09:39:32.000Z</time>
      </trkpt>
      <trkpt lat="44.97724" lon="1.07159">
        <ele>172</ele>
        <time>2017-10-01T09:39:33.000Z</time>
      </trkpt>
      <trkpt lat="44.97725" lon="1.07161">
        <ele>172</ele>
        <time>2017-10-01T09:39:34.000Z</time>
      </trkpt>
      <trkpt lat="44.97725" lon="1.07163">
        <ele>172</ele>
        <time>2017-10-01T09:39:35.000Z</time>
      </trkpt>
      <trkpt lat="44.97726" lon="1.07165">
        <ele>172</ele>
        <time>2017-10-01T09:39:36.000Z</time>
      </trkpt>
      <trkpt lat="44.97726" lon="1.07167">
        <ele>172</ele>
        <time>2017-10-01T09:39:37.000Z</time>
      </trkpt>
      <trkpt lat="44.97727" lon="1.07169">
        <ele>172</ele>
        <time>2017-10-01T09:39:38.000Z</time>
      </trkpt>
      <trkpt lat="44.97728" lon="1.07171">
        <ele>172</ele>
        <time>2017-10-01T09:39:39.000Z</time>
      </trkpt>
      <trkpt lat="44.97728" lon="1.07173">
        <ele>172</ele>
        <time>2017-10-01T09:39:40.000Z</time>
      </trkpt>
      <trkpt lat="44.97729" lon="1.07175">
        <ele>172</ele>
        <time>2017-10-01T09:39:41.000Z</time>
      </trkpt>
      <trkpt lat="44.9773" lon="1.07177">
        <ele>172</ele>
        <time>2017-10-01T09:39:42.000Z</time>
      </trkpt>
      <trkpt lat="44.9773" lon="1.07179">
        <ele>172</ele>
        <time>2017-10-01T09:39:43.000Z</time>
      </trkpt>
      <trkpt lat="44.97731" lon="1.07181">
        <ele>172</ele>
        <time>2017-10-01T09:39:44.000Z</time>
      </trkpt>
      <trkpt lat="44.97732" lon="1.07182">
        <ele>172</ele>
        <time>2017-10-01T09:39:45.000Z</time>
      </trkpt>
      <trkpt lat="44.97733" lon="1.07184">
        <ele>172</ele>
        <time>2017-10-01T09:39:46.000Z</time>
      </trkpt>
      <trkpt lat="44.97734" lon="1.07186">
        <ele>172</ele>
        <time>2017-10-01T09:39:47.000Z</time>
      </trkpt>
      <trkpt lat="44.97734" lon="1.07188">
        <ele>173</ele>
        <time>2017-10-01T09:39:48.000Z</time>
      </trkpt>
      <trkpt lat="44.97735" lon="1.0719">
        <ele>173</ele>
        <time>2017-10-01T09:39:49.000Z</time>
      </trkpt>
      <trkpt lat="44.97736" lon="1.07192">
        <ele>173</ele>
        <time>2017-10-01T09:39:50.000Z</time>
      </trkpt>
      <trkpt lat="44.97737" lon="1.07195">
        <ele>173</ele>
        <time>2017-10-01T09:39:51.000Z</time>
      </trkpt>
      <trkpt lat="44.97738" lon="1.07197">
        <ele>173</ele>
        <time>2017-10-01T09:39:52.000Z</time>
      </trkpt>
      <trkpt lat="44.97738" lon="1.07199">
        <ele>173</ele>
        <time>2017-10-01T09:39:53.000Z</time>
      </trkpt>
      <trkpt lat="44.97739" lon="1.07201">
        <ele>173</ele>
        <time>2017-10-01T09:39:54.000Z</time>
      </trkpt>
      <trkpt lat="44.9774" lon="1.07203">
        <ele>173</ele>
        <time>2017-10-01T09:39:55.000Z</time>
      </trkpt>
      <trkpt lat="44.97741" lon="1.07205">
        <ele>173</ele>
        <time>2017-10-01T09:39:56.000Z</time>
      </trkpt>
      <trkpt lat="44.97742" lon="1.07207">
        <ele>173</ele>
        <time>2017-10-01T09:39:57.000Z</time>
      </trkpt>
      <trkpt lat="44.97743" lon="1.07209">
        <ele>173</ele>
        <time>2017-10-01T09:39:58.000Z</time>
      </trkpt>
      <trkpt lat="44.97743" lon="1.07211">
        <ele>173</ele>
        <time>2017-10-01T09:39:59.000Z</time>
      </trkpt>
      <trkpt lat="44.97744" lon="1.07213">
        <ele>173</ele>
        <time>2017-10-01T09:40:00.000Z</time>
      </trkpt>
      <trkpt lat="44.97745" lon="1.07215">
        <ele>173</ele>
        <time>2017-10-01T09:40:01.000Z</time>
      </trkpt>
      <trkpt lat="44.97746" lon="1.07216">
        <ele>173</ele>
        <time>2017-10-01T09:40:02.000Z</time>
      </trkpt>
      <trkpt lat="44.97748" lon="1.07218">
        <ele>173</ele>
        <time>2017-10-01T09:40:03.000Z</time>
      </trkpt>
      <trkpt lat="44.97749" lon="1.07219">
        <ele>173</ele>
        <time>2017-10-01T09:40:04.000Z</time>
      </trkpt>
      <trkpt lat="44.9775" lon="1.07221">
        <ele>173</ele>
        <time>2017-10-01T09:40:05.000Z</time>
      </trkpt>
      <trkpt lat="44.97751" lon="1.07223">
        <ele>173</ele>
        <time>2017-10-01T09:40:06.000Z</time>
      </trkpt>
      <trkpt lat="44.97751" lon="1.07225">
        <ele>173</ele>
        <time>2017-10-01T09:40:07.000Z</time>
      </trkpt>
      <trkpt lat="44.97752" lon="1.07227">
        <ele>173</ele>
        <time>2017-10-01T09:40:08.000Z</time>
      </trkpt>
      <trkpt lat="44.97752" lon="1.07229">
        <ele>174</ele>
        <time>2017-10-01T09:40:09.000Z</time>
      </trkpt>
      <trkpt lat="44.97752" lon="1.07232">
        <ele>174</ele>
        <time>2017-10-01T09:40:10.000Z</time>
      </trkpt>
      <trkpt lat="44.97752" lon="1.07234">
        <ele>174</ele>
        <time>2017-10-01T09:40:11.000Z</time>
      </trkpt>
      <trkpt lat="44.97752" lon="1.07237">
        <ele>174</ele>
        <time>2017-10-01T09:40:12.000Z</time>
      </trkpt>
      <trkpt lat="44.97751" lon="1.0724">
        <ele>174</ele>
        <time>2017-10-01T09:40:13.000Z</time>
      </trkpt>
      <trkpt lat="44.97751" lon="1.07243">
        <ele>174</ele>
        <time>2017-10-01T09:40:14.000Z</time>
      </trkpt>
      <trkpt lat="44.9775" lon="1.07246">
        <ele>173</ele>
        <time>2017-10-01T09:40:15.000Z</time>
      </trkpt>
      <trkpt lat="44.9775" lon="1.07249">
        <ele>174</ele>
        <time>2017-10-01T09:40:16.000Z</time>
      </trkpt>
      <trkpt lat="44.97749" lon="1.07252">
        <ele>174</ele>
        <time>2017-10-01T09:40:17.000Z</time>
      </trkpt>
      <trkpt lat="44.97749" lon="1.07255">
        <ele>174</ele>
        <time>2017-10-01T09:40:18.000Z</time>
      </trkpt>
      <trkpt lat="44.97748" lon="1.07258">
        <ele>174</ele>
        <time>2017-10-01T09:40:19.000Z</time>
      </trkpt>
      <trkpt lat="44.97748" lon="1.07261">
        <ele>174</ele>
        <time>2017-10-01T09:40:20.000Z</time>
      </trkpt>
      <trkpt lat="44.97748" lon="1.07264">
        <ele>174</ele>
        <time>2017-10-01T09:40:21.000Z</time>
      </trkpt>
      <trkpt lat="44.97749" lon="1.07267">
        <ele>175</ele>
        <time>2017-10-01T09:40:22.000Z</time>
      </trkpt>
      <trkpt lat="44.97749" lon="1.0727">
        <ele>175</ele>
        <time>2017-10-01T09:40:23.000Z</time>
      </trkpt>
      <trkpt lat="44.9775" lon="1.07273">
        <ele>175</ele>
        <time>2017-10-01T09:40:24.000Z</time>
      </trkpt>
      <trkpt lat="44.97751" lon="1.07276">
        <ele>175</ele>
        <time>2017-10-01T09:40:25.000Z</time>
      </trkpt>
      <trkpt lat="44.97751" lon="1.07278">
        <ele>175</ele>
        <time>2017-10-01T09:40:26.000Z</time>
      </trkpt>
      <trkpt lat="44.97752" lon="1.07281">
        <ele>176</ele>
        <time>2017-10-01T09:40:27.000Z</time>
      </trkpt>
      <trkpt lat="44.97752" lon="1.07284">
        <ele>176</ele>
        <time>2017-10-01T09:40:28.000Z</time>
      </trkpt>
      <trkpt lat="44.97753" lon="1.07287">
        <ele>176</ele>
        <time>2017-10-01T09:40:29.000Z</time>
      </trkpt>
      <trkpt lat="44.97753" lon="1.07289">
        <ele>176</ele>
        <time>2017-10-01T09:40:30.000Z</time>
      </trkpt>
      <trkpt lat="44.97754" lon="1.07292">
        <ele>177</ele>
        <time>2017-10-01T09:40:31.000Z</time>
      </trkpt>
      <trkpt lat="44.97754" lon="1.07295">
        <ele>177</ele>
        <time>2017-10-01T09:40:32.000Z</time>
      </trkpt>
      <trkpt lat="44.97755" lon="1.07297">
        <ele>177</ele>
        <time>2017-10-01T09:40:33.000Z</time>
      </trkpt>
      <trkpt lat="44.97755" lon="1.073">
        <ele>177</ele>
        <time>2017-10-01T09:40:34.000Z</time>
      </trkpt>
      <trkpt lat="44.97755" lon="1.07302">
        <ele>178</ele>
        <time>2017-10-01T09:40:35.000Z</time>
      </trkpt>
      <trkpt lat="44.97755" lon="1.07305">
        <ele>178</ele>
        <time>2017-10-01T09:40:36.000Z</time>
      </trkpt>
      <trkpt lat="44.97756" lon="1.07307">
        <ele>178</ele>
        <time>2017-10-01T09:40:37.000Z</time>
      </trkpt>
      <trkpt lat="44.97756" lon="1.07309">
        <ele>178</ele>
        <time>2017-10-01T09:40:38.000Z</time>
      </trkpt>
      <trkpt lat="44.97756" lon="1.07311">
        <ele>178</ele>
        <time>2017-10-01T09:40:39.000Z</time>
      </trkpt>
      <trkpt lat="44.97757" lon="1.07313">
        <ele>178</ele>
        <time>2017-10-01T09:40:40.000Z</time>
      </trkpt>
      <trkpt lat="44.97757" lon="1.07315">
        <ele>179</ele>
        <time>2017-10-01T09:40:41.000Z</time>
      </trkpt>
      <trkpt lat="44.97757" lon="1.07317">
        <ele>179</ele>
        <time>2017-10-01T09:40:42.000Z</time>
      </trkpt>
      <trkpt lat="44.97758" lon="1.07319">
        <ele>179</ele>
        <time>2017-10-01T09:40:43.000Z</time>
      </trkpt>
      <trkpt lat="44.97758" lon="1.07321">
        <ele>179</ele>
        <time>2017-10-01T09:40:44.000Z</time>
      </trkpt>
      <trkpt lat="44.97758" lon="1.07323">
        <ele>179</ele>
        <time>2017-10-01T09:40:45.000Z</time>
      </trkpt>
      <trkpt lat="44.97759" lon="1.07325">
        <ele>179</ele>
        <time>2017-10-01T09:40:46.000Z</time>
      </trkpt>
      <trkpt lat="44.97759" lon="1.07327">
        <ele>180</ele>
        <time>2017-10-01T09:40:47.000Z</time>
      </trkpt>
      <trkpt lat="44.97759" lon="1.07329">
        <ele>180</ele>
        <time>2017-10-01T09:40:48.000Z</time>
      </trkpt>
      <trkpt lat="44.9776" lon="1.07331">
        <ele>180</ele>
        <time>2017-10-01T09:40:49.000Z</time>
      </trkpt>
      <trkpt lat="44.9776" lon="1.07333">
        <ele>180</ele>
        <time>2017-10-01T09:40:50.000Z</time>
      </trkpt>
      <trkpt lat="44.9776" lon="1.07334">
        <ele>180</ele>
        <time>2017-10-01T09:40:51.000Z</time>
      </trkpt>
      <trkpt lat="44.9776" lon="1.07336">
        <ele>180</ele>
        <time>2017-10-01T09:40:52.000Z</time>
      </trkpt>
      <trkpt lat="44.97761" lon="1.07338">
        <ele>181</ele>
        <time>2017-10-01T09:40:53.000Z</time>
      </trkpt>
      <trkpt lat="44.97761" lon="1.0734">
        <ele>181</ele>
        <time>2017-10-01T09:40:54.000Z</time>
      </trkpt>
      <trkpt lat="44.97761" lon="1.07342">
        <ele>181</ele>
        <time>2017-10-01T09:40:55.000Z</time>
      </trkpt>
      <trkpt lat="44.97761" lon="1.07344">
        <ele>181</ele>
        <time>2017-10-01T09:40:56.000Z</time>
      </trkpt>
      <trkpt lat="44.97761" lon="1.07346">
        <ele>182</ele>
        <time>2017-10-01T09:40:57.000Z</time>
      </trkpt>
      <trkpt lat="44.97761" lon="1.07348">
        <ele>182</ele>
        <time>2017-10-01T09:40:58.000Z</time>
      </trkpt>
      <trkpt lat="44.97762" lon="1.0735">
        <ele>182</ele>
        <time>2017-10-01T09:40:59.000Z</time>
      </trkpt>
      <trkpt lat="44.97762" lon="1.07352">
        <ele>182</ele>
        <time>2017-10-01T09:41:00.000Z</time>
      </trkpt>
      <trkpt lat="44.97762" lon="1.07354">
        <ele>182</ele>
        <time>2017-10-01T09:41:01.000Z</time>
      </trkpt>
      <trkpt lat="44.97762" lon="1.07356">
        <ele>183</ele>
        <time>2017-10-01T09:41:02.000Z</time>
      </trkpt>
      <trkpt lat="44.97762" lon="1.07358">
        <ele>183</ele>
        <time>2017-10-01T09:41:03.000Z</time>
      </trkpt>
      <trkpt lat="44.97762" lon="1.0736">
        <ele>183</ele>
        <time>2017-10-01T09:41:04.000Z</time>
      </trkpt>
      <trkpt lat="44.97762" lon="1.07362">
        <ele>183</ele>
        <time>2017-10-01T09:41:05.000Z</time>
      </trkpt>
      <trkpt lat="44.97763" lon="1.07364">
        <ele>183</ele>
        <time>2017-10-01T09:41:06.000Z</time>
      </trkpt>
      <trkpt lat="44.97763" lon="1.07366">
        <ele>184</ele>
        <time>2017-10-01T09:41:07.000Z</time>
      </trkpt>
      <trkpt lat="44.97763" lon="1.07368">
        <ele>184</ele>
        <time>2017-10-01T09:41:08.000Z</time>
      </trkpt>
      <trkpt lat="44.97763" lon="1.0737">
        <ele>184</ele>
        <time>2017-10-01T09:41:09.000Z</time>
      </trkpt>
      <trkpt lat="44.97763" lon="1.07372">
        <ele>184</ele>
        <time>2017-10-01T09:41:10.000Z</time>
      </trkpt>
      <trkpt lat="44.97763" lon="1.07374">
        <ele>184</ele>
        <time>2017-10-01T09:41:11.000Z</time>
      </trkpt>
      <trkpt lat="44.97763" lon="1.07376">
        <ele>185</ele>
        <time>2017-10-01T09:41:12.000Z</time>
      </trkpt>
      <trkpt lat="44.97763" lon="1.07378">
        <ele>185</ele>
        <time>2017-10-01T09:41:13.000Z</time>
      </trkpt>
      <trkpt lat="44.97763" lon="1.0738">
        <ele>185</ele>
        <time>2017-10-01T09:41:14.000Z</time>
      </trkpt>
      <trkpt lat="44.97763" lon="1.07382">
        <ele>185</ele>
        <time>2017-10-01T09:41:15.000Z</time>
      </trkpt>
      <trkpt lat="44.97763" lon="1.07385">
        <ele>185</ele>
        <time>2017-10-01T09:41:16.000Z</time>
      </trkpt>
      <trkpt lat="44.97763" lon="1.07387">
        <ele>186</ele>
        <time>2017-10-01T09:41:17.000Z</time>
      </trkpt>
      <trkpt lat="44.97763" lon="1.07389">
        <ele>186</ele>
        <time>2017-10-01T09:41:18.000Z</time>
      </trkpt>
      <trkpt lat="44.97763" lon="1.07391">
        <ele>186</ele>
        <time>2017-10-01T09:41:19.000Z</time>
      </trkpt>
      <trkpt lat="44.97763" lon="1.07393">
        <ele>186</ele>
        <time>2017-10-01T09:41:20.000Z</time>
      </trkpt>
      <trkpt lat="44.97762" lon="1.07396">
        <ele>186</ele>
        <time>2017-10-01T09:41:21.000Z</time>
      </trkpt>
      <trkpt lat="44.97762" lon="1.07398">
        <ele>187</ele>
        <time>2017-10-01T09:41:22.000Z</time>
      </trkpt>
      <trkpt lat="44.97762" lon="1.074">
        <ele>187</ele>
        <time>2017-10-01T09:41:23.000Z</time>
      </trkpt>
      <trkpt lat="44.97762" lon="1.07402">
        <ele>187</ele>
        <time>2017-10-01T09:41:24.000Z</time>
      </trkpt>
      <trkpt lat="44.97762" lon="1.07404">
        <ele>187</ele>
        <time>2017-10-01T09:41:25.000Z</time>
      </trkpt>
      <trkpt lat="44.97762" lon="1.07407">
        <ele>187</ele>
        <time>2017-10-01T09:41:26.000Z</time>
      </trkpt>
      <trkpt lat="44.97761" lon="1.07409">
        <ele>187</ele>
        <time>2017-10-01T09:41:27.000Z</time>
      </trkpt>
      <trkpt lat="44.97761" lon="1.07411">
        <ele>188</ele>
        <time>2017-10-01T09:41:28.000Z</time>
      </trkpt>
      <trkpt lat="44.97761" lon="1.07413">
        <ele>188</ele>
        <time>2017-10-01T09:41:29.000Z</time>
      </trkpt>
      <trkpt lat="44.97761" lon="1.07415">
        <ele>188</ele>
        <time>2017-10-01T09:41:30.000Z</time>
      </trkpt>
      <trkpt lat="44.97761" lon="1.07418">
        <ele>188</ele>
        <time>2017-10-01T09:41:31.000Z</time>
      </trkpt>
      <trkpt lat="44.97761" lon="1.0742">
        <ele>188</ele>
        <time>2017-10-01T09:41:32.000Z</time>
      </trkpt>
      <trkpt lat="44.9776" lon="1.07422">
        <ele>188</ele>
        <time>2017-10-01T09:41:33.000Z</time>
      </trkpt>
      <trkpt lat="44.9776" lon="1.07424">
        <ele>189</ele>
        <time>2017-10-01T09:41:34.000Z</time>
      </trkpt>
      <trkpt lat="44.9776" lon="1.07426">
        <ele>189</ele>
        <time>2017-10-01T09:41:35.000Z</time>
      </trkpt>
      <trkpt lat="44.9776" lon="1.07428">
        <ele>189</ele>
        <time>2017-10-01T09:41:36.000Z</time>
      </trkpt>
      <trkpt lat="44.97759" lon="1.07431">
        <ele>189</ele>
        <time>2017-10-01T09:41:37.000Z</time>
      </trkpt>
      <trkpt lat="44.97759" lon="1.07433">
        <ele>189</ele>
        <time>2017-10-01T09:41:38.000Z</time>
      </trkpt>
      <trkpt lat="44.97759" lon="1.07435">
        <ele>189</ele>
        <time>2017-10-01T09:41:39.000Z</time>
      </trkpt>
      <trkpt lat="44.97759" lon="1.07437">
        <ele>189</ele>
        <time>2017-10-01T09:41:40.000Z</time>
      </trkpt>
      <trkpt lat="44.97759" lon="1.07439">
        <ele>189</ele>
        <time>2017-10-01T09:41:41.000Z</time>
      </trkpt>
      <trkpt lat="44.97758" lon="1.07441">
        <ele>189</ele>
        <time>2017-10-01T09:41:42.000Z</time>
      </trkpt>
      <trkpt lat="44.97758" lon="1.07443">
        <ele>190</ele>
        <time>2017-10-01T09:41:43.000Z</time>
      </trkpt>
      <trkpt lat="44.97758" lon="1.07445">
        <ele>190</ele>
        <time>2017-10-01T09:41:44.000Z</time>
      </trkpt>
      <trkpt lat="44.97758" lon="1.07447">
        <ele>190</ele>
        <time>2017-10-01T09:41:45.000Z</time>
      </trkpt>
      <trkpt lat="44.97757" lon="1.07449">
        <ele>190</ele>
        <time>2017-10-01T09:41:46.000Z</time>
      </trkpt>
      <trkpt lat="44.97757" lon="1.07451">
        <ele>190</ele>
        <time>2017-10-01T09:41:47.000Z</time>
      </trkpt>
      <trkpt lat="44.97757" lon="1.07453">
        <ele>190</ele>
        <time>2017-10-01T09:41:48.000Z</time>
      </trkpt>
      <trkpt lat="44.97756" lon="1.07455">
        <ele>190</ele>
        <time>2017-10-01T09:41:49.000Z</time>
      </trkpt>
      <trkpt lat="44.97756" lon="1.07457">
        <ele>190</ele>
        <time>2017-10-01T09:41:50.000Z</time>
      </trkpt>
      <trkpt lat="44.97756" lon="1.07459">
        <ele>190</ele>
        <time>2017-10-01T09:41:51.000Z</time>
      </trkpt>
      <trkpt lat="44.97756" lon="1.07462">
        <ele>191</ele>
        <time>2017-10-01T09:41:52.000Z</time>
      </trkpt>
      <trkpt lat="44.97755" lon="1.07464">
        <ele>191</ele>
        <time>2017-10-01T09:41:53.000Z</time>
      </trkpt>
      <trkpt lat="44.97755" lon="1.07466">
        <ele>191</ele>
        <time>2017-10-01T09:41:54.000Z</time>
      </trkpt>
      <trkpt lat="44.97755" lon="1.07468">
        <ele>191</ele>
        <time>2017-10-01T09:41:55.000Z</time>
      </trkpt>
      <trkpt lat="44.97755" lon="1.0747">
        <ele>191</ele>
        <time>2017-10-01T09:41:56.000Z</time>
      </trkpt>
      <trkpt lat="44.97754" lon="1.07472">
        <ele>191</ele>
        <time>2017-10-01T09:41:57.000Z</time>
      </trkpt>
      <trkpt lat="44.97754" lon="1.07474">
        <ele>191</ele>
        <time>2017-10-01T09:41:58.000Z</time>
      </trkpt>
      <trkpt lat="44.97754" lon="1.07476">
        <ele>191</ele>
        <time>2017-10-01T09:41:59.000Z</time>
      </trkpt>
      <trkpt lat="44.97753" lon="1.07478">
        <ele>191</ele>
        <time>2017-10-01T09:42:00.000Z</time>
      </trkpt>
      <trkpt lat="44.97753" lon="1.0748">
        <ele>192</ele>
        <time>2017-10-01T09:42:01.000Z</time>
      </trkpt>
      <trkpt lat="44.97753" lon="1.07482">
        <ele>192</ele>
        <time>2017-10-01T09:42:02.000Z</time>
      </trkpt>
      <trkpt lat="44.97753" lon="1.07485">
        <ele>192</ele>
        <time>2017-10-01T09:42:03.000Z</time>
      </trkpt>
      <trkpt lat="44.97752" lon="1.07487">
        <ele>192</ele>
        <time>2017-10-01T09:42:04.000Z</time>
      </trkpt>
      <trkpt lat="44.97752" lon="1.07489">
        <ele>192</ele>
        <time>2017-10-01T09:42:05.000Z</time>
      </trkpt>
      <trkpt lat="44.97752" lon="1.07491">
        <ele>192</ele>
        <time>2017-10-01T09:42:06.000Z</time>
      </trkpt>
      <trkpt lat="44.97751" lon="1.07493">
        <ele>192</ele>
        <time>2017-10-01T09:42:07.000Z</time>
      </trkpt>
      <trkpt lat="44.97751" lon="1.07495">
        <ele>192</ele>
        <time>2017-10-01T09:42:08.000Z</time>
      </trkpt>
      <trkpt lat="44.97751" lon="1.07497">
        <ele>192</ele>
        <time>2017-10-01T09:42:09.000Z</time>
      </trkpt>
      <trkpt lat="44.9775" lon="1.07499">
        <ele>193</ele>
        <time>2017-10-01T09:42:10.000Z</time>
      </trkpt>
      <trkpt lat="44.9775" lon="1.07501">
        <ele>193</ele>
        <time>2017-10-01T09:42:11.000Z</time>
      </trkpt>
      <trkpt lat="44.9775" lon="1.07503">
        <ele>193</ele>
        <time>2017-10-01T09:42:12.000Z</time>
      </trkpt>
      <trkpt lat="44.97749" lon="1.07506">
        <ele>193</ele>
        <time>2017-10-01T09:42:13.000Z</time>
      </trkpt>
      <trkpt lat="44.97749" lon="1.07508">
        <ele>193</ele>
        <time>2017-10-01T09:42:14.000Z</time>
      </trkpt>
      <trkpt lat="44.97749" lon="1.0751">
        <ele>193</ele>
        <time>2017-10-01T09:42:15.000Z</time>
      </trkpt>
      <trkpt lat="44.97748" lon="1.07512">
        <ele>193</ele>
        <time>2017-10-01T09:42:16.000Z</time>
      </trkpt>
      <trkpt lat="44.97748" lon="1.07514">
        <ele>193</ele>
        <time>2017-10-01T09:42:17.000Z</time>
      </trkpt>
      <trkpt lat="44.97747" lon="1.07516">
        <ele>194</ele>
        <time>2017-10-01T09:42:18.000Z</time>
      </trkpt>
      <trkpt lat="44.97747" lon="1.07518">
        <ele>194</ele>
        <time>2017-10-01T09:42:19.000Z</time>
      </trkpt>
      <trkpt lat="44.97747" lon="1.0752">
        <ele>194</ele>
        <time>2017-10-01T09:42:20.000Z</time>
      </trkpt>
      <trkpt lat="44.97746" lon="1.07522">
        <ele>194</ele>
        <time>2017-10-01T09:42:21.000Z</time>
      </trkpt>
      <trkpt lat="44.97746" lon="1.07524">
        <ele>194</ele>
        <time>2017-10-01T09:42:22.000Z</time>
      </trkpt>
      <trkpt lat="44.97746" lon="1.07526">
        <ele>194</ele>
        <time>2017-10-01T09:42:23.000Z</time>
      </trkpt>
      <trkpt lat="44.97746" lon="1.07528">
        <ele>194</ele>
        <time>2017-10-01T09:42:24.000Z</time>
      </trkpt>
      <trkpt lat="44.97745" lon="1.0753">
        <ele>194</ele>
        <time>2017-10-01T09:42:25.000Z</time>
      </trkpt>
      <trkpt lat="44.97745" lon="1.07532">
        <ele>195</ele>
        <time>2017-10-01T09:42:26.000Z</time>
      </trkpt>
      <trkpt lat="44.97745" lon="1.07534">
        <ele>195</ele>
        <time>2017-10-01T09:42:27.000Z</time>
      </trkpt>
      <trkpt lat="44.97745" lon="1.07536">
        <ele>195</ele>
        <time>2017-10-01T09:42:28.000Z</time>
      </trkpt>
      <trkpt lat="44.97744" lon="1.07537">
        <ele>195</ele>
        <time>2017-10-01T09:42:29.000Z</time>
      </trkpt>
      <trkpt lat="44.97744" lon="1.07539">
        <ele>195</ele>
        <time>2017-10-01T09:42:30.000Z</time>
      </trkpt>
      <trkpt lat="44.97744" lon="1.07541">
        <ele>195</ele>
        <time>2017-10-01T09:42:31.000Z</time>
      </trkpt>
      <trkpt lat="44.97744" lon="1.07543">
        <ele>195</ele>
        <time>2017-10-01T09:42:32.000Z</time>
      </trkpt>
      <trkpt lat="44.97744" lon="1.07545">
        <ele>195</ele>
        <time>2017-10-01T09:42:33.000Z</time>
      </trkpt>
      <trkpt lat="44.97744" lon="1.07547">
        <ele>196</ele>
        <time>2017-10-01T09:42:34.000Z</time>
      </trkpt>
      <trkpt lat="44.97743" lon="1.07548">
        <ele>196</ele>
        <time>2017-10-01T09:42:35.000Z</time>
      </trkpt>
      <trkpt lat="44.97743" lon="1.0755">
        <ele>196</ele>
        <time>2017-10-01T09:42:36.000Z</time>
      </trkpt>
      <trkpt lat="44.97743" lon="1.07552">
        <ele>196</ele>
        <time>2017-10-01T09:42:37.000Z</time>
      </trkpt>
      <trkpt lat="44.97743" lon="1.07553">
        <ele>196</ele>
        <time>2017-10-01T09:42:38.000Z</time>
      </trkpt>
      <trkpt lat="44.97743" lon="1.07555">
        <ele>196</ele>
        <time>2017-10-01T09:42:39.000Z</time>
      </trkpt>
      <trkpt lat="44.97743" lon="1.07557">
        <ele>196</ele>
        <time>2017-10-01T09:42:40.000Z</time>
      </trkpt>
      <trkpt lat="44.97743" lon="1.07558">
        <ele>196</ele>
        <time>2017-10-01T09:42:41.000Z</time>
      </trkpt>
      <trkpt lat="44.97743" lon="1.0756">
        <ele>196</ele>
        <time>2017-10-01T09:42:42.000Z</time>
      </trkpt>
      <trkpt lat="44.97743" lon="1.07561">
        <ele>197</ele>
        <time>2017-10-01T09:42:43.000Z</time>
      </trkpt>
      <trkpt lat="44.97743" lon="1.07563">
        <ele>197</ele>
        <time>2017-10-01T09:42:44.000Z</time>
      </trkpt>
      <trkpt lat="44.97742" lon="1.07564">
        <ele>197</ele>
        <time>2017-10-01T09:42:45.000Z</time>
      </trkpt>
      <trkpt lat="44.97742" lon="1.07566">
        <ele>197</ele>
        <time>2017-10-01T09:42:46.000Z</time>
      </trkpt>
      <trkpt lat="44.97742" lon="1.07567">
        <ele>197</ele>
        <time>2017-10-01T09:42:47.000Z</time>
      </trkpt>
      <trkpt lat="44.97742" lon="1.07569">
        <ele>197</ele>
        <time>2017-10-01T09:42:48.000Z</time>
      </trkpt>
      <trkpt lat="44.97742" lon="1.0757">
        <ele>197</ele>
        <time>2017-10-01T09:42:49.000Z</time>
      </trkpt>
      <trkpt lat="44.97742" lon="1.07572">
        <ele>197</ele>
        <time>2017-10-01T09:42:50.000Z</time>
      </trkpt>
      <trkpt lat="44.97743" lon="1.07573">
        <ele>197</ele>
        <time>2017-10-01T09:42:51.000Z</time>
      </trkpt>
      <trkpt lat="44.97743" lon="1.07575">
        <ele>198</ele>
        <time>2017-10-01T09:42:52.000Z</time>
      </trkpt>
      <trkpt lat="44.97743" lon="1.07577">
        <ele>198</ele>
        <time>2017-10-01T09:42:53.000Z</time>
      </trkpt>
      <trkpt lat="44.97743" lon="1.07578">
        <ele>198</ele>
        <time>2017-10-01T09:42:54.000Z</time>
      </trkpt>
      <trkpt lat="44.97743" lon="1.0758">
        <ele>198</ele>
        <time>2017-10-01T09:42:55.000Z</time>
      </trkpt>
      <trkpt lat="44.97743" lon="1.07581">
        <ele>198</ele>
        <time>2017-10-01T09:42:56.000Z</time>
      </trkpt>
      <trkpt lat="44.97744" lon="1.07583">
        <ele>198</ele>
        <time>2017-10-01T09:42:57.000Z</time>
      </trkpt>
      <trkpt lat="44.97744" lon="1.07585">
        <ele>198</ele>
        <time>2017-10-01T09:42:58.000Z</time>
      </trkpt>
      <trkpt lat="44.97745" lon="1.07587">
        <ele>198</ele>
        <time>2017-10-01T09:42:59.000Z</time>
      </trkpt>
      <trkpt lat="44.97745" lon="1.07588">
        <ele>198</ele>
        <time>2017-10-01T09:43:00.000Z</time>
      </trkpt>
      <trkpt lat="44.97745" lon="1.0759">
        <ele>198</ele>
        <time>2017-10-01T09:43:01.000Z</time>
      </trkpt>
      <trkpt lat="44.97746" lon="1.07592">
        <ele>199</ele>
        <time>2017-10-01T09:43:02.000Z</time>
      </trkpt>
      <trkpt lat="44.97747" lon="1.07594">
        <ele>199</ele>
        <time>2017-10-01T09:43:03.000Z</time>
      </trkpt>
      <trkpt lat="44.97747" lon="1.07596">
        <ele>199</ele>
        <time>2017-10-01T09:43:04.000Z</time>
      </trkpt>
      <trkpt lat="44.97748" lon="1.07598">
        <ele>199</ele>
        <time>2017-10-01T09:43:05.000Z</time>
      </trkpt>
      <trkpt lat="44.97748" lon="1.076">
        <ele>199</ele>
        <time>2017-10-01T09:43:06.000Z</time>
      </trkpt>
      <trkpt lat="44.97749" lon="1.07602">
        <ele>199</ele>
        <time>2017-10-01T09:43:07.000Z</time>
      </trkpt>
      <trkpt lat="44.9775" lon="1.07604">
        <ele>199</ele>
        <time>2017-10-01T09:43:08.000Z</time>
      </trkpt>
      <trkpt lat="44.9775" lon="1.07605">
        <ele>199</ele>
        <time>2017-10-01T09:43:09.000Z</time>
      </trkpt>
      <trkpt lat="44.9775" lon="1.07607">
        <ele>200</ele>
        <time>2017-10-01T09:43:10.000Z</time>
      </trkpt>
      <trkpt lat="44.97751" lon="1.07609">
        <ele>200</ele>
        <time>2017-10-01T09:43:11.000Z</time>
      </trkpt>
      <trkpt lat="44.97751" lon="1.07611">
        <ele>200</ele>
        <time>2017-10-01T09:43:12.000Z</time>
      </trkpt>
      <trkpt lat="44.97751" lon="1.07613">
        <ele>200</ele>
        <time>2017-10-01T09:43:13.000Z</time>
      </trkpt>
      <trkpt lat="44.97751" lon="1.07614">
        <ele>200</ele>
        <time>2017-10-01T09:43:14.000Z</time>
      </trkpt>
      <trkpt lat="44.97752" lon="1.07616">
        <ele>200</ele>
        <time>2017-10-01T09:43:15.000Z</time>
      </trkpt>
      <trkpt lat="44.97752" lon="1.07618">
        <ele>201</ele>
        <time>2017-10-01T09:43:16.000Z</time>
      </trkpt>
      <trkpt lat="44.97752" lon="1.0762">
        <ele>201</ele>
        <time>2017-10-01T09:43:17.000Z</time>
      </trkpt>
      <trkpt lat="44.97752" lon="1.07622">
        <ele>201</ele>
        <time>2017-10-01T09:43:18.000Z</time>
      </trkpt>
      <trkpt lat="44.97753" lon="1.07625">
        <ele>201</ele>
        <time>2017-10-01T09:43:19.000Z</time>
      </trkpt>
      <trkpt lat="44.97753" lon="1.07627">
        <ele>201</ele>
        <time>2017-10-01T09:43:20.000Z</time>
      </trkpt>
      <trkpt lat="44.97754" lon="1.07629">
        <ele>202</ele>
        <time>2017-10-01T09:43:21.000Z</time>
      </trkpt>
      <trkpt lat="44.97755" lon="1.07631">
        <ele>202</ele>
        <time>2017-10-01T09:43:22.000Z</time>
      </trkpt>
      <trkpt lat="44.97756" lon="1.07633">
        <ele>202</ele>
        <time>2017-10-01T09:43:23.000Z</time>
      </trkpt>
      <trkpt lat="44.97756" lon="1.07635">
        <ele>202</ele>
        <time>2017-10-01T09:43:24.000Z</time>
      </trkpt>
      <trkpt lat="44.97757" lon="1.07637">
        <ele>203</ele>
        <time>2017-10-01T09:43:25.000Z</time>
      </trkpt>
      <trkpt lat="44.97758" lon="1.07639">
        <ele>203</ele>
        <time>2017-10-01T09:43:26.000Z</time>
      </trkpt>
      <trkpt lat="44.97759" lon="1.07641">
        <ele>203</ele>
        <time>2017-10-01T09:43:27.000Z</time>
      </trkpt>
      <trkpt lat="44.97761" lon="1.07643">
        <ele>203</ele>
        <time>2017-10-01T09:43:28.000Z</time>
      </trkpt>
      <trkpt lat="44.97762" lon="1.07645">
        <ele>204</ele>
        <time>2017-10-01T09:43:29.000Z</time>
      </trkpt>
      <trkpt lat="44.97763" lon="1.07647">
        <ele>204</ele>
        <time>2017-10-01T09:43:30.000Z</time>
      </trkpt>
      <trkpt lat="44.97764" lon="1.07649">
        <ele>204</ele>
        <time>2017-10-01T09:43:31.000Z</time>
      </trkpt>
      <trkpt lat="44.97765" lon="1.07651">
        <ele>204</ele>
        <time>2017-10-01T09:43:32.000Z</time>
      </trkpt>
      <trkpt lat="44.97766" lon="1.07653">
        <ele>205</ele>
        <time>2017-10-01T09:43:33.000Z</time>
      </trkpt>
      <trkpt lat="44.97766" lon="1.07655">
        <ele>205</ele>
        <time>2017-10-01T09:43:34.000Z</time>
      </trkpt>
      <trkpt lat="44.97767" lon="1.07657">
        <ele>205</ele>
        <time>2017-10-01T09:43:35.000Z</time>
      </trkpt>
      <trkpt lat="44.97768" lon="1.07659">
        <ele>205</ele>
        <time>2017-10-01T09:43:36.000Z</time>
      </trkpt>
      <trkpt lat="44.97769" lon="1.07661">
        <ele>206</ele>
        <time>2017-10-01T09:43:37.000Z</time>
      </trkpt>
      <trkpt lat="44.9777" lon="1.07663">
        <ele>206</ele>
        <time>2017-10-01T09:43:38.000Z</time>
      </trkpt>
      <trkpt lat="44.9777" lon="1.07665">
        <ele>206</ele>
        <time>2017-10-01T09:43:39.000Z</time>
      </trkpt>
      <trkpt lat="44.97771" lon="1.07666">
        <ele>206</ele>
        <time>2017-10-01T09:43:40.000Z</time>
      </trkpt>
      <trkpt lat="44.97772" lon="1.07668">
        <ele>207</ele>
        <time>2017-10-01T09:43:41.000Z</time>
      </trkpt>
      <trkpt lat="44.97772" lon="1.0767">
        <ele>207</ele>
        <time>2017-10-01T09:43:42.000Z</time>
      </trkpt>
      <trkpt lat="44.97773" lon="1.07672">
        <ele>207</ele>
        <time>2017-10-01T09:43:43.000Z</time>
      </trkpt>
      <trkpt lat="44.97773" lon="1.07674">
        <ele>207</ele>
        <time>2017-10-01T09:43:44.000Z</time>
      </trkpt>
      <trkpt lat="44.97774" lon="1.07676">
        <ele>207</ele>
        <time>2017-10-01T09:43:45.000Z</time>
      </trkpt>
      <trkpt lat="44.97774" lon="1.07677">
        <ele>208</ele>
        <time>2017-10-01T09:43:46.000Z</time>
      </trkpt>
      <trkpt lat="44.97775" lon="1.07679">
        <ele>208</ele>
        <time>2017-10-01T09:43:47.000Z</time>
      </trkpt>
      <trkpt lat="44.97775" lon="1.0768">
        <ele>208</ele>
        <time>2017-10-01T09:43:48.000Z</time>
      </trkpt>
      <trkpt lat="44.97776" lon="1.07682">
        <ele>208</ele>
        <time>2017-10-01T09:43:49.000Z</time>
      </trkpt>
      <trkpt lat="44.97776" lon="1.07683">
        <ele>208</ele>
        <time>2017-10-01T09:43:50.000Z</time>
      </trkpt>
      <trkpt lat="44.97777" lon="1.07684">
        <ele>209</ele>
        <time>2017-10-01T09:43:51.000Z</time>
      </trkpt>
      <trkpt lat="44.97777" lon="1.07685">
        <ele>209</ele>
        <time>2017-10-01T09:43:52.000Z</time>
      </trkpt>
      <trkpt lat="44.97778" lon="1.07686">
        <ele>209</ele>
        <time>2017-10-01T09:43:53.000Z</time>
      </trkpt>
      <trkpt lat="44.97779" lon="1.07687">
        <ele>209</ele>
        <time>2017-10-01T09:43:54.000Z</time>
      </trkpt>
      <trkpt lat="44.9778" lon="1.07688">
        <ele>209</ele>
        <time>2017-10-01T09:43:55.000Z</time>
      </trkpt>
      <trkpt lat="44.97781" lon="1.07689">
        <ele>209</ele>
        <time>2017-10-01T09:43:56.000Z</time>
      </trkpt>
      <trkpt lat="44.97781" lon="1.0769">
        <ele>210</ele>
        <time>2017-10-01T09:43:57.000Z</time>
      </trkpt>
      <trkpt lat="44.97782" lon="1.07691">
        <ele>210</ele>
        <time>2017-10-01T09:43:59.000Z</time>
      </trkpt>
      <trkpt lat="44.97782" lon="1.07691">
        <ele>210</ele>
        <time>2017-10-01T09:43:59.000Z</time>
      </trkpt>
      <trkpt lat="44.97782" lon="1.07692">
        <ele>210</ele>
        <time>2017-10-01T09:44:00.000Z</time>
      </trkpt>
      <trkpt lat="44.97783" lon="1.07692">
        <ele>210</ele>
        <time>2017-10-01T09:44:01.000Z</time>
      </trkpt>
      <trkpt lat="44.97783" lon="1.07693">
        <ele>210</ele>
        <time>2017-10-01T09:44:02.000Z</time>
      </trkpt>
      <trkpt lat="44.97784" lon="1.07694">
        <ele>210</ele>
        <time>2017-10-01T09:44:03.000Z</time>
      </trkpt>
      <trkpt lat="44.97785" lon="1.07695">
        <ele>210</ele>
        <time>2017-10-01T09:44:04.000Z</time>
      </trkpt>
      <trkpt lat="44.97786" lon="1.07696">
        <ele>210</ele>
        <time>2017-10-01T09:44:05.000Z</time>
      </trkpt>
      <trkpt lat="44.97787" lon="1.07697">
        <ele>211</ele>
        <time>2017-10-01T09:44:06.000Z</time>
      </trkpt>
      <trkpt lat="44.97788" lon="1.07698">
        <ele>211</ele>
        <time>2017-10-01T09:44:07.000Z</time>
      </trkpt>
      <trkpt lat="44.97789" lon="1.07699">
        <ele>211</ele>
        <time>2017-10-01T09:44:08.000Z</time>
      </trkpt>
      <trkpt lat="44.9779" lon="1.07701">
        <ele>211</ele>
        <time>2017-10-01T09:44:09.000Z</time>
      </trkpt>
      <trkpt lat="44.9779" lon="1.07702">
        <ele>211</ele>
        <time>2017-10-01T09:44:10.000Z</time>
      </trkpt>
      <trkpt lat="44.97791" lon="1.07703">
        <ele>212</ele>
        <time>2017-10-01T09:44:11.000Z</time>
      </trkpt>
      <trkpt lat="44.97792" lon="1.07704">
        <ele>212</ele>
        <time>2017-10-01T09:44:12.000Z</time>
      </trkpt>
      <trkpt lat="44.97793" lon="1.07705">
        <ele>212</ele>
        <time>2017-10-01T09:44:13.000Z</time>
      </trkpt>
      <trkpt lat="44.97794" lon="1.07707">
        <ele>212</ele>
        <time>2017-10-01T09:44:14.000Z</time>
      </trkpt>
      <trkpt lat="44.97795" lon="1.07708">
        <ele>212</ele>
        <time>2017-10-01T09:44:15.000Z</time>
      </trkpt>
      <trkpt lat="44.97796" lon="1.07709">
        <ele>212</ele>
        <time>2017-10-01T09:44:16.000Z</time>
      </trkpt>
      <trkpt lat="44.97797" lon="1.0771">
        <ele>213</ele>
        <time>2017-10-01T09:44:17.000Z</time>
      </trkpt>
      <trkpt lat="44.97798" lon="1.07711">
        <ele>213</ele>
        <time>2017-10-01T09:44:18.000Z</time>
      </trkpt>
      <trkpt lat="44.97799" lon="1.07712">
        <ele>213</ele>
        <time>2017-10-01T09:44:19.000Z</time>
      </trkpt>
      <trkpt lat="44.978" lon="1.07712">
        <ele>213</ele>
        <time>2017-10-01T09:44:20.000Z</time>
      </trkpt>
      <trkpt lat="44.978" lon="1.07713">
        <ele>213</ele>
        <time>2017-10-01T09:44:21.000Z</time>
      </trkpt>
      <trkpt lat="44.97801" lon="1.07713">
        <ele>213</ele>
        <time>2017-10-01T09:44:24.000Z</time>
      </trkpt>
      <trkpt lat="44.97801" lon="1.07713">
        <ele>213</ele>
        <time>2017-10-01T09:44:24.000Z</time>
      </trkpt>
      <trkpt lat="44.97801" lon="1.07714">
        <ele>213</ele>
        <time>2017-10-01T09:44:24.000Z</time>
      </trkpt>
      <trkpt lat="44.97802" lon="1.07714">
        <ele>213</ele>
        <time>2017-10-01T09:44:25.000Z</time>
      </trkpt>
      <trkpt lat="44.97802" lon="1.07715">
        <ele>213</ele>
        <time>2017-10-01T09:44:26.000Z</time>
      </trkpt>
      <trkpt lat="44.97803" lon="1.07716">
        <ele>214</ele>
        <time>2017-10-01T09:44:27.000Z</time>
      </trkpt>
      <trkpt lat="44.97804" lon="1.07717">
        <ele>214</ele>
        <time>2017-10-01T09:44:28.000Z</time>
      </trkpt>
      <trkpt lat="44.97805" lon="1.07717">
        <ele>214</ele>
        <time>2017-10-01T09:44:29.000Z</time>
      </trkpt>
      <trkpt lat="44.97806" lon="1.07718">
        <ele>214</ele>
        <time>2017-10-01T09:44:30.000Z</time>
      </trkpt>
      <trkpt lat="44.97807" lon="1.07719">
        <ele>214</ele>
        <time>2017-10-01T09:44:31.000Z</time>
      </trkpt>
      <trkpt lat="44.97808" lon="1.07719">
        <ele>214</ele>
        <time>2017-10-01T09:44:32.000Z</time>
      </trkpt>
      <trkpt lat="44.97809" lon="1.07719">
        <ele>214</ele>
        <time>2017-10-01T09:44:33.000Z</time>
      </trkpt>
      <trkpt lat="44.9781" lon="1.07719">
        <ele>214</ele>
        <time>2017-10-01T09:44:34.000Z</time>
      </trkpt>
      <trkpt lat="44.97811" lon="1.07719">
        <ele>214</ele>
        <time>2017-10-01T09:44:35.000Z</time>
      </trkpt>
      <trkpt lat="44.97812" lon="1.07719">
        <ele>215</ele>
        <time>2017-10-01T09:44:36.000Z</time>
      </trkpt>
      <trkpt lat="44.97814" lon="1.07719">
        <ele>215</ele>
        <time>2017-10-01T09:44:37.000Z</time>
      </trkpt>
      <trkpt lat="44.97815" lon="1.07719">
        <ele>215</ele>
        <time>2017-10-01T09:44:38.000Z</time>
      </trkpt>
      <trkpt lat="44.97816" lon="1.07718">
        <ele>215</ele>
        <time>2017-10-01T09:44:39.000Z</time>
      </trkpt>
      <trkpt lat="44.97817" lon="1.07718">
        <ele>215</ele>
        <time>2017-10-01T09:44:40.000Z</time>
      </trkpt>
      <trkpt lat="44.97819" lon="1.07717">
        <ele>215</ele>
        <time>2017-10-01T09:44:41.000Z</time>
      </trkpt>
      <trkpt lat="44.9782" lon="1.07717">
        <ele>215</ele>
        <time>2017-10-01T09:44:42.000Z</time>
      </trkpt>
      <trkpt lat="44.97822" lon="1.07716">
        <ele>215</ele>
        <time>2017-10-01T09:44:43.000Z</time>
      </trkpt>
      <trkpt lat="44.97823" lon="1.07715">
        <ele>215</ele>
        <time>2017-10-01T09:44:44.000Z</time>
      </trkpt>
      <trkpt lat="44.97825" lon="1.07713">
        <ele>215</ele>
        <time>2017-10-01T09:44:45.000Z</time>
      </trkpt>
      <trkpt lat="44.97826" lon="1.07712">
        <ele>215</ele>
        <time>2017-10-01T09:44:46.000Z</time>
      </trkpt>
      <trkpt lat="44.97827" lon="1.0771">
        <ele>215</ele>
        <time>2017-10-01T09:44:47.000Z</time>
      </trkpt>
      <trkpt lat="44.97828" lon="1.07708">
        <ele>215</ele>
        <time>2017-10-01T09:44:48.000Z</time>
      </trkpt>
      <trkpt lat="44.9783" lon="1.07706">
        <ele>215</ele>
        <time>2017-10-01T09:44:49.000Z</time>
      </trkpt>
      <trkpt lat="44.97831" lon="1.07704">
        <ele>215</ele>
        <time>2017-10-01T09:44:50.000Z</time>
      </trkpt>
      <trkpt lat="44.97832" lon="1.07702">
        <ele>214</ele>
        <time>2017-10-01T09:44:51.000Z</time>
      </trkpt>
      <trkpt lat="44.97834" lon="1.07701">
        <ele>214</ele>
        <time>2017-10-01T09:44:52.000Z</time>
      </trkpt>
      <trkpt lat="44.97835" lon="1.07699">
        <ele>214</ele>
        <time>2017-10-01T09:44:53.000Z</time>
      </trkpt>
      <trkpt lat="44.97837" lon="1.07697">
        <ele>214</ele>
        <time>2017-10-01T09:44:54.000Z</time>
      </trkpt>
      <trkpt lat="44.97838" lon="1.07696">
        <ele>214</ele>
        <time>2017-10-01T09:44:55.000Z</time>
      </trkpt>
      <trkpt lat="44.97839" lon="1.07694">
        <ele>214</ele>
        <time>2017-10-01T09:44:56.000Z</time>
      </trkpt>
      <trkpt lat="44.97841" lon="1.07692">
        <ele>214</ele>
        <time>2017-10-01T09:44:57.000Z</time>
      </trkpt>
      <trkpt lat="44.97842" lon="1.0769">
        <ele>214</ele>
        <time>2017-10-01T09:44:58.000Z</time>
      </trkpt>
      <trkpt lat="44.97844" lon="1.07688">
        <ele>214</ele>
        <time>2017-10-01T09:44:59.000Z</time>
      </trkpt>
      <trkpt lat="44.97845" lon="1.07687">
        <ele>214</ele>
        <time>2017-10-01T09:45:00.000Z</time>
      </trkpt>
      <trkpt lat="44.97846" lon="1.07685">
        <ele>214</ele>
        <time>2017-10-01T09:45:01.000Z</time>
      </trkpt>
      <trkpt lat="44.97848" lon="1.07683">
        <ele>214</ele>
        <time>2017-10-01T09:45:02.000Z</time>
      </trkpt>
      <trkpt lat="44.97849" lon="1.07682">
        <ele>214</ele>
        <time>2017-10-01T09:45:03.000Z</time>
      </trkpt>
      <trkpt lat="44.9785" lon="1.0768">
        <ele>214</ele>
        <time>2017-10-01T09:45:04.000Z</time>
      </trkpt>
      <trkpt lat="44.97851" lon="1.07679">
        <ele>214</ele>
        <time>2017-10-01T09:45:05.000Z</time>
      </trkpt>
      <trkpt lat="44.97852" lon="1.07678">
        <ele>214</ele>
        <time>2017-10-01T09:45:06.000Z</time>
      </trkpt>
      <trkpt lat="44.97854" lon="1.07677">
        <ele>214</ele>
        <time>2017-10-01T09:45:07.000Z</time>
      </trkpt>
      <trkpt lat="44.97855" lon="1.07675">
        <ele>214</ele>
        <time>2017-10-01T09:45:08.000Z</time>
      </trkpt>
      <trkpt lat="44.97856" lon="1.07674">
        <ele>214</ele>
        <time>2017-10-01T09:45:09.000Z</time>
      </trkpt>
      <trkpt lat="44.97857" lon="1.07673">
        <ele>214</ele>
        <time>2017-10-01T09:45:10.000Z</time>
      </trkpt>
      <trkpt lat="44.97859" lon="1.07672">
        <ele>214</ele>
        <time>2017-10-01T09:45:11.000Z</time>
      </trkpt>
      <trkpt lat="44.9786" lon="1.07671">
        <ele>214</ele>
        <time>2017-10-01T09:45:12.000Z</time>
      </trkpt>
      <trkpt lat="44.97862" lon="1.0767">
        <ele>214</ele>
        <time>2017-10-01T09:45:13.000Z</time>
      </trkpt>
      <trkpt lat="44.97863" lon="1.07669">
        <ele>214</ele>
        <time>2017-10-01T09:45:14.000Z</time>
      </trkpt>
      <trkpt lat="44.97865" lon="1.07668">
        <ele>214</ele>
        <time>2017-10-01T09:45:15.000Z</time>
      </trkpt>
      <trkpt lat="44.97867" lon="1.07666">
        <ele>214</ele>
        <time>2017-10-01T09:45:16.000Z</time>
      </trkpt>
      <trkpt lat="44.97868" lon="1.07665">
        <ele>214</ele>
        <time>2017-10-01T09:45:17.000Z</time>
      </trkpt>
      <trkpt lat="44.9787" lon="1.07663">
        <ele>214</ele>
        <time>2017-10-01T09:45:18.000Z</time>
      </trkpt>
      <trkpt lat="44.97872" lon="1.07662">
        <ele>215</ele>
        <time>2017-10-01T09:45:19.000Z</time>
      </trkpt>
      <trkpt lat="44.97873" lon="1.0766">
        <ele>215</ele>
        <time>2017-10-01T09:45:20.000Z</time>
      </trkpt>
      <trkpt lat="44.97875" lon="1.07658">
        <ele>215</ele>
        <time>2017-10-01T09:45:21.000Z</time>
      </trkpt>
      <trkpt lat="44.97876" lon="1.07656">
        <ele>215</ele>
        <time>2017-10-01T09:45:22.000Z</time>
      </trkpt>
      <trkpt lat="44.97877" lon="1.07654">
        <ele>215</ele>
        <time>2017-10-01T09:45:23.000Z</time>
      </trkpt>
      <trkpt lat="44.97878" lon="1.07651">
        <ele>215</ele>
        <time>2017-10-01T09:45:24.000Z</time>
      </trkpt>
      <trkpt lat="44.9788" lon="1.07649">
        <ele>215</ele>
        <time>2017-10-01T09:45:25.000Z</time>
      </trkpt>
      <trkpt lat="44.97881" lon="1.07646">
        <ele>215</ele>
        <time>2017-10-01T09:45:26.000Z</time>
      </trkpt>
      <trkpt lat="44.97881" lon="1.07643">
        <ele>215</ele>
        <time>2017-10-01T09:45:27.000Z</time>
      </trkpt>
      <trkpt lat="44.97882" lon="1.0764">
        <ele>215</ele>
        <time>2017-10-01T09:45:28.000Z</time>
      </trkpt>
      <trkpt lat="44.97883" lon="1.07637">
        <ele>215</ele>
        <time>2017-10-01T09:45:29.000Z</time>
      </trkpt>
      <trkpt lat="44.97884" lon="1.07635">
        <ele>215</ele>
        <time>2017-10-01T09:45:30.000Z</time>
      </trkpt>
      <trkpt lat="44.97885" lon="1.07633">
        <ele>215</ele>
        <time>2017-10-01T09:45:31.000Z</time>
      </trkpt>
      <trkpt lat="44.97886" lon="1.07631">
        <ele>215</ele>
        <time>2017-10-01T09:45:32.000Z</time>
      </trkpt>
      <trkpt lat="44.97887" lon="1.07628">
        <ele>215</ele>
        <time>2017-10-01T09:45:33.000Z</time>
      </trkpt>
      <trkpt lat="44.97888" lon="1.07626">
        <ele>215</ele>
        <time>2017-10-01T09:45:34.000Z</time>
      </trkpt>
      <trkpt lat="44.97889" lon="1.07623">
        <ele>215</ele>
        <time>2017-10-01T09:45:35.000Z</time>
      </trkpt>
      <trkpt lat="44.9789" lon="1.0762">
        <ele>215</ele>
        <time>2017-10-01T09:45:36.000Z</time>
      </trkpt>
      <trkpt lat="44.97891" lon="1.07618">
        <ele>215</ele>
        <time>2017-10-01T09:45:37.000Z</time>
      </trkpt>
      <trkpt lat="44.97892" lon="1.07615">
        <ele>215</ele>
        <time>2017-10-01T09:45:38.000Z</time>
      </trkpt>
      <trkpt lat="44.97893" lon="1.07612">
        <ele>215</ele>
        <time>2017-10-01T09:45:39.000Z</time>
      </trkpt>
      <trkpt lat="44.97894" lon="1.0761">
        <ele>216</ele>
        <time>2017-10-01T09:45:40.000Z</time>
      </trkpt>
      <trkpt lat="44.97895" lon="1.07607">
        <ele>216</ele>
        <time>2017-10-01T09:45:41.000Z</time>
      </trkpt>
      <trkpt lat="44.97896" lon="1.07605">
        <ele>216</ele>
        <time>2017-10-01T09:45:42.000Z</time>
      </trkpt>
      <trkpt lat="44.97897" lon="1.07603">
        <ele>216</ele>
        <time>2017-10-01T09:45:43.000Z</time>
      </trkpt>
      <trkpt lat="44.97898" lon="1.07601">
        <ele>216</ele>
        <time>2017-10-01T09:45:44.000Z</time>
      </trkpt>
      <trkpt lat="44.97899" lon="1.07599">
        <ele>216</ele>
        <time>2017-10-01T09:45:45.000Z</time>
      </trkpt>
      <trkpt lat="44.97901" lon="1.07597">
        <ele>216</ele>
        <time>2017-10-01T09:45:46.000Z</time>
      </trkpt>
      <trkpt lat="44.97902" lon="1.07596">
        <ele>216</ele>
        <time>2017-10-01T09:45:47.000Z</time>
      </trkpt>
      <trkpt lat="44.97903" lon="1.07595">
        <ele>217</ele>
        <time>2017-10-01T09:45:48.000Z</time>
      </trkpt>
      <trkpt lat="44.97905" lon="1.07594">
        <ele>217</ele>
        <time>2017-10-01T09:45:50.000Z</time>
      </trkpt>
      <trkpt lat="44.97905" lon="1.07594">
        <ele>217</ele>
        <time>2017-10-01T09:45:50.000Z</time>
      </trkpt>
      <trkpt lat="44.97906" lon="1.07594">
        <ele>217</ele>
        <time>2017-10-01T09:45:51.000Z</time>
      </trkpt>
      <trkpt lat="44.97907" lon="1.07593">
        <ele>217</ele>
        <time>2017-10-01T09:51:25.000Z</time>
      </trkpt>
      <trkpt lat="44.97907" lon="1.07593">
        <ele>217</ele>
        <time>2017-10-01T09:51:25.000Z</time>
      </trkpt>
      <trkpt lat="44.97907" lon="1.07593">
        <ele>217</ele>
        <time>2017-10-01T09:51:25.000Z</time>
      </trkpt>
      <trkpt lat="44.97907" lon="1.07593">
        <ele>217</ele>
        <time>2017-10-01T09:51:25.000Z</time>
      </trkpt>
      <trkpt lat="44.97907" lon="1.07593">
        <ele>217</ele>
        <time>2017-10-01T09:51:25.000Z</time>
      </trkpt>
      <trkpt lat="44.97907" lon="1.07593">
        <ele>217</ele>
        <time>2017-10-01T09:51:25.000Z</time>
      </trkpt>
      <trkpt lat="44.97907" lon="1.07593">
        <ele>217</ele>
        <time>2017-10-01T09:51:25.000Z</time>
      </trkpt>
      <trkpt lat="44.97907" lon="1.07593">
        <ele>217</ele>
        <time>2017-10-01T09:51:25.000Z</time>
      </trkpt>
      <trkpt lat="44.97907" lon="1.07593">
        <ele>217</ele>
        <time>2017-10-01T09:51:25.000Z</time>
      </trkpt>
      <trkpt lat="44.97907" lon="1.07593">
        <ele>217</ele>
        <time>2017-10-01T09:51:25.000Z</time>
      </trkpt>
      <trkpt lat="44.97907" lon="1.07593">
        <ele>217</ele>
        <time>2017-10-01T09:51:25.000Z</time>
      </trkpt>
      <trkpt lat="44.97907" lon="1.07593">
        <ele>217</ele>
        <time>2017-10-01T09:51:25.000Z</time>
      </trkpt>
      <trkpt lat="44.97907" lon="1.07593">
        <ele>217</ele>
        <time>2017-10-01T09:51:25.000Z</time>
      </trkpt>
      <trkpt lat="44.97907" lon="1.07593">
        <ele>217</ele>
        <time>2017-10-01T09:51:25.000Z</time>
      </trkpt>
      <trkpt lat="44.97907" lon="1.07593">
        <ele>217</ele>
        <time>2017-10-01T09:51:25.000Z</time>
      </trkpt>
      <trkpt lat="44.97907" lon="1.07593">
        <ele>217</ele>
        <time>2017-10-01T09:51:25.000Z</time>
      </trkpt>
      <trkpt lat="44.97907" lon="1.07593">
        <ele>217</ele>
        <time>2017-10-01T09:51:25.000Z</time>
      </trkpt>
      <trkpt lat="44.97907" lon="1.07593">
        <ele>217</ele>
        <time>2017-10-01T09:51:25.000Z</time>
      </trkpt>
      <trkpt lat="44.97907" lon="1.07593">
        <ele>217</ele>
        <time>2017-10-01T09:51:25.000Z</time>
      </trkpt>
      <trkpt lat="44.97907" lon="1.07593">
        <ele>217</ele>
        <time>2017-10-01T09:51:25.000Z</time>
      </trkpt>
      <trkpt lat="44.97907" lon="1.07593">
        <ele>217</ele>
        <time>2017-10-01T09:51:25.000Z</time>
      </trkpt>
      <trkpt lat="44.97907" lon="1.07593">
        <ele>217</ele>
        <time>2017-10-01T09:51:25.000Z</time>
      </trkpt>
      <trkpt lat="44.97907" lon="1.07593">
        <ele>217</ele>
        <time>2017-10-01T09:51:25.000Z</time>
      </trkpt>
      <trkpt lat="44.97907" lon="1.07593">
        <ele>217</ele>
        <time>2017-10-01T09:51:25.000Z</time>
      </trkpt>
      <trkpt lat="44.97907" lon="1.07593">
        <ele>217</ele>
        <time>2017-10-01T09:51:25.000Z</time>
      </trkpt>
      <trkpt lat="44.97907" lon="1.07593">
        <ele>217</ele>
        <time>2017-10-01T09:51:25.000Z</time>
      </trkpt>
      <trkpt lat="44.97907" lon="1.07593">
        <ele>217</ele>
        <time>2017-10-01T09:51:25.000Z</time>
      </trkpt>
      <trkpt lat="44.97907" lon="1.07593">
        <ele>217</ele>
        <time>2017-10-01T09:51:25.000Z</time>
      </trkpt>
      <trkpt lat="44.97907" lon="1.07593">
        <ele>217</ele>
        <time>2017-10-01T09:51:25.000Z</time>
      </trkpt>
      <trkpt lat="44.97907" lon="1.07593">
        <ele>217</ele>
        <time>2017-10-01T09:51:25.000Z</time>
      </trkpt>
      <trkpt lat="44.97907" lon="1.07593">
        <ele>217</ele>
        <time>2017-10-01T09:51:25.000Z</time>
      </trkpt>
      <trkpt lat="44.97907" lon="1.07593">
        <ele>217</ele>
        <time>2017-10-01T09:51:25.000Z</time>
      </trkpt>
      <trkpt lat="44.97907" lon="1.07593">
        <ele>217</ele>
        <time>2017-10-01T09:51:25.000Z</time>
      </trkpt>
      <trkpt lat="44.97907" lon="1.07593">
        <ele>217</ele>
        <time>2017-10-01T09:51:25.000Z</time>
      </trkpt>
      <trkpt lat="44.97907" lon="1.07593">
        <ele>217</ele>
        <time>2017-10-01T09:51:25.000Z</time>
      </trkpt>
      <trkpt lat="44.97907" lon="1.07593">
        <ele>217</ele>
        <time>2017-10-01T09:51:25.000Z</time>
      </trkpt>
      <trkpt lat="44.97907" lon="1.07593">
        <ele>217</ele>
        <time>2017-10-01T09:51:25.000Z</time>
      </trkpt>
      <trkpt lat="44.97907" lon="1.07593">
        <ele>217</ele>
        <time>2017-10-01T09:51:25.000Z</time>
      </trkpt>
      <trkpt lat="44.97907" lon="1.07593">
        <ele>217</ele>
        <time>2017-10-01T09:51:25.000Z</time>
      </trkpt>
      <trkpt lat="44.97907" lon="1.07593">
        <ele>217</ele>
        <time>2017-10-01T09:51:25.000Z</time>
      </trkpt>
      <trkpt lat="44.97907" lon="1.07593">
        <ele>217</ele>
        <time>2017-10-01T09:51:25.000Z</time>
      </trkpt>
      <trkpt lat="44.97907" lon="1.07593">
        <ele>217</ele>
        <time>2017-10-01T09:51:25.000Z</time>
      </trkpt>
      <trkpt lat="44.97907" lon="1.07593">
        <ele>217</ele>
        <time>2017-10-01T09:51:25.000Z</time>
      </trkpt>
      <trkpt lat="44.97907" lon="1.07593">
        <ele>217</ele>
        <time>2017-10-01T09:51:25.000Z</time>
      </trkpt>
      <trkpt lat="44.97907" lon="1.07593">
        <ele>217</ele>
        <time>2017-10-01T09:51:25.000Z</time>
      </trkpt>
      <trkpt lat="44.97907" lon="1.07593">
        <ele>217</ele>
        <time>2017-10-01T09:51:25.000Z</time>
      </trkpt>
      <trkpt lat="44.97907" lon="1.07593">
        <ele>217</ele>
        <time>2017-10-01T09:51:25.000Z</time>
      </trkpt>
      <trkpt lat="44.97907" lon="1.07593">
        <ele>217</ele>
        <time>2017-10-01T09:51:25.000Z</time>
      </trkpt>
      <trkpt lat="44.97907" lon="1.07593">
        <ele>217</ele>
        <time>2017-10-01T09:51:25.000Z</time>
      </trkpt>
      <trkpt lat="44.97907" lon="1.07593">
        <ele>217</ele>
        <time>2017-10-01T09:51:25.000Z</time>
      </trkpt>
      <trkpt lat="44.97907" lon="1.07593">
        <ele>217</ele>
        <time>2017-10-01T09:51:25.000Z</time>
      </trkpt>
      <trkpt lat="44.97907" lon="1.07593">
        <ele>217</ele>
        <time>2017-10-01T09:51:25.000Z</time>
      </trkpt>
      <trkpt lat="44.97907" lon="1.07593">
        <ele>217</ele>
        <time>2017-10-01T09:51:25.000Z</time>
      </trkpt>
      <trkpt lat="44.97907" lon="1.07593">
        <ele>217</ele>
        <time>2017-10-01T09:51:25.000Z</time>
      </trkpt>
      <trkpt lat="44.97907" lon="1.07593">
        <ele>217</ele>
        <time>2017-10-01T09:51:25.000Z</time>
      </trkpt>
      <trkpt lat="44.97907" lon="1.07593">
        <ele>217</ele>
        <time>2017-10-01T09:51:25.000Z</time>
      </trkpt>
      <trkpt lat="44.97907" lon="1.07593">
        <ele>217</ele>
        <time>2017-10-01T09:51:25.000Z</time>
      </trkpt>
      <trkpt lat="44.97907" lon="1.07593">
        <ele>217</ele>
        <time>2017-10-01T09:51:25.000Z</time>
      </trkpt>
      <trkpt lat="44.97907" lon="1.07593">
        <ele>217</ele>
        <time>2017-10-01T09:51:25.000Z</time>
      </trkpt>
      <trkpt lat="44.97907" lon="1.07593">
        <ele>217</ele>
        <time>2017-10-01T09:51:25.000Z</time>
      </trkpt>
      <trkpt lat="44.97907" lon="1.07593">
        <ele>217</ele>
        <time>2017-10-01T09:51:25.000Z</time>
      </trkpt>
      <trkpt lat="44.97907" lon="1.07593">
        <ele>217</ele>
        <time>2017-10-01T09:51:25.000Z</time>
      </trkpt>
      <trkpt lat="44.97907" lon="1.07593">
        <ele>217</ele>
        <time>2017-10-01T09:51:25.000Z</time>
      </trkpt>
      <trkpt lat="44.97907" lon="1.07593">
        <ele>217</ele>
        <time>2017-10-01T09:51:25.000Z</time>
      </trkpt>
      <trkpt lat="44.97907" lon="1.07593">
        <ele>217</ele>
        <time>2017-10-01T09:51:25.000Z</time>
      </trkpt>
      <trkpt lat="44.97907" lon="1.07593">
        <ele>217</ele>
        <time>2017-10-01T09:51:25.000Z</time>
      </trkpt>
      <trkpt lat="44.97907" lon="1.07593">
        <ele>217</ele>
        <time>2017-10-01T09:51:25.000Z</time>
      </trkpt>
      <trkpt lat="44.97907" lon="1.07593">
        <ele>217</ele>
        <time>2017-10-01T09:51:25.000Z</time>
      </trkpt>
      <trkpt lat="44.97907" lon="1.07593">
        <ele>217</ele>
        <time>2017-10-01T09:51:25.000Z</time>
      </trkpt>
      <trkpt lat="44.97907" lon="1.07593">
        <ele>217</ele>
        <time>2017-10-01T09:51:25.000Z</time>
      </trkpt>
      <trkpt lat="44.97907" lon="1.07593">
        <ele>217</ele>
        <time>2017-10-01T09:51:25.000Z</time>
      </trkpt>
      <trkpt lat="44.97907" lon="1.07593">
        <ele>217</ele>
        <time>2017-10-01T09:51:25.000Z</time>
      </trkpt>
      <trkpt lat="44.97907" lon="1.07593">
        <ele>217</ele>
        <time>2017-10-01T09:51:25.000Z</time>
      </trkpt>
      <trkpt lat="44.97907" lon="1.07593">
        <ele>217</ele>
        <time>2017-10-01T09:51:25.000Z</time>
      </trkpt>
      <trkpt lat="44.97907" lon="1.07593">
        <ele>217</ele>
        <time>2017-10-01T09:51:25.000Z</time>
      </trkpt>
      <trkpt lat="44.97907" lon="1.07593">
        <ele>217</ele>
        <time>2017-10-01T09:51:25.000Z</time>
      </trkpt>
      <trkpt lat="44.97907" lon="1.07593">
        <ele>217</ele>
        <time>2017-10-01T09:51:25.000Z</time>
      </trkpt>
      <trkpt lat="44.97907" lon="1.07593">
        <ele>217</ele>
        <time>2017-10-01T09:51:25.000Z</time>
      </trkpt>
      <trkpt lat="44.97907" lon="1.07593">
        <ele>217</ele>
        <time>2017-10-01T09:51:25.000Z</time>
      </trkpt>
      <trkpt lat="44.97907" lon="1.07593">
        <ele>217</ele>
        <time>2017-10-01T09:51:25.000Z</time>
      </trkpt>
      <trkpt lat="44.97907" lon="1.07593">
        <ele>217</ele>
        <time>2017-10-01T09:51:25.000Z</time>
      </trkpt>
      <trkpt lat="44.97907" lon="1.07593">
        <ele>217</ele>
        <time>2017-10-01T09:51:25.000Z</time>
      </trkpt>
      <trkpt lat="44.97907" lon="1.07593">
        <ele>217</ele>
        <time>2017-10-01T09:51:25.000Z</time>
      </trkpt>
      <trkpt lat="44.97907" lon="1.07593">
        <ele>217</ele>
        <time>2017-10-01T09:51:25.000Z</time>
      </trkpt>
      <trkpt lat="44.97907" lon="1.07593">
        <ele>217</ele>
        <time>2017-10-01T09:51:25.000Z</time>
      </trkpt>
      <trkpt lat="44.97907" lon="1.07593">
        <ele>217</ele>
        <time>2017-10-01T09:51:25.000Z</time>
      </trkpt>
      <trkpt lat="44.97907" lon="1.07593">
        <ele>217</ele>
        <time>2017-10-01T09:51:25.000Z</time>
      </trkpt>
      <trkpt lat="44.97907" lon="1.07593">
        <ele>217</ele>
        <time>2017-10-01T09:51:25.000Z</time>
      </trkpt>
      <trkpt lat="44.97907" lon="1.07593">
        <ele>217</ele>
        <time>2017-10-01T09:51:25.000Z</time>
      </trkpt>
      <trkpt lat="44.97907" lon="1.07593">
        <ele>217</ele>
        <time>2017-10-01T09:51:25.000Z</time>
      </trkpt>
      <trkpt lat="44.97907" lon="1.07593">
        <ele>217</ele>
        <time>2017-10-01T09:51:25.000Z</time>
      </trkpt>
      <trkpt lat="44.97907" lon="1.07593">
        <ele>217</ele>
        <time>2017-10-01T09:51:25.000Z</time>
      </trkpt>
      <trkpt lat="44.97907" lon="1.07593">
        <ele>217</ele>
        <time>2017-10-01T09:51:25.000Z</time>
      </trkpt>
      <trkpt lat="44.97907" lon="1.07593">
        <ele>217</ele>
        <time>2017-10-01T09:51:25.000Z</time>
      </trkpt>
      <trkpt lat="44.97907" lon="1.07593">
        <ele>217</ele>
        <time>2017-10-01T09:51:25.000Z</time>
      </trkpt>
      <trkpt lat="44.97907" lon="1.07593">
        <ele>217</ele>
        <time>2017-10-01T09:51:25.000Z</time>
      </trkpt>
      <trkpt lat="44.97907" lon="1.07593">
        <ele>217</ele>
        <time>2017-10-01T09:51:25.000Z</time>
      </trkpt>
      <trkpt lat="44.97907" lon="1.07593">
        <ele>217</ele>
        <time>2017-10-01T09:51:25.000Z</time>
      </trkpt>
      <trkpt lat="44.97907" lon="1.07593">
        <ele>217</ele>
        <time>2017-10-01T09:51:25.000Z</time>
      </trkpt>
      <trkpt lat="44.97907" lon="1.07593">
        <ele>217</ele>
        <time>2017-10-01T09:51:25.000Z</time>
      </trkpt>
      <trkpt lat="44.97907" lon="1.07593">
        <ele>217</ele>
        <time>2017-10-01T09:51:25.000Z</time>
      </trkpt>
      <trkpt lat="44.97907" lon="1.07593">
        <ele>217</ele>
        <time>2017-10-01T09:51:25.000Z</time>
      </trkpt>
      <trkpt lat="44.97907" lon="1.07593">
        <ele>217</ele>
        <time>2017-10-01T09:51:25.000Z</time>
      </trkpt>
      <trkpt lat="44.97907" lon="1.07593">
        <ele>217</ele>
        <time>2017-10-01T09:51:25.000Z</time>
      </trkpt>
      <trkpt lat="44.97907" lon="1.07593">
        <ele>217</ele>
        <time>2017-10-01T09:51:25.000Z</time>
      </trkpt>
      <trkpt lat="44.97907" lon="1.07593">
        <ele>217</ele>
        <time>2017-10-01T09:51:25.000Z</time>
      </trkpt>
      <trkpt lat="44.97907" lon="1.07593">
        <ele>217</ele>
        <time>2017-10-01T09:51:25.000Z</time>
      </trkpt>
      <trkpt lat="44.97907" lon="1.07593">
        <ele>217</ele>
        <time>2017-10-01T09:51:25.000Z</time>
      </trkpt>
      <trkpt lat="44.97907" lon="1.07593">
        <ele>217</ele>
        <time>2017-10-01T09:51:25.000Z</time>
      </trkpt>
      <trkpt lat="44.97907" lon="1.07593">
        <ele>217</ele>
        <time>2017-10-01T09:51:25.000Z</time>
      </trkpt>
      <trkpt lat="44.97907" lon="1.07593">
        <ele>217</ele>
        <time>2017-10-01T09:51:25.000Z</time>
      </trkpt>
      <trkpt lat="44.97907" lon="1.07593">
        <ele>217</ele>
        <time>2017-10-01T09:51:25.000Z</time>
      </trkpt>
      <trkpt lat="44.97907" lon="1.07593">
        <ele>217</ele>
        <time>2017-10-01T09:51:25.000Z</time>
      </trkpt>
      <trkpt lat="44.97907" lon="1.07593">
        <ele>217</ele>
        <time>2017-10-01T09:51:25.000Z</time>
      </trkpt>
      <trkpt lat="44.97907" lon="1.07593">
        <ele>217</ele>
        <time>2017-10-01T09:51:25.000Z</time>
      </trkpt>
      <trkpt lat="44.97907" lon="1.07593">
        <ele>217</ele>
        <time>2017-10-01T09:51:25.000Z</time>
      </trkpt>
      <trkpt lat="44.97907" lon="1.07593">
        <ele>217</ele>
        <time>2017-10-01T09:51:25.000Z</time>
      </trkpt>
      <trkpt lat="44.97907" lon="1.07593">
        <ele>217</ele>
        <time>2017-10-01T09:51:25.000Z</time>
      </trkpt>
      <trkpt lat="44.97907" lon="1.07593">
        <ele>217</ele>
        <time>2017-10-01T09:51:25.000Z</time>
      </trkpt>
      <trkpt lat="44.97907" lon="1.07593">
        <ele>217</ele>
        <time>2017-10-01T09:51:25.000Z</time>
      </trkpt>
      <trkpt lat="44.97907" lon="1.07593">
        <ele>217</ele>
        <time>2017-10-01T09:51:25.000Z</time>
      </trkpt>
      <trkpt lat="44.97907" lon="1.07593">
        <ele>217</ele>
        <time>2017-10-01T09:51:25.000Z</time>
      </trkpt>
      <trkpt lat="44.97907" lon="1.07593">
        <ele>217</ele>
        <time>2017-10-01T09:51:25.000Z</time>
      </trkpt>
      <trkpt lat="44.97907" lon="1.07593">
        <ele>217</ele>
        <time>2017-10-01T09:51:25.000Z</time>
      </trkpt>
      <trkpt lat="44.97907" lon="1.07593">
        <ele>217</ele>
        <time>2017-10-01T09:51:25.000Z</time>
      </trkpt>
      <trkpt lat="44.97907" lon="1.07593">
        <ele>217</ele>
        <time>2017-10-01T09:51:25.000Z</time>
      </trkpt>
      <trkpt lat="44.97907" lon="1.07593">
        <ele>217</ele>
        <time>2017-10-01T09:51:25.000Z</time>
      </trkpt>
      <trkpt lat="44.97907" lon="1.07593">
        <ele>217</ele>
        <time>2017-10-01T09:51:25.000Z</time>
      </trkpt>
      <trkpt lat="44.97907" lon="1.07593">
        <ele>217</ele>
        <time>2017-10-01T09:51:25.000Z</time>
      </trkpt>
      <trkpt lat="44.97907" lon="1.07593">
        <ele>217</ele>
        <time>2017-10-01T09:51:25.000Z</time>
      </trkpt>
      <trkpt lat="44.97907" lon="1.07593">
        <ele>217</ele>
        <time>2017-10-01T09:51:25.000Z</time>
      </trkpt>
      <trkpt lat="44.97907" lon="1.07593">
        <ele>217</ele>
        <time>2017-10-01T09:51:25.000Z</time>
      </trkpt>
      <trkpt lat="44.97907" lon="1.07593">
        <ele>217</ele>
        <time>2017-10-01T09:51:25.000Z</time>
      </trkpt>
      <trkpt lat="44.97907" lon="1.07593">
        <ele>217</ele>
        <time>2017-10-01T09:51:25.000Z</time>
      </trkpt>
      <trkpt lat="44.97907" lon="1.07593">
        <ele>217</ele>
        <time>2017-10-01T09:51:25.000Z</time>
      </trkpt>
      <trkpt lat="44.97907" lon="1.07593">
        <ele>217</ele>
        <time>2017-10-01T09:51:25.000Z</time>
      </trkpt>
      <trkpt lat="44.97907" lon="1.07593">
        <ele>217</ele>
        <time>2017-10-01T09:51:25.000Z</time>
      </trkpt>
      <trkpt lat="44.97907" lon="1.07593">
        <ele>217</ele>
        <time>2017-10-01T09:51:25.000Z</time>
      </trkpt>
      <trkpt lat="44.97907" lon="1.07593">
        <ele>217</ele>
        <time>2017-10-01T09:51:25.000Z</time>
      </trkpt>
      <trkpt lat="44.97907" lon="1.07593">
        <ele>217</ele>
        <time>2017-10-01T09:51:25.000Z</time>
      </trkpt>
      <trkpt lat="44.97907" lon="1.07593">
        <ele>217</ele>
        <time>2017-10-01T09:51:25.000Z</time>
      </trkpt>
      <trkpt lat="44.97907" lon="1.07593">
        <ele>217</ele>
        <time>2017-10-01T09:51:25.000Z</time>
      </trkpt>
      <trkpt lat="44.97907" lon="1.07593">
        <ele>217</ele>
        <time>2017-10-01T09:51:25.000Z</time>
      </trkpt>
      <trkpt lat="44.97907" lon="1.07593">
        <ele>217</ele>
        <time>2017-10-01T09:51:25.000Z</time>
      </trkpt>
      <trkpt lat="44.97907" lon="1.07593">
        <ele>217</ele>
        <time>2017-10-01T09:51:25.000Z</time>
      </trkpt>
      <trkpt lat="44.97907" lon="1.07593">
        <ele>217</ele>
        <time>2017-10-01T09:51:25.000Z</time>
      </trkpt>
      <trkpt lat="44.97907" lon="1.07593">
        <ele>217</ele>
        <time>2017-10-01T09:51:25.000Z</time>
      </trkpt>
      <trkpt lat="44.97907" lon="1.07593">
        <ele>217</ele>
        <time>2017-10-01T09:51:25.000Z</time>
      </trkpt>
      <trkpt lat="44.97907" lon="1.07593">
        <ele>217</ele>
        <time>2017-10-01T09:51:25.000Z</time>
      </trkpt>
      <trkpt lat="44.97907" lon="1.07593">
        <ele>217</ele>
        <time>2017-10-01T09:51:25.000Z</time>
      </trkpt>
      <trkpt lat="44.97907" lon="1.07593">
        <ele>217</ele>
        <time>2017-10-01T09:51:25.000Z</time>
      </trkpt>
      <trkpt lat="44.97907" lon="1.07593">
        <ele>217</ele>
        <time>2017-10-01T09:51:25.000Z</time>
      </trkpt>
      <trkpt lat="44.97907" lon="1.07593">
        <ele>217</ele>
        <time>2017-10-01T09:51:25.000Z</time>
      </trkpt>
      <trkpt lat="44.97907" lon="1.07593">
        <ele>217</ele>
        <time>2017-10-01T09:51:25.000Z</time>
      </trkpt>
      <trkpt lat="44.97907" lon="1.07593">
        <ele>217</ele>
        <time>2017-10-01T09:51:25.000Z</time>
      </trkpt>
      <trkpt lat="44.97907" lon="1.07593">
        <ele>217</ele>
        <time>2017-10-01T09:51:25.000Z</time>
      </trkpt>
      <trkpt lat="44.97907" lon="1.07593">
        <ele>217</ele>
        <time>2017-10-01T09:51:25.000Z</time>
      </trkpt>
      <trkpt lat="44.97907" lon="1.07593">
        <ele>217</ele>
        <time>2017-10-01T09:51:25.000Z</time>
      </trkpt>
      <trkpt lat="44.97907" lon="1.07593">
        <ele>217</ele>
        <time>2017-10-01T09:51:25.000Z</time>
      </trkpt>
      <trkpt lat="44.97907" lon="1.07593">
        <ele>217</ele>
        <time>2017-10-01T09:51:25.000Z</time>
      </trkpt>
      <trkpt lat="44.97907" lon="1.07593">
        <ele>217</ele>
        <time>2017-10-01T09:51:25.000Z</time>
      </trkpt>
      <trkpt lat="44.97907" lon="1.07593">
        <ele>217</ele>
        <time>2017-10-01T09:51:25.000Z</time>
      </trkpt>
      <trkpt lat="44.97907" lon="1.07593">
        <ele>217</ele>
        <time>2017-10-01T09:51:25.000Z</time>
      </trkpt>
      <trkpt lat="44.97907" lon="1.07593">
        <ele>217</ele>
        <time>2017-10-01T09:51:25.000Z</time>
      </trkpt>
      <trkpt lat="44.97907" lon="1.07593">
        <ele>217</ele>
        <time>2017-10-01T09:51:25.000Z</time>
      </trkpt>
      <trkpt lat="44.97907" lon="1.07593">
        <ele>217</ele>
        <time>2017-10-01T09:51:25.000Z</time>
      </trkpt>
      <trkpt lat="44.97907" lon="1.07593">
        <ele>217</ele>
        <time>2017-10-01T09:51:25.000Z</time>
      </trkpt>
      <trkpt lat="44.97907" lon="1.07593">
        <ele>217</ele>
        <time>2017-10-01T09:51:25.000Z</time>
      </trkpt>
      <trkpt lat="44.97907" lon="1.07593">
        <ele>217</ele>
        <time>2017-10-01T09:51:25.000Z</time>
      </trkpt>
      <trkpt lat="44.97907" lon="1.07593">
        <ele>217</ele>
        <time>2017-10-01T09:51:25.000Z</time>
      </trkpt>
      <trkpt lat="44.97907" lon="1.07593">
        <ele>217</ele>
        <time>2017-10-01T09:51:25.000Z</time>
      </trkpt>
      <trkpt lat="44.97907" lon="1.07593">
        <ele>217</ele>
        <time>2017-10-01T09:51:25.000Z</time>
      </trkpt>
      <trkpt lat="44.97907" lon="1.07593">
        <ele>217</ele>
        <time>2017-10-01T09:51:25.000Z</time>
      </trkpt>
      <trkpt lat="44.97907" lon="1.07593">
        <ele>217</ele>
        <time>2017-10-01T09:51:25.000Z</time>
      </trkpt>
      <trkpt lat="44.97907" lon="1.07593">
        <ele>217</ele>
        <time>2017-10-01T09:51:25.000Z</time>
      </trkpt>
      <trkpt lat="44.97907" lon="1.07593">
        <ele>217</ele>
        <time>2017-10-01T09:51:25.000Z</time>
      </trkpt>
      <trkpt lat="44.97907" lon="1.07593">
        <ele>217</ele>
        <time>2017-10-01T09:51:25.000Z</time>
      </trkpt>
      <trkpt lat="44.97907" lon="1.07593">
        <ele>217</ele>
        <time>2017-10-01T09:51:25.000Z</time>
      </trkpt>
      <trkpt lat="44.97907" lon="1.07593">
        <ele>217</ele>
        <time>2017-10-01T09:51:25.000Z</time>
      </trkpt>
      <trkpt lat="44.97907" lon="1.07593">
        <ele>217</ele>
        <time>2017-10-01T09:51:25.000Z</time>
      </trkpt>
      <trkpt lat="44.97907" lon="1.07593">
        <ele>217</ele>
        <time>2017-10-01T09:51:25.000Z</time>
      </trkpt>
      <trkpt lat="44.97907" lon="1.07593">
        <ele>217</ele>
        <time>2017-10-01T09:51:25.000Z</time>
      </trkpt>
      <trkpt lat="44.97907" lon="1.07593">
        <ele>217</ele>
        <time>2017-10-01T09:51:25.000Z</time>
      </trkpt>
      <trkpt lat="44.97907" lon="1.07593">
        <ele>217</ele>
        <time>2017-10-01T09:51:25.000Z</time>
      </trkpt>
      <trkpt lat="44.97907" lon="1.07593">
        <ele>217</ele>
        <time>2017-10-01T09:51:25.000Z</time>
      </trkpt>
      <trkpt lat="44.97907" lon="1.07593">
        <ele>217</ele>
        <time>2017-10-01T09:51:25.000Z</time>
      </trkpt>
      <trkpt lat="44.97907" lon="1.07593">
        <ele>217</ele>
        <time>2017-10-01T09:51:25.000Z</time>
      </trkpt>
      <trkpt lat="44.97907" lon="1.07593">
        <ele>217</ele>
        <time>2017-10-01T09:51:25.000Z</time>
      </trkpt>
      <trkpt lat="44.97907" lon="1.07593">
        <ele>217</ele>
        <time>2017-10-01T09:51:25.000Z</time>
      </trkpt>
      <trkpt lat="44.97907" lon="1.07593">
        <ele>217</ele>
        <time>2017-10-01T09:51:25.000Z</time>
      </trkpt>
      <trkpt lat="44.97907" lon="1.07593">
        <ele>217</ele>
        <time>2017-10-01T09:51:25.000Z</time>
      </trkpt>
      <trkpt lat="44.97907" lon="1.07593">
        <ele>217</ele>
        <time>2017-10-01T09:51:25.000Z</time>
      </trkpt>
      <trkpt lat="44.97907" lon="1.07593">
        <ele>217</ele>
        <time>2017-10-01T09:51:25.000Z</time>
      </trkpt>
      <trkpt lat="44.97907" lon="1.07593">
        <ele>217</ele>
        <time>2017-10-01T09:51:25.000Z</time>
      </trkpt>
      <trkpt lat="44.97907" lon="1.07593">
        <ele>217</ele>
        <time>2017-10-01T09:51:25.000Z</time>
      </trkpt>
      <trkpt lat="44.97907" lon="1.07593">
        <ele>217</ele>
        <time>2017-10-01T09:51:25.000Z</time>
      </trkpt>
      <trkpt lat="44.97907" lon="1.07593">
        <ele>217</ele>
        <time>2017-10-01T09:51:25.000Z</time>
      </trkpt>
      <trkpt lat="44.97907" lon="1.07593">
        <ele>217</ele>
        <time>2017-10-01T09:51:25.000Z</time>
      </trkpt>
      <trkpt lat="44.97907" lon="1.07593">
        <ele>217</ele>
        <time>2017-10-01T09:51:25.000Z</time>
      </trkpt>
      <trkpt lat="44.97907" lon="1.07593">
        <ele>217</ele>
        <time>2017-10-01T09:51:25.000Z</time>
      </trkpt>
      <trkpt lat="44.97907" lon="1.07593">
        <ele>217</ele>
        <time>2017-10-01T09:51:25.000Z</time>
      </trkpt>
      <trkpt lat="44.97907" lon="1.07593">
        <ele>217</ele>
        <time>2017-10-01T09:51:25.000Z</time>
      </trkpt>
      <trkpt lat="44.97907" lon="1.07593">
        <ele>217</ele>
        <time>2017-10-01T09:51:25.000Z</time>
      </trkpt>
      <trkpt lat="44.97907" lon="1.07593">
        <ele>217</ele>
        <time>2017-10-01T09:51:25.000Z</time>
      </trkpt>
      <trkpt lat="44.97907" lon="1.07593">
        <ele>217</ele>
        <time>2017-10-01T09:51:25.000Z</time>
      </trkpt>
      <trkpt lat="44.97907" lon="1.07593">
        <ele>217</ele>
        <time>2017-10-01T09:51:25.000Z</time>
      </trkpt>
      <trkpt lat="44.97907" lon="1.07593">
        <ele>217</ele>
        <time>2017-10-01T09:51:25.000Z</time>
      </trkpt>
      <trkpt lat="44.97907" lon="1.07593">
        <ele>217</ele>
        <time>2017-10-01T09:51:25.000Z</time>
      </trkpt>
      <trkpt lat="44.97907" lon="1.07593">
        <ele>217</ele>
        <time>2017-10-01T09:51:25.000Z</time>
      </trkpt>
      <trkpt lat="44.97907" lon="1.07593">
        <ele>217</ele>
        <time>2017-10-01T09:51:25.000Z</time>
      </trkpt>
      <trkpt lat="44.97907" lon="1.07593">
        <ele>217</ele>
        <time>2017-10-01T09:51:25.000Z</time>
      </trkpt>
      <trkpt lat="44.97907" lon="1.07593">
        <ele>217</ele>
        <time>2017-10-01T09:51:25.000Z</time>
      </trkpt>
      <trkpt lat="44.97907" lon="1.07593">
        <ele>217</ele>
        <time>2017-10-01T09:51:25.000Z</time>
      </trkpt>
      <trkpt lat="44.97907" lon="1.07593">
        <ele>217</ele>
        <time>2017-10-01T09:51:25.000Z</time>
      </trkpt>
      <trkpt lat="44.97907" lon="1.07593">
        <ele>217</ele>
        <time>2017-10-01T09:51:25.000Z</time>
      </trkpt>
      <trkpt lat="44.97907" lon="1.07593">
        <ele>217</ele>
        <time>2017-10-01T09:51:25.000Z</time>
      </trkpt>
      <trkpt lat="44.97907" lon="1.07593">
        <ele>217</ele>
        <time>2017-10-01T09:51:25.000Z</time>
      </trkpt>
      <trkpt lat="44.97907" lon="1.07593">
        <ele>217</ele>
        <time>2017-10-01T09:51:25.000Z</time>
      </trkpt>
      <trkpt lat="44.97907" lon="1.07593">
        <ele>217</ele>
        <time>2017-10-01T09:51:25.000Z</time>
      </trkpt>
      <trkpt lat="44.97907" lon="1.07593">
        <ele>217</ele>
        <time>2017-10-01T09:51:25.000Z</time>
      </trkpt>
      <trkpt lat="44.97907" lon="1.07593">
        <ele>217</ele>
        <time>2017-10-01T09:51:25.000Z</time>
      </trkpt>
      <trkpt lat="44.97907" lon="1.07593">
        <ele>217</ele>
        <time>2017-10-01T09:51:25.000Z</time>
      </trkpt>
      <trkpt lat="44.97907" lon="1.07593">
        <ele>217</ele>
        <time>2017-10-01T09:51:25.000Z</time>
      </trkpt>
      <trkpt lat="44.97907" lon="1.07593">
        <ele>217</ele>
        <time>2017-10-01T09:51:25.000Z</time>
      </trkpt>
      <trkpt lat="44.97907" lon="1.07593">
        <ele>217</ele>
        <time>2017-10-01T09:51:25.000Z</time>
      </trkpt>
      <trkpt lat="44.97907" lon="1.07593">
        <ele>217</ele>
        <time>2017-10-01T09:51:25.000Z</time>
      </trkpt>
      <trkpt lat="44.97907" lon="1.07593">
        <ele>217</ele>
        <time>2017-10-01T09:51:25.000Z</time>
      </trkpt>
      <trkpt lat="44.97907" lon="1.07593">
        <ele>217</ele>
        <time>2017-10-01T09:51:25.000Z</time>
      </trkpt>
      <trkpt lat="44.97907" lon="1.07593">
        <ele>217</ele>
        <time>2017-10-01T09:51:25.000Z</time>
      </trkpt>
      <trkpt lat="44.97907" lon="1.07593">
        <ele>217</ele>
        <time>2017-10-01T09:51:25.000Z</time>
      </trkpt>
      <trkpt lat="44.97907" lon="1.07593">
        <ele>217</ele>
        <time>2017-10-01T09:51:25.000Z</time>
      </trkpt>
      <trkpt lat="44.97907" lon="1.07593">
        <ele>217</ele>
        <time>2017-10-01T09:51:25.000Z</time>
      </trkpt>
      <trkpt lat="44.97907" lon="1.07593">
        <ele>217</ele>
        <time>2017-10-01T09:51:25.000Z</time>
      </trkpt>
      <trkpt lat="44.97907" lon="1.07593">
        <ele>217</ele>
        <time>2017-10-01T09:51:25.000Z</time>
      </trkpt>
      <trkpt lat="44.97907" lon="1.07593">
        <ele>217</ele>
        <time>2017-10-01T09:51:25.000Z</time>
      </trkpt>
      <trkpt lat="44.97907" lon="1.07593">
        <ele>217</ele>
        <time>2017-10-01T09:51:25.000Z</time>
      </trkpt>
      <trkpt lat="44.97907" lon="1.07593">
        <ele>217</ele>
        <time>2017-10-01T09:51:25.000Z</time>
      </trkpt>
      <trkpt lat="44.97907" lon="1.07593">
        <ele>217</ele>
        <time>2017-10-01T09:51:25.000Z</time>
      </trkpt>
      <trkpt lat="44.97907" lon="1.07593">
        <ele>217</ele>
        <time>2017-10-01T09:51:25.000Z</time>
      </trkpt>
      <trkpt lat="44.97907" lon="1.07593">
        <ele>217</ele>
        <time>2017-10-01T09:51:25.000Z</time>
      </trkpt>
      <trkpt lat="44.97907" lon="1.07593">
        <ele>217</ele>
        <time>2017-10-01T09:51:25.000Z</time>
      </trkpt>
      <trkpt lat="44.97907" lon="1.07593">
        <ele>217</ele>
        <time>2017-10-01T09:51:25.000Z</time>
      </trkpt>
      <trkpt lat="44.97907" lon="1.07593">
        <ele>217</ele>
        <time>2017-10-01T09:51:25.000Z</time>
      </trkpt>
      <trkpt lat="44.97907" lon="1.07593">
        <ele>217</ele>
        <time>2017-10-01T09:51:25.000Z</time>
      </trkpt>
      <trkpt lat="44.97907" lon="1.07593">
        <ele>217</ele>
        <time>2017-10-01T09:51:25.000Z</time>
      </trkpt>
      <trkpt lat="44.97907" lon="1.07593">
        <ele>217</ele>
        <time>2017-10-01T09:51:25.000Z</time>
      </trkpt>
      <trkpt lat="44.97907" lon="1.07593">
        <ele>217</ele>
        <time>2017-10-01T09:51:25.000Z</time>
      </trkpt>
      <trkpt lat="44.97907" lon="1.07593">
        <ele>217</ele>
        <time>2017-10-01T09:51:25.000Z</time>
      </trkpt>
      <trkpt lat="44.97907" lon="1.07593">
        <ele>217</ele>
        <time>2017-10-01T09:51:25.000Z</time>
      </trkpt>
      <trkpt lat="44.97907" lon="1.07593">
        <ele>217</ele>
        <time>2017-10-01T09:51:25.000Z</time>
      </trkpt>
      <trkpt lat="44.97907" lon="1.07593">
        <ele>217</ele>
        <time>2017-10-01T09:51:25.000Z</time>
      </trkpt>
      <trkpt lat="44.97907" lon="1.07593">
        <ele>217</ele>
        <time>2017-10-01T09:51:25.000Z</time>
      </trkpt>
      <trkpt lat="44.97907" lon="1.07593">
        <ele>217</ele>
        <time>2017-10-01T09:51:25.000Z</time>
      </trkpt>
      <trkpt lat="44.97907" lon="1.07593">
        <ele>217</ele>
        <time>2017-10-01T09:51:25.000Z</time>
      </trkpt>
      <trkpt lat="44.97907" lon="1.07593">
        <ele>217</ele>
        <time>2017-10-01T09:51:25.000Z</time>
      </trkpt>
      <trkpt lat="44.97907" lon="1.07593">
        <ele>217</ele>
        <time>2017-10-01T09:51:25.000Z</time>
      </trkpt>
      <trkpt lat="44.97907" lon="1.07593">
        <ele>217</ele>
        <time>2017-10-01T09:51:25.000Z</time>
      </trkpt>
      <trkpt lat="44.97907" lon="1.07593">
        <ele>217</ele>
        <time>2017-10-01T09:51:25.000Z</time>
      </trkpt>
      <trkpt lat="44.97907" lon="1.07593">
        <ele>217</ele>
        <time>2017-10-01T09:51:25.000Z</time>
      </trkpt>
      <trkpt lat="44.97907" lon="1.07593">
        <ele>217</ele>
        <time>2017-10-01T09:51:25.000Z</time>
      </trkpt>
      <trkpt lat="44.97907" lon="1.07593">
        <ele>217</ele>
        <time>2017-10-01T09:51:25.000Z</time>
      </trkpt>
      <trkpt lat="44.97907" lon="1.07593">
        <ele>217</ele>
        <time>2017-10-01T09:51:25.000Z</time>
      </trkpt>
      <trkpt lat="44.97907" lon="1.07593">
        <ele>217</ele>
        <time>2017-10-01T09:51:25.000Z</time>
      </trkpt>
      <trkpt lat="44.97907" lon="1.07593">
        <ele>217</ele>
        <time>2017-10-01T09:51:25.000Z</time>
      </trkpt>
      <trkpt lat="44.97907" lon="1.07593">
        <ele>217</ele>
        <time>2017-10-01T09:51:25.000Z</time>
      </trkpt>
      <trkpt lat="44.97907" lon="1.07593">
        <ele>217</ele>
        <time>2017-10-01T09:51:25.000Z</time>
      </trkpt>
      <trkpt lat="44.97907" lon="1.07593">
        <ele>217</ele>
        <time>2017-10-01T09:51:25.000Z</time>
      </trkpt>
      <trkpt lat="44.97907" lon="1.07593">
        <ele>217</ele>
        <time>2017-10-01T09:51:25.000Z</time>
      </trkpt>
      <trkpt lat="44.97907" lon="1.07593">
        <ele>217</ele>
        <time>2017-10-01T09:51:25.000Z</time>
      </trkpt>
      <trkpt lat="44.97907" lon="1.07593">
        <ele>217</ele>
        <time>2017-10-01T09:51:25.000Z</time>
      </trkpt>
      <trkpt lat="44.97907" lon="1.07593">
        <ele>217</ele>
        <time>2017-10-01T09:51:25.000Z</time>
      </trkpt>
      <trkpt lat="44.97907" lon="1.07593">
        <ele>217</ele>
        <time>2017-10-01T09:51:25.000Z</time>
      </trkpt>
      <trkpt lat="44.97907" lon="1.07593">
        <ele>217</ele>
        <time>2017-10-01T09:51:25.000Z</time>
      </trkpt>
      <trkpt lat="44.97907" lon="1.07593">
        <ele>217</ele>
        <time>2017-10-01T09:51:25.000Z</time>
      </trkpt>
      <trkpt lat="44.97907" lon="1.07593">
        <ele>217</ele>
        <time>2017-10-01T09:51:25.000Z</time>
      </trkpt>
      <trkpt lat="44.97907" lon="1.07593">
        <ele>217</ele>
        <time>2017-10-01T09:51:25.000Z</time>
      </trkpt>
      <trkpt lat="44.97907" lon="1.07593">
        <ele>217</ele>
        <time>2017-10-01T09:51:25.000Z</time>
      </trkpt>
      <trkpt lat="44.97907" lon="1.07593">
        <ele>217</ele>
        <time>2017-10-01T09:51:25.000Z</time>
      </trkpt>
      <trkpt lat="44.97907" lon="1.07593">
        <ele>217</ele>
        <time>2017-10-01T09:51:25.000Z</time>
      </trkpt>
      <trkpt lat="44.97907" lon="1.07593">
        <ele>217</ele>
        <time>2017-10-01T09:51:25.000Z</time>
      </trkpt>
      <trkpt lat="44.97907" lon="1.07593">
        <ele>217</ele>
        <time>2017-10-01T09:51:25.000Z</time>
      </trkpt>
      <trkpt lat="44.97907" lon="1.07593">
        <ele>217</ele>
        <time>2017-10-01T09:51:25.000Z</time>
      </trkpt>
      <trkpt lat="44.97907" lon="1.07593">
        <ele>217</ele>
        <time>2017-10-01T09:51:25.000Z</time>
      </trkpt>
      <trkpt lat="44.97907" lon="1.07593">
        <ele>217</ele>
        <time>2017-10-01T09:51:25.000Z</time>
      </trkpt>
      <trkpt lat="44.97907" lon="1.07593">
        <ele>217</ele>
        <time>2017-10-01T09:51:25.000Z</time>
      </trkpt>
      <trkpt lat="44.97907" lon="1.07593">
        <ele>217</ele>
        <time>2017-10-01T09:51:25.000Z</time>
      </trkpt>
      <trkpt lat="44.97907" lon="1.07593">
        <ele>217</ele>
        <time>2017-10-01T09:51:25.000Z</time>
      </trkpt>
      <trkpt lat="44.97907" lon="1.07593">
        <ele>217</ele>
        <time>2017-10-01T09:51:25.000Z</time>
      </trkpt>
      <trkpt lat="44.97907" lon="1.07593">
        <ele>217</ele>
        <time>2017-10-01T09:51:25.000Z</time>
      </trkpt>
      <trkpt lat="44.97907" lon="1.07593">
        <ele>217</ele>
        <time>2017-10-01T09:51:25.000Z</time>
      </trkpt>
      <trkpt lat="44.97907" lon="1.07593">
        <ele>217</ele>
        <time>2017-10-01T09:51:25.000Z</time>
      </trkpt>
      <trkpt lat="44.97907" lon="1.07593">
        <ele>217</ele>
        <time>2017-10-01T09:51:25.000Z</time>
      </trkpt>
      <trkpt lat="44.97907" lon="1.07593">
        <ele>217</ele>
        <time>2017-10-01T09:51:25.000Z</time>
      </trkpt>
      <trkpt lat="44.97907" lon="1.07593">
        <ele>217</ele>
        <time>2017-10-01T09:51:25.000Z</time>
      </trkpt>
      <trkpt lat="44.97907" lon="1.07593">
        <ele>217</ele>
        <time>2017-10-01T09:51:25.000Z</time>
      </trkpt>
      <trkpt lat="44.97907" lon="1.07593">
        <ele>217</ele>
        <time>2017-10-01T09:51:25.000Z</time>
      </trkpt>
      <trkpt lat="44.97907" lon="1.07593">
        <ele>217</ele>
        <time>2017-10-01T09:51:25.000Z</time>
      </trkpt>
      <trkpt lat="44.97907" lon="1.07593">
        <ele>217</ele>
        <time>2017-10-01T09:51:25.000Z</time>
      </trkpt>
      <trkpt lat="44.97907" lon="1.07593">
        <ele>217</ele>
        <time>2017-10-01T09:51:25.000Z</time>
      </trkpt>
      <trkpt lat="44.97907" lon="1.07593">
        <ele>217</ele>
        <time>2017-10-01T09:51:25.000Z</time>
      </trkpt>
      <trkpt lat="44.97907" lon="1.07593">
        <ele>217</ele>
        <time>2017-10-01T09:51:25.000Z</time>
      </trkpt>
      <trkpt lat="44.97907" lon="1.07593">
        <ele>217</ele>
        <time>2017-10-01T09:51:25.000Z</time>
      </trkpt>
      <trkpt lat="44.97907" lon="1.07593">
        <ele>217</ele>
        <time>2017-10-01T09:51:25.000Z</time>
      </trkpt>
      <trkpt lat="44.97907" lon="1.07593">
        <ele>217</ele>
        <time>2017-10-01T09:51:25.000Z</time>
      </trkpt>
      <trkpt lat="44.97907" lon="1.07593">
        <ele>217</ele>
        <time>2017-10-01T09:51:25.000Z</time>
      </trkpt>
      <trkpt lat="44.97907" lon="1.07593">
        <ele>217</ele>
        <time>2017-10-01T09:51:25.000Z</time>
      </trkpt>
      <trkpt lat="44.97907" lon="1.07593">
        <ele>217</ele>
        <time>2017-10-01T09:51:25.000Z</time>
      </trkpt>
      <trkpt lat="44.97907" lon="1.07593">
        <ele>217</ele>
        <time>2017-10-01T09:51:25.000Z</time>
      </trkpt>
      <trkpt lat="44.97907" lon="1.07593">
        <ele>217</ele>
        <time>2017-10-01T09:51:25.000Z</time>
      </trkpt>
      <trkpt lat="44.97907" lon="1.07593">
        <ele>217</ele>
        <time>2017-10-01T09:51:25.000Z</time>
      </trkpt>
      <trkpt lat="44.97907" lon="1.07593">
        <ele>217</ele>
        <time>2017-10-01T09:51:25.000Z</time>
      </trkpt>
      <trkpt lat="44.97907" lon="1.07593">
        <ele>217</ele>
        <time>2017-10-01T09:51:25.000Z</time>
      </trkpt>
      <trkpt lat="44.97907" lon="1.07593">
        <ele>217</ele>
        <time>2017-10-01T09:51:25.000Z</time>
      </trkpt>
      <trkpt lat="44.97907" lon="1.07593">
        <ele>217</ele>
        <time>2017-10-01T09:51:25.000Z</time>
      </trkpt>
      <trkpt lat="44.97907" lon="1.07593">
        <ele>217</ele>
        <time>2017-10-01T09:51:25.000Z</time>
      </trkpt>
      <trkpt lat="44.97907" lon="1.07593">
        <ele>217</ele>
        <time>2017-10-01T09:51:25.000Z</time>
      </trkpt>
      <trkpt lat="44.97907" lon="1.07593">
        <ele>217</ele>
        <time>2017-10-01T09:51:25.000Z</time>
      </trkpt>
      <trkpt lat="44.97907" lon="1.07593">
        <ele>217</ele>
        <time>2017-10-01T09:51:25.000Z</time>
      </trkpt>
      <trkpt lat="44.97907" lon="1.07593">
        <ele>217</ele>
        <time>2017-10-01T09:51:25.000Z</time>
      </trkpt>
      <trkpt lat="44.97907" lon="1.07593">
        <ele>217</ele>
        <time>2017-10-01T09:51:25.000Z</time>
      </trkpt>
      <trkpt lat="44.97907" lon="1.07593">
        <ele>217</ele>
        <time>2017-10-01T09:51:25.000Z</time>
      </trkpt>
      <trkpt lat="44.97907" lon="1.07593">
        <ele>217</ele>
        <time>2017-10-01T09:51:25.000Z</time>
      </trkpt>
      <trkpt lat="44.97907" lon="1.07593">
        <ele>217</ele>
        <time>2017-10-01T09:51:25.000Z</time>
      </trkpt>
      <trkpt lat="44.97907" lon="1.07593">
        <ele>217</ele>
        <time>2017-10-01T09:51:25.000Z</time>
      </trkpt>
      <trkpt lat="44.97907" lon="1.07593">
        <ele>217</ele>
        <time>2017-10-01T09:51:25.000Z</time>
      </trkpt>
      <trkpt lat="44.97907" lon="1.07593">
        <ele>217</ele>
        <time>2017-10-01T09:51:25.000Z</time>
      </trkpt>
      <trkpt lat="44.97907" lon="1.07593">
        <ele>217</ele>
        <time>2017-10-01T09:51:25.000Z</time>
      </trkpt>
      <trkpt lat="44.97907" lon="1.07593">
        <ele>217</ele>
        <time>2017-10-01T09:51:25.000Z</time>
      </trkpt>
      <trkpt lat="44.97907" lon="1.07593">
        <ele>217</ele>
        <time>2017-10-01T09:51:25.000Z</time>
      </trkpt>
      <trkpt lat="44.97907" lon="1.07593">
        <ele>217</ele>
        <time>2017-10-01T09:51:25.000Z</time>
      </trkpt>
      <trkpt lat="44.97907" lon="1.07593">
        <ele>217</ele>
        <time>2017-10-01T09:51:25.000Z</time>
      </trkpt>
      <trkpt lat="44.97907" lon="1.07594">
        <ele>217</ele>
        <time>2017-10-01T09:51:25.000Z</time>
      </trkpt>
      <trkpt lat="44.97907" lon="1.07594">
        <ele>217</ele>
        <time>2017-10-01T09:51:25.000Z</time>
      </trkpt>
      <trkpt lat="44.97907" lon="1.07594">
        <ele>217</ele>
        <time>2017-10-01T09:51:25.000Z</time>
      </trkpt>
      <trkpt lat="44.97907" lon="1.07594">
        <ele>217</ele>
        <time>2017-10-01T09:51:28.000Z</time>
      </trkpt>
      <trkpt lat="44.97907" lon="1.07594">
        <ele>217</ele>
        <time>2017-10-01T09:51:28.000Z</time>
      </trkpt>
      <trkpt lat="44.97907" lon="1.07594">
        <ele>217</ele>
        <time>2017-10-01T09:51:28.000Z</time>
      </trkpt>
      <trkpt lat="44.97907" lon="1.07595">
        <ele>217</ele>
        <time>2017-10-01T09:51:29.000Z</time>
      </trkpt>
      <trkpt lat="44.97907" lon="1.07597">
        <ele>217</ele>
        <time>2017-10-01T09:51:30.000Z</time>
      </trkpt>
      <trkpt lat="44.97907" lon="1.07598">
        <ele>217</ele>
        <time>2017-10-01T09:51:31.000Z</time>
      </trkpt>
      <trkpt lat="44.97907" lon="1.07599">
        <ele>217</ele>
        <time>2017-10-01T09:51:32.000Z</time>
      </trkpt>
      <trkpt lat="44.97907" lon="1.076">
        <ele>217</ele>
        <time>2017-10-01T09:51:36.000Z</time>
      </trkpt>
      <trkpt lat="44.97907" lon="1.076">
        <ele>217</ele>
        <time>2017-10-01T09:51:36.000Z</time>
      </trkpt>
      <trkpt lat="44.97907" lon="1.076">
        <ele>217</ele>
        <time>2017-10-01T09:51:36.000Z</time>
      </trkpt>
      <trkpt lat="44.97907" lon="1.076">
        <ele>217</ele>
        <time>2017-10-01T09:51:36.000Z</time>
      </trkpt>
      <trkpt lat="44.97907" lon="1.07601">
        <ele>217</ele>
        <time>2017-10-01T09:51:37.000Z</time>
      </trkpt>
      <trkpt lat="44.97907" lon="1.07602">
        <ele>217</ele>
        <time>2017-10-01T09:51:38.000Z</time>
      </trkpt>
      <trkpt lat="44.97906" lon="1.07605">
        <ele>217</ele>
        <time>2017-10-01T09:51:39.000Z</time>
      </trkpt>
      <trkpt lat="44.97905" lon="1.07608">
        <ele>217</ele>
        <time>2017-10-01T09:51:40.000Z</time>
      </trkpt>
      <trkpt lat="44.97905" lon="1.07611">
        <ele>217</ele>
        <time>2017-10-01T09:51:41.000Z</time>
      </trkpt>
      <trkpt lat="44.97904" lon="1.07614">
        <ele>217</ele>
        <time>2017-10-01T09:51:42.000Z</time>
      </trkpt>
      <trkpt lat="44.97903" lon="1.07616">
        <ele>217</ele>
        <time>2017-10-01T09:51:43.000Z</time>
      </trkpt>
      <trkpt lat="44.97902" lon="1.07619">
        <ele>217</ele>
        <time>2017-10-01T09:51:44.000Z</time>
      </trkpt>
      <trkpt lat="44.97901" lon="1.07621">
        <ele>217</ele>
        <time>2017-10-01T09:51:45.000Z</time>
      </trkpt>
      <trkpt lat="44.97901" lon="1.07623">
        <ele>217</ele>
        <time>2017-10-01T09:51:46.000Z</time>
      </trkpt>
      <trkpt lat="44.979" lon="1.07626">
        <ele>217</ele>
        <time>2017-10-01T09:51:47.000Z</time>
      </trkpt>
      <trkpt lat="44.979" lon="1.0763">
        <ele>217</ele>
        <time>2017-10-01T09:51:48.000Z</time>
      </trkpt>
      <trkpt lat="44.97899" lon="1.07635">
        <ele>217</ele>
        <time>2017-10-01T09:51:49.000Z</time>
      </trkpt>
      <trkpt lat="44.97898" lon="1.07639">
        <ele>217</ele>
        <time>2017-10-01T09:51:50.000Z</time>
      </trkpt>
      <trkpt lat="44.97898" lon="1.07643">
        <ele>217</ele>
        <time>2017-10-01T09:51:51.000Z</time>
      </trkpt>
      <trkpt lat="44.97898" lon="1.07647">
        <ele>217</ele>
        <time>2017-10-01T09:51:52.000Z</time>
      </trkpt>
      <trkpt lat="44.97898" lon="1.07653">
        <ele>217</ele>
        <time>2017-10-01T09:51:53.000Z</time>
      </trkpt>
      <trkpt lat="44.97897" lon="1.07659">
        <ele>217</ele>
        <time>2017-10-01T09:51:54.000Z</time>
      </trkpt>
      <trkpt lat="44.97896" lon="1.07667">
        <ele>217</ele>
        <time>2017-10-01T09:51:55.000Z</time>
      </trkpt>
      <trkpt lat="44.97895" lon="1.07675">
        <ele>217</ele>
        <time>2017-10-01T09:51:56.000Z</time>
      </trkpt>
      <trkpt lat="44.97893" lon="1.07682">
        <ele>217</ele>
        <time>2017-10-01T09:51:57.000Z</time>
      </trkpt>
      <trkpt lat="44.97891" lon="1.07689">
        <ele>216</ele>
        <time>2017-10-01T09:51:58.000Z</time>
      </trkpt>
      <trkpt lat="44.97889" lon="1.07696">
        <ele>216</ele>
        <time>2017-10-01T09:51:59.000Z</time>
      </trkpt>
      <trkpt lat="44.97887" lon="1.07701">
        <ele>216</ele>
        <time>2017-10-01T09:52:00.000Z</time>
      </trkpt>
      <trkpt lat="44.97884" lon="1.07706">
        <ele>216</ele>
        <time>2017-10-01T09:52:01.000Z</time>
      </trkpt>
      <trkpt lat="44.97882" lon="1.07711">
        <ele>216</ele>
        <time>2017-10-01T09:52:02.000Z</time>
      </trkpt>
      <trkpt lat="44.97879" lon="1.07715">
        <ele>216</ele>
        <time>2017-10-01T09:52:03.000Z</time>
      </trkpt>
      <trkpt lat="44.97877" lon="1.07719">
        <ele>216</ele>
        <time>2017-10-01T09:52:04.000Z</time>
      </trkpt>
      <trkpt lat="44.97875" lon="1.07722">
        <ele>216</ele>
        <time>2017-10-01T09:52:05.000Z</time>
      </trkpt>
      <trkpt lat="44.97873" lon="1.07726">
        <ele>216</ele>
        <time>2017-10-01T09:52:06.000Z</time>
      </trkpt>
      <trkpt lat="44.9787" lon="1.07729">
        <ele>217</ele>
        <time>2017-10-01T09:52:07.000Z</time>
      </trkpt>
      <trkpt lat="44.97868" lon="1.07733">
        <ele>217</ele>
        <time>2017-10-01T09:52:08.000Z</time>
      </trkpt>
      <trkpt lat="44.97866" lon="1.07737">
        <ele>217</ele>
        <time>2017-10-01T09:52:09.000Z</time>
      </trkpt>
      <trkpt lat="44.97864" lon="1.07741">
        <ele>217</ele>
        <time>2017-10-01T09:52:10.000Z</time>
      </trkpt>
      <trkpt lat="44.97862" lon="1.07746">
        <ele>217</ele>
        <time>2017-10-01T09:52:11.000Z</time>
      </trkpt>
      <trkpt lat="44.9786" lon="1.07751">
        <ele>218</ele>
        <time>2017-10-01T09:52:12.000Z</time>
      </trkpt>
      <trkpt lat="44.97858" lon="1.07756">
        <ele>218</ele>
        <time>2017-10-01T09:52:13.000Z</time>
      </trkpt>
      <trkpt lat="44.97855" lon="1.07762">
        <ele>218</ele>
        <time>2017-10-01T09:52:14.000Z</time>
      </trkpt>
      <trkpt lat="44.97853" lon="1.07767">
        <ele>218</ele>
        <time>2017-10-01T09:52:15.000Z</time>
      </trkpt>
      <trkpt lat="44.9785" lon="1.07772">
        <ele>219</ele>
        <time>2017-10-01T09:52:16.000Z</time>
      </trkpt>
      <trkpt lat="44.97847" lon="1.07778">
        <ele>219</ele>
        <time>2017-10-01T09:52:17.000Z</time>
      </trkpt>
      <trkpt lat="44.97845" lon="1.07783">
        <ele>219</ele>
        <time>2017-10-01T09:52:18.000Z</time>
      </trkpt>
      <trkpt lat="44.97842" lon="1.07788">
        <ele>220</ele>
        <time>2017-10-01T09:52:19.000Z</time>
      </trkpt>
      <trkpt lat="44.9784" lon="1.07793">
        <ele>220</ele>
        <time>2017-10-01T09:52:20.000Z</time>
      </trkpt>
      <trkpt lat="44.97838" lon="1.07797">
        <ele>220</ele>
        <time>2017-10-01T09:52:21.000Z</time>
      </trkpt>
      <trkpt lat="44.97836" lon="1.07802">
        <ele>221</ele>
        <time>2017-10-01T09:52:22.000Z</time>
      </trkpt>
      <trkpt lat="44.97834" lon="1.07806">
        <ele>221</ele>
        <time>2017-10-01T09:52:23.000Z</time>
      </trkpt>
      <trkpt lat="44.97832" lon="1.0781">
        <ele>221</ele>
        <time>2017-10-01T09:52:24.000Z</time>
      </trkpt>
      <trkpt lat="44.9783" lon="1.07813">
        <ele>222</ele>
        <time>2017-10-01T09:52:25.000Z</time>
      </trkpt>
      <trkpt lat="44.97828" lon="1.07817">
        <ele>222</ele>
        <time>2017-10-01T09:52:26.000Z</time>
      </trkpt>
      <trkpt lat="44.97826" lon="1.0782">
        <ele>222</ele>
        <time>2017-10-01T09:52:27.000Z</time>
      </trkpt>
      <trkpt lat="44.97825" lon="1.07823">
        <ele>222</ele>
        <time>2017-10-01T09:52:28.000Z</time>
      </trkpt>
      <trkpt lat="44.97823" lon="1.07826">
        <ele>223</ele>
        <time>2017-10-01T09:52:29.000Z</time>
      </trkpt>
      <trkpt lat="44.97821" lon="1.07829">
        <ele>223</ele>
        <time>2017-10-01T09:52:30.000Z</time>
      </trkpt>
      <trkpt lat="44.97819" lon="1.07832">
        <ele>223</ele>
        <time>2017-10-01T09:52:31.000Z</time>
      </trkpt>
      <trkpt lat="44.97817" lon="1.07835">
        <ele>223</ele>
        <time>2017-10-01T09:52:32.000Z</time>
      </trkpt>
      <trkpt lat="44.97816" lon="1.07838">
        <ele>224</ele>
        <time>2017-10-01T09:52:33.000Z</time>
      </trkpt>
      <trkpt lat="44.97814" lon="1.0784">
        <ele>224</ele>
        <time>2017-10-01T09:52:34.000Z</time>
      </trkpt>
      <trkpt lat="44.97812" lon="1.07843">
        <ele>224</ele>
        <time>2017-10-01T09:52:35.000Z</time>
      </trkpt>
      <trkpt lat="44.97811" lon="1.07846">
        <ele>224</ele>
        <time>2017-10-01T09:52:36.000Z</time>
      </trkpt>
      <trkpt lat="44.97809" lon="1.07848">
        <ele>224</ele>
        <time>2017-10-01T09:52:37.000Z</time>
      </trkpt>
      <trkpt lat="44.97808" lon="1.07851">
        <ele>224</ele>
        <time>2017-10-01T09:52:38.000Z</time>
      </trkpt>
      <trkpt lat="44.97807" lon="1.07853">
        <ele>224</ele>
        <time>2017-10-01T09:52:39.000Z</time>
      </trkpt>
      <trkpt lat="44.97806" lon="1.07856">
        <ele>225</ele>
        <time>2017-10-01T09:52:40.000Z</time>
      </trkpt>
      <trkpt lat="44.97805" lon="1.07858">
        <ele>225</ele>
        <time>2017-10-01T09:52:41.000Z</time>
      </trkpt>
      <trkpt lat="44.97805" lon="1.0786">
        <ele>225</ele>
        <time>2017-10-01T09:52:42.000Z</time>
      </trkpt>
      <trkpt lat="44.97804" lon="1.07863">
        <ele>225</ele>
        <time>2017-10-01T09:52:43.000Z</time>
      </trkpt>
      <trkpt lat="44.97803" lon="1.07865">
        <ele>225</ele>
        <time>2017-10-01T09:52:44.000Z</time>
      </trkpt>
      <trkpt lat="44.97803" lon="1.07868">
        <ele>225</ele>
        <time>2017-10-01T09:52:45.000Z</time>
      </trkpt>
      <trkpt lat="44.97802" lon="1.0787">
        <ele>226</ele>
        <time>2017-10-01T09:52:46.000Z</time>
      </trkpt>
      <trkpt lat="44.97801" lon="1.07873">
        <ele>226</ele>
        <time>2017-10-01T09:52:47.000Z</time>
      </trkpt>
      <trkpt lat="44.97801" lon="1.07875">
        <ele>226</ele>
        <time>2017-10-01T09:52:48.000Z</time>
      </trkpt>
      <trkpt lat="44.978" lon="1.07878">
        <ele>226</ele>
        <time>2017-10-01T09:52:49.000Z</time>
      </trkpt>
      <trkpt lat="44.978" lon="1.07881">
        <ele>226</ele>
        <time>2017-10-01T09:52:50.000Z</time>
      </trkpt>
      <trkpt lat="44.97799" lon="1.07883">
        <ele>226</ele>
        <time>2017-10-01T09:52:51.000Z</time>
      </trkpt>
      <trkpt lat="44.97799" lon="1.07886">
        <ele>227</ele>
        <time>2017-10-01T09:52:52.000Z</time>
      </trkpt>
      <trkpt lat="44.97798" lon="1.07889">
        <ele>227</ele>
        <time>2017-10-01T09:52:53.000Z</time>
      </trkpt>
      <trkpt lat="44.97798" lon="1.07892">
        <ele>227</ele>
        <time>2017-10-01T09:52:54.000Z</time>
      </trkpt>
      <trkpt lat="44.97797" lon="1.07894">
        <ele>227</ele>
        <time>2017-10-01T09:52:55.000Z</time>
      </trkpt>
      <trkpt lat="44.97797" lon="1.07897">
        <ele>227</ele>
        <time>2017-10-01T09:52:56.000Z</time>
      </trkpt>
      <trkpt lat="44.97796" lon="1.07899">
        <ele>228</ele>
        <time>2017-10-01T09:52:57.000Z</time>
      </trkpt>
      <trkpt lat="44.97796" lon="1.07902">
        <ele>228</ele>
        <time>2017-10-01T09:52:58.000Z</time>
      </trkpt>
      <trkpt lat="44.97795" lon="1.07904">
        <ele>228</ele>
        <time>2017-10-01T09:52:59.000Z</time>
      </trkpt>
      <trkpt lat="44.97795" lon="1.07906">
        <ele>228</ele>
        <time>2017-10-01T09:53:00.000Z</time>
      </trkpt>
      <trkpt lat="44.97794" lon="1.07909">
        <ele>228</ele>
        <time>2017-10-01T09:53:01.000Z</time>
      </trkpt>
      <trkpt lat="44.97794" lon="1.07911">
        <ele>228</ele>
        <time>2017-10-01T09:53:02.000Z</time>
      </trkpt>
      <trkpt lat="44.97793" lon="1.07913">
        <ele>229</ele>
        <time>2017-10-01T09:53:03.000Z</time>
      </trkpt>
      <trkpt lat="44.97793" lon="1.07916">
        <ele>229</ele>
        <time>2017-10-01T09:53:04.000Z</time>
      </trkpt>
      <trkpt lat="44.97792" lon="1.07918">
        <ele>229</ele>
        <time>2017-10-01T09:53:05.000Z</time>
      </trkpt>
      <trkpt lat="44.97792" lon="1.07921">
        <ele>229</ele>
        <time>2017-10-01T09:53:06.000Z</time>
      </trkpt>
      <trkpt lat="44.97791" lon="1.07923">
        <ele>229</ele>
        <time>2017-10-01T09:53:07.000Z</time>
      </trkpt>
      <trkpt lat="44.97791" lon="1.07926">
        <ele>230</ele>
        <time>2017-10-01T09:53:08.000Z</time>
      </trkpt>
      <trkpt lat="44.9779" lon="1.07928">
        <ele>230</ele>
        <time>2017-10-01T09:53:09.000Z</time>
      </trkpt>
      <trkpt lat="44.9779" lon="1.07931">
        <ele>230</ele>
        <time>2017-10-01T09:53:10.000Z</time>
      </trkpt>
      <trkpt lat="44.97789" lon="1.07933">
        <ele>230</ele>
        <time>2017-10-01T09:53:11.000Z</time>
      </trkpt>
      <trkpt lat="44.97789" lon="1.07936">
        <ele>231</ele>
        <time>2017-10-01T09:53:12.000Z</time>
      </trkpt>
      <trkpt lat="44.97788" lon="1.07938">
        <ele>231</ele>
        <time>2017-10-01T09:53:13.000Z</time>
      </trkpt>
      <trkpt lat="44.97788" lon="1.07941">
        <ele>231</ele>
        <time>2017-10-01T09:53:14.000Z</time>
      </trkpt>
      <trkpt lat="44.97787" lon="1.07943">
        <ele>232</ele>
        <time>2017-10-01T09:53:15.000Z</time>
      </trkpt>
      <trkpt lat="44.97786" lon="1.07946">
        <ele>232</ele>
        <time>2017-10-01T09:53:16.000Z</time>
      </trkpt>
      <trkpt lat="44.97786" lon="1.07948">
        <ele>232</ele>
        <time>2017-10-01T09:53:17.000Z</time>
      </trkpt>
      <trkpt lat="44.97785" lon="1.07951">
        <ele>232</ele>
        <time>2017-10-01T09:53:18.000Z</time>
      </trkpt>
      <trkpt lat="44.97785" lon="1.07953">
        <ele>233</ele>
        <time>2017-10-01T09:53:19.000Z</time>
      </trkpt>
      <trkpt lat="44.97784" lon="1.07956">
        <ele>233</ele>
        <time>2017-10-01T09:53:20.000Z</time>
      </trkpt>
      <trkpt lat="44.97783" lon="1.07958">
        <ele>233</ele>
        <time>2017-10-01T09:53:21.000Z</time>
      </trkpt>
      <trkpt lat="44.97783" lon="1.0796">
        <ele>233</ele>
        <time>2017-10-01T09:53:22.000Z</time>
      </trkpt>
      <trkpt lat="44.97782" lon="1.07963">
        <ele>234</ele>
        <time>2017-10-01T09:53:23.000Z</time>
      </trkpt>
      <trkpt lat="44.97782" lon="1.07965">
        <ele>234</ele>
        <time>2017-10-01T09:53:24.000Z</time>
      </trkpt>
      <trkpt lat="44.97781" lon="1.07968">
        <ele>234</ele>
        <time>2017-10-01T09:53:25.000Z</time>
      </trkpt>
      <trkpt lat="44.9778" lon="1.0797">
        <ele>235</ele>
        <time>2017-10-01T09:53:26.000Z</time>
      </trkpt>
      <trkpt lat="44.9778" lon="1.07972">
        <ele>235</ele>
        <time>2017-10-01T09:53:27.000Z</time>
      </trkpt>
      <trkpt lat="44.97779" lon="1.07975">
        <ele>235</ele>
        <time>2017-10-01T09:53:28.000Z</time>
      </trkpt>
      <trkpt lat="44.97779" lon="1.07977">
        <ele>235</ele>
        <time>2017-10-01T09:53:29.000Z</time>
      </trkpt>
      <trkpt lat="44.97778" lon="1.0798">
        <ele>236</ele>
        <time>2017-10-01T09:53:30.000Z</time>
      </trkpt>
      <trkpt lat="44.97778" lon="1.07982">
        <ele>236</ele>
        <time>2017-10-01T09:53:31.000Z</time>
      </trkpt>
      <trkpt lat="44.97777" lon="1.07985">
        <ele>236</ele>
        <time>2017-10-01T09:53:32.000Z</time>
      </trkpt>
      <trkpt lat="44.97777" lon="1.07987">
        <ele>237</ele>
        <time>2017-10-01T09:53:33.000Z</time>
      </trkpt>
      <trkpt lat="44.97776" lon="1.07989">
        <ele>237</ele>
        <time>2017-10-01T09:53:34.000Z</time>
      </trkpt>
      <trkpt lat="44.97775" lon="1.07992">
        <ele>237</ele>
        <time>2017-10-01T09:53:35.000Z</time>
      </trkpt>
      <trkpt lat="44.97775" lon="1.07994">
        <ele>238</ele>
        <time>2017-10-01T09:53:36.000Z</time>
      </trkpt>
      <trkpt lat="44.97774" lon="1.07997">
        <ele>238</ele>
        <time>2017-10-01T09:53:37.000Z</time>
      </trkpt>
      <trkpt lat="44.97773" lon="1.07999">
        <ele>238</ele>
        <time>2017-10-01T09:53:38.000Z</time>
      </trkpt>
      <trkpt lat="44.97773" lon="1.08002">
        <ele>238</ele>
        <time>2017-10-01T09:53:39.000Z</time>
      </trkpt>
      <trkpt lat="44.97772" lon="1.08004">
        <ele>239</ele>
        <time>2017-10-01T09:53:40.000Z</time>
      </trkpt>
      <trkpt lat="44.97771" lon="1.08007">
        <ele>239</ele>
        <time>2017-10-01T09:53:41.000Z</time>
      </trkpt>
      <trkpt lat="44.9777" lon="1.08009">
        <ele>239</ele>
        <time>2017-10-01T09:53:42.000Z</time>
      </trkpt>
      <trkpt lat="44.9777" lon="1.08011">
        <ele>239</ele>
        <time>2017-10-01T09:53:43.000Z</time>
      </trkpt>
      <trkpt lat="44.97769" lon="1.08014">
        <ele>240</ele>
        <time>2017-10-01T09:53:44.000Z</time>
      </trkpt>
      <trkpt lat="44.97768" lon="1.08016">
        <ele>240</ele>
        <time>2017-10-01T09:53:45.000Z</time>
      </trkpt>
      <trkpt lat="44.97767" lon="1.08019">
        <ele>240</ele>
        <time>2017-10-01T09:53:46.000Z</time>
      </trkpt>
      <trkpt lat="44.97766" lon="1.08021">
        <ele>240</ele>
        <time>2017-10-01T09:53:47.000Z</time>
      </trkpt>
      <trkpt lat="44.97766" lon="1.08024">
        <ele>241</ele>
        <time>2017-10-01T09:53:48.000Z</time>
      </trkpt>
      <trkpt lat="44.97765" lon="1.08026">
        <ele>241</ele>
        <time>2017-10-01T09:53:49.000Z</time>
      </trkpt>
      <trkpt lat="44.97764" lon="1.08028">
        <ele>241</ele>
        <time>2017-10-01T09:53:50.000Z</time>
      </trkpt>
      <trkpt lat="44.97763" lon="1.08031">
        <ele>241</ele>
        <time>2017-10-01T09:53:51.000Z</time>
      </trkpt>
      <trkpt lat="44.97762" lon="1.08033">
        <ele>242</ele>
        <time>2017-10-01T09:53:52.000Z</time>
      </trkpt>
      <trkpt lat="44.97762" lon="1.08036">
        <ele>242</ele>
        <time>2017-10-01T09:53:53.000Z</time>
      </trkpt>
      <trkpt lat="44.97761" lon="1.08038">
        <ele>242</ele>
        <time>2017-10-01T09:53:54.000Z</time>
      </trkpt>
      <trkpt lat="44.9776" lon="1.08041">
        <ele>242</ele>
        <time>2017-10-01T09:53:55.000Z</time>
      </trkpt>
      <trkpt lat="44.9776" lon="1.08044">
        <ele>242</ele>
        <time>2017-10-01T09:53:56.000Z</time>
      </trkpt>
      <trkpt lat="44.97759" lon="1.08046">
        <ele>243</ele>
        <time>2017-10-01T09:53:57.000Z</time>
      </trkpt>
      <trkpt lat="44.97759" lon="1.08049">
        <ele>243</ele>
        <time>2017-10-01T09:53:58.000Z</time>
      </trkpt>
      <trkpt lat="44.97758" lon="1.08051">
        <ele>243</ele>
        <time>2017-10-01T09:53:59.000Z</time>
      </trkpt>
      <trkpt lat="44.97758" lon="1.08054">
        <ele>243</ele>
        <time>2017-10-01T09:54:00.000Z</time>
      </trkpt>
      <trkpt lat="44.97758" lon="1.08057">
        <ele>243</ele>
        <time>2017-10-01T09:54:01.000Z</time>
      </trkpt>
      <trkpt lat="44.97757" lon="1.0806">
        <ele>243</ele>
        <time>2017-10-01T09:54:02.000Z</time>
      </trkpt>
      <trkpt lat="44.97757" lon="1.08063">
        <ele>244</ele>
        <time>2017-10-01T09:54:03.000Z</time>
      </trkpt>
      <trkpt lat="44.97757" lon="1.08066">
        <ele>244</ele>
        <time>2017-10-01T09:54:04.000Z</time>
      </trkpt>
      <trkpt lat="44.97757" lon="1.08069">
        <ele>244</ele>
        <time>2017-10-01T09:54:05.000Z</time>
      </trkpt>
      <trkpt lat="44.97757" lon="1.08072">
        <ele>244</ele>
        <time>2017-10-01T09:54:06.000Z</time>
      </trkpt>
      <trkpt lat="44.97756" lon="1.08076">
        <ele>244</ele>
        <time>2017-10-01T09:54:07.000Z</time>
      </trkpt>
      <trkpt lat="44.97756" lon="1.08079">
        <ele>244</ele>
        <time>2017-10-01T09:54:08.000Z</time>
      </trkpt>
      <trkpt lat="44.97756" lon="1.08082">
        <ele>244</ele>
        <time>2017-10-01T09:54:09.000Z</time>
      </trkpt>
      <trkpt lat="44.97756" lon="1.08085">
        <ele>244</ele>
        <time>2017-10-01T09:54:10.000Z</time>
      </trkpt>
      <trkpt lat="44.97756" lon="1.08088">
        <ele>244</ele>
        <time>2017-10-01T09:54:11.000Z</time>
      </trkpt>
      <trkpt lat="44.97755" lon="1.08092">
        <ele>244</ele>
        <time>2017-10-01T09:54:12.000Z</time>
      </trkpt>
      <trkpt lat="44.97755" lon="1.08095">
        <ele>245</ele>
        <time>2017-10-01T09:54:13.000Z</time>
      </trkpt>
      <trkpt lat="44.97754" lon="1.08098">
        <ele>245</ele>
        <time>2017-10-01T09:54:14.000Z</time>
      </trkpt>
      <trkpt lat="44.97753" lon="1.08101">
        <ele>245</ele>
        <time>2017-10-01T09:54:15.000Z</time>
      </trkpt>
      <trkpt lat="44.97752" lon="1.08103">
        <ele>245</ele>
        <time>2017-10-01T09:54:16.000Z</time>
      </trkpt>
      <trkpt lat="44.97751" lon="1.08106">
        <ele>245</ele>
        <time>2017-10-01T09:54:17.000Z</time>
      </trkpt>
      <trkpt lat="44.9775" lon="1.08109">
        <ele>246</ele>
        <time>2017-10-01T09:54:18.000Z</time>
      </trkpt>
      <trkpt lat="44.97749" lon="1.08112">
        <ele>246</ele>
        <time>2017-10-01T09:54:19.000Z</time>
      </trkpt>
      <trkpt lat="44.97747" lon="1.08115">
        <ele>245</ele>
        <time>2017-10-01T09:54:20.000Z</time>
      </trkpt>
      <trkpt lat="44.97746" lon="1.08118">
        <ele>245</ele>
        <time>2017-10-01T09:54:21.000Z</time>
      </trkpt>
      <trkpt lat="44.97745" lon="1.08122">
        <ele>245</ele>
        <time>2017-10-01T09:54:22.000Z</time>
      </trkpt>
      <trkpt lat="44.97744" lon="1.08125">
        <ele>245</ele>
        <time>2017-10-01T09:54:23.000Z</time>
      </trkpt>
      <trkpt lat="44.97743" lon="1.08129">
        <ele>245</ele>
        <time>2017-10-01T09:54:24.000Z</time>
      </trkpt>
      <trkpt lat="44.97741" lon="1.08133">
        <ele>245</ele>
        <time>2017-10-01T09:54:25.000Z</time>
      </trkpt>
      <trkpt lat="44.9774" lon="1.08136">
        <ele>245</ele>
        <time>2017-10-01T09:54:26.000Z</time>
      </trkpt>
      <trkpt lat="44.97738" lon="1.0814">
        <ele>245</ele>
        <time>2017-10-01T09:54:27.000Z</time>
      </trkpt>
      <trkpt lat="44.97736" lon="1.08144">
        <ele>245</ele>
        <time>2017-10-01T09:54:28.000Z</time>
      </trkpt>
      <trkpt lat="44.97734" lon="1.08148">
        <ele>245</ele>
        <time>2017-10-01T09:54:29.000Z</time>
      </trkpt>
      <trkpt lat="44.97732" lon="1.08151">
        <ele>245</ele>
        <time>2017-10-01T09:54:30.000Z</time>
      </trkpt>
      <trkpt lat="44.9773" lon="1.08155">
        <ele>245</ele>
        <time>2017-10-01T09:54:31.000Z</time>
      </trkpt>
      <trkpt lat="44.97728" lon="1.08159">
        <ele>245</ele>
        <time>2017-10-01T09:54:32.000Z</time>
      </trkpt>
      <trkpt lat="44.97726" lon="1.08163">
        <ele>245</ele>
        <time>2017-10-01T09:54:33.000Z</time>
      </trkpt>
      <trkpt lat="44.97724" lon="1.08167">
        <ele>245</ele>
        <time>2017-10-01T09:54:34.000Z</time>
      </trkpt>
      <trkpt lat="44.97722" lon="1.08171">
        <ele>245</ele>
        <time>2017-10-01T09:54:35.000Z</time>
      </trkpt>
      <trkpt lat="44.9772" lon="1.08176">
        <ele>245</ele>
        <time>2017-10-01T09:54:36.000Z</time>
      </trkpt>
      <trkpt lat="44.97719" lon="1.0818">
        <ele>245</ele>
        <time>2017-10-01T09:54:37.000Z</time>
      </trkpt>
      <trkpt lat="44.97718" lon="1.08184">
        <ele>245</ele>
        <time>2017-10-01T09:54:38.000Z</time>
      </trkpt>
      <trkpt lat="44.97717" lon="1.08189">
        <ele>245</ele>
        <time>2017-10-01T09:54:39.000Z</time>
      </trkpt>
      <trkpt lat="44.97717" lon="1.08194">
        <ele>245</ele>
        <time>2017-10-01T09:54:40.000Z</time>
      </trkpt>
      <trkpt lat="44.97717" lon="1.08199">
        <ele>245</ele>
        <time>2017-10-01T09:54:41.000Z</time>
      </trkpt>
      <trkpt lat="44.97717" lon="1.08204">
        <ele>245</ele>
        <time>2017-10-01T09:54:42.000Z</time>
      </trkpt>
      <trkpt lat="44.97718" lon="1.08208">
        <ele>245</ele>
        <time>2017-10-01T09:54:43.000Z</time>
      </trkpt>
      <trkpt lat="44.97719" lon="1.08213">
        <ele>246</ele>
        <time>2017-10-01T09:54:44.000Z</time>
      </trkpt>
      <trkpt lat="44.9772" lon="1.08218">
        <ele>246</ele>
        <time>2017-10-01T09:54:45.000Z</time>
      </trkpt>
      <trkpt lat="44.97722" lon="1.08223">
        <ele>246</ele>
        <time>2017-10-01T09:54:46.000Z</time>
      </trkpt>
      <trkpt lat="44.97723" lon="1.08228">
        <ele>246</ele>
        <time>2017-10-01T09:54:47.000Z</time>
      </trkpt>
      <trkpt lat="44.97724" lon="1.08233">
        <ele>246</ele>
        <time>2017-10-01T09:54:48.000Z</time>
      </trkpt>
      <trkpt lat="44.97726" lon="1.08237">
        <ele>246</ele>
        <time>2017-10-01T09:54:49.000Z</time>
      </trkpt>
      <trkpt lat="44.97727" lon="1.08242">
        <ele>246</ele>
        <time>2017-10-01T09:54:50.000Z</time>
      </trkpt>
      <trkpt lat="44.97728" lon="1.08246">
        <ele>246</ele>
        <time>2017-10-01T09:54:51.000Z</time>
      </trkpt>
      <trkpt lat="44.97729" lon="1.08251">
        <ele>247</ele>
        <time>2017-10-01T09:54:52.000Z</time>
      </trkpt>
      <trkpt lat="44.97729" lon="1.08255">
        <ele>247</ele>
        <time>2017-10-01T09:54:53.000Z</time>
      </trkpt>
      <trkpt lat="44.9773" lon="1.0826">
        <ele>247</ele>
        <time>2017-10-01T09:54:54.000Z</time>
      </trkpt>
      <trkpt lat="44.9773" lon="1.08264">
        <ele>247</ele>
        <time>2017-10-01T09:54:55.000Z</time>
      </trkpt>
      <trkpt lat="44.97731" lon="1.08269">
        <ele>247</ele>
        <time>2017-10-01T09:54:56.000Z</time>
      </trkpt>
      <trkpt lat="44.97732" lon="1.08273">
        <ele>248</ele>
        <time>2017-10-01T09:54:57.000Z</time>
      </trkpt>
      <trkpt lat="44.97733" lon="1.08277">
        <ele>248</ele>
        <time>2017-10-01T09:54:58.000Z</time>
      </trkpt>
      <trkpt lat="44.97734" lon="1.08281">
        <ele>248</ele>
        <time>2017-10-01T09:54:59.000Z</time>
      </trkpt>
      <trkpt lat="44.97734" lon="1.08286">
        <ele>248</ele>
        <time>2017-10-01T09:55:00.000Z</time>
      </trkpt>
      <trkpt lat="44.97735" lon="1.0829">
        <ele>249</ele>
        <time>2017-10-01T09:55:01.000Z</time>
      </trkpt>
      <trkpt lat="44.97736" lon="1.08295">
        <ele>249</ele>
        <time>2017-10-01T09:55:02.000Z</time>
      </trkpt>
      <trkpt lat="44.97737" lon="1.083">
        <ele>249</ele>
        <time>2017-10-01T09:55:03.000Z</time>
      </trkpt>
      <trkpt lat="44.97737" lon="1.08306">
        <ele>249</ele>
        <time>2017-10-01T09:55:04.000Z</time>
      </trkpt>
      <trkpt lat="44.97737" lon="1.08311">
        <ele>250</ele>
        <time>2017-10-01T09:55:05.000Z</time>
      </trkpt>
      <trkpt lat="44.97738" lon="1.08316">
        <ele>250</ele>
        <time>2017-10-01T09:55:06.000Z</time>
      </trkpt>
      <trkpt lat="44.97738" lon="1.08322">
        <ele>250</ele>
        <time>2017-10-01T09:55:07.000Z</time>
      </trkpt>
      <trkpt lat="44.97738" lon="1.08326">
        <ele>251</ele>
        <time>2017-10-01T09:55:08.000Z</time>
      </trkpt>
      <trkpt lat="44.97738" lon="1.08331">
        <ele>251</ele>
        <time>2017-10-01T09:55:09.000Z</time>
      </trkpt>
      <trkpt lat="44.97739" lon="1.08335">
        <ele>251</ele>
        <time>2017-10-01T09:55:10.000Z</time>
      </trkpt>
      <trkpt lat="44.97739" lon="1.08339">
        <ele>251</ele>
        <time>2017-10-01T09:55:11.000Z</time>
      </trkpt>
      <trkpt lat="44.9774" lon="1.08344">
        <ele>251</ele>
        <time>2017-10-01T09:55:12.000Z</time>
      </trkpt>
      <trkpt lat="44.9774" lon="1.08348">
        <ele>251</ele>
        <time>2017-10-01T09:55:13.000Z</time>
      </trkpt>
      <trkpt lat="44.97741" lon="1.08353">
        <ele>251</ele>
        <time>2017-10-01T09:55:14.000Z</time>
      </trkpt>
      <trkpt lat="44.97742" lon="1.08358">
        <ele>251</ele>
        <time>2017-10-01T09:55:15.000Z</time>
      </trkpt>
      <trkpt lat="44.97742" lon="1.08363">
        <ele>251</ele>
        <time>2017-10-01T09:55:16.000Z</time>
      </trkpt>
      <trkpt lat="44.97744" lon="1.0837">
        <ele>250</ele>
        <time>2017-10-01T09:55:17.000Z</time>
      </trkpt>
      <trkpt lat="44.97745" lon="1.08377">
        <ele>250</ele>
        <time>2017-10-01T09:55:18.000Z</time>
      </trkpt>
      <trkpt lat="44.97747" lon="1.08384">
        <ele>250</ele>
        <time>2017-10-01T09:55:19.000Z</time>
      </trkpt>
      <trkpt lat="44.97749" lon="1.08391">
        <ele>250</ele>
        <time>2017-10-01T09:55:20.000Z</time>
      </trkpt>
      <trkpt lat="44.97751" lon="1.08398">
        <ele>250</ele>
        <time>2017-10-01T09:55:21.000Z</time>
      </trkpt>
      <trkpt lat="44.97753" lon="1.08404">
        <ele>250</ele>
        <time>2017-10-01T09:55:22.000Z</time>
      </trkpt>
      <trkpt lat="44.97755" lon="1.0841">
        <ele>250</ele>
        <time>2017-10-01T09:55:23.000Z</time>
      </trkpt>
      <trkpt lat="44.97758" lon="1.08415">
        <ele>249</ele>
        <time>2017-10-01T09:55:24.000Z</time>
      </trkpt>
      <trkpt lat="44.97761" lon="1.08421">
        <ele>249</ele>
        <time>2017-10-01T09:55:25.000Z</time>
      </trkpt>
      <trkpt lat="44.97764" lon="1.08426">
        <ele>249</ele>
        <time>2017-10-01T09:55:26.000Z</time>
      </trkpt>
      <trkpt lat="44.97767" lon="1.08431">
        <ele>248</ele>
        <time>2017-10-01T09:55:27.000Z</time>
      </trkpt>
      <trkpt lat="44.97769" lon="1.08437">
        <ele>248</ele>
        <time>2017-10-01T09:55:28.000Z</time>
      </trkpt>
      <trkpt lat="44.97772" lon="1.08442">
        <ele>248</ele>
        <time>2017-10-01T09:55:29.000Z</time>
      </trkpt>
      <trkpt lat="44.97774" lon="1.08448">
        <ele>247</ele>
        <time>2017-10-01T09:55:30.000Z</time>
      </trkpt>
      <trkpt lat="44.97777" lon="1.08455">
        <ele>247</ele>
        <time>2017-10-01T09:55:31.000Z</time>
      </trkpt>
      <trkpt lat="44.9778" lon="1.08462">
        <ele>246</ele>
        <time>2017-10-01T09:55:32.000Z</time>
      </trkpt>
      <trkpt lat="44.97783" lon="1.0847">
        <ele>246</ele>
        <time>2017-10-01T09:55:33.000Z</time>
      </trkpt>
      <trkpt lat="44.97786" lon="1.08477">
        <ele>246</ele>
        <time>2017-10-01T09:55:34.000Z</time>
      </trkpt>
      <trkpt lat="44.97789" lon="1.08485">
        <ele>245</ele>
        <time>2017-10-01T09:55:35.000Z</time>
      </trkpt>
      <trkpt lat="44.97792" lon="1.08492">
        <ele>245</ele>
        <time>2017-10-01T09:55:36.000Z</time>
      </trkpt>
      <trkpt lat="44.97795" lon="1.08499">
        <ele>245</ele>
        <time>2017-10-01T09:55:37.000Z</time>
      </trkpt>
      <trkpt lat="44.97797" lon="1.08504">
        <ele>245</ele>
        <time>2017-10-01T09:55:38.000Z</time>
      </trkpt>
      <trkpt lat="44.97799" lon="1.08508">
        <ele>245</ele>
        <time>2017-10-01T09:55:39.000Z</time>
      </trkpt>
      <trkpt lat="44.97801" lon="1.08511">
        <ele>244</ele>
        <time>2017-10-01T09:55:40.000Z</time>
      </trkpt>
      <trkpt lat="44.97802" lon="1.08514">
        <ele>244</ele>
        <time>2017-10-01T09:55:41.000Z</time>
      </trkpt>
      <trkpt lat="44.97803" lon="1.08516">
        <ele>244</ele>
        <time>2017-10-01T09:55:42.000Z</time>
      </trkpt>
      <trkpt lat="44.97805" lon="1.08518">
        <ele>245</ele>
        <time>2017-10-01T09:55:43.000Z</time>
      </trkpt>
      <trkpt lat="44.97807" lon="1.0852">
        <ele>245</ele>
        <time>2017-10-01T09:55:44.000Z</time>
      </trkpt>
      <trkpt lat="44.97809" lon="1.08523">
        <ele>245</ele>
        <time>2017-10-01T09:55:45.000Z</time>
      </trkpt>
      <trkpt lat="44.97811" lon="1.08526">
        <ele>245</ele>
        <time>2017-10-01T09:55:46.000Z</time>
      </trkpt>
      <trkpt lat="44.97813" lon="1.08529">
        <ele>245</ele>
        <time>2017-10-01T09:55:47.000Z</time>
      </trkpt>
      <trkpt lat="44.97814" lon="1.08533">
        <ele>245</ele>
        <time>2017-10-01T09:55:48.000Z</time>
      </trkpt>
      <trkpt lat="44.97814" lon="1.08537">
        <ele>245</ele>
        <time>2017-10-01T09:55:49.000Z</time>
      </trkpt>
      <trkpt lat="44.97814" lon="1.08541">
        <ele>244</ele>
        <time>2017-10-01T09:55:50.000Z</time>
      </trkpt>
      <trkpt lat="44.97813" lon="1.08546">
        <ele>244</ele>
        <time>2017-10-01T09:55:51.000Z</time>
      </trkpt>
      <trkpt lat="44.97813" lon="1.08551">
        <ele>244</ele>
        <time>2017-10-01T09:55:52.000Z</time>
      </trkpt>
      <trkpt lat="44.97813" lon="1.08555">
        <ele>244</ele>
        <time>2017-10-01T09:55:53.000Z</time>
      </trkpt>
      <trkpt lat="44.97813" lon="1.0856">
        <ele>244</ele>
        <time>2017-10-01T09:55:54.000Z</time>
      </trkpt>
      <trkpt lat="44.97813" lon="1.08565">
        <ele>244</ele>
        <time>2017-10-01T09:55:55.000Z</time>
      </trkpt>
      <trkpt lat="44.97814" lon="1.0857">
        <ele>244</ele>
        <time>2017-10-01T09:55:56.000Z</time>
      </trkpt>
      <trkpt lat="44.97815" lon="1.08574">
        <ele>244</ele>
        <time>2017-10-01T09:55:57.000Z</time>
      </trkpt>
      <trkpt lat="44.97817" lon="1.08579">
        <ele>244</ele>
        <time>2017-10-01T09:55:58.000Z</time>
      </trkpt>
      <trkpt lat="44.97819" lon="1.08582">
        <ele>244</ele>
        <time>2017-10-01T09:55:59.000Z</time>
      </trkpt>
      <trkpt lat="44.97821" lon="1.08586">
        <ele>244</ele>
        <time>2017-10-01T09:56:00.000Z</time>
      </trkpt>
      <trkpt lat="44.97822" lon="1.08588">
        <ele>244</ele>
        <time>2017-10-01T09:56:01.000Z</time>
      </trkpt>
      <trkpt lat="44.97823" lon="1.0859">
        <ele>244</ele>
        <time>2017-10-01T09:56:02.000Z</time>
      </trkpt>
      <trkpt lat="44.97824" lon="1.08591">
        <ele>244</ele>
        <time>2017-10-01T09:56:03.000Z</time>
      </trkpt>
      <trkpt lat="44.97825" lon="1.08591">
        <ele>244</ele>
        <time>2017-10-01T09:56:04.000Z</time>
      </trkpt>
      <trkpt lat="44.97825" lon="1.08592">
        <ele>244</ele>
        <time>2017-10-01T09:56:05.000Z</time>
      </trkpt>
      <trkpt lat="44.97826" lon="1.08593">
        <ele>244</ele>
        <time>2017-10-01T09:56:06.000Z</time>
      </trkpt>
      <trkpt lat="44.97827" lon="1.08595">
        <ele>245</ele>
        <time>2017-10-01T09:56:07.000Z</time>
      </trkpt>
      <trkpt lat="44.97829" lon="1.08597">
        <ele>245</ele>
        <time>2017-10-01T09:56:08.000Z</time>
      </trkpt>
      <trkpt lat="44.9783" lon="1.08598">
        <ele>245</ele>
        <time>2017-10-01T09:56:09.000Z</time>
      </trkpt>
      <trkpt lat="44.97832" lon="1.086">
        <ele>245</ele>
        <time>2017-10-01T09:56:10.000Z</time>
      </trkpt>
      <trkpt lat="44.97833" lon="1.08602">
        <ele>245</ele>
        <time>2017-10-01T09:56:11.000Z</time>
      </trkpt>
      <trkpt lat="44.97834" lon="1.08604">
        <ele>245</ele>
        <time>2017-10-01T09:56:12.000Z</time>
      </trkpt>
      <trkpt lat="44.97836" lon="1.08606">
        <ele>245</ele>
        <time>2017-10-01T09:56:13.000Z</time>
      </trkpt>
      <trkpt lat="44.97837" lon="1.08608">
        <ele>245</ele>
        <time>2017-10-01T09:56:14.000Z</time>
      </trkpt>
      <trkpt lat="44.97838" lon="1.0861">
        <ele>245</ele>
        <time>2017-10-01T09:56:15.000Z</time>
      </trkpt>
      <trkpt lat="44.97839" lon="1.08611">
        <ele>245</ele>
        <time>2017-10-01T09:56:16.000Z</time>
      </trkpt>
      <trkpt lat="44.9784" lon="1.08613">
        <ele>245</ele>
        <time>2017-10-01T09:56:17.000Z</time>
      </trkpt>
      <trkpt lat="44.97842" lon="1.08615">
        <ele>245</ele>
        <time>2017-10-01T09:56:18.000Z</time>
      </trkpt>
      <trkpt lat="44.97843" lon="1.08617">
        <ele>245</ele>
        <time>2017-10-01T09:56:19.000Z</time>
      </trkpt>
      <trkpt lat="44.97844" lon="1.0862">
        <ele>246</ele>
        <time>2017-10-01T09:56:20.000Z</time>
      </trkpt>
      <trkpt lat="44.97846" lon="1.08623">
        <ele>246</ele>
        <time>2017-10-01T09:56:21.000Z</time>
      </trkpt>
      <trkpt lat="44.97847" lon="1.08627">
        <ele>246</ele>
        <time>2017-10-01T09:56:22.000Z</time>
      </trkpt>
      <trkpt lat="44.97849" lon="1.08631">
        <ele>246</ele>
        <time>2017-10-01T09:56:23.000Z</time>
      </trkpt>
      <trkpt lat="44.97851" lon="1.08635">
        <ele>246</ele>
        <time>2017-10-01T09:56:24.000Z</time>
      </trkpt>
      <trkpt lat="44.97853" lon="1.08639">
        <ele>246</ele>
        <time>2017-10-01T09:56:25.000Z</time>
      </trkpt>
      <trkpt lat="44.97854" lon="1.08643">
        <ele>246</ele>
        <time>2017-10-01T09:56:26.000Z</time>
      </trkpt>
      <trkpt lat="44.97856" lon="1.08647">
        <ele>246</ele>
        <time>2017-10-01T09:56:27.000Z</time>
      </trkpt>
      <trkpt lat="44.97857" lon="1.08651">
        <ele>246</ele>
        <time>2017-10-01T09:56:28.000Z</time>
      </trkpt>
      <trkpt lat="44.97859" lon="1.08654">
        <ele>246</ele>
        <time>2017-10-01T09:56:29.000Z</time>
      </trkpt>
      <trkpt lat="44.9786" lon="1.08657">
        <ele>247</ele>
        <time>2017-10-01T09:56:30.000Z</time>
      </trkpt>
      <trkpt lat="44.97862" lon="1.08661">
        <ele>247</ele>
        <time>2017-10-01T09:56:31.000Z</time>
      </trkpt>
      <trkpt lat="44.97863" lon="1.08664">
        <ele>247</ele>
        <time>2017-10-01T09:56:32.000Z</time>
      </trkpt>
      <trkpt lat="44.97865" lon="1.08668">
        <ele>247</ele>
        <time>2017-10-01T09:56:33.000Z</time>
      </trkpt>
      <trkpt lat="44.97867" lon="1.08672">
        <ele>247</ele>
        <time>2017-10-01T09:56:34.000Z</time>
      </trkpt>
      <trkpt lat="44.97869" lon="1.08676">
        <ele>247</ele>
        <time>2017-10-01T09:56:35.000Z</time>
      </trkpt>
      <trkpt lat="44.97871" lon="1.0868">
        <ele>247</ele>
        <time>2017-10-01T09:56:36.000Z</time>
      </trkpt>
      <trkpt lat="44.97873" lon="1.08684">
        <ele>247</ele>
        <time>2017-10-01T09:56:37.000Z</time>
      </trkpt>
      <trkpt lat="44.97875" lon="1.08688">
        <ele>247</ele>
        <time>2017-10-01T09:56:38.000Z</time>
      </trkpt>
      <trkpt lat="44.97877" lon="1.08692">
        <ele>247</ele>
        <time>2017-10-01T09:56:39.000Z</time>
      </trkpt>
      <trkpt lat="44.97879" lon="1.08696">
        <ele>247</ele>
        <time>2017-10-01T09:56:40.000Z</time>
      </trkpt>
      <trkpt lat="44.97881" lon="1.087">
        <ele>247</ele>
        <time>2017-10-01T09:56:41.000Z</time>
      </trkpt>
      <trkpt lat="44.97882" lon="1.08703">
        <ele>247</ele>
        <time>2017-10-01T09:56:42.000Z</time>
      </trkpt>
      <trkpt lat="44.97884" lon="1.08706">
        <ele>248</ele>
        <time>2017-10-01T09:56:43.000Z</time>
      </trkpt>
      <trkpt lat="44.97886" lon="1.0871">
        <ele>248</ele>
        <time>2017-10-01T09:56:44.000Z</time>
      </trkpt>
      <trkpt lat="44.97887" lon="1.08713">
        <ele>248</ele>
        <time>2017-10-01T09:56:45.000Z</time>
      </trkpt>
      <trkpt lat="44.97889" lon="1.08715">
        <ele>248</ele>
        <time>2017-10-01T09:56:46.000Z</time>
      </trkpt>
      <trkpt lat="44.97891" lon="1.08718">
        <ele>248</ele>
        <time>2017-10-01T09:56:47.000Z</time>
      </trkpt>
      <trkpt lat="44.97892" lon="1.08721">
        <ele>248</ele>
        <time>2017-10-01T09:56:48.000Z</time>
      </trkpt>
      <trkpt lat="44.97894" lon="1.08723">
        <ele>249</ele>
        <time>2017-10-01T09:56:49.000Z</time>
      </trkpt>
      <trkpt lat="44.97895" lon="1.08726">
        <ele>249</ele>
        <time>2017-10-01T09:56:50.000Z</time>
      </trkpt>
      <trkpt lat="44.97897" lon="1.08728">
        <ele>249</ele>
        <time>2017-10-01T09:56:51.000Z</time>
      </trkpt>
      <trkpt lat="44.97898" lon="1.08731">
        <ele>249</ele>
        <time>2017-10-01T09:56:52.000Z</time>
      </trkpt>
      <trkpt lat="44.979" lon="1.08734">
        <ele>250</ele>
        <time>2017-10-01T09:56:53.000Z</time>
      </trkpt>
      <trkpt lat="44.97901" lon="1.08736">
        <ele>250</ele>
        <time>2017-10-01T09:56:54.000Z</time>
      </trkpt>
      <trkpt lat="44.97903" lon="1.08739">
        <ele>250</ele>
        <time>2017-10-01T09:56:55.000Z</time>
      </trkpt>
      <trkpt lat="44.97904" lon="1.08742">
        <ele>250</ele>
        <time>2017-10-01T09:56:56.000Z</time>
      </trkpt>
      <trkpt lat="44.97906" lon="1.08745">
        <ele>251</ele>
        <time>2017-10-01T09:56:57.000Z</time>
      </trkpt>
      <trkpt lat="44.97907" lon="1.08748">
        <ele>251</ele>
        <time>2017-10-01T09:56:58.000Z</time>
      </trkpt>
      <trkpt lat="44.97908" lon="1.08751">
        <ele>251</ele>
        <time>2017-10-01T09:56:59.000Z</time>
      </trkpt>
      <trkpt lat="44.9791" lon="1.08753">
        <ele>252</ele>
        <time>2017-10-01T09:57:00.000Z</time>
      </trkpt>
      <trkpt lat="44.97911" lon="1.08756">
        <ele>252</ele>
        <time>2017-10-01T09:57:01.000Z</time>
      </trkpt>
      <trkpt lat="44.97913" lon="1.08759">
        <ele>252</ele>
        <time>2017-10-01T09:57:02.000Z</time>
      </trkpt>
      <trkpt lat="44.97914" lon="1.08762">
        <ele>252</ele>
        <time>2017-10-01T09:57:03.000Z</time>
      </trkpt>
      <trkpt lat="44.97915" lon="1.08764">
        <ele>253</ele>
        <time>2017-10-01T09:57:04.000Z</time>
      </trkpt>
      <trkpt lat="44.97917" lon="1.08767">
        <ele>253</ele>
        <time>2017-10-01T09:57:05.000Z</time>
      </trkpt>
      <trkpt lat="44.97918" lon="1.0877">
        <ele>253</ele>
        <time>2017-10-01T09:57:06.000Z</time>
      </trkpt>
      <trkpt lat="44.97919" lon="1.08773">
        <ele>253</ele>
        <time>2017-10-01T09:57:07.000Z</time>
      </trkpt>
      <trkpt lat="44.9792" lon="1.08775">
        <ele>253</ele>
        <time>2017-10-01T09:57:08.000Z</time>
      </trkpt>
      <trkpt lat="44.97921" lon="1.08778">
        <ele>253</ele>
        <time>2017-10-01T09:57:09.000Z</time>
      </trkpt>
      <trkpt lat="44.97922" lon="1.08781">
        <ele>253</ele>
        <time>2017-10-01T09:57:10.000Z</time>
      </trkpt>
      <trkpt lat="44.97923" lon="1.08784">
        <ele>253</ele>
        <time>2017-10-01T09:57:11.000Z</time>
      </trkpt>
      <trkpt lat="44.97924" lon="1.08788">
        <ele>253</ele>
        <time>2017-10-01T09:57:12.000Z</time>
      </trkpt>
      <trkpt lat="44.97924" lon="1.08791">
        <ele>253</ele>
        <time>2017-10-01T09:57:13.000Z</time>
      </trkpt>
      <trkpt lat="44.97925" lon="1.08795">
        <ele>253</ele>
        <time>2017-10-01T09:57:14.000Z</time>
      </trkpt>
      <trkpt lat="44.97926" lon="1.08799">
        <ele>253</ele>
        <time>2017-10-01T09:57:15.000Z</time>
      </trkpt>
      <trkpt lat="44.97926" lon="1.08803">
        <ele>253</ele>
        <time>2017-10-01T09:57:16.000Z</time>
      </trkpt>
      <trkpt lat="44.97926" lon="1.08807">
        <ele>253</ele>
        <time>2017-10-01T09:57:17.000Z</time>
      </trkpt>
      <trkpt lat="44.97926" lon="1.08811">
        <ele>253</ele>
        <time>2017-10-01T09:57:18.000Z</time>
      </trkpt>
      <trkpt lat="44.97926" lon="1.08815">
        <ele>253</ele>
        <time>2017-10-01T09:57:19.000Z</time>
      </trkpt>
      <trkpt lat="44.97926" lon="1.0882">
        <ele>252</ele>
        <time>2017-10-01T09:57:20.000Z</time>
      </trkpt>
      <trkpt lat="44.97925" lon="1.08825">
        <ele>252</ele>
        <time>2017-10-01T09:57:21.000Z</time>
      </trkpt>
      <trkpt lat="44.97924" lon="1.08829">
        <ele>252</ele>
        <time>2017-10-01T09:57:22.000Z</time>
      </trkpt>
      <trkpt lat="44.97923" lon="1.08834">
        <ele>252</ele>
        <time>2017-10-01T09:57:23.000Z</time>
      </trkpt>
      <trkpt lat="44.97922" lon="1.08838">
        <ele>252</ele>
        <time>2017-10-01T09:57:24.000Z</time>
      </trkpt>
      <trkpt lat="44.97921" lon="1.08843">
        <ele>252</ele>
        <time>2017-10-01T09:57:25.000Z</time>
      </trkpt>
      <trkpt lat="44.97919" lon="1.08847">
        <ele>252</ele>
        <time>2017-10-01T09:57:26.000Z</time>
      </trkpt>
      <trkpt lat="44.97917" lon="1.08851">
        <ele>252</ele>
        <time>2017-10-01T09:57:27.000Z</time>
      </trkpt>
      <trkpt lat="44.97915" lon="1.08856">
        <ele>251</ele>
        <time>2017-10-01T09:57:28.000Z</time>
      </trkpt>
      <trkpt lat="44.97913" lon="1.0886">
        <ele>251</ele>
        <time>2017-10-01T09:57:29.000Z</time>
      </trkpt>
      <trkpt lat="44.97911" lon="1.08865">
        <ele>251</ele>
        <time>2017-10-01T09:57:30.000Z</time>
      </trkpt>
      <trkpt lat="44.97909" lon="1.0887">
        <ele>251</ele>
        <time>2017-10-01T09:57:31.000Z</time>
      </trkpt>
      <trkpt lat="44.97907" lon="1.08875">
        <ele>251</ele>
        <time>2017-10-01T09:57:32.000Z</time>
      </trkpt>
      <trkpt lat="44.97905" lon="1.0888">
        <ele>251</ele>
        <time>2017-10-01T09:57:33.000Z</time>
      </trkpt>
      <trkpt lat="44.97903" lon="1.08886">
        <ele>251</ele>
        <time>2017-10-01T09:57:34.000Z</time>
      </trkpt>
      <trkpt lat="44.979" lon="1.08891">
        <ele>251</ele>
        <time>2017-10-01T09:57:35.000Z</time>
      </trkpt>
      <trkpt lat="44.97897" lon="1.08895">
        <ele>251</ele>
        <time>2017-10-01T09:57:36.000Z</time>
      </trkpt>
      <trkpt lat="44.97895" lon="1.089">
        <ele>251</ele>
        <time>2017-10-01T09:57:37.000Z</time>
      </trkpt>
      <trkpt lat="44.97892" lon="1.08904">
        <ele>251</ele>
        <time>2017-10-01T09:57:38.000Z</time>
      </trkpt>
      <trkpt lat="44.9789" lon="1.08909">
        <ele>251</ele>
        <time>2017-10-01T09:57:39.000Z</time>
      </trkpt>
      <trkpt lat="44.97888" lon="1.08912">
        <ele>251</ele>
        <time>2017-10-01T09:57:40.000Z</time>
      </trkpt>
      <trkpt lat="44.97886" lon="1.08916">
        <ele>252</ele>
        <time>2017-10-01T09:57:41.000Z</time>
      </trkpt>
      <trkpt lat="44.97885" lon="1.0892">
        <ele>252</ele>
        <time>2017-10-01T09:57:42.000Z</time>
      </trkpt>
      <trkpt lat="44.97883" lon="1.08923">
        <ele>251</ele>
        <time>2017-10-01T09:57:43.000Z</time>
      </trkpt>
      <trkpt lat="44.97882" lon="1.08926">
        <ele>251</ele>
        <time>2017-10-01T09:57:44.000Z</time>
      </trkpt>
      <trkpt lat="44.97882" lon="1.08929">
        <ele>251</ele>
        <time>2017-10-01T09:57:45.000Z</time>
      </trkpt>
      <trkpt lat="44.97882" lon="1.08932">
        <ele>252</ele>
        <time>2017-10-01T09:57:46.000Z</time>
      </trkpt>
      <trkpt lat="44.97881" lon="1.08935">
        <ele>252</ele>
        <time>2017-10-01T09:57:47.000Z</time>
      </trkpt>
      <trkpt lat="44.97881" lon="1.08937">
        <ele>252</ele>
        <time>2017-10-01T09:57:48.000Z</time>
      </trkpt>
      <trkpt lat="44.97881" lon="1.0894">
        <ele>252</ele>
        <time>2017-10-01T09:57:49.000Z</time>
      </trkpt>
      <trkpt lat="44.97881" lon="1.08942">
        <ele>252</ele>
        <time>2017-10-01T09:57:50.000Z</time>
      </trkpt>
      <trkpt lat="44.97881" lon="1.08944">
        <ele>252</ele>
        <time>2017-10-01T09:57:51.000Z</time>
      </trkpt>
      <trkpt lat="44.9788" lon="1.08947">
        <ele>252</ele>
        <time>2017-10-01T09:57:52.000Z</time>
      </trkpt>
      <trkpt lat="44.9788" lon="1.08949">
        <ele>252</ele>
        <time>2017-10-01T09:57:53.000Z</time>
      </trkpt>
      <trkpt lat="44.97879" lon="1.08952">
        <ele>252</ele>
        <time>2017-10-01T09:57:54.000Z</time>
      </trkpt>
      <trkpt lat="44.97879" lon="1.08955">
        <ele>252</ele>
        <time>2017-10-01T09:57:55.000Z</time>
      </trkpt>
      <trkpt lat="44.97878" lon="1.08958">
        <ele>252</ele>
        <time>2017-10-01T09:57:56.000Z</time>
      </trkpt>
      <trkpt lat="44.97877" lon="1.08962">
        <ele>252</ele>
        <time>2017-10-01T09:57:57.000Z</time>
      </trkpt>
      <trkpt lat="44.97877" lon="1.08965">
        <ele>252</ele>
        <time>2017-10-01T09:57:58.000Z</time>
      </trkpt>
      <trkpt lat="44.97876" lon="1.08969">
        <ele>252</ele>
        <time>2017-10-01T09:57:59.000Z</time>
      </trkpt>
      <trkpt lat="44.97875" lon="1.08972">
        <ele>252</ele>
        <time>2017-10-01T09:58:00.000Z</time>
      </trkpt>
      <trkpt lat="44.97875" lon="1.08974">
        <ele>252</ele>
        <time>2017-10-01T09:58:01.000Z</time>
      </trkpt>
      <trkpt lat="44.97875" lon="1.08977">
        <ele>252</ele>
        <time>2017-10-01T09:58:02.000Z</time>
      </trkpt>
      <trkpt lat="44.97874" lon="1.08979">
        <ele>252</ele>
        <time>2017-10-01T09:58:03.000Z</time>
      </trkpt>
      <trkpt lat="44.97874" lon="1.08981">
        <ele>252</ele>
        <time>2017-10-01T09:58:04.000Z</time>
      </trkpt>
      <trkpt lat="44.97874" lon="1.08983">
        <ele>253</ele>
        <time>2017-10-01T09:58:05.000Z</time>
      </trkpt>
      <trkpt lat="44.97875" lon="1.08985">
        <ele>253</ele>
        <time>2017-10-01T09:58:06.000Z</time>
      </trkpt>
      <trkpt lat="44.97875" lon="1.08987">
        <ele>253</ele>
        <time>2017-10-01T09:58:07.000Z</time>
      </trkpt>
      <trkpt lat="44.97876" lon="1.0899">
        <ele>253</ele>
        <time>2017-10-01T09:58:08.000Z</time>
      </trkpt>
      <trkpt lat="44.97876" lon="1.08993">
        <ele>253</ele>
        <time>2017-10-01T09:58:09.000Z</time>
      </trkpt>
      <trkpt lat="44.97877" lon="1.08996">
        <ele>253</ele>
        <time>2017-10-01T09:58:10.000Z</time>
      </trkpt>
      <trkpt lat="44.97877" lon="1.08998">
        <ele>253</ele>
        <time>2017-10-01T09:58:11.000Z</time>
      </trkpt>
      <trkpt lat="44.97879" lon="1.09">
        <ele>253</ele>
        <time>2017-10-01T09:58:12.000Z</time>
      </trkpt>
      <trkpt lat="44.97881" lon="1.09001">
        <ele>253</ele>
        <time>2017-10-01T09:58:13.000Z</time>
      </trkpt>
      <trkpt lat="44.97883" lon="1.09002">
        <ele>253</ele>
        <time>2017-10-01T09:58:14.000Z</time>
      </trkpt>
      <trkpt lat="44.97885" lon="1.09002">
        <ele>253</ele>
        <time>2017-10-01T09:58:15.000Z</time>
      </trkpt>
      <trkpt lat="44.97887" lon="1.09003">
        <ele>253</ele>
        <time>2017-10-01T09:58:16.000Z</time>
      </trkpt>
      <trkpt lat="44.97889" lon="1.09004">
        <ele>252</ele>
        <time>2017-10-01T09:58:17.000Z</time>
      </trkpt>
      <trkpt lat="44.97891" lon="1.09005">
        <ele>252</ele>
        <time>2017-10-01T09:58:18.000Z</time>
      </trkpt>
      <trkpt lat="44.97892" lon="1.09007">
        <ele>252</ele>
        <time>2017-10-01T09:58:19.000Z</time>
      </trkpt>
      <trkpt lat="44.97893" lon="1.09009">
        <ele>252</ele>
        <time>2017-10-01T09:58:20.000Z</time>
      </trkpt>
      <trkpt lat="44.97894" lon="1.09011">
        <ele>252</ele>
        <time>2017-10-01T09:58:21.000Z</time>
      </trkpt>
      <trkpt lat="44.97894" lon="1.09014">
        <ele>251</ele>
        <time>2017-10-01T09:58:22.000Z</time>
      </trkpt>
      <trkpt lat="44.97893" lon="1.09017">
        <ele>251</ele>
        <time>2017-10-01T09:58:23.000Z</time>
      </trkpt>
      <trkpt lat="44.97891" lon="1.0902">
        <ele>251</ele>
        <time>2017-10-01T09:58:24.000Z</time>
      </trkpt>
      <trkpt lat="44.97888" lon="1.09024">
        <ele>251</ele>
        <time>2017-10-01T09:58:25.000Z</time>
      </trkpt>
      <trkpt lat="44.97885" lon="1.09028">
        <ele>250</ele>
        <time>2017-10-01T09:58:26.000Z</time>
      </trkpt>
      <trkpt lat="44.97881" lon="1.09032">
        <ele>250</ele>
        <time>2017-10-01T09:58:27.000Z</time>
      </trkpt>
      <trkpt lat="44.97877" lon="1.09038">
        <ele>250</ele>
        <time>2017-10-01T09:58:28.000Z</time>
      </trkpt>
      <trkpt lat="44.97873" lon="1.09043">
        <ele>249</ele>
        <time>2017-10-01T09:58:29.000Z</time>
      </trkpt>
      <trkpt lat="44.97869" lon="1.09049">
        <ele>249</ele>
        <time>2017-10-01T09:58:30.000Z</time>
      </trkpt>
      <trkpt lat="44.97865" lon="1.09056">
        <ele>248</ele>
        <time>2017-10-01T09:58:31.000Z</time>
      </trkpt>
      <trkpt lat="44.9786" lon="1.09064">
        <ele>248</ele>
        <time>2017-10-01T09:58:32.000Z</time>
      </trkpt>
      <trkpt lat="44.97855" lon="1.09072">
        <ele>247</ele>
        <time>2017-10-01T09:58:33.000Z</time>
      </trkpt>
      <trkpt lat="44.9785" lon="1.09081">
        <ele>247</ele>
        <time>2017-10-01T09:58:34.000Z</time>
      </trkpt>
      <trkpt lat="44.97845" lon="1.0909">
        <ele>246</ele>
        <time>2017-10-01T09:58:35.000Z</time>
      </trkpt>
      <trkpt lat="44.9784" lon="1.09098">
        <ele>246</ele>
        <time>2017-10-01T09:58:36.000Z</time>
      </trkpt>
      <trkpt lat="44.97835" lon="1.09106">
        <ele>245</ele>
        <time>2017-10-01T09:58:37.000Z</time>
      </trkpt>
      <trkpt lat="44.97831" lon="1.09114">
        <ele>244</ele>
        <time>2017-10-01T09:58:38.000Z</time>
      </trkpt>
      <trkpt lat="44.97827" lon="1.0912">
        <ele>243</ele>
        <time>2017-10-01T09:58:39.000Z</time>
      </trkpt>
      <trkpt lat="44.97824" lon="1.09126">
        <ele>243</ele>
        <time>2017-10-01T09:58:40.000Z</time>
      </trkpt>
      <trkpt lat="44.9782" lon="1.09134">
        <ele>242</ele>
        <time>2017-10-01T09:58:41.000Z</time>
      </trkpt>
      <trkpt lat="44.97816" lon="1.09141">
        <ele>241</ele>
        <time>2017-10-01T09:58:42.000Z</time>
      </trkpt>
      <trkpt lat="44.97812" lon="1.09147">
        <ele>241</ele>
        <time>2017-10-01T09:58:43.000Z</time>
      </trkpt>
      <trkpt lat="44.97806" lon="1.09153">
        <ele>240</ele>
        <time>2017-10-01T09:58:44.000Z</time>
      </trkpt>
      <trkpt lat="44.97801" lon="1.0916">
        <ele>240</ele>
        <time>2017-10-01T09:58:45.000Z</time>
      </trkpt>
      <trkpt lat="44.97797" lon="1.09167">
        <ele>239</ele>
        <time>2017-10-01T09:58:46.000Z</time>
      </trkpt>
      <trkpt lat="44.97792" lon="1.09174">
        <ele>238</ele>
        <time>2017-10-01T09:58:47.000Z</time>
      </trkpt>
      <trkpt lat="44.97788" lon="1.09182">
        <ele>238</ele>
        <time>2017-10-01T09:58:48.000Z</time>
      </trkpt>
      <trkpt lat="44.97784" lon="1.09191">
        <ele>236</ele>
        <time>2017-10-01T09:58:49.000Z</time>
      </trkpt>
      <trkpt lat="44.9778" lon="1.092">
        <ele>235</ele>
        <time>2017-10-01T09:58:50.000Z</time>
      </trkpt>
      <trkpt lat="44.97776" lon="1.09209">
        <ele>234</ele>
        <time>2017-10-01T09:58:51.000Z</time>
      </trkpt>
      <trkpt lat="44.97773" lon="1.09217">
        <ele>233</ele>
        <time>2017-10-01T09:58:52.000Z</time>
      </trkpt>
      <trkpt lat="44.97769" lon="1.09226">
        <ele>232</ele>
        <time>2017-10-01T09:58:53.000Z</time>
      </trkpt>
      <trkpt lat="44.97765" lon="1.09235">
        <ele>231</ele>
        <time>2017-10-01T09:58:54.000Z</time>
      </trkpt>
      <trkpt lat="44.9776" lon="1.09243">
        <ele>230</ele>
        <time>2017-10-01T09:58:55.000Z</time>
      </trkpt>
      <trkpt lat="44.97755" lon="1.09251">
        <ele>229</ele>
        <time>2017-10-01T09:58:56.000Z</time>
      </trkpt>
      <trkpt lat="44.97751" lon="1.09259">
        <ele>229</ele>
        <time>2017-10-01T09:58:57.000Z</time>
      </trkpt>
      <trkpt lat="44.97746" lon="1.09267">
        <ele>228</ele>
        <time>2017-10-01T09:58:58.000Z</time>
      </trkpt>
      <trkpt lat="44.97742" lon="1.09275">
        <ele>227</ele>
        <time>2017-10-01T09:58:59.000Z</time>
      </trkpt>
      <trkpt lat="44.97738" lon="1.09282">
        <ele>227</ele>
        <time>2017-10-01T09:59:00.000Z</time>
      </trkpt>
      <trkpt lat="44.97733" lon="1.09288">
        <ele>226</ele>
        <time>2017-10-01T09:59:01.000Z</time>
      </trkpt>
      <trkpt lat="44.97729" lon="1.09295">
        <ele>226</ele>
        <time>2017-10-01T09:59:02.000Z</time>
      </trkpt>
      <trkpt lat="44.97725" lon="1.09303">
        <ele>225</ele>
        <time>2017-10-01T09:59:03.000Z</time>
      </trkpt>
      <trkpt lat="44.9772" lon="1.0931">
        <ele>224</ele>
        <time>2017-10-01T09:59:04.000Z</time>
      </trkpt>
      <trkpt lat="44.97714" lon="1.09318">
        <ele>223</ele>
        <time>2017-10-01T09:59:05.000Z</time>
      </trkpt>
      <trkpt lat="44.97708" lon="1.09325">
        <ele>223</ele>
        <time>2017-10-01T09:59:06.000Z</time>
      </trkpt>
      <trkpt lat="44.97701" lon="1.09332">
        <ele>222</ele>
        <time>2017-10-01T09:59:07.000Z</time>
      </trkpt>
      <trkpt lat="44.97694" lon="1.09339">
        <ele>221</ele>
        <time>2017-10-01T09:59:08.000Z</time>
      </trkpt>
      <trkpt lat="44.97687" lon="1.09344">
        <ele>220</ele>
        <time>2017-10-01T09:59:09.000Z</time>
      </trkpt>
      <trkpt lat="44.97679" lon="1.09349">
        <ele>220</ele>
        <time>2017-10-01T09:59:10.000Z</time>
      </trkpt>
      <trkpt lat="44.97672" lon="1.09353">
        <ele>219</ele>
        <time>2017-10-01T09:59:11.000Z</time>
      </trkpt>
      <trkpt lat="44.97665" lon="1.09359">
        <ele>218</ele>
        <time>2017-10-01T09:59:12.000Z</time>
      </trkpt>
      <trkpt lat="44.97659" lon="1.09365">
        <ele>217</ele>
        <time>2017-10-01T09:59:13.000Z</time>
      </trkpt>
      <trkpt lat="44.97656" lon="1.09373">
        <ele>216</ele>
        <time>2017-10-01T09:59:14.000Z</time>
      </trkpt>
      <trkpt lat="44.97653" lon="1.09383">
        <ele>214</ele>
        <time>2017-10-01T09:59:15.000Z</time>
      </trkpt>
      <trkpt lat="44.97652" lon="1.09393">
        <ele>212</ele>
        <time>2017-10-01T09:59:16.000Z</time>
      </trkpt>
      <trkpt lat="44.97652" lon="1.09403">
        <ele>211</ele>
        <time>2017-10-01T09:59:17.000Z</time>
      </trkpt>
      <trkpt lat="44.97652" lon="1.09411">
        <ele>209</ele>
        <time>2017-10-01T09:59:18.000Z</time>
      </trkpt>
      <trkpt lat="44.97652" lon="1.09418">
        <ele>208</ele>
        <time>2017-10-01T09:59:19.000Z</time>
      </trkpt>
      <trkpt lat="44.97651" lon="1.09423">
        <ele>208</ele>
        <time>2017-10-01T09:59:20.000Z</time>
      </trkpt>
      <trkpt lat="44.97649" lon="1.09428">
        <ele>208</ele>
        <time>2017-10-01T09:59:21.000Z</time>
      </trkpt>
      <trkpt lat="44.97647" lon="1.09431">
        <ele>208</ele>
        <time>2017-10-01T09:59:22.000Z</time>
      </trkpt>
      <trkpt lat="44.97644" lon="1.09432">
        <ele>208</ele>
        <time>2017-10-01T09:59:23.000Z</time>
      </trkpt>
      <trkpt lat="44.97642" lon="1.09432">
        <ele>208</ele>
        <time>2017-10-01T09:59:24.000Z</time>
      </trkpt>
      <trkpt lat="44.97639" lon="1.09431">
        <ele>208</ele>
        <time>2017-10-01T09:59:25.000Z</time>
      </trkpt>
      <trkpt lat="44.97637" lon="1.09429">
        <ele>208</ele>
        <time>2017-10-01T09:59:26.000Z</time>
      </trkpt>
      <trkpt lat="44.97635" lon="1.09428">
        <ele>209</ele>
        <time>2017-10-01T09:59:27.000Z</time>
      </trkpt>
      <trkpt lat="44.97634" lon="1.09427">
        <ele>209</ele>
        <time>2017-10-01T09:59:29.000Z</time>
      </trkpt>
      <trkpt lat="44.97634" lon="1.09427">
        <ele>209</ele>
        <time>2017-10-01T09:59:29.000Z</time>
      </trkpt>
      <trkpt lat="44.97634" lon="1.09429">
        <ele>209</ele>
        <time>2017-10-01T09:59:30.000Z</time>
      </trkpt>
      <trkpt lat="44.97635" lon="1.09431">
        <ele>208</ele>
        <time>2017-10-01T09:59:31.000Z</time>
      </trkpt>
      <trkpt lat="44.97636" lon="1.09433">
        <ele>208</ele>
        <time>2017-10-01T09:59:32.000Z</time>
      </trkpt>
      <trkpt lat="44.97638" lon="1.09434">
        <ele>208</ele>
        <time>2017-10-01T09:59:33.000Z</time>
      </trkpt>
      <trkpt lat="44.97641" lon="1.09435">
        <ele>208</ele>
        <time>2017-10-01T09:59:34.000Z</time>
      </trkpt>
      <trkpt lat="44.97644" lon="1.09434">
        <ele>208</ele>
        <time>2017-10-01T09:59:35.000Z</time>
      </trkpt>
      <trkpt lat="44.97648" lon="1.09434">
        <ele>207</ele>
        <time>2017-10-01T09:59:36.000Z</time>
      </trkpt>
      <trkpt lat="44.97652" lon="1.09432">
        <ele>207</ele>
        <time>2017-10-01T09:59:37.000Z</time>
      </trkpt>
      <trkpt lat="44.97656" lon="1.09431">
        <ele>207</ele>
        <time>2017-10-01T09:59:38.000Z</time>
      </trkpt>
      <trkpt lat="44.97661" lon="1.09428">
        <ele>207</ele>
        <time>2017-10-01T09:59:39.000Z</time>
      </trkpt>
      <trkpt lat="44.97666" lon="1.09426">
        <ele>207</ele>
        <time>2017-10-01T09:59:40.000Z</time>
      </trkpt>
      <trkpt lat="44.97671" lon="1.09423">
        <ele>207</ele>
        <time>2017-10-01T09:59:41.000Z</time>
      </trkpt>
      <trkpt lat="44.97676" lon="1.09421">
        <ele>207</ele>
        <time>2017-10-01T09:59:42.000Z</time>
      </trkpt>
      <trkpt lat="44.97681" lon="1.0942">
        <ele>207</ele>
        <time>2017-10-01T09:59:43.000Z</time>
      </trkpt>
      <trkpt lat="44.97686" lon="1.0942">
        <ele>208</ele>
        <time>2017-10-01T09:59:44.000Z</time>
      </trkpt>
      <trkpt lat="44.9769" lon="1.09419">
        <ele>208</ele>
        <time>2017-10-01T09:59:45.000Z</time>
      </trkpt>
      <trkpt lat="44.97694" lon="1.09418">
        <ele>208</ele>
        <time>2017-10-01T09:59:46.000Z</time>
      </trkpt>
      <trkpt lat="44.97698" lon="1.09418">
        <ele>208</ele>
        <time>2017-10-01T09:59:47.000Z</time>
      </trkpt>
      <trkpt lat="44.97701" lon="1.09418">
        <ele>208</ele>
        <time>2017-10-01T09:59:48.000Z</time>
      </trkpt>
      <trkpt lat="44.97704" lon="1.09417">
        <ele>208</ele>
        <time>2017-10-01T09:59:49.000Z</time>
      </trkpt>
      <trkpt lat="44.97707" lon="1.09417">
        <ele>208</ele>
        <time>2017-10-01T09:59:50.000Z</time>
      </trkpt>
      <trkpt lat="44.9771" lon="1.09417">
        <ele>208</ele>
        <time>2017-10-01T09:59:51.000Z</time>
      </trkpt>
      <trkpt lat="44.97713" lon="1.09416">
        <ele>208</ele>
        <time>2017-10-01T09:59:52.000Z</time>
      </trkpt>
      <trkpt lat="44.97716" lon="1.09416">
        <ele>208</ele>
        <time>2017-10-01T09:59:53.000Z</time>
      </trkpt>
      <trkpt lat="44.97718" lon="1.09416">
        <ele>208</ele>
        <time>2017-10-01T09:59:54.000Z</time>
      </trkpt>
      <trkpt lat="44.97721" lon="1.09416">
        <ele>208</ele>
        <time>2017-10-01T09:59:55.000Z</time>
      </trkpt>
      <trkpt lat="44.97724" lon="1.09416">
        <ele>208</ele>
        <time>2017-10-01T09:59:56.000Z</time>
      </trkpt>
      <trkpt lat="44.97727" lon="1.09415">
        <ele>208</ele>
        <time>2017-10-01T09:59:57.000Z</time>
      </trkpt>
      <trkpt lat="44.9773" lon="1.09415">
        <ele>209</ele>
        <time>2017-10-01T09:59:58.000Z</time>
      </trkpt>
      <trkpt lat="44.97734" lon="1.09415">
        <ele>209</ele>
        <time>2017-10-01T09:59:59.000Z</time>
      </trkpt>
      <trkpt lat="44.97737" lon="1.09414">
        <ele>209</ele>
        <time>2017-10-01T10:00:00.000Z</time>
      </trkpt>
      <trkpt lat="44.97741" lon="1.09414">
        <ele>209</ele>
        <time>2017-10-01T10:00:01.000Z</time>
      </trkpt>
      <trkpt lat="44.97744" lon="1.09414">
        <ele>209</ele>
        <time>2017-10-01T10:00:02.000Z</time>
      </trkpt>
      <trkpt lat="44.97748" lon="1.09413">
        <ele>209</ele>
        <time>2017-10-01T10:00:03.000Z</time>
      </trkpt>
      <trkpt lat="44.97751" lon="1.09413">
        <ele>209</ele>
        <time>2017-10-01T10:00:04.000Z</time>
      </trkpt>
      <trkpt lat="44.97755" lon="1.09413">
        <ele>209</ele>
        <time>2017-10-01T10:00:05.000Z</time>
      </trkpt>
      <trkpt lat="44.97758" lon="1.09413">
        <ele>209</ele>
        <time>2017-10-01T10:00:06.000Z</time>
      </trkpt>
      <trkpt lat="44.97762" lon="1.09413">
        <ele>209</ele>
        <time>2017-10-01T10:00:07.000Z</time>
      </trkpt>
      <trkpt lat="44.97766" lon="1.09414">
        <ele>209</ele>
        <time>2017-10-01T10:00:08.000Z</time>
      </trkpt>
      <trkpt lat="44.97769" lon="1.09415">
        <ele>208</ele>
        <time>2017-10-01T10:00:09.000Z</time>
      </trkpt>
      <trkpt lat="44.97774" lon="1.09416">
        <ele>208</ele>
        <time>2017-10-01T10:00:10.000Z</time>
      </trkpt>
      <trkpt lat="44.97778" lon="1.09417">
        <ele>208</ele>
        <time>2017-10-01T10:00:11.000Z</time>
      </trkpt>
      <trkpt lat="44.97783" lon="1.09419">
        <ele>208</ele>
        <time>2017-10-01T10:00:12.000Z</time>
      </trkpt>
      <trkpt lat="44.97787" lon="1.09421">
        <ele>207</ele>
        <time>2017-10-01T10:00:13.000Z</time>
      </trkpt>
      <trkpt lat="44.97792" lon="1.09423">
        <ele>207</ele>
        <time>2017-10-01T10:00:14.000Z</time>
      </trkpt>
      <trkpt lat="44.97797" lon="1.09426">
        <ele>207</ele>
        <time>2017-10-01T10:00:15.000Z</time>
      </trkpt>
      <trkpt lat="44.97802" lon="1.09428">
        <ele>207</ele>
        <time>2017-10-01T10:00:16.000Z</time>
      </trkpt>
      <trkpt lat="44.97808" lon="1.09431">
        <ele>206</ele>
        <time>2017-10-01T10:00:17.000Z</time>
      </trkpt>
      <trkpt lat="44.97813" lon="1.09434">
        <ele>206</ele>
        <time>2017-10-01T10:00:18.000Z</time>
      </trkpt>
      <trkpt lat="44.97819" lon="1.09437">
        <ele>206</ele>
        <time>2017-10-01T10:00:19.000Z</time>
      </trkpt>
      <trkpt lat="44.97824" lon="1.09439">
        <ele>206</ele>
        <time>2017-10-01T10:00:20.000Z</time>
      </trkpt>
      <trkpt lat="44.9783" lon="1.09442">
        <ele>206</ele>
        <time>2017-10-01T10:00:21.000Z</time>
      </trkpt>
      <trkpt lat="44.97836" lon="1.09445">
        <ele>206</ele>
        <time>2017-10-01T10:00:22.000Z</time>
      </trkpt>
      <trkpt lat="44.97841" lon="1.09447">
        <ele>206</ele>
        <time>2017-10-01T10:00:23.000Z</time>
      </trkpt>
      <trkpt lat="44.97846" lon="1.09449">
        <ele>207</ele>
        <time>2017-10-01T10:00:24.000Z</time>
      </trkpt>
      <trkpt lat="44.97851" lon="1.0945">
        <ele>207</ele>
        <time>2017-10-01T10:00:25.000Z</time>
      </trkpt>
      <trkpt lat="44.97856" lon="1.09453">
        <ele>208</ele>
        <time>2017-10-01T10:00:26.000Z</time>
      </trkpt>
      <trkpt lat="44.97859" lon="1.09456">
        <ele>208</ele>
        <time>2017-10-01T10:00:27.000Z</time>
      </trkpt>
      <trkpt lat="44.97861" lon="1.09459">
        <ele>208</ele>
        <time>2017-10-01T10:00:28.000Z</time>
      </trkpt>
      <trkpt lat="44.97861" lon="1.09464">
        <ele>208</ele>
        <time>2017-10-01T10:00:29.000Z</time>
      </trkpt>
      <trkpt lat="44.97859" lon="1.09469">
        <ele>208</ele>
        <time>2017-10-01T10:00:30.000Z</time>
      </trkpt>
      <trkpt lat="44.97856" lon="1.09474">
        <ele>208</ele>
        <time>2017-10-01T10:00:31.000Z</time>
      </trkpt>
      <trkpt lat="44.97853" lon="1.0948">
        <ele>207</ele>
        <time>2017-10-01T10:00:32.000Z</time>
      </trkpt>
      <trkpt lat="44.9785" lon="1.09485">
        <ele>206</ele>
        <time>2017-10-01T10:00:33.000Z</time>
      </trkpt>
      <trkpt lat="44.97847" lon="1.09491">
        <ele>206</ele>
        <time>2017-10-01T10:00:34.000Z</time>
      </trkpt>
      <trkpt lat="44.97845" lon="1.09498">
        <ele>205</ele>
        <time>2017-10-01T10:00:35.000Z</time>
      </trkpt>
      <trkpt lat="44.97844" lon="1.09504">
        <ele>205</ele>
        <time>2017-10-01T10:00:36.000Z</time>
      </trkpt>
      <trkpt lat="44.97842" lon="1.09512">
        <ele>205</ele>
        <time>2017-10-01T10:00:37.000Z</time>
      </trkpt>
      <trkpt lat="44.9784" lon="1.0952">
        <ele>205</ele>
        <time>2017-10-01T10:00:38.000Z</time>
      </trkpt>
      <trkpt lat="44.97838" lon="1.09528">
        <ele>204</ele>
        <time>2017-10-01T10:00:39.000Z</time>
      </trkpt>
      <trkpt lat="44.97836" lon="1.09536">
        <ele>204</ele>
        <time>2017-10-01T10:00:40.000Z</time>
      </trkpt>
      <trkpt lat="44.97834" lon="1.09543">
        <ele>204</ele>
        <time>2017-10-01T10:00:41.000Z</time>
      </trkpt>
      <trkpt lat="44.97832" lon="1.09551">
        <ele>203</ele>
        <time>2017-10-01T10:00:42.000Z</time>
      </trkpt>
      <trkpt lat="44.9783" lon="1.09557">
        <ele>203</ele>
        <time>2017-10-01T10:00:43.000Z</time>
      </trkpt>
      <trkpt lat="44.97829" lon="1.09564">
        <ele>203</ele>
        <time>2017-10-01T10:00:44.000Z</time>
      </trkpt>
      <trkpt lat="44.97827" lon="1.09571">
        <ele>203</ele>
        <time>2017-10-01T10:00:45.000Z</time>
      </trkpt>
      <trkpt lat="44.97826" lon="1.09577">
        <ele>203</ele>
        <time>2017-10-01T10:00:46.000Z</time>
      </trkpt>
      <trkpt lat="44.97825" lon="1.09584">
        <ele>203</ele>
        <time>2017-10-01T10:00:47.000Z</time>
      </trkpt>
      <trkpt lat="44.97824" lon="1.09591">
        <ele>203</ele>
        <time>2017-10-01T10:00:48.000Z</time>
      </trkpt>
      <trkpt lat="44.97823" lon="1.09597">
        <ele>204</ele>
        <time>2017-10-01T10:00:49.000Z</time>
      </trkpt>
      <trkpt lat="44.97822" lon="1.09604">
        <ele>204</ele>
        <time>2017-10-01T10:00:50.000Z</time>
      </trkpt>
      <trkpt lat="44.97821" lon="1.0961">
        <ele>204</ele>
        <time>2017-10-01T10:00:51.000Z</time>
      </trkpt>
      <trkpt lat="44.9782" lon="1.09616">
        <ele>205</ele>
        <time>2017-10-01T10:00:52.000Z</time>
      </trkpt>
      <trkpt lat="44.97819" lon="1.09622">
        <ele>205</ele>
        <time>2017-10-01T10:00:53.000Z</time>
      </trkpt>
      <trkpt lat="44.97818" lon="1.09628">
        <ele>205</ele>
        <time>2017-10-01T10:00:54.000Z</time>
      </trkpt>
      <trkpt lat="44.97816" lon="1.09634">
        <ele>206</ele>
        <time>2017-10-01T10:00:55.000Z</time>
      </trkpt>
      <trkpt lat="44.97816" lon="1.0964">
        <ele>206</ele>
        <time>2017-10-01T10:00:56.000Z</time>
      </trkpt>
      <trkpt lat="44.97815" lon="1.09645">
        <ele>206</ele>
        <time>2017-10-01T10:00:57.000Z</time>
      </trkpt>
      <trkpt lat="44.97814" lon="1.0965">
        <ele>206</ele>
        <time>2017-10-01T10:00:58.000Z</time>
      </trkpt>
      <trkpt lat="44.97814" lon="1.09655">
        <ele>207</ele>
        <time>2017-10-01T10:00:59.000Z</time>
      </trkpt>
      <trkpt lat="44.97814" lon="1.09661">
        <ele>207</ele>
        <time>2017-10-01T10:01:00.000Z</time>
      </trkpt>
      <trkpt lat="44.97814" lon="1.09666">
        <ele>207</ele>
        <time>2017-10-01T10:01:01.000Z</time>
      </trkpt>
      <trkpt lat="44.97814" lon="1.09671">
        <ele>208</ele>
        <time>2017-10-01T10:01:02.000Z</time>
      </trkpt>
      <trkpt lat="44.97814" lon="1.09677">
        <ele>208</ele>
        <time>2017-10-01T10:01:03.000Z</time>
      </trkpt>
      <trkpt lat="44.97814" lon="1.09682">
        <ele>208</ele>
        <time>2017-10-01T10:01:04.000Z</time>
      </trkpt>
      <trkpt lat="44.97814" lon="1.09688">
        <ele>209</ele>
        <time>2017-10-01T10:01:05.000Z</time>
      </trkpt>
      <trkpt lat="44.97815" lon="1.09694">
        <ele>209</ele>
        <time>2017-10-01T10:01:06.000Z</time>
      </trkpt>
      <trkpt lat="44.97815" lon="1.097">
        <ele>210</ele>
        <time>2017-10-01T10:01:07.000Z</time>
      </trkpt>
      <trkpt lat="44.97815" lon="1.09706">
        <ele>210</ele>
        <time>2017-10-01T10:01:08.000Z</time>
      </trkpt>
      <trkpt lat="44.97816" lon="1.09711">
        <ele>211</ele>
        <time>2017-10-01T10:01:09.000Z</time>
      </trkpt>
      <trkpt lat="44.97816" lon="1.09717">
        <ele>211</ele>
        <time>2017-10-01T10:01:10.000Z</time>
      </trkpt>
      <trkpt lat="44.97817" lon="1.09722">
        <ele>211</ele>
        <time>2017-10-01T10:01:11.000Z</time>
      </trkpt>
      <trkpt lat="44.97817" lon="1.09727">
        <ele>212</ele>
        <time>2017-10-01T10:01:12.000Z</time>
      </trkpt>
      <trkpt lat="44.97818" lon="1.09731">
        <ele>212</ele>
        <time>2017-10-01T10:01:13.000Z</time>
      </trkpt>
      <trkpt lat="44.97818" lon="1.09735">
        <ele>212</ele>
        <time>2017-10-01T10:01:14.000Z</time>
      </trkpt>
      <trkpt lat="44.97818" lon="1.09739">
        <ele>213</ele>
        <time>2017-10-01T10:01:15.000Z</time>
      </trkpt>
      <trkpt lat="44.97819" lon="1.09742">
        <ele>213</ele>
        <time>2017-10-01T10:01:16.000Z</time>
      </trkpt>
      <trkpt lat="44.97819" lon="1.09744">
        <ele>213</ele>
        <time>2017-10-01T10:01:17.000Z</time>
      </trkpt>
      <trkpt lat="44.97819" lon="1.09747">
        <ele>213</ele>
        <time>2017-10-01T10:01:18.000Z</time>
      </trkpt>
      <trkpt lat="44.97819" lon="1.09749">
        <ele>214</ele>
        <time>2017-10-01T10:01:19.000Z</time>
      </trkpt>
      <trkpt lat="44.9782" lon="1.09751">
        <ele>214</ele>
        <time>2017-10-01T10:01:20.000Z</time>
      </trkpt>
      <trkpt lat="44.9782" lon="1.09754">
        <ele>214</ele>
        <time>2017-10-01T10:01:21.000Z</time>
      </trkpt>
      <trkpt lat="44.9782" lon="1.09756">
        <ele>214</ele>
        <time>2017-10-01T10:01:22.000Z</time>
      </trkpt>
      <trkpt lat="44.97821" lon="1.09758">
        <ele>214</ele>
        <time>2017-10-01T10:01:23.000Z</time>
      </trkpt>
      <trkpt lat="44.97821" lon="1.0976">
        <ele>214</ele>
        <time>2017-10-01T10:01:24.000Z</time>
      </trkpt>
      <trkpt lat="44.97821" lon="1.09761">
        <ele>214</ele>
        <time>2017-10-01T10:01:25.000Z</time>
      </trkpt>
      <trkpt lat="44.97821" lon="1.09762">
        <ele>214</ele>
        <time>2017-10-01T10:01:26.000Z</time>
      </trkpt>
      <trkpt lat="44.97822" lon="1.09763">
        <ele>214</ele>
        <time>2017-10-01T10:01:27.000Z</time>
      </trkpt>
      <trkpt lat="44.97822" lon="1.09765">
        <ele>214</ele>
        <time>2017-10-01T10:01:28.000Z</time>
      </trkpt>
      <trkpt lat="44.97822" lon="1.09767">
        <ele>215</ele>
        <time>2017-10-01T10:01:29.000Z</time>
      </trkpt>
      <trkpt lat="44.97823" lon="1.09769">
        <ele>215</ele>
        <time>2017-10-01T10:01:30.000Z</time>
      </trkpt>
      <trkpt lat="44.97823" lon="1.09771">
        <ele>215</ele>
        <time>2017-10-01T10:01:31.000Z</time>
      </trkpt>
      <trkpt lat="44.97824" lon="1.09773">
        <ele>215</ele>
        <time>2017-10-01T10:01:32.000Z</time>
      </trkpt>
      <trkpt lat="44.97824" lon="1.09775">
        <ele>215</ele>
        <time>2017-10-01T10:01:33.000Z</time>
      </trkpt>
      <trkpt lat="44.97824" lon="1.09777">
        <ele>215</ele>
        <time>2017-10-01T10:01:34.000Z</time>
      </trkpt>
      <trkpt lat="44.97825" lon="1.09779">
        <ele>215</ele>
        <time>2017-10-01T10:01:35.000Z</time>
      </trkpt>
      <trkpt lat="44.97825" lon="1.09781">
        <ele>216</ele>
        <time>2017-10-01T10:01:36.000Z</time>
      </trkpt>
      <trkpt lat="44.97826" lon="1.09784">
        <ele>216</ele>
        <time>2017-10-01T10:01:37.000Z</time>
      </trkpt>
      <trkpt lat="44.97827" lon="1.09786">
        <ele>216</ele>
        <time>2017-10-01T10:01:38.000Z</time>
      </trkpt>
      <trkpt lat="44.97827" lon="1.09788">
        <ele>216</ele>
        <time>2017-10-01T10:01:39.000Z</time>
      </trkpt>
      <trkpt lat="44.97828" lon="1.0979">
        <ele>216</ele>
        <time>2017-10-01T10:01:40.000Z</time>
      </trkpt>
      <trkpt lat="44.97829" lon="1.09792">
        <ele>217</ele>
        <time>2017-10-01T10:01:41.000Z</time>
      </trkpt>
      <trkpt lat="44.97829" lon="1.09793">
        <ele>217</ele>
        <time>2017-10-01T10:01:42.000Z</time>
      </trkpt>
      <trkpt lat="44.9783" lon="1.09795">
        <ele>217</ele>
        <time>2017-10-01T10:01:43.000Z</time>
      </trkpt>
      <trkpt lat="44.97831" lon="1.09797">
        <ele>217</ele>
        <time>2017-10-01T10:01:44.000Z</time>
      </trkpt>
      <trkpt lat="44.97831" lon="1.09798">
        <ele>218</ele>
        <time>2017-10-01T10:01:45.000Z</time>
      </trkpt>
      <trkpt lat="44.97832" lon="1.098">
        <ele>218</ele>
        <time>2017-10-01T10:01:46.000Z</time>
      </trkpt>
      <trkpt lat="44.97833" lon="1.09801">
        <ele>218</ele>
        <time>2017-10-01T10:01:47.000Z</time>
      </trkpt>
      <trkpt lat="44.97833" lon="1.09803">
        <ele>218</ele>
        <time>2017-10-01T10:01:48.000Z</time>
      </trkpt>
      <trkpt lat="44.97834" lon="1.09804">
        <ele>218</ele>
        <time>2017-10-01T10:01:49.000Z</time>
      </trkpt>
      <trkpt lat="44.97835" lon="1.09806">
        <ele>218</ele>
        <time>2017-10-01T10:01:50.000Z</time>
      </trkpt>
      <trkpt lat="44.97835" lon="1.09807">
        <ele>219</ele>
        <time>2017-10-01T10:01:51.000Z</time>
      </trkpt>
      <trkpt lat="44.97836" lon="1.09809">
        <ele>219</ele>
        <time>2017-10-01T10:01:52.000Z</time>
      </trkpt>
      <trkpt lat="44.97836" lon="1.0981">
        <ele>219</ele>
        <time>2017-10-01T10:01:53.000Z</time>
      </trkpt>
      <trkpt lat="44.97837" lon="1.09812">
        <ele>219</ele>
        <time>2017-10-01T10:01:54.000Z</time>
      </trkpt>
      <trkpt lat="44.97837" lon="1.09814">
        <ele>219</ele>
        <time>2017-10-01T10:01:55.000Z</time>
      </trkpt>
      <trkpt lat="44.97838" lon="1.09815">
        <ele>219</ele>
        <time>2017-10-01T10:01:56.000Z</time>
      </trkpt>
      <trkpt lat="44.97839" lon="1.09817">
        <ele>219</ele>
        <time>2017-10-01T10:01:57.000Z</time>
      </trkpt>
      <trkpt lat="44.97839" lon="1.09818">
        <ele>219</ele>
        <time>2017-10-01T10:01:58.000Z</time>
      </trkpt>
      <trkpt lat="44.9784" lon="1.0982">
        <ele>219</ele>
        <time>2017-10-01T10:01:59.000Z</time>
      </trkpt>
      <trkpt lat="44.9784" lon="1.09822">
        <ele>220</ele>
        <time>2017-10-01T10:02:00.000Z</time>
      </trkpt>
      <trkpt lat="44.97841" lon="1.09823">
        <ele>220</ele>
        <time>2017-10-01T10:02:01.000Z</time>
      </trkpt>
      <trkpt lat="44.97842" lon="1.09825">
        <ele>220</ele>
        <time>2017-10-01T10:02:02.000Z</time>
      </trkpt>
      <trkpt lat="44.97843" lon="1.09827">
        <ele>220</ele>
        <time>2017-10-01T10:02:03.000Z</time>
      </trkpt>
      <trkpt lat="44.97843" lon="1.09829">
        <ele>220</ele>
        <time>2017-10-01T10:02:04.000Z</time>
      </trkpt>
      <trkpt lat="44.97844" lon="1.09831">
        <ele>220</ele>
        <time>2017-10-01T10:02:05.000Z</time>
      </trkpt>
      <trkpt lat="44.97845" lon="1.09832">
        <ele>220</ele>
        <time>2017-10-01T10:02:06.000Z</time>
      </trkpt>
      <trkpt lat="44.97846" lon="1.09834">
        <ele>220</ele>
        <time>2017-10-01T10:02:07.000Z</time>
      </trkpt>
      <trkpt lat="44.97847" lon="1.09836">
        <ele>220</ele>
        <time>2017-10-01T10:02:08.000Z</time>
      </trkpt>
      <trkpt lat="44.97847" lon="1.09838">
        <ele>220</ele>
        <time>2017-10-01T10:02:09.000Z</time>
      </trkpt>
      <trkpt lat="44.97848" lon="1.09841">
        <ele>220</ele>
        <time>2017-10-01T10:02:10.000Z</time>
      </trkpt>
      <trkpt lat="44.97849" lon="1.09843">
        <ele>220</ele>
        <time>2017-10-01T10:02:11.000Z</time>
      </trkpt>
      <trkpt lat="44.9785" lon="1.09845">
        <ele>220</ele>
        <time>2017-10-01T10:02:12.000Z</time>
      </trkpt>
      <trkpt lat="44.97851" lon="1.09847">
        <ele>220</ele>
        <time>2017-10-01T10:02:13.000Z</time>
      </trkpt>
      <trkpt lat="44.97852" lon="1.0985">
        <ele>220</ele>
        <time>2017-10-01T10:02:14.000Z</time>
      </trkpt>
      <trkpt lat="44.97853" lon="1.09852">
        <ele>220</ele>
        <time>2017-10-01T10:02:15.000Z</time>
      </trkpt>
      <trkpt lat="44.97855" lon="1.09854">
        <ele>221</ele>
        <time>2017-10-01T10:02:16.000Z</time>
      </trkpt>
      <trkpt lat="44.97857" lon="1.09857">
        <ele>221</ele>
        <time>2017-10-01T10:02:17.000Z</time>
      </trkpt>
      <trkpt lat="44.97858" lon="1.09859">
        <ele>221</ele>
        <time>2017-10-01T10:02:18.000Z</time>
      </trkpt>
      <trkpt lat="44.97859" lon="1.09862">
        <ele>221</ele>
        <time>2017-10-01T10:02:19.000Z</time>
      </trkpt>
      <trkpt lat="44.9786" lon="1.09865">
        <ele>221</ele>
        <time>2017-10-01T10:02:20.000Z</time>
      </trkpt>
      <trkpt lat="44.97861" lon="1.09867">
        <ele>221</ele>
        <time>2017-10-01T10:02:21.000Z</time>
      </trkpt>
      <trkpt lat="44.97862" lon="1.09869">
        <ele>221</ele>
        <time>2017-10-01T10:02:22.000Z</time>
      </trkpt>
      <trkpt lat="44.97863" lon="1.09872">
        <ele>221</ele>
        <time>2017-10-01T10:02:23.000Z</time>
      </trkpt>
      <trkpt lat="44.97864" lon="1.09874">
        <ele>221</ele>
        <time>2017-10-01T10:02:24.000Z</time>
      </trkpt>
      <trkpt lat="44.97865" lon="1.09876">
        <ele>220</ele>
        <time>2017-10-01T10:02:25.000Z</time>
      </trkpt>
      <trkpt lat="44.97866" lon="1.09878">
        <ele>220</ele>
        <time>2017-10-01T10:02:26.000Z</time>
      </trkpt>
      <trkpt lat="44.97867" lon="1.09881">
        <ele>220</ele>
        <time>2017-10-01T10:02:27.000Z</time>
      </trkpt>
      <trkpt lat="44.97868" lon="1.09884">
        <ele>220</ele>
        <time>2017-10-01T10:02:28.000Z</time>
      </trkpt>
      <trkpt lat="44.97869" lon="1.09886">
        <ele>220</ele>
        <time>2017-10-01T10:02:29.000Z</time>
      </trkpt>
      <trkpt lat="44.97871" lon="1.09889">
        <ele>220</ele>
        <time>2017-10-01T10:02:30.000Z</time>
      </trkpt>
      <trkpt lat="44.97872" lon="1.09892">
        <ele>220</ele>
        <time>2017-10-01T10:02:31.000Z</time>
      </trkpt>
      <trkpt lat="44.97874" lon="1.09895">
        <ele>220</ele>
        <time>2017-10-01T10:02:32.000Z</time>
      </trkpt>
      <trkpt lat="44.97876" lon="1.09899">
        <ele>220</ele>
        <time>2017-10-01T10:02:33.000Z</time>
      </trkpt>
      <trkpt lat="44.97877" lon="1.09902">
        <ele>220</ele>
        <time>2017-10-01T10:02:34.000Z</time>
      </trkpt>
      <trkpt lat="44.9788" lon="1.09905">
        <ele>220</ele>
        <time>2017-10-01T10:02:35.000Z</time>
      </trkpt>
      <trkpt lat="44.97882" lon="1.09909">
        <ele>221</ele>
        <time>2017-10-01T10:02:36.000Z</time>
      </trkpt>
      <trkpt lat="44.97884" lon="1.09912">
        <ele>221</ele>
        <time>2017-10-01T10:02:37.000Z</time>
      </trkpt>
      <trkpt lat="44.97887" lon="1.09915">
        <ele>221</ele>
        <time>2017-10-01T10:02:38.000Z</time>
      </trkpt>
      <trkpt lat="44.9789" lon="1.09919">
        <ele>221</ele>
        <time>2017-10-01T10:02:39.000Z</time>
      </trkpt>
      <trkpt lat="44.97893" lon="1.09922">
        <ele>221</ele>
        <time>2017-10-01T10:02:40.000Z</time>
      </trkpt>
      <trkpt lat="44.97896" lon="1.09927">
        <ele>221</ele>
        <time>2017-10-01T10:02:41.000Z</time>
      </trkpt>
      <trkpt lat="44.979" lon="1.09932">
        <ele>221</ele>
        <time>2017-10-01T10:02:42.000Z</time>
      </trkpt>
      <trkpt lat="44.97903" lon="1.09938">
        <ele>221</ele>
        <time>2017-10-01T10:02:43.000Z</time>
      </trkpt>
      <trkpt lat="44.97907" lon="1.09942">
        <ele>221</ele>
        <time>2017-10-01T10:02:44.000Z</time>
      </trkpt>
      <trkpt lat="44.97911" lon="1.09943">
        <ele>222</ele>
        <time>2017-10-01T10:02:45.000Z</time>
      </trkpt>
      <trkpt lat="44.97915" lon="1.09943">
        <ele>222</ele>
        <time>2017-10-01T10:02:46.000Z</time>
      </trkpt>
      <trkpt lat="44.97918" lon="1.0994">
        <ele>222</ele>
        <time>2017-10-01T10:02:47.000Z</time>
      </trkpt>
      <trkpt lat="44.9792" lon="1.09937">
        <ele>222</ele>
        <time>2017-10-01T10:02:48.000Z</time>
      </trkpt>
      <trkpt lat="44.9792" lon="1.09933">
        <ele>223</ele>
        <time>2017-10-01T10:02:49.000Z</time>
      </trkpt>
      <trkpt lat="44.97921" lon="1.09929">
        <ele>223</ele>
        <time>2017-10-01T10:02:50.000Z</time>
      </trkpt>
      <trkpt lat="44.97921" lon="1.09924">
        <ele>223</ele>
        <time>2017-10-01T10:02:51.000Z</time>
      </trkpt>
      <trkpt lat="44.97922" lon="1.0992">
        <ele>224</ele>
        <time>2017-10-01T10:02:52.000Z</time>
      </trkpt>
      <trkpt lat="44.97923" lon="1.09915">
        <ele>224</ele>
        <time>2017-10-01T10:02:53.000Z</time>
      </trkpt>
      <trkpt lat="44.97924" lon="1.09911">
        <ele>224</ele>
        <time>2017-10-01T10:02:54.000Z</time>
      </trkpt>
      <trkpt lat="44.97925" lon="1.09906">
        <ele>224</ele>
        <time>2017-10-01T10:02:55.000Z</time>
      </trkpt>
      <trkpt lat="44.97927" lon="1.09902">
        <ele>224</ele>
        <time>2017-10-01T10:02:56.000Z</time>
      </trkpt>
      <trkpt lat="44.97929" lon="1.09898">
        <ele>225</ele>
        <time>2017-10-01T10:02:57.000Z</time>
      </trkpt>
      <trkpt lat="44.9793" lon="1.09894">
        <ele>225</ele>
        <time>2017-10-01T10:02:58.000Z</time>
      </trkpt>
      <trkpt lat="44.97932" lon="1.09889">
        <ele>225</ele>
        <time>2017-10-01T10:02:59.000Z</time>
      </trkpt>
      <trkpt lat="44.97934" lon="1.09885">
        <ele>225</ele>
        <time>2017-10-01T10:03:00.000Z</time>
      </trkpt>
      <trkpt lat="44.97936" lon="1.0988">
        <ele>226</ele>
        <time>2017-10-01T10:03:01.000Z</time>
      </trkpt>
      <trkpt lat="44.97937" lon="1.09876">
        <ele>226</ele>
        <time>2017-10-01T10:03:02.000Z</time>
      </trkpt>
      <trkpt lat="44.97939" lon="1.09872">
        <ele>226</ele>
        <time>2017-10-01T10:03:03.000Z</time>
      </trkpt>
      <trkpt lat="44.9794" lon="1.09867">
        <ele>226</ele>
        <time>2017-10-01T10:03:04.000Z</time>
      </trkpt>
      <trkpt lat="44.97942" lon="1.09863">
        <ele>227</ele>
        <time>2017-10-01T10:03:05.000Z</time>
      </trkpt>
      <trkpt lat="44.97944" lon="1.09858">
        <ele>227</ele>
        <time>2017-10-01T10:03:06.000Z</time>
      </trkpt>
      <trkpt lat="44.97945" lon="1.09854">
        <ele>228</ele>
        <time>2017-10-01T10:03:07.000Z</time>
      </trkpt>
      <trkpt lat="44.97947" lon="1.0985">
        <ele>228</ele>
        <time>2017-10-01T10:03:08.000Z</time>
      </trkpt>
      <trkpt lat="44.97949" lon="1.09845">
        <ele>228</ele>
        <time>2017-10-01T10:03:09.000Z</time>
      </trkpt>
      <trkpt lat="44.97951" lon="1.09841">
        <ele>229</ele>
        <time>2017-10-01T10:03:10.000Z</time>
      </trkpt>
      <trkpt lat="44.97953" lon="1.09837">
        <ele>229</ele>
        <time>2017-10-01T10:03:11.000Z</time>
      </trkpt>
      <trkpt lat="44.97955" lon="1.09833">
        <ele>229</ele>
        <time>2017-10-01T10:03:12.000Z</time>
      </trkpt>
      <trkpt lat="44.97957" lon="1.0983">
        <ele>229</ele>
        <time>2017-10-01T10:03:13.000Z</time>
      </trkpt>
      <trkpt lat="44.97959" lon="1.09827">
        <ele>229</ele>
        <time>2017-10-01T10:03:14.000Z</time>
      </trkpt>
      <trkpt lat="44.9796" lon="1.09824">
        <ele>229</ele>
        <time>2017-10-01T10:03:15.000Z</time>
      </trkpt>
      <trkpt lat="44.97962" lon="1.09821">
        <ele>229</ele>
        <time>2017-10-01T10:03:16.000Z</time>
      </trkpt>
      <trkpt lat="44.97963" lon="1.09819">
        <ele>229</ele>
        <time>2017-10-01T10:03:17.000Z</time>
      </trkpt>
      <trkpt lat="44.97964" lon="1.09817">
        <ele>229</ele>
        <time>2017-10-01T10:03:18.000Z</time>
      </trkpt>
      <trkpt lat="44.97965" lon="1.09815">
        <ele>230</ele>
        <time>2017-10-01T10:03:19.000Z</time>
      </trkpt>
      <trkpt lat="44.97966" lon="1.09813">
        <ele>230</ele>
        <time>2017-10-01T10:03:20.000Z</time>
      </trkpt>
      <trkpt lat="44.97967" lon="1.0981">
        <ele>230</ele>
        <time>2017-10-01T10:03:21.000Z</time>
      </trkpt>
      <trkpt lat="44.97967" lon="1.09808">
        <ele>230</ele>
        <time>2017-10-01T10:03:22.000Z</time>
      </trkpt>
      <trkpt lat="44.97968" lon="1.09805">
        <ele>230</ele>
        <time>2017-10-01T10:03:23.000Z</time>
      </trkpt>
      <trkpt lat="44.97968" lon="1.09803">
        <ele>230</ele>
        <time>2017-10-01T10:03:24.000Z</time>
      </trkpt>
      <trkpt lat="44.97969" lon="1.098">
        <ele>230</ele>
        <time>2017-10-01T10:03:25.000Z</time>
      </trkpt>
      <trkpt lat="44.97969" lon="1.09797">
        <ele>230</ele>
        <time>2017-10-01T10:03:26.000Z</time>
      </trkpt>
      <trkpt lat="44.9797" lon="1.09794">
        <ele>230</ele>
        <time>2017-10-01T10:03:27.000Z</time>
      </trkpt>
      <trkpt lat="44.9797" lon="1.09791">
        <ele>231</ele>
        <time>2017-10-01T10:03:28.000Z</time>
      </trkpt>
      <trkpt lat="44.9797" lon="1.09788">
        <ele>231</ele>
        <time>2017-10-01T10:03:29.000Z</time>
      </trkpt>
      <trkpt lat="44.9797" lon="1.09784">
        <ele>231</ele>
        <time>2017-10-01T10:03:30.000Z</time>
      </trkpt>
      <trkpt lat="44.97971" lon="1.09781">
        <ele>231</ele>
        <time>2017-10-01T10:03:31.000Z</time>
      </trkpt>
      <trkpt lat="44.97971" lon="1.09778">
        <ele>231</ele>
        <time>2017-10-01T10:03:32.000Z</time>
      </trkpt>
      <trkpt lat="44.97971" lon="1.09774">
        <ele>232</ele>
        <time>2017-10-01T10:03:33.000Z</time>
      </trkpt>
      <trkpt lat="44.97971" lon="1.0977">
        <ele>232</ele>
        <time>2017-10-01T10:03:34.000Z</time>
      </trkpt>
      <trkpt lat="44.97971" lon="1.09767">
        <ele>232</ele>
        <time>2017-10-01T10:03:35.000Z</time>
      </trkpt>
      <trkpt lat="44.97971" lon="1.09763">
        <ele>232</ele>
        <time>2017-10-01T10:03:36.000Z</time>
      </trkpt>
      <trkpt lat="44.97971" lon="1.0976">
        <ele>232</ele>
        <time>2017-10-01T10:03:37.000Z</time>
      </trkpt>
      <trkpt lat="44.97971" lon="1.09756">
        <ele>233</ele>
        <time>2017-10-01T10:03:38.000Z</time>
      </trkpt>
      <trkpt lat="44.97971" lon="1.09752">
        <ele>233</ele>
        <time>2017-10-01T10:03:39.000Z</time>
      </trkpt>
      <trkpt lat="44.97971" lon="1.09749">
        <ele>233</ele>
        <time>2017-10-01T10:03:40.000Z</time>
      </trkpt>
      <trkpt lat="44.97971" lon="1.09745">
        <ele>233</ele>
        <time>2017-10-01T10:03:41.000Z</time>
      </trkpt>
      <trkpt lat="44.97971" lon="1.09741">
        <ele>233</ele>
        <time>2017-10-01T10:03:42.000Z</time>
      </trkpt>
      <trkpt lat="44.97971" lon="1.09738">
        <ele>233</ele>
        <time>2017-10-01T10:03:43.000Z</time>
      </trkpt>
      <trkpt lat="44.97971" lon="1.09734">
        <ele>233</ele>
        <time>2017-10-01T10:03:44.000Z</time>
      </trkpt>
      <trkpt lat="44.97972" lon="1.09729">
        <ele>233</ele>
        <time>2017-10-01T10:03:45.000Z</time>
      </trkpt>
      <trkpt lat="44.97972" lon="1.09725">
        <ele>233</ele>
        <time>2017-10-01T10:03:46.000Z</time>
      </trkpt>
      <trkpt lat="44.97972" lon="1.09721">
        <ele>233</ele>
        <time>2017-10-01T10:03:47.000Z</time>
      </trkpt>
      <trkpt lat="44.97973" lon="1.09717">
        <ele>233</ele>
        <time>2017-10-01T10:03:48.000Z</time>
      </trkpt>
      <trkpt lat="44.97973" lon="1.09712">
        <ele>233</ele>
        <time>2017-10-01T10:03:49.000Z</time>
      </trkpt>
      <trkpt lat="44.97974" lon="1.09708">
        <ele>233</ele>
        <time>2017-10-01T10:03:50.000Z</time>
      </trkpt>
      <trkpt lat="44.97975" lon="1.09704">
        <ele>233</ele>
        <time>2017-10-01T10:03:51.000Z</time>
      </trkpt>
      <trkpt lat="44.97976" lon="1.097">
        <ele>233</ele>
        <time>2017-10-01T10:03:52.000Z</time>
      </trkpt>
      <trkpt lat="44.97977" lon="1.09696">
        <ele>234</ele>
        <time>2017-10-01T10:03:53.000Z</time>
      </trkpt>
      <trkpt lat="44.97978" lon="1.09692">
        <ele>234</ele>
        <time>2017-10-01T10:03:54.000Z</time>
      </trkpt>
      <trkpt lat="44.97979" lon="1.09689">
        <ele>234</ele>
        <time>2017-10-01T10:03:55.000Z</time>
      </trkpt>
      <trkpt lat="44.9798" lon="1.09685">
        <ele>234</ele>
        <time>2017-10-01T10:03:56.000Z</time>
      </trkpt>
      <trkpt lat="44.97982" lon="1.09681">
        <ele>234</ele>
        <time>2017-10-01T10:03:57.000Z</time>
      </trkpt>
      <trkpt lat="44.97983" lon="1.09677">
        <ele>234</ele>
        <time>2017-10-01T10:03:58.000Z</time>
      </trkpt>
      <trkpt lat="44.97985" lon="1.09673">
        <ele>234</ele>
        <time>2017-10-01T10:03:59.000Z</time>
      </trkpt>
      <trkpt lat="44.97986" lon="1.09669">
        <ele>235</ele>
        <time>2017-10-01T10:04:00.000Z</time>
      </trkpt>
      <trkpt lat="44.97988" lon="1.09664">
        <ele>235</ele>
        <time>2017-10-01T10:04:01.000Z</time>
      </trkpt>
      <trkpt lat="44.9799" lon="1.0966">
        <ele>235</ele>
        <time>2017-10-01T10:04:02.000Z</time>
      </trkpt>
      <trkpt lat="44.97992" lon="1.09657">
        <ele>235</ele>
        <time>2017-10-01T10:04:03.000Z</time>
      </trkpt>
      <trkpt lat="44.97995" lon="1.09653">
        <ele>235</ele>
        <time>2017-10-01T10:04:04.000Z</time>
      </trkpt>
      <trkpt lat="44.97997" lon="1.09649">
        <ele>235</ele>
        <time>2017-10-01T10:04:05.000Z</time>
      </trkpt>
      <trkpt lat="44.97999" lon="1.09646">
        <ele>235</ele>
        <time>2017-10-01T10:04:06.000Z</time>
      </trkpt>
      <trkpt lat="44.98002" lon="1.09642">
        <ele>235</ele>
        <time>2017-10-01T10:04:07.000Z</time>
      </trkpt>
      <trkpt lat="44.98005" lon="1.09639">
        <ele>235</ele>
        <time>2017-10-01T10:04:08.000Z</time>
      </trkpt>
      <trkpt lat="44.98007" lon="1.09636">
        <ele>235</ele>
        <time>2017-10-01T10:04:09.000Z</time>
      </trkpt>
      <trkpt lat="44.9801" lon="1.09633">
        <ele>235</ele>
        <time>2017-10-01T10:04:10.000Z</time>
      </trkpt>
      <trkpt lat="44.98013" lon="1.0963">
        <ele>235</ele>
        <time>2017-10-01T10:04:11.000Z</time>
      </trkpt>
      <trkpt lat="44.98016" lon="1.09627">
        <ele>235</ele>
        <time>2017-10-01T10:04:12.000Z</time>
      </trkpt>
      <trkpt lat="44.98019" lon="1.09624">
        <ele>235</ele>
        <time>2017-10-01T10:04:13.000Z</time>
      </trkpt>
      <trkpt lat="44.98022" lon="1.09621">
        <ele>235</ele>
        <time>2017-10-01T10:04:14.000Z</time>
      </trkpt>
      <trkpt lat="44.98024" lon="1.09617">
        <ele>236</ele>
        <time>2017-10-01T10:04:15.000Z</time>
      </trkpt>
      <trkpt lat="44.98027" lon="1.09614">
        <ele>236</ele>
        <time>2017-10-01T10:04:16.000Z</time>
      </trkpt>
      <trkpt lat="44.9803" lon="1.0961">
        <ele>236</ele>
        <time>2017-10-01T10:04:17.000Z</time>
      </trkpt>
      <trkpt lat="44.98033" lon="1.09607">
        <ele>236</ele>
        <time>2017-10-01T10:04:18.000Z</time>
      </trkpt>
      <trkpt lat="44.98036" lon="1.09603">
        <ele>236</ele>
        <time>2017-10-01T10:04:19.000Z</time>
      </trkpt>
      <trkpt lat="44.98039" lon="1.09599">
        <ele>237</ele>
        <time>2017-10-01T10:04:20.000Z</time>
      </trkpt>
      <trkpt lat="44.98042" lon="1.09595">
        <ele>237</ele>
        <time>2017-10-01T10:04:21.000Z</time>
      </trkpt>
      <trkpt lat="44.98044" lon="1.09591">
        <ele>237</ele>
        <time>2017-10-01T10:04:22.000Z</time>
      </trkpt>
      <trkpt lat="44.98047" lon="1.09587">
        <ele>238</ele>
        <time>2017-10-01T10:04:23.000Z</time>
      </trkpt>
      <trkpt lat="44.9805" lon="1.09583">
        <ele>238</ele>
        <time>2017-10-01T10:04:24.000Z</time>
      </trkpt>
      <trkpt lat="44.98053" lon="1.09579">
        <ele>238</ele>
        <time>2017-10-01T10:04:25.000Z</time>
      </trkpt>
      <trkpt lat="44.98055" lon="1.09575">
        <ele>239</ele>
        <time>2017-10-01T10:04:26.000Z</time>
      </trkpt>
      <trkpt lat="44.98058" lon="1.09571">
        <ele>239</ele>
        <time>2017-10-01T10:04:27.000Z</time>
      </trkpt>
      <trkpt lat="44.98061" lon="1.09567">
        <ele>239</ele>
        <time>2017-10-01T10:04:28.000Z</time>
      </trkpt>
      <trkpt lat="44.98064" lon="1.09563">
        <ele>239</ele>
        <time>2017-10-01T10:04:29.000Z</time>
      </trkpt>
      <trkpt lat="44.98066" lon="1.09559">
        <ele>240</ele>
        <time>2017-10-01T10:04:30.000Z</time>
      </trkpt>
      <trkpt lat="44.98069" lon="1.09555">
        <ele>240</ele>
        <time>2017-10-01T10:04:31.000Z</time>
      </trkpt>
      <trkpt lat="44.98072" lon="1.09551">
        <ele>240</ele>
        <time>2017-10-01T10:04:32.000Z</time>
      </trkpt>
      <trkpt lat="44.98075" lon="1.09547">
        <ele>241</ele>
        <time>2017-10-01T10:04:33.000Z</time>
      </trkpt>
      <trkpt lat="44.98078" lon="1.09543">
        <ele>241</ele>
        <time>2017-10-01T10:04:34.000Z</time>
      </trkpt>
      <trkpt lat="44.98081" lon="1.0954">
        <ele>241</ele>
        <time>2017-10-01T10:04:35.000Z</time>
      </trkpt>
      <trkpt lat="44.98083" lon="1.09536">
        <ele>242</ele>
        <time>2017-10-01T10:04:36.000Z</time>
      </trkpt>
      <trkpt lat="44.98085" lon="1.09533">
        <ele>242</ele>
        <time>2017-10-01T10:04:37.000Z</time>
      </trkpt>
      <trkpt lat="44.98088" lon="1.09529">
        <ele>242</ele>
        <time>2017-10-01T10:04:38.000Z</time>
      </trkpt>
      <trkpt lat="44.98089" lon="1.09526">
        <ele>242</ele>
        <time>2017-10-01T10:04:39.000Z</time>
      </trkpt>
      <trkpt lat="44.98091" lon="1.09522">
        <ele>242</ele>
        <time>2017-10-01T10:04:40.000Z</time>
      </trkpt>
      <trkpt lat="44.98093" lon="1.09519">
        <ele>242</ele>
        <time>2017-10-01T10:04:41.000Z</time>
      </trkpt>
      <trkpt lat="44.98095" lon="1.09516">
        <ele>242</ele>
        <time>2017-10-01T10:04:42.000Z</time>
      </trkpt>
      <trkpt lat="44.98097" lon="1.09512">
        <ele>242</ele>
        <time>2017-10-01T10:04:43.000Z</time>
      </trkpt>
      <trkpt lat="44.98099" lon="1.09509">
        <ele>242</ele>
        <time>2017-10-01T10:04:44.000Z</time>
      </trkpt>
      <trkpt lat="44.98101" lon="1.09505">
        <ele>242</ele>
        <time>2017-10-01T10:04:45.000Z</time>
      </trkpt>
      <trkpt lat="44.98103" lon="1.09502">
        <ele>242</ele>
        <time>2017-10-01T10:04:46.000Z</time>
      </trkpt>
      <trkpt lat="44.98105" lon="1.09498">
        <ele>242</ele>
        <time>2017-10-01T10:04:47.000Z</time>
      </trkpt>
      <trkpt lat="44.98107" lon="1.09495">
        <ele>243</ele>
        <time>2017-10-01T10:04:48.000Z</time>
      </trkpt>
      <trkpt lat="44.98109" lon="1.09492">
        <ele>243</ele>
        <time>2017-10-01T10:04:49.000Z</time>
      </trkpt>
      <trkpt lat="44.9811" lon="1.09489">
        <ele>243</ele>
        <time>2017-10-01T10:04:50.000Z</time>
      </trkpt>
      <trkpt lat="44.98112" lon="1.09485">
        <ele>244</ele>
        <time>2017-10-01T10:04:51.000Z</time>
      </trkpt>
      <trkpt lat="44.98113" lon="1.09482">
        <ele>244</ele>
        <time>2017-10-01T10:04:52.000Z</time>
      </trkpt>
      <trkpt lat="44.98115" lon="1.09478">
        <ele>244</ele>
        <time>2017-10-01T10:04:53.000Z</time>
      </trkpt>
      <trkpt lat="44.98116" lon="1.09474">
        <ele>245</ele>
        <time>2017-10-01T10:04:54.000Z</time>
      </trkpt>
      <trkpt lat="44.98117" lon="1.0947">
        <ele>245</ele>
        <time>2017-10-01T10:04:55.000Z</time>
      </trkpt>
      <trkpt lat="44.98119" lon="1.09466">
        <ele>245</ele>
        <time>2017-10-01T10:04:56.000Z</time>
      </trkpt>
      <trkpt lat="44.9812" lon="1.09463">
        <ele>246</ele>
        <time>2017-10-01T10:04:57.000Z</time>
      </trkpt>
      <trkpt lat="44.98122" lon="1.09459">
        <ele>246</ele>
        <time>2017-10-01T10:04:58.000Z</time>
      </trkpt>
      <trkpt lat="44.98123" lon="1.09455">
        <ele>247</ele>
        <time>2017-10-01T10:04:59.000Z</time>
      </trkpt>
      <trkpt lat="44.98125" lon="1.09451">
        <ele>247</ele>
        <time>2017-10-01T10:05:00.000Z</time>
      </trkpt>
      <trkpt lat="44.98127" lon="1.09448">
        <ele>247</ele>
        <time>2017-10-01T10:05:01.000Z</time>
      </trkpt>
      <trkpt lat="44.98129" lon="1.09444">
        <ele>248</ele>
        <time>2017-10-01T10:05:02.000Z</time>
      </trkpt>
      <trkpt lat="44.98131" lon="1.09441">
        <ele>248</ele>
        <time>2017-10-01T10:05:03.000Z</time>
      </trkpt>
      <trkpt lat="44.98133" lon="1.09438">
        <ele>249</ele>
        <time>2017-10-01T10:05:04.000Z</time>
      </trkpt>
      <trkpt lat="44.98135" lon="1.09435">
        <ele>249</ele>
        <time>2017-10-01T10:05:05.000Z</time>
      </trkpt>
      <trkpt lat="44.98138" lon="1.09432">
        <ele>250</ele>
        <time>2017-10-01T10:05:06.000Z</time>
      </trkpt>
      <trkpt lat="44.9814" lon="1.0943">
        <ele>250</ele>
        <time>2017-10-01T10:05:07.000Z</time>
      </trkpt>
      <trkpt lat="44.98143" lon="1.09427">
        <ele>251</ele>
        <time>2017-10-01T10:05:08.000Z</time>
      </trkpt>
      <trkpt lat="44.98145" lon="1.09424">
        <ele>251</ele>
        <time>2017-10-01T10:05:09.000Z</time>
      </trkpt>
      <trkpt lat="44.98148" lon="1.09422">
        <ele>252</ele>
        <time>2017-10-01T10:05:10.000Z</time>
      </trkpt>
      <trkpt lat="44.98151" lon="1.09419">
        <ele>252</ele>
        <time>2017-10-01T10:05:11.000Z</time>
      </trkpt>
      <trkpt lat="44.98153" lon="1.09417">
        <ele>253</ele>
        <time>2017-10-01T10:05:12.000Z</time>
      </trkpt>
      <trkpt lat="44.98156" lon="1.09414">
        <ele>253</ele>
        <time>2017-10-01T10:05:13.000Z</time>
      </trkpt>
      <trkpt lat="44.98158" lon="1.09412">
        <ele>253</ele>
        <time>2017-10-01T10:05:14.000Z</time>
      </trkpt>
      <trkpt lat="44.9816" lon="1.09409">
        <ele>254</ele>
        <time>2017-10-01T10:05:15.000Z</time>
      </trkpt>
      <trkpt lat="44.98163" lon="1.09406">
        <ele>254</ele>
        <time>2017-10-01T10:05:16.000Z</time>
      </trkpt>
      <trkpt lat="44.98165" lon="1.09404">
        <ele>254</ele>
        <time>2017-10-01T10:05:17.000Z</time>
      </trkpt>
      <trkpt lat="44.98167" lon="1.09401">
        <ele>255</ele>
        <time>2017-10-01T10:05:18.000Z</time>
      </trkpt>
      <trkpt lat="44.98169" lon="1.09398">
        <ele>255</ele>
        <time>2017-10-01T10:05:19.000Z</time>
      </trkpt>
      <trkpt lat="44.98171" lon="1.09396">
        <ele>255</ele>
        <time>2017-10-01T10:05:20.000Z</time>
      </trkpt>
      <trkpt lat="44.98173" lon="1.09393">
        <ele>255</ele>
        <time>2017-10-01T10:05:21.000Z</time>
      </trkpt>
      <trkpt lat="44.98176" lon="1.0939">
        <ele>255</ele>
        <time>2017-10-01T10:05:22.000Z</time>
      </trkpt>
      <trkpt lat="44.98178" lon="1.09387">
        <ele>255</ele>
        <time>2017-10-01T10:05:23.000Z</time>
      </trkpt>
      <trkpt lat="44.9818" lon="1.09384">
        <ele>255</ele>
        <time>2017-10-01T10:05:24.000Z</time>
      </trkpt>
      <trkpt lat="44.98182" lon="1.09381">
        <ele>255</ele>
        <time>2017-10-01T10:05:25.000Z</time>
      </trkpt>
      <trkpt lat="44.98184" lon="1.09378">
        <ele>255</ele>
        <time>2017-10-01T10:05:26.000Z</time>
      </trkpt>
      <trkpt lat="44.98186" lon="1.09375">
        <ele>256</ele>
        <time>2017-10-01T10:05:27.000Z</time>
      </trkpt>
      <trkpt lat="44.98188" lon="1.09372">
        <ele>256</ele>
        <time>2017-10-01T10:05:28.000Z</time>
      </trkpt>
      <trkpt lat="44.9819" lon="1.09369">
        <ele>256</ele>
        <time>2017-10-01T10:05:29.000Z</time>
      </trkpt>
      <trkpt lat="44.98192" lon="1.09366">
        <ele>256</ele>
        <time>2017-10-01T10:05:30.000Z</time>
      </trkpt>
      <trkpt lat="44.98194" lon="1.09363">
        <ele>256</ele>
        <time>2017-10-01T10:05:31.000Z</time>
      </trkpt>
      <trkpt lat="44.98196" lon="1.09361">
        <ele>256</ele>
        <time>2017-10-01T10:05:32.000Z</time>
      </trkpt>
      <trkpt lat="44.98199" lon="1.09358">
        <ele>256</ele>
        <time>2017-10-01T10:05:33.000Z</time>
      </trkpt>
      <trkpt lat="44.98201" lon="1.09355">
        <ele>257</ele>
        <time>2017-10-01T10:05:34.000Z</time>
      </trkpt>
      <trkpt lat="44.98203" lon="1.09353">
        <ele>257</ele>
        <time>2017-10-01T10:05:35.000Z</time>
      </trkpt>
      <trkpt lat="44.98206" lon="1.09351">
        <ele>257</ele>
        <time>2017-10-01T10:05:36.000Z</time>
      </trkpt>
      <trkpt lat="44.98208" lon="1.09349">
        <ele>257</ele>
        <time>2017-10-01T10:05:37.000Z</time>
      </trkpt>
      <trkpt lat="44.98211" lon="1.09347">
        <ele>257</ele>
        <time>2017-10-01T10:05:38.000Z</time>
      </trkpt>
      <trkpt lat="44.98213" lon="1.09345">
        <ele>257</ele>
        <time>2017-10-01T10:05:39.000Z</time>
      </trkpt>
      <trkpt lat="44.98216" lon="1.09344">
        <ele>257</ele>
        <time>2017-10-01T10:05:40.000Z</time>
      </trkpt>
      <trkpt lat="44.98219" lon="1.09342">
        <ele>257</ele>
        <time>2017-10-01T10:05:41.000Z</time>
      </trkpt>
      <trkpt lat="44.98221" lon="1.09341">
        <ele>257</ele>
        <time>2017-10-01T10:05:42.000Z</time>
      </trkpt>
      <trkpt lat="44.98224" lon="1.0934">
        <ele>257</ele>
        <time>2017-10-01T10:05:43.000Z</time>
      </trkpt>
      <trkpt lat="44.98227" lon="1.09339">
        <ele>257</ele>
        <time>2017-10-01T10:05:44.000Z</time>
      </trkpt>
      <trkpt lat="44.9823" lon="1.09337">
        <ele>257</ele>
        <time>2017-10-01T10:05:45.000Z</time>
      </trkpt>
      <trkpt lat="44.98232" lon="1.09336">
        <ele>257</ele>
        <time>2017-10-01T10:05:46.000Z</time>
      </trkpt>
      <trkpt lat="44.98235" lon="1.09335">
        <ele>257</ele>
        <time>2017-10-01T10:05:47.000Z</time>
      </trkpt>
      <trkpt lat="44.98237" lon="1.09333">
        <ele>257</ele>
        <time>2017-10-01T10:05:48.000Z</time>
      </trkpt>
      <trkpt lat="44.9824" lon="1.09332">
        <ele>257</ele>
        <time>2017-10-01T10:05:49.000Z</time>
      </trkpt>
      <trkpt lat="44.98243" lon="1.09331">
        <ele>257</ele>
        <time>2017-10-01T10:05:50.000Z</time>
      </trkpt>
      <trkpt lat="44.98245" lon="1.0933">
        <ele>257</ele>
        <time>2017-10-01T10:05:51.000Z</time>
      </trkpt>
      <trkpt lat="44.98248" lon="1.0933">
        <ele>257</ele>
        <time>2017-10-01T10:05:52.000Z</time>
      </trkpt>
      <trkpt lat="44.9825" lon="1.09329">
        <ele>256</ele>
        <time>2017-10-01T10:05:53.000Z</time>
      </trkpt>
      <trkpt lat="44.98253" lon="1.09329">
        <ele>256</ele>
        <time>2017-10-01T10:05:54.000Z</time>
      </trkpt>
      <trkpt lat="44.98256" lon="1.09329">
        <ele>257</ele>
        <time>2017-10-01T10:05:55.000Z</time>
      </trkpt>
      <trkpt lat="44.98259" lon="1.09328">
        <ele>257</ele>
        <time>2017-10-01T10:05:56.000Z</time>
      </trkpt>
      <trkpt lat="44.98262" lon="1.09328">
        <ele>257</ele>
        <time>2017-10-01T10:05:57.000Z</time>
      </trkpt>
      <trkpt lat="44.98265" lon="1.09328">
        <ele>257</ele>
        <time>2017-10-01T10:05:58.000Z</time>
      </trkpt>
      <trkpt lat="44.98268" lon="1.09327">
        <ele>257</ele>
        <time>2017-10-01T10:05:59.000Z</time>
      </trkpt>
      <trkpt lat="44.98271" lon="1.09326">
        <ele>257</ele>
        <time>2017-10-01T10:06:00.000Z</time>
      </trkpt>
      <trkpt lat="44.98275" lon="1.09325">
        <ele>257</ele>
        <time>2017-10-01T10:06:01.000Z</time>
      </trkpt>
      <trkpt lat="44.98277" lon="1.09323">
        <ele>257</ele>
        <time>2017-10-01T10:06:02.000Z</time>
      </trkpt>
      <trkpt lat="44.9828" lon="1.09321">
        <ele>257</ele>
        <time>2017-10-01T10:06:03.000Z</time>
      </trkpt>
      <trkpt lat="44.98283" lon="1.09319">
        <ele>256</ele>
        <time>2017-10-01T10:06:04.000Z</time>
      </trkpt>
      <trkpt lat="44.98286" lon="1.09316">
        <ele>256</ele>
        <time>2017-10-01T10:06:05.000Z</time>
      </trkpt>
      <trkpt lat="44.98288" lon="1.09313">
        <ele>256</ele>
        <time>2017-10-01T10:06:06.000Z</time>
      </trkpt>
      <trkpt lat="44.98291" lon="1.09311">
        <ele>256</ele>
        <time>2017-10-01T10:06:07.000Z</time>
      </trkpt>
      <trkpt lat="44.98293" lon="1.09308">
        <ele>256</ele>
        <time>2017-10-01T10:06:08.000Z</time>
      </trkpt>
      <trkpt lat="44.98296" lon="1.09306">
        <ele>256</ele>
        <time>2017-10-01T10:06:09.000Z</time>
      </trkpt>
      <trkpt lat="44.98298" lon="1.09304">
        <ele>256</ele>
        <time>2017-10-01T10:06:10.000Z</time>
      </trkpt>
      <trkpt lat="44.983" lon="1.09303">
        <ele>256</ele>
        <time>2017-10-01T10:06:11.000Z</time>
      </trkpt>
      <trkpt lat="44.98303" lon="1.09302">
        <ele>256</ele>
        <time>2017-10-01T10:06:12.000Z</time>
      </trkpt>
      <trkpt lat="44.98305" lon="1.09301">
        <ele>256</ele>
        <time>2017-10-01T10:06:13.000Z</time>
      </trkpt>
      <trkpt lat="44.98308" lon="1.09301">
        <ele>256</ele>
        <time>2017-10-01T10:06:14.000Z</time>
      </trkpt>
      <trkpt lat="44.9831" lon="1.093">
        <ele>256</ele>
        <time>2017-10-01T10:06:15.000Z</time>
      </trkpt>
      <trkpt lat="44.98313" lon="1.09301">
        <ele>256</ele>
        <time>2017-10-01T10:06:16.000Z</time>
      </trkpt>
      <trkpt lat="44.98316" lon="1.09301">
        <ele>256</ele>
        <time>2017-10-01T10:06:17.000Z</time>
      </trkpt>
      <trkpt lat="44.98319" lon="1.09302">
        <ele>256</ele>
        <time>2017-10-01T10:06:18.000Z</time>
      </trkpt>
      <trkpt lat="44.98322" lon="1.09303">
        <ele>256</ele>
        <time>2017-10-01T10:06:19.000Z</time>
      </trkpt>
      <trkpt lat="44.98326" lon="1.09304">
        <ele>256</ele>
        <time>2017-10-01T10:06:20.000Z</time>
      </trkpt>
      <trkpt lat="44.9833" lon="1.09305">
        <ele>256</ele>
        <time>2017-10-01T10:06:21.000Z</time>
      </trkpt>
      <trkpt lat="44.98334" lon="1.09307">
        <ele>256</ele>
        <time>2017-10-01T10:06:22.000Z</time>
      </trkpt>
      <trkpt lat="44.98338" lon="1.09309">
        <ele>256</ele>
        <time>2017-10-01T10:06:23.000Z</time>
      </trkpt>
      <trkpt lat="44.98343" lon="1.0931">
        <ele>256</ele>
        <time>2017-10-01T10:06:24.000Z</time>
      </trkpt>
      <trkpt lat="44.98347" lon="1.09312">
        <ele>256</ele>
        <time>2017-10-01T10:06:25.000Z</time>
      </trkpt>
      <trkpt lat="44.98351" lon="1.09313">
        <ele>257</ele>
        <time>2017-10-01T10:06:26.000Z</time>
      </trkpt>
      <trkpt lat="44.98354" lon="1.09314">
        <ele>257</ele>
        <time>2017-10-01T10:06:27.000Z</time>
      </trkpt>
      <trkpt lat="44.98357" lon="1.09315">
        <ele>257</ele>
        <time>2017-10-01T10:06:28.000Z</time>
      </trkpt>
      <trkpt lat="44.98359" lon="1.09315">
        <ele>257</ele>
        <time>2017-10-01T10:06:29.000Z</time>
      </trkpt>
      <trkpt lat="44.98363" lon="1.09315">
        <ele>257</ele>
        <time>2017-10-01T10:06:30.000Z</time>
      </trkpt>
      <trkpt lat="44.98366" lon="1.09314">
        <ele>256</ele>
        <time>2017-10-01T10:06:31.000Z</time>
      </trkpt>
      <trkpt lat="44.98369" lon="1.09312">
        <ele>256</ele>
        <time>2017-10-01T10:06:32.000Z</time>
      </trkpt>
      <trkpt lat="44.98372" lon="1.0931">
        <ele>256</ele>
        <time>2017-10-01T10:06:33.000Z</time>
      </trkpt>
      <trkpt lat="44.98375" lon="1.09308">
        <ele>256</ele>
        <time>2017-10-01T10:06:34.000Z</time>
      </trkpt>
      <trkpt lat="44.98378" lon="1.09306">
        <ele>256</ele>
        <time>2017-10-01T10:06:35.000Z</time>
      </trkpt>
      <trkpt lat="44.9838" lon="1.09304">
        <ele>256</ele>
        <time>2017-10-01T10:06:36.000Z</time>
      </trkpt>
      <trkpt lat="44.98383" lon="1.09302">
        <ele>256</ele>
        <time>2017-10-01T10:06:37.000Z</time>
      </trkpt>
      <trkpt lat="44.98386" lon="1.093">
        <ele>256</ele>
        <time>2017-10-01T10:06:38.000Z</time>
      </trkpt>
      <trkpt lat="44.98388" lon="1.09298">
        <ele>256</ele>
        <time>2017-10-01T10:06:39.000Z</time>
      </trkpt>
      <trkpt lat="44.98391" lon="1.09296">
        <ele>256</ele>
        <time>2017-10-01T10:06:40.000Z</time>
      </trkpt>
      <trkpt lat="44.98394" lon="1.09294">
        <ele>256</ele>
        <time>2017-10-01T10:06:41.000Z</time>
      </trkpt>
      <trkpt lat="44.98397" lon="1.09292">
        <ele>256</ele>
        <time>2017-10-01T10:06:42.000Z</time>
      </trkpt>
      <trkpt lat="44.984" lon="1.0929">
        <ele>256</ele>
        <time>2017-10-01T10:06:43.000Z</time>
      </trkpt>
      <trkpt lat="44.98402" lon="1.09289">
        <ele>256</ele>
        <time>2017-10-01T10:06:44.000Z</time>
      </trkpt>
      <trkpt lat="44.98405" lon="1.09287">
        <ele>256</ele>
        <time>2017-10-01T10:06:45.000Z</time>
      </trkpt>
      <trkpt lat="44.98408" lon="1.09285">
        <ele>256</ele>
        <time>2017-10-01T10:06:46.000Z</time>
      </trkpt>
      <trkpt lat="44.9841" lon="1.09284">
        <ele>256</ele>
        <time>2017-10-01T10:06:47.000Z</time>
      </trkpt>
      <trkpt lat="44.98413" lon="1.09282">
        <ele>256</ele>
        <time>2017-10-01T10:06:48.000Z</time>
      </trkpt>
      <trkpt lat="44.98416" lon="1.0928">
        <ele>256</ele>
        <time>2017-10-01T10:06:49.000Z</time>
      </trkpt>
      <trkpt lat="44.98419" lon="1.09278">
        <ele>256</ele>
        <time>2017-10-01T10:06:50.000Z</time>
      </trkpt>
      <trkpt lat="44.98422" lon="1.09276">
        <ele>256</ele>
        <time>2017-10-01T10:06:51.000Z</time>
      </trkpt>
      <trkpt lat="44.98425" lon="1.09274">
        <ele>256</ele>
        <time>2017-10-01T10:06:52.000Z</time>
      </trkpt>
      <trkpt lat="44.98428" lon="1.09271">
        <ele>256</ele>
        <time>2017-10-01T10:06:53.000Z</time>
      </trkpt>
      <trkpt lat="44.98431" lon="1.09269">
        <ele>256</ele>
        <time>2017-10-01T10:06:54.000Z</time>
      </trkpt>
      <trkpt lat="44.98434" lon="1.09266">
        <ele>256</ele>
        <time>2017-10-01T10:06:55.000Z</time>
      </trkpt>
      <trkpt lat="44.98437" lon="1.09264">
        <ele>256</ele>
        <time>2017-10-01T10:06:56.000Z</time>
      </trkpt>
      <trkpt lat="44.9844" lon="1.09262">
        <ele>256</ele>
        <time>2017-10-01T10:06:57.000Z</time>
      </trkpt>
      <trkpt lat="44.98443" lon="1.0926">
        <ele>256</ele>
        <time>2017-10-01T10:06:58.000Z</time>
      </trkpt>
      <trkpt lat="44.98446" lon="1.09258">
        <ele>257</ele>
        <time>2017-10-01T10:06:59.000Z</time>
      </trkpt>
      <trkpt lat="44.98449" lon="1.09256">
        <ele>257</ele>
        <time>2017-10-01T10:07:00.000Z</time>
      </trkpt>
      <trkpt lat="44.98452" lon="1.09254">
        <ele>257</ele>
        <time>2017-10-01T10:07:01.000Z</time>
      </trkpt>
      <trkpt lat="44.98454" lon="1.09252">
        <ele>257</ele>
        <time>2017-10-01T10:07:02.000Z</time>
      </trkpt>
      <trkpt lat="44.98457" lon="1.0925">
        <ele>257</ele>
        <time>2017-10-01T10:07:03.000Z</time>
      </trkpt>
      <trkpt lat="44.9846" lon="1.09247">
        <ele>257</ele>
        <time>2017-10-01T10:07:04.000Z</time>
      </trkpt>
      <trkpt lat="44.98462" lon="1.09244">
        <ele>257</ele>
        <time>2017-10-01T10:07:05.000Z</time>
      </trkpt>
      <trkpt lat="44.98465" lon="1.0924">
        <ele>257</ele>
        <time>2017-10-01T10:07:06.000Z</time>
      </trkpt>
      <trkpt lat="44.98467" lon="1.09235">
        <ele>257</ele>
        <time>2017-10-01T10:07:07.000Z</time>
      </trkpt>
      <trkpt lat="44.98468" lon="1.09229">
        <ele>257</ele>
        <time>2017-10-01T10:07:08.000Z</time>
      </trkpt>
      <trkpt lat="44.9847" lon="1.09223">
        <ele>257</ele>
        <time>2017-10-01T10:07:09.000Z</time>
      </trkpt>
      <trkpt lat="44.98472" lon="1.09217">
        <ele>257</ele>
        <time>2017-10-01T10:07:10.000Z</time>
      </trkpt>
      <trkpt lat="44.98475" lon="1.09211">
        <ele>257</ele>
        <time>2017-10-01T10:07:11.000Z</time>
      </trkpt>
      <trkpt lat="44.98478" lon="1.09206">
        <ele>258</ele>
        <time>2017-10-01T10:07:12.000Z</time>
      </trkpt>
      <trkpt lat="44.98482" lon="1.09203">
        <ele>258</ele>
        <time>2017-10-01T10:07:13.000Z</time>
      </trkpt>
      <trkpt lat="44.98485" lon="1.092">
        <ele>258</ele>
        <time>2017-10-01T10:07:14.000Z</time>
      </trkpt>
      <trkpt lat="44.98488" lon="1.09198">
        <ele>258</ele>
        <time>2017-10-01T10:07:15.000Z</time>
      </trkpt>
      <trkpt lat="44.98491" lon="1.09196">
        <ele>259</ele>
        <time>2017-10-01T10:07:16.000Z</time>
      </trkpt>
      <trkpt lat="44.98493" lon="1.09193">
        <ele>259</ele>
        <time>2017-10-01T10:07:17.000Z</time>
      </trkpt>
      <trkpt lat="44.98495" lon="1.09189">
        <ele>259</ele>
        <time>2017-10-01T10:07:18.000Z</time>
      </trkpt>
      <trkpt lat="44.98497" lon="1.09184">
        <ele>259</ele>
        <time>2017-10-01T10:07:19.000Z</time>
      </trkpt>
      <trkpt lat="44.98499" lon="1.09178">
        <ele>259</ele>
        <time>2017-10-01T10:07:20.000Z</time>
      </trkpt>
      <trkpt lat="44.98501" lon="1.09171">
        <ele>259</ele>
        <time>2017-10-01T10:07:21.000Z</time>
      </trkpt>
      <trkpt lat="44.98503" lon="1.09165">
        <ele>259</ele>
        <time>2017-10-01T10:07:22.000Z</time>
      </trkpt>
      <trkpt lat="44.98505" lon="1.09158">
        <ele>258</ele>
        <time>2017-10-01T10:07:23.000Z</time>
      </trkpt>
      <trkpt lat="44.98507" lon="1.09152">
        <ele>258</ele>
        <time>2017-10-01T10:07:24.000Z</time>
      </trkpt>
      <trkpt lat="44.9851" lon="1.09146">
        <ele>257</ele>
        <time>2017-10-01T10:07:25.000Z</time>
      </trkpt>
      <trkpt lat="44.98513" lon="1.0914">
        <ele>256</ele>
        <time>2017-10-01T10:07:26.000Z</time>
      </trkpt>
      <trkpt lat="44.98517" lon="1.09134">
        <ele>256</ele>
        <time>2017-10-01T10:07:27.000Z</time>
      </trkpt>
      <trkpt lat="44.98522" lon="1.09129">
        <ele>255</ele>
        <time>2017-10-01T10:07:28.000Z</time>
      </trkpt>
      <trkpt lat="44.98526" lon="1.09126">
        <ele>255</ele>
        <time>2017-10-01T10:07:29.000Z</time>
      </trkpt>
      <trkpt lat="44.9853" lon="1.09126">
        <ele>254</ele>
        <time>2017-10-01T10:07:30.000Z</time>
      </trkpt>
      <trkpt lat="44.98533" lon="1.09129">
        <ele>254</ele>
        <time>2017-10-01T10:07:31.000Z</time>
      </trkpt>
      <trkpt lat="44.98535" lon="1.09133">
        <ele>254</ele>
        <time>2017-10-01T10:07:32.000Z</time>
      </trkpt>
      <trkpt lat="44.98536" lon="1.09137">
        <ele>254</ele>
        <time>2017-10-01T10:07:33.000Z</time>
      </trkpt>
      <trkpt lat="44.98536" lon="1.09143">
        <ele>254</ele>
        <time>2017-10-01T10:07:34.000Z</time>
      </trkpt>
      <trkpt lat="44.98536" lon="1.0915">
        <ele>254</ele>
        <time>2017-10-01T10:07:35.000Z</time>
      </trkpt>
      <trkpt lat="44.98537" lon="1.09157">
        <ele>254</ele>
        <time>2017-10-01T10:07:36.000Z</time>
      </trkpt>
      <trkpt lat="44.98538" lon="1.09165">
        <ele>254</ele>
        <time>2017-10-01T10:07:37.000Z</time>
      </trkpt>
      <trkpt lat="44.98539" lon="1.09172">
        <ele>254</ele>
        <time>2017-10-01T10:07:38.000Z</time>
      </trkpt>
      <trkpt lat="44.9854" lon="1.0918">
        <ele>254</ele>
        <time>2017-10-01T10:07:39.000Z</time>
      </trkpt>
      <trkpt lat="44.98541" lon="1.09187">
        <ele>254</ele>
        <time>2017-10-01T10:07:40.000Z</time>
      </trkpt>
      <trkpt lat="44.98542" lon="1.09194">
        <ele>254</ele>
        <time>2017-10-01T10:07:41.000Z</time>
      </trkpt>
      <trkpt lat="44.98543" lon="1.09201">
        <ele>253</ele>
        <time>2017-10-01T10:07:42.000Z</time>
      </trkpt>
      <trkpt lat="44.98544" lon="1.09208">
        <ele>253</ele>
        <time>2017-10-01T10:07:43.000Z</time>
      </trkpt>
      <trkpt lat="44.98545" lon="1.09214">
        <ele>253</ele>
        <time>2017-10-01T10:07:44.000Z</time>
      </trkpt>
      <trkpt lat="44.98546" lon="1.0922">
        <ele>253</ele>
        <time>2017-10-01T10:07:45.000Z</time>
      </trkpt>
      <trkpt lat="44.98547" lon="1.09227">
        <ele>253</ele>
        <time>2017-10-01T10:07:46.000Z</time>
      </trkpt>
      <trkpt lat="44.98549" lon="1.09233">
        <ele>253</ele>
        <time>2017-10-01T10:07:47.000Z</time>
      </trkpt>
      <trkpt lat="44.9855" lon="1.09239">
        <ele>253</ele>
        <time>2017-10-01T10:07:48.000Z</time>
      </trkpt>
      <trkpt lat="44.98551" lon="1.09246">
        <ele>252</ele>
        <time>2017-10-01T10:07:49.000Z</time>
      </trkpt>
      <trkpt lat="44.98553" lon="1.09252">
        <ele>252</ele>
        <time>2017-10-01T10:07:50.000Z</time>
      </trkpt>
      <trkpt lat="44.98554" lon="1.0926">
        <ele>252</ele>
        <time>2017-10-01T10:07:51.000Z</time>
      </trkpt>
      <trkpt lat="44.98556" lon="1.09267">
        <ele>252</ele>
        <time>2017-10-01T10:07:52.000Z</time>
      </trkpt>
      <trkpt lat="44.98557" lon="1.09274">
        <ele>251</ele>
        <time>2017-10-01T10:07:53.000Z</time>
      </trkpt>
      <trkpt lat="44.98559" lon="1.09282">
        <ele>251</ele>
        <time>2017-10-01T10:07:54.000Z</time>
      </trkpt>
      <trkpt lat="44.9856" lon="1.0929">
        <ele>251</ele>
        <time>2017-10-01T10:07:55.000Z</time>
      </trkpt>
      <trkpt lat="44.98562" lon="1.09298">
        <ele>251</ele>
        <time>2017-10-01T10:07:56.000Z</time>
      </trkpt>
      <trkpt lat="44.98563" lon="1.09306">
        <ele>250</ele>
        <time>2017-10-01T10:07:57.000Z</time>
      </trkpt>
      <trkpt lat="44.98565" lon="1.09313">
        <ele>250</ele>
        <time>2017-10-01T10:07:58.000Z</time>
      </trkpt>
      <trkpt lat="44.98566" lon="1.09321">
        <ele>250</ele>
        <time>2017-10-01T10:07:59.000Z</time>
      </trkpt>
      <trkpt lat="44.98568" lon="1.09328">
        <ele>250</ele>
        <time>2017-10-01T10:08:00.000Z</time>
      </trkpt>
      <trkpt lat="44.98569" lon="1.09335">
        <ele>250</ele>
        <time>2017-10-01T10:08:01.000Z</time>
      </trkpt>
      <trkpt lat="44.9857" lon="1.09341">
        <ele>250</ele>
        <time>2017-10-01T10:08:02.000Z</time>
      </trkpt>
      <trkpt lat="44.98571" lon="1.09347">
        <ele>250</ele>
        <time>2017-10-01T10:08:03.000Z</time>
      </trkpt>
      <trkpt lat="44.98572" lon="1.09353">
        <ele>250</ele>
        <time>2017-10-01T10:08:04.000Z</time>
      </trkpt>
      <trkpt lat="44.98573" lon="1.09359">
        <ele>250</ele>
        <time>2017-10-01T10:08:05.000Z</time>
      </trkpt>
      <trkpt lat="44.98574" lon="1.09364">
        <ele>251</ele>
        <time>2017-10-01T10:08:06.000Z</time>
      </trkpt>
      <trkpt lat="44.98575" lon="1.09369">
        <ele>251</ele>
        <time>2017-10-01T10:08:07.000Z</time>
      </trkpt>
      <trkpt lat="44.98575" lon="1.09374">
        <ele>251</ele>
        <time>2017-10-01T10:08:08.000Z</time>
      </trkpt>
      <trkpt lat="44.98576" lon="1.09378">
        <ele>251</ele>
        <time>2017-10-01T10:08:09.000Z</time>
      </trkpt>
      <trkpt lat="44.98577" lon="1.09383">
        <ele>251</ele>
        <time>2017-10-01T10:08:10.000Z</time>
      </trkpt>
      <trkpt lat="44.98578" lon="1.09387">
        <ele>251</ele>
        <time>2017-10-01T10:08:11.000Z</time>
      </trkpt>
      <trkpt lat="44.98579" lon="1.09391">
        <ele>251</ele>
        <time>2017-10-01T10:08:12.000Z</time>
      </trkpt>
      <trkpt lat="44.98582" lon="1.09395">
        <ele>252</ele>
        <time>2017-10-01T10:08:13.000Z</time>
      </trkpt>
      <trkpt lat="44.98584" lon="1.09399">
        <ele>251</ele>
        <time>2017-10-01T10:08:14.000Z</time>
      </trkpt>
      <trkpt lat="44.98588" lon="1.09402">
        <ele>251</ele>
        <time>2017-10-01T10:08:15.000Z</time>
      </trkpt>
      <trkpt lat="44.98592" lon="1.09404">
        <ele>250</ele>
        <time>2017-10-01T10:08:16.000Z</time>
      </trkpt>
      <trkpt lat="44.98597" lon="1.09407">
        <ele>249</ele>
        <time>2017-10-01T10:08:17.000Z</time>
      </trkpt>
      <trkpt lat="44.98602" lon="1.09408">
        <ele>249</ele>
        <time>2017-10-01T10:08:18.000Z</time>
      </trkpt>
      <trkpt lat="44.98606" lon="1.09409">
        <ele>248</ele>
        <time>2017-10-01T10:08:19.000Z</time>
      </trkpt>
      <trkpt lat="44.9861" lon="1.09409">
        <ele>247</ele>
        <time>2017-10-01T10:08:20.000Z</time>
      </trkpt>
      <trkpt lat="44.98613" lon="1.09408">
        <ele>246</ele>
        <time>2017-10-01T10:08:21.000Z</time>
      </trkpt>
      <trkpt lat="44.98615" lon="1.09406">
        <ele>246</ele>
        <time>2017-10-01T10:08:22.000Z</time>
      </trkpt>
      <trkpt lat="44.98616" lon="1.09403">
        <ele>246</ele>
        <time>2017-10-01T10:08:23.000Z</time>
      </trkpt>
      <trkpt lat="44.98617" lon="1.09399">
        <ele>245</ele>
        <time>2017-10-01T10:08:24.000Z</time>
      </trkpt>
      <trkpt lat="44.98617" lon="1.09394">
        <ele>245</ele>
        <time>2017-10-01T10:08:25.000Z</time>
      </trkpt>
      <trkpt lat="44.98616" lon="1.09389">
        <ele>245</ele>
        <time>2017-10-01T10:08:26.000Z</time>
      </trkpt>
      <trkpt lat="44.98616" lon="1.09384">
        <ele>245</ele>
        <time>2017-10-01T10:08:27.000Z</time>
      </trkpt>
      <trkpt lat="44.98615" lon="1.09379">
        <ele>245</ele>
        <time>2017-10-01T10:08:28.000Z</time>
      </trkpt>
      <trkpt lat="44.98614" lon="1.09375">
        <ele>245</ele>
        <time>2017-10-01T10:08:29.000Z</time>
      </trkpt>
      <trkpt lat="44.98614" lon="1.09371">
        <ele>245</ele>
        <time>2017-10-01T10:08:30.000Z</time>
      </trkpt>
      <trkpt lat="44.98614" lon="1.09368">
        <ele>245</ele>
        <time>2017-10-01T10:08:31.000Z</time>
      </trkpt>
      <trkpt lat="44.98615" lon="1.09366">
        <ele>244</ele>
        <time>2017-10-01T10:08:32.000Z</time>
      </trkpt>
      <trkpt lat="44.98616" lon="1.09364">
        <ele>244</ele>
        <time>2017-10-01T10:08:33.000Z</time>
      </trkpt>
      <trkpt lat="44.98618" lon="1.09362">
        <ele>244</ele>
        <time>2017-10-01T10:08:34.000Z</time>
      </trkpt>
      <trkpt lat="44.98619" lon="1.09361">
        <ele>243</ele>
        <time>2017-10-01T10:08:35.000Z</time>
      </trkpt>
      <trkpt lat="44.9862" lon="1.09359">
        <ele>243</ele>
        <time>2017-10-01T10:08:36.000Z</time>
      </trkpt>
      <trkpt lat="44.98621" lon="1.09357">
        <ele>243</ele>
        <time>2017-10-01T10:08:37.000Z</time>
      </trkpt>
      <trkpt lat="44.98622" lon="1.09356">
        <ele>242</ele>
        <time>2017-10-01T10:08:38.000Z</time>
      </trkpt>
      <trkpt lat="44.98624" lon="1.09354">
        <ele>242</ele>
        <time>2017-10-01T10:08:39.000Z</time>
      </trkpt>
      <trkpt lat="44.98625" lon="1.09354">
        <ele>242</ele>
        <time>2017-10-01T10:08:40.000Z</time>
      </trkpt>
      <trkpt lat="44.98626" lon="1.09353">
        <ele>242</ele>
        <time>2017-10-01T10:08:41.000Z</time>
      </trkpt>
      <trkpt lat="44.98627" lon="1.09353">
        <ele>241</ele>
        <time>2017-10-01T10:08:42.000Z</time>
      </trkpt>
      <trkpt lat="44.98629" lon="1.09352">
        <ele>241</ele>
        <time>2017-10-01T10:08:43.000Z</time>
      </trkpt>
      <trkpt lat="44.98631" lon="1.09351">
        <ele>241</ele>
        <time>2017-10-01T10:08:44.000Z</time>
      </trkpt>
      <trkpt lat="44.98634" lon="1.09349">
        <ele>240</ele>
        <time>2017-10-01T10:08:45.000Z</time>
      </trkpt>
      <trkpt lat="44.98637" lon="1.09347">
        <ele>239</ele>
        <time>2017-10-01T10:08:46.000Z</time>
      </trkpt>
      <trkpt lat="44.9864" lon="1.09346">
        <ele>239</ele>
        <time>2017-10-01T10:08:47.000Z</time>
      </trkpt>
      <trkpt lat="44.98643" lon="1.09345">
        <ele>238</ele>
        <time>2017-10-01T10:08:48.000Z</time>
      </trkpt>
      <trkpt lat="44.98646" lon="1.09344">
        <ele>238</ele>
        <time>2017-10-01T10:08:49.000Z</time>
      </trkpt>
      <trkpt lat="44.9865" lon="1.09342">
        <ele>237</ele>
        <time>2017-10-01T10:08:50.000Z</time>
      </trkpt>
      <trkpt lat="44.98655" lon="1.09339">
        <ele>236</ele>
        <time>2017-10-01T10:08:51.000Z</time>
      </trkpt>
      <trkpt lat="44.98659" lon="1.09336">
        <ele>235</ele>
        <time>2017-10-01T10:08:52.000Z</time>
      </trkpt>
      <trkpt lat="44.98664" lon="1.09332">
        <ele>234</ele>
        <time>2017-10-01T10:08:53.000Z</time>
      </trkpt>
      <trkpt lat="44.9867" lon="1.0933">
        <ele>232</ele>
        <time>2017-10-01T10:08:54.000Z</time>
      </trkpt>
      <trkpt lat="44.98676" lon="1.09327">
        <ele>230</ele>
        <time>2017-10-01T10:08:55.000Z</time>
      </trkpt>
      <trkpt lat="44.98682" lon="1.09325">
        <ele>228</ele>
        <time>2017-10-01T10:08:56.000Z</time>
      </trkpt>
      <trkpt lat="44.98688" lon="1.09322">
        <ele>226</ele>
        <time>2017-10-01T10:08:57.000Z</time>
      </trkpt>
      <trkpt lat="44.98694" lon="1.0932">
        <ele>224</ele>
        <time>2017-10-01T10:08:58.000Z</time>
      </trkpt>
      <trkpt lat="44.98699" lon="1.09317">
        <ele>222</ele>
        <time>2017-10-01T10:08:59.000Z</time>
      </trkpt>
      <trkpt lat="44.98704" lon="1.09315">
        <ele>220</ele>
        <time>2017-10-01T10:09:00.000Z</time>
      </trkpt>
      <trkpt lat="44.98709" lon="1.09312">
        <ele>218</ele>
        <time>2017-10-01T10:09:01.000Z</time>
      </trkpt>
      <trkpt lat="44.98713" lon="1.0931">
        <ele>217</ele>
        <time>2017-10-01T10:09:02.000Z</time>
      </trkpt>
      <trkpt lat="44.98717" lon="1.09308">
        <ele>216</ele>
        <time>2017-10-01T10:09:03.000Z</time>
      </trkpt>
      <trkpt lat="44.98721" lon="1.09307">
        <ele>214</ele>
        <time>2017-10-01T10:09:04.000Z</time>
      </trkpt>
      <trkpt lat="44.98724" lon="1.09307">
        <ele>213</ele>
        <time>2017-10-01T10:09:05.000Z</time>
      </trkpt>
      <trkpt lat="44.98727" lon="1.09308">
        <ele>212</ele>
        <time>2017-10-01T10:09:06.000Z</time>
      </trkpt>
      <trkpt lat="44.9873" lon="1.09309">
        <ele>211</ele>
        <time>2017-10-01T10:09:07.000Z</time>
      </trkpt>
      <trkpt lat="44.98733" lon="1.0931">
        <ele>210</ele>
        <time>2017-10-01T10:09:08.000Z</time>
      </trkpt>
      <trkpt lat="44.98736" lon="1.09309">
        <ele>209</ele>
        <time>2017-10-01T10:09:09.000Z</time>
      </trkpt>
      <trkpt lat="44.98739" lon="1.09307">
        <ele>208</ele>
        <time>2017-10-01T10:09:10.000Z</time>
      </trkpt>
      <trkpt lat="44.98742" lon="1.09304">
        <ele>207</ele>
        <time>2017-10-01T10:09:11.000Z</time>
      </trkpt>
      <trkpt lat="44.98745" lon="1.09303">
        <ele>206</ele>
        <time>2017-10-01T10:09:12.000Z</time>
      </trkpt>
      <trkpt lat="44.98748" lon="1.09302">
        <ele>205</ele>
        <time>2017-10-01T10:09:13.000Z</time>
      </trkpt>
      <trkpt lat="44.9875" lon="1.09303">
        <ele>204</ele>
        <time>2017-10-01T10:09:14.000Z</time>
      </trkpt>
      <trkpt lat="44.98752" lon="1.09306">
        <ele>204</ele>
        <time>2017-10-01T10:09:15.000Z</time>
      </trkpt>
      <trkpt lat="44.98753" lon="1.0931">
        <ele>204</ele>
        <time>2017-10-01T10:09:16.000Z</time>
      </trkpt>
      <trkpt lat="44.98755" lon="1.09314">
        <ele>204</ele>
        <time>2017-10-01T10:09:17.000Z</time>
      </trkpt>
      <trkpt lat="44.98757" lon="1.09317">
        <ele>204</ele>
        <time>2017-10-01T10:09:18.000Z</time>
      </trkpt>
      <trkpt lat="44.98759" lon="1.0932">
        <ele>203</ele>
        <time>2017-10-01T10:09:19.000Z</time>
      </trkpt>
      <trkpt lat="44.98761" lon="1.09322">
        <ele>203</ele>
        <time>2017-10-01T10:09:20.000Z</time>
      </trkpt>
      <trkpt lat="44.98764" lon="1.09323">
        <ele>203</ele>
        <time>2017-10-01T10:09:21.000Z</time>
      </trkpt>
      <trkpt lat="44.98767" lon="1.09324">
        <ele>202</ele>
        <time>2017-10-01T10:09:22.000Z</time>
      </trkpt>
      <trkpt lat="44.9877" lon="1.09325">
        <ele>202</ele>
        <time>2017-10-01T10:09:23.000Z</time>
      </trkpt>
      <trkpt lat="44.98774" lon="1.09325">
        <ele>201</ele>
        <time>2017-10-01T10:09:24.000Z</time>
      </trkpt>
      <trkpt lat="44.98777" lon="1.09326">
        <ele>200</ele>
        <time>2017-10-01T10:09:25.000Z</time>
      </trkpt>
      <trkpt lat="44.9878" lon="1.09326">
        <ele>200</ele>
        <time>2017-10-01T10:09:26.000Z</time>
      </trkpt>
      <trkpt lat="44.98782" lon="1.09326">
        <ele>199</ele>
        <time>2017-10-01T10:09:27.000Z</time>
      </trkpt>
      <trkpt lat="44.98785" lon="1.09327">
        <ele>199</ele>
        <time>2017-10-01T10:09:28.000Z</time>
      </trkpt>
      <trkpt lat="44.98788" lon="1.09329">
        <ele>199</ele>
        <time>2017-10-01T10:09:29.000Z</time>
      </trkpt>
      <trkpt lat="44.9879" lon="1.09332">
        <ele>198</ele>
        <time>2017-10-01T10:09:30.000Z</time>
      </trkpt>
      <trkpt lat="44.98793" lon="1.09337">
        <ele>198</ele>
        <time>2017-10-01T10:09:31.000Z</time>
      </trkpt>
      <trkpt lat="44.98795" lon="1.09342">
        <ele>198</ele>
        <time>2017-10-01T10:09:32.000Z</time>
      </trkpt>
      <trkpt lat="44.98798" lon="1.09347">
        <ele>198</ele>
        <time>2017-10-01T10:09:33.000Z</time>
      </trkpt>
      <trkpt lat="44.988" lon="1.09353">
        <ele>197</ele>
        <time>2017-10-01T10:09:34.000Z</time>
      </trkpt>
      <trkpt lat="44.98803" lon="1.09358">
        <ele>197</ele>
        <time>2017-10-01T10:09:35.000Z</time>
      </trkpt>
      <trkpt lat="44.98806" lon="1.09362">
        <ele>197</ele>
        <time>2017-10-01T10:09:36.000Z</time>
      </trkpt>
      <trkpt lat="44.9881" lon="1.09365">
        <ele>196</ele>
        <time>2017-10-01T10:09:37.000Z</time>
      </trkpt>
      <trkpt lat="44.98813" lon="1.09367">
        <ele>195</ele>
        <time>2017-10-01T10:09:38.000Z</time>
      </trkpt>
      <trkpt lat="44.98818" lon="1.09367">
        <ele>195</ele>
        <time>2017-10-01T10:09:39.000Z</time>
      </trkpt>
      <trkpt lat="44.98822" lon="1.09367">
        <ele>194</ele>
        <time>2017-10-01T10:09:40.000Z</time>
      </trkpt>
      <trkpt lat="44.98826" lon="1.09366">
        <ele>193</ele>
        <time>2017-10-01T10:09:41.000Z</time>
      </trkpt>
      <trkpt lat="44.9883" lon="1.09366">
        <ele>192</ele>
        <time>2017-10-01T10:09:42.000Z</time>
      </trkpt>
      <trkpt lat="44.98833" lon="1.09365">
        <ele>192</ele>
        <time>2017-10-01T10:09:43.000Z</time>
      </trkpt>
      <trkpt lat="44.98836" lon="1.09364">
        <ele>192</ele>
        <time>2017-10-01T10:09:44.000Z</time>
      </trkpt>
      <trkpt lat="44.98839" lon="1.09362">
        <ele>192</ele>
        <time>2017-10-01T10:09:45.000Z</time>
      </trkpt>
      <trkpt lat="44.98841" lon="1.09359">
        <ele>193</ele>
        <time>2017-10-01T10:09:46.000Z</time>
      </trkpt>
      <trkpt lat="44.98844" lon="1.09355">
        <ele>193</ele>
        <time>2017-10-01T10:09:47.000Z</time>
      </trkpt>
      <trkpt lat="44.98848" lon="1.0935">
        <ele>193</ele>
        <time>2017-10-01T10:09:48.000Z</time>
      </trkpt>
      <trkpt lat="44.9885" lon="1.09345">
        <ele>194</ele>
        <time>2017-10-01T10:09:49.000Z</time>
      </trkpt>
      <trkpt lat="44.98853" lon="1.09339">
        <ele>194</ele>
        <time>2017-10-01T10:09:50.000Z</time>
      </trkpt>
      <trkpt lat="44.98855" lon="1.09332">
        <ele>194</ele>
        <time>2017-10-01T10:09:51.000Z</time>
      </trkpt>
      <trkpt lat="44.98856" lon="1.09324">
        <ele>193</ele>
        <time>2017-10-01T10:09:52.000Z</time>
      </trkpt>
      <trkpt lat="44.98857" lon="1.09316">
        <ele>193</ele>
        <time>2017-10-01T10:09:53.000Z</time>
      </trkpt>
      <trkpt lat="44.98858" lon="1.09308">
        <ele>193</ele>
        <time>2017-10-01T10:09:54.000Z</time>
      </trkpt>
      <trkpt lat="44.98859" lon="1.093">
        <ele>192</ele>
        <time>2017-10-01T10:09:55.000Z</time>
      </trkpt>
      <trkpt lat="44.98861" lon="1.09292">
        <ele>192</ele>
        <time>2017-10-01T10:09:56.000Z</time>
      </trkpt>
      <trkpt lat="44.98864" lon="1.09286">
        <ele>192</ele>
        <time>2017-10-01T10:09:57.000Z</time>
      </trkpt>
      <trkpt lat="44.98867" lon="1.0928">
        <ele>192</ele>
        <time>2017-10-01T10:09:58.000Z</time>
      </trkpt>
      <trkpt lat="44.9887" lon="1.09274">
        <ele>192</ele>
        <time>2017-10-01T10:09:59.000Z</time>
      </trkpt>
      <trkpt lat="44.98873" lon="1.09268">
        <ele>192</ele>
        <time>2017-10-01T10:10:00.000Z</time>
      </trkpt>
      <trkpt lat="44.98877" lon="1.09262">
        <ele>192</ele>
        <time>2017-10-01T10:10:01.000Z</time>
      </trkpt>
      <trkpt lat="44.98881" lon="1.09257">
        <ele>192</ele>
        <time>2017-10-01T10:10:02.000Z</time>
      </trkpt>
      <trkpt lat="44.98886" lon="1.09251">
        <ele>192</ele>
        <time>2017-10-01T10:10:03.000Z</time>
      </trkpt>
      <trkpt lat="44.98889" lon="1.09246">
        <ele>192</ele>
        <time>2017-10-01T10:10:04.000Z</time>
      </trkpt>
      <trkpt lat="44.98892" lon="1.09241">
        <ele>192</ele>
        <time>2017-10-01T10:10:05.000Z</time>
      </trkpt>
      <trkpt lat="44.98895" lon="1.09234">
        <ele>191</ele>
        <time>2017-10-01T10:10:06.000Z</time>
      </trkpt>
      <trkpt lat="44.98897" lon="1.09227">
        <ele>191</ele>
        <time>2017-10-01T10:10:07.000Z</time>
      </trkpt>
      <trkpt lat="44.98899" lon="1.0922">
        <ele>190</ele>
        <time>2017-10-01T10:10:08.000Z</time>
      </trkpt>
      <trkpt lat="44.98901" lon="1.09212">
        <ele>190</ele>
        <time>2017-10-01T10:10:09.000Z</time>
      </trkpt>
      <trkpt lat="44.98903" lon="1.09204">
        <ele>189</ele>
        <time>2017-10-01T10:10:10.000Z</time>
      </trkpt>
      <trkpt lat="44.98906" lon="1.09197">
        <ele>188</ele>
        <time>2017-10-01T10:10:11.000Z</time>
      </trkpt>
      <trkpt lat="44.98908" lon="1.09189">
        <ele>188</ele>
        <time>2017-10-01T10:10:12.000Z</time>
      </trkpt>
      <trkpt lat="44.9891" lon="1.09181">
        <ele>187</ele>
        <time>2017-10-01T10:10:13.000Z</time>
      </trkpt>
      <trkpt lat="44.98912" lon="1.09173">
        <ele>186</ele>
        <time>2017-10-01T10:10:14.000Z</time>
      </trkpt>
      <trkpt lat="44.98915" lon="1.09165">
        <ele>185</ele>
        <time>2017-10-01T10:10:15.000Z</time>
      </trkpt>
      <trkpt lat="44.98917" lon="1.09157">
        <ele>185</ele>
        <time>2017-10-01T10:10:16.000Z</time>
      </trkpt>
      <trkpt lat="44.9892" lon="1.0915">
        <ele>185</ele>
        <time>2017-10-01T10:10:17.000Z</time>
      </trkpt>
      <trkpt lat="44.98924" lon="1.09144">
        <ele>185</ele>
        <time>2017-10-01T10:10:18.000Z</time>
      </trkpt>
      <trkpt lat="44.98927" lon="1.09139">
        <ele>185</ele>
        <time>2017-10-01T10:10:19.000Z</time>
      </trkpt>
      <trkpt lat="44.98931" lon="1.09135">
        <ele>186</ele>
        <time>2017-10-01T10:10:20.000Z</time>
      </trkpt>
      <trkpt lat="44.98936" lon="1.09133">
        <ele>186</ele>
        <time>2017-10-01T10:10:21.000Z</time>
      </trkpt>
      <trkpt lat="44.98941" lon="1.09133">
        <ele>187</ele>
        <time>2017-10-01T10:10:22.000Z</time>
      </trkpt>
      <trkpt lat="44.98945" lon="1.09133">
        <ele>188</ele>
        <time>2017-10-01T10:10:23.000Z</time>
      </trkpt>
      <trkpt lat="44.98949" lon="1.09134">
        <ele>188</ele>
        <time>2017-10-01T10:10:24.000Z</time>
      </trkpt>
      <trkpt lat="44.98953" lon="1.09136">
        <ele>189</ele>
        <time>2017-10-01T10:10:25.000Z</time>
      </trkpt>
      <trkpt lat="44.98956" lon="1.09137">
        <ele>189</ele>
        <time>2017-10-01T10:10:26.000Z</time>
      </trkpt>
      <trkpt lat="44.98959" lon="1.09138">
        <ele>190</ele>
        <time>2017-10-01T10:10:27.000Z</time>
      </trkpt>
      <trkpt lat="44.98962" lon="1.09138">
        <ele>190</ele>
        <time>2017-10-01T10:10:28.000Z</time>
      </trkpt>
      <trkpt lat="44.98964" lon="1.09139">
        <ele>191</ele>
        <time>2017-10-01T10:10:29.000Z</time>
      </trkpt>
      <trkpt lat="44.98967" lon="1.0914">
        <ele>191</ele>
        <time>2017-10-01T10:10:30.000Z</time>
      </trkpt>
      <trkpt lat="44.9897" lon="1.0914">
        <ele>192</ele>
        <time>2017-10-01T10:10:31.000Z</time>
      </trkpt>
      <trkpt lat="44.98972" lon="1.0914">
        <ele>192</ele>
        <time>2017-10-01T10:10:32.000Z</time>
      </trkpt>
      <trkpt lat="44.98975" lon="1.0914">
        <ele>193</ele>
        <time>2017-10-01T10:10:33.000Z</time>
      </trkpt>
      <trkpt lat="44.98977" lon="1.0914">
        <ele>193</ele>
        <time>2017-10-01T10:10:34.000Z</time>
      </trkpt>
      <trkpt lat="44.98979" lon="1.09141">
        <ele>193</ele>
        <time>2017-10-01T10:10:35.000Z</time>
      </trkpt>
      <trkpt lat="44.98981" lon="1.09141">
        <ele>194</ele>
        <time>2017-10-01T10:10:36.000Z</time>
      </trkpt>
      <trkpt lat="44.98984" lon="1.09141">
        <ele>194</ele>
        <time>2017-10-01T10:10:37.000Z</time>
      </trkpt>
      <trkpt lat="44.98986" lon="1.09141">
        <ele>194</ele>
        <time>2017-10-01T10:10:38.000Z</time>
      </trkpt>
      <trkpt lat="44.98988" lon="1.09141">
        <ele>195</ele>
        <time>2017-10-01T10:10:39.000Z</time>
      </trkpt>
      <trkpt lat="44.9899" lon="1.09142">
        <ele>195</ele>
        <time>2017-10-01T10:10:40.000Z</time>
      </trkpt>
      <trkpt lat="44.98992" lon="1.09142">
        <ele>195</ele>
        <time>2017-10-01T10:10:41.000Z</time>
      </trkpt>
      <trkpt lat="44.98994" lon="1.09142">
        <ele>196</ele>
        <time>2017-10-01T10:10:42.000Z</time>
      </trkpt>
      <trkpt lat="44.98996" lon="1.09142">
        <ele>196</ele>
        <time>2017-10-01T10:10:43.000Z</time>
      </trkpt>
      <trkpt lat="44.98998" lon="1.09142">
        <ele>196</ele>
        <time>2017-10-01T10:10:44.000Z</time>
      </trkpt>
      <trkpt lat="44.99" lon="1.09142">
        <ele>197</ele>
        <time>2017-10-01T10:10:45.000Z</time>
      </trkpt>
      <trkpt lat="44.99002" lon="1.09141">
        <ele>197</ele>
        <time>2017-10-01T10:10:46.000Z</time>
      </trkpt>
      <trkpt lat="44.99004" lon="1.09141">
        <ele>196</ele>
        <time>2017-10-01T10:10:47.000Z</time>
      </trkpt>
      <trkpt lat="44.99006" lon="1.0914">
        <ele>196</ele>
        <time>2017-10-01T10:10:48.000Z</time>
      </trkpt>
      <trkpt lat="44.99008" lon="1.09139">
        <ele>196</ele>
        <time>2017-10-01T10:10:49.000Z</time>
      </trkpt>
      <trkpt lat="44.9901" lon="1.09138">
        <ele>196</ele>
        <time>2017-10-01T10:10:50.000Z</time>
      </trkpt>
      <trkpt lat="44.99013" lon="1.09137">
        <ele>196</ele>
        <time>2017-10-01T10:10:51.000Z</time>
      </trkpt>
      <trkpt lat="44.99015" lon="1.09136">
        <ele>196</ele>
        <time>2017-10-01T10:10:52.000Z</time>
      </trkpt>
      <trkpt lat="44.99018" lon="1.09135">
        <ele>196</ele>
        <time>2017-10-01T10:10:53.000Z</time>
      </trkpt>
      <trkpt lat="44.9902" lon="1.09135">
        <ele>196</ele>
        <time>2017-10-01T10:10:54.000Z</time>
      </trkpt>
      <trkpt lat="44.99022" lon="1.09134">
        <ele>196</ele>
        <time>2017-10-01T10:10:55.000Z</time>
      </trkpt>
      <trkpt lat="44.99025" lon="1.09134">
        <ele>196</ele>
        <time>2017-10-01T10:10:56.000Z</time>
      </trkpt>
      <trkpt lat="44.99027" lon="1.09134">
        <ele>196</ele>
        <time>2017-10-01T10:10:57.000Z</time>
      </trkpt>
      <trkpt lat="44.99029" lon="1.09135">
        <ele>196</ele>
        <time>2017-10-01T10:10:58.000Z</time>
      </trkpt>
      <trkpt lat="44.99031" lon="1.09135">
        <ele>196</ele>
        <time>2017-10-01T10:10:59.000Z</time>
      </trkpt>
      <trkpt lat="44.99033" lon="1.09136">
        <ele>196</ele>
        <time>2017-10-01T10:11:00.000Z</time>
      </trkpt>
      <trkpt lat="44.99035" lon="1.09137">
        <ele>197</ele>
        <time>2017-10-01T10:11:01.000Z</time>
      </trkpt>
      <trkpt lat="44.99037" lon="1.09137">
        <ele>197</ele>
        <time>2017-10-01T10:11:02.000Z</time>
      </trkpt>
      <trkpt lat="44.99039" lon="1.09138">
        <ele>197</ele>
        <time>2017-10-01T10:11:03.000Z</time>
      </trkpt>
      <trkpt lat="44.99041" lon="1.09139">
        <ele>197</ele>
        <time>2017-10-01T10:11:04.000Z</time>
      </trkpt>
      <trkpt lat="44.99043" lon="1.09139">
        <ele>197</ele>
        <time>2017-10-01T10:11:05.000Z</time>
      </trkpt>
      <trkpt lat="44.99044" lon="1.09139">
        <ele>197</ele>
        <time>2017-10-01T10:11:06.000Z</time>
      </trkpt>
      <trkpt lat="44.99046" lon="1.0914">
        <ele>197</ele>
        <time>2017-10-01T10:11:07.000Z</time>
      </trkpt>
      <trkpt lat="44.99048" lon="1.0914">
        <ele>197</ele>
        <time>2017-10-01T10:11:08.000Z</time>
      </trkpt>
      <trkpt lat="44.99049" lon="1.0914">
        <ele>197</ele>
        <time>2017-10-01T10:11:09.000Z</time>
      </trkpt>
      <trkpt lat="44.99051" lon="1.09141">
        <ele>197</ele>
        <time>2017-10-01T10:11:10.000Z</time>
      </trkpt>
      <trkpt lat="44.99053" lon="1.09141">
        <ele>197</ele>
        <time>2017-10-01T10:11:11.000Z</time>
      </trkpt>
      <trkpt lat="44.99054" lon="1.09142">
        <ele>197</ele>
        <time>2017-10-01T10:11:12.000Z</time>
      </trkpt>
      <trkpt lat="44.99056" lon="1.09143">
        <ele>198</ele>
        <time>2017-10-01T10:11:13.000Z</time>
      </trkpt>
      <trkpt lat="44.99057" lon="1.09144">
        <ele>198</ele>
        <time>2017-10-01T10:11:14.000Z</time>
      </trkpt>
      <trkpt lat="44.99058" lon="1.09145">
        <ele>198</ele>
        <time>2017-10-01T10:11:15.000Z</time>
      </trkpt>
      <trkpt lat="44.9906" lon="1.09146">
        <ele>198</ele>
        <time>2017-10-01T10:11:16.000Z</time>
      </trkpt>
      <trkpt lat="44.99061" lon="1.09147">
        <ele>198</ele>
        <time>2017-10-01T10:11:17.000Z</time>
      </trkpt>
      <trkpt lat="44.99062" lon="1.09148">
        <ele>198</ele>
        <time>2017-10-01T10:11:18.000Z</time>
      </trkpt>
      <trkpt lat="44.99064" lon="1.0915">
        <ele>198</ele>
        <time>2017-10-01T10:11:19.000Z</time>
      </trkpt>
      <trkpt lat="44.99065" lon="1.09151">
        <ele>199</ele>
        <time>2017-10-01T10:11:20.000Z</time>
      </trkpt>
      <trkpt lat="44.99066" lon="1.09151">
        <ele>199</ele>
        <time>2017-10-01T10:11:21.000Z</time>
      </trkpt>
      <trkpt lat="44.99068" lon="1.09152">
        <ele>199</ele>
        <time>2017-10-01T10:11:22.000Z</time>
      </trkpt>
      <trkpt lat="44.99069" lon="1.09152">
        <ele>199</ele>
        <time>2017-10-01T10:11:23.000Z</time>
      </trkpt>
      <trkpt lat="44.99071" lon="1.09153">
        <ele>199</ele>
        <time>2017-10-01T10:11:24.000Z</time>
      </trkpt>
      <trkpt lat="44.99072" lon="1.09153">
        <ele>199</ele>
        <time>2017-10-01T10:11:25.000Z</time>
      </trkpt>
      <trkpt lat="44.99074" lon="1.09153">
        <ele>199</ele>
        <time>2017-10-01T10:11:26.000Z</time>
      </trkpt>
      <trkpt lat="44.99075" lon="1.09154">
        <ele>199</ele>
        <time>2017-10-01T10:11:27.000Z</time>
      </trkpt>
      <trkpt lat="44.99077" lon="1.09155">
        <ele>199</ele>
        <time>2017-10-01T10:11:28.000Z</time>
      </trkpt>
      <trkpt lat="44.99078" lon="1.09156">
        <ele>199</ele>
        <time>2017-10-01T10:11:29.000Z</time>
      </trkpt>
      <trkpt lat="44.9908" lon="1.09157">
        <ele>199</ele>
        <time>2017-10-01T10:11:30.000Z</time>
      </trkpt>
      <trkpt lat="44.99081" lon="1.09158">
        <ele>200</ele>
        <time>2017-10-01T10:11:31.000Z</time>
      </trkpt>
      <trkpt lat="44.99083" lon="1.09159">
        <ele>200</ele>
        <time>2017-10-01T10:11:32.000Z</time>
      </trkpt>
      <trkpt lat="44.99084" lon="1.09161">
        <ele>200</ele>
        <time>2017-10-01T10:11:33.000Z</time>
      </trkpt>
      <trkpt lat="44.99086" lon="1.09163">
        <ele>200</ele>
        <time>2017-10-01T10:11:34.000Z</time>
      </trkpt>
      <trkpt lat="44.99087" lon="1.09165">
        <ele>200</ele>
        <time>2017-10-01T10:11:35.000Z</time>
      </trkpt>
      <trkpt lat="44.99088" lon="1.09167">
        <ele>200</ele>
        <time>2017-10-01T10:11:36.000Z</time>
      </trkpt>
      <trkpt lat="44.99089" lon="1.0917">
        <ele>200</ele>
        <time>2017-10-01T10:11:37.000Z</time>
      </trkpt>
      <trkpt lat="44.99091" lon="1.09172">
        <ele>201</ele>
        <time>2017-10-01T10:11:38.000Z</time>
      </trkpt>
      <trkpt lat="44.99092" lon="1.09174">
        <ele>201</ele>
        <time>2017-10-01T10:11:39.000Z</time>
      </trkpt>
      <trkpt lat="44.99093" lon="1.09177">
        <ele>201</ele>
        <time>2017-10-01T10:11:40.000Z</time>
      </trkpt>
      <trkpt lat="44.99094" lon="1.09179">
        <ele>201</ele>
        <time>2017-10-01T10:11:41.000Z</time>
      </trkpt>
      <trkpt lat="44.99096" lon="1.09181">
        <ele>201</ele>
        <time>2017-10-01T10:11:42.000Z</time>
      </trkpt>
      <trkpt lat="44.99097" lon="1.09184">
        <ele>202</ele>
        <time>2017-10-01T10:11:43.000Z</time>
      </trkpt>
      <trkpt lat="44.99097" lon="1.09186">
        <ele>202</ele>
        <time>2017-10-01T10:11:44.000Z</time>
      </trkpt>
      <trkpt lat="44.99098" lon="1.09189">
        <ele>202</ele>
        <time>2017-10-01T10:11:45.000Z</time>
      </trkpt>
      <trkpt lat="44.99099" lon="1.09192">
        <ele>202</ele>
        <time>2017-10-01T10:11:46.000Z</time>
      </trkpt>
      <trkpt lat="44.99099" lon="1.09195">
        <ele>203</ele>
        <time>2017-10-01T10:11:47.000Z</time>
      </trkpt>
      <trkpt lat="44.991" lon="1.09197">
        <ele>203</ele>
        <time>2017-10-01T10:11:48.000Z</time>
      </trkpt>
      <trkpt lat="44.99101" lon="1.092">
        <ele>203</ele>
        <time>2017-10-01T10:11:49.000Z</time>
      </trkpt>
      <trkpt lat="44.99101" lon="1.09203">
        <ele>204</ele>
        <time>2017-10-01T10:11:50.000Z</time>
      </trkpt>
      <trkpt lat="44.99102" lon="1.09206">
        <ele>204</ele>
        <time>2017-10-01T10:11:51.000Z</time>
      </trkpt>
      <trkpt lat="44.99103" lon="1.09209">
        <ele>204</ele>
        <time>2017-10-01T10:11:52.000Z</time>
      </trkpt>
      <trkpt lat="44.99104" lon="1.09212">
        <ele>205</ele>
        <time>2017-10-01T10:11:53.000Z</time>
      </trkpt>
      <trkpt lat="44.99105" lon="1.09215">
        <ele>205</ele>
        <time>2017-10-01T10:11:54.000Z</time>
      </trkpt>
      <trkpt lat="44.99106" lon="1.09218">
        <ele>205</ele>
        <time>2017-10-01T10:11:55.000Z</time>
      </trkpt>
      <trkpt lat="44.99107" lon="1.09221">
        <ele>205</ele>
        <time>2017-10-01T10:11:56.000Z</time>
      </trkpt>
      <trkpt lat="44.99107" lon="1.09224">
        <ele>206</ele>
        <time>2017-10-01T10:11:57.000Z</time>
      </trkpt>
      <trkpt lat="44.99108" lon="1.09227">
        <ele>206</ele>
        <time>2017-10-01T10:11:58.000Z</time>
      </trkpt>
      <trkpt lat="44.99109" lon="1.0923">
        <ele>206</ele>
        <time>2017-10-01T10:11:59.000Z</time>
      </trkpt>
      <trkpt lat="44.99109" lon="1.09233">
        <ele>207</ele>
        <time>2017-10-01T10:12:00.000Z</time>
      </trkpt>
      <trkpt lat="44.9911" lon="1.09236">
        <ele>207</ele>
        <time>2017-10-01T10:12:01.000Z</time>
      </trkpt>
      <trkpt lat="44.9911" lon="1.09239">
        <ele>208</ele>
        <time>2017-10-01T10:12:02.000Z</time>
      </trkpt>
      <trkpt lat="44.99111" lon="1.09242">
        <ele>208</ele>
        <time>2017-10-01T10:12:03.000Z</time>
      </trkpt>
      <trkpt lat="44.99111" lon="1.09245">
        <ele>208</ele>
        <time>2017-10-01T10:12:04.000Z</time>
      </trkpt>
      <trkpt lat="44.99111" lon="1.09248">
        <ele>209</ele>
        <time>2017-10-01T10:12:05.000Z</time>
      </trkpt>
      <trkpt lat="44.99111" lon="1.0925">
        <ele>209</ele>
        <time>2017-10-01T10:12:06.000Z</time>
      </trkpt>
      <trkpt lat="44.99112" lon="1.09253">
        <ele>209</ele>
        <time>2017-10-01T10:12:07.000Z</time>
      </trkpt>
      <trkpt lat="44.99112" lon="1.09256">
        <ele>210</ele>
        <time>2017-10-01T10:12:08.000Z</time>
      </trkpt>
      <trkpt lat="44.99112" lon="1.09258">
        <ele>210</ele>
        <time>2017-10-01T10:12:09.000Z</time>
      </trkpt>
      <trkpt lat="44.99112" lon="1.09261">
        <ele>210</ele>
        <time>2017-10-01T10:12:10.000Z</time>
      </trkpt>
      <trkpt lat="44.99112" lon="1.09264">
        <ele>211</ele>
        <time>2017-10-01T10:12:11.000Z</time>
      </trkpt>
      <trkpt lat="44.99111" lon="1.09266">
        <ele>211</ele>
        <time>2017-10-01T10:12:12.000Z</time>
      </trkpt>
      <trkpt lat="44.99111" lon="1.09269">
        <ele>211</ele>
        <time>2017-10-01T10:12:13.000Z</time>
      </trkpt>
      <trkpt lat="44.99111" lon="1.09272">
        <ele>212</ele>
        <time>2017-10-01T10:12:14.000Z</time>
      </trkpt>
      <trkpt lat="44.99111" lon="1.09274">
        <ele>212</ele>
        <time>2017-10-01T10:12:15.000Z</time>
      </trkpt>
      <trkpt lat="44.9911" lon="1.09277">
        <ele>212</ele>
        <time>2017-10-01T10:12:16.000Z</time>
      </trkpt>
      <trkpt lat="44.9911" lon="1.0928">
        <ele>213</ele>
        <time>2017-10-01T10:12:17.000Z</time>
      </trkpt>
      <trkpt lat="44.9911" lon="1.09283">
        <ele>213</ele>
        <time>2017-10-01T10:12:18.000Z</time>
      </trkpt>
      <trkpt lat="44.9911" lon="1.09285">
        <ele>214</ele>
        <time>2017-10-01T10:12:19.000Z</time>
      </trkpt>
      <trkpt lat="44.9911" lon="1.09288">
        <ele>214</ele>
        <time>2017-10-01T10:12:20.000Z</time>
      </trkpt>
      <trkpt lat="44.99111" lon="1.09291">
        <ele>214</ele>
        <time>2017-10-01T10:12:21.000Z</time>
      </trkpt>
      <trkpt lat="44.99111" lon="1.09294">
        <ele>215</ele>
        <time>2017-10-01T10:12:22.000Z</time>
      </trkpt>
      <trkpt lat="44.99112" lon="1.09296">
        <ele>215</ele>
        <time>2017-10-01T10:12:23.000Z</time>
      </trkpt>
      <trkpt lat="44.99113" lon="1.09299">
        <ele>215</ele>
        <time>2017-10-01T10:12:24.000Z</time>
      </trkpt>
      <trkpt lat="44.99114" lon="1.09302">
        <ele>216</ele>
        <time>2017-10-01T10:12:25.000Z</time>
      </trkpt>
      <trkpt lat="44.99115" lon="1.09304">
        <ele>216</ele>
        <time>2017-10-01T10:12:26.000Z</time>
      </trkpt>
      <trkpt lat="44.99116" lon="1.09306">
        <ele>216</ele>
        <time>2017-10-01T10:12:27.000Z</time>
      </trkpt>
      <trkpt lat="44.99117" lon="1.09308">
        <ele>216</ele>
        <time>2017-10-01T10:12:28.000Z</time>
      </trkpt>
      <trkpt lat="44.99119" lon="1.0931">
        <ele>217</ele>
        <time>2017-10-01T10:12:29.000Z</time>
      </trkpt>
      <trkpt lat="44.9912" lon="1.09312">
        <ele>217</ele>
        <time>2017-10-01T10:12:30.000Z</time>
      </trkpt>
      <trkpt lat="44.99122" lon="1.09314">
        <ele>217</ele>
        <time>2017-10-01T10:12:31.000Z</time>
      </trkpt>
      <trkpt lat="44.99123" lon="1.09316">
        <ele>217</ele>
        <time>2017-10-01T10:12:32.000Z</time>
      </trkpt>
      <trkpt lat="44.99125" lon="1.09318">
        <ele>217</ele>
        <time>2017-10-01T10:12:33.000Z</time>
      </trkpt>
      <trkpt lat="44.99127" lon="1.0932">
        <ele>218</ele>
        <time>2017-10-01T10:12:34.000Z</time>
      </trkpt>
      <trkpt lat="44.99129" lon="1.09321">
        <ele>218</ele>
        <time>2017-10-01T10:12:35.000Z</time>
      </trkpt>
      <trkpt lat="44.99131" lon="1.09323">
        <ele>218</ele>
        <time>2017-10-01T10:12:36.000Z</time>
      </trkpt>
      <trkpt lat="44.99133" lon="1.09324">
        <ele>218</ele>
        <time>2017-10-01T10:12:37.000Z</time>
      </trkpt>
      <trkpt lat="44.99135" lon="1.09326">
        <ele>218</ele>
        <time>2017-10-01T10:12:38.000Z</time>
      </trkpt>
      <trkpt lat="44.99137" lon="1.09327">
        <ele>218</ele>
        <time>2017-10-01T10:12:39.000Z</time>
      </trkpt>
      <trkpt lat="44.99138" lon="1.09329">
        <ele>219</ele>
        <time>2017-10-01T10:12:40.000Z</time>
      </trkpt>
      <trkpt lat="44.9914" lon="1.0933">
        <ele>219</ele>
        <time>2017-10-01T10:12:41.000Z</time>
      </trkpt>
      <trkpt lat="44.99141" lon="1.09331">
        <ele>219</ele>
        <time>2017-10-01T10:12:42.000Z</time>
      </trkpt>
      <trkpt lat="44.99142" lon="1.09332">
        <ele>219</ele>
        <time>2017-10-01T10:12:43.000Z</time>
      </trkpt>
      <trkpt lat="44.99144" lon="1.09333">
        <ele>219</ele>
        <time>2017-10-01T10:12:44.000Z</time>
      </trkpt>
      <trkpt lat="44.99145" lon="1.09334">
        <ele>219</ele>
        <time>2017-10-01T10:12:45.000Z</time>
      </trkpt>
      <trkpt lat="44.99146" lon="1.09335">
        <ele>219</ele>
        <time>2017-10-01T10:12:46.000Z</time>
      </trkpt>
      <trkpt lat="44.99147" lon="1.09336">
        <ele>219</ele>
        <time>2017-10-01T10:12:47.000Z</time>
      </trkpt>
      <trkpt lat="44.99149" lon="1.09337">
        <ele>220</ele>
        <time>2017-10-01T10:12:48.000Z</time>
      </trkpt>
      <trkpt lat="44.9915" lon="1.09338">
        <ele>220</ele>
        <time>2017-10-01T10:12:49.000Z</time>
      </trkpt>
      <trkpt lat="44.99152" lon="1.09339">
        <ele>220</ele>
        <time>2017-10-01T10:12:50.000Z</time>
      </trkpt>
      <trkpt lat="44.99153" lon="1.09339">
        <ele>220</ele>
        <time>2017-10-01T10:12:51.000Z</time>
      </trkpt>
      <trkpt lat="44.99155" lon="1.0934">
        <ele>220</ele>
        <time>2017-10-01T10:12:52.000Z</time>
      </trkpt>
      <trkpt lat="44.99157" lon="1.09341">
        <ele>220</ele>
        <time>2017-10-01T10:12:53.000Z</time>
      </trkpt>
      <trkpt lat="44.99159" lon="1.09341">
        <ele>220</ele>
        <time>2017-10-01T10:12:54.000Z</time>
      </trkpt>
      <trkpt lat="44.99161" lon="1.09341">
        <ele>220</ele>
        <time>2017-10-01T10:12:55.000Z</time>
      </trkpt>
      <trkpt lat="44.99164" lon="1.09341">
        <ele>220</ele>
        <time>2017-10-01T10:12:56.000Z</time>
      </trkpt>
      <trkpt lat="44.99166" lon="1.0934">
        <ele>220</ele>
        <time>2017-10-01T10:12:57.000Z</time>
      </trkpt>
      <trkpt lat="44.99168" lon="1.09339">
        <ele>219</ele>
        <time>2017-10-01T10:12:58.000Z</time>
      </trkpt>
      <trkpt lat="44.9917" lon="1.09338">
        <ele>219</ele>
        <time>2017-10-01T10:12:59.000Z</time>
      </trkpt>
      <trkpt lat="44.99172" lon="1.09337">
        <ele>219</ele>
        <time>2017-10-01T10:13:00.000Z</time>
      </trkpt>
      <trkpt lat="44.99174" lon="1.09336">
        <ele>219</ele>
        <time>2017-10-01T10:13:01.000Z</time>
      </trkpt>
      <trkpt lat="44.99176" lon="1.09335">
        <ele>219</ele>
        <time>2017-10-01T10:13:02.000Z</time>
      </trkpt>
      <trkpt lat="44.99178" lon="1.09334">
        <ele>219</ele>
        <time>2017-10-01T10:13:03.000Z</time>
      </trkpt>
      <trkpt lat="44.9918" lon="1.09333">
        <ele>219</ele>
        <time>2017-10-01T10:13:04.000Z</time>
      </trkpt>
      <trkpt lat="44.99182" lon="1.09332">
        <ele>218</ele>
        <time>2017-10-01T10:13:05.000Z</time>
      </trkpt>
      <trkpt lat="44.99184" lon="1.0933">
        <ele>218</ele>
        <time>2017-10-01T10:13:06.000Z</time>
      </trkpt>
      <trkpt lat="44.99187" lon="1.09329">
        <ele>218</ele>
        <time>2017-10-01T10:13:07.000Z</time>
      </trkpt>
      <trkpt lat="44.9919" lon="1.09327">
        <ele>218</ele>
        <time>2017-10-01T10:13:08.000Z</time>
      </trkpt>
      <trkpt lat="44.99193" lon="1.09325">
        <ele>218</ele>
        <time>2017-10-01T10:13:09.000Z</time>
      </trkpt>
      <trkpt lat="44.99196" lon="1.09322">
        <ele>217</ele>
        <time>2017-10-01T10:13:10.000Z</time>
      </trkpt>
      <trkpt lat="44.992" lon="1.09319">
        <ele>217</ele>
        <time>2017-10-01T10:13:11.000Z</time>
      </trkpt>
      <trkpt lat="44.99204" lon="1.09317">
        <ele>217</ele>
        <time>2017-10-01T10:13:12.000Z</time>
      </trkpt>
      <trkpt lat="44.99208" lon="1.09314">
        <ele>216</ele>
        <time>2017-10-01T10:13:13.000Z</time>
      </trkpt>
      <trkpt lat="44.99212" lon="1.09311">
        <ele>216</ele>
        <time>2017-10-01T10:13:14.000Z</time>
      </trkpt>
      <trkpt lat="44.99216" lon="1.09308">
        <ele>215</ele>
        <time>2017-10-01T10:13:15.000Z</time>
      </trkpt>
      <trkpt lat="44.9922" lon="1.09305">
        <ele>215</ele>
        <time>2017-10-01T10:13:16.000Z</time>
      </trkpt>
      <trkpt lat="44.99224" lon="1.09302">
        <ele>215</ele>
        <time>2017-10-01T10:13:17.000Z</time>
      </trkpt>
      <trkpt lat="44.99229" lon="1.09298">
        <ele>214</ele>
        <time>2017-10-01T10:13:18.000Z</time>
      </trkpt>
      <trkpt lat="44.99233" lon="1.09295">
        <ele>214</ele>
        <time>2017-10-01T10:13:19.000Z</time>
      </trkpt>
      <trkpt lat="44.99237" lon="1.09292">
        <ele>214</ele>
        <time>2017-10-01T10:13:20.000Z</time>
      </trkpt>
      <trkpt lat="44.99242" lon="1.09289">
        <ele>214</ele>
        <time>2017-10-01T10:13:21.000Z</time>
      </trkpt>
      <trkpt lat="44.99246" lon="1.09286">
        <ele>213</ele>
        <time>2017-10-01T10:13:22.000Z</time>
      </trkpt>
      <trkpt lat="44.9925" lon="1.09283">
        <ele>213</ele>
        <time>2017-10-01T10:13:23.000Z</time>
      </trkpt>
      <trkpt lat="44.99255" lon="1.0928">
        <ele>213</ele>
        <time>2017-10-01T10:13:24.000Z</time>
      </trkpt>
      <trkpt lat="44.99259" lon="1.09276">
        <ele>212</ele>
        <time>2017-10-01T10:13:25.000Z</time>
      </trkpt>
      <trkpt lat="44.99263" lon="1.09273">
        <ele>212</ele>
        <time>2017-10-01T10:13:26.000Z</time>
      </trkpt>
      <trkpt lat="44.99267" lon="1.0927">
        <ele>212</ele>
        <time>2017-10-01T10:13:27.000Z</time>
      </trkpt>
      <trkpt lat="44.9927" lon="1.09267">
        <ele>212</ele>
        <time>2017-10-01T10:13:28.000Z</time>
      </trkpt>
      <trkpt lat="44.99274" lon="1.09264">
        <ele>211</ele>
        <time>2017-10-01T10:13:29.000Z</time>
      </trkpt>
      <trkpt lat="44.99278" lon="1.09261">
        <ele>211</ele>
        <time>2017-10-01T10:13:30.000Z</time>
      </trkpt>
      <trkpt lat="44.99282" lon="1.09259">
        <ele>211</ele>
        <time>2017-10-01T10:13:31.000Z</time>
      </trkpt>
      <trkpt lat="44.99285" lon="1.09257">
        <ele>211</ele>
        <time>2017-10-01T10:13:32.000Z</time>
      </trkpt>
      <trkpt lat="44.99289" lon="1.09256">
        <ele>211</ele>
        <time>2017-10-01T10:13:33.000Z</time>
      </trkpt>
      <trkpt lat="44.99293" lon="1.09256">
        <ele>212</ele>
        <time>2017-10-01T10:13:34.000Z</time>
      </trkpt>
      <trkpt lat="44.99296" lon="1.09257">
        <ele>212</ele>
        <time>2017-10-01T10:13:35.000Z</time>
      </trkpt>
      <trkpt lat="44.993" lon="1.09259">
        <ele>212</ele>
        <time>2017-10-01T10:13:36.000Z</time>
      </trkpt>
      <trkpt lat="44.99303" lon="1.09262">
        <ele>213</ele>
        <time>2017-10-01T10:13:37.000Z</time>
      </trkpt>
      <trkpt lat="44.99306" lon="1.09265">
        <ele>213</ele>
        <time>2017-10-01T10:13:38.000Z</time>
      </trkpt>
      <trkpt lat="44.99308" lon="1.09268">
        <ele>213</ele>
        <time>2017-10-01T10:13:39.000Z</time>
      </trkpt>
      <trkpt lat="44.99309" lon="1.09272">
        <ele>214</ele>
        <time>2017-10-01T10:13:40.000Z</time>
      </trkpt>
      <trkpt lat="44.99311" lon="1.09276">
        <ele>214</ele>
        <time>2017-10-01T10:13:41.000Z</time>
      </trkpt>
      <trkpt lat="44.99313" lon="1.09279">
        <ele>214</ele>
        <time>2017-10-01T10:13:42.000Z</time>
      </trkpt>
      <trkpt lat="44.99314" lon="1.09283">
        <ele>215</ele>
        <time>2017-10-01T10:13:43.000Z</time>
      </trkpt>
      <trkpt lat="44.99316" lon="1.09287">
        <ele>215</ele>
        <time>2017-10-01T10:13:44.000Z</time>
      </trkpt>
      <trkpt lat="44.99318" lon="1.0929">
        <ele>215</ele>
        <time>2017-10-01T10:13:45.000Z</time>
      </trkpt>
      <trkpt lat="44.9932" lon="1.09294">
        <ele>215</ele>
        <time>2017-10-01T10:13:46.000Z</time>
      </trkpt>
      <trkpt lat="44.99322" lon="1.09298">
        <ele>216</ele>
        <time>2017-10-01T10:13:47.000Z</time>
      </trkpt>
      <trkpt lat="44.99323" lon="1.09301">
        <ele>216</ele>
        <time>2017-10-01T10:13:48.000Z</time>
      </trkpt>
      <trkpt lat="44.99324" lon="1.09305">
        <ele>216</ele>
        <time>2017-10-01T10:13:49.000Z</time>
      </trkpt>
      <trkpt lat="44.99326" lon="1.09308">
        <ele>216</ele>
        <time>2017-10-01T10:13:50.000Z</time>
      </trkpt>
      <trkpt lat="44.99327" lon="1.09311">
        <ele>216</ele>
        <time>2017-10-01T10:13:51.000Z</time>
      </trkpt>
      <trkpt lat="44.99328" lon="1.09313">
        <ele>217</ele>
        <time>2017-10-01T10:13:52.000Z</time>
      </trkpt>
      <trkpt lat="44.99329" lon="1.09315">
        <ele>217</ele>
        <time>2017-10-01T10:13:53.000Z</time>
      </trkpt>
      <trkpt lat="44.99331" lon="1.09318">
        <ele>217</ele>
        <time>2017-10-01T10:13:54.000Z</time>
      </trkpt>
      <trkpt lat="44.99333" lon="1.09321">
        <ele>217</ele>
        <time>2017-10-01T10:13:55.000Z</time>
      </trkpt>
      <trkpt lat="44.99335" lon="1.09325">
        <ele>217</ele>
        <time>2017-10-01T10:13:56.000Z</time>
      </trkpt>
      <trkpt lat="44.99337" lon="1.09329">
        <ele>217</ele>
        <time>2017-10-01T10:13:57.000Z</time>
      </trkpt>
      <trkpt lat="44.99339" lon="1.09333">
        <ele>217</ele>
        <time>2017-10-01T10:13:58.000Z</time>
      </trkpt>
      <trkpt lat="44.99341" lon="1.09338">
        <ele>217</ele>
        <time>2017-10-01T10:13:59.000Z</time>
      </trkpt>
      <trkpt lat="44.99344" lon="1.09344">
        <ele>217</ele>
        <time>2017-10-01T10:14:00.000Z</time>
      </trkpt>
      <trkpt lat="44.99347" lon="1.0935">
        <ele>217</ele>
        <time>2017-10-01T10:14:01.000Z</time>
      </trkpt>
      <trkpt lat="44.99349" lon="1.09357">
        <ele>217</ele>
        <time>2017-10-01T10:14:02.000Z</time>
      </trkpt>
      <trkpt lat="44.99352" lon="1.09364">
        <ele>217</ele>
        <time>2017-10-01T10:14:03.000Z</time>
      </trkpt>
      <trkpt lat="44.99356" lon="1.09372">
        <ele>216</ele>
        <time>2017-10-01T10:14:04.000Z</time>
      </trkpt>
      <trkpt lat="44.99359" lon="1.09379">
        <ele>216</ele>
        <time>2017-10-01T10:14:05.000Z</time>
      </trkpt>
      <trkpt lat="44.99362" lon="1.09388">
        <ele>216</ele>
        <time>2017-10-01T10:14:06.000Z</time>
      </trkpt>
      <trkpt lat="44.99365" lon="1.09396">
        <ele>216</ele>
        <time>2017-10-01T10:14:07.000Z</time>
      </trkpt>
      <trkpt lat="44.99368" lon="1.09404">
        <ele>216</ele>
        <time>2017-10-01T10:14:08.000Z</time>
      </trkpt>
      <trkpt lat="44.9937" lon="1.09412">
        <ele>215</ele>
        <time>2017-10-01T10:14:09.000Z</time>
      </trkpt>
      <trkpt lat="44.99373" lon="1.0942">
        <ele>215</ele>
        <time>2017-10-01T10:14:10.000Z</time>
      </trkpt>
      <trkpt lat="44.99375" lon="1.09427">
        <ele>215</ele>
        <time>2017-10-01T10:14:11.000Z</time>
      </trkpt>
      <trkpt lat="44.99377" lon="1.09435">
        <ele>215</ele>
        <time>2017-10-01T10:14:12.000Z</time>
      </trkpt>
      <trkpt lat="44.99378" lon="1.09442">
        <ele>215</ele>
        <time>2017-10-01T10:14:13.000Z</time>
      </trkpt>
      <trkpt lat="44.99379" lon="1.09449">
        <ele>216</ele>
        <time>2017-10-01T10:14:14.000Z</time>
      </trkpt>
      <trkpt lat="44.9938" lon="1.09456">
        <ele>216</ele>
        <time>2017-10-01T10:14:15.000Z</time>
      </trkpt>
      <trkpt lat="44.9938" lon="1.09463">
        <ele>216</ele>
        <time>2017-10-01T10:14:16.000Z</time>
      </trkpt>
      <trkpt lat="44.9938" lon="1.0947">
        <ele>216</ele>
        <time>2017-10-01T10:14:17.000Z</time>
      </trkpt>
      <trkpt lat="44.99381" lon="1.09477">
        <ele>217</ele>
        <time>2017-10-01T10:14:18.000Z</time>
      </trkpt>
      <trkpt lat="44.99381" lon="1.09483">
        <ele>217</ele>
        <time>2017-10-01T10:14:19.000Z</time>
      </trkpt>
      <trkpt lat="44.99382" lon="1.09489">
        <ele>217</ele>
        <time>2017-10-01T10:14:20.000Z</time>
      </trkpt>
      <trkpt lat="44.99384" lon="1.09495">
        <ele>217</ele>
        <time>2017-10-01T10:14:21.000Z</time>
      </trkpt>
      <trkpt lat="44.99386" lon="1.09501">
        <ele>217</ele>
        <time>2017-10-01T10:14:22.000Z</time>
      </trkpt>
      <trkpt lat="44.99389" lon="1.09506">
        <ele>217</ele>
        <time>2017-10-01T10:14:23.000Z</time>
      </trkpt>
      <trkpt lat="44.99392" lon="1.09512">
        <ele>217</ele>
        <time>2017-10-01T10:14:24.000Z</time>
      </trkpt>
      <trkpt lat="44.99395" lon="1.09517">
        <ele>217</ele>
        <time>2017-10-01T10:14:25.000Z</time>
      </trkpt>
      <trkpt lat="44.99398" lon="1.09521">
        <ele>217</ele>
        <time>2017-10-01T10:14:26.000Z</time>
      </trkpt>
      <trkpt lat="44.99401" lon="1.09526">
        <ele>217</ele>
        <time>2017-10-01T10:14:27.000Z</time>
      </trkpt>
      <trkpt lat="44.99404" lon="1.0953">
        <ele>217</ele>
        <time>2017-10-01T10:14:28.000Z</time>
      </trkpt>
      <trkpt lat="44.99407" lon="1.09534">
        <ele>217</ele>
        <time>2017-10-01T10:14:29.000Z</time>
      </trkpt>
      <trkpt lat="44.99409" lon="1.09538">
        <ele>217</ele>
        <time>2017-10-01T10:14:30.000Z</time>
      </trkpt>
      <trkpt lat="44.99412" lon="1.09542">
        <ele>217</ele>
        <time>2017-10-01T10:14:31.000Z</time>
      </trkpt>
      <trkpt lat="44.99414" lon="1.09545">
        <ele>217</ele>
        <time>2017-10-01T10:14:32.000Z</time>
      </trkpt>
      <trkpt lat="44.99417" lon="1.09549">
        <ele>217</ele>
        <time>2017-10-01T10:14:33.000Z</time>
      </trkpt>
      <trkpt lat="44.99419" lon="1.09552">
        <ele>218</ele>
        <time>2017-10-01T10:14:34.000Z</time>
      </trkpt>
      <trkpt lat="44.99421" lon="1.09556">
        <ele>218</ele>
        <time>2017-10-01T10:14:35.000Z</time>
      </trkpt>
      <trkpt lat="44.99423" lon="1.09559">
        <ele>218</ele>
        <time>2017-10-01T10:14:36.000Z</time>
      </trkpt>
      <trkpt lat="44.99426" lon="1.09562">
        <ele>218</ele>
        <time>2017-10-01T10:14:37.000Z</time>
      </trkpt>
      <trkpt lat="44.99428" lon="1.09566">
        <ele>218</ele>
        <time>2017-10-01T10:14:38.000Z</time>
      </trkpt>
      <trkpt lat="44.9943" lon="1.09569">
        <ele>218</ele>
        <time>2017-10-01T10:14:39.000Z</time>
      </trkpt>
      <trkpt lat="44.99432" lon="1.09572">
        <ele>219</ele>
        <time>2017-10-01T10:14:40.000Z</time>
      </trkpt>
      <trkpt lat="44.99434" lon="1.09576">
        <ele>219</ele>
        <time>2017-10-01T10:14:41.000Z</time>
      </trkpt>
      <trkpt lat="44.99436" lon="1.09579">
        <ele>219</ele>
        <time>2017-10-01T10:14:42.000Z</time>
      </trkpt>
      <trkpt lat="44.99437" lon="1.09583">
        <ele>219</ele>
        <time>2017-10-01T10:14:43.000Z</time>
      </trkpt>
      <trkpt lat="44.99439" lon="1.09586">
        <ele>219</ele>
        <time>2017-10-01T10:14:44.000Z</time>
      </trkpt>
      <trkpt lat="44.9944" lon="1.0959">
        <ele>219</ele>
        <time>2017-10-01T10:14:45.000Z</time>
      </trkpt>
      <trkpt lat="44.99442" lon="1.09594">
        <ele>219</ele>
        <time>2017-10-01T10:14:46.000Z</time>
      </trkpt>
      <trkpt lat="44.99443" lon="1.09598">
        <ele>219</ele>
        <time>2017-10-01T10:14:47.000Z</time>
      </trkpt>
      <trkpt lat="44.99444" lon="1.09603">
        <ele>219</ele>
        <time>2017-10-01T10:14:48.000Z</time>
      </trkpt>
      <trkpt lat="44.99444" lon="1.09607">
        <ele>219</ele>
        <time>2017-10-01T10:14:49.000Z</time>
      </trkpt>
      <trkpt lat="44.99444" lon="1.09611">
        <ele>219</ele>
        <time>2017-10-01T10:14:50.000Z</time>
      </trkpt>
      <trkpt lat="44.99444" lon="1.09615">
        <ele>219</ele>
        <time>2017-10-01T10:14:51.000Z</time>
      </trkpt>
      <trkpt lat="44.99444" lon="1.09619">
        <ele>219</ele>
        <time>2017-10-01T10:14:52.000Z</time>
      </trkpt>
      <trkpt lat="44.99443" lon="1.09623">
        <ele>219</ele>
        <time>2017-10-01T10:14:53.000Z</time>
      </trkpt>
      <trkpt lat="44.99443" lon="1.09628">
        <ele>219</ele>
        <time>2017-10-01T10:14:54.000Z</time>
      </trkpt>
      <trkpt lat="44.99442" lon="1.09632">
        <ele>219</ele>
        <time>2017-10-01T10:14:55.000Z</time>
      </trkpt>
      <trkpt lat="44.99441" lon="1.09637">
        <ele>219</ele>
        <time>2017-10-01T10:14:56.000Z</time>
      </trkpt>
      <trkpt lat="44.99441" lon="1.09642">
        <ele>219</ele>
        <time>2017-10-01T10:14:57.000Z</time>
      </trkpt>
      <trkpt lat="44.99442" lon="1.09646">
        <ele>219</ele>
        <time>2017-10-01T10:14:58.000Z</time>
      </trkpt>
      <trkpt lat="44.99443" lon="1.09649">
        <ele>219</ele>
        <time>2017-10-01T10:14:59.000Z</time>
      </trkpt>
      <trkpt lat="44.99446" lon="1.09648">
        <ele>219</ele>
        <time>2017-10-01T10:15:00.000Z</time>
      </trkpt>
      <trkpt lat="44.99451" lon="1.09645">
        <ele>218</ele>
        <time>2017-10-01T10:15:01.000Z</time>
      </trkpt>
      <trkpt lat="44.99456" lon="1.09642">
        <ele>217</ele>
        <time>2017-10-01T10:15:02.000Z</time>
      </trkpt>
      <trkpt lat="44.99461" lon="1.09639">
        <ele>217</ele>
        <time>2017-10-01T10:15:03.000Z</time>
      </trkpt>
      <trkpt lat="44.99467" lon="1.09637">
        <ele>216</ele>
        <time>2017-10-01T10:15:04.000Z</time>
      </trkpt>
      <trkpt lat="44.99473" lon="1.09635">
        <ele>215</ele>
        <time>2017-10-01T10:15:05.000Z</time>
      </trkpt>
      <trkpt lat="44.99479" lon="1.09634">
        <ele>215</ele>
        <time>2017-10-01T10:15:06.000Z</time>
      </trkpt>
      <trkpt lat="44.99485" lon="1.09633">
        <ele>214</ele>
        <time>2017-10-01T10:15:07.000Z</time>
      </trkpt>
      <trkpt lat="44.99491" lon="1.09632">
        <ele>213</ele>
        <time>2017-10-01T10:15:08.000Z</time>
      </trkpt>
      <trkpt lat="44.99498" lon="1.09631">
        <ele>212</ele>
        <time>2017-10-01T10:15:09.000Z</time>
      </trkpt>
      <trkpt lat="44.99504" lon="1.0963">
        <ele>212</ele>
        <time>2017-10-01T10:15:10.000Z</time>
      </trkpt>
      <trkpt lat="44.9951" lon="1.0963">
        <ele>212</ele>
        <time>2017-10-01T10:15:11.000Z</time>
      </trkpt>
      <trkpt lat="44.99517" lon="1.09629">
        <ele>212</ele>
        <time>2017-10-01T10:15:12.000Z</time>
      </trkpt>
      <trkpt lat="44.99523" lon="1.09628">
        <ele>211</ele>
        <time>2017-10-01T10:15:13.000Z</time>
      </trkpt>
      <trkpt lat="44.99529" lon="1.09628">
        <ele>211</ele>
        <time>2017-10-01T10:15:14.000Z</time>
      </trkpt>
      <trkpt lat="44.99536" lon="1.09627">
        <ele>211</ele>
        <time>2017-10-01T10:15:15.000Z</time>
      </trkpt>
      <trkpt lat="44.99542" lon="1.09626">
        <ele>211</ele>
        <time>2017-10-01T10:15:16.000Z</time>
      </trkpt>
      <trkpt lat="44.99549" lon="1.09625">
        <ele>211</ele>
        <time>2017-10-01T10:15:17.000Z</time>
      </trkpt>
      <trkpt lat="44.99556" lon="1.09624">
        <ele>211</ele>
        <time>2017-10-01T10:15:18.000Z</time>
      </trkpt>
      <trkpt lat="44.99562" lon="1.09623">
        <ele>211</ele>
        <time>2017-10-01T10:15:19.000Z</time>
      </trkpt>
      <trkpt lat="44.99568" lon="1.09622">
        <ele>210</ele>
        <time>2017-10-01T10:15:20.000Z</time>
      </trkpt>
      <trkpt lat="44.99575" lon="1.09621">
        <ele>210</ele>
        <time>2017-10-01T10:15:21.000Z</time>
      </trkpt>
      <trkpt lat="44.99581" lon="1.0962">
        <ele>210</ele>
        <time>2017-10-01T10:15:22.000Z</time>
      </trkpt>
      <trkpt lat="44.99588" lon="1.09619">
        <ele>210</ele>
        <time>2017-10-01T10:15:23.000Z</time>
      </trkpt>
      <trkpt lat="44.99595" lon="1.09618">
        <ele>210</ele>
        <time>2017-10-01T10:15:24.000Z</time>
      </trkpt>
      <trkpt lat="44.99602" lon="1.09617">
        <ele>210</ele>
        <time>2017-10-01T10:15:25.000Z</time>
      </trkpt>
      <trkpt lat="44.99609" lon="1.09616">
        <ele>210</ele>
        <time>2017-10-01T10:15:26.000Z</time>
      </trkpt>
      <trkpt lat="44.99614" lon="1.09614">
        <ele>210</ele>
        <time>2017-10-01T10:15:27.000Z</time>
      </trkpt>
      <trkpt lat="44.99617" lon="1.09611">
        <ele>210</ele>
        <time>2017-10-01T10:15:28.000Z</time>
      </trkpt>
      <trkpt lat="44.99619" lon="1.09607">
        <ele>210</ele>
        <time>2017-10-01T10:15:29.000Z</time>
      </trkpt>
      <trkpt lat="44.9962" lon="1.09601">
        <ele>210</ele>
        <time>2017-10-01T10:15:30.000Z</time>
      </trkpt>
      <trkpt lat="44.9962" lon="1.09594">
        <ele>210</ele>
        <time>2017-10-01T10:15:31.000Z</time>
      </trkpt>
      <trkpt lat="44.9962" lon="1.09587">
        <ele>210</ele>
        <time>2017-10-01T10:15:32.000Z</time>
      </trkpt>
      <trkpt lat="44.99619" lon="1.0958">
        <ele>209</ele>
        <time>2017-10-01T10:15:33.000Z</time>
      </trkpt>
      <trkpt lat="44.99619" lon="1.09573">
        <ele>209</ele>
        <time>2017-10-01T10:15:34.000Z</time>
      </trkpt>
      <trkpt lat="44.9962" lon="1.09566">
        <ele>209</ele>
        <time>2017-10-01T10:15:35.000Z</time>
      </trkpt>
      <trkpt lat="44.99621" lon="1.09557">
        <ele>208</ele>
        <time>2017-10-01T10:15:36.000Z</time>
      </trkpt>
      <trkpt lat="44.99622" lon="1.09547">
        <ele>208</ele>
        <time>2017-10-01T10:15:37.000Z</time>
      </trkpt>
      <trkpt lat="44.99624" lon="1.09537">
        <ele>207</ele>
        <time>2017-10-01T10:15:38.000Z</time>
      </trkpt>
      <trkpt lat="44.99626" lon="1.09527">
        <ele>206</ele>
        <time>2017-10-01T10:15:39.000Z</time>
      </trkpt>
      <trkpt lat="44.99628" lon="1.09516">
        <ele>206</ele>
        <time>2017-10-01T10:15:40.000Z</time>
      </trkpt>
      <trkpt lat="44.9963" lon="1.09506">
        <ele>205</ele>
        <time>2017-10-01T10:15:41.000Z</time>
      </trkpt>
      <trkpt lat="44.99631" lon="1.09496">
        <ele>205</ele>
        <time>2017-10-01T10:15:42.000Z</time>
      </trkpt>
      <trkpt lat="44.99632" lon="1.09486">
        <ele>204</ele>
        <time>2017-10-01T10:15:43.000Z</time>
      </trkpt>
      <trkpt lat="44.99633" lon="1.09476">
        <ele>203</ele>
        <time>2017-10-01T10:15:44.000Z</time>
      </trkpt>
      <trkpt lat="44.99633" lon="1.09466">
        <ele>202</ele>
        <time>2017-10-01T10:15:45.000Z</time>
      </trkpt>
      <trkpt lat="44.99632" lon="1.09456">
        <ele>201</ele>
        <time>2017-10-01T10:15:46.000Z</time>
      </trkpt>
      <trkpt lat="44.99632" lon="1.09446">
        <ele>200</ele>
        <time>2017-10-01T10:15:47.000Z</time>
      </trkpt>
      <trkpt lat="44.99631" lon="1.09437">
        <ele>199</ele>
        <time>2017-10-01T10:15:48.000Z</time>
      </trkpt>
      <trkpt lat="44.99631" lon="1.09427">
        <ele>198</ele>
        <time>2017-10-01T10:15:49.000Z</time>
      </trkpt>
      <trkpt lat="44.99631" lon="1.09417">
        <ele>197</ele>
        <time>2017-10-01T10:15:50.000Z</time>
      </trkpt>
      <trkpt lat="44.99632" lon="1.09408">
        <ele>196</ele>
        <time>2017-10-01T10:15:51.000Z</time>
      </trkpt>
      <trkpt lat="44.99633" lon="1.09399">
        <ele>194</ele>
        <time>2017-10-01T10:15:52.000Z</time>
      </trkpt>
      <trkpt lat="44.99634" lon="1.0939">
        <ele>193</ele>
        <time>2017-10-01T10:15:53.000Z</time>
      </trkpt>
      <trkpt lat="44.99635" lon="1.09382">
        <ele>192</ele>
        <time>2017-10-01T10:15:54.000Z</time>
      </trkpt>
      <trkpt lat="44.99636" lon="1.09375">
        <ele>191</ele>
        <time>2017-10-01T10:15:55.000Z</time>
      </trkpt>
      <trkpt lat="44.99637" lon="1.09369">
        <ele>190</ele>
        <time>2017-10-01T10:15:56.000Z</time>
      </trkpt>
      <trkpt lat="44.99639" lon="1.09364">
        <ele>189</ele>
        <time>2017-10-01T10:15:57.000Z</time>
      </trkpt>
      <trkpt lat="44.99641" lon="1.0936">
        <ele>188</ele>
        <time>2017-10-01T10:15:58.000Z</time>
      </trkpt>
      <trkpt lat="44.99644" lon="1.09357">
        <ele>188</ele>
        <time>2017-10-01T10:15:59.000Z</time>
      </trkpt>
      <trkpt lat="44.99648" lon="1.09356">
        <ele>187</ele>
        <time>2017-10-01T10:16:00.000Z</time>
      </trkpt>
      <trkpt lat="44.99653" lon="1.09355">
        <ele>187</ele>
        <time>2017-10-01T10:16:01.000Z</time>
      </trkpt>
      <trkpt lat="44.99658" lon="1.09355">
        <ele>187</ele>
        <time>2017-10-01T10:16:02.000Z</time>
      </trkpt>
      <trkpt lat="44.99664" lon="1.09356">
        <ele>186</ele>
        <time>2017-10-01T10:16:03.000Z</time>
      </trkpt>
      <trkpt lat="44.9967" lon="1.09358">
        <ele>186</ele>
        <time>2017-10-01T10:16:04.000Z</time>
      </trkpt>
      <trkpt lat="44.99677" lon="1.09359">
        <ele>186</ele>
        <time>2017-10-01T10:16:05.000Z</time>
      </trkpt>
      <trkpt lat="44.99682" lon="1.09361">
        <ele>186</ele>
        <time>2017-10-01T10:16:06.000Z</time>
      </trkpt>
      <trkpt lat="44.99687" lon="1.09363">
        <ele>186</ele>
        <time>2017-10-01T10:16:07.000Z</time>
      </trkpt>
      <trkpt lat="44.99693" lon="1.09364">
        <ele>186</ele>
        <time>2017-10-01T10:16:08.000Z</time>
      </trkpt>
      <trkpt lat="44.99698" lon="1.09365">
        <ele>186</ele>
        <time>2017-10-01T10:16:09.000Z</time>
      </trkpt>
      <trkpt lat="44.99704" lon="1.09365">
        <ele>186</ele>
        <time>2017-10-01T10:16:10.000Z</time>
      </trkpt>
      <trkpt lat="44.9971" lon="1.09366">
        <ele>186</ele>
        <time>2017-10-01T10:16:11.000Z</time>
      </trkpt>
      <trkpt lat="44.99717" lon="1.09367">
        <ele>185</ele>
        <time>2017-10-01T10:16:12.000Z</time>
      </trkpt>
      <trkpt lat="44.99725" lon="1.09368">
        <ele>185</ele>
        <time>2017-10-01T10:16:13.000Z</time>
      </trkpt>
      <trkpt lat="44.99732" lon="1.09368">
        <ele>185</ele>
        <time>2017-10-01T10:16:14.000Z</time>
      </trkpt>
      <trkpt lat="44.99741" lon="1.09369">
        <ele>184</ele>
        <time>2017-10-01T10:16:15.000Z</time>
      </trkpt>
      <trkpt lat="44.99749" lon="1.09369">
        <ele>184</ele>
        <time>2017-10-01T10:16:16.000Z</time>
      </trkpt>
      <trkpt lat="44.99757" lon="1.09369">
        <ele>183</ele>
        <time>2017-10-01T10:16:17.000Z</time>
      </trkpt>
      <trkpt lat="44.99765" lon="1.09369">
        <ele>183</ele>
        <time>2017-10-01T10:16:18.000Z</time>
      </trkpt>
      <trkpt lat="44.99772" lon="1.09369">
        <ele>182</ele>
        <time>2017-10-01T10:16:19.000Z</time>
      </trkpt>
      <trkpt lat="44.99779" lon="1.0937">
        <ele>182</ele>
        <time>2017-10-01T10:16:20.000Z</time>
      </trkpt>
      <trkpt lat="44.99786" lon="1.0937">
        <ele>181</ele>
        <time>2017-10-01T10:16:21.000Z</time>
      </trkpt>
      <trkpt lat="44.99792" lon="1.0937">
        <ele>181</ele>
        <time>2017-10-01T10:16:22.000Z</time>
      </trkpt>
      <trkpt lat="44.99797" lon="1.0937">
        <ele>180</ele>
        <time>2017-10-01T10:16:23.000Z</time>
      </trkpt>
      <trkpt lat="44.998" lon="1.09367">
        <ele>180</ele>
        <time>2017-10-01T10:16:24.000Z</time>
      </trkpt>
      <trkpt lat="44.99803" lon="1.09364">
        <ele>179</ele>
        <time>2017-10-01T10:16:25.000Z</time>
      </trkpt>
      <trkpt lat="44.99804" lon="1.09361">
        <ele>178</ele>
        <time>2017-10-01T10:16:26.000Z</time>
      </trkpt>
      <trkpt lat="44.99805" lon="1.09358">
        <ele>178</ele>
        <time>2017-10-01T10:16:27.000Z</time>
      </trkpt>
      <trkpt lat="44.99806" lon="1.09356">
        <ele>177</ele>
        <time>2017-10-01T10:16:28.000Z</time>
      </trkpt>
      <trkpt lat="44.99806" lon="1.09355">
        <ele>177</ele>
        <time>2017-10-01T10:16:29.000Z</time>
      </trkpt>
      <trkpt lat="44.99806" lon="1.09354">
        <ele>177</ele>
        <time>2017-10-01T10:16:30.000Z</time>
      </trkpt>
      <trkpt lat="44.99805" lon="1.09353">
        <ele>177</ele>
        <time>2017-10-01T10:16:31.000Z</time>
      </trkpt>
      <trkpt lat="44.99803" lon="1.09353">
        <ele>177</ele>
        <time>2017-10-01T10:16:32.000Z</time>
      </trkpt>
      <trkpt lat="44.99801" lon="1.09353">
        <ele>177</ele>
        <time>2017-10-01T10:16:33.000Z</time>
      </trkpt>
      <trkpt lat="44.99798" lon="1.09353">
        <ele>177</ele>
        <time>2017-10-01T10:16:34.000Z</time>
      </trkpt>
      <trkpt lat="44.99795" lon="1.09352">
        <ele>178</ele>
        <time>2017-10-01T10:16:35.000Z</time>
      </trkpt>
      <trkpt lat="44.99792" lon="1.09352">
        <ele>178</ele>
        <time>2017-10-01T10:16:36.000Z</time>
      </trkpt>
      <trkpt lat="44.99789" lon="1.0935">
        <ele>178</ele>
        <time>2017-10-01T10:16:37.000Z</time>
      </trkpt>
      <trkpt lat="44.99785" lon="1.09347">
        <ele>177</ele>
        <time>2017-10-01T10:16:38.000Z</time>
      </trkpt>
      <trkpt lat="44.99782" lon="1.09341">
        <ele>177</ele>
        <time>2017-10-01T10:16:39.000Z</time>
      </trkpt>
      <trkpt lat="44.99779" lon="1.09334">
        <ele>176</ele>
        <time>2017-10-01T10:16:40.000Z</time>
      </trkpt>
      <trkpt lat="44.99775" lon="1.09325">
        <ele>175</ele>
        <time>2017-10-01T10:16:41.000Z</time>
      </trkpt>
      <trkpt lat="44.99772" lon="1.09316">
        <ele>173</ele>
        <time>2017-10-01T10:16:42.000Z</time>
      </trkpt>
      <trkpt lat="44.99768" lon="1.09306">
        <ele>172</ele>
        <time>2017-10-01T10:16:43.000Z</time>
      </trkpt>
      <trkpt lat="44.99764" lon="1.09296">
        <ele>171</ele>
        <time>2017-10-01T10:16:44.000Z</time>
      </trkpt>
      <trkpt lat="44.99759" lon="1.09288">
        <ele>170</ele>
        <time>2017-10-01T10:16:45.000Z</time>
      </trkpt>
      <trkpt lat="44.99754" lon="1.0928">
        <ele>169</ele>
        <time>2017-10-01T10:16:46.000Z</time>
      </trkpt>
      <trkpt lat="44.99749" lon="1.09272">
        <ele>169</ele>
        <time>2017-10-01T10:16:47.000Z</time>
      </trkpt>
      <trkpt lat="44.99742" lon="1.09265">
        <ele>168</ele>
        <time>2017-10-01T10:16:48.000Z</time>
      </trkpt>
      <trkpt lat="44.99735" lon="1.09258">
        <ele>168</ele>
        <time>2017-10-01T10:16:49.000Z</time>
      </trkpt>
      <trkpt lat="44.99727" lon="1.09251">
        <ele>168</ele>
        <time>2017-10-01T10:16:50.000Z</time>
      </trkpt>
      <trkpt lat="44.99718" lon="1.09244">
        <ele>169</ele>
        <time>2017-10-01T10:16:51.000Z</time>
      </trkpt>
      <trkpt lat="44.99709" lon="1.09236">
        <ele>170</ele>
        <time>2017-10-01T10:16:52.000Z</time>
      </trkpt>
      <trkpt lat="44.99703" lon="1.09228">
        <ele>171</ele>
        <time>2017-10-01T10:16:53.000Z</time>
      </trkpt>
      <trkpt lat="44.99699" lon="1.0922">
        <ele>172</ele>
        <time>2017-10-01T10:16:54.000Z</time>
      </trkpt>
      <trkpt lat="44.99698" lon="1.09214">
        <ele>173</ele>
        <time>2017-10-01T10:16:55.000Z</time>
      </trkpt>
      <trkpt lat="44.99698" lon="1.09211">
        <ele>173</ele>
        <time>2017-10-01T10:16:56.000Z</time>
      </trkpt>
      <trkpt lat="44.997" lon="1.09209">
        <ele>172</ele>
        <time>2017-10-01T10:16:57.000Z</time>
      </trkpt>
      <trkpt lat="44.99705" lon="1.09208">
        <ele>172</ele>
        <time>2017-10-01T10:16:58.000Z</time>
      </trkpt>
      <trkpt lat="44.99711" lon="1.09206">
        <ele>171</ele>
        <time>2017-10-01T10:16:59.000Z</time>
      </trkpt>
      <trkpt lat="44.99718" lon="1.09204">
        <ele>170</ele>
        <time>2017-10-01T10:17:00.000Z</time>
      </trkpt>
      <trkpt lat="44.99725" lon="1.09201">
        <ele>169</ele>
        <time>2017-10-01T10:17:01.000Z</time>
      </trkpt>
      <trkpt lat="44.99733" lon="1.09198">
        <ele>168</ele>
        <time>2017-10-01T10:17:02.000Z</time>
      </trkpt>
      <trkpt lat="44.9974" lon="1.09195">
        <ele>166</ele>
        <time>2017-10-01T10:17:03.000Z</time>
      </trkpt>
      <trkpt lat="44.99748" lon="1.09192">
        <ele>165</ele>
        <time>2017-10-01T10:17:04.000Z</time>
      </trkpt>
      <trkpt lat="44.99755" lon="1.09189">
        <ele>164</ele>
        <time>2017-10-01T10:17:05.000Z</time>
      </trkpt>
      <trkpt lat="44.99762" lon="1.09186">
        <ele>163</ele>
        <time>2017-10-01T10:17:06.000Z</time>
      </trkpt>
      <trkpt lat="44.99769" lon="1.09184">
        <ele>162</ele>
        <time>2017-10-01T10:17:07.000Z</time>
      </trkpt>
      <trkpt lat="44.99776" lon="1.09184">
        <ele>161</ele>
        <time>2017-10-01T10:17:08.000Z</time>
      </trkpt>
      <trkpt lat="44.99783" lon="1.09185">
        <ele>160</ele>
        <time>2017-10-01T10:17:09.000Z</time>
      </trkpt>
      <trkpt lat="44.99791" lon="1.09187">
        <ele>159</ele>
        <time>2017-10-01T10:17:10.000Z</time>
      </trkpt>
      <trkpt lat="44.99797" lon="1.09189">
        <ele>158</ele>
        <time>2017-10-01T10:17:11.000Z</time>
      </trkpt>
      <trkpt lat="44.99804" lon="1.09189">
        <ele>158</ele>
        <time>2017-10-01T10:17:12.000Z</time>
      </trkpt>
      <trkpt lat="44.9981" lon="1.09187">
        <ele>157</ele>
        <time>2017-10-01T10:17:13.000Z</time>
      </trkpt>
      <trkpt lat="44.99816" lon="1.09185">
        <ele>156</ele>
        <time>2017-10-01T10:17:14.000Z</time>
      </trkpt>
      <trkpt lat="44.99822" lon="1.09183">
        <ele>155</ele>
        <time>2017-10-01T10:17:15.000Z</time>
      </trkpt>
      <trkpt lat="44.99828" lon="1.0918">
        <ele>154</ele>
        <time>2017-10-01T10:17:16.000Z</time>
      </trkpt>
      <trkpt lat="44.99834" lon="1.09178">
        <ele>153</ele>
        <time>2017-10-01T10:17:17.000Z</time>
      </trkpt>
      <trkpt lat="44.99841" lon="1.09175">
        <ele>152</ele>
        <time>2017-10-01T10:17:18.000Z</time>
      </trkpt>
      <trkpt lat="44.99848" lon="1.09172">
        <ele>151</ele>
        <time>2017-10-01T10:17:19.000Z</time>
      </trkpt>
      <trkpt lat="44.99856" lon="1.09167">
        <ele>151</ele>
        <time>2017-10-01T10:17:20.000Z</time>
      </trkpt>
      <trkpt lat="44.99864" lon="1.09162">
        <ele>151</ele>
        <time>2017-10-01T10:17:21.000Z</time>
      </trkpt>
      <trkpt lat="44.99871" lon="1.09156">
        <ele>151</ele>
        <time>2017-10-01T10:17:22.000Z</time>
      </trkpt>
      <trkpt lat="44.99879" lon="1.0915">
        <ele>151</ele>
        <time>2017-10-01T10:17:23.000Z</time>
      </trkpt>
      <trkpt lat="44.99885" lon="1.09144">
        <ele>151</ele>
        <time>2017-10-01T10:17:24.000Z</time>
      </trkpt>
      <trkpt lat="44.99891" lon="1.09139">
        <ele>151</ele>
        <time>2017-10-01T10:17:25.000Z</time>
      </trkpt>
      <trkpt lat="44.99897" lon="1.09136">
        <ele>150</ele>
        <time>2017-10-01T10:17:26.000Z</time>
      </trkpt>
      <trkpt lat="44.99905" lon="1.09137">
        <ele>149</ele>
        <time>2017-10-01T10:17:27.000Z</time>
      </trkpt>
      <trkpt lat="44.99913" lon="1.0914">
        <ele>149</ele>
        <time>2017-10-01T10:17:28.000Z</time>
      </trkpt>
      <trkpt lat="44.99921" lon="1.09142">
        <ele>148</ele>
        <time>2017-10-01T10:17:29.000Z</time>
      </trkpt>
      <trkpt lat="44.99929" lon="1.09141">
        <ele>147</ele>
        <time>2017-10-01T10:17:30.000Z</time>
      </trkpt>
      <trkpt lat="44.99937" lon="1.09139">
        <ele>147</ele>
        <time>2017-10-01T10:17:31.000Z</time>
      </trkpt>
      <trkpt lat="44.99944" lon="1.09135">
        <ele>147</ele>
        <time>2017-10-01T10:17:32.000Z</time>
      </trkpt>
      <trkpt lat="44.99952" lon="1.09131">
        <ele>146</ele>
        <time>2017-10-01T10:17:33.000Z</time>
      </trkpt>
      <trkpt lat="44.99959" lon="1.09128">
        <ele>146</ele>
        <time>2017-10-01T10:17:34.000Z</time>
      </trkpt>
      <trkpt lat="44.99967" lon="1.09124">
        <ele>145</ele>
        <time>2017-10-01T10:17:35.000Z</time>
      </trkpt>
      <trkpt lat="44.99974" lon="1.09123">
        <ele>145</ele>
        <time>2017-10-01T10:17:36.000Z</time>
      </trkpt>
      <trkpt lat="44.99982" lon="1.09121">
        <ele>144</ele>
        <time>2017-10-01T10:17:37.000Z</time>
      </trkpt>
      <trkpt lat="44.9999" lon="1.09121">
        <ele>144</ele>
        <time>2017-10-01T10:17:38.000Z</time>
      </trkpt>
      <trkpt lat="44.99997" lon="1.0912">
        <ele>143</ele>
        <time>2017-10-01T10:17:39.000Z</time>
      </trkpt>
      <trkpt lat="45.00005" lon="1.0912">
        <ele>143</ele>
        <time>2017-10-01T10:17:40.000Z</time>
      </trkpt>
      <trkpt lat="45.00012" lon="1.09118">
        <ele>142</ele>
        <time>2017-10-01T10:17:41.000Z</time>
      </trkpt>
      <trkpt lat="45.00019" lon="1.09115">
        <ele>141</ele>
        <time>2017-10-01T10:17:42.000Z</time>
      </trkpt>
      <trkpt lat="45.00026" lon="1.09111">
        <ele>140</ele>
        <time>2017-10-01T10:17:43.000Z</time>
      </trkpt>
      <trkpt lat="45.00033" lon="1.09108">
        <ele>140</ele>
        <time>2017-10-01T10:17:44.000Z</time>
      </trkpt>
      <trkpt lat="45.00039" lon="1.09105">
        <ele>139</ele>
        <time>2017-10-01T10:17:45.000Z</time>
      </trkpt>
      <trkpt lat="45.00045" lon="1.09104">
        <ele>138</ele>
        <time>2017-10-01T10:17:46.000Z</time>
      </trkpt>
      <trkpt lat="45.00051" lon="1.09103">
        <ele>138</ele>
        <time>2017-10-01T10:17:47.000Z</time>
      </trkpt>
      <trkpt lat="45.00056" lon="1.09103">
        <ele>137</ele>
        <time>2017-10-01T10:17:48.000Z</time>
      </trkpt>
      <trkpt lat="45.00062" lon="1.09103">
        <ele>136</ele>
        <time>2017-10-01T10:17:49.000Z</time>
      </trkpt>
      <trkpt lat="45.00067" lon="1.09103">
        <ele>136</ele>
        <time>2017-10-01T10:17:50.000Z</time>
      </trkpt>
      <trkpt lat="45.00072" lon="1.09104">
        <ele>135</ele>
        <time>2017-10-01T10:17:51.000Z</time>
      </trkpt>
      <trkpt lat="45.00078" lon="1.09105">
        <ele>134</ele>
        <time>2017-10-01T10:17:52.000Z</time>
      </trkpt>
      <trkpt lat="45.00085" lon="1.09106">
        <ele>134</ele>
        <time>2017-10-01T10:17:53.000Z</time>
      </trkpt>
      <trkpt lat="45.00092" lon="1.09109">
        <ele>134</ele>
        <time>2017-10-01T10:17:54.000Z</time>
      </trkpt>
      <trkpt lat="45.00101" lon="1.09112">
        <ele>134</ele>
        <time>2017-10-01T10:17:55.000Z</time>
      </trkpt>
      <trkpt lat="45.0011" lon="1.09114">
        <ele>133</ele>
        <time>2017-10-01T10:17:56.000Z</time>
      </trkpt>
      <trkpt lat="45.00121" lon="1.09115">
        <ele>133</ele>
        <time>2017-10-01T10:17:57.000Z</time>
      </trkpt>
      <trkpt lat="45.00132" lon="1.09115">
        <ele>133</ele>
        <time>2017-10-01T10:17:58.000Z</time>
      </trkpt>
      <trkpt lat="45.00144" lon="1.09113">
        <ele>133</ele>
        <time>2017-10-01T10:17:59.000Z</time>
      </trkpt>
      <trkpt lat="45.00156" lon="1.09111">
        <ele>133</ele>
        <time>2017-10-01T10:18:00.000Z</time>
      </trkpt>
      <trkpt lat="45.00169" lon="1.09108">
        <ele>133</ele>
        <time>2017-10-01T10:18:01.000Z</time>
      </trkpt>
      <trkpt lat="45.0018" lon="1.09106">
        <ele>132</ele>
        <time>2017-10-01T10:18:02.000Z</time>
      </trkpt>
      <trkpt lat="45.0019" lon="1.09104">
        <ele>132</ele>
        <time>2017-10-01T10:18:03.000Z</time>
      </trkpt>
      <trkpt lat="45.00199" lon="1.09103">
        <ele>132</ele>
        <time>2017-10-01T10:18:04.000Z</time>
      </trkpt>
      <trkpt lat="45.00207" lon="1.09102">
        <ele>132</ele>
        <time>2017-10-01T10:18:05.000Z</time>
      </trkpt>
      <trkpt lat="45.00215" lon="1.09101">
        <ele>131</ele>
        <time>2017-10-01T10:18:06.000Z</time>
      </trkpt>
      <trkpt lat="45.00222" lon="1.09101">
        <ele>131</ele>
        <time>2017-10-01T10:18:07.000Z</time>
      </trkpt>
      <trkpt lat="45.0023" lon="1.09101">
        <ele>131</ele>
        <time>2017-10-01T10:18:08.000Z</time>
      </trkpt>
      <trkpt lat="45.00237" lon="1.09101">
        <ele>131</ele>
        <time>2017-10-01T10:18:09.000Z</time>
      </trkpt>
      <trkpt lat="45.00245" lon="1.09101">
        <ele>130</ele>
        <time>2017-10-01T10:18:10.000Z</time>
      </trkpt>
      <trkpt lat="45.00252" lon="1.09101">
        <ele>130</ele>
        <time>2017-10-01T10:18:11.000Z</time>
      </trkpt>
      <trkpt lat="45.0026" lon="1.09102">
        <ele>130</ele>
        <time>2017-10-01T10:18:12.000Z</time>
      </trkpt>
      <trkpt lat="45.00268" lon="1.09103">
        <ele>131</ele>
        <time>2017-10-01T10:18:13.000Z</time>
      </trkpt>
      <trkpt lat="45.00275" lon="1.09104">
        <ele>131</ele>
        <time>2017-10-01T10:18:14.000Z</time>
      </trkpt>
      <trkpt lat="45.00281" lon="1.09105">
        <ele>131</ele>
        <time>2017-10-01T10:18:15.000Z</time>
      </trkpt>
      <trkpt lat="45.00288" lon="1.09107">
        <ele>130</ele>
        <time>2017-10-01T10:18:16.000Z</time>
      </trkpt>
      <trkpt lat="45.00294" lon="1.0911">
        <ele>130</ele>
        <time>2017-10-01T10:18:17.000Z</time>
      </trkpt>
      <trkpt lat="45.003" lon="1.09112">
        <ele>130</ele>
        <time>2017-10-01T10:18:18.000Z</time>
      </trkpt>
      <trkpt lat="45.00306" lon="1.09115">
        <ele>130</ele>
        <time>2017-10-01T10:18:19.000Z</time>
      </trkpt>
      <trkpt lat="45.00312" lon="1.09118">
        <ele>129</ele>
        <time>2017-10-01T10:18:20.000Z</time>
      </trkpt>
      <trkpt lat="45.00318" lon="1.09121">
        <ele>129</ele>
        <time>2017-10-01T10:18:21.000Z</time>
      </trkpt>
      <trkpt lat="45.00325" lon="1.09125">
        <ele>128</ele>
        <time>2017-10-01T10:18:22.000Z</time>
      </trkpt>
      <trkpt lat="45.00331" lon="1.09128">
        <ele>127</ele>
        <time>2017-10-01T10:18:23.000Z</time>
      </trkpt>
      <trkpt lat="45.00338" lon="1.09132">
        <ele>127</ele>
        <time>2017-10-01T10:18:24.000Z</time>
      </trkpt>
      <trkpt lat="45.00344" lon="1.09136">
        <ele>127</ele>
        <time>2017-10-01T10:18:25.000Z</time>
      </trkpt>
      <trkpt lat="45.0035" lon="1.0914">
        <ele>127</ele>
        <time>2017-10-01T10:18:26.000Z</time>
      </trkpt>
      <trkpt lat="45.00355" lon="1.09144">
        <ele>127</ele>
        <time>2017-10-01T10:18:27.000Z</time>
      </trkpt>
      <trkpt lat="45.0036" lon="1.09148">
        <ele>126</ele>
        <time>2017-10-01T10:18:28.000Z</time>
      </trkpt>
      <trkpt lat="45.00364" lon="1.09152">
        <ele>126</ele>
        <time>2017-10-01T10:18:29.000Z</time>
      </trkpt>
      <trkpt lat="45.00368" lon="1.09157">
        <ele>126</ele>
        <time>2017-10-01T10:18:30.000Z</time>
      </trkpt>
      <trkpt lat="45.00372" lon="1.09161">
        <ele>126</ele>
        <time>2017-10-01T10:18:31.000Z</time>
      </trkpt>
      <trkpt lat="45.00376" lon="1.09166">
        <ele>125</ele>
        <time>2017-10-01T10:18:32.000Z</time>
      </trkpt>
      <trkpt lat="45.00379" lon="1.0917">
        <ele>125</ele>
        <time>2017-10-01T10:18:33.000Z</time>
      </trkpt>
      <trkpt lat="45.00383" lon="1.09175">
        <ele>124</ele>
        <time>2017-10-01T10:18:34.000Z</time>
      </trkpt>
      <trkpt lat="45.00387" lon="1.09179">
        <ele>124</ele>
        <time>2017-10-01T10:18:35.000Z</time>
      </trkpt>
      <trkpt lat="45.0039" lon="1.09184">
        <ele>123</ele>
        <time>2017-10-01T10:18:36.000Z</time>
      </trkpt>
      <trkpt lat="45.00394" lon="1.09187">
        <ele>122</ele>
        <time>2017-10-01T10:18:37.000Z</time>
      </trkpt>
      <trkpt lat="45.00397" lon="1.09191">
        <ele>122</ele>
        <time>2017-10-01T10:18:38.000Z</time>
      </trkpt>
      <trkpt lat="45.004" lon="1.09193">
        <ele>122</ele>
        <time>2017-10-01T10:18:39.000Z</time>
      </trkpt>
      <trkpt lat="45.00403" lon="1.09195">
        <ele>121</ele>
        <time>2017-10-01T10:18:40.000Z</time>
      </trkpt>
      <trkpt lat="45.00406" lon="1.09197">
        <ele>121</ele>
        <time>2017-10-01T10:18:41.000Z</time>
      </trkpt>
      <trkpt lat="45.00408" lon="1.09199">
        <ele>121</ele>
        <time>2017-10-01T10:18:42.000Z</time>
      </trkpt>
      <trkpt lat="45.00411" lon="1.09201">
        <ele>121</ele>
        <time>2017-10-01T10:18:43.000Z</time>
      </trkpt>
      <trkpt lat="45.00412" lon="1.09204">
        <ele>120</ele>
        <time>2017-10-01T10:18:44.000Z</time>
      </trkpt>
      <trkpt lat="45.00413" lon="1.09207">
        <ele>119</ele>
        <time>2017-10-01T10:18:45.000Z</time>
      </trkpt>
      <trkpt lat="45.00413" lon="1.0921">
        <ele>118</ele>
        <time>2017-10-01T10:18:46.000Z</time>
      </trkpt>
      <trkpt lat="45.00412" lon="1.09213">
        <ele>117</ele>
        <time>2017-10-01T10:18:47.000Z</time>
      </trkpt>
      <trkpt lat="45.0041" lon="1.09216">
        <ele>116</ele>
        <time>2017-10-01T10:18:48.000Z</time>
      </trkpt>
      <trkpt lat="45.00408" lon="1.09218">
        <ele>116</ele>
        <time>2017-10-01T10:18:49.000Z</time>
      </trkpt>
      <trkpt lat="45.00405" lon="1.09219">
        <ele>115</ele>
        <time>2017-10-01T10:18:50.000Z</time>
      </trkpt>
      <trkpt lat="45.00404" lon="1.09219">
        <ele>115</ele>
        <time>2017-10-01T10:18:51.000Z</time>
      </trkpt>
      <trkpt lat="45.00402" lon="1.09218">
        <ele>115</ele>
        <time>2017-10-01T10:18:52.000Z</time>
      </trkpt>
      <trkpt lat="45.00401" lon="1.09216">
        <ele>116</ele>
        <time>2017-10-01T10:18:53.000Z</time>
      </trkpt>
      <trkpt lat="45.00401" lon="1.09214">
        <ele>116</ele>
        <time>2017-10-01T10:18:54.000Z</time>
      </trkpt>
      <trkpt lat="45.004" lon="1.09211">
        <ele>117</ele>
        <time>2017-10-01T10:18:55.000Z</time>
      </trkpt>
      <trkpt lat="45.00398" lon="1.09208">
        <ele>118</ele>
        <time>2017-10-01T10:18:56.000Z</time>
      </trkpt>
      <trkpt lat="45.00397" lon="1.09204">
        <ele>119</ele>
        <time>2017-10-01T10:18:57.000Z</time>
      </trkpt>
      <trkpt lat="45.00395" lon="1.09201">
        <ele>119</ele>
        <time>2017-10-01T10:18:58.000Z</time>
      </trkpt>
      <trkpt lat="45.00392" lon="1.09197">
        <ele>120</ele>
        <time>2017-10-01T10:18:59.000Z</time>
      </trkpt>
      <trkpt lat="45.00389" lon="1.09194">
        <ele>120</ele>
        <time>2017-10-01T10:19:00.000Z</time>
      </trkpt>
      <trkpt lat="45.00385" lon="1.0919">
        <ele>121</ele>
        <time>2017-10-01T10:19:01.000Z</time>
      </trkpt>
      <trkpt lat="45.00382" lon="1.09187">
        <ele>121</ele>
        <time>2017-10-01T10:19:02.000Z</time>
      </trkpt>
      <trkpt lat="45.00377" lon="1.09183">
        <ele>122</ele>
        <time>2017-10-01T10:19:03.000Z</time>
      </trkpt>
      <trkpt lat="45.00373" lon="1.0918">
        <ele>122</ele>
        <time>2017-10-01T10:19:04.000Z</time>
      </trkpt>
      <trkpt lat="45.00369" lon="1.09177">
        <ele>122</ele>
        <time>2017-10-01T10:19:05.000Z</time>
      </trkpt>
      <trkpt lat="45.00366" lon="1.09173">
        <ele>122</ele>
        <time>2017-10-01T10:19:06.000Z</time>
      </trkpt>
      <trkpt lat="45.00363" lon="1.0917">
        <ele>123</ele>
        <time>2017-10-01T10:19:07.000Z</time>
      </trkpt>
      <trkpt lat="45.00359" lon="1.09167">
        <ele>123</ele>
        <time>2017-10-01T10:19:08.000Z</time>
      </trkpt>
      <trkpt lat="45.00356" lon="1.09164">
        <ele>123</ele>
        <time>2017-10-01T10:19:09.000Z</time>
      </trkpt>
      <trkpt lat="45.00353" lon="1.09162">
        <ele>123</ele>
        <time>2017-10-01T10:19:10.000Z</time>
      </trkpt>
      <trkpt lat="45.0035" lon="1.0916">
        <ele>123</ele>
        <time>2017-10-01T10:19:11.000Z</time>
      </trkpt>
      <trkpt lat="45.00347" lon="1.0916">
        <ele>123</ele>
        <time>2017-10-01T10:19:12.000Z</time>
      </trkpt>
      <trkpt lat="45.00345" lon="1.0916">
        <ele>122</ele>
        <time>2017-10-01T10:19:13.000Z</time>
      </trkpt>
      <trkpt lat="45.00344" lon="1.09161">
        <ele>122</ele>
        <time>2017-10-01T10:19:14.000Z</time>
      </trkpt>
      <trkpt lat="45.00344" lon="1.09164">
        <ele>122</ele>
        <time>2017-10-01T10:19:15.000Z</time>
      </trkpt>
      <trkpt lat="45.00345" lon="1.09167">
        <ele>121</ele>
        <time>2017-10-01T10:19:16.000Z</time>
      </trkpt>
      <trkpt lat="45.00347" lon="1.09171">
        <ele>121</ele>
        <time>2017-10-01T10:19:17.000Z</time>
      </trkpt>
      <trkpt lat="45.00349" lon="1.09175">
        <ele>120</ele>
        <time>2017-10-01T10:19:18.000Z</time>
      </trkpt>
      <trkpt lat="45.00352" lon="1.09179">
        <ele>120</ele>
        <time>2017-10-01T10:19:19.000Z</time>
      </trkpt>
      <trkpt lat="45.00354" lon="1.09182">
        <ele>119</ele>
        <time>2017-10-01T10:19:20.000Z</time>
      </trkpt>
      <trkpt lat="45.00356" lon="1.09185">
        <ele>119</ele>
        <time>2017-10-01T10:19:21.000Z</time>
      </trkpt>
      <trkpt lat="45.00358" lon="1.09187">
        <ele>119</ele>
        <time>2017-10-01T10:19:22.000Z</time>
      </trkpt>
      <trkpt lat="45.0036" lon="1.09189">
        <ele>119</ele>
        <time>2017-10-01T10:19:23.000Z</time>
      </trkpt>
      <trkpt lat="45.00361" lon="1.0919">
        <ele>118</ele>
        <time>2017-10-01T10:19:24.000Z</time>
      </trkpt>
      <trkpt lat="45.00362" lon="1.09191">
        <ele>118</ele>
        <time>2017-10-01T10:19:25.000Z</time>
      </trkpt>
      <trkpt lat="45.00362" lon="1.09192">
        <ele>118</ele>
        <time>2017-10-01T10:19:26.000Z</time>
      </trkpt>
      <trkpt lat="45.00363" lon="1.09193">
        <ele>118</ele>
        <time>2017-10-01T10:19:27.000Z</time>
      </trkpt>
      <trkpt lat="45.00362" lon="1.09194">
        <ele>118</ele>
        <time>2017-10-01T10:19:28.000Z</time>
      </trkpt>
      <trkpt lat="45.00362" lon="1.09195">
        <ele>117</ele>
        <time>2017-10-01T10:19:29.000Z</time>
      </trkpt>
      <trkpt lat="45.00362" lon="1.09196">
        <ele>117</ele>
        <time>2017-10-01T10:19:30.000Z</time>
      </trkpt>
      <trkpt lat="45.00361" lon="1.09197">
        <ele>117</ele>
        <time>2017-10-01T10:19:31.000Z</time>
      </trkpt>
      <trkpt lat="45.0036" lon="1.09198">
        <ele>117</ele>
        <time>2017-10-01T10:19:32.000Z</time>
      </trkpt>
      <trkpt lat="45.00359" lon="1.09198">
        <ele>117</ele>
        <time>2017-10-01T10:19:33.000Z</time>
      </trkpt>
      <trkpt lat="45.00358" lon="1.092">
        <ele>116</ele>
        <time>2017-10-01T10:19:34.000Z</time>
      </trkpt>
      <trkpt lat="45.00357" lon="1.09202">
        <ele>116</ele>
        <time>2017-10-01T10:19:35.000Z</time>
      </trkpt>
      <trkpt lat="45.00358" lon="1.09206">
        <ele>115</ele>
        <time>2017-10-01T10:19:36.000Z</time>
      </trkpt>
      <trkpt lat="45.0036" lon="1.09209">
        <ele>115</ele>
        <time>2017-10-01T10:19:37.000Z</time>
      </trkpt>
      <trkpt lat="45.00361" lon="1.09212">
        <ele>114</ele>
        <time>2017-10-01T10:19:38.000Z</time>
      </trkpt>
      <trkpt lat="45.00362" lon="1.09216">
        <ele>113</ele>
        <time>2017-10-01T10:19:39.000Z</time>
      </trkpt>
      <trkpt lat="45.00363" lon="1.0922">
        <ele>113</ele>
        <time>2017-10-01T10:19:40.000Z</time>
      </trkpt>
      <trkpt lat="45.00363" lon="1.09223">
        <ele>112</ele>
        <time>2017-10-01T10:19:41.000Z</time>
      </trkpt>
      <trkpt lat="45.00362" lon="1.09226">
        <ele>111</ele>
        <time>2017-10-01T10:19:42.000Z</time>
      </trkpt>
      <trkpt lat="45.00361" lon="1.09228">
        <ele>111</ele>
        <time>2017-10-01T10:19:43.000Z</time>
      </trkpt>
      <trkpt lat="45.00359" lon="1.09228">
        <ele>111</ele>
        <time>2017-10-01T10:19:44.000Z</time>
      </trkpt>
      <trkpt lat="45.00357" lon="1.09227">
        <ele>111</ele>
        <time>2017-10-01T10:19:45.000Z</time>
      </trkpt>
      <trkpt lat="45.00354" lon="1.09226">
        <ele>111</ele>
        <time>2017-10-01T10:19:46.000Z</time>
      </trkpt>
      <trkpt lat="45.00353" lon="1.09224">
        <ele>111</ele>
        <time>2017-10-01T10:19:47.000Z</time>
      </trkpt>
      <trkpt lat="45.00352" lon="1.09223">
        <ele>111</ele>
        <time>2017-10-01T10:19:48.000Z</time>
      </trkpt>
      <trkpt lat="45.00351" lon="1.09222">
        <ele>111</ele>
        <time>2017-10-01T10:19:51.000Z</time>
      </trkpt>
      <trkpt lat="45.00351" lon="1.09222">
        <ele>111</ele>
        <time>2017-10-01T10:19:51.000Z</time>
      </trkpt>
      <trkpt lat="45.00351" lon="1.09222">
        <ele>111</ele>
        <time>2017-10-01T10:19:51.000Z</time>
      </trkpt>
      <trkpt lat="45.0035" lon="1.09221">
        <ele>112</ele>
        <time>2017-10-01T10:19:54.000Z</time>
      </trkpt>
      <trkpt lat="45.0035" lon="1.09221">
        <ele>112</ele>
        <time>2017-10-01T10:19:54.000Z</time>
      </trkpt>
      <trkpt lat="45.0035" lon="1.09221">
        <ele>112</ele>
        <time>2017-10-01T10:19:54.000Z</time>
      </trkpt>
      <trkpt lat="45.0035" lon="1.0922">
        <ele>112</ele>
        <time>2017-10-01T10:19:55.000Z</time>
      </trkpt>
      <trkpt lat="45.00349" lon="1.0922">
        <ele>112</ele>
        <time>2017-10-01T10:19:58.000Z</time>
      </trkpt>
      <trkpt lat="45.00349" lon="1.0922">
        <ele>112</ele>
        <time>2017-10-01T10:19:58.000Z</time>
      </trkpt>
      <trkpt lat="45.00349" lon="1.0922">
        <ele>112</ele>
        <time>2017-10-01T10:19:58.000Z</time>
      </trkpt>
      <trkpt lat="45.00349" lon="1.0922">
        <ele>112</ele>
        <time>2017-10-01T10:20:01.000Z</time>
      </trkpt>
      <trkpt lat="45.00349" lon="1.09219">
        <ele>112</ele>
        <time>2017-10-01T10:20:01.000Z</time>
      </trkpt>
      <trkpt lat="45.00349" lon="1.09219">
        <ele>112</ele>
        <time>2017-10-01T10:20:01.000Z</time>
      </trkpt>
      <trkpt lat="45.00348" lon="1.09219">
        <ele>112</ele>
        <time>2017-10-01T10:20:05.000Z</time>
      </trkpt>
      <trkpt lat="45.00348" lon="1.09219">
        <ele>112</ele>
        <time>2017-10-01T10:20:05.000Z</time>
      </trkpt>
      <trkpt lat="45.00348" lon="1.09219">
        <ele>112</ele>
        <time>2017-10-01T10:20:05.000Z</time>
      </trkpt>
      <trkpt lat="45.00348" lon="1.09219">
        <ele>112</ele>
        <time>2017-10-01T10:20:05.000Z</time>
      </trkpt>
      <trkpt lat="45.00348" lon="1.09219">
        <ele>112</ele>
        <time>2017-10-01T10:20:06.000Z</time>
      </trkpt>
      <trkpt lat="45.00347" lon="1.09218">
        <ele>112</ele>
        <time>2017-10-01T10:20:07.000Z</time>
      </trkpt>
      <trkpt lat="45.00345" lon="1.09218">
        <ele>112</ele>
        <time>2017-10-01T10:20:08.000Z</time>
      </trkpt>
      <trkpt lat="45.00344" lon="1.09217">
        <ele>112</ele>
        <time>2017-10-01T10:20:09.000Z</time>
      </trkpt>
      <trkpt lat="45.00343" lon="1.09218">
        <ele>112</ele>
        <time>2017-10-01T10:20:12.000Z</time>
      </trkpt>
      <trkpt lat="45.00343" lon="1.09217">
        <ele>112</ele>
        <time>2017-10-01T10:20:12.000Z</time>
      </trkpt>
      <trkpt lat="45.00343" lon="1.09217">
        <ele>112</ele>
        <time>2017-10-01T10:20:12.000Z</time>
      </trkpt>
      <trkpt lat="45.00342" lon="1.09216">
        <ele>112</ele>
        <time>2017-10-01T10:20:15.000Z</time>
      </trkpt>
      <trkpt lat="45.00342" lon="1.09216">
        <ele>112</ele>
        <time>2017-10-01T10:20:15.000Z</time>
      </trkpt>
      <trkpt lat="45.00342" lon="1.09216">
        <ele>112</ele>
        <time>2017-10-01T10:20:15.000Z</time>
      </trkpt>
      <trkpt lat="45.00342" lon="1.09215">
        <ele>112</ele>
        <time>2017-10-01T10:20:16.000Z</time>
      </trkpt>
      <trkpt lat="45.00341" lon="1.09215">
        <ele>112</ele>
        <time>2017-10-01T10:20:28.000Z</time>
      </trkpt>
      <trkpt lat="45.00341" lon="1.09215">
        <ele>112</ele>
        <time>2017-10-01T10:20:28.000Z</time>
      </trkpt>
      <trkpt lat="45.00341" lon="1.09215">
        <ele>112</ele>
        <time>2017-10-01T10:20:28.000Z</time>
      </trkpt>
      <trkpt lat="45.00341" lon="1.09215">
        <ele>112</ele>
        <time>2017-10-01T10:20:28.000Z</time>
      </trkpt>
      <trkpt lat="45.00341" lon="1.09215">
        <ele>112</ele>
        <time>2017-10-01T10:20:28.000Z</time>
      </trkpt>
      <trkpt lat="45.00341" lon="1.09215">
        <ele>112</ele>
        <time>2017-10-01T10:20:28.000Z</time>
      </trkpt>
      <trkpt lat="45.00341" lon="1.09215">
        <ele>112</ele>
        <time>2017-10-01T10:20:28.000Z</time>
      </trkpt>
      <trkpt lat="45.00341" lon="1.09215">
        <ele>112</ele>
        <time>2017-10-01T10:20:28.000Z</time>
      </trkpt>
      <trkpt lat="45.00341" lon="1.09215">
        <ele>112</ele>
        <time>2017-10-01T10:20:28.000Z</time>
      </trkpt>
      <trkpt lat="45.00341" lon="1.09215">
        <ele>112</ele>
        <time>2017-10-01T10:20:28.000Z</time>
      </trkpt>
      <trkpt lat="45.00341" lon="1.09215">
        <ele>112</ele>
        <time>2017-10-01T10:20:28.000Z</time>
      </trkpt>
      <trkpt lat="45.00341" lon="1.09215">
        <ele>112</ele>
        <time>2017-10-01T10:20:28.000Z</time>
      </trkpt>
      <trkpt lat="45.00341" lon="1.09215">
        <ele>112</ele>
        <time>2017-10-01T10:20:34.000Z</time>
      </trkpt>
      <trkpt lat="45.00341" lon="1.09214">
        <ele>112</ele>
        <time>2017-10-01T10:20:34.000Z</time>
      </trkpt>
      <trkpt lat="45.00341" lon="1.09214">
        <ele>112</ele>
        <time>2017-10-01T10:20:34.000Z</time>
      </trkpt>
      <trkpt lat="45.00341" lon="1.09214">
        <ele>112</ele>
        <time>2017-10-01T10:20:34.000Z</time>
      </trkpt>
      <trkpt lat="45.00341" lon="1.09214">
        <ele>112</ele>
        <time>2017-10-01T10:20:34.000Z</time>
      </trkpt>
      <trkpt lat="45.00341" lon="1.09214">
        <ele>112</ele>
        <time>2017-10-01T10:20:34.000Z</time>
      </trkpt>
      <trkpt lat="45.0034" lon="1.09214">
        <ele>112</ele>
        <time>2017-10-01T10:20:46.000Z</time>
      </trkpt>
      <trkpt lat="45.0034" lon="1.09214">
        <ele>112</ele>
        <time>2017-10-01T10:20:46.000Z</time>
      </trkpt>
      <trkpt lat="45.0034" lon="1.09214">
        <ele>112</ele>
        <time>2017-10-01T10:20:46.000Z</time>
      </trkpt>
      <trkpt lat="45.0034" lon="1.09214">
        <ele>112</ele>
        <time>2017-10-01T10:20:46.000Z</time>
      </trkpt>
      <trkpt lat="45.0034" lon="1.09214">
        <ele>112</ele>
        <time>2017-10-01T10:20:46.000Z</time>
      </trkpt>
      <trkpt lat="45.0034" lon="1.09214">
        <ele>112</ele>
        <time>2017-10-01T10:20:46.000Z</time>
      </trkpt>
      <trkpt lat="45.0034" lon="1.09214">
        <ele>112</ele>
        <time>2017-10-01T10:20:46.000Z</time>
      </trkpt>
      <trkpt lat="45.0034" lon="1.09214">
        <ele>112</ele>
        <time>2017-10-01T10:20:46.000Z</time>
      </trkpt>
      <trkpt lat="45.0034" lon="1.09214">
        <ele>112</ele>
        <time>2017-10-01T10:20:46.000Z</time>
      </trkpt>
      <trkpt lat="45.0034" lon="1.09214">
        <ele>112</ele>
        <time>2017-10-01T10:20:46.000Z</time>
      </trkpt>
      <trkpt lat="45.0034" lon="1.09214">
        <ele>112</ele>
        <time>2017-10-01T10:20:46.000Z</time>
      </trkpt>
      <trkpt lat="45.0034" lon="1.09214">
        <ele>112</ele>
        <time>2017-10-01T10:20:46.000Z</time>
      </trkpt>
      <trkpt lat="45.0034" lon="1.09214">
        <ele>112</ele>
        <time>2017-10-01T10:20:52.000Z</time>
      </trkpt>
      <trkpt lat="45.0034" lon="1.09213">
        <ele>112</ele>
        <time>2017-10-01T10:20:52.000Z</time>
      </trkpt>
      <trkpt lat="45.0034" lon="1.09213">
        <ele>112</ele>
        <time>2017-10-01T10:20:52.000Z</time>
      </trkpt>
      <trkpt lat="45.0034" lon="1.09213">
        <ele>112</ele>
        <time>2017-10-01T10:20:52.000Z</time>
      </trkpt>
      <trkpt lat="45.00339" lon="1.09213">
        <ele>112</ele>
        <time>2017-10-01T10:20:51.000Z</time>
      </trkpt>
      <trkpt lat="45.0034" lon="1.09213">
        <ele>112</ele>
        <time>2017-10-01T10:20:52.000Z</time>
      </trkpt>
      <trkpt lat="45.00341" lon="1.09213">
        <ele>112</ele>
        <time>2017-10-01T10:20:53.000Z</time>
      </trkpt>
      <trkpt lat="45.00343" lon="1.09214">
        <ele>112</ele>
        <time>2017-10-01T10:20:54.000Z</time>
      </trkpt>
      <trkpt lat="45.00344" lon="1.09216">
        <ele>112</ele>
        <time>2017-10-01T10:20:55.000Z</time>
      </trkpt>
      <trkpt lat="45.00346" lon="1.09219">
        <ele>112</ele>
        <time>2017-10-01T10:20:56.000Z</time>
      </trkpt>
      <trkpt lat="45.00348" lon="1.09222">
        <ele>111</ele>
        <time>2017-10-01T10:20:57.000Z</time>
      </trkpt>
      <trkpt lat="45.0035" lon="1.09226">
        <ele>111</ele>
        <time>2017-10-01T10:20:58.000Z</time>
      </trkpt>
      <trkpt lat="45.00353" lon="1.0923">
        <ele>110</ele>
        <time>2017-10-01T10:20:59.000Z</time>
      </trkpt>
      <trkpt lat="45.00356" lon="1.09234">
        <ele>109</ele>
        <time>2017-10-01T10:21:00.000Z</time>
      </trkpt>
      <trkpt lat="45.00359" lon="1.09239">
        <ele>108</ele>
        <time>2017-10-01T10:21:01.000Z</time>
      </trkpt>
      <trkpt lat="45.00364" lon="1.09244">
        <ele>108</ele>
        <time>2017-10-01T10:21:02.000Z</time>
      </trkpt>
      <trkpt lat="45.00369" lon="1.09248">
        <ele>107</ele>
        <time>2017-10-01T10:21:03.000Z</time>
      </trkpt>
      <trkpt lat="45.00375" lon="1.09253">
        <ele>106</ele>
        <time>2017-10-01T10:21:04.000Z</time>
      </trkpt>
      <trkpt lat="45.0038" lon="1.09256">
        <ele>106</ele>
        <time>2017-10-01T10:21:05.000Z</time>
      </trkpt>
      <trkpt lat="45.00386" lon="1.0926">
        <ele>105</ele>
        <time>2017-10-01T10:21:06.000Z</time>
      </trkpt>
      <trkpt lat="45.00391" lon="1.09262">
        <ele>105</ele>
        <time>2017-10-01T10:21:07.000Z</time>
      </trkpt>
      <trkpt lat="45.00396" lon="1.09264">
        <ele>104</ele>
        <time>2017-10-01T10:21:08.000Z</time>
      </trkpt>
      <trkpt lat="45.004" lon="1.09266">
        <ele>104</ele>
        <time>2017-10-01T10:21:09.000Z</time>
      </trkpt>
      <trkpt lat="45.00404" lon="1.09267">
        <ele>103</ele>
        <time>2017-10-01T10:21:10.000Z</time>
      </trkpt>
      <trkpt lat="45.00408" lon="1.09267">
        <ele>103</ele>
        <time>2017-10-01T10:21:11.000Z</time>
      </trkpt>
      <trkpt lat="45.00411" lon="1.09268">
        <ele>103</ele>
        <time>2017-10-01T10:21:12.000Z</time>
      </trkpt>
      <trkpt lat="45.00414" lon="1.09267">
        <ele>103</ele>
        <time>2017-10-01T10:21:13.000Z</time>
      </trkpt>
      <trkpt lat="45.00417" lon="1.09267">
        <ele>103</ele>
        <time>2017-10-01T10:21:14.000Z</time>
      </trkpt>
      <trkpt lat="45.0042" lon="1.09265">
        <ele>103</ele>
        <time>2017-10-01T10:21:15.000Z</time>
      </trkpt>
      <trkpt lat="45.00423" lon="1.09264">
        <ele>102</ele>
        <time>2017-10-01T10:21:16.000Z</time>
      </trkpt>
      <trkpt lat="45.00426" lon="1.09263">
        <ele>102</ele>
        <time>2017-10-01T10:21:17.000Z</time>
      </trkpt>
      <trkpt lat="45.00429" lon="1.09262">
        <ele>102</ele>
        <time>2017-10-01T10:21:18.000Z</time>
      </trkpt>
      <trkpt lat="45.00431" lon="1.09262">
        <ele>101</ele>
        <time>2017-10-01T10:21:19.000Z</time>
      </trkpt>
      <trkpt lat="45.00433" lon="1.09262">
        <ele>101</ele>
        <time>2017-10-01T10:21:20.000Z</time>
      </trkpt>
      <trkpt lat="45.00436" lon="1.09261">
        <ele>100</ele>
        <time>2017-10-01T10:21:21.000Z</time>
      </trkpt>
      <trkpt lat="45.00439" lon="1.0926">
        <ele>100</ele>
        <time>2017-10-01T10:21:22.000Z</time>
      </trkpt>
      <trkpt lat="45.00443" lon="1.09256">
        <ele>100</ele>
        <time>2017-10-01T10:21:23.000Z</time>
      </trkpt>
      <trkpt lat="45.00447" lon="1.09251">
        <ele>100</ele>
        <time>2017-10-01T10:21:24.000Z</time>
      </trkpt>
      <trkpt lat="45.00451" lon="1.09243">
        <ele>101</ele>
        <time>2017-10-01T10:21:25.000Z</time>
      </trkpt>
      <trkpt lat="45.00456" lon="1.09236">
        <ele>102</ele>
        <time>2017-10-01T10:21:26.000Z</time>
      </trkpt>
      <trkpt lat="45.0046" lon="1.09229">
        <ele>103</ele>
        <time>2017-10-01T10:21:27.000Z</time>
      </trkpt>
      <trkpt lat="45.00465" lon="1.09223">
        <ele>103</ele>
        <time>2017-10-01T10:21:28.000Z</time>
      </trkpt>
      <trkpt lat="45.00469" lon="1.09218">
        <ele>104</ele>
        <time>2017-10-01T10:21:29.000Z</time>
      </trkpt>
      <trkpt lat="45.00473" lon="1.09213">
        <ele>104</ele>
        <time>2017-10-01T10:21:30.000Z</time>
      </trkpt>
      <trkpt lat="45.00478" lon="1.09209">
        <ele>104</ele>
        <time>2017-10-01T10:21:31.000Z</time>
      </trkpt>
      <trkpt lat="45.00482" lon="1.09206">
        <ele>104</ele>
        <time>2017-10-01T10:21:32.000Z</time>
      </trkpt>
      <trkpt lat="45.00486" lon="1.09202">
        <ele>104</ele>
        <time>2017-10-01T10:21:33.000Z</time>
      </trkpt>
      <trkpt lat="45.0049" lon="1.09199">
        <ele>104</ele>
        <time>2017-10-01T10:21:34.000Z</time>
      </trkpt>
      <trkpt lat="45.00493" lon="1.09196">
        <ele>104</ele>
        <time>2017-10-01T10:21:35.000Z</time>
      </trkpt>
      <trkpt lat="45.00497" lon="1.09193">
        <ele>104</ele>
        <time>2017-10-01T10:21:36.000Z</time>
      </trkpt>
      <trkpt lat="45.00501" lon="1.09189">
        <ele>104</ele>
        <time>2017-10-01T10:21:37.000Z</time>
      </trkpt>
      <trkpt lat="45.00505" lon="1.09186">
        <ele>104</ele>
        <time>2017-10-01T10:21:38.000Z</time>
      </trkpt>
      <trkpt lat="45.00508" lon="1.09182">
        <ele>104</ele>
        <time>2017-10-01T10:21:39.000Z</time>
      </trkpt>
      <trkpt lat="45.00512" lon="1.09177">
        <ele>104</ele>
        <time>2017-10-01T10:21:40.000Z</time>
      </trkpt>
      <trkpt lat="45.00515" lon="1.09173">
        <ele>104</ele>
        <time>2017-10-01T10:21:41.000Z</time>
      </trkpt>
      <trkpt lat="45.00519" lon="1.09169">
        <ele>104</ele>
        <time>2017-10-01T10:21:42.000Z</time>
      </trkpt>
      <trkpt lat="45.00522" lon="1.09164">
        <ele>103</ele>
        <time>2017-10-01T10:21:43.000Z</time>
      </trkpt>
      <trkpt lat="45.00526" lon="1.0916">
        <ele>103</ele>
        <time>2017-10-01T10:21:44.000Z</time>
      </trkpt>
      <trkpt lat="45.0053" lon="1.09156">
        <ele>103</ele>
        <time>2017-10-01T10:21:45.000Z</time>
      </trkpt>
      <trkpt lat="45.00534" lon="1.09152">
        <ele>102</ele>
        <time>2017-10-01T10:21:46.000Z</time>
      </trkpt>
      <trkpt lat="45.00538" lon="1.09149">
        <ele>102</ele>
        <time>2017-10-01T10:21:47.000Z</time>
      </trkpt>
      <trkpt lat="45.00542" lon="1.09145">
        <ele>101</ele>
        <time>2017-10-01T10:21:48.000Z</time>
      </trkpt>
      <trkpt lat="45.00546" lon="1.09142">
        <ele>101</ele>
        <time>2017-10-01T10:21:49.000Z</time>
      </trkpt>
      <trkpt lat="45.0055" lon="1.09138">
        <ele>100</ele>
        <time>2017-10-01T10:21:50.000Z</time>
      </trkpt>
      <trkpt lat="45.00554" lon="1.09134">
        <ele>100</ele>
        <time>2017-10-01T10:21:51.000Z</time>
      </trkpt>
      <trkpt lat="45.00558" lon="1.0913">
        <ele>99</ele>
        <time>2017-10-01T10:21:52.000Z</time>
      </trkpt>
      <trkpt lat="45.00562" lon="1.09126">
        <ele>99</ele>
        <time>2017-10-01T10:21:53.000Z</time>
      </trkpt>
      <trkpt lat="45.00566" lon="1.09123">
        <ele>98</ele>
        <time>2017-10-01T10:21:54.000Z</time>
      </trkpt>
      <trkpt lat="45.00571" lon="1.0912">
        <ele>97</ele>
        <time>2017-10-01T10:21:55.000Z</time>
      </trkpt>
      <trkpt lat="45.00575" lon="1.09117">
        <ele>96</ele>
        <time>2017-10-01T10:21:56.000Z</time>
      </trkpt>
      <trkpt lat="45.00581" lon="1.09116">
        <ele>95</ele>
        <time>2017-10-01T10:21:57.000Z</time>
      </trkpt>
      <trkpt lat="45.00586" lon="1.09115">
        <ele>93</ele>
        <time>2017-10-01T10:21:58.000Z</time>
      </trkpt>
      <trkpt lat="45.00591" lon="1.09114">
        <ele>92</ele>
        <time>2017-10-01T10:21:59.000Z</time>
      </trkpt>
      <trkpt lat="45.00597" lon="1.09112">
        <ele>91</ele>
        <time>2017-10-01T10:22:00.000Z</time>
      </trkpt>
      <trkpt lat="45.00603" lon="1.0911">
        <ele>90</ele>
        <time>2017-10-01T10:22:01.000Z</time>
      </trkpt>
      <trkpt lat="45.00608" lon="1.09106">
        <ele>90</ele>
        <time>2017-10-01T10:22:02.000Z</time>
      </trkpt>
      <trkpt lat="45.00614" lon="1.091">
        <ele>89</ele>
        <time>2017-10-01T10:22:03.000Z</time>
      </trkpt>
      <trkpt lat="45.0062" lon="1.09094">
        <ele>89</ele>
        <time>2017-10-01T10:22:04.000Z</time>
      </trkpt>
      <trkpt lat="45.00626" lon="1.09086">
        <ele>89</ele>
        <time>2017-10-01T10:22:05.000Z</time>
      </trkpt>
      <trkpt lat="45.00633" lon="1.09078">
        <ele>88</ele>
        <time>2017-10-01T10:22:06.000Z</time>
      </trkpt>
      <trkpt lat="45.00641" lon="1.0907">
        <ele>87</ele>
        <time>2017-10-01T10:22:07.000Z</time>
      </trkpt>
      <trkpt lat="45.00648" lon="1.09062">
        <ele>87</ele>
        <time>2017-10-01T10:22:08.000Z</time>
      </trkpt>
      <trkpt lat="45.00655" lon="1.09054">
        <ele>86</ele>
        <time>2017-10-01T10:22:09.000Z</time>
      </trkpt>
      <trkpt lat="45.00661" lon="1.09047">
        <ele>85</ele>
        <time>2017-10-01T10:22:10.000Z</time>
      </trkpt>
      <trkpt lat="45.00666" lon="1.09041">
        <ele>85</ele>
        <time>2017-10-01T10:22:11.000Z</time>
      </trkpt>
      <trkpt lat="45.0067" lon="1.09035">
        <ele>85</ele>
        <time>2017-10-01T10:22:12.000Z</time>
      </trkpt>
      <trkpt lat="45.00675" lon="1.09029">
        <ele>85</ele>
        <time>2017-10-01T10:22:13.000Z</time>
      </trkpt>
      <trkpt lat="45.00679" lon="1.09023">
        <ele>86</ele>
        <time>2017-10-01T10:22:14.000Z</time>
      </trkpt>
      <trkpt lat="45.00682" lon="1.09017">
        <ele>86</ele>
        <time>2017-10-01T10:22:15.000Z</time>
      </trkpt>
      <trkpt lat="45.00686" lon="1.09011">
        <ele>86</ele>
        <time>2017-10-01T10:22:16.000Z</time>
      </trkpt>
      <trkpt lat="45.00689" lon="1.09005">
        <ele>86</ele>
        <time>2017-10-01T10:22:17.000Z</time>
      </trkpt>
      <trkpt lat="45.00692" lon="1.08999">
        <ele>86</ele>
        <time>2017-10-01T10:22:18.000Z</time>
      </trkpt>
      <trkpt lat="45.00696" lon="1.08993">
        <ele>86</ele>
        <time>2017-10-01T10:22:19.000Z</time>
      </trkpt>
      <trkpt lat="45.007" lon="1.08987">
        <ele>86</ele>
        <time>2017-10-01T10:22:20.000Z</time>
      </trkpt>
      <trkpt lat="45.00705" lon="1.08981">
        <ele>86</ele>
        <time>2017-10-01T10:22:21.000Z</time>
      </trkpt>
      <trkpt lat="45.00709" lon="1.08975">
        <ele>85</ele>
        <time>2017-10-01T10:22:22.000Z</time>
      </trkpt>
      <trkpt lat="45.00714" lon="1.08969">
        <ele>85</ele>
        <time>2017-10-01T10:22:23.000Z</time>
      </trkpt>
      <trkpt lat="45.00719" lon="1.08962">
        <ele>85</ele>
        <time>2017-10-01T10:22:24.000Z</time>
      </trkpt>
      <trkpt lat="45.00724" lon="1.08956">
        <ele>84</ele>
        <time>2017-10-01T10:22:25.000Z</time>
      </trkpt>
      <trkpt lat="45.00729" lon="1.0895">
        <ele>83</ele>
        <time>2017-10-01T10:22:26.000Z</time>
      </trkpt>
      <trkpt lat="45.00734" lon="1.08944">
        <ele>83</ele>
        <time>2017-10-01T10:22:27.000Z</time>
      </trkpt>
      <trkpt lat="45.00738" lon="1.08937">
        <ele>82</ele>
        <time>2017-10-01T10:22:28.000Z</time>
      </trkpt>
      <trkpt lat="45.00742" lon="1.08931">
        <ele>82</ele>
        <time>2017-10-01T10:22:29.000Z</time>
      </trkpt>
      <trkpt lat="45.00746" lon="1.08924">
        <ele>81</ele>
        <time>2017-10-01T10:22:30.000Z</time>
      </trkpt>
      <trkpt lat="45.0075" lon="1.08918">
        <ele>81</ele>
        <time>2017-10-01T10:22:31.000Z</time>
      </trkpt>
      <trkpt lat="45.00753" lon="1.08911">
        <ele>81</ele>
        <time>2017-10-01T10:22:32.000Z</time>
      </trkpt>
      <trkpt lat="45.00756" lon="1.08904">
        <ele>82</ele>
        <time>2017-10-01T10:22:33.000Z</time>
      </trkpt>
      <trkpt lat="45.0076" lon="1.08897">
        <ele>83</ele>
        <time>2017-10-01T10:22:34.000Z</time>
      </trkpt>
      <trkpt lat="45.00763" lon="1.0889">
        <ele>83</ele>
        <time>2017-10-01T10:22:35.000Z</time>
      </trkpt>
      <trkpt lat="45.00766" lon="1.08883">
        <ele>84</ele>
        <time>2017-10-01T10:22:36.000Z</time>
      </trkpt>
      <trkpt lat="45.00768" lon="1.08876">
        <ele>84</ele>
        <time>2017-10-01T10:22:37.000Z</time>
      </trkpt>
      <trkpt lat="45.00771" lon="1.0887">
        <ele>85</ele>
        <time>2017-10-01T10:22:38.000Z</time>
      </trkpt>
      <trkpt lat="45.00774" lon="1.08864">
        <ele>85</ele>
        <time>2017-10-01T10:22:39.000Z</time>
      </trkpt>
      <trkpt lat="45.00777" lon="1.08858">
        <ele>85</ele>
        <time>2017-10-01T10:22:40.000Z</time>
      </trkpt>
      <trkpt lat="45.0078" lon="1.08853">
        <ele>86</ele>
        <time>2017-10-01T10:22:41.000Z</time>
      </trkpt>
      <trkpt lat="45.00783" lon="1.08847">
        <ele>86</ele>
        <time>2017-10-01T10:22:42.000Z</time>
      </trkpt>
      <trkpt lat="45.00786" lon="1.08842">
        <ele>86</ele>
        <time>2017-10-01T10:22:43.000Z</time>
      </trkpt>
      <trkpt lat="45.00789" lon="1.08838">
        <ele>86</ele>
        <time>2017-10-01T10:22:44.000Z</time>
      </trkpt>
      <trkpt lat="45.00792" lon="1.08833">
        <ele>86</ele>
        <time>2017-10-01T10:22:45.000Z</time>
      </trkpt>
      <trkpt lat="45.00795" lon="1.08829">
        <ele>86</ele>
        <time>2017-10-01T10:22:46.000Z</time>
      </trkpt>
      <trkpt lat="45.00798" lon="1.08825">
        <ele>85</ele>
        <time>2017-10-01T10:22:47.000Z</time>
      </trkpt>
      <trkpt lat="45.00801" lon="1.0882">
        <ele>85</ele>
        <time>2017-10-01T10:22:48.000Z</time>
      </trkpt>
      <trkpt lat="45.00804" lon="1.08816">
        <ele>85</ele>
        <time>2017-10-01T10:22:49.000Z</time>
      </trkpt>
      <trkpt lat="45.00808" lon="1.08812">
        <ele>85</ele>
        <time>2017-10-01T10:22:50.000Z</time>
      </trkpt>
      <trkpt lat="45.00812" lon="1.08807">
        <ele>85</ele>
        <time>2017-10-01T10:22:51.000Z</time>
      </trkpt>
      <trkpt lat="45.00816" lon="1.08803">
        <ele>85</ele>
        <time>2017-10-01T10:22:52.000Z</time>
      </trkpt>
      <trkpt lat="45.0082" lon="1.08798">
        <ele>85</ele>
        <time>2017-10-01T10:22:53.000Z</time>
      </trkpt>
      <trkpt lat="45.00824" lon="1.08794">
        <ele>84</ele>
        <time>2017-10-01T10:22:54.000Z</time>
      </trkpt>
      <trkpt lat="45.00828" lon="1.08789">
        <ele>84</ele>
        <time>2017-10-01T10:22:55.000Z</time>
      </trkpt>
      <trkpt lat="45.00832" lon="1.08785">
        <ele>84</ele>
        <time>2017-10-01T10:22:56.000Z</time>
      </trkpt>
      <trkpt lat="45.00836" lon="1.0878">
        <ele>84</ele>
        <time>2017-10-01T10:22:57.000Z</time>
      </trkpt>
      <trkpt lat="45.00839" lon="1.08776">
        <ele>85</ele>
        <time>2017-10-01T10:22:58.000Z</time>
      </trkpt>
      <trkpt lat="45.00843" lon="1.08772">
        <ele>85</ele>
        <time>2017-10-01T10:22:59.000Z</time>
      </trkpt>
      <trkpt lat="45.00846" lon="1.08768">
        <ele>85</ele>
        <time>2017-10-01T10:23:00.000Z</time>
      </trkpt>
      <trkpt lat="45.0085" lon="1.08764">
        <ele>85</ele>
        <time>2017-10-01T10:23:01.000Z</time>
      </trkpt>
      <trkpt lat="45.00853" lon="1.08761">
        <ele>85</ele>
        <time>2017-10-01T10:23:02.000Z</time>
      </trkpt>
      <trkpt lat="45.00857" lon="1.08757">
        <ele>85</ele>
        <time>2017-10-01T10:23:03.000Z</time>
      </trkpt>
      <trkpt lat="45.0086" lon="1.08754">
        <ele>86</ele>
        <time>2017-10-01T10:23:04.000Z</time>
      </trkpt>
      <trkpt lat="45.00863" lon="1.0875">
        <ele>86</ele>
        <time>2017-10-01T10:23:05.000Z</time>
      </trkpt>
      <trkpt lat="45.00867" lon="1.08747">
        <ele>86</ele>
        <time>2017-10-01T10:23:06.000Z</time>
      </trkpt>
      <trkpt lat="45.0087" lon="1.08744">
        <ele>85</ele>
        <time>2017-10-01T10:23:07.000Z</time>
      </trkpt>
      <trkpt lat="45.00874" lon="1.08742">
        <ele>85</ele>
        <time>2017-10-01T10:23:08.000Z</time>
      </trkpt>
      <trkpt lat="45.00878" lon="1.08739">
        <ele>85</ele>
        <time>2017-10-01T10:23:09.000Z</time>
      </trkpt>
      <trkpt lat="45.00881" lon="1.08737">
        <ele>85</ele>
        <time>2017-10-01T10:23:10.000Z</time>
      </trkpt>
      <trkpt lat="45.00885" lon="1.08735">
        <ele>85</ele>
        <time>2017-10-01T10:23:11.000Z</time>
      </trkpt>
      <trkpt lat="45.00888" lon="1.08734">
        <ele>85</ele>
        <time>2017-10-01T10:23:12.000Z</time>
      </trkpt>
      <trkpt lat="45.00892" lon="1.08732">
        <ele>84</ele>
        <time>2017-10-01T10:23:13.000Z</time>
      </trkpt>
      <trkpt lat="45.00895" lon="1.08731">
        <ele>84</ele>
        <time>2017-10-01T10:23:14.000Z</time>
      </trkpt>
      <trkpt lat="45.00898" lon="1.08729">
        <ele>84</ele>
        <time>2017-10-01T10:23:15.000Z</time>
      </trkpt>
      <trkpt lat="45.00901" lon="1.08728">
        <ele>84</ele>
        <time>2017-10-01T10:23:16.000Z</time>
      </trkpt>
      <trkpt lat="45.00904" lon="1.08726">
        <ele>84</ele>
        <time>2017-10-01T10:23:17.000Z</time>
      </trkpt>
      <trkpt lat="45.00906" lon="1.08725">
        <ele>84</ele>
        <time>2017-10-01T10:23:18.000Z</time>
      </trkpt>
      <trkpt lat="45.00908" lon="1.08724">
        <ele>84</ele>
        <time>2017-10-01T10:23:19.000Z</time>
      </trkpt>
      <trkpt lat="45.00909" lon="1.08723">
        <ele>84</ele>
        <time>2017-10-01T10:23:20.000Z</time>
      </trkpt>
      <trkpt lat="45.0091" lon="1.08721">
        <ele>84</ele>
        <time>2017-10-01T10:23:21.000Z</time>
      </trkpt>
      <trkpt lat="45.00911" lon="1.08718">
        <ele>84</ele>
        <time>2017-10-01T10:23:22.000Z</time>
      </trkpt>
      <trkpt lat="45.00911" lon="1.08716">
        <ele>84</ele>
        <time>2017-10-01T10:23:23.000Z</time>
      </trkpt>
      <trkpt lat="45.00913" lon="1.08715">
        <ele>84</ele>
        <time>2017-10-01T10:23:24.000Z</time>
      </trkpt>
      <trkpt lat="45.00914" lon="1.08713">
        <ele>84</ele>
        <time>2017-10-01T10:23:25.000Z</time>
      </trkpt>
      <trkpt lat="45.00916" lon="1.08713">
        <ele>84</ele>
        <time>2017-10-01T10:23:26.000Z</time>
      </trkpt>
      <trkpt lat="45.00918" lon="1.08712">
        <ele>84</ele>
        <time>2017-10-01T10:23:27.000Z</time>
      </trkpt>
      <trkpt lat="45.00921" lon="1.08712">
        <ele>84</ele>
        <time>2017-10-01T10:23:28.000Z</time>
      </trkpt>
      <trkpt lat="45.00924" lon="1.08711">
        <ele>84</ele>
        <time>2017-10-01T10:23:29.000Z</time>
      </trkpt>
      <trkpt lat="45.00927" lon="1.08711">
        <ele>84</ele>
        <time>2017-10-01T10:23:30.000Z</time>
      </trkpt>
      <trkpt lat="45.00929" lon="1.08711">
        <ele>84</ele>
        <time>2017-10-01T10:23:31.000Z</time>
      </trkpt>
      <trkpt lat="45.00932" lon="1.0871">
        <ele>84</ele>
        <time>2017-10-01T10:23:32.000Z</time>
      </trkpt>
      <trkpt lat="45.00935" lon="1.0871">
        <ele>84</ele>
        <time>2017-10-01T10:23:33.000Z</time>
      </trkpt>
      <trkpt lat="45.00937" lon="1.08709">
        <ele>84</ele>
        <time>2017-10-01T10:23:34.000Z</time>
      </trkpt>
      <trkpt lat="45.00939" lon="1.08709">
        <ele>84</ele>
        <time>2017-10-01T10:23:35.000Z</time>
      </trkpt>
      <trkpt lat="45.00941" lon="1.08708">
        <ele>84</ele>
        <time>2017-10-01T10:23:36.000Z</time>
      </trkpt>
      <trkpt lat="45.00944" lon="1.08708">
        <ele>83</ele>
        <time>2017-10-01T10:23:37.000Z</time>
      </trkpt>
      <trkpt lat="45.00946" lon="1.08708">
        <ele>83</ele>
        <time>2017-10-01T10:23:38.000Z</time>
      </trkpt>
      <trkpt lat="45.00949" lon="1.08708">
        <ele>83</ele>
        <time>2017-10-01T10:23:39.000Z</time>
      </trkpt>
      <trkpt lat="45.00952" lon="1.08709">
        <ele>83</ele>
        <time>2017-10-01T10:23:40.000Z</time>
      </trkpt>
      <trkpt lat="45.00955" lon="1.08709">
        <ele>83</ele>
        <time>2017-10-01T10:23:41.000Z</time>
      </trkpt>
      <trkpt lat="45.00959" lon="1.0871">
        <ele>83</ele>
        <time>2017-10-01T10:23:42.000Z</time>
      </trkpt>
      <trkpt lat="45.00962" lon="1.0871">
        <ele>82</ele>
        <time>2017-10-01T10:23:43.000Z</time>
      </trkpt>
      <trkpt lat="45.00966" lon="1.08711">
        <ele>82</ele>
        <time>2017-10-01T10:23:44.000Z</time>
      </trkpt>
      <trkpt lat="45.0097" lon="1.08711">
        <ele>82</ele>
        <time>2017-10-01T10:23:45.000Z</time>
      </trkpt>
      <trkpt lat="45.00974" lon="1.08711">
        <ele>82</ele>
        <time>2017-10-01T10:23:46.000Z</time>
      </trkpt>
      <trkpt lat="45.00977" lon="1.08711">
        <ele>82</ele>
        <time>2017-10-01T10:23:47.000Z</time>
      </trkpt>
      <trkpt lat="45.00981" lon="1.08711">
        <ele>82</ele>
        <time>2017-10-01T10:23:48.000Z</time>
      </trkpt>
      <trkpt lat="45.00985" lon="1.08711">
        <ele>81</ele>
        <time>2017-10-01T10:23:49.000Z</time>
      </trkpt>
      <trkpt lat="45.0099" lon="1.08711">
        <ele>81</ele>
        <time>2017-10-01T10:23:50.000Z</time>
      </trkpt>
      <trkpt lat="45.00994" lon="1.08711">
        <ele>81</ele>
        <time>2017-10-01T10:23:51.000Z</time>
      </trkpt>
      <trkpt lat="45.00998" lon="1.08711">
        <ele>81</ele>
        <time>2017-10-01T10:23:52.000Z</time>
      </trkpt>
      <trkpt lat="45.01002" lon="1.08712">
        <ele>81</ele>
        <time>2017-10-01T10:23:53.000Z</time>
      </trkpt>
      <trkpt lat="45.01006" lon="1.08712">
        <ele>81</ele>
        <time>2017-10-01T10:23:54.000Z</time>
      </trkpt>
      <trkpt lat="45.0101" lon="1.08713">
        <ele>80</ele>
        <time>2017-10-01T10:23:55.000Z</time>
      </trkpt>
      <trkpt lat="45.01013" lon="1.08714">
        <ele>80</ele>
        <time>2017-10-01T10:23:56.000Z</time>
      </trkpt>
      <trkpt lat="45.01017" lon="1.08715">
        <ele>80</ele>
        <time>2017-10-01T10:23:57.000Z</time>
      </trkpt>
      <trkpt lat="45.0102" lon="1.08716">
        <ele>80</ele>
        <time>2017-10-01T10:23:58.000Z</time>
      </trkpt>
      <trkpt lat="45.01023" lon="1.08717">
        <ele>80</ele>
        <time>2017-10-01T10:23:59.000Z</time>
      </trkpt>
      <trkpt lat="45.01025" lon="1.08719">
        <ele>80</ele>
        <time>2017-10-01T10:24:00.000Z</time>
      </trkpt>
      <trkpt lat="45.01028" lon="1.08721">
        <ele>79</ele>
        <time>2017-10-01T10:24:01.000Z</time>
      </trkpt>
      <trkpt lat="45.01031" lon="1.08723">
        <ele>79</ele>
        <time>2017-10-01T10:24:02.000Z</time>
      </trkpt>
      <trkpt lat="45.01033" lon="1.08725">
        <ele>79</ele>
        <time>2017-10-01T10:24:03.000Z</time>
      </trkpt>
      <trkpt lat="45.01036" lon="1.08728">
        <ele>79</ele>
        <time>2017-10-01T10:24:04.000Z</time>
      </trkpt>
      <trkpt lat="45.0104" lon="1.0873">
        <ele>78</ele>
        <time>2017-10-01T10:24:05.000Z</time>
      </trkpt>
      <trkpt lat="45.01044" lon="1.08732">
        <ele>78</ele>
        <time>2017-10-01T10:24:06.000Z</time>
      </trkpt>
      <trkpt lat="45.01049" lon="1.08734">
        <ele>78</ele>
        <time>2017-10-01T10:24:07.000Z</time>
      </trkpt>
      <trkpt lat="45.01054" lon="1.08736">
        <ele>77</ele>
        <time>2017-10-01T10:24:08.000Z</time>
      </trkpt>
      <trkpt lat="45.01059" lon="1.08739">
        <ele>77</ele>
        <time>2017-10-01T10:24:09.000Z</time>
      </trkpt>
      <trkpt lat="45.01065" lon="1.08743">
        <ele>77</ele>
        <time>2017-10-01T10:24:10.000Z</time>
      </trkpt>
      <trkpt lat="45.01071" lon="1.08746">
        <ele>76</ele>
        <time>2017-10-01T10:24:11.000Z</time>
      </trkpt>
      <trkpt lat="45.01078" lon="1.08748">
        <ele>76</ele>
        <time>2017-10-01T10:24:12.000Z</time>
      </trkpt>
      <trkpt lat="45.01085" lon="1.08749">
        <ele>76</ele>
        <time>2017-10-01T10:24:13.000Z</time>
      </trkpt>
      <trkpt lat="45.01093" lon="1.08749">
        <ele>75</ele>
        <time>2017-10-01T10:24:14.000Z</time>
      </trkpt>
      <trkpt lat="45.01099" lon="1.08749">
        <ele>75</ele>
        <time>2017-10-01T10:24:15.000Z</time>
      </trkpt>
      <trkpt lat="45.01104" lon="1.0875">
        <ele>75</ele>
        <time>2017-10-01T10:24:16.000Z</time>
      </trkpt>
      <trkpt lat="45.01108" lon="1.08752">
        <ele>75</ele>
        <time>2017-10-01T10:24:17.000Z</time>
      </trkpt>
      <trkpt lat="45.0111" lon="1.08754">
        <ele>74</ele>
        <time>2017-10-01T10:24:18.000Z</time>
      </trkpt>
      <trkpt lat="45.0111" lon="1.08758">
        <ele>74</ele>
        <time>2017-10-01T10:24:19.000Z</time>
      </trkpt>
      <trkpt lat="45.0111" lon="1.08761">
        <ele>74</ele>
        <time>2017-10-01T10:24:20.000Z</time>
      </trkpt>
      <trkpt lat="45.01109" lon="1.08765">
        <ele>74</ele>
        <time>2017-10-01T10:24:21.000Z</time>
      </trkpt>
      <trkpt lat="45.01108" lon="1.08768">
        <ele>74</ele>
        <time>2017-10-01T10:24:22.000Z</time>
      </trkpt>
      <trkpt lat="45.01107" lon="1.08771">
        <ele>74</ele>
        <time>2017-10-01T10:24:23.000Z</time>
      </trkpt>
      <trkpt lat="45.01107" lon="1.08774">
        <ele>73</ele>
        <time>2017-10-01T10:24:24.000Z</time>
      </trkpt>
      <trkpt lat="45.01106" lon="1.08778">
        <ele>73</ele>
        <time>2017-10-01T10:24:25.000Z</time>
      </trkpt>
      <trkpt lat="45.01105" lon="1.08782">
        <ele>73</ele>
        <time>2017-10-01T10:24:26.000Z</time>
      </trkpt>
      <trkpt lat="45.01104" lon="1.08786">
        <ele>73</ele>
        <time>2017-10-01T10:24:27.000Z</time>
      </trkpt>
      <trkpt lat="45.01103" lon="1.0879">
        <ele>73</ele>
        <time>2017-10-01T10:24:28.000Z</time>
      </trkpt>
      <trkpt lat="45.01102" lon="1.08794">
        <ele>72</ele>
        <time>2017-10-01T10:24:29.000Z</time>
      </trkpt>
      <trkpt lat="45.01102" lon="1.08798">
        <ele>72</ele>
        <time>2017-10-01T10:24:30.000Z</time>
      </trkpt>
      <trkpt lat="45.01101" lon="1.08802">
        <ele>72</ele>
        <time>2017-10-01T10:24:31.000Z</time>
      </trkpt>
      <trkpt lat="45.011" lon="1.08806">
        <ele>72</ele>
        <time>2017-10-01T10:24:32.000Z</time>
      </trkpt>
      <trkpt lat="45.011" lon="1.08811">
        <ele>72</ele>
        <time>2017-10-01T10:24:33.000Z</time>
      </trkpt>
      <trkpt lat="45.01099" lon="1.08815">
        <ele>71</ele>
        <time>2017-10-01T10:24:34.000Z</time>
      </trkpt>
      <trkpt lat="45.01098" lon="1.0882">
        <ele>71</ele>
        <time>2017-10-01T10:24:35.000Z</time>
      </trkpt>
      <trkpt lat="45.01097" lon="1.08824">
        <ele>71</ele>
        <time>2017-10-01T10:24:36.000Z</time>
      </trkpt>
      <trkpt lat="45.01096" lon="1.08829">
        <ele>71</ele>
        <time>2017-10-01T10:24:37.000Z</time>
      </trkpt>
      <trkpt lat="45.01095" lon="1.08834">
        <ele>70</ele>
        <time>2017-10-01T10:24:38.000Z</time>
      </trkpt>
      <trkpt lat="45.01094" lon="1.08839">
        <ele>71</ele>
        <time>2017-10-01T10:24:39.000Z</time>
      </trkpt>
      <trkpt lat="45.01093" lon="1.08844">
        <ele>71</ele>
        <time>2017-10-01T10:24:40.000Z</time>
      </trkpt>
      <trkpt lat="45.01092" lon="1.08849">
        <ele>71</ele>
        <time>2017-10-01T10:24:41.000Z</time>
      </trkpt>
      <trkpt lat="45.01091" lon="1.08854">
        <ele>71</ele>
        <time>2017-10-01T10:24:42.000Z</time>
      </trkpt>
      <trkpt lat="45.0109" lon="1.0886">
        <ele>71</ele>
        <time>2017-10-01T10:24:43.000Z</time>
      </trkpt>
      <trkpt lat="45.01089" lon="1.08867">
        <ele>71</ele>
        <time>2017-10-01T10:24:44.000Z</time>
      </trkpt>
      <trkpt lat="45.01087" lon="1.08873">
        <ele>71</ele>
        <time>2017-10-01T10:24:45.000Z</time>
      </trkpt>
      <trkpt lat="45.01087" lon="1.08881">
        <ele>72</ele>
        <time>2017-10-01T10:24:46.000Z</time>
      </trkpt>
      <trkpt lat="45.01086" lon="1.08887">
        <ele>72</ele>
        <time>2017-10-01T10:24:47.000Z</time>
      </trkpt>
      <trkpt lat="45.01086" lon="1.08893">
        <ele>72</ele>
        <time>2017-10-01T10:24:48.000Z</time>
      </trkpt>
      <trkpt lat="45.01086" lon="1.08898">
        <ele>72</ele>
        <time>2017-10-01T10:24:49.000Z</time>
      </trkpt>
      <trkpt lat="45.01086" lon="1.08902">
        <ele>72</ele>
        <time>2017-10-01T10:24:50.000Z</time>
      </trkpt>
      <trkpt lat="45.01087" lon="1.08904">
        <ele>72</ele>
        <time>2017-10-01T10:24:51.000Z</time>
      </trkpt>
      <trkpt lat="45.01088" lon="1.08905">
        <ele>72</ele>
        <time>2017-10-01T10:24:52.000Z</time>
      </trkpt>
      <trkpt lat="45.01089" lon="1.08906">
        <ele>72</ele>
        <time>2017-10-01T10:24:53.000Z</time>
      </trkpt>
      <trkpt lat="45.01088" lon="1.08906">
        <ele>72</ele>
        <time>2017-10-01T10:24:58.000Z</time>
      </trkpt>
      <trkpt lat="45.01088" lon="1.08906">
        <ele>72</ele>
        <time>2017-10-01T10:24:58.000Z</time>
      </trkpt>
      <trkpt lat="45.01088" lon="1.08906">
        <ele>72</ele>
        <time>2017-10-01T10:24:58.000Z</time>
      </trkpt>
      <trkpt lat="45.01088" lon="1.08906">
        <ele>72</ele>
        <time>2017-10-01T10:24:58.000Z</time>
      </trkpt>
      <trkpt lat="45.01088" lon="1.08906">
        <ele>72</ele>
        <time>2017-10-01T10:24:58.000Z</time>
      </trkpt>
      <trkpt lat="45.01088" lon="1.08907">
        <ele>72</ele>
        <time>2017-10-01T10:24:59.000Z</time>
      </trkpt>
      <trkpt lat="45.01088" lon="1.08908">
        <ele>72</ele>
        <time>2017-10-01T10:25:00.000Z</time>
      </trkpt>
      <trkpt lat="45.01087" lon="1.0891">
        <ele>72</ele>
        <time>2017-10-01T10:25:01.000Z</time>
      </trkpt>
      <trkpt lat="45.01085" lon="1.08912">
        <ele>72</ele>
        <time>2017-10-01T10:25:02.000Z</time>
      </trkpt>
      <trkpt lat="45.01082" lon="1.08915">
        <ele>73</ele>
        <time>2017-10-01T10:25:03.000Z</time>
      </trkpt>
      <trkpt lat="45.01079" lon="1.0892">
        <ele>73</ele>
        <time>2017-10-01T10:25:04.000Z</time>
      </trkpt>
      <trkpt lat="45.01075" lon="1.08925">
        <ele>72</ele>
        <time>2017-10-01T10:25:05.000Z</time>
      </trkpt>
      <trkpt lat="45.0107" lon="1.0893">
        <ele>72</ele>
        <time>2017-10-01T10:25:06.000Z</time>
      </trkpt>
      <trkpt lat="45.01065" lon="1.08936">
        <ele>72</ele>
        <time>2017-10-01T10:25:07.000Z</time>
      </trkpt>
      <trkpt lat="45.01059" lon="1.08941">
        <ele>72</ele>
        <time>2017-10-01T10:25:08.000Z</time>
      </trkpt>
      <trkpt lat="45.01053" lon="1.08945">
        <ele>72</ele>
        <time>2017-10-01T10:25:09.000Z</time>
      </trkpt>
      <trkpt lat="45.01047" lon="1.08949">
        <ele>73</ele>
        <time>2017-10-01T10:25:10.000Z</time>
      </trkpt>
      <trkpt lat="45.0104" lon="1.08952">
        <ele>73</ele>
        <time>2017-10-01T10:25:11.000Z</time>
      </trkpt>
      <trkpt lat="45.01034" lon="1.08953">
        <ele>73</ele>
        <time>2017-10-01T10:25:12.000Z</time>
      </trkpt>
      <trkpt lat="45.01028" lon="1.08952">
        <ele>73</ele>
        <time>2017-10-01T10:25:13.000Z</time>
      </trkpt>
      <trkpt lat="45.01023" lon="1.08946">
        <ele>73</ele>
        <time>2017-10-01T10:25:14.000Z</time>
      </trkpt>
      <trkpt lat="45.0102" lon="1.08938">
        <ele>73</ele>
        <time>2017-10-01T10:25:15.000Z</time>
      </trkpt>
      <trkpt lat="45.01018" lon="1.0893">
        <ele>73</ele>
        <time>2017-10-01T10:25:16.000Z</time>
      </trkpt>
      <trkpt lat="45.01016" lon="1.08922">
        <ele>73</ele>
        <time>2017-10-01T10:25:17.000Z</time>
      </trkpt>
      <trkpt lat="45.01013" lon="1.08915">
        <ele>73</ele>
        <time>2017-10-01T10:25:18.000Z</time>
      </trkpt>
      <trkpt lat="45.0101" lon="1.08909">
        <ele>72</ele>
        <time>2017-10-01T10:25:19.000Z</time>
      </trkpt>
      <trkpt lat="45.01007" lon="1.08904">
        <ele>72</ele>
        <time>2017-10-01T10:25:20.000Z</time>
      </trkpt>
      <trkpt lat="45.01004" lon="1.08901">
        <ele>72</ele>
        <time>2017-10-01T10:25:21.000Z</time>
      </trkpt>
      <trkpt lat="45.01001" lon="1.08897">
        <ele>72</ele>
        <time>2017-10-01T10:25:22.000Z</time>
      </trkpt>
      <trkpt lat="45.00999" lon="1.08895">
        <ele>72</ele>
        <time>2017-10-01T10:25:23.000Z</time>
      </trkpt>
      <trkpt lat="45.00996" lon="1.08892">
        <ele>72</ele>
        <time>2017-10-01T10:25:24.000Z</time>
      </trkpt>
      <trkpt lat="45.00994" lon="1.08888">
        <ele>72</ele>
        <time>2017-10-01T10:25:25.000Z</time>
      </trkpt>
      <trkpt lat="45.00991" lon="1.08884">
        <ele>72</ele>
        <time>2017-10-01T10:25:26.000Z</time>
      </trkpt>
      <trkpt lat="45.00989" lon="1.08878">
        <ele>72</ele>
        <time>2017-10-01T10:25:27.000Z</time>
      </trkpt>
      <trkpt lat="45.00986" lon="1.08872">
        <ele>72</ele>
        <time>2017-10-01T10:25:28.000Z</time>
      </trkpt>
      <trkpt lat="45.00983" lon="1.08865">
        <ele>71</ele>
        <time>2017-10-01T10:25:29.000Z</time>
      </trkpt>
      <trkpt lat="45.00981" lon="1.08859">
        <ele>71</ele>
        <time>2017-10-01T10:25:30.000Z</time>
      </trkpt>
      <trkpt lat="45.00978" lon="1.08853">
        <ele>71</ele>
        <time>2017-10-01T10:25:31.000Z</time>
      </trkpt>
      <trkpt lat="45.00976" lon="1.08847">
        <ele>71</ele>
        <time>2017-10-01T10:25:32.000Z</time>
      </trkpt>
      <trkpt lat="45.00974" lon="1.08841">
        <ele>71</ele>
        <time>2017-10-01T10:25:33.000Z</time>
      </trkpt>
      <trkpt lat="45.00971" lon="1.08836">
        <ele>71</ele>
        <time>2017-10-01T10:25:34.000Z</time>
      </trkpt>
      <trkpt lat="45.00969" lon="1.08831">
        <ele>71</ele>
        <time>2017-10-01T10:25:35.000Z</time>
      </trkpt>
      <trkpt lat="45.00967" lon="1.08827">
        <ele>72</ele>
        <time>2017-10-01T10:25:36.000Z</time>
      </trkpt>
      <trkpt lat="45.00965" lon="1.08823">
        <ele>72</ele>
        <time>2017-10-01T10:25:37.000Z</time>
      </trkpt>
      <trkpt lat="45.00964" lon="1.08819">
        <ele>72</ele>
        <time>2017-10-01T10:25:38.000Z</time>
      </trkpt>
      <trkpt lat="45.00963" lon="1.08817">
        <ele>72</ele>
        <time>2017-10-01T10:25:39.000Z</time>
      </trkpt>
      <trkpt lat="45.00962" lon="1.08815">
        <ele>73</ele>
        <time>2017-10-01T10:25:40.000Z</time>
      </trkpt>
      <trkpt lat="45.00962" lon="1.08813">
        <ele>73</ele>
        <time>2017-10-01T10:25:41.000Z</time>
      </trkpt>
      <trkpt lat="45.00962" lon="1.08812">
        <ele>73</ele>
        <time>2017-10-01T10:25:42.000Z</time>
      </trkpt>
      <trkpt lat="45.00962" lon="1.08811">
        <ele>73</ele>
        <time>2017-10-01T10:25:43.000Z</time>
      </trkpt>
      <trkpt lat="45.00962" lon="1.0881">
        <ele>73</ele>
        <time>2017-10-01T10:25:45.000Z</time>
      </trkpt>
      <trkpt lat="45.00962" lon="1.0881">
        <ele>73</ele>
        <time>2017-10-01T10:25:45.000Z</time>
      </trkpt>
      <trkpt lat="45.00962" lon="1.08808">
        <ele>73</ele>
        <time>2017-10-01T10:25:46.000Z</time>
      </trkpt>
      <trkpt lat="45.00962" lon="1.08806">
        <ele>73</ele>
        <time>2017-10-01T10:25:47.000Z</time>
      </trkpt>
      <trkpt lat="45.00962" lon="1.08803">
        <ele>74</ele>
        <time>2017-10-01T10:25:48.000Z</time>
      </trkpt>
      <trkpt lat="45.00963" lon="1.088">
        <ele>74</ele>
        <time>2017-10-01T10:25:49.000Z</time>
      </trkpt>
      <trkpt lat="45.00965" lon="1.08797">
        <ele>74</ele>
        <time>2017-10-01T10:25:50.000Z</time>
      </trkpt>
      <trkpt lat="45.00966" lon="1.08795">
        <ele>74</ele>
        <time>2017-10-01T10:25:51.000Z</time>
      </trkpt>
      <trkpt lat="45.00969" lon="1.08793">
        <ele>74</ele>
        <time>2017-10-01T10:25:52.000Z</time>
      </trkpt>
      <trkpt lat="45.00971" lon="1.08791">
        <ele>74</ele>
        <time>2017-10-01T10:25:53.000Z</time>
      </trkpt>
      <trkpt lat="45.00974" lon="1.0879">
        <ele>74</ele>
        <time>2017-10-01T10:25:54.000Z</time>
      </trkpt>
      <trkpt lat="45.00977" lon="1.08789">
        <ele>74</ele>
        <time>2017-10-01T10:25:55.000Z</time>
      </trkpt>
      <trkpt lat="45.00981" lon="1.08788">
        <ele>74</ele>
        <time>2017-10-01T10:25:56.000Z</time>
      </trkpt>
      <trkpt lat="45.00984" lon="1.08787">
        <ele>74</ele>
        <time>2017-10-01T10:25:57.000Z</time>
      </trkpt>
      <trkpt lat="45.00988" lon="1.08786">
        <ele>74</ele>
        <time>2017-10-01T10:25:58.000Z</time>
      </trkpt>
      <trkpt lat="45.00992" lon="1.08786">
        <ele>74</ele>
        <time>2017-10-01T10:25:59.000Z</time>
      </trkpt>
      <trkpt lat="45.00996" lon="1.08785">
        <ele>74</ele>
        <time>2017-10-01T10:26:00.000Z</time>
      </trkpt>
      <trkpt lat="45.01" lon="1.08786">
        <ele>74</ele>
        <time>2017-10-01T10:26:01.000Z</time>
      </trkpt>
      <trkpt lat="45.01004" lon="1.08786">
        <ele>74</ele>
        <time>2017-10-01T10:26:02.000Z</time>
      </trkpt>
      <trkpt lat="45.01008" lon="1.08787">
        <ele>74</ele>
        <time>2017-10-01T10:26:03.000Z</time>
      </trkpt>
      <trkpt lat="45.01012" lon="1.08789">
        <ele>74</ele>
        <time>2017-10-01T10:26:04.000Z</time>
      </trkpt>
      <trkpt lat="45.01015" lon="1.08791">
        <ele>74</ele>
        <time>2017-10-01T10:26:05.000Z</time>
      </trkpt>
      <trkpt lat="45.01019" lon="1.08793">
        <ele>73</ele>
        <time>2017-10-01T10:26:06.000Z</time>
      </trkpt>
      <trkpt lat="45.01023" lon="1.08795">
        <ele>73</ele>
        <time>2017-10-01T10:26:07.000Z</time>
      </trkpt>
      <trkpt lat="45.01027" lon="1.08797">
        <ele>73</ele>
        <time>2017-10-01T10:26:08.000Z</time>
      </trkpt>
      <trkpt lat="45.01031" lon="1.08799">
        <ele>73</ele>
        <time>2017-10-01T10:26:09.000Z</time>
      </trkpt>
      <trkpt lat="45.01035" lon="1.08801">
        <ele>73</ele>
        <time>2017-10-01T10:26:10.000Z</time>
      </trkpt>
      <trkpt lat="45.01039" lon="1.08803">
        <ele>73</ele>
        <time>2017-10-01T10:26:11.000Z</time>
      </trkpt>
      <trkpt lat="45.01042" lon="1.08805">
        <ele>72</ele>
        <time>2017-10-01T10:26:12.000Z</time>
      </trkpt>
      <trkpt lat="45.01046" lon="1.08807">
        <ele>72</ele>
        <time>2017-10-01T10:26:13.000Z</time>
      </trkpt>
      <trkpt lat="45.01049" lon="1.0881">
        <ele>72</ele>
        <time>2017-10-01T10:26:14.000Z</time>
      </trkpt>
      <trkpt lat="45.01052" lon="1.08814">
        <ele>72</ele>
        <time>2017-10-01T10:26:15.000Z</time>
      </trkpt>
      <trkpt lat="45.01056" lon="1.08817">
        <ele>72</ele>
        <time>2017-10-01T10:26:16.000Z</time>
      </trkpt>
      <trkpt lat="45.01059" lon="1.0882">
        <ele>71</ele>
        <time>2017-10-01T10:26:17.000Z</time>
      </trkpt>
      <trkpt lat="45.01063" lon="1.08822">
        <ele>71</ele>
        <time>2017-10-01T10:26:18.000Z</time>
      </trkpt>
      <trkpt lat="45.01068" lon="1.08824">
        <ele>71</ele>
        <time>2017-10-01T10:26:19.000Z</time>
      </trkpt>
      <trkpt lat="45.01073" lon="1.08825">
        <ele>71</ele>
        <time>2017-10-01T10:26:20.000Z</time>
      </trkpt>
      <trkpt lat="45.01078" lon="1.08827">
        <ele>71</ele>
        <time>2017-10-01T10:26:21.000Z</time>
      </trkpt>
      <trkpt lat="45.01084" lon="1.08828">
        <ele>71</ele>
        <time>2017-10-01T10:26:22.000Z</time>
      </trkpt>
      <trkpt lat="45.01088" lon="1.0883">
        <ele>71</ele>
        <time>2017-10-01T10:26:23.000Z</time>
      </trkpt>
      <trkpt lat="45.01092" lon="1.08832">
        <ele>71</ele>
        <time>2017-10-01T10:26:24.000Z</time>
      </trkpt>
      <trkpt lat="45.01095" lon="1.08833">
        <ele>70</ele>
        <time>2017-10-01T10:26:25.000Z</time>
      </trkpt>
      <trkpt lat="45.01099" lon="1.08834">
        <ele>70</ele>
        <time>2017-10-01T10:26:26.000Z</time>
      </trkpt>
      <trkpt lat="45.01103" lon="1.08836">
        <ele>70</ele>
        <time>2017-10-01T10:26:27.000Z</time>
      </trkpt>
      <trkpt lat="45.01105" lon="1.08839">
        <ele>70</ele>
        <time>2017-10-01T10:26:28.000Z</time>
      </trkpt>
      <trkpt lat="45.01108" lon="1.08842">
        <ele>70</ele>
        <time>2017-10-01T10:26:29.000Z</time>
      </trkpt>
      <trkpt lat="45.0111" lon="1.08846">
        <ele>70</ele>
        <time>2017-10-01T10:26:30.000Z</time>
      </trkpt>
      <trkpt lat="45.01111" lon="1.0885">
        <ele>71</ele>
        <time>2017-10-01T10:26:31.000Z</time>
      </trkpt>
      <trkpt lat="45.01112" lon="1.08853">
        <ele>71</ele>
        <time>2017-10-01T10:26:32.000Z</time>
      </trkpt>
      <trkpt lat="45.01113" lon="1.08855">
        <ele>71</ele>
        <time>2017-10-01T10:26:33.000Z</time>
      </trkpt>
      <trkpt lat="45.01113" lon="1.08857">
        <ele>71</ele>
        <time>2017-10-01T10:26:34.000Z</time>
      </trkpt>
      <trkpt lat="45.01114" lon="1.08858">
        <ele>71</ele>
        <time>2017-10-01T10:26:35.000Z</time>
      </trkpt>
      <trkpt lat="45.01114" lon="1.08859">
        <ele>71</ele>
        <time>2017-10-01T10:26:38.000Z</time>
      </trkpt>
      <trkpt lat="45.01114" lon="1.08859">
        <ele>71</ele>
        <time>2017-10-01T10:26:38.000Z</time>
      </trkpt>
      <trkpt lat="45.01114" lon="1.0886">
        <ele>71</ele>
        <time>2017-10-01T10:26:38.000Z</time>
      </trkpt>
      <trkpt lat="45.01114" lon="1.0886">
        <ele>71</ele>
        <time>2017-10-01T10:26:48.000Z</time>
      </trkpt>
      <trkpt lat="45.01114" lon="1.0886">
        <ele>71</ele>
        <time>2017-10-01T10:26:48.000Z</time>
      </trkpt>
      <trkpt lat="45.01114" lon="1.0886">
        <ele>71</ele>
        <time>2017-10-01T10:26:48.000Z</time>
      </trkpt>
      <trkpt lat="45.01114" lon="1.0886">
        <ele>71</ele>
        <time>2017-10-01T10:26:48.000Z</time>
      </trkpt>
      <trkpt lat="45.01114" lon="1.0886">
        <ele>71</ele>
        <time>2017-10-01T10:26:48.000Z</time>
      </trkpt>
      <trkpt lat="45.01114" lon="1.0886">
        <ele>71</ele>
        <time>2017-10-01T10:26:48.000Z</time>
      </trkpt>
      <trkpt lat="45.01114" lon="1.0886">
        <ele>71</ele>
        <time>2017-10-01T10:26:48.000Z</time>
      </trkpt>
      <trkpt lat="45.01114" lon="1.0886">
        <ele>71</ele>
        <time>2017-10-01T10:26:48.000Z</time>
      </trkpt>
      <trkpt lat="45.01114" lon="1.0886">
        <ele>71</ele>
        <time>2017-10-01T10:26:48.000Z</time>
      </trkpt>
      <trkpt lat="45.01114" lon="1.0886">
        <ele>71</ele>
        <time>2017-10-01T10:26:48.000Z</time>
      </trkpt>
      <trkpt lat="45.01114" lon="1.08861">
        <ele>71</ele>
        <time>2017-10-01T10:26:49.000Z</time>
      </trkpt>
    </trkseg>
  </trk>
</gpx>